<?xml version="1.0" encoding="UTF-8" standalone="no" ?>
<gpx xmlns="http://www.topografix.com/GPX/1/1" xmlns:xsi="http://www.w3.org/2001/XMLSchema-instance" xsi:schemaLocation="http://www.topografix.com/GPX/1/1 http://www.topografix.com/GPX/1/1/gpx.xsd" version="1.1" creator="VisuGPX - https://www.visugpx.com">
  <metadata>
    <name>Pilat  en partant de Rives de Giers</name>
    <desc><![CDATA[Boucle avec Départ  Rives de Giers en passant par le col de la grande croix]]></desc>
  </metadata>
  <trk>
    <name><![CDATA[Pilat par rives de giers]]></name>
    <desc><![CDATA[]]></desc>
    <trkseg>
      <trkpt lat="45.52922" lon="4.61859">
        <ele>302.5</ele>
        <time>2014-04-19T12:51:03.603Z</time>
      </trkpt>
      <trkpt lat="45.52922" lon="4.61859">
        <ele>294.9</ele>
        <time>2014-04-19T12:51:09.441Z</time>
      </trkpt>
      <trkpt lat="45.52921" lon="4.61838">
        <ele>298.8</ele>
        <time>2014-04-19T12:51:09.626Z</time>
      </trkpt>
      <trkpt lat="45.52926" lon="4.61848">
        <ele>290.7</ele>
        <time>2014-04-19T12:52:18.731Z</time>
      </trkpt>
      <trkpt lat="45.52925" lon="4.6185">
        <ele>290.6</ele>
        <time>2014-04-19T12:52:18.825Z</time>
      </trkpt>
      <trkpt lat="45.52926" lon="4.61862">
        <ele>290</ele>
        <time>2014-04-19T12:52:23.781Z</time>
      </trkpt>
      <trkpt lat="45.52925" lon="4.61866">
        <ele>289.9</ele>
        <time>2014-04-19T12:52:23.815Z</time>
      </trkpt>
      <trkpt lat="45.52924" lon="4.61878">
        <ele>289.5</ele>
        <time>2014-04-19T12:52:26.855Z</time>
      </trkpt>
      <trkpt lat="45.52924" lon="4.61883">
        <ele>289.4</ele>
        <time>2014-04-19T12:52:27.846Z</time>
      </trkpt>
      <trkpt lat="45.52925" lon="4.61892">
        <ele>289.1</ele>
        <time>2014-04-19T12:52:29.831Z</time>
      </trkpt>
      <trkpt lat="45.52925" lon="4.61896">
        <ele>289</ele>
        <time>2014-04-19T12:52:30.825Z</time>
      </trkpt>
      <trkpt lat="45.52926" lon="4.61906">
        <ele>288.8</ele>
        <time>2014-04-19T12:52:32.862Z</time>
      </trkpt>
      <trkpt lat="45.52927" lon="4.61911">
        <ele>288.8</ele>
        <time>2014-04-19T12:52:33.843Z</time>
      </trkpt>
      <trkpt lat="45.52928" lon="4.61922">
        <ele>288.6</ele>
        <time>2014-04-19T12:52:35.832Z</time>
      </trkpt>
      <trkpt lat="45.52928" lon="4.61927">
        <ele>288.5</ele>
        <time>2014-04-19T12:52:36.814Z</time>
      </trkpt>
      <trkpt lat="45.52926" lon="4.61938">
        <ele>288.4</ele>
        <time>2014-04-19T12:52:39.859Z</time>
      </trkpt>
      <trkpt lat="45.52923" lon="4.61943">
        <ele>288.3</ele>
        <time>2014-04-19T12:52:40.860Z</time>
      </trkpt>
      <trkpt lat="45.52916" lon="4.61949">
        <ele>287.7</ele>
        <time>2014-04-19T12:52:44.858Z</time>
      </trkpt>
      <trkpt lat="45.52915" lon="4.61949">
        <ele>287.6</ele>
        <time>2014-04-19T12:52:45.830Z</time>
      </trkpt>
      <trkpt lat="45.52907" lon="4.61953">
        <ele>287.4</ele>
        <time>2014-04-19T12:52:49.952Z</time>
      </trkpt>
      <trkpt lat="45.52906" lon="4.61957">
        <ele>287.4</ele>
        <time>2014-04-19T12:52:50.827Z</time>
      </trkpt>
      <trkpt lat="45.52905" lon="4.61969">
        <ele>288.4</ele>
        <time>2014-04-19T12:52:53.652Z</time>
      </trkpt>
      <trkpt lat="45.52904" lon="4.61976">
        <ele>288.5</ele>
        <time>2014-04-19T12:52:53.842Z</time>
      </trkpt>
      <trkpt lat="45.52903" lon="4.61985">
        <ele>289.7</ele>
        <time>2014-04-19T12:52:55.927Z</time>
      </trkpt>
      <trkpt lat="45.52902" lon="4.6199">
        <ele>290.1</ele>
        <time>2014-04-19T12:52:56.890Z</time>
      </trkpt>
      <trkpt lat="45.52902" lon="4.62002">
        <ele>290.3</ele>
        <time>2014-04-19T12:52:58.870Z</time>
      </trkpt>
      <trkpt lat="45.52902" lon="4.62009">
        <ele>290.4</ele>
        <time>2014-04-19T12:52:59.834Z</time>
      </trkpt>
      <trkpt lat="45.52902" lon="4.62021">
        <ele>291.4</ele>
        <time>2014-04-19T12:53:01.957Z</time>
      </trkpt>
      <trkpt lat="45.52902" lon="4.62028">
        <ele>291.5</ele>
        <time>2014-04-19T12:53:02.875Z</time>
      </trkpt>
      <trkpt lat="45.52902" lon="4.62038">
        <ele>291.6</ele>
        <time>2014-04-19T12:53:04.890Z</time>
      </trkpt>
      <trkpt lat="45.52902" lon="4.62044">
        <ele>291.4</ele>
        <time>2014-04-19T12:53:05.849Z</time>
      </trkpt>
      <trkpt lat="45.52903" lon="4.62051">
        <ele>291.1</ele>
        <time>2014-04-19T12:53:06.974Z</time>
      </trkpt>
      <trkpt lat="45.52904" lon="4.62057">
        <ele>290.5</ele>
        <time>2014-04-19T12:53:07.868Z</time>
      </trkpt>
      <trkpt lat="45.52905" lon="4.62064">
        <ele>290</ele>
        <time>2014-04-19T12:53:09.264Z</time>
      </trkpt>
      <trkpt lat="45.52907" lon="4.6207">
        <ele>289.6</ele>
        <time>2014-04-19T12:53:09.956Z</time>
      </trkpt>
      <trkpt lat="45.5291" lon="4.62081">
        <ele>289.7</ele>
        <time>2014-04-19T12:53:11.876Z</time>
      </trkpt>
      <trkpt lat="45.52912" lon="4.62087">
        <ele>289.8</ele>
        <time>2014-04-19T12:53:12.869Z</time>
      </trkpt>
      <trkpt lat="45.52915" lon="4.62098">
        <ele>291</ele>
        <time>2014-04-19T12:53:14.937Z</time>
      </trkpt>
      <trkpt lat="45.52917" lon="4.62105">
        <ele>291.5</ele>
        <time>2014-04-19T12:53:15.878Z</time>
      </trkpt>
      <trkpt lat="45.52919" lon="4.62112">
        <ele>292.1</ele>
        <time>2014-04-19T12:53:16.945Z</time>
      </trkpt>
      <trkpt lat="45.52923" lon="4.6212">
        <ele>292.4</ele>
        <time>2014-04-19T12:53:17.848Z</time>
      </trkpt>
      <trkpt lat="45.52926" lon="4.62125">
        <ele>292.6</ele>
        <time>2014-04-19T12:53:18.952Z</time>
      </trkpt>
      <trkpt lat="45.52931" lon="4.62131">
        <ele>292.7</ele>
        <time>2014-04-19T12:53:19.917Z</time>
      </trkpt>
      <trkpt lat="45.52934" lon="4.62137">
        <ele>292.6</ele>
        <time>2014-04-19T12:53:21.283Z</time>
      </trkpt>
      <trkpt lat="45.52939" lon="4.62142">
        <ele>292.4</ele>
        <time>2014-04-19T12:53:21.895Z</time>
      </trkpt>
      <trkpt lat="45.52943" lon="4.62147">
        <ele>292.3</ele>
        <time>2014-04-19T12:53:22.987Z</time>
      </trkpt>
      <trkpt lat="45.52947" lon="4.62152">
        <ele>292.2</ele>
        <time>2014-04-19T12:53:23.875Z</time>
      </trkpt>
      <trkpt lat="45.52951" lon="4.62156">
        <ele>292.3</ele>
        <time>2014-04-19T12:53:24.843Z</time>
      </trkpt>
      <trkpt lat="45.52955" lon="4.6216">
        <ele>292.3</ele>
        <time>2014-04-19T12:53:25.861Z</time>
      </trkpt>
      <trkpt lat="45.52962" lon="4.62167">
        <ele>292.4</ele>
        <time>2014-04-19T12:53:27.869Z</time>
      </trkpt>
      <trkpt lat="45.52965" lon="4.62172">
        <ele>292.3</ele>
        <time>2014-04-19T12:53:28.863Z</time>
      </trkpt>
      <trkpt lat="45.52971" lon="4.6218">
        <ele>292.2</ele>
        <time>2014-04-19T12:53:30.980Z</time>
      </trkpt>
      <trkpt lat="45.52975" lon="4.62184">
        <ele>292.2</ele>
        <time>2014-04-19T12:53:31.865Z</time>
      </trkpt>
      <trkpt lat="45.52978" lon="4.62189">
        <ele>292.2</ele>
        <time>2014-04-19T12:53:32.862Z</time>
      </trkpt>
      <trkpt lat="45.52981" lon="4.62193">
        <ele>292.2</ele>
        <time>2014-04-19T12:53:33.870Z</time>
      </trkpt>
      <trkpt lat="45.52988" lon="4.622">
        <ele>291.5</ele>
        <time>2014-04-19T12:53:35.958Z</time>
      </trkpt>
      <trkpt lat="45.5299" lon="4.62205">
        <ele>290.8</ele>
        <time>2014-04-19T12:53:36.873Z</time>
      </trkpt>
      <trkpt lat="45.52994" lon="4.62214">
        <ele>290.7</ele>
        <time>2014-04-19T12:53:39.135Z</time>
      </trkpt>
      <trkpt lat="45.52996" lon="4.62219">
        <ele>290.5</ele>
        <time>2014-04-19T12:53:39.896Z</time>
      </trkpt>
      <trkpt lat="45.53" lon="4.6223">
        <ele>289.5</ele>
        <time>2014-04-19T12:53:41.950Z</time>
      </trkpt>
      <trkpt lat="45.53001" lon="4.62235">
        <ele>288.8</ele>
        <time>2014-04-19T12:53:42.873Z</time>
      </trkpt>
      <trkpt lat="45.53003" lon="4.62246">
        <ele>288</ele>
        <time>2014-04-19T12:53:44.946Z</time>
      </trkpt>
      <trkpt lat="45.53003" lon="4.62252">
        <ele>287.9</ele>
        <time>2014-04-19T12:53:45.896Z</time>
      </trkpt>
      <trkpt lat="45.53004" lon="4.62258">
        <ele>287.9</ele>
        <time>2014-04-19T12:53:46.972Z</time>
      </trkpt>
      <trkpt lat="45.53005" lon="4.62265">
        <ele>287.6</ele>
        <time>2014-04-19T12:53:47.833Z</time>
      </trkpt>
      <trkpt lat="45.53006" lon="4.62272">
        <ele>287.2</ele>
        <time>2014-04-19T12:53:49.288Z</time>
      </trkpt>
      <trkpt lat="45.53006" lon="4.62278">
        <ele>287</ele>
        <time>2014-04-19T12:53:49.841Z</time>
      </trkpt>
      <trkpt lat="45.53006" lon="4.62285">
        <ele>286.8</ele>
        <time>2014-04-19T12:53:50.887Z</time>
      </trkpt>
      <trkpt lat="45.53005" lon="4.62293">
        <ele>286.6</ele>
        <time>2014-04-19T12:53:51.893Z</time>
      </trkpt>
      <trkpt lat="45.53005" lon="4.623">
        <ele>286.2</ele>
        <time>2014-04-19T12:53:53.014Z</time>
      </trkpt>
      <trkpt lat="45.53005" lon="4.62306">
        <ele>285.9</ele>
        <time>2014-04-19T12:53:54.005Z</time>
      </trkpt>
      <trkpt lat="45.53005" lon="4.62316">
        <ele>285.8</ele>
        <time>2014-04-19T12:53:55.921Z</time>
      </trkpt>
      <trkpt lat="45.53005" lon="4.6232">
        <ele>285.8</ele>
        <time>2014-04-19T12:53:56.878Z</time>
      </trkpt>
      <trkpt lat="45.53006" lon="4.62333">
        <ele>286.1</ele>
        <time>2014-04-19T12:54:02.953Z</time>
      </trkpt>
      <trkpt lat="45.53007" lon="4.62335">
        <ele>286.2</ele>
        <time>2014-04-19T12:54:03.865Z</time>
      </trkpt>
      <trkpt lat="45.53006" lon="4.62347">
        <ele>286.5</ele>
        <time>2014-04-19T12:54:06.901Z</time>
      </trkpt>
      <trkpt lat="45.53006" lon="4.62352">
        <ele>286.6</ele>
        <time>2014-04-19T12:54:07.880Z</time>
      </trkpt>
      <trkpt lat="45.53005" lon="4.62358">
        <ele>286.8</ele>
        <time>2014-04-19T12:54:09.231Z</time>
      </trkpt>
      <trkpt lat="45.53004" lon="4.62365">
        <ele>286.9</ele>
        <time>2014-04-19T12:54:09.884Z</time>
      </trkpt>
      <trkpt lat="45.53002" lon="4.62376">
        <ele>289.2</ele>
        <time>2014-04-19T12:54:11.918Z</time>
      </trkpt>
      <trkpt lat="45.53" lon="4.62382">
        <ele>289.7</ele>
        <time>2014-04-19T12:54:12.836Z</time>
      </trkpt>
      <trkpt lat="45.52998" lon="4.62389">
        <ele>290.1</ele>
        <time>2014-04-19T12:54:14.241Z</time>
      </trkpt>
      <trkpt lat="45.52995" lon="4.62394">
        <ele>290.2</ele>
        <time>2014-04-19T12:54:14.852Z</time>
      </trkpt>
      <trkpt lat="45.52991" lon="4.624">
        <ele>289.9</ele>
        <time>2014-04-19T12:54:15.955Z</time>
      </trkpt>
      <trkpt lat="45.52986" lon="4.62405">
        <ele>289.5</ele>
        <time>2014-04-19T12:54:16.844Z</time>
      </trkpt>
      <trkpt lat="45.5298" lon="4.62408">
        <ele>288.9</ele>
        <time>2014-04-19T12:54:17.892Z</time>
      </trkpt>
      <trkpt lat="45.52975" lon="4.6241">
        <ele>288.5</ele>
        <time>2014-04-19T12:54:18.846Z</time>
      </trkpt>
      <trkpt lat="45.52971" lon="4.62412">
        <ele>288.1</ele>
        <time>2014-04-19T12:54:19.970Z</time>
      </trkpt>
      <trkpt lat="45.52965" lon="4.62412">
        <ele>287.8</ele>
        <time>2014-04-19T12:54:20.878Z</time>
      </trkpt>
      <trkpt lat="45.5296" lon="4.62412">
        <ele>287.6</ele>
        <time>2014-04-19T12:54:21.942Z</time>
      </trkpt>
      <trkpt lat="45.52953" lon="4.6241">
        <ele>287.6</ele>
        <time>2014-04-19T12:54:22.846Z</time>
      </trkpt>
      <trkpt lat="45.52947" lon="4.62409">
        <ele>287.5</ele>
        <time>2014-04-19T12:54:24.291Z</time>
      </trkpt>
      <trkpt lat="45.52941" lon="4.62408">
        <ele>287.9</ele>
        <time>2014-04-19T12:54:24.893Z</time>
      </trkpt>
      <trkpt lat="45.52935" lon="4.62406">
        <ele>287.8</ele>
        <time>2014-04-19T12:54:25.905Z</time>
      </trkpt>
      <trkpt lat="45.5293" lon="4.62404">
        <ele>287.9</ele>
        <time>2014-04-19T12:54:26.881Z</time>
      </trkpt>
      <trkpt lat="45.52923" lon="4.62402">
        <ele>288.5</ele>
        <time>2014-04-19T12:54:29.319Z</time>
      </trkpt>
      <trkpt lat="45.5292" lon="4.62401">
        <ele>288.5</ele>
        <time>2014-04-19T12:54:29.875Z</time>
      </trkpt>
      <trkpt lat="45.52913" lon="4.624">
        <ele>288.6</ele>
        <time>2014-04-19T12:54:32.134Z</time>
      </trkpt>
      <trkpt lat="45.52909" lon="4.62399">
        <ele>288.7</ele>
        <time>2014-04-19T12:54:32.864Z</time>
      </trkpt>
      <trkpt lat="45.52903" lon="4.62398">
        <ele>288.8</ele>
        <time>2014-04-19T12:54:34.900Z</time>
      </trkpt>
      <trkpt lat="45.529" lon="4.62397">
        <ele>288.8</ele>
        <time>2014-04-19T12:54:35.866Z</time>
      </trkpt>
      <trkpt lat="45.52894" lon="4.62397">
        <ele>288.8</ele>
        <time>2014-04-19T12:54:38.074Z</time>
      </trkpt>
      <trkpt lat="45.52891" lon="4.62396">
        <ele>288.8</ele>
        <time>2014-04-19T12:54:38.869Z</time>
      </trkpt>
      <trkpt lat="45.52883" lon="4.62395">
        <ele>289</ele>
        <time>2014-04-19T12:54:41.853Z</time>
      </trkpt>
      <trkpt lat="45.5288" lon="4.62396">
        <ele>289.1</ele>
        <time>2014-04-19T12:54:42.850Z</time>
      </trkpt>
      <trkpt lat="45.52872" lon="4.62396">
        <ele>289.4</ele>
        <time>2014-04-19T12:54:45.968Z</time>
      </trkpt>
      <trkpt lat="45.52869" lon="4.62395">
        <ele>289.5</ele>
        <time>2014-04-19T12:54:46.836Z</time>
      </trkpt>
      <trkpt lat="45.52861" lon="4.62392">
        <ele>289.7</ele>
        <time>2014-04-19T12:54:49.988Z</time>
      </trkpt>
      <trkpt lat="45.52858" lon="4.62392">
        <ele>289.8</ele>
        <time>2014-04-19T12:54:50.831Z</time>
      </trkpt>
      <trkpt lat="45.52852" lon="4.62393">
        <ele>290.1</ele>
        <time>2014-04-19T12:54:53.529Z</time>
      </trkpt>
      <trkpt lat="45.52848" lon="4.62395">
        <ele>290.3</ele>
        <time>2014-04-19T12:54:53.822Z</time>
      </trkpt>
      <trkpt lat="45.52844" lon="4.62397">
        <ele>291.5</ele>
        <time>2014-04-19T12:54:54.926Z</time>
      </trkpt>
      <trkpt lat="45.52839" lon="4.624">
        <ele>292.5</ele>
        <time>2014-04-19T12:54:55.828Z</time>
      </trkpt>
      <trkpt lat="45.52835" lon="4.62402">
        <ele>293.7</ele>
        <time>2014-04-19T12:54:56.941Z</time>
      </trkpt>
      <trkpt lat="45.5283" lon="4.62405">
        <ele>295.1</ele>
        <time>2014-04-19T12:54:57.865Z</time>
      </trkpt>
      <trkpt lat="45.52825" lon="4.62408">
        <ele>296.5</ele>
        <time>2014-04-19T12:54:58.973Z</time>
      </trkpt>
      <trkpt lat="45.52821" lon="4.6241">
        <ele>297.2</ele>
        <time>2014-04-19T12:54:59.877Z</time>
      </trkpt>
      <trkpt lat="45.52816" lon="4.62413">
        <ele>297.5</ele>
        <time>2014-04-19T12:55:00.857Z</time>
      </trkpt>
      <trkpt lat="45.52811" lon="4.62415">
        <ele>297.6</ele>
        <time>2014-04-19T12:55:01.849Z</time>
      </trkpt>
      <trkpt lat="45.52806" lon="4.62417">
        <ele>297.7</ele>
        <time>2014-04-19T12:55:03.668Z</time>
      </trkpt>
      <trkpt lat="45.528" lon="4.6242">
        <ele>297.8</ele>
        <time>2014-04-19T12:55:04.304Z</time>
      </trkpt>
      <trkpt lat="45.52795" lon="4.62422">
        <ele>297.7</ele>
        <time>2014-04-19T12:55:04.866Z</time>
      </trkpt>
      <trkpt lat="45.5279" lon="4.62425">
        <ele>297.5</ele>
        <time>2014-04-19T12:55:05.866Z</time>
      </trkpt>
      <trkpt lat="45.52785" lon="4.62427">
        <ele>297.2</ele>
        <time>2014-04-19T12:55:06.942Z</time>
      </trkpt>
      <trkpt lat="45.5278" lon="4.62429">
        <ele>297</ele>
        <time>2014-04-19T12:55:07.858Z</time>
      </trkpt>
      <trkpt lat="45.52772" lon="4.62429">
        <ele>296.8</ele>
        <time>2014-04-19T12:55:09.933Z</time>
      </trkpt>
      <trkpt lat="45.52768" lon="4.62429">
        <ele>296.8</ele>
        <time>2014-04-19T12:55:10.884Z</time>
      </trkpt>
      <trkpt lat="45.5276" lon="4.62429">
        <ele>296.9</ele>
        <time>2014-04-19T12:55:13.851Z</time>
      </trkpt>
      <trkpt lat="45.52756" lon="4.6243">
        <ele>298</ele>
        <time>2014-04-19T12:55:13.977Z</time>
      </trkpt>
      <trkpt lat="45.52748" lon="4.62433">
        <ele>298.3</ele>
        <time>2014-04-19T12:55:15.896Z</time>
      </trkpt>
      <trkpt lat="45.52744" lon="4.62434">
        <ele>298.5</ele>
        <time>2014-04-19T12:55:16.955Z</time>
      </trkpt>
      <trkpt lat="45.52738" lon="4.62436">
        <ele>299.1</ele>
        <time>2014-04-19T12:55:18.933Z</time>
      </trkpt>
      <trkpt lat="45.52734" lon="4.62437">
        <ele>299.5</ele>
        <time>2014-04-19T12:55:19.873Z</time>
      </trkpt>
      <trkpt lat="45.52729" lon="4.62435">
        <ele>299.7</ele>
        <time>2014-04-19T12:55:20.900Z</time>
      </trkpt>
      <trkpt lat="45.52725" lon="4.62436">
        <ele>301.1</ele>
        <time>2014-04-19T12:55:21.867Z</time>
      </trkpt>
      <trkpt lat="45.5272" lon="4.62438">
        <ele>301.3</ele>
        <time>2014-04-19T12:55:23.954Z</time>
      </trkpt>
      <trkpt lat="45.52711" lon="4.62442">
        <ele>300.2</ele>
        <time>2014-04-19T12:55:24.889Z</time>
      </trkpt>
      <trkpt lat="45.52707" lon="4.62444">
        <ele>299.8</ele>
        <time>2014-04-19T12:55:26.151Z</time>
      </trkpt>
      <trkpt lat="45.52703" lon="4.62446">
        <ele>299.8</ele>
        <time>2014-04-19T12:55:26.863Z</time>
      </trkpt>
      <trkpt lat="45.52698" lon="4.62448">
        <ele>300.1</ele>
        <time>2014-04-19T12:55:27.936Z</time>
      </trkpt>
      <trkpt lat="45.52694" lon="4.6245">
        <ele>300.5</ele>
        <time>2014-04-19T12:55:28.849Z</time>
      </trkpt>
      <trkpt lat="45.52689" lon="4.62452">
        <ele>300.7</ele>
        <time>2014-04-19T12:55:29.950Z</time>
      </trkpt>
      <trkpt lat="45.52685" lon="4.62453">
        <ele>301.1</ele>
        <time>2014-04-19T12:55:30.872Z</time>
      </trkpt>
      <trkpt lat="45.52676" lon="4.62457">
        <ele>301.2</ele>
        <time>2014-04-19T12:55:33.061Z</time>
      </trkpt>
      <trkpt lat="45.52672" lon="4.62458">
        <ele>302.4</ele>
        <time>2014-04-19T12:55:33.863Z</time>
      </trkpt>
      <trkpt lat="45.52667" lon="4.62459">
        <ele>303.5</ele>
        <time>2014-04-19T12:55:34.951Z</time>
      </trkpt>
      <trkpt lat="45.52662" lon="4.62461">
        <ele>304.6</ele>
        <time>2014-04-19T12:55:35.876Z</time>
      </trkpt>
      <trkpt lat="45.52658" lon="4.62462">
        <ele>305.7</ele>
        <time>2014-04-19T12:55:36.911Z</time>
      </trkpt>
      <trkpt lat="45.52653" lon="4.62463">
        <ele>306.3</ele>
        <time>2014-04-19T12:55:37.826Z</time>
      </trkpt>
      <trkpt lat="45.52647" lon="4.62465">
        <ele>306.9</ele>
        <time>2014-04-19T12:55:39.198Z</time>
      </trkpt>
      <trkpt lat="45.52642" lon="4.62466">
        <ele>307</ele>
        <time>2014-04-19T12:55:39.876Z</time>
      </trkpt>
      <trkpt lat="45.52638" lon="4.62466">
        <ele>306.6</ele>
        <time>2014-04-19T12:55:40.967Z</time>
      </trkpt>
      <trkpt lat="45.52633" lon="4.62467">
        <ele>306.6</ele>
        <time>2014-04-19T12:55:41.830Z</time>
      </trkpt>
      <trkpt lat="45.52626" lon="4.62468">
        <ele>305</ele>
        <time>2014-04-19T12:55:44.192Z</time>
      </trkpt>
      <trkpt lat="45.52623" lon="4.6247">
        <ele>304.8</ele>
        <time>2014-04-19T12:55:44.868Z</time>
      </trkpt>
      <trkpt lat="45.52616" lon="4.62474">
        <ele>304.5</ele>
        <time>2014-04-19T12:55:46.850Z</time>
      </trkpt>
      <trkpt lat="45.52614" lon="4.62478">
        <ele>304.3</ele>
        <time>2014-04-19T12:55:47.853Z</time>
      </trkpt>
      <trkpt lat="45.52611" lon="4.62483">
        <ele>304.1</ele>
        <time>2014-04-19T12:55:49.235Z</time>
      </trkpt>
      <trkpt lat="45.52607" lon="4.62488">
        <ele>303.9</ele>
        <time>2014-04-19T12:55:49.869Z</time>
      </trkpt>
      <trkpt lat="45.52603" lon="4.62492">
        <ele>303.7</ele>
        <time>2014-04-19T12:55:50.950Z</time>
      </trkpt>
      <trkpt lat="45.52599" lon="4.62496">
        <ele>303.6</ele>
        <time>2014-04-19T12:55:51.823Z</time>
      </trkpt>
      <trkpt lat="45.52592" lon="4.62502">
        <ele>303.4</ele>
        <time>2014-04-19T12:55:53.857Z</time>
      </trkpt>
      <trkpt lat="45.52588" lon="4.62505">
        <ele>302.5</ele>
        <time>2014-04-19T12:55:54.856Z</time>
      </trkpt>
      <trkpt lat="45.52581" lon="4.62509">
        <ele>302</ele>
        <time>2014-04-19T12:55:57.015Z</time>
      </trkpt>
      <trkpt lat="45.52578" lon="4.62512">
        <ele>301.9</ele>
        <time>2014-04-19T12:55:57.865Z</time>
      </trkpt>
      <trkpt lat="45.52572" lon="4.62516">
        <ele>301.8</ele>
        <time>2014-04-19T12:55:59.944Z</time>
      </trkpt>
      <trkpt lat="45.52568" lon="4.62518">
        <ele>301.7</ele>
        <time>2014-04-19T12:56:00.831Z</time>
      </trkpt>
      <trkpt lat="45.52562" lon="4.62522">
        <ele>301.1</ele>
        <time>2014-04-19T12:56:03.750Z</time>
      </trkpt>
      <trkpt lat="45.52558" lon="4.62524">
        <ele>301.1</ele>
        <time>2014-04-19T12:56:03.897Z</time>
      </trkpt>
      <trkpt lat="45.5255" lon="4.62527">
        <ele>301.2</ele>
        <time>2014-04-19T12:56:05.937Z</time>
      </trkpt>
      <trkpt lat="45.52546" lon="4.62528">
        <ele>301.3</ele>
        <time>2014-04-19T12:56:06.866Z</time>
      </trkpt>
      <trkpt lat="45.52538" lon="4.62531">
        <ele>302.8</ele>
        <time>2014-04-19T12:56:08.963Z</time>
      </trkpt>
      <trkpt lat="45.52535" lon="4.62532">
        <ele>302.9</ele>
        <time>2014-04-19T12:56:09.868Z</time>
      </trkpt>
      <trkpt lat="45.5253" lon="4.62532">
        <ele>302.9</ele>
        <time>2014-04-19T12:56:10.939Z</time>
      </trkpt>
      <trkpt lat="45.52525" lon="4.62532">
        <ele>302.9</ele>
        <time>2014-04-19T12:56:11.826Z</time>
      </trkpt>
      <trkpt lat="45.52517" lon="4.62531">
        <ele>304.5</ele>
        <time>2014-04-19T12:56:13.977Z</time>
      </trkpt>
      <trkpt lat="45.52513" lon="4.6253">
        <ele>305</ele>
        <time>2014-04-19T12:56:14.837Z</time>
      </trkpt>
      <trkpt lat="45.52506" lon="4.62529">
        <ele>305.1</ele>
        <time>2014-04-19T12:56:16.845Z</time>
      </trkpt>
      <trkpt lat="45.52503" lon="4.62528">
        <ele>305.2</ele>
        <time>2014-04-19T12:56:17.856Z</time>
      </trkpt>
      <trkpt lat="45.52497" lon="4.62526">
        <ele>305.3</ele>
        <time>2014-04-19T12:56:20.625Z</time>
      </trkpt>
      <trkpt lat="45.52493" lon="4.62525">
        <ele>305.3</ele>
        <time>2014-04-19T12:56:20.830Z</time>
      </trkpt>
      <trkpt lat="45.52486" lon="4.62522">
        <ele>305.3</ele>
        <time>2014-04-19T12:56:22.862Z</time>
      </trkpt>
      <trkpt lat="45.52484" lon="4.6252">
        <ele>305.3</ele>
        <time>2014-04-19T12:56:23.864Z</time>
      </trkpt>
      <trkpt lat="45.52478" lon="4.62515">
        <ele>305.2</ele>
        <time>2014-04-19T12:56:25.946Z</time>
      </trkpt>
      <trkpt lat="45.52475" lon="4.62512">
        <ele>305.1</ele>
        <time>2014-04-19T12:56:26.933Z</time>
      </trkpt>
      <trkpt lat="45.5247" lon="4.62506">
        <ele>305</ele>
        <time>2014-04-19T12:56:29.308Z</time>
      </trkpt>
      <trkpt lat="45.52466" lon="4.62503">
        <ele>305</ele>
        <time>2014-04-19T12:56:29.836Z</time>
      </trkpt>
      <trkpt lat="45.52461" lon="4.62497">
        <ele>304.9</ele>
        <time>2014-04-19T12:56:31.974Z</time>
      </trkpt>
      <trkpt lat="45.52458" lon="4.62494">
        <ele>304.9</ele>
        <time>2014-04-19T12:56:32.872Z</time>
      </trkpt>
      <trkpt lat="45.52451" lon="4.62488">
        <ele>304.8</ele>
        <time>2014-04-19T12:56:34.849Z</time>
      </trkpt>
      <trkpt lat="45.52449" lon="4.62485">
        <ele>304.7</ele>
        <time>2014-04-19T12:56:35.880Z</time>
      </trkpt>
      <trkpt lat="45.52443" lon="4.62478">
        <ele>305.2</ele>
        <time>2014-04-19T12:56:37.982Z</time>
      </trkpt>
      <trkpt lat="45.5244" lon="4.62475">
        <ele>305.2</ele>
        <time>2014-04-19T12:56:38.853Z</time>
      </trkpt>
      <trkpt lat="45.52433" lon="4.62468">
        <ele>305.2</ele>
        <time>2014-04-19T12:56:40.901Z</time>
      </trkpt>
      <trkpt lat="45.5243" lon="4.62466">
        <ele>305.2</ele>
        <time>2014-04-19T12:56:41.814Z</time>
      </trkpt>
      <trkpt lat="45.52425" lon="4.62461">
        <ele>305.2</ele>
        <time>2014-04-19T12:56:44.455Z</time>
      </trkpt>
      <trkpt lat="45.52422" lon="4.62458">
        <ele>305.2</ele>
        <time>2014-04-19T12:56:44.840Z</time>
      </trkpt>
      <trkpt lat="45.52416" lon="4.62452">
        <ele>305.2</ele>
        <time>2014-04-19T12:56:46.884Z</time>
      </trkpt>
      <trkpt lat="45.52413" lon="4.6245">
        <ele>305.2</ele>
        <time>2014-04-19T12:56:47.888Z</time>
      </trkpt>
      <trkpt lat="45.52406" lon="4.62445">
        <ele>305.1</ele>
        <time>2014-04-19T12:56:49.881Z</time>
      </trkpt>
      <trkpt lat="45.52403" lon="4.62443">
        <ele>305.1</ele>
        <time>2014-04-19T12:56:50.913Z</time>
      </trkpt>
      <trkpt lat="45.52397" lon="4.62439">
        <ele>305</ele>
        <time>2014-04-19T12:56:53.626Z</time>
      </trkpt>
      <trkpt lat="45.52393" lon="4.62437">
        <ele>305</ele>
        <time>2014-04-19T12:56:53.815Z</time>
      </trkpt>
      <trkpt lat="45.52387" lon="4.62434">
        <ele>305.1</ele>
        <time>2014-04-19T12:56:55.932Z</time>
      </trkpt>
      <trkpt lat="45.52384" lon="4.62434">
        <ele>305.2</ele>
        <time>2014-04-19T12:56:56.833Z</time>
      </trkpt>
      <trkpt lat="45.52375" lon="4.62433">
        <ele>305.7</ele>
        <time>2014-04-19T12:56:59.979Z</time>
      </trkpt>
      <trkpt lat="45.52371" lon="4.62434">
        <ele>305.8</ele>
        <time>2014-04-19T12:57:00.855Z</time>
      </trkpt>
      <trkpt lat="45.52364" lon="4.62435">
        <ele>306.1</ele>
        <time>2014-04-19T12:57:03.887Z</time>
      </trkpt>
      <trkpt lat="45.52357" lon="4.62436">
        <ele>306.3</ele>
        <time>2014-04-19T12:57:04.864Z</time>
      </trkpt>
      <trkpt lat="45.5235" lon="4.62437">
        <ele>306.5</ele>
        <time>2014-04-19T12:57:06.883Z</time>
      </trkpt>
      <trkpt lat="45.52346" lon="4.62437">
        <ele>306.5</ele>
        <time>2014-04-19T12:57:07.855Z</time>
      </trkpt>
      <trkpt lat="45.52339" lon="4.62438">
        <ele>306.6</ele>
        <time>2014-04-19T12:57:09.915Z</time>
      </trkpt>
      <trkpt lat="45.52335" lon="4.62438">
        <ele>306.7</ele>
        <time>2014-04-19T12:57:10.872Z</time>
      </trkpt>
      <trkpt lat="45.52328" lon="4.6244">
        <ele>306.7</ele>
        <time>2014-04-19T12:57:12.952Z</time>
      </trkpt>
      <trkpt lat="45.52324" lon="4.62441">
        <ele>306.6</ele>
        <time>2014-04-19T12:57:13.873Z</time>
      </trkpt>
      <trkpt lat="45.52318" lon="4.62442">
        <ele>306.6</ele>
        <time>2014-04-19T12:57:16.067Z</time>
      </trkpt>
      <trkpt lat="45.52314" lon="4.62442">
        <ele>306.6</ele>
        <time>2014-04-19T12:57:16.829Z</time>
      </trkpt>
      <trkpt lat="45.52308" lon="4.62443">
        <ele>306.5</ele>
        <time>2014-04-19T12:57:19.015Z</time>
      </trkpt>
      <trkpt lat="45.52305" lon="4.62444">
        <ele>306.5</ele>
        <time>2014-04-19T12:57:19.881Z</time>
      </trkpt>
      <trkpt lat="45.52296" lon="4.62445">
        <ele>306.5</ele>
        <time>2014-04-19T12:57:22.882Z</time>
      </trkpt>
      <trkpt lat="45.52293" lon="4.62446">
        <ele>306.5</ele>
        <time>2014-04-19T12:57:23.990Z</time>
      </trkpt>
      <trkpt lat="45.52285" lon="4.62448">
        <ele>306.6</ele>
        <time>2014-04-19T12:57:26.963Z</time>
      </trkpt>
      <trkpt lat="45.52282" lon="4.62448">
        <ele>306.6</ele>
        <time>2014-04-19T12:57:27.845Z</time>
      </trkpt>
      <trkpt lat="45.52276" lon="4.6245">
        <ele>306.8</ele>
        <time>2014-04-19T12:57:29.900Z</time>
      </trkpt>
      <trkpt lat="45.52273" lon="4.62451">
        <ele>306.8</ele>
        <time>2014-04-19T12:57:30.882Z</time>
      </trkpt>
      <trkpt lat="45.52266" lon="4.62453">
        <ele>306.9</ele>
        <time>2014-04-19T12:57:32.865Z</time>
      </trkpt>
      <trkpt lat="45.52263" lon="4.62455">
        <ele>306.9</ele>
        <time>2014-04-19T12:57:33.875Z</time>
      </trkpt>
      <trkpt lat="45.52258" lon="4.62458">
        <ele>307</ele>
        <time>2014-04-19T12:57:35.977Z</time>
      </trkpt>
      <trkpt lat="45.52255" lon="4.62461">
        <ele>307</ele>
        <time>2014-04-19T12:57:36.949Z</time>
      </trkpt>
      <trkpt lat="45.52249" lon="4.62467">
        <ele>307.1</ele>
        <time>2014-04-19T12:57:39.210Z</time>
      </trkpt>
      <trkpt lat="45.52246" lon="4.6247">
        <ele>307.2</ele>
        <time>2014-04-19T12:57:39.870Z</time>
      </trkpt>
      <trkpt lat="45.52238" lon="4.62476">
        <ele>307.3</ele>
        <time>2014-04-19T12:57:42.921Z</time>
      </trkpt>
      <trkpt lat="45.52236" lon="4.62478">
        <ele>307.4</ele>
        <time>2014-04-19T12:57:43.867Z</time>
      </trkpt>
      <trkpt lat="45.52231" lon="4.62483">
        <ele>307.5</ele>
        <time>2014-04-19T12:57:45.941Z</time>
      </trkpt>
      <trkpt lat="45.52228" lon="4.62485">
        <ele>307.5</ele>
        <time>2014-04-19T12:57:46.879Z</time>
      </trkpt>
      <trkpt lat="45.52223" lon="4.62491">
        <ele>307.6</ele>
        <time>2014-04-19T12:57:49.248Z</time>
      </trkpt>
      <trkpt lat="45.52221" lon="4.62494">
        <ele>307.7</ele>
        <time>2014-04-19T12:57:49.877Z</time>
      </trkpt>
      <trkpt lat="45.52215" lon="4.62499">
        <ele>307.8</ele>
        <time>2014-04-19T12:57:51.902Z</time>
      </trkpt>
      <trkpt lat="45.52213" lon="4.62502">
        <ele>307.9</ele>
        <time>2014-04-19T12:57:52.841Z</time>
      </trkpt>
      <trkpt lat="45.52207" lon="4.62507">
        <ele>308</ele>
        <time>2014-04-19T12:57:54.882Z</time>
      </trkpt>
      <trkpt lat="45.52205" lon="4.62509">
        <ele>308</ele>
        <time>2014-04-19T12:57:55.870Z</time>
      </trkpt>
      <trkpt lat="45.52199" lon="4.62514">
        <ele>308.2</ele>
        <time>2014-04-19T12:57:58.660Z</time>
      </trkpt>
      <trkpt lat="45.52196" lon="4.62517">
        <ele>308.2</ele>
        <time>2014-04-19T12:57:58.856Z</time>
      </trkpt>
      <trkpt lat="45.52191" lon="4.62521">
        <ele>308.4</ele>
        <time>2014-04-19T12:58:00.956Z</time>
      </trkpt>
      <trkpt lat="45.52188" lon="4.62523">
        <ele>308.5</ele>
        <time>2014-04-19T12:58:01.903Z</time>
      </trkpt>
      <trkpt lat="45.52181" lon="4.62529">
        <ele>308.6</ele>
        <time>2014-04-19T12:58:03.942Z</time>
      </trkpt>
      <trkpt lat="45.52177" lon="4.62532">
        <ele>308.6</ele>
        <time>2014-04-19T12:58:04.885Z</time>
      </trkpt>
      <trkpt lat="45.52172" lon="4.62537">
        <ele>308.7</ele>
        <time>2014-04-19T12:58:06.926Z</time>
      </trkpt>
      <trkpt lat="45.5217" lon="4.62539">
        <ele>308.7</ele>
        <time>2014-04-19T12:58:07.873Z</time>
      </trkpt>
      <trkpt lat="45.52165" lon="4.62546">
        <ele>308.8</ele>
        <time>2014-04-19T12:58:10.051Z</time>
      </trkpt>
      <trkpt lat="45.52164" lon="4.6255">
        <ele>308.8</ele>
        <time>2014-04-19T12:58:10.889Z</time>
      </trkpt>
      <trkpt lat="45.52161" lon="4.62558">
        <ele>308.8</ele>
        <time>2014-04-19T12:58:13.789Z</time>
      </trkpt>
      <trkpt lat="45.5216" lon="4.62563">
        <ele>308.8</ele>
        <time>2014-04-19T12:58:13.930Z</time>
      </trkpt>
      <trkpt lat="45.52158" lon="4.62573">
        <ele>308.8</ele>
        <time>2014-04-19T12:58:15.968Z</time>
      </trkpt>
      <trkpt lat="45.52157" lon="4.62578">
        <ele>308.9</ele>
        <time>2014-04-19T12:58:16.828Z</time>
      </trkpt>
      <trkpt lat="45.52154" lon="4.62588">
        <ele>308.9</ele>
        <time>2014-04-19T12:58:18.878Z</time>
      </trkpt>
      <trkpt lat="45.52152" lon="4.62592">
        <ele>309</ele>
        <time>2014-04-19T12:58:19.872Z</time>
      </trkpt>
      <trkpt lat="45.52148" lon="4.62599">
        <ele>309</ele>
        <time>2014-04-19T12:58:21.939Z</time>
      </trkpt>
      <trkpt lat="45.52145" lon="4.62601">
        <ele>309.1</ele>
        <time>2014-04-19T12:58:22.856Z</time>
      </trkpt>
      <trkpt lat="45.52139" lon="4.62604">
        <ele>309.2</ele>
        <time>2014-04-19T12:58:24.856Z</time>
      </trkpt>
      <trkpt lat="45.52135" lon="4.62605">
        <ele>309.3</ele>
        <time>2014-04-19T12:58:25.869Z</time>
      </trkpt>
      <trkpt lat="45.52129" lon="4.62607">
        <ele>309.5</ele>
        <time>2014-04-19T12:58:27.857Z</time>
      </trkpt>
      <trkpt lat="45.52125" lon="4.62608">
        <ele>309.6</ele>
        <time>2014-04-19T12:58:28.848Z</time>
      </trkpt>
      <trkpt lat="45.52118" lon="4.62609">
        <ele>309.8</ele>
        <time>2014-04-19T12:58:30.890Z</time>
      </trkpt>
      <trkpt lat="45.52114" lon="4.62609">
        <ele>309.9</ele>
        <time>2014-04-19T12:58:31.853Z</time>
      </trkpt>
      <trkpt lat="45.52108" lon="4.62612">
        <ele>310</ele>
        <time>2014-04-19T12:58:33.937Z</time>
      </trkpt>
      <trkpt lat="45.52104" lon="4.62613">
        <ele>310.1</ele>
        <time>2014-04-19T12:58:34.829Z</time>
      </trkpt>
      <trkpt lat="45.52098" lon="4.62615">
        <ele>310.2</ele>
        <time>2014-04-19T12:58:36.933Z</time>
      </trkpt>
      <trkpt lat="45.52095" lon="4.62616">
        <ele>310.2</ele>
        <time>2014-04-19T12:58:37.852Z</time>
      </trkpt>
      <trkpt lat="45.52089" lon="4.62618">
        <ele>310.3</ele>
        <time>2014-04-19T12:58:39.830Z</time>
      </trkpt>
      <trkpt lat="45.52085" lon="4.62619">
        <ele>310.4</ele>
        <time>2014-04-19T12:58:40.803Z</time>
      </trkpt>
      <trkpt lat="45.52079" lon="4.62622">
        <ele>310.4</ele>
        <time>2014-04-19T12:58:43.119Z</time>
      </trkpt>
      <trkpt lat="45.52076" lon="4.62622">
        <ele>310.5</ele>
        <time>2014-04-19T12:58:43.849Z</time>
      </trkpt>
      <trkpt lat="45.52069" lon="4.62624">
        <ele>310.6</ele>
        <time>2014-04-19T12:58:46.013Z</time>
      </trkpt>
      <trkpt lat="45.52066" lon="4.62625">
        <ele>310.6</ele>
        <time>2014-04-19T12:58:46.837Z</time>
      </trkpt>
      <trkpt lat="45.52059" lon="4.62626">
        <ele>310.7</ele>
        <time>2014-04-19T12:58:48.928Z</time>
      </trkpt>
      <trkpt lat="45.52056" lon="4.62626">
        <ele>310.8</ele>
        <time>2014-04-19T12:58:49.804Z</time>
      </trkpt>
      <trkpt lat="45.52047" lon="4.62626">
        <ele>310.9</ele>
        <time>2014-04-19T12:58:53.508Z</time>
      </trkpt>
      <trkpt lat="45.52044" lon="4.62626">
        <ele>311</ele>
        <time>2014-04-19T12:58:53.792Z</time>
      </trkpt>
      <trkpt lat="45.52037" lon="4.62626">
        <ele>311.1</ele>
        <time>2014-04-19T12:58:55.889Z</time>
      </trkpt>
      <trkpt lat="45.52034" lon="4.62625">
        <ele>311.1</ele>
        <time>2014-04-19T12:58:56.807Z</time>
      </trkpt>
      <trkpt lat="45.52025" lon="4.62624">
        <ele>311.3</ele>
        <time>2014-04-19T12:59:00.134Z</time>
      </trkpt>
      <trkpt lat="45.52022" lon="4.62624">
        <ele>311.5</ele>
        <time>2014-04-19T12:59:00.850Z</time>
      </trkpt>
      <trkpt lat="45.52016" lon="4.62623">
        <ele>311.7</ele>
        <time>2014-04-19T12:59:02.845Z</time>
      </trkpt>
      <trkpt lat="45.52012" lon="4.62623">
        <ele>311.8</ele>
        <time>2014-04-19T12:59:03.864Z</time>
      </trkpt>
      <trkpt lat="45.52005" lon="4.62622">
        <ele>312</ele>
        <time>2014-04-19T12:59:05.937Z</time>
      </trkpt>
      <trkpt lat="45.52001" lon="4.62621">
        <ele>312.1</ele>
        <time>2014-04-19T12:59:06.873Z</time>
      </trkpt>
      <trkpt lat="45.51994" lon="4.6262">
        <ele>312.3</ele>
        <time>2014-04-19T12:59:09.000Z</time>
      </trkpt>
      <trkpt lat="45.5199" lon="4.62619">
        <ele>312.4</ele>
        <time>2014-04-19T12:59:09.866Z</time>
      </trkpt>
      <trkpt lat="45.51984" lon="4.62618">
        <ele>312.7</ele>
        <time>2014-04-19T12:59:12.006Z</time>
      </trkpt>
      <trkpt lat="45.51981" lon="4.62617">
        <ele>312.8</ele>
        <time>2014-04-19T12:59:12.803Z</time>
      </trkpt>
      <trkpt lat="45.51973" lon="4.62616">
        <ele>313</ele>
        <time>2014-04-19T12:59:14.966Z</time>
      </trkpt>
      <trkpt lat="45.5197" lon="4.62615">
        <ele>313.1</ele>
        <time>2014-04-19T12:59:15.955Z</time>
      </trkpt>
      <trkpt lat="45.51962" lon="4.62615">
        <ele>313.3</ele>
        <time>2014-04-19T12:59:17.937Z</time>
      </trkpt>
      <trkpt lat="45.51959" lon="4.62615">
        <ele>313.3</ele>
        <time>2014-04-19T12:59:18.857Z</time>
      </trkpt>
      <trkpt lat="45.51951" lon="4.62617">
        <ele>313.4</ele>
        <time>2014-04-19T12:59:20.956Z</time>
      </trkpt>
      <trkpt lat="45.51948" lon="4.62619">
        <ele>313.5</ele>
        <time>2014-04-19T12:59:21.811Z</time>
      </trkpt>
      <trkpt lat="45.51941" lon="4.62623">
        <ele>313.6</ele>
        <time>2014-04-19T12:59:24.086Z</time>
      </trkpt>
      <trkpt lat="45.51939" lon="4.62627">
        <ele>313.7</ele>
        <time>2014-04-19T12:59:24.848Z</time>
      </trkpt>
      <trkpt lat="45.51935" lon="4.62635">
        <ele>313.9</ele>
        <time>2014-04-19T12:59:26.881Z</time>
      </trkpt>
      <trkpt lat="45.51933" lon="4.6264">
        <ele>314</ele>
        <time>2014-04-19T12:59:27.809Z</time>
      </trkpt>
      <trkpt lat="45.5193" lon="4.6265">
        <ele>314.2</ele>
        <time>2014-04-19T12:59:29.883Z</time>
      </trkpt>
      <trkpt lat="45.51928" lon="4.62655">
        <ele>315.1</ele>
        <time>2014-04-19T12:59:30.855Z</time>
      </trkpt>
      <trkpt lat="45.51924" lon="4.62662">
        <ele>315.2</ele>
        <time>2014-04-19T12:59:32.836Z</time>
      </trkpt>
      <trkpt lat="45.51922" lon="4.62665">
        <ele>315.4</ele>
        <time>2014-04-19T12:59:33.813Z</time>
      </trkpt>
      <trkpt lat="45.51915" lon="4.6267">
        <ele>315.6</ele>
        <time>2014-04-19T12:59:36.240Z</time>
      </trkpt>
      <trkpt lat="45.51911" lon="4.62672">
        <ele>315.6</ele>
        <time>2014-04-19T12:59:36.841Z</time>
      </trkpt>
      <trkpt lat="45.51903" lon="4.62677">
        <ele>315.8</ele>
        <time>2014-04-19T12:59:39.174Z</time>
      </trkpt>
      <trkpt lat="45.519" lon="4.62679">
        <ele>315.9</ele>
        <time>2014-04-19T12:59:39.812Z</time>
      </trkpt>
      <trkpt lat="45.51895" lon="4.62682">
        <ele>316.1</ele>
        <time>2014-04-19T12:59:41.833Z</time>
      </trkpt>
      <trkpt lat="45.51892" lon="4.62684">
        <ele>316.1</ele>
        <time>2014-04-19T12:59:42.807Z</time>
      </trkpt>
      <trkpt lat="45.51886" lon="4.62687">
        <ele>316.3</ele>
        <time>2014-04-19T12:59:44.964Z</time>
      </trkpt>
      <trkpt lat="45.51883" lon="4.6269">
        <ele>316.4</ele>
        <time>2014-04-19T12:59:45.852Z</time>
      </trkpt>
      <trkpt lat="45.51878" lon="4.62695">
        <ele>316.6</ele>
        <time>2014-04-19T12:59:47.890Z</time>
      </trkpt>
      <trkpt lat="45.51876" lon="4.62698">
        <ele>316.7</ele>
        <time>2014-04-19T12:59:48.880Z</time>
      </trkpt>
      <trkpt lat="45.5187" lon="4.62708">
        <ele>316.9</ele>
        <time>2014-04-19T12:59:50.900Z</time>
      </trkpt>
      <trkpt lat="45.51868" lon="4.62714">
        <ele>316.9</ele>
        <time>2014-04-19T12:59:51.962Z</time>
      </trkpt>
      <trkpt lat="45.51863" lon="4.62724">
        <ele>317</ele>
        <time>2014-04-19T12:59:53.866Z</time>
      </trkpt>
      <trkpt lat="45.51861" lon="4.62728">
        <ele>317</ele>
        <time>2014-04-19T12:59:54.872Z</time>
      </trkpt>
      <trkpt lat="45.51857" lon="4.62734">
        <ele>317.1</ele>
        <time>2014-04-19T12:59:56.956Z</time>
      </trkpt>
      <trkpt lat="45.51853" lon="4.62736">
        <ele>317.2</ele>
        <time>2014-04-19T12:59:57.879Z</time>
      </trkpt>
      <trkpt lat="45.51846" lon="4.62739">
        <ele>317.3</ele>
        <time>2014-04-19T12:59:59.935Z</time>
      </trkpt>
      <trkpt lat="45.51843" lon="4.6274">
        <ele>317.3</ele>
        <time>2014-04-19T13:00:00.890Z</time>
      </trkpt>
      <trkpt lat="45.51837" lon="4.62742">
        <ele>317.4</ele>
        <time>2014-04-19T13:00:03.903Z</time>
      </trkpt>
      <trkpt lat="45.51831" lon="4.62744">
        <ele>317.6</ele>
        <time>2014-04-19T13:00:04.887Z</time>
      </trkpt>
      <trkpt lat="45.51823" lon="4.62747">
        <ele>317.9</ele>
        <time>2014-04-19T13:00:07.940Z</time>
      </trkpt>
      <trkpt lat="45.51819" lon="4.62748">
        <ele>318</ele>
        <time>2014-04-19T13:00:08.867Z</time>
      </trkpt>
      <trkpt lat="45.51812" lon="4.62751">
        <ele>318.2</ele>
        <time>2014-04-19T13:00:11.054Z</time>
      </trkpt>
      <trkpt lat="45.51808" lon="4.62753">
        <ele>318.3</ele>
        <time>2014-04-19T13:00:11.870Z</time>
      </trkpt>
      <trkpt lat="45.51801" lon="4.62756">
        <ele>318.4</ele>
        <time>2014-04-19T13:00:13.966Z</time>
      </trkpt>
      <trkpt lat="45.51797" lon="4.62757">
        <ele>318.4</ele>
        <time>2014-04-19T13:00:14.881Z</time>
      </trkpt>
      <trkpt lat="45.51789" lon="4.6276">
        <ele>318.5</ele>
        <time>2014-04-19T13:00:16.905Z</time>
      </trkpt>
      <trkpt lat="45.51786" lon="4.62761">
        <ele>318.5</ele>
        <time>2014-04-19T13:00:17.871Z</time>
      </trkpt>
      <trkpt lat="45.51779" lon="4.62764">
        <ele>318.6</ele>
        <time>2014-04-19T13:00:19.871Z</time>
      </trkpt>
      <trkpt lat="45.51775" lon="4.62765">
        <ele>318.7</ele>
        <time>2014-04-19T13:00:20.882Z</time>
      </trkpt>
      <trkpt lat="45.51768" lon="4.62768">
        <ele>318.7</ele>
        <time>2014-04-19T13:00:23.019Z</time>
      </trkpt>
      <trkpt lat="45.51765" lon="4.6277">
        <ele>318.8</ele>
        <time>2014-04-19T13:00:23.816Z</time>
      </trkpt>
      <trkpt lat="45.51759" lon="4.62772">
        <ele>318.8</ele>
        <time>2014-04-19T13:00:25.920Z</time>
      </trkpt>
      <trkpt lat="45.51756" lon="4.62773">
        <ele>318.9</ele>
        <time>2014-04-19T13:00:26.905Z</time>
      </trkpt>
      <trkpt lat="45.51749" lon="4.62776">
        <ele>319</ele>
        <time>2014-04-19T13:00:29.078Z</time>
      </trkpt>
      <trkpt lat="45.51746" lon="4.62777">
        <ele>319.1</ele>
        <time>2014-04-19T13:00:29.849Z</time>
      </trkpt>
      <trkpt lat="45.51739" lon="4.62778">
        <ele>319.3</ele>
        <time>2014-04-19T13:00:31.938Z</time>
      </trkpt>
      <trkpt lat="45.51735" lon="4.62778">
        <ele>319.4</ele>
        <time>2014-04-19T13:00:32.806Z</time>
      </trkpt>
      <trkpt lat="45.51727" lon="4.62778">
        <ele>319.5</ele>
        <time>2014-04-19T13:00:34.865Z</time>
      </trkpt>
      <trkpt lat="45.51724" lon="4.62777">
        <ele>319.6</ele>
        <time>2014-04-19T13:00:35.856Z</time>
      </trkpt>
      <trkpt lat="45.51717" lon="4.62777">
        <ele>319.8</ele>
        <time>2014-04-19T13:00:37.915Z</time>
      </trkpt>
      <trkpt lat="45.51713" lon="4.62778">
        <ele>319.9</ele>
        <time>2014-04-19T13:00:38.962Z</time>
      </trkpt>
      <trkpt lat="45.51704" lon="4.62779">
        <ele>320.3</ele>
        <time>2014-04-19T13:00:41.851Z</time>
      </trkpt>
      <trkpt lat="45.51702" lon="4.62781">
        <ele>320.4</ele>
        <time>2014-04-19T13:00:42.829Z</time>
      </trkpt>
      <trkpt lat="45.51696" lon="4.62785">
        <ele>320.8</ele>
        <time>2014-04-19T13:00:44.979Z</time>
      </trkpt>
      <trkpt lat="45.51693" lon="4.62788">
        <ele>320.9</ele>
        <time>2014-04-19T13:00:45.891Z</time>
      </trkpt>
      <trkpt lat="45.51688" lon="4.62794">
        <ele>321.2</ele>
        <time>2014-04-19T13:00:47.877Z</time>
      </trkpt>
      <trkpt lat="45.51686" lon="4.62796">
        <ele>321.3</ele>
        <time>2014-04-19T13:00:48.875Z</time>
      </trkpt>
      <trkpt lat="45.5168" lon="4.62804">
        <ele>321.6</ele>
        <time>2014-04-19T13:00:51.056Z</time>
      </trkpt>
      <trkpt lat="45.51678" lon="4.62808">
        <ele>321.7</ele>
        <time>2014-04-19T13:00:51.875Z</time>
      </trkpt>
      <trkpt lat="45.51673" lon="4.62817">
        <ele>322</ele>
        <time>2014-04-19T13:00:53.889Z</time>
      </trkpt>
      <trkpt lat="45.5167" lon="4.62822">
        <ele>322.1</ele>
        <time>2014-04-19T13:00:54.883Z</time>
      </trkpt>
      <trkpt lat="45.51667" lon="4.62827">
        <ele>322.2</ele>
        <time>2014-04-19T13:00:55.983Z</time>
      </trkpt>
      <trkpt lat="45.51664" lon="4.62833">
        <ele>322.2</ele>
        <time>2014-04-19T13:00:56.834Z</time>
      </trkpt>
      <trkpt lat="45.51659" lon="4.62841">
        <ele>322.3</ele>
        <time>2014-04-19T13:00:58.902Z</time>
      </trkpt>
      <trkpt lat="45.51656" lon="4.62845">
        <ele>322.3</ele>
        <time>2014-04-19T13:00:59.869Z</time>
      </trkpt>
      <trkpt lat="45.5165" lon="4.62852">
        <ele>322.4</ele>
        <time>2014-04-19T13:01:01.889Z</time>
      </trkpt>
      <trkpt lat="45.51648" lon="4.62855">
        <ele>322.5</ele>
        <time>2014-04-19T13:01:02.869Z</time>
      </trkpt>
      <trkpt lat="45.51643" lon="4.6286">
        <ele>322.6</ele>
        <time>2014-04-19T13:01:04.970Z</time>
      </trkpt>
      <trkpt lat="45.5164" lon="4.62862">
        <ele>322.7</ele>
        <time>2014-04-19T13:01:05.839Z</time>
      </trkpt>
      <trkpt lat="45.51634" lon="4.62866">
        <ele>322.9</ele>
        <time>2014-04-19T13:01:08.741Z</time>
      </trkpt>
      <trkpt lat="45.51631" lon="4.62868">
        <ele>323</ele>
        <time>2014-04-19T13:01:08.871Z</time>
      </trkpt>
      <trkpt lat="45.51624" lon="4.62871">
        <ele>323.2</ele>
        <time>2014-04-19T13:01:10.983Z</time>
      </trkpt>
      <trkpt lat="45.5162" lon="4.62873">
        <ele>323.3</ele>
        <time>2014-04-19T13:01:11.876Z</time>
      </trkpt>
      <trkpt lat="45.51612" lon="4.62876">
        <ele>323.4</ele>
        <time>2014-04-19T13:01:13.975Z</time>
      </trkpt>
      <trkpt lat="45.51608" lon="4.62877">
        <ele>323.5</ele>
        <time>2014-04-19T13:01:14.836Z</time>
      </trkpt>
      <trkpt lat="45.51601" lon="4.62879">
        <ele>323.6</ele>
        <time>2014-04-19T13:01:16.944Z</time>
      </trkpt>
      <trkpt lat="45.51598" lon="4.6288">
        <ele>323.7</ele>
        <time>2014-04-19T13:01:17.858Z</time>
      </trkpt>
      <trkpt lat="45.51591" lon="4.62881">
        <ele>323.8</ele>
        <time>2014-04-19T13:01:19.903Z</time>
      </trkpt>
      <trkpt lat="45.51587" lon="4.62882">
        <ele>323.9</ele>
        <time>2014-04-19T13:01:20.861Z</time>
      </trkpt>
      <trkpt lat="45.5158" lon="4.62885">
        <ele>324</ele>
        <time>2014-04-19T13:01:23.947Z</time>
      </trkpt>
      <trkpt lat="45.51573" lon="4.62886">
        <ele>324.2</ele>
        <time>2014-04-19T13:01:24.867Z</time>
      </trkpt>
      <trkpt lat="45.51565" lon="4.62886">
        <ele>324.3</ele>
        <time>2014-04-19T13:01:27.002Z</time>
      </trkpt>
      <trkpt lat="45.51562" lon="4.62885">
        <ele>324.4</ele>
        <time>2014-04-19T13:01:27.852Z</time>
      </trkpt>
      <trkpt lat="45.51556" lon="4.62885">
        <ele>324.6</ele>
        <time>2014-04-19T13:01:29.971Z</time>
      </trkpt>
      <trkpt lat="45.51552" lon="4.62885">
        <ele>324.7</ele>
        <time>2014-04-19T13:01:30.860Z</time>
      </trkpt>
      <trkpt lat="45.51544" lon="4.62884">
        <ele>324.8</ele>
        <time>2014-04-19T13:01:32.849Z</time>
      </trkpt>
      <trkpt lat="45.5154" lon="4.62883">
        <ele>324.9</ele>
        <time>2014-04-19T13:01:33.870Z</time>
      </trkpt>
      <trkpt lat="45.51534" lon="4.62882">
        <ele>325</ele>
        <time>2014-04-19T13:01:36.158Z</time>
      </trkpt>
      <trkpt lat="45.5153" lon="4.62882">
        <ele>325.1</ele>
        <time>2014-04-19T13:01:36.854Z</time>
      </trkpt>
      <trkpt lat="45.51522" lon="4.62879">
        <ele>325.3</ele>
        <time>2014-04-19T13:01:39.183Z</time>
      </trkpt>
      <trkpt lat="45.51518" lon="4.62878">
        <ele>325.5</ele>
        <time>2014-04-19T13:01:39.862Z</time>
      </trkpt>
      <trkpt lat="45.51511" lon="4.62874">
        <ele>325.7</ele>
        <time>2014-04-19T13:01:41.852Z</time>
      </trkpt>
      <trkpt lat="45.51508" lon="4.62873">
        <ele>325.8</ele>
        <time>2014-04-19T13:01:42.815Z</time>
      </trkpt>
      <trkpt lat="45.51503" lon="4.62869">
        <ele>326.1</ele>
        <time>2014-04-19T13:01:44.967Z</time>
      </trkpt>
      <trkpt lat="45.515" lon="4.62868">
        <ele>326.2</ele>
        <time>2014-04-19T13:01:45.865Z</time>
      </trkpt>
      <trkpt lat="45.51491" lon="4.62864">
        <ele>326.5</ele>
        <time>2014-04-19T13:01:49.214Z</time>
      </trkpt>
      <trkpt lat="45.51488" lon="4.62862">
        <ele>326.6</ele>
        <time>2014-04-19T13:01:49.812Z</time>
      </trkpt>
      <trkpt lat="45.51482" lon="4.62858">
        <ele>326.7</ele>
        <time>2014-04-19T13:01:52.016Z</time>
      </trkpt>
      <trkpt lat="45.51478" lon="4.62857">
        <ele>326.8</ele>
        <time>2014-04-19T13:01:52.901Z</time>
      </trkpt>
      <trkpt lat="45.51472" lon="4.62855">
        <ele>327</ele>
        <time>2014-04-19T13:01:54.948Z</time>
      </trkpt>
      <trkpt lat="45.51469" lon="4.62855">
        <ele>327.1</ele>
        <time>2014-04-19T13:01:55.899Z</time>
      </trkpt>
      <trkpt lat="45.51462" lon="4.62857">
        <ele>327.3</ele>
        <time>2014-04-19T13:01:58.579Z</time>
      </trkpt>
      <trkpt lat="45.51459" lon="4.62858">
        <ele>327.4</ele>
        <time>2014-04-19T13:01:58.889Z</time>
      </trkpt>
      <trkpt lat="45.51453" lon="4.62862">
        <ele>327.5</ele>
        <time>2014-04-19T13:02:00.943Z</time>
      </trkpt>
      <trkpt lat="45.5145" lon="4.62866">
        <ele>327.5</ele>
        <time>2014-04-19T13:02:01.935Z</time>
      </trkpt>
      <trkpt lat="45.51445" lon="4.62874">
        <ele>327.6</ele>
        <time>2014-04-19T13:02:03.913Z</time>
      </trkpt>
      <trkpt lat="45.51444" lon="4.62878">
        <ele>327.6</ele>
        <time>2014-04-19T13:02:04.986Z</time>
      </trkpt>
      <trkpt lat="45.5144" lon="4.62886">
        <ele>327.8</ele>
        <time>2014-04-19T13:02:06.969Z</time>
      </trkpt>
      <trkpt lat="45.51439" lon="4.6289">
        <ele>327.9</ele>
        <time>2014-04-19T13:02:07.912Z</time>
      </trkpt>
      <trkpt lat="45.51436" lon="4.62899">
        <ele>328.1</ele>
        <time>2014-04-19T13:02:09.923Z</time>
      </trkpt>
      <trkpt lat="45.51434" lon="4.62903">
        <ele>328.2</ele>
        <time>2014-04-19T13:02:10.900Z</time>
      </trkpt>
      <trkpt lat="45.51431" lon="4.6291">
        <ele>328.5</ele>
        <time>2014-04-19T13:02:13.740Z</time>
      </trkpt>
      <trkpt lat="45.51429" lon="4.62913">
        <ele>328.6</ele>
        <time>2014-04-19T13:02:13.876Z</time>
      </trkpt>
      <trkpt lat="45.51425" lon="4.62925">
        <ele>328.9</ele>
        <time>2014-04-19T13:02:17.520Z</time>
      </trkpt>
      <trkpt lat="45.51424" lon="4.62928">
        <ele>329</ele>
        <time>2014-04-19T13:02:17.902Z</time>
      </trkpt>
      <trkpt lat="45.51421" lon="4.62936">
        <ele>329.2</ele>
        <time>2014-04-19T13:02:19.953Z</time>
      </trkpt>
      <trkpt lat="45.51419" lon="4.6294">
        <ele>329.2</ele>
        <time>2014-04-19T13:02:20.967Z</time>
      </trkpt>
      <trkpt lat="45.51415" lon="4.62951">
        <ele>329.6</ele>
        <time>2014-04-19T13:02:24.030Z</time>
      </trkpt>
      <trkpt lat="45.51414" lon="4.62955">
        <ele>329.6</ele>
        <time>2014-04-19T13:02:24.921Z</time>
      </trkpt>
      <trkpt lat="45.51411" lon="4.62964">
        <ele>329.8</ele>
        <time>2014-04-19T13:02:26.876Z</time>
      </trkpt>
      <trkpt lat="45.51409" lon="4.62969">
        <ele>329.8</ele>
        <time>2014-04-19T13:02:27.823Z</time>
      </trkpt>
      <trkpt lat="45.51406" lon="4.62976">
        <ele>329.9</ele>
        <time>2014-04-19T13:02:29.956Z</time>
      </trkpt>
      <trkpt lat="45.51405" lon="4.6298">
        <ele>330</ele>
        <time>2014-04-19T13:02:30.855Z</time>
      </trkpt>
      <trkpt lat="45.51401" lon="4.6299">
        <ele>330.1</ele>
        <time>2014-04-19T13:02:34.124Z</time>
      </trkpt>
      <trkpt lat="45.51399" lon="4.62993">
        <ele>330.1</ele>
        <time>2014-04-19T13:02:34.854Z</time>
      </trkpt>
      <trkpt lat="45.51393" lon="4.63002">
        <ele>330.2</ele>
        <time>2014-04-19T13:02:37.860Z</time>
      </trkpt>
      <trkpt lat="45.5139" lon="4.63004">
        <ele>330.2</ele>
        <time>2014-04-19T13:02:38.828Z</time>
      </trkpt>
      <trkpt lat="45.51384" lon="4.63007">
        <ele>330.1</ele>
        <time>2014-04-19T13:02:40.978Z</time>
      </trkpt>
      <trkpt lat="45.51381" lon="4.63008">
        <ele>330.1</ele>
        <time>2014-04-19T13:02:41.828Z</time>
      </trkpt>
      <trkpt lat="45.51372" lon="4.63006">
        <ele>329.9</ele>
        <time>2014-04-19T13:02:45.037Z</time>
      </trkpt>
      <trkpt lat="45.51371" lon="4.63005">
        <ele>329.8</ele>
        <time>2014-04-19T13:02:45.863Z</time>
      </trkpt>
      <trkpt lat="45.51365" lon="4.62999">
        <ele>329.6</ele>
        <time>2014-04-19T13:02:49.292Z</time>
      </trkpt>
      <trkpt lat="45.51363" lon="4.62996">
        <ele>329.5</ele>
        <time>2014-04-19T13:02:49.823Z</time>
      </trkpt>
      <trkpt lat="45.51357" lon="4.62988">
        <ele>329.4</ele>
        <time>2014-04-19T13:02:53.642Z</time>
      </trkpt>
      <trkpt lat="45.51355" lon="4.62985">
        <ele>329.4</ele>
        <time>2014-04-19T13:02:53.828Z</time>
      </trkpt>
      <trkpt lat="45.5135" lon="4.62976">
        <ele>329.6</ele>
        <time>2014-04-19T13:02:56.941Z</time>
      </trkpt>
      <trkpt lat="45.51348" lon="4.62973">
        <ele>329.7</ele>
        <time>2014-04-19T13:02:57.863Z</time>
      </trkpt>
      <trkpt lat="45.51343" lon="4.62965">
        <ele>329.8</ele>
        <time>2014-04-19T13:03:00.881Z</time>
      </trkpt>
      <trkpt lat="45.51341" lon="4.62962">
        <ele>329.8</ele>
        <time>2014-04-19T13:03:01.827Z</time>
      </trkpt>
      <trkpt lat="45.51336" lon="4.62954">
        <ele>330</ele>
        <time>2014-04-19T13:03:04.975Z</time>
      </trkpt>
      <trkpt lat="45.51334" lon="4.6295">
        <ele>330.2</ele>
        <time>2014-04-19T13:03:05.853Z</time>
      </trkpt>
      <trkpt lat="45.51331" lon="4.62942">
        <ele>330.4</ele>
        <time>2014-04-19T13:03:07.874Z</time>
      </trkpt>
      <trkpt lat="45.51329" lon="4.62939">
        <ele>330.5</ele>
        <time>2014-04-19T13:03:08.874Z</time>
      </trkpt>
      <trkpt lat="45.51326" lon="4.62931">
        <ele>330.9</ele>
        <time>2014-04-19T13:03:11.039Z</time>
      </trkpt>
      <trkpt lat="45.51325" lon="4.62927">
        <ele>331.2</ele>
        <time>2014-04-19T13:03:11.898Z</time>
      </trkpt>
      <trkpt lat="45.51319" lon="4.62918">
        <ele>331.9</ele>
        <time>2014-04-19T13:03:14.923Z</time>
      </trkpt>
      <trkpt lat="45.51317" lon="4.62914">
        <ele>332.1</ele>
        <time>2014-04-19T13:03:15.824Z</time>
      </trkpt>
      <trkpt lat="45.51311" lon="4.62909">
        <ele>332.6</ele>
        <time>2014-04-19T13:03:17.971Z</time>
      </trkpt>
      <trkpt lat="45.51308" lon="4.62906">
        <ele>332.9</ele>
        <time>2014-04-19T13:03:18.878Z</time>
      </trkpt>
      <trkpt lat="45.51301" lon="4.62903">
        <ele>333.4</ele>
        <time>2014-04-19T13:03:20.972Z</time>
      </trkpt>
      <trkpt lat="45.51298" lon="4.629">
        <ele>333.6</ele>
        <time>2014-04-19T13:03:21.847Z</time>
      </trkpt>
      <trkpt lat="45.51292" lon="4.62897">
        <ele>333.9</ele>
        <time>2014-04-19T13:03:24.308Z</time>
      </trkpt>
      <trkpt lat="45.51289" lon="4.62896">
        <ele>334.1</ele>
        <time>2014-04-19T13:03:24.847Z</time>
      </trkpt>
      <trkpt lat="45.51282" lon="4.62895">
        <ele>334.4</ele>
        <time>2014-04-19T13:03:26.952Z</time>
      </trkpt>
      <trkpt lat="45.51279" lon="4.62895">
        <ele>334.7</ele>
        <time>2014-04-19T13:03:27.902Z</time>
      </trkpt>
      <trkpt lat="45.51273" lon="4.62893">
        <ele>335.1</ele>
        <time>2014-04-19T13:03:30.194Z</time>
      </trkpt>
      <trkpt lat="45.5127" lon="4.62893">
        <ele>335.3</ele>
        <time>2014-04-19T13:03:30.829Z</time>
      </trkpt>
      <trkpt lat="45.51262" lon="4.62892">
        <ele>336.1</ele>
        <time>2014-04-19T13:03:34.338Z</time>
      </trkpt>
      <trkpt lat="45.51259" lon="4.62892">
        <ele>336.4</ele>
        <time>2014-04-19T13:03:34.881Z</time>
      </trkpt>
      <trkpt lat="45.51251" lon="4.62894">
        <ele>337.3</ele>
        <time>2014-04-19T13:03:37.920Z</time>
      </trkpt>
      <trkpt lat="45.51249" lon="4.62895">
        <ele>337.6</ele>
        <time>2014-04-19T13:03:38.888Z</time>
      </trkpt>
      <trkpt lat="45.51243" lon="4.62897">
        <ele>338.3</ele>
        <time>2014-04-19T13:03:40.987Z</time>
      </trkpt>
      <trkpt lat="45.5124" lon="4.62898">
        <ele>338.6</ele>
        <time>2014-04-19T13:03:41.933Z</time>
      </trkpt>
      <trkpt lat="45.51234" lon="4.62901">
        <ele>339.2</ele>
        <time>2014-04-19T13:03:44.799Z</time>
      </trkpt>
      <trkpt lat="45.51231" lon="4.62902">
        <ele>339.6</ele>
        <time>2014-04-19T13:03:44.885Z</time>
      </trkpt>
      <trkpt lat="45.51223" lon="4.62906">
        <ele>340.7</ele>
        <time>2014-04-19T13:03:48.026Z</time>
      </trkpt>
      <trkpt lat="45.5122" lon="4.62907">
        <ele>341.2</ele>
        <time>2014-04-19T13:03:48.897Z</time>
      </trkpt>
      <trkpt lat="45.51215" lon="4.62909">
        <ele>341.9</ele>
        <time>2014-04-19T13:03:50.952Z</time>
      </trkpt>
      <trkpt lat="45.51212" lon="4.6291">
        <ele>342.2</ele>
        <time>2014-04-19T13:03:51.986Z</time>
      </trkpt>
      <trkpt lat="45.51205" lon="4.62913">
        <ele>342.8</ele>
        <time>2014-04-19T13:03:53.946Z</time>
      </trkpt>
      <trkpt lat="45.51202" lon="4.62914">
        <ele>343.1</ele>
        <time>2014-04-19T13:03:54.944Z</time>
      </trkpt>
      <trkpt lat="45.51195" lon="4.62917">
        <ele>343.4</ele>
        <time>2014-04-19T13:03:56.989Z</time>
      </trkpt>
      <trkpt lat="45.51191" lon="4.62918">
        <ele>343.6</ele>
        <time>2014-04-19T13:03:57.925Z</time>
      </trkpt>
      <trkpt lat="45.51184" lon="4.62919">
        <ele>343.8</ele>
        <time>2014-04-19T13:03:59.947Z</time>
      </trkpt>
      <trkpt lat="45.5118" lon="4.62919">
        <ele>343.9</ele>
        <time>2014-04-19T13:04:00.894Z</time>
      </trkpt>
      <trkpt lat="45.51174" lon="4.62919">
        <ele>344</ele>
        <time>2014-04-19T13:04:03.808Z</time>
      </trkpt>
      <trkpt lat="45.51171" lon="4.6292">
        <ele>344</ele>
        <time>2014-04-19T13:04:03.957Z</time>
      </trkpt>
      <trkpt lat="45.51163" lon="4.6292">
        <ele>344.1</ele>
        <time>2014-04-19T13:04:07.028Z</time>
      </trkpt>
      <trkpt lat="45.5116" lon="4.6292">
        <ele>344.2</ele>
        <time>2014-04-19T13:04:07.938Z</time>
      </trkpt>
      <trkpt lat="45.51151" lon="4.62921">
        <ele>344.3</ele>
        <time>2014-04-19T13:04:10.907Z</time>
      </trkpt>
      <trkpt lat="45.51149" lon="4.62922">
        <ele>344.4</ele>
        <time>2014-04-19T13:04:11.879Z</time>
      </trkpt>
      <trkpt lat="45.5114" lon="4.62924">
        <ele>344.7</ele>
        <time>2014-04-19T13:04:14.896Z</time>
      </trkpt>
      <trkpt lat="45.51137" lon="4.62925">
        <ele>344.9</ele>
        <time>2014-04-19T13:04:15.877Z</time>
      </trkpt>
      <trkpt lat="45.5113" lon="4.62928">
        <ele>345.2</ele>
        <time>2014-04-19T13:04:17.912Z</time>
      </trkpt>
      <trkpt lat="45.51127" lon="4.62929">
        <ele>345.3</ele>
        <time>2014-04-19T13:04:18.879Z</time>
      </trkpt>
      <trkpt lat="45.51119" lon="4.62931">
        <ele>345.6</ele>
        <time>2014-04-19T13:04:21.082Z</time>
      </trkpt>
      <trkpt lat="45.51116" lon="4.62931">
        <ele>345.7</ele>
        <time>2014-04-19T13:04:21.872Z</time>
      </trkpt>
      <trkpt lat="45.51109" lon="4.62931">
        <ele>346</ele>
        <time>2014-04-19T13:04:24.215Z</time>
      </trkpt>
      <trkpt lat="45.51105" lon="4.62931">
        <ele>346.1</ele>
        <time>2014-04-19T13:04:24.875Z</time>
      </trkpt>
      <trkpt lat="45.51097" lon="4.6293">
        <ele>346.3</ele>
        <time>2014-04-19T13:04:27.175Z</time>
      </trkpt>
      <trkpt lat="45.51093" lon="4.6293">
        <ele>346.5</ele>
        <time>2014-04-19T13:04:27.810Z</time>
      </trkpt>
      <trkpt lat="45.51086" lon="4.6293">
        <ele>346.8</ele>
        <time>2014-04-19T13:04:29.951Z</time>
      </trkpt>
      <trkpt lat="45.51082" lon="4.6293">
        <ele>346.9</ele>
        <time>2014-04-19T13:04:30.861Z</time>
      </trkpt>
      <trkpt lat="45.51076" lon="4.6293">
        <ele>346.9</ele>
        <time>2014-04-19T13:04:32.927Z</time>
      </trkpt>
      <trkpt lat="45.51073" lon="4.6293">
        <ele>347</ele>
        <time>2014-04-19T13:04:33.858Z</time>
      </trkpt>
      <trkpt lat="45.51066" lon="4.6293">
        <ele>347</ele>
        <time>2014-04-19T13:04:35.938Z</time>
      </trkpt>
      <trkpt lat="45.51062" lon="4.62929">
        <ele>347.1</ele>
        <time>2014-04-19T13:04:36.830Z</time>
      </trkpt>
      <trkpt lat="45.51056" lon="4.62929">
        <ele>347.1</ele>
        <time>2014-04-19T13:04:39.372Z</time>
      </trkpt>
      <trkpt lat="45.51053" lon="4.62929">
        <ele>347.2</ele>
        <time>2014-04-19T13:04:39.822Z</time>
      </trkpt>
      <trkpt lat="45.51046" lon="4.6293">
        <ele>347.3</ele>
        <time>2014-04-19T13:04:41.871Z</time>
      </trkpt>
      <trkpt lat="45.51042" lon="4.62931">
        <ele>347.5</ele>
        <time>2014-04-19T13:04:42.912Z</time>
      </trkpt>
      <trkpt lat="45.51035" lon="4.62932">
        <ele>347.6</ele>
        <time>2014-04-19T13:04:44.867Z</time>
      </trkpt>
      <trkpt lat="45.51031" lon="4.62932">
        <ele>347.7</ele>
        <time>2014-04-19T13:04:45.865Z</time>
      </trkpt>
      <trkpt lat="45.51023" lon="4.6293">
        <ele>347.9</ele>
        <time>2014-04-19T13:04:48.085Z</time>
      </trkpt>
      <trkpt lat="45.51019" lon="4.62928">
        <ele>348</ele>
        <time>2014-04-19T13:04:48.883Z</time>
      </trkpt>
      <trkpt lat="45.51013" lon="4.62924">
        <ele>348</ele>
        <time>2014-04-19T13:04:50.866Z</time>
      </trkpt>
      <trkpt lat="45.51011" lon="4.62922">
        <ele>348</ele>
        <time>2014-04-19T13:04:51.828Z</time>
      </trkpt>
      <trkpt lat="45.51005" lon="4.62917">
        <ele>348</ele>
        <time>2014-04-19T13:04:54.092Z</time>
      </trkpt>
      <trkpt lat="45.51002" lon="4.62914">
        <ele>348</ele>
        <time>2014-04-19T13:04:54.861Z</time>
      </trkpt>
      <trkpt lat="45.50997" lon="4.62908">
        <ele>348.1</ele>
        <time>2014-04-19T13:04:56.991Z</time>
      </trkpt>
      <trkpt lat="45.50995" lon="4.62905">
        <ele>348.1</ele>
        <time>2014-04-19T13:04:57.846Z</time>
      </trkpt>
      <trkpt lat="45.5099" lon="4.62897">
        <ele>348.1</ele>
        <time>2014-04-19T13:04:59.993Z</time>
      </trkpt>
      <trkpt lat="45.50988" lon="4.62893">
        <ele>348.1</ele>
        <time>2014-04-19T13:05:00.853Z</time>
      </trkpt>
      <trkpt lat="45.50984" lon="4.62886">
        <ele>348.2</ele>
        <time>2014-04-19T13:05:03.781Z</time>
      </trkpt>
      <trkpt lat="45.50982" lon="4.62881">
        <ele>348.2</ele>
        <time>2014-04-19T13:05:03.916Z</time>
      </trkpt>
      <trkpt lat="45.50978" lon="4.62873">
        <ele>348.2</ele>
        <time>2014-04-19T13:05:05.932Z</time>
      </trkpt>
      <trkpt lat="45.50976" lon="4.62868">
        <ele>348.3</ele>
        <time>2014-04-19T13:05:06.856Z</time>
      </trkpt>
      <trkpt lat="45.50972" lon="4.6286">
        <ele>348.3</ele>
        <time>2014-04-19T13:05:08.998Z</time>
      </trkpt>
      <trkpt lat="45.50969" lon="4.62856">
        <ele>348.2</ele>
        <time>2014-04-19T13:05:09.877Z</time>
      </trkpt>
      <trkpt lat="45.50963" lon="4.6285">
        <ele>348.2</ele>
        <time>2014-04-19T13:05:11.863Z</time>
      </trkpt>
      <trkpt lat="45.5096" lon="4.62847">
        <ele>348.2</ele>
        <time>2014-04-19T13:05:12.834Z</time>
      </trkpt>
      <trkpt lat="45.50953" lon="4.62841">
        <ele>348.1</ele>
        <time>2014-04-19T13:05:14.972Z</time>
      </trkpt>
      <trkpt lat="45.5095" lon="4.62839">
        <ele>348</ele>
        <time>2014-04-19T13:05:15.858Z</time>
      </trkpt>
      <trkpt lat="45.50943" lon="4.62834">
        <ele>348</ele>
        <time>2014-04-19T13:05:17.946Z</time>
      </trkpt>
      <trkpt lat="45.5094" lon="4.62832">
        <ele>348</ele>
        <time>2014-04-19T13:05:18.877Z</time>
      </trkpt>
      <trkpt lat="45.50933" lon="4.62828">
        <ele>348.1</ele>
        <time>2014-04-19T13:05:21.120Z</time>
      </trkpt>
      <trkpt lat="45.5093" lon="4.62827">
        <ele>348.1</ele>
        <time>2014-04-19T13:05:21.822Z</time>
      </trkpt>
      <trkpt lat="45.50922" lon="4.62826">
        <ele>348.1</ele>
        <time>2014-04-19T13:05:24.063Z</time>
      </trkpt>
      <trkpt lat="45.50919" lon="4.62826">
        <ele>348.1</ele>
        <time>2014-04-19T13:05:24.837Z</time>
      </trkpt>
      <trkpt lat="45.50912" lon="4.62827">
        <ele>348.1</ele>
        <time>2014-04-19T13:05:26.980Z</time>
      </trkpt>
      <trkpt lat="45.50909" lon="4.62827">
        <ele>348.1</ele>
        <time>2014-04-19T13:05:27.835Z</time>
      </trkpt>
      <trkpt lat="45.50902" lon="4.62828">
        <ele>348.2</ele>
        <time>2014-04-19T13:05:29.979Z</time>
      </trkpt>
      <trkpt lat="45.50898" lon="4.62828">
        <ele>348.3</ele>
        <time>2014-04-19T13:05:30.870Z</time>
      </trkpt>
      <trkpt lat="45.50891" lon="4.62827">
        <ele>348.5</ele>
        <time>2014-04-19T13:05:32.871Z</time>
      </trkpt>
      <trkpt lat="45.50887" lon="4.62826">
        <ele>348.5</ele>
        <time>2014-04-19T13:05:33.878Z</time>
      </trkpt>
      <trkpt lat="45.5088" lon="4.62824">
        <ele>348.7</ele>
        <time>2014-04-19T13:05:35.951Z</time>
      </trkpt>
      <trkpt lat="45.50877" lon="4.62823">
        <ele>348.7</ele>
        <time>2014-04-19T13:05:36.831Z</time>
      </trkpt>
      <trkpt lat="45.50871" lon="4.6282">
        <ele>348.9</ele>
        <time>2014-04-19T13:05:39.136Z</time>
      </trkpt>
      <trkpt lat="45.50868" lon="4.62818">
        <ele>348.9</ele>
        <time>2014-04-19T13:05:39.961Z</time>
      </trkpt>
      <trkpt lat="45.50861" lon="4.62811">
        <ele>349.2</ele>
        <time>2014-04-19T13:05:42.913Z</time>
      </trkpt>
      <trkpt lat="45.50859" lon="4.62809">
        <ele>349.3</ele>
        <time>2014-04-19T13:05:43.870Z</time>
      </trkpt>
      <trkpt lat="45.50854" lon="4.62799">
        <ele>349.6</ele>
        <time>2014-04-19T13:05:46.978Z</time>
      </trkpt>
      <trkpt lat="45.50852" lon="4.62796">
        <ele>349.7</ele>
        <time>2014-04-19T13:05:47.830Z</time>
      </trkpt>
      <trkpt lat="45.50848" lon="4.62785">
        <ele>349.9</ele>
        <time>2014-04-19T13:05:50.968Z</time>
      </trkpt>
      <trkpt lat="45.50847" lon="4.62782">
        <ele>350</ele>
        <time>2014-04-19T13:05:51.873Z</time>
      </trkpt>
      <trkpt lat="45.50845" lon="4.62774">
        <ele>350.1</ele>
        <time>2014-04-19T13:05:53.861Z</time>
      </trkpt>
      <trkpt lat="45.50844" lon="4.62769">
        <ele>350.3</ele>
        <time>2014-04-19T13:05:54.817Z</time>
      </trkpt>
      <trkpt lat="45.50841" lon="4.6276">
        <ele>350.5</ele>
        <time>2014-04-19T13:05:56.904Z</time>
      </trkpt>
      <trkpt lat="45.5084" lon="4.62755">
        <ele>350.6</ele>
        <time>2014-04-19T13:05:57.908Z</time>
      </trkpt>
      <trkpt lat="45.50838" lon="4.62745">
        <ele>351</ele>
        <time>2014-04-19T13:05:59.945Z</time>
      </trkpt>
      <trkpt lat="45.50836" lon="4.62741">
        <ele>351</ele>
        <time>2014-04-19T13:06:00.829Z</time>
      </trkpt>
      <trkpt lat="45.50832" lon="4.62732">
        <ele>351.1</ele>
        <time>2014-04-19T13:06:03.684Z</time>
      </trkpt>
      <trkpt lat="45.50829" lon="4.62729">
        <ele>351.2</ele>
        <time>2014-04-19T13:06:03.827Z</time>
      </trkpt>
      <trkpt lat="45.50823" lon="4.62725">
        <ele>351.5</ele>
        <time>2014-04-19T13:06:05.870Z</time>
      </trkpt>
      <trkpt lat="45.5082" lon="4.62723">
        <ele>351.6</ele>
        <time>2014-04-19T13:06:06.867Z</time>
      </trkpt>
      <trkpt lat="45.50813" lon="4.62724">
        <ele>351.8</ele>
        <time>2014-04-19T13:06:09.048Z</time>
      </trkpt>
      <trkpt lat="45.5081" lon="4.62726">
        <ele>352</ele>
        <time>2014-04-19T13:06:09.857Z</time>
      </trkpt>
      <trkpt lat="45.50804" lon="4.6273">
        <ele>352.3</ele>
        <time>2014-04-19T13:06:11.940Z</time>
      </trkpt>
      <trkpt lat="45.50802" lon="4.62733">
        <ele>352.5</ele>
        <time>2014-04-19T13:06:12.853Z</time>
      </trkpt>
      <trkpt lat="45.50797" lon="4.62738">
        <ele>352.9</ele>
        <time>2014-04-19T13:06:14.888Z</time>
      </trkpt>
      <trkpt lat="45.50794" lon="4.62741">
        <ele>353.1</ele>
        <time>2014-04-19T13:06:15.857Z</time>
      </trkpt>
      <trkpt lat="45.5079" lon="4.62747">
        <ele>353.5</ele>
        <time>2014-04-19T13:06:17.872Z</time>
      </trkpt>
      <trkpt lat="45.50788" lon="4.62751">
        <ele>353.8</ele>
        <time>2014-04-19T13:06:18.897Z</time>
      </trkpt>
      <trkpt lat="45.50784" lon="4.6276">
        <ele>354.3</ele>
        <time>2014-04-19T13:06:21.268Z</time>
      </trkpt>
      <trkpt lat="45.50783" lon="4.62764">
        <ele>354.6</ele>
        <time>2014-04-19T13:06:21.827Z</time>
      </trkpt>
      <trkpt lat="45.50781" lon="4.62768">
        <ele>354.9</ele>
        <time>2014-04-19T13:06:23.920Z</time>
      </trkpt>
      <trkpt lat="45.50779" lon="4.62778">
        <ele>355.4</ele>
        <time>2014-04-19T13:06:24.874Z</time>
      </trkpt>
      <trkpt lat="45.50776" lon="4.62789">
        <ele>355.8</ele>
        <time>2014-04-19T13:06:26.928Z</time>
      </trkpt>
      <trkpt lat="45.50774" lon="4.62794">
        <ele>356</ele>
        <time>2014-04-19T13:06:27.882Z</time>
      </trkpt>
      <trkpt lat="45.50772" lon="4.62803">
        <ele>356.3</ele>
        <time>2014-04-19T13:06:29.989Z</time>
      </trkpt>
      <trkpt lat="45.50771" lon="4.62808">
        <ele>356.4</ele>
        <time>2014-04-19T13:06:30.878Z</time>
      </trkpt>
      <trkpt lat="45.50769" lon="4.62819">
        <ele>356.6</ele>
        <time>2014-04-19T13:06:32.964Z</time>
      </trkpt>
      <trkpt lat="45.50769" lon="4.62824">
        <ele>356.7</ele>
        <time>2014-04-19T13:06:33.884Z</time>
      </trkpt>
      <trkpt lat="45.50767" lon="4.62834">
        <ele>357</ele>
        <time>2014-04-19T13:06:35.904Z</time>
      </trkpt>
      <trkpt lat="45.50767" lon="4.62839">
        <ele>357.2</ele>
        <time>2014-04-19T13:06:36.895Z</time>
      </trkpt>
      <trkpt lat="45.50765" lon="4.62847">
        <ele>357.6</ele>
        <time>2014-04-19T13:06:39.090Z</time>
      </trkpt>
      <trkpt lat="45.50764" lon="4.62851">
        <ele>357.8</ele>
        <time>2014-04-19T13:06:39.874Z</time>
      </trkpt>
      <trkpt lat="45.50763" lon="4.62861">
        <ele>358.1</ele>
        <time>2014-04-19T13:06:41.883Z</time>
      </trkpt>
      <trkpt lat="45.50762" lon="4.62866">
        <ele>358.3</ele>
        <time>2014-04-19T13:06:42.831Z</time>
      </trkpt>
      <trkpt lat="45.50761" lon="4.62875">
        <ele>358.6</ele>
        <time>2014-04-19T13:06:45.014Z</time>
      </trkpt>
      <trkpt lat="45.5076" lon="4.62879">
        <ele>358.7</ele>
        <time>2014-04-19T13:06:45.869Z</time>
      </trkpt>
      <trkpt lat="45.50757" lon="4.62891">
        <ele>359.1</ele>
        <time>2014-04-19T13:06:49.275Z</time>
      </trkpt>
      <trkpt lat="45.50757" lon="4.62895">
        <ele>359.3</ele>
        <time>2014-04-19T13:06:49.857Z</time>
      </trkpt>
      <trkpt lat="45.50756" lon="4.62905">
        <ele>359.7</ele>
        <time>2014-04-19T13:06:52.018Z</time>
      </trkpt>
      <trkpt lat="45.50754" lon="4.6291">
        <ele>359.9</ele>
        <time>2014-04-19T13:06:52.918Z</time>
      </trkpt>
      <trkpt lat="45.50752" lon="4.62919">
        <ele>360.3</ele>
        <time>2014-04-19T13:06:54.877Z</time>
      </trkpt>
      <trkpt lat="45.50751" lon="4.62923">
        <ele>360.5</ele>
        <time>2014-04-19T13:06:55.873Z</time>
      </trkpt>
      <trkpt lat="45.50748" lon="4.62931">
        <ele>360.9</ele>
        <time>2014-04-19T13:06:58.646Z</time>
      </trkpt>
      <trkpt lat="45.50746" lon="4.62935">
        <ele>361</ele>
        <time>2014-04-19T13:06:58.826Z</time>
      </trkpt>
      <trkpt lat="45.50741" lon="4.62945">
        <ele>361.4</ele>
        <time>2014-04-19T13:07:01.867Z</time>
      </trkpt>
      <trkpt lat="45.50739" lon="4.62948">
        <ele>361.6</ele>
        <time>2014-04-19T13:07:02.861Z</time>
      </trkpt>
      <trkpt lat="45.50733" lon="4.62955">
        <ele>362.1</ele>
        <time>2014-04-19T13:07:05.976Z</time>
      </trkpt>
      <trkpt lat="45.5073" lon="4.62957">
        <ele>362.2</ele>
        <time>2014-04-19T13:07:06.807Z</time>
      </trkpt>
      <trkpt lat="45.50724" lon="4.62959">
        <ele>362.5</ele>
        <time>2014-04-19T13:07:08.868Z</time>
      </trkpt>
      <trkpt lat="45.50721" lon="4.62961">
        <ele>362.7</ele>
        <time>2014-04-19T13:07:09.863Z</time>
      </trkpt>
      <trkpt lat="45.50713" lon="4.62963">
        <ele>363.2</ele>
        <time>2014-04-19T13:07:13.748Z</time>
      </trkpt>
      <trkpt lat="45.5071" lon="4.62962">
        <ele>363.3</ele>
        <time>2014-04-19T13:07:13.880Z</time>
      </trkpt>
      <trkpt lat="45.50703" lon="4.62959">
        <ele>363.9</ele>
        <time>2014-04-19T13:07:16.902Z</time>
      </trkpt>
      <trkpt lat="45.507" lon="4.62957">
        <ele>364.1</ele>
        <time>2014-04-19T13:07:17.867Z</time>
      </trkpt>
      <trkpt lat="45.50694" lon="4.62953">
        <ele>364.4</ele>
        <time>2014-04-19T13:07:19.891Z</time>
      </trkpt>
      <trkpt lat="45.50691" lon="4.62952">
        <ele>364.6</ele>
        <time>2014-04-19T13:07:20.859Z</time>
      </trkpt>
      <trkpt lat="45.50685" lon="4.62949">
        <ele>364.8</ele>
        <time>2014-04-19T13:07:22.934Z</time>
      </trkpt>
      <trkpt lat="45.50682" lon="4.62948">
        <ele>364.9</ele>
        <time>2014-04-19T13:07:23.890Z</time>
      </trkpt>
      <trkpt lat="45.50673" lon="4.62949">
        <ele>365</ele>
        <time>2014-04-19T13:07:25.920Z</time>
      </trkpt>
      <trkpt lat="45.5067" lon="4.62949">
        <ele>365.1</ele>
        <time>2014-04-19T13:07:26.884Z</time>
      </trkpt>
      <trkpt lat="45.50664" lon="4.62952">
        <ele>365.3</ele>
        <time>2014-04-19T13:07:29.021Z</time>
      </trkpt>
      <trkpt lat="45.50661" lon="4.62954">
        <ele>365.3</ele>
        <time>2014-04-19T13:07:29.834Z</time>
      </trkpt>
      <trkpt lat="45.50655" lon="4.6296">
        <ele>365.5</ele>
        <time>2014-04-19T13:07:31.905Z</time>
      </trkpt>
      <trkpt lat="45.50652" lon="4.62963">
        <ele>365.6</ele>
        <time>2014-04-19T13:07:32.885Z</time>
      </trkpt>
      <trkpt lat="45.50648" lon="4.6297">
        <ele>365.7</ele>
        <time>2014-04-19T13:07:34.941Z</time>
      </trkpt>
      <trkpt lat="45.50645" lon="4.62973">
        <ele>365.8</ele>
        <time>2014-04-19T13:07:35.826Z</time>
      </trkpt>
      <trkpt lat="45.50639" lon="4.62982">
        <ele>366</ele>
        <time>2014-04-19T13:07:39.021Z</time>
      </trkpt>
      <trkpt lat="45.50638" lon="4.62986">
        <ele>366.1</ele>
        <time>2014-04-19T13:07:39.874Z</time>
      </trkpt>
      <trkpt lat="45.50633" lon="4.62993">
        <ele>366.2</ele>
        <time>2014-04-19T13:07:41.876Z</time>
      </trkpt>
      <trkpt lat="45.5063" lon="4.62996">
        <ele>366.3</ele>
        <time>2014-04-19T13:07:42.826Z</time>
      </trkpt>
      <trkpt lat="45.50625" lon="4.63004">
        <ele>366.5</ele>
        <time>2014-04-19T13:07:44.873Z</time>
      </trkpt>
      <trkpt lat="45.50622" lon="4.63008">
        <ele>366.5</ele>
        <time>2014-04-19T13:07:45.826Z</time>
      </trkpt>
      <trkpt lat="45.50617" lon="4.63015">
        <ele>366.5</ele>
        <time>2014-04-19T13:07:47.853Z</time>
      </trkpt>
      <trkpt lat="45.50614" lon="4.63018">
        <ele>366.6</ele>
        <time>2014-04-19T13:07:48.866Z</time>
      </trkpt>
      <trkpt lat="45.50608" lon="4.63025">
        <ele>366.5</ele>
        <time>2014-04-19T13:07:50.973Z</time>
      </trkpt>
      <trkpt lat="45.50605" lon="4.63029">
        <ele>366.5</ele>
        <time>2014-04-19T13:07:51.869Z</time>
      </trkpt>
      <trkpt lat="45.50599" lon="4.63037">
        <ele>366.4</ele>
        <time>2014-04-19T13:07:53.835Z</time>
      </trkpt>
      <trkpt lat="45.50596" lon="4.6304">
        <ele>366.3</ele>
        <time>2014-04-19T13:07:54.871Z</time>
      </trkpt>
      <trkpt lat="45.50591" lon="4.63046">
        <ele>366.1</ele>
        <time>2014-04-19T13:07:56.935Z</time>
      </trkpt>
      <trkpt lat="45.50589" lon="4.63049">
        <ele>366.1</ele>
        <time>2014-04-19T13:07:57.863Z</time>
      </trkpt>
      <trkpt lat="45.50582" lon="4.63056">
        <ele>366.1</ele>
        <time>2014-04-19T13:08:00.945Z</time>
      </trkpt>
      <trkpt lat="45.5058" lon="4.63057">
        <ele>366.1</ele>
        <time>2014-04-19T13:08:01.862Z</time>
      </trkpt>
      <trkpt lat="45.50574" lon="4.63063">
        <ele>366.4</ele>
        <time>2014-04-19T13:08:04.948Z</time>
      </trkpt>
      <trkpt lat="45.50571" lon="4.63065">
        <ele>366.5</ele>
        <time>2014-04-19T13:08:05.867Z</time>
      </trkpt>
      <trkpt lat="45.50565" lon="4.63069">
        <ele>366.7</ele>
        <time>2014-04-19T13:08:08.867Z</time>
      </trkpt>
      <trkpt lat="45.50562" lon="4.6307">
        <ele>366.9</ele>
        <time>2014-04-19T13:08:08.981Z</time>
      </trkpt>
      <trkpt lat="45.50555" lon="4.63073">
        <ele>367.2</ele>
        <time>2014-04-19T13:08:10.966Z</time>
      </trkpt>
      <trkpt lat="45.50552" lon="4.63075">
        <ele>367.3</ele>
        <time>2014-04-19T13:08:11.877Z</time>
      </trkpt>
      <trkpt lat="45.50546" lon="4.63078">
        <ele>367.7</ele>
        <time>2014-04-19T13:08:14.232Z</time>
      </trkpt>
      <trkpt lat="45.50544" lon="4.6308">
        <ele>367.8</ele>
        <time>2014-04-19T13:08:14.871Z</time>
      </trkpt>
      <trkpt lat="45.50537" lon="4.63084">
        <ele>368.1</ele>
        <time>2014-04-19T13:08:17.150Z</time>
      </trkpt>
      <trkpt lat="45.50534" lon="4.63087">
        <ele>368.2</ele>
        <time>2014-04-19T13:08:17.868Z</time>
      </trkpt>
      <trkpt lat="45.50527" lon="4.63092">
        <ele>368.4</ele>
        <time>2014-04-19T13:08:19.969Z</time>
      </trkpt>
      <trkpt lat="45.50524" lon="4.63094">
        <ele>368.5</ele>
        <time>2014-04-19T13:08:20.875Z</time>
      </trkpt>
      <trkpt lat="45.50518" lon="4.631">
        <ele>368.8</ele>
        <time>2014-04-19T13:08:22.976Z</time>
      </trkpt>
      <trkpt lat="45.50515" lon="4.63102">
        <ele>368.9</ele>
        <time>2014-04-19T13:08:23.851Z</time>
      </trkpt>
      <trkpt lat="45.50511" lon="4.63107">
        <ele>369.2</ele>
        <time>2014-04-19T13:08:25.923Z</time>
      </trkpt>
      <trkpt lat="45.50508" lon="4.6311">
        <ele>369.4</ele>
        <time>2014-04-19T13:08:26.873Z</time>
      </trkpt>
      <trkpt lat="45.50502" lon="4.63116">
        <ele>369.7</ele>
        <time>2014-04-19T13:08:29.014Z</time>
      </trkpt>
      <trkpt lat="45.50499" lon="4.63119">
        <ele>369.8</ele>
        <time>2014-04-19T13:08:29.880Z</time>
      </trkpt>
      <trkpt lat="45.50492" lon="4.63126">
        <ele>370</ele>
        <time>2014-04-19T13:08:31.868Z</time>
      </trkpt>
      <trkpt lat="45.5049" lon="4.6313">
        <ele>370.1</ele>
        <time>2014-04-19T13:08:32.831Z</time>
      </trkpt>
      <trkpt lat="45.50484" lon="4.63139">
        <ele>370.5</ele>
        <time>2014-04-19T13:08:35.979Z</time>
      </trkpt>
      <trkpt lat="45.50481" lon="4.63142">
        <ele>370.7</ele>
        <time>2014-04-19T13:08:36.870Z</time>
      </trkpt>
      <trkpt lat="45.50477" lon="4.6315">
        <ele>370.9</ele>
        <time>2014-04-19T13:08:39.070Z</time>
      </trkpt>
      <trkpt lat="45.50475" lon="4.63154">
        <ele>371</ele>
        <time>2014-04-19T13:08:39.884Z</time>
      </trkpt>
      <trkpt lat="45.50471" lon="4.63164">
        <ele>371.2</ele>
        <time>2014-04-19T13:08:41.870Z</time>
      </trkpt>
      <trkpt lat="45.50469" lon="4.63169">
        <ele>371.3</ele>
        <time>2014-04-19T13:08:42.878Z</time>
      </trkpt>
      <trkpt lat="45.50467" lon="4.63178">
        <ele>371.4</ele>
        <time>2014-04-19T13:08:44.881Z</time>
      </trkpt>
      <trkpt lat="45.50466" lon="4.63182">
        <ele>371.5</ele>
        <time>2014-04-19T13:08:45.888Z</time>
      </trkpt>
      <trkpt lat="45.50466" lon="4.63191">
        <ele>371.7</ele>
        <time>2014-04-19T13:08:47.864Z</time>
      </trkpt>
      <trkpt lat="45.50466" lon="4.63196">
        <ele>371.8</ele>
        <time>2014-04-19T13:08:48.880Z</time>
      </trkpt>
      <trkpt lat="45.50467" lon="4.63207">
        <ele>372</ele>
        <time>2014-04-19T13:08:50.957Z</time>
      </trkpt>
      <trkpt lat="45.50468" lon="4.63212">
        <ele>372.1</ele>
        <time>2014-04-19T13:08:51.900Z</time>
      </trkpt>
      <trkpt lat="45.50469" lon="4.63222">
        <ele>372.3</ele>
        <time>2014-04-19T13:08:53.899Z</time>
      </trkpt>
      <trkpt lat="45.5047" lon="4.63227">
        <ele>372.3</ele>
        <time>2014-04-19T13:08:54.891Z</time>
      </trkpt>
      <trkpt lat="45.50471" lon="4.63237">
        <ele>372.5</ele>
        <time>2014-04-19T13:08:57.021Z</time>
      </trkpt>
      <trkpt lat="45.50472" lon="4.63241">
        <ele>372.5</ele>
        <time>2014-04-19T13:08:57.847Z</time>
      </trkpt>
      <trkpt lat="45.50473" lon="4.6325">
        <ele>372.5</ele>
        <time>2014-04-19T13:08:59.911Z</time>
      </trkpt>
      <trkpt lat="45.50473" lon="4.63255">
        <ele>372.5</ele>
        <time>2014-04-19T13:09:00.893Z</time>
      </trkpt>
      <trkpt lat="45.50473" lon="4.63263">
        <ele>372.6</ele>
        <time>2014-04-19T13:09:03.821Z</time>
      </trkpt>
      <trkpt lat="45.50473" lon="4.63268">
        <ele>372.6</ele>
        <time>2014-04-19T13:09:03.922Z</time>
      </trkpt>
      <trkpt lat="45.50474" lon="4.63277">
        <ele>372.7</ele>
        <time>2014-04-19T13:09:05.944Z</time>
      </trkpt>
      <trkpt lat="45.50473" lon="4.63281">
        <ele>372.8</ele>
        <time>2014-04-19T13:09:06.903Z</time>
      </trkpt>
      <trkpt lat="45.50471" lon="4.63293">
        <ele>373.1</ele>
        <time>2014-04-19T13:09:09.973Z</time>
      </trkpt>
      <trkpt lat="45.5047" lon="4.63297">
        <ele>373.1</ele>
        <time>2014-04-19T13:09:10.885Z</time>
      </trkpt>
      <trkpt lat="45.50465" lon="4.63303">
        <ele>373.3</ele>
        <time>2014-04-19T13:09:12.890Z</time>
      </trkpt>
      <trkpt lat="45.50461" lon="4.63304">
        <ele>373.3</ele>
        <time>2014-04-19T13:09:13.852Z</time>
      </trkpt>
      <trkpt lat="45.50454" lon="4.63303">
        <ele>373.6</ele>
        <time>2014-04-19T13:09:16.030Z</time>
      </trkpt>
      <trkpt lat="45.50452" lon="4.63301">
        <ele>373.7</ele>
        <time>2014-04-19T13:09:16.868Z</time>
      </trkpt>
      <trkpt lat="45.50446" lon="4.63296">
        <ele>374.1</ele>
        <time>2014-04-19T13:09:19.893Z</time>
      </trkpt>
      <trkpt lat="45.50445" lon="4.63293">
        <ele>374.2</ele>
        <time>2014-04-19T13:09:20.880Z</time>
      </trkpt>
      <trkpt lat="45.5044" lon="4.63284">
        <ele>374.6</ele>
        <time>2014-04-19T13:09:24.129Z</time>
      </trkpt>
      <trkpt lat="45.50439" lon="4.63281">
        <ele>374.6</ele>
        <time>2014-04-19T13:09:24.885Z</time>
      </trkpt>
      <trkpt lat="45.50436" lon="4.63274">
        <ele>374.6</ele>
        <time>2014-04-19T13:09:26.970Z</time>
      </trkpt>
      <trkpt lat="45.50435" lon="4.63269">
        <ele>374.6</ele>
        <time>2014-04-19T13:09:27.833Z</time>
      </trkpt>
      <trkpt lat="45.50432" lon="4.6326">
        <ele>374.5</ele>
        <time>2014-04-19T13:09:29.830Z</time>
      </trkpt>
      <trkpt lat="45.50431" lon="4.63256">
        <ele>374.5</ele>
        <time>2014-04-19T13:09:30.861Z</time>
      </trkpt>
      <trkpt lat="45.50428" lon="4.63247">
        <ele>374.6</ele>
        <time>2014-04-19T13:09:32.850Z</time>
      </trkpt>
      <trkpt lat="45.50426" lon="4.63243">
        <ele>374.7</ele>
        <time>2014-04-19T13:09:33.832Z</time>
      </trkpt>
      <trkpt lat="45.50424" lon="4.63235">
        <ele>374.7</ele>
        <time>2014-04-19T13:09:35.948Z</time>
      </trkpt>
      <trkpt lat="45.50422" lon="4.63231">
        <ele>374.7</ele>
        <time>2014-04-19T13:09:36.862Z</time>
      </trkpt>
      <trkpt lat="45.50418" lon="4.63225">
        <ele>374.8</ele>
        <time>2014-04-19T13:09:39.289Z</time>
      </trkpt>
      <trkpt lat="45.50415" lon="4.63222">
        <ele>374.8</ele>
        <time>2014-04-19T13:09:39.841Z</time>
      </trkpt>
      <trkpt lat="45.50408" lon="4.63217">
        <ele>375</ele>
        <time>2014-04-19T13:09:41.873Z</time>
      </trkpt>
      <trkpt lat="45.50405" lon="4.63216">
        <ele>375.1</ele>
        <time>2014-04-19T13:09:42.872Z</time>
      </trkpt>
      <trkpt lat="45.50399" lon="4.63217">
        <ele>375.4</ele>
        <time>2014-04-19T13:09:44.905Z</time>
      </trkpt>
      <trkpt lat="45.50396" lon="4.63218">
        <ele>375.5</ele>
        <time>2014-04-19T13:09:45.883Z</time>
      </trkpt>
      <trkpt lat="45.5039" lon="4.6322">
        <ele>375.8</ele>
        <time>2014-04-19T13:09:48.108Z</time>
      </trkpt>
      <trkpt lat="45.50386" lon="4.63222">
        <ele>375.9</ele>
        <time>2014-04-19T13:09:48.877Z</time>
      </trkpt>
      <trkpt lat="45.5038" lon="4.63226">
        <ele>376.1</ele>
        <time>2014-04-19T13:09:50.931Z</time>
      </trkpt>
      <trkpt lat="45.50376" lon="4.63228">
        <ele>376.2</ele>
        <time>2014-04-19T13:09:51.882Z</time>
      </trkpt>
      <trkpt lat="45.5037" lon="4.63231">
        <ele>376.5</ele>
        <time>2014-04-19T13:09:53.868Z</time>
      </trkpt>
      <trkpt lat="45.50367" lon="4.63233">
        <ele>376.6</ele>
        <time>2014-04-19T13:09:54.834Z</time>
      </trkpt>
      <trkpt lat="45.50361" lon="4.63237">
        <ele>376.9</ele>
        <time>2014-04-19T13:09:56.871Z</time>
      </trkpt>
      <trkpt lat="45.50358" lon="4.63239">
        <ele>377.1</ele>
        <time>2014-04-19T13:09:57.880Z</time>
      </trkpt>
      <trkpt lat="45.50351" lon="4.63244">
        <ele>377.3</ele>
        <time>2014-04-19T13:09:59.898Z</time>
      </trkpt>
      <trkpt lat="45.50348" lon="4.63246">
        <ele>377.4</ele>
        <time>2014-04-19T13:10:00.846Z</time>
      </trkpt>
      <trkpt lat="45.50342" lon="4.6325">
        <ele>377.7</ele>
        <time>2014-04-19T13:10:03.719Z</time>
      </trkpt>
      <trkpt lat="45.50339" lon="4.63253">
        <ele>377.8</ele>
        <time>2014-04-19T13:10:03.838Z</time>
      </trkpt>
      <trkpt lat="45.50334" lon="4.63257">
        <ele>378</ele>
        <time>2014-04-19T13:10:05.895Z</time>
      </trkpt>
      <trkpt lat="45.50331" lon="4.63258">
        <ele>378.1</ele>
        <time>2014-04-19T13:10:06.857Z</time>
      </trkpt>
      <trkpt lat="45.50326" lon="4.63262">
        <ele>378.3</ele>
        <time>2014-04-19T13:10:08.879Z</time>
      </trkpt>
      <trkpt lat="45.50323" lon="4.63263">
        <ele>378.4</ele>
        <time>2014-04-19T13:10:09.869Z</time>
      </trkpt>
      <trkpt lat="45.50317" lon="4.63266">
        <ele>378.6</ele>
        <time>2014-04-19T13:10:11.899Z</time>
      </trkpt>
      <trkpt lat="45.50314" lon="4.63268">
        <ele>378.7</ele>
        <time>2014-04-19T13:10:12.823Z</time>
      </trkpt>
      <trkpt lat="45.50308" lon="4.63269">
        <ele>378.9</ele>
        <time>2014-04-19T13:10:14.969Z</time>
      </trkpt>
      <trkpt lat="45.50305" lon="4.6327">
        <ele>379</ele>
        <time>2014-04-19T13:10:15.823Z</time>
      </trkpt>
      <trkpt lat="45.50298" lon="4.63269">
        <ele>379.2</ele>
        <time>2014-04-19T13:10:18.813Z</time>
      </trkpt>
      <trkpt lat="45.50295" lon="4.63268">
        <ele>379.3</ele>
        <time>2014-04-19T13:10:18.919Z</time>
      </trkpt>
      <trkpt lat="45.50289" lon="4.63267">
        <ele>379.5</ele>
        <time>2014-04-19T13:10:20.847Z</time>
      </trkpt>
      <trkpt lat="45.50286" lon="4.63266">
        <ele>379.6</ele>
        <time>2014-04-19T13:10:21.826Z</time>
      </trkpt>
      <trkpt lat="45.50277" lon="4.63263">
        <ele>380</ele>
        <time>2014-04-19T13:10:24.910Z</time>
      </trkpt>
      <trkpt lat="45.50274" lon="4.63262">
        <ele>380.1</ele>
        <time>2014-04-19T13:10:25.865Z</time>
      </trkpt>
      <trkpt lat="45.50269" lon="4.63258">
        <ele>380.4</ele>
        <time>2014-04-19T13:10:28.853Z</time>
      </trkpt>
      <trkpt lat="45.50262" lon="4.63254">
        <ele>380.7</ele>
        <time>2014-04-19T13:10:29.837Z</time>
      </trkpt>
      <trkpt lat="45.50257" lon="4.63249">
        <ele>380.9</ele>
        <time>2014-04-19T13:10:31.957Z</time>
      </trkpt>
      <trkpt lat="45.50255" lon="4.63247">
        <ele>381</ele>
        <time>2014-04-19T13:10:32.852Z</time>
      </trkpt>
      <trkpt lat="45.5025" lon="4.6324">
        <ele>381.4</ele>
        <time>2014-04-19T13:10:36.046Z</time>
      </trkpt>
      <trkpt lat="45.50248" lon="4.63237">
        <ele>381.5</ele>
        <time>2014-04-19T13:10:36.866Z</time>
      </trkpt>
      <trkpt lat="45.50246" lon="4.63229">
        <ele>381.7</ele>
        <time>2014-04-19T13:10:39.045Z</time>
      </trkpt>
      <trkpt lat="45.50245" lon="4.63225">
        <ele>381.8</ele>
        <time>2014-04-19T13:10:39.871Z</time>
      </trkpt>
      <trkpt lat="45.50242" lon="4.63215">
        <ele>382</ele>
        <time>2014-04-19T13:10:41.898Z</time>
      </trkpt>
      <trkpt lat="45.5024" lon="4.6321">
        <ele>382.1</ele>
        <time>2014-04-19T13:10:42.884Z</time>
      </trkpt>
      <trkpt lat="45.50237" lon="4.63202">
        <ele>382.2</ele>
        <time>2014-04-19T13:10:44.969Z</time>
      </trkpt>
      <trkpt lat="45.50234" lon="4.63197">
        <ele>382.2</ele>
        <time>2014-04-19T13:10:45.843Z</time>
      </trkpt>
      <trkpt lat="45.50228" lon="4.6319">
        <ele>382.2</ele>
        <time>2014-04-19T13:10:47.891Z</time>
      </trkpt>
      <trkpt lat="45.50225" lon="4.63186">
        <ele>382.2</ele>
        <time>2014-04-19T13:10:48.912Z</time>
      </trkpt>
      <trkpt lat="45.50218" lon="4.6318">
        <ele>382.3</ele>
        <time>2014-04-19T13:10:50.899Z</time>
      </trkpt>
      <trkpt lat="45.50215" lon="4.63177">
        <ele>382.3</ele>
        <time>2014-04-19T13:10:51.887Z</time>
      </trkpt>
      <trkpt lat="45.50209" lon="4.63174">
        <ele>382.4</ele>
        <time>2014-04-19T13:10:54.020Z</time>
      </trkpt>
      <trkpt lat="45.50205" lon="4.63173">
        <ele>382.4</ele>
        <time>2014-04-19T13:10:54.886Z</time>
      </trkpt>
      <trkpt lat="45.50197" lon="4.63172">
        <ele>382.7</ele>
        <time>2014-04-19T13:10:58.671Z</time>
      </trkpt>
      <trkpt lat="45.50194" lon="4.63172">
        <ele>382.8</ele>
        <time>2014-04-19T13:10:58.850Z</time>
      </trkpt>
      <trkpt lat="45.50187" lon="4.63174">
        <ele>383</ele>
        <time>2014-04-19T13:11:00.983Z</time>
      </trkpt>
      <trkpt lat="45.50184" lon="4.63176">
        <ele>383.2</ele>
        <time>2014-04-19T13:11:01.889Z</time>
      </trkpt>
      <trkpt lat="45.50178" lon="4.63179">
        <ele>383.5</ele>
        <time>2014-04-19T13:11:03.939Z</time>
      </trkpt>
      <trkpt lat="45.50174" lon="4.63181">
        <ele>383.7</ele>
        <time>2014-04-19T13:11:04.895Z</time>
      </trkpt>
      <trkpt lat="45.50168" lon="4.63183">
        <ele>384</ele>
        <time>2014-04-19T13:11:06.889Z</time>
      </trkpt>
      <trkpt lat="45.50165" lon="4.63184">
        <ele>384.2</ele>
        <time>2014-04-19T13:11:07.957Z</time>
      </trkpt>
      <trkpt lat="45.50158" lon="4.63186">
        <ele>384.6</ele>
        <time>2014-04-19T13:11:09.875Z</time>
      </trkpt>
      <trkpt lat="45.50155" lon="4.63187">
        <ele>384.8</ele>
        <time>2014-04-19T13:11:10.881Z</time>
      </trkpt>
      <trkpt lat="45.50147" lon="4.63191">
        <ele>385.5</ele>
        <time>2014-04-19T13:11:14.066Z</time>
      </trkpt>
      <trkpt lat="45.50144" lon="4.63192">
        <ele>385.8</ele>
        <time>2014-04-19T13:11:14.878Z</time>
      </trkpt>
      <trkpt lat="45.50139" lon="4.63194">
        <ele>386.3</ele>
        <time>2014-04-19T13:11:16.958Z</time>
      </trkpt>
      <trkpt lat="45.50135" lon="4.63195">
        <ele>386.6</ele>
        <time>2014-04-19T13:11:17.872Z</time>
      </trkpt>
      <trkpt lat="45.50128" lon="4.63197">
        <ele>387.1</ele>
        <time>2014-04-19T13:11:19.973Z</time>
      </trkpt>
      <trkpt lat="45.50124" lon="4.63198">
        <ele>387.3</ele>
        <time>2014-04-19T13:11:20.910Z</time>
      </trkpt>
      <trkpt lat="45.50117" lon="4.63201">
        <ele>387.8</ele>
        <time>2014-04-19T13:11:22.866Z</time>
      </trkpt>
      <trkpt lat="45.50113" lon="4.63202">
        <ele>388</ele>
        <time>2014-04-19T13:11:23.872Z</time>
      </trkpt>
      <trkpt lat="45.50108" lon="4.63203">
        <ele>388.5</ele>
        <time>2014-04-19T13:11:25.931Z</time>
      </trkpt>
      <trkpt lat="45.50104" lon="4.63204">
        <ele>388.7</ele>
        <time>2014-04-19T13:11:26.884Z</time>
      </trkpt>
      <trkpt lat="45.50097" lon="4.63205">
        <ele>389.2</ele>
        <time>2014-04-19T13:11:29.180Z</time>
      </trkpt>
      <trkpt lat="45.50094" lon="4.63205">
        <ele>389.4</ele>
        <time>2014-04-19T13:11:29.889Z</time>
      </trkpt>
      <trkpt lat="45.50087" lon="4.63204">
        <ele>389.9</ele>
        <time>2014-04-19T13:11:31.895Z</time>
      </trkpt>
      <trkpt lat="45.50084" lon="4.63204">
        <ele>390.2</ele>
        <time>2014-04-19T13:11:32.867Z</time>
      </trkpt>
      <trkpt lat="45.50076" lon="4.63201">
        <ele>390.7</ele>
        <time>2014-04-19T13:11:35.967Z</time>
      </trkpt>
      <trkpt lat="45.50072" lon="4.63198">
        <ele>390.8</ele>
        <time>2014-04-19T13:11:36.882Z</time>
      </trkpt>
      <trkpt lat="45.50067" lon="4.63193">
        <ele>391.1</ele>
        <time>2014-04-19T13:11:39.455Z</time>
      </trkpt>
      <trkpt lat="45.50065" lon="4.6319">
        <ele>391.2</ele>
        <time>2014-04-19T13:11:39.854Z</time>
      </trkpt>
      <trkpt lat="45.5006" lon="4.63184">
        <ele>391.5</ele>
        <time>2014-04-19T13:11:41.999Z</time>
      </trkpt>
      <trkpt lat="45.50058" lon="4.63179">
        <ele>391.6</ele>
        <time>2014-04-19T13:11:42.913Z</time>
      </trkpt>
      <trkpt lat="45.50054" lon="4.63172">
        <ele>391.7</ele>
        <time>2014-04-19T13:11:44.883Z</time>
      </trkpt>
      <trkpt lat="45.50052" lon="4.63168">
        <ele>391.8</ele>
        <time>2014-04-19T13:11:45.924Z</time>
      </trkpt>
      <trkpt lat="45.50047" lon="4.6316">
        <ele>392</ele>
        <time>2014-04-19T13:11:48.107Z</time>
      </trkpt>
      <trkpt lat="45.50046" lon="4.63156">
        <ele>392.1</ele>
        <time>2014-04-19T13:11:48.887Z</time>
      </trkpt>
      <trkpt lat="45.5004" lon="4.6315">
        <ele>392.3</ele>
        <time>2014-04-19T13:11:50.956Z</time>
      </trkpt>
      <trkpt lat="45.50037" lon="4.63147">
        <ele>392.3</ele>
        <time>2014-04-19T13:11:51.866Z</time>
      </trkpt>
      <trkpt lat="45.5003" lon="4.63144">
        <ele>392.5</ele>
        <time>2014-04-19T13:11:53.875Z</time>
      </trkpt>
      <trkpt lat="45.50026" lon="4.63142">
        <ele>392.6</ele>
        <time>2014-04-19T13:11:54.835Z</time>
      </trkpt>
      <trkpt lat="45.50019" lon="4.63137">
        <ele>392.7</ele>
        <time>2014-04-19T13:11:56.953Z</time>
      </trkpt>
      <trkpt lat="45.50015" lon="4.63133">
        <ele>392.8</ele>
        <time>2014-04-19T13:11:57.876Z</time>
      </trkpt>
      <trkpt lat="45.5001" lon="4.63125">
        <ele>392.9</ele>
        <time>2014-04-19T13:12:00.277Z</time>
      </trkpt>
      <trkpt lat="45.50008" lon="4.63121">
        <ele>393</ele>
        <time>2014-04-19T13:12:00.883Z</time>
      </trkpt>
      <trkpt lat="45.50005" lon="4.6311">
        <ele>393.1</ele>
        <time>2014-04-19T13:12:03.957Z</time>
      </trkpt>
      <trkpt lat="45.50005" lon="4.63106">
        <ele>393.1</ele>
        <time>2014-04-19T13:12:04.879Z</time>
      </trkpt>
      <trkpt lat="45.50004" lon="4.63098">
        <ele>393.1</ele>
        <time>2014-04-19T13:12:06.980Z</time>
      </trkpt>
      <trkpt lat="45.50004" lon="4.63093">
        <ele>393.1</ele>
        <time>2014-04-19T13:12:07.869Z</time>
      </trkpt>
      <trkpt lat="45.50003" lon="4.63082">
        <ele>393.3</ele>
        <time>2014-04-19T13:12:09.988Z</time>
      </trkpt>
      <trkpt lat="45.50002" lon="4.63076">
        <ele>393.4</ele>
        <time>2014-04-19T13:12:10.880Z</time>
      </trkpt>
      <trkpt lat="45.50001" lon="4.63069">
        <ele>393.5</ele>
        <time>2014-04-19T13:12:11.913Z</time>
      </trkpt>
      <trkpt lat="45.49999" lon="4.63063">
        <ele>393.6</ele>
        <time>2014-04-19T13:12:12.821Z</time>
      </trkpt>
      <trkpt lat="45.49995" lon="4.63053">
        <ele>393.9</ele>
        <time>2014-04-19T13:12:14.868Z</time>
      </trkpt>
      <trkpt lat="45.49992" lon="4.6305">
        <ele>394</ele>
        <time>2014-04-19T13:12:15.873Z</time>
      </trkpt>
      <trkpt lat="45.49986" lon="4.63043">
        <ele>394.1</ele>
        <time>2014-04-19T13:12:17.955Z</time>
      </trkpt>
      <trkpt lat="45.49983" lon="4.63041">
        <ele>394.2</ele>
        <time>2014-04-19T13:12:18.885Z</time>
      </trkpt>
      <trkpt lat="45.49975" lon="4.63039">
        <ele>394.4</ele>
        <time>2014-04-19T13:12:20.961Z</time>
      </trkpt>
      <trkpt lat="45.49971" lon="4.63039">
        <ele>394.5</ele>
        <time>2014-04-19T13:12:21.867Z</time>
      </trkpt>
      <trkpt lat="45.49963" lon="4.63038">
        <ele>394.7</ele>
        <time>2014-04-19T13:12:23.993Z</time>
      </trkpt>
      <trkpt lat="45.49959" lon="4.63037">
        <ele>394.8</ele>
        <time>2014-04-19T13:12:24.890Z</time>
      </trkpt>
      <trkpt lat="45.49951" lon="4.63035">
        <ele>394.9</ele>
        <time>2014-04-19T13:12:27.017Z</time>
      </trkpt>
      <trkpt lat="45.49948" lon="4.63033">
        <ele>395</ele>
        <time>2014-04-19T13:12:27.876Z</time>
      </trkpt>
      <trkpt lat="45.49942" lon="4.63029">
        <ele>395.1</ele>
        <time>2014-04-19T13:12:29.973Z</time>
      </trkpt>
      <trkpt lat="45.49939" lon="4.63027">
        <ele>395.2</ele>
        <time>2014-04-19T13:12:30.893Z</time>
      </trkpt>
      <trkpt lat="45.49933" lon="4.6302">
        <ele>395.4</ele>
        <time>2014-04-19T13:12:32.946Z</time>
      </trkpt>
      <trkpt lat="45.4993" lon="4.63017">
        <ele>395.5</ele>
        <time>2014-04-19T13:12:33.854Z</time>
      </trkpt>
      <trkpt lat="45.49924" lon="4.63011">
        <ele>395.9</ele>
        <time>2014-04-19T13:12:35.975Z</time>
      </trkpt>
      <trkpt lat="45.4992" lon="4.63008">
        <ele>396.1</ele>
        <time>2014-04-19T13:12:36.850Z</time>
      </trkpt>
      <trkpt lat="45.49913" lon="4.63002">
        <ele>396.5</ele>
        <time>2014-04-19T13:12:39.101Z</time>
      </trkpt>
      <trkpt lat="45.4991" lon="4.62998">
        <ele>396.7</ele>
        <time>2014-04-19T13:12:39.897Z</time>
      </trkpt>
      <trkpt lat="45.49904" lon="4.62992">
        <ele>397.1</ele>
        <time>2014-04-19T13:12:41.911Z</time>
      </trkpt>
      <trkpt lat="45.49901" lon="4.62989">
        <ele>397.2</ele>
        <time>2014-04-19T13:12:42.882Z</time>
      </trkpt>
      <trkpt lat="45.49894" lon="4.62983">
        <ele>397.4</ele>
        <time>2014-04-19T13:12:44.896Z</time>
      </trkpt>
      <trkpt lat="45.49891" lon="4.6298">
        <ele>397.5</ele>
        <time>2014-04-19T13:12:45.890Z</time>
      </trkpt>
      <trkpt lat="45.49883" lon="4.62974">
        <ele>397.8</ele>
        <time>2014-04-19T13:12:47.888Z</time>
      </trkpt>
      <trkpt lat="45.4988" lon="4.62971">
        <ele>397.8</ele>
        <time>2014-04-19T13:12:48.878Z</time>
      </trkpt>
      <trkpt lat="45.49873" lon="4.62967">
        <ele>397.9</ele>
        <time>2014-04-19T13:12:50.976Z</time>
      </trkpt>
      <trkpt lat="45.49869" lon="4.62965">
        <ele>397.9</ele>
        <time>2014-04-19T13:12:51.884Z</time>
      </trkpt>
      <trkpt lat="45.49861" lon="4.62961">
        <ele>398</ele>
        <time>2014-04-19T13:12:53.874Z</time>
      </trkpt>
      <trkpt lat="45.49857" lon="4.6296">
        <ele>398</ele>
        <time>2014-04-19T13:12:54.938Z</time>
      </trkpt>
      <trkpt lat="45.49849" lon="4.62959">
        <ele>398.4</ele>
        <time>2014-04-19T13:12:56.876Z</time>
      </trkpt>
      <trkpt lat="45.49845" lon="4.62959">
        <ele>398.4</ele>
        <time>2014-04-19T13:12:57.835Z</time>
      </trkpt>
      <trkpt lat="45.49838" lon="4.62959">
        <ele>398.6</ele>
        <time>2014-04-19T13:12:59.977Z</time>
      </trkpt>
      <trkpt lat="45.49834" lon="4.62959">
        <ele>398.7</ele>
        <time>2014-04-19T13:13:00.834Z</time>
      </trkpt>
      <trkpt lat="45.49826" lon="4.6296">
        <ele>399.4</ele>
        <time>2014-04-19T13:13:03.796Z</time>
      </trkpt>
      <trkpt lat="45.49822" lon="4.6296">
        <ele>399.5</ele>
        <time>2014-04-19T13:13:03.911Z</time>
      </trkpt>
      <trkpt lat="45.49814" lon="4.62961">
        <ele>400.1</ele>
        <time>2014-04-19T13:13:05.962Z</time>
      </trkpt>
      <trkpt lat="45.4981" lon="4.62961">
        <ele>400.3</ele>
        <time>2014-04-19T13:13:06.836Z</time>
      </trkpt>
      <trkpt lat="45.49801" lon="4.62962">
        <ele>400.5</ele>
        <time>2014-04-19T13:13:08.897Z</time>
      </trkpt>
      <trkpt lat="45.49798" lon="4.62964">
        <ele>400.5</ele>
        <time>2014-04-19T13:13:09.952Z</time>
      </trkpt>
      <trkpt lat="45.4979" lon="4.62969">
        <ele>401</ele>
        <time>2014-04-19T13:13:12.003Z</time>
      </trkpt>
      <trkpt lat="45.49787" lon="4.62971">
        <ele>401.4</ele>
        <time>2014-04-19T13:13:12.868Z</time>
      </trkpt>
      <trkpt lat="45.4978" lon="4.62977">
        <ele>402.5</ele>
        <time>2014-04-19T13:13:14.882Z</time>
      </trkpt>
      <trkpt lat="45.49777" lon="4.6298">
        <ele>402.9</ele>
        <time>2014-04-19T13:13:15.832Z</time>
      </trkpt>
      <trkpt lat="45.49769" lon="4.62986">
        <ele>403.4</ele>
        <time>2014-04-19T13:13:17.871Z</time>
      </trkpt>
      <trkpt lat="45.49766" lon="4.62987">
        <ele>403.4</ele>
        <time>2014-04-19T13:13:18.869Z</time>
      </trkpt>
      <trkpt lat="45.49759" lon="4.62987">
        <ele>403.5</ele>
        <time>2014-04-19T13:13:20.971Z</time>
      </trkpt>
      <trkpt lat="45.49756" lon="4.62985">
        <ele>403.5</ele>
        <time>2014-04-19T13:13:21.839Z</time>
      </trkpt>
      <trkpt lat="45.49751" lon="4.62978">
        <ele>403.6</ele>
        <time>2014-04-19T13:13:24.277Z</time>
      </trkpt>
      <trkpt lat="45.4975" lon="4.62975">
        <ele>403.7</ele>
        <time>2014-04-19T13:13:24.836Z</time>
      </trkpt>
      <trkpt lat="45.49748" lon="4.62965">
        <ele>404</ele>
        <time>2014-04-19T13:13:26.944Z</time>
      </trkpt>
      <trkpt lat="45.49748" lon="4.62959">
        <ele>404.1</ele>
        <time>2014-04-19T13:13:27.902Z</time>
      </trkpt>
      <trkpt lat="45.49747" lon="4.62948">
        <ele>404.3</ele>
        <time>2014-04-19T13:13:29.971Z</time>
      </trkpt>
      <trkpt lat="45.49747" lon="4.62943">
        <ele>404.3</ele>
        <time>2014-04-19T13:13:30.889Z</time>
      </trkpt>
      <trkpt lat="45.49747" lon="4.62935">
        <ele>404.3</ele>
        <time>2014-04-19T13:13:32.981Z</time>
      </trkpt>
      <trkpt lat="45.49747" lon="4.6293">
        <ele>404.3</ele>
        <time>2014-04-19T13:13:33.884Z</time>
      </trkpt>
      <trkpt lat="45.49746" lon="4.62919">
        <ele>404.4</ele>
        <time>2014-04-19T13:13:35.957Z</time>
      </trkpt>
      <trkpt lat="45.49745" lon="4.62913">
        <ele>404.4</ele>
        <time>2014-04-19T13:13:36.871Z</time>
      </trkpt>
      <trkpt lat="45.49743" lon="4.62904">
        <ele>404.7</ele>
        <time>2014-04-19T13:13:39.518Z</time>
      </trkpt>
      <trkpt lat="45.49742" lon="4.62898">
        <ele>404.8</ele>
        <time>2014-04-19T13:13:39.832Z</time>
      </trkpt>
      <trkpt lat="45.49738" lon="4.62888">
        <ele>405</ele>
        <time>2014-04-19T13:13:41.875Z</time>
      </trkpt>
      <trkpt lat="45.49736" lon="4.62883">
        <ele>405.1</ele>
        <time>2014-04-19T13:13:42.865Z</time>
      </trkpt>
      <trkpt lat="45.49732" lon="4.62874">
        <ele>405.3</ele>
        <time>2014-04-19T13:13:44.868Z</time>
      </trkpt>
      <trkpt lat="45.4973" lon="4.62869">
        <ele>405.4</ele>
        <time>2014-04-19T13:13:45.880Z</time>
      </trkpt>
      <trkpt lat="45.49725" lon="4.62861">
        <ele>405.6</ele>
        <time>2014-04-19T13:13:48.482Z</time>
      </trkpt>
      <trkpt lat="45.49723" lon="4.62857">
        <ele>405.7</ele>
        <time>2014-04-19T13:13:48.834Z</time>
      </trkpt>
      <trkpt lat="45.49717" lon="4.6285">
        <ele>405.9</ele>
        <time>2014-04-19T13:13:50.936Z</time>
      </trkpt>
      <trkpt lat="45.49715" lon="4.62846">
        <ele>406</ele>
        <time>2014-04-19T13:13:51.930Z</time>
      </trkpt>
      <trkpt lat="45.49709" lon="4.62838">
        <ele>406.3</ele>
        <time>2014-04-19T13:13:53.866Z</time>
      </trkpt>
      <trkpt lat="45.49707" lon="4.62834">
        <ele>406.3</ele>
        <time>2014-04-19T13:13:54.838Z</time>
      </trkpt>
      <trkpt lat="45.49703" lon="4.62825">
        <ele>406.5</ele>
        <time>2014-04-19T13:13:56.971Z</time>
      </trkpt>
      <trkpt lat="45.49701" lon="4.62821">
        <ele>406.6</ele>
        <time>2014-04-19T13:13:57.836Z</time>
      </trkpt>
      <trkpt lat="45.49697" lon="4.62811">
        <ele>406.8</ele>
        <time>2014-04-19T13:13:59.877Z</time>
      </trkpt>
      <trkpt lat="45.49695" lon="4.62807">
        <ele>406.8</ele>
        <time>2014-04-19T13:14:00.842Z</time>
      </trkpt>
      <trkpt lat="45.49691" lon="4.62797">
        <ele>407.1</ele>
        <time>2014-04-19T13:14:03.972Z</time>
      </trkpt>
      <trkpt lat="45.4969" lon="4.62792">
        <ele>407.2</ele>
        <time>2014-04-19T13:14:04.840Z</time>
      </trkpt>
      <trkpt lat="45.49689" lon="4.62782">
        <ele>407.5</ele>
        <time>2014-04-19T13:14:07.025Z</time>
      </trkpt>
      <trkpt lat="45.49689" lon="4.62777">
        <ele>407.7</ele>
        <time>2014-04-19T13:14:07.837Z</time>
      </trkpt>
      <trkpt lat="45.49689" lon="4.62767">
        <ele>408</ele>
        <time>2014-04-19T13:14:09.920Z</time>
      </trkpt>
      <trkpt lat="45.49689" lon="4.62762">
        <ele>408.1</ele>
        <time>2014-04-19T13:14:10.855Z</time>
      </trkpt>
      <trkpt lat="45.49689" lon="4.62752">
        <ele>408.4</ele>
        <time>2014-04-19T13:14:13.927Z</time>
      </trkpt>
      <trkpt lat="45.49688" lon="4.6274">
        <ele>408.7</ele>
        <time>2014-04-19T13:14:14.835Z</time>
      </trkpt>
      <trkpt lat="45.49688" lon="4.62729">
        <ele>409</ele>
        <time>2014-04-19T13:14:16.979Z</time>
      </trkpt>
      <trkpt lat="45.49687" lon="4.62723">
        <ele>409.1</ele>
        <time>2014-04-19T13:14:17.908Z</time>
      </trkpt>
      <trkpt lat="45.49684" lon="4.62712">
        <ele>409.4</ele>
        <time>2014-04-19T13:14:19.868Z</time>
      </trkpt>
      <trkpt lat="45.49682" lon="4.62708">
        <ele>409.5</ele>
        <time>2014-04-19T13:14:20.883Z</time>
      </trkpt>
      <trkpt lat="45.49677" lon="4.62699">
        <ele>409.7</ele>
        <time>2014-04-19T13:14:22.895Z</time>
      </trkpt>
      <trkpt lat="45.49674" lon="4.62695">
        <ele>409.8</ele>
        <time>2014-04-19T13:14:23.840Z</time>
      </trkpt>
      <trkpt lat="45.49668" lon="4.62689">
        <ele>410</ele>
        <time>2014-04-19T13:14:25.878Z</time>
      </trkpt>
      <trkpt lat="45.49666" lon="4.62686">
        <ele>410.1</ele>
        <time>2014-04-19T13:14:26.942Z</time>
      </trkpt>
      <trkpt lat="45.49659" lon="4.62681">
        <ele>410.4</ele>
        <time>2014-04-19T13:14:29.030Z</time>
      </trkpt>
      <trkpt lat="45.49655" lon="4.62679">
        <ele>410.5</ele>
        <time>2014-04-19T13:14:29.841Z</time>
      </trkpt>
      <trkpt lat="45.49648" lon="4.62674">
        <ele>410.7</ele>
        <time>2014-04-19T13:14:31.890Z</time>
      </trkpt>
      <trkpt lat="45.49644" lon="4.62672">
        <ele>410.8</ele>
        <time>2014-04-19T13:14:32.910Z</time>
      </trkpt>
      <trkpt lat="45.49636" lon="4.62669">
        <ele>411.1</ele>
        <time>2014-04-19T13:14:34.888Z</time>
      </trkpt>
      <trkpt lat="45.49632" lon="4.62667">
        <ele>411.2</ele>
        <time>2014-04-19T13:14:35.877Z</time>
      </trkpt>
      <trkpt lat="45.49624" lon="4.62665">
        <ele>411.5</ele>
        <time>2014-04-19T13:14:38.055Z</time>
      </trkpt>
      <trkpt lat="45.4962" lon="4.62664">
        <ele>413.1</ele>
        <time>2014-04-19T13:14:38.879Z</time>
      </trkpt>
      <trkpt lat="45.49611" lon="4.62661">
        <ele>413.4</ele>
        <time>2014-04-19T13:14:40.930Z</time>
      </trkpt>
      <trkpt lat="45.49607" lon="4.62661">
        <ele>413.5</ele>
        <time>2014-04-19T13:14:41.845Z</time>
      </trkpt>
      <trkpt lat="45.496" lon="4.62659">
        <ele>413.8</ele>
        <time>2014-04-19T13:14:44.156Z</time>
      </trkpt>
      <trkpt lat="45.49596" lon="4.62658">
        <ele>413.9</ele>
        <time>2014-04-19T13:14:44.880Z</time>
      </trkpt>
      <trkpt lat="45.49588" lon="4.62656">
        <ele>414.2</ele>
        <time>2014-04-19T13:14:46.944Z</time>
      </trkpt>
      <trkpt lat="45.49584" lon="4.62656">
        <ele>414.3</ele>
        <time>2014-04-19T13:14:47.870Z</time>
      </trkpt>
      <trkpt lat="45.49577" lon="4.62655">
        <ele>414.6</ele>
        <time>2014-04-19T13:14:49.840Z</time>
      </trkpt>
      <trkpt lat="45.49573" lon="4.62654">
        <ele>414.8</ele>
        <time>2014-04-19T13:14:50.909Z</time>
      </trkpt>
      <trkpt lat="45.49565" lon="4.62654">
        <ele>415.1</ele>
        <time>2014-04-19T13:14:53.634Z</time>
      </trkpt>
      <trkpt lat="45.49561" lon="4.62654">
        <ele>415.2</ele>
        <time>2014-04-19T13:14:53.830Z</time>
      </trkpt>
      <trkpt lat="45.49553" lon="4.62655">
        <ele>415.9</ele>
        <time>2014-04-19T13:14:55.913Z</time>
      </trkpt>
      <trkpt lat="45.4955" lon="4.62655">
        <ele>416</ele>
        <time>2014-04-19T13:14:56.873Z</time>
      </trkpt>
      <trkpt lat="45.49544" lon="4.62655">
        <ele>416.1</ele>
        <time>2014-04-19T13:14:58.861Z</time>
      </trkpt>
      <trkpt lat="45.4954" lon="4.62656">
        <ele>416.2</ele>
        <time>2014-04-19T13:14:59.881Z</time>
      </trkpt>
      <trkpt lat="45.49533" lon="4.62656">
        <ele>416.4</ele>
        <time>2014-04-19T13:15:01.949Z</time>
      </trkpt>
      <trkpt lat="45.49529" lon="4.62657">
        <ele>416.5</ele>
        <time>2014-04-19T13:15:02.843Z</time>
      </trkpt>
      <trkpt lat="45.4952" lon="4.62659">
        <ele>416.6</ele>
        <time>2014-04-19T13:15:04.942Z</time>
      </trkpt>
      <trkpt lat="45.49516" lon="4.6266">
        <ele>416.7</ele>
        <time>2014-04-19T13:15:05.846Z</time>
      </trkpt>
      <trkpt lat="45.49509" lon="4.62662">
        <ele>417.7</ele>
        <time>2014-04-19T13:15:07.909Z</time>
      </trkpt>
      <trkpt lat="45.49506" lon="4.62664">
        <ele>417.8</ele>
        <time>2014-04-19T13:15:08.871Z</time>
      </trkpt>
      <trkpt lat="45.49498" lon="4.62666">
        <ele>418</ele>
        <time>2014-04-19T13:15:11.236Z</time>
      </trkpt>
      <trkpt lat="45.49494" lon="4.62668">
        <ele>418.1</ele>
        <time>2014-04-19T13:15:11.862Z</time>
      </trkpt>
      <trkpt lat="45.49485" lon="4.62671">
        <ele>418.2</ele>
        <time>2014-04-19T13:15:13.914Z</time>
      </trkpt>
      <trkpt lat="45.49481" lon="4.62672">
        <ele>418.3</ele>
        <time>2014-04-19T13:15:14.850Z</time>
      </trkpt>
      <trkpt lat="45.49474" lon="4.62675">
        <ele>419.3</ele>
        <time>2014-04-19T13:15:16.954Z</time>
      </trkpt>
      <trkpt lat="45.49471" lon="4.62676">
        <ele>419.3</ele>
        <time>2014-04-19T13:15:17.879Z</time>
      </trkpt>
      <trkpt lat="45.49464" lon="4.62679">
        <ele>419.5</ele>
        <time>2014-04-19T13:15:19.985Z</time>
      </trkpt>
      <trkpt lat="45.4946" lon="4.6268">
        <ele>419.6</ele>
        <time>2014-04-19T13:15:20.899Z</time>
      </trkpt>
      <trkpt lat="45.49453" lon="4.62683">
        <ele>419.8</ele>
        <time>2014-04-19T13:15:22.964Z</time>
      </trkpt>
      <trkpt lat="45.49449" lon="4.62684">
        <ele>419.9</ele>
        <time>2014-04-19T13:15:23.922Z</time>
      </trkpt>
      <trkpt lat="45.49441" lon="4.62685">
        <ele>420.1</ele>
        <time>2014-04-19T13:15:25.937Z</time>
      </trkpt>
      <trkpt lat="45.49437" lon="4.62685">
        <ele>420.2</ele>
        <time>2014-04-19T13:15:26.878Z</time>
      </trkpt>
      <trkpt lat="45.4943" lon="4.62686">
        <ele>420.5</ele>
        <time>2014-04-19T13:15:29.001Z</time>
      </trkpt>
      <trkpt lat="45.49426" lon="4.62686">
        <ele>420.7</ele>
        <time>2014-04-19T13:15:29.895Z</time>
      </trkpt>
      <trkpt lat="45.49419" lon="4.62687">
        <ele>421.8</ele>
        <time>2014-04-19T13:15:31.882Z</time>
      </trkpt>
      <trkpt lat="45.49415" lon="4.62688">
        <ele>422.9</ele>
        <time>2014-04-19T13:15:32.846Z</time>
      </trkpt>
      <trkpt lat="45.49407" lon="4.62688">
        <ele>423</ele>
        <time>2014-04-19T13:15:34.938Z</time>
      </trkpt>
      <trkpt lat="45.49403" lon="4.62689">
        <ele>423.1</ele>
        <time>2014-04-19T13:15:35.892Z</time>
      </trkpt>
      <trkpt lat="45.49396" lon="4.62689">
        <ele>423.1</ele>
        <time>2014-04-19T13:15:37.964Z</time>
      </trkpt>
      <trkpt lat="45.49393" lon="4.6269">
        <ele>423.2</ele>
        <time>2014-04-19T13:15:38.837Z</time>
      </trkpt>
      <trkpt lat="45.49385" lon="4.62689">
        <ele>423.4</ele>
        <time>2014-04-19T13:15:40.925Z</time>
      </trkpt>
      <trkpt lat="45.49382" lon="4.62689">
        <ele>423.5</ele>
        <time>2014-04-19T13:15:41.835Z</time>
      </trkpt>
      <trkpt lat="45.49375" lon="4.62687">
        <ele>423.7</ele>
        <time>2014-04-19T13:15:44.181Z</time>
      </trkpt>
      <trkpt lat="45.49371" lon="4.62686">
        <ele>423.8</ele>
        <time>2014-04-19T13:15:44.891Z</time>
      </trkpt>
      <trkpt lat="45.49365" lon="4.62684">
        <ele>423.9</ele>
        <time>2014-04-19T13:15:46.958Z</time>
      </trkpt>
      <trkpt lat="45.49362" lon="4.62682">
        <ele>424</ele>
        <time>2014-04-19T13:15:47.839Z</time>
      </trkpt>
      <trkpt lat="45.49356" lon="4.62677">
        <ele>424.1</ele>
        <time>2014-04-19T13:15:49.876Z</time>
      </trkpt>
      <trkpt lat="45.49354" lon="4.62674">
        <ele>424.2</ele>
        <time>2014-04-19T13:15:50.885Z</time>
      </trkpt>
      <trkpt lat="45.49349" lon="4.62668">
        <ele>424.5</ele>
        <time>2014-04-19T13:15:53.610Z</time>
      </trkpt>
      <trkpt lat="45.49347" lon="4.62665">
        <ele>424.7</ele>
        <time>2014-04-19T13:15:53.839Z</time>
      </trkpt>
      <trkpt lat="45.49346" lon="4.62656">
        <ele>425</ele>
        <time>2014-04-19T13:15:55.958Z</time>
      </trkpt>
      <trkpt lat="45.49345" lon="4.62652">
        <ele>425.2</ele>
        <time>2014-04-19T13:15:56.881Z</time>
      </trkpt>
      <trkpt lat="45.49342" lon="4.62642">
        <ele>425.6</ele>
        <time>2014-04-19T13:15:59.107Z</time>
      </trkpt>
      <trkpt lat="45.49341" lon="4.62637">
        <ele>425.9</ele>
        <time>2014-04-19T13:15:59.873Z</time>
      </trkpt>
      <trkpt lat="45.4934" lon="4.62625">
        <ele>426.4</ele>
        <time>2014-04-19T13:16:01.907Z</time>
      </trkpt>
      <trkpt lat="45.49339" lon="4.62619">
        <ele>426.7</ele>
        <time>2014-04-19T13:16:02.885Z</time>
      </trkpt>
      <trkpt lat="45.49339" lon="4.62607">
        <ele>430.3</ele>
        <time>2014-04-19T13:16:04.897Z</time>
      </trkpt>
      <trkpt lat="45.49339" lon="4.62602">
        <ele>432.3</ele>
        <time>2014-04-19T13:16:05.875Z</time>
      </trkpt>
      <trkpt lat="45.49337" lon="4.62592">
        <ele>434</ele>
        <time>2014-04-19T13:16:08.008Z</time>
      </trkpt>
      <trkpt lat="45.49335" lon="4.62586">
        <ele>433.9</ele>
        <time>2014-04-19T13:16:08.821Z</time>
      </trkpt>
      <trkpt lat="45.49333" lon="4.6258">
        <ele>433.6</ele>
        <time>2014-04-19T13:16:10.423Z</time>
      </trkpt>
      <trkpt lat="45.4933" lon="4.62574">
        <ele>432.8</ele>
        <time>2014-04-19T13:16:10.831Z</time>
      </trkpt>
      <trkpt lat="45.49328" lon="4.62567">
        <ele>432.3</ele>
        <time>2014-04-19T13:16:11.942Z</time>
      </trkpt>
      <trkpt lat="45.49324" lon="4.62561">
        <ele>431.6</ele>
        <time>2014-04-19T13:16:12.875Z</time>
      </trkpt>
      <trkpt lat="45.49321" lon="4.62555">
        <ele>430.8</ele>
        <time>2014-04-19T13:16:14.158Z</time>
      </trkpt>
      <trkpt lat="45.49318" lon="4.6255">
        <ele>429.8</ele>
        <time>2014-04-19T13:16:14.884Z</time>
      </trkpt>
      <trkpt lat="45.4931" lon="4.62543">
        <ele>427.8</ele>
        <time>2014-04-19T13:16:16.924Z</time>
      </trkpt>
      <trkpt lat="45.49306" lon="4.6254">
        <ele>426.7</ele>
        <time>2014-04-19T13:16:17.842Z</time>
      </trkpt>
      <trkpt lat="45.49302" lon="4.62538">
        <ele>425.7</ele>
        <time>2014-04-19T13:16:19.016Z</time>
      </trkpt>
      <trkpt lat="45.49297" lon="4.62537">
        <ele>424.7</ele>
        <time>2014-04-19T13:16:19.841Z</time>
      </trkpt>
      <trkpt lat="45.49293" lon="4.62535">
        <ele>423.7</ele>
        <time>2014-04-19T13:16:21.051Z</time>
      </trkpt>
      <trkpt lat="45.49287" lon="4.62533">
        <ele>423.1</ele>
        <time>2014-04-19T13:16:21.832Z</time>
      </trkpt>
      <trkpt lat="45.49282" lon="4.62531">
        <ele>422.7</ele>
        <time>2014-04-19T13:16:22.880Z</time>
      </trkpt>
      <trkpt lat="45.49278" lon="4.62529">
        <ele>422.4</ele>
        <time>2014-04-19T13:16:23.866Z</time>
      </trkpt>
      <trkpt lat="45.4927" lon="4.62526">
        <ele>422.4</ele>
        <time>2014-04-19T13:16:25.954Z</time>
      </trkpt>
      <trkpt lat="45.49266" lon="4.62524">
        <ele>422.4</ele>
        <time>2014-04-19T13:16:26.956Z</time>
      </trkpt>
      <trkpt lat="45.49258" lon="4.62521">
        <ele>422.4</ele>
        <time>2014-04-19T13:16:28.980Z</time>
      </trkpt>
      <trkpt lat="45.49254" lon="4.62519">
        <ele>422.5</ele>
        <time>2014-04-19T13:16:29.881Z</time>
      </trkpt>
      <trkpt lat="45.49248" lon="4.62515">
        <ele>422.6</ele>
        <time>2014-04-19T13:16:31.897Z</time>
      </trkpt>
      <trkpt lat="45.49245" lon="4.62513">
        <ele>422.7</ele>
        <time>2014-04-19T13:16:32.838Z</time>
      </trkpt>
      <trkpt lat="45.49238" lon="4.62508">
        <ele>422.8</ele>
        <time>2014-04-19T13:16:34.961Z</time>
      </trkpt>
      <trkpt lat="45.49235" lon="4.62506">
        <ele>422.9</ele>
        <time>2014-04-19T13:16:35.949Z</time>
      </trkpt>
      <trkpt lat="45.49229" lon="4.62502">
        <ele>423</ele>
        <time>2014-04-19T13:16:37.891Z</time>
      </trkpt>
      <trkpt lat="45.49226" lon="4.62501">
        <ele>423.1</ele>
        <time>2014-04-19T13:16:38.891Z</time>
      </trkpt>
      <trkpt lat="45.49217" lon="4.625">
        <ele>424.3</ele>
        <time>2014-04-19T13:16:40.881Z</time>
      </trkpt>
      <trkpt lat="45.49212" lon="4.625">
        <ele>425.3</ele>
        <time>2014-04-19T13:16:41.841Z</time>
      </trkpt>
      <trkpt lat="45.49206" lon="4.62501">
        <ele>426.2</ele>
        <time>2014-04-19T13:16:42.942Z</time>
      </trkpt>
      <trkpt lat="45.49202" lon="4.62504">
        <ele>426.6</ele>
        <time>2014-04-19T13:16:43.949Z</time>
      </trkpt>
      <trkpt lat="45.49196" lon="4.6251">
        <ele>426.9</ele>
        <time>2014-04-19T13:16:45.860Z</time>
      </trkpt>
      <trkpt lat="45.49193" lon="4.62515">
        <ele>427.1</ele>
        <time>2014-04-19T13:16:46.878Z</time>
      </trkpt>
      <trkpt lat="45.4919" lon="4.6252">
        <ele>427.4</ele>
        <time>2014-04-19T13:16:48.200Z</time>
      </trkpt>
      <trkpt lat="45.49188" lon="4.62525">
        <ele>427.5</ele>
        <time>2014-04-19T13:16:48.889Z</time>
      </trkpt>
      <trkpt lat="45.49184" lon="4.62537">
        <ele>427.8</ele>
        <time>2014-04-19T13:16:50.895Z</time>
      </trkpt>
      <trkpt lat="45.49183" lon="4.62543">
        <ele>428.1</ele>
        <time>2014-04-19T13:16:51.885Z</time>
      </trkpt>
      <trkpt lat="45.49181" lon="4.62554">
        <ele>428.8</ele>
        <time>2014-04-19T13:16:53.897Z</time>
      </trkpt>
      <trkpt lat="45.4918" lon="4.62561">
        <ele>429.1</ele>
        <time>2014-04-19T13:16:54.895Z</time>
      </trkpt>
      <trkpt lat="45.49179" lon="4.62573">
        <ele>429.8</ele>
        <time>2014-04-19T13:16:56.867Z</time>
      </trkpt>
      <trkpt lat="45.49178" lon="4.62579">
        <ele>430.3</ele>
        <time>2014-04-19T13:16:57.872Z</time>
      </trkpt>
      <trkpt lat="45.49178" lon="4.62585">
        <ele>430.8</ele>
        <time>2014-04-19T13:16:58.937Z</time>
      </trkpt>
      <trkpt lat="45.49177" lon="4.62592">
        <ele>431.1</ele>
        <time>2014-04-19T13:16:59.877Z</time>
      </trkpt>
      <trkpt lat="45.49176" lon="4.62603">
        <ele>431.3</ele>
        <time>2014-04-19T13:17:01.970Z</time>
      </trkpt>
      <trkpt lat="45.49176" lon="4.62609">
        <ele>431</ele>
        <time>2014-04-19T13:17:02.885Z</time>
      </trkpt>
      <trkpt lat="45.49174" lon="4.62621">
        <ele>430.5</ele>
        <time>2014-04-19T13:17:04.952Z</time>
      </trkpt>
      <trkpt lat="45.49174" lon="4.62627">
        <ele>430.3</ele>
        <time>2014-04-19T13:17:05.868Z</time>
      </trkpt>
      <trkpt lat="45.49173" lon="4.62639">
        <ele>430</ele>
        <time>2014-04-19T13:17:08.852Z</time>
      </trkpt>
      <trkpt lat="45.49173" lon="4.62644">
        <ele>429.7</ele>
        <time>2014-04-19T13:17:08.967Z</time>
      </trkpt>
      <trkpt lat="45.49171" lon="4.62656">
        <ele>429.8</ele>
        <time>2014-04-19T13:17:11.210Z</time>
      </trkpt>
      <trkpt lat="45.49171" lon="4.62662">
        <ele>430.1</ele>
        <time>2014-04-19T13:17:11.829Z</time>
      </trkpt>
      <trkpt lat="45.4917" lon="4.62668">
        <ele>430.4</ele>
        <time>2014-04-19T13:17:12.979Z</time>
      </trkpt>
      <trkpt lat="45.49168" lon="4.62675">
        <ele>430.4</ele>
        <time>2014-04-19T13:17:13.946Z</time>
      </trkpt>
      <trkpt lat="45.49165" lon="4.62685">
        <ele>430.4</ele>
        <time>2014-04-19T13:17:15.952Z</time>
      </trkpt>
      <trkpt lat="45.49164" lon="4.6269">
        <ele>430.6</ele>
        <time>2014-04-19T13:17:16.884Z</time>
      </trkpt>
      <trkpt lat="45.49161" lon="4.62699">
        <ele>430.6</ele>
        <time>2014-04-19T13:17:19.064Z</time>
      </trkpt>
      <trkpt lat="45.4916" lon="4.62704">
        <ele>430.6</ele>
        <time>2014-04-19T13:17:19.841Z</time>
      </trkpt>
      <trkpt lat="45.49156" lon="4.62713">
        <ele>430.6</ele>
        <time>2014-04-19T13:17:21.974Z</time>
      </trkpt>
      <trkpt lat="45.49154" lon="4.62718">
        <ele>430.7</ele>
        <time>2014-04-19T13:17:22.835Z</time>
      </trkpt>
      <trkpt lat="45.4915" lon="4.62729">
        <ele>430.8</ele>
        <time>2014-04-19T13:17:24.952Z</time>
      </trkpt>
      <trkpt lat="45.49148" lon="4.62734">
        <ele>430.9</ele>
        <time>2014-04-19T13:17:25.834Z</time>
      </trkpt>
      <trkpt lat="45.49145" lon="4.62744">
        <ele>431.6</ele>
        <time>2014-04-19T13:17:27.983Z</time>
      </trkpt>
      <trkpt lat="45.49144" lon="4.6275">
        <ele>432.2</ele>
        <time>2014-04-19T13:17:28.845Z</time>
      </trkpt>
      <trkpt lat="45.49142" lon="4.62756">
        <ele>432.3</ele>
        <time>2014-04-19T13:17:29.846Z</time>
      </trkpt>
      <trkpt lat="45.4914" lon="4.62763">
        <ele>432.7</ele>
        <time>2014-04-19T13:17:30.871Z</time>
      </trkpt>
      <trkpt lat="45.49136" lon="4.62772">
        <ele>433.3</ele>
        <time>2014-04-19T13:17:33.173Z</time>
      </trkpt>
      <trkpt lat="45.49133" lon="4.62776">
        <ele>433.7</ele>
        <time>2014-04-19T13:17:33.844Z</time>
      </trkpt>
      <trkpt lat="45.49126" lon="4.62781">
        <ele>433.9</ele>
        <time>2014-04-19T13:17:35.947Z</time>
      </trkpt>
      <trkpt lat="45.49122" lon="4.62781">
        <ele>433.9</ele>
        <time>2014-04-19T13:17:36.867Z</time>
      </trkpt>
      <trkpt lat="45.49116" lon="4.6278">
        <ele>433.9</ele>
        <time>2014-04-19T13:17:39.252Z</time>
      </trkpt>
      <trkpt lat="45.49114" lon="4.62779">
        <ele>433.9</ele>
        <time>2014-04-19T13:17:39.863Z</time>
      </trkpt>
      <trkpt lat="45.49107" lon="4.62777">
        <ele>433.9</ele>
        <time>2014-04-19T13:17:41.853Z</time>
      </trkpt>
      <trkpt lat="45.49103" lon="4.62776">
        <ele>433.9</ele>
        <time>2014-04-19T13:17:42.893Z</time>
      </trkpt>
      <trkpt lat="45.49095" lon="4.62775">
        <ele>433.6</ele>
        <time>2014-04-19T13:17:44.957Z</time>
      </trkpt>
      <trkpt lat="45.49091" lon="4.62774">
        <ele>433.4</ele>
        <time>2014-04-19T13:17:45.887Z</time>
      </trkpt>
      <trkpt lat="45.49084" lon="4.62774">
        <ele>433.3</ele>
        <time>2014-04-19T13:17:47.951Z</time>
      </trkpt>
      <trkpt lat="45.4908" lon="4.62774">
        <ele>433.2</ele>
        <time>2014-04-19T13:17:48.886Z</time>
      </trkpt>
      <trkpt lat="45.49073" lon="4.62773">
        <ele>433.2</ele>
        <time>2014-04-19T13:17:50.967Z</time>
      </trkpt>
      <trkpt lat="45.49069" lon="4.62773">
        <ele>433.1</ele>
        <time>2014-04-19T13:17:51.897Z</time>
      </trkpt>
      <trkpt lat="45.49061" lon="4.6277">
        <ele>433.1</ele>
        <time>2014-04-19T13:17:53.890Z</time>
      </trkpt>
      <trkpt lat="45.49057" lon="4.62769">
        <ele>433</ele>
        <time>2014-04-19T13:17:54.900Z</time>
      </trkpt>
      <trkpt lat="45.49049" lon="4.62765">
        <ele>432.8</ele>
        <time>2014-04-19T13:17:57.119Z</time>
      </trkpt>
      <trkpt lat="45.49045" lon="4.62762">
        <ele>432.8</ele>
        <time>2014-04-19T13:17:57.888Z</time>
      </trkpt>
      <trkpt lat="45.49038" lon="4.62758">
        <ele>432.8</ele>
        <time>2014-04-19T13:18:00.294Z</time>
      </trkpt>
      <trkpt lat="45.49034" lon="4.62757">
        <ele>432.7</ele>
        <time>2014-04-19T13:18:00.850Z</time>
      </trkpt>
      <trkpt lat="45.49026" lon="4.62754">
        <ele>432.7</ele>
        <time>2014-04-19T13:18:03.761Z</time>
      </trkpt>
      <trkpt lat="45.49022" lon="4.62752">
        <ele>432.7</ele>
        <time>2014-04-19T13:18:03.922Z</time>
      </trkpt>
      <trkpt lat="45.49014" lon="4.62748">
        <ele>432.6</ele>
        <time>2014-04-19T13:18:05.869Z</time>
      </trkpt>
      <trkpt lat="45.4901" lon="4.62747">
        <ele>432.5</ele>
        <time>2014-04-19T13:18:06.888Z</time>
      </trkpt>
      <trkpt lat="45.49006" lon="4.62745">
        <ele>432.3</ele>
        <time>2014-04-19T13:18:08.875Z</time>
      </trkpt>
      <trkpt lat="45.48997" lon="4.62743">
        <ele>432</ele>
        <time>2014-04-19T13:18:09.893Z</time>
      </trkpt>
      <trkpt lat="45.48989" lon="4.62741">
        <ele>431.6</ele>
        <time>2014-04-19T13:18:11.897Z</time>
      </trkpt>
      <trkpt lat="45.48985" lon="4.62741">
        <ele>431.5</ele>
        <time>2014-04-19T13:18:12.878Z</time>
      </trkpt>
      <trkpt lat="45.48977" lon="4.62739">
        <ele>431.4</ele>
        <time>2014-04-19T13:18:14.974Z</time>
      </trkpt>
      <trkpt lat="45.48973" lon="4.62738">
        <ele>431.3</ele>
        <time>2014-04-19T13:18:15.891Z</time>
      </trkpt>
      <trkpt lat="45.48965" lon="4.62737">
        <ele>431.2</ele>
        <time>2014-04-19T13:18:17.933Z</time>
      </trkpt>
      <trkpt lat="45.48961" lon="4.62736">
        <ele>431.3</ele>
        <time>2014-04-19T13:18:19.015Z</time>
      </trkpt>
      <trkpt lat="45.48953" lon="4.62734">
        <ele>431.7</ele>
        <time>2014-04-19T13:18:21.008Z</time>
      </trkpt>
      <trkpt lat="45.48949" lon="4.62733">
        <ele>431.8</ele>
        <time>2014-04-19T13:18:21.951Z</time>
      </trkpt>
      <trkpt lat="45.48942" lon="4.62732">
        <ele>432.3</ele>
        <time>2014-04-19T13:18:24.056Z</time>
      </trkpt>
      <trkpt lat="45.48938" lon="4.62733">
        <ele>432.6</ele>
        <time>2014-04-19T13:18:24.895Z</time>
      </trkpt>
      <trkpt lat="45.4893" lon="4.62734">
        <ele>432.3</ele>
        <time>2014-04-19T13:18:26.904Z</time>
      </trkpt>
      <trkpt lat="45.48927" lon="4.62736">
        <ele>432.4</ele>
        <time>2014-04-19T13:18:27.889Z</time>
      </trkpt>
      <trkpt lat="45.48922" lon="4.62738">
        <ele>432.5</ele>
        <time>2014-04-19T13:18:29.067Z</time>
      </trkpt>
      <trkpt lat="45.48918" lon="4.62741">
        <ele>432.4</ele>
        <time>2014-04-19T13:18:29.849Z</time>
      </trkpt>
      <trkpt lat="45.48911" lon="4.62748">
        <ele>433</ele>
        <time>2014-04-19T13:18:31.961Z</time>
      </trkpt>
      <trkpt lat="45.48908" lon="4.62752">
        <ele>433.2</ele>
        <time>2014-04-19T13:18:32.892Z</time>
      </trkpt>
      <trkpt lat="45.48906" lon="4.62758">
        <ele>433.4</ele>
        <time>2014-04-19T13:18:34.079Z</time>
      </trkpt>
      <trkpt lat="45.48904" lon="4.62764">
        <ele>433.5</ele>
        <time>2014-04-19T13:18:34.867Z</time>
      </trkpt>
      <trkpt lat="45.48902" lon="4.6277">
        <ele>433.6</ele>
        <time>2014-04-19T13:18:35.993Z</time>
      </trkpt>
      <trkpt lat="45.489" lon="4.62776">
        <ele>433.7</ele>
        <time>2014-04-19T13:18:36.878Z</time>
      </trkpt>
      <trkpt lat="45.48898" lon="4.62789">
        <ele>433.9</ele>
        <time>2014-04-19T13:18:39.111Z</time>
      </trkpt>
      <trkpt lat="45.48897" lon="4.62795">
        <ele>433.9</ele>
        <time>2014-04-19T13:18:39.889Z</time>
      </trkpt>
      <trkpt lat="45.48896" lon="4.62807">
        <ele>434</ele>
        <time>2014-04-19T13:18:42.008Z</time>
      </trkpt>
      <trkpt lat="45.48895" lon="4.62812">
        <ele>434</ele>
        <time>2014-04-19T13:18:42.877Z</time>
      </trkpt>
      <trkpt lat="45.48894" lon="4.62823">
        <ele>434.9</ele>
        <time>2014-04-19T13:18:44.984Z</time>
      </trkpt>
      <trkpt lat="45.48893" lon="4.62829">
        <ele>435.2</ele>
        <time>2014-04-19T13:18:45.877Z</time>
      </trkpt>
      <trkpt lat="45.48892" lon="4.62842">
        <ele>435.4</ele>
        <time>2014-04-19T13:18:47.895Z</time>
      </trkpt>
      <trkpt lat="45.48891" lon="4.62848">
        <ele>435.4</ele>
        <time>2014-04-19T13:18:48.891Z</time>
      </trkpt>
      <trkpt lat="45.4889" lon="4.62859">
        <ele>435.6</ele>
        <time>2014-04-19T13:18:50.963Z</time>
      </trkpt>
      <trkpt lat="45.48889" lon="4.62865">
        <ele>435.9</ele>
        <time>2014-04-19T13:18:51.896Z</time>
      </trkpt>
      <trkpt lat="45.48888" lon="4.62877">
        <ele>436.6</ele>
        <time>2014-04-19T13:18:53.901Z</time>
      </trkpt>
      <trkpt lat="45.48887" lon="4.62882">
        <ele>436.8</ele>
        <time>2014-04-19T13:18:54.898Z</time>
      </trkpt>
      <trkpt lat="45.48885" lon="4.62894">
        <ele>437.1</ele>
        <time>2014-04-19T13:18:56.897Z</time>
      </trkpt>
      <trkpt lat="45.48885" lon="4.629">
        <ele>437</ele>
        <time>2014-04-19T13:18:57.835Z</time>
      </trkpt>
      <trkpt lat="45.48884" lon="4.62906">
        <ele>436.9</ele>
        <time>2014-04-19T13:18:59.001Z</time>
      </trkpt>
      <trkpt lat="45.48883" lon="4.62913">
        <ele>436.8</ele>
        <time>2014-04-19T13:18:59.870Z</time>
      </trkpt>
      <trkpt lat="45.48882" lon="4.62924">
        <ele>436.9</ele>
        <time>2014-04-19T13:19:01.919Z</time>
      </trkpt>
      <trkpt lat="45.48881" lon="4.62931">
        <ele>436.8</ele>
        <time>2014-04-19T13:19:02.907Z</time>
      </trkpt>
      <trkpt lat="45.4888" lon="4.62941">
        <ele>436.9</ele>
        <time>2014-04-19T13:19:04.899Z</time>
      </trkpt>
      <trkpt lat="45.48879" lon="4.62947">
        <ele>437.1</ele>
        <time>2014-04-19T13:19:05.839Z</time>
      </trkpt>
      <trkpt lat="45.48877" lon="4.62957">
        <ele>437.7</ele>
        <time>2014-04-19T13:19:08.033Z</time>
      </trkpt>
      <trkpt lat="45.48877" lon="4.62964">
        <ele>437.9</ele>
        <time>2014-04-19T13:19:08.913Z</time>
      </trkpt>
      <trkpt lat="45.48875" lon="4.62975">
        <ele>438.2</ele>
        <time>2014-04-19T13:19:10.952Z</time>
      </trkpt>
      <trkpt lat="45.48874" lon="4.62982">
        <ele>438.4</ele>
        <time>2014-04-19T13:19:11.880Z</time>
      </trkpt>
      <trkpt lat="45.48872" lon="4.62993">
        <ele>439.1</ele>
        <time>2014-04-19T13:19:14.033Z</time>
      </trkpt>
      <trkpt lat="45.48871" lon="4.62999">
        <ele>439.3</ele>
        <time>2014-04-19T13:19:14.882Z</time>
      </trkpt>
      <trkpt lat="45.48869" lon="4.63011">
        <ele>439.2</ele>
        <time>2014-04-19T13:19:16.951Z</time>
      </trkpt>
      <trkpt lat="45.48869" lon="4.63017">
        <ele>438.9</ele>
        <time>2014-04-19T13:19:17.866Z</time>
      </trkpt>
      <trkpt lat="45.48867" lon="4.63029">
        <ele>438.3</ele>
        <time>2014-04-19T13:19:19.894Z</time>
      </trkpt>
      <trkpt lat="45.48867" lon="4.63034">
        <ele>438.1</ele>
        <time>2014-04-19T13:19:20.877Z</time>
      </trkpt>
      <trkpt lat="45.48866" lon="4.63044">
        <ele>438.3</ele>
        <time>2014-04-19T13:19:22.874Z</time>
      </trkpt>
      <trkpt lat="45.48865" lon="4.63051">
        <ele>438.3</ele>
        <time>2014-04-19T13:19:23.864Z</time>
      </trkpt>
      <trkpt lat="45.48864" lon="4.63061">
        <ele>438.3</ele>
        <time>2014-04-19T13:19:25.969Z</time>
      </trkpt>
      <trkpt lat="45.48863" lon="4.63066">
        <ele>438.3</ele>
        <time>2014-04-19T13:19:26.828Z</time>
      </trkpt>
      <trkpt lat="45.48863" lon="4.63077">
        <ele>438.6</ele>
        <time>2014-04-19T13:19:29.145Z</time>
      </trkpt>
      <trkpt lat="45.48862" lon="4.63083">
        <ele>438.7</ele>
        <time>2014-04-19T13:19:29.840Z</time>
      </trkpt>
      <trkpt lat="45.48861" lon="4.63093">
        <ele>439.1</ele>
        <time>2014-04-19T13:19:31.923Z</time>
      </trkpt>
      <trkpt lat="45.48861" lon="4.63099">
        <ele>439.3</ele>
        <time>2014-04-19T13:19:32.896Z</time>
      </trkpt>
      <trkpt lat="45.4886" lon="4.6311">
        <ele>439.4</ele>
        <time>2014-04-19T13:19:34.919Z</time>
      </trkpt>
      <trkpt lat="45.4886" lon="4.63115">
        <ele>439.5</ele>
        <time>2014-04-19T13:19:35.918Z</time>
      </trkpt>
      <trkpt lat="45.48859" lon="4.63126">
        <ele>439.5</ele>
        <time>2014-04-19T13:19:37.975Z</time>
      </trkpt>
      <trkpt lat="45.48859" lon="4.6313">
        <ele>439.6</ele>
        <time>2014-04-19T13:19:38.882Z</time>
      </trkpt>
      <trkpt lat="45.48858" lon="4.6314">
        <ele>440</ele>
        <time>2014-04-19T13:19:40.945Z</time>
      </trkpt>
      <trkpt lat="45.48857" lon="4.63144">
        <ele>440</ele>
        <time>2014-04-19T13:19:41.843Z</time>
      </trkpt>
      <trkpt lat="45.48856" lon="4.63156">
        <ele>440.1</ele>
        <time>2014-04-19T13:19:44.289Z</time>
      </trkpt>
      <trkpt lat="45.48855" lon="4.63162">
        <ele>440.2</ele>
        <time>2014-04-19T13:19:44.889Z</time>
      </trkpt>
      <trkpt lat="45.48854" lon="4.63173">
        <ele>440.4</ele>
        <time>2014-04-19T13:19:46.963Z</time>
      </trkpt>
      <trkpt lat="45.48854" lon="4.63178">
        <ele>440.3</ele>
        <time>2014-04-19T13:19:47.895Z</time>
      </trkpt>
      <trkpt lat="45.48853" lon="4.63191">
        <ele>440</ele>
        <time>2014-04-19T13:19:49.910Z</time>
      </trkpt>
      <trkpt lat="45.48852" lon="4.63196">
        <ele>440.1</ele>
        <time>2014-04-19T13:19:50.902Z</time>
      </trkpt>
      <trkpt lat="45.48853" lon="4.63207">
        <ele>440.2</ele>
        <time>2014-04-19T13:19:53.558Z</time>
      </trkpt>
      <trkpt lat="45.48853" lon="4.63214">
        <ele>440.2</ele>
        <time>2014-04-19T13:19:53.950Z</time>
      </trkpt>
      <trkpt lat="45.48854" lon="4.63226">
        <ele>440.2</ele>
        <time>2014-04-19T13:19:55.990Z</time>
      </trkpt>
      <trkpt lat="45.48855" lon="4.63231">
        <ele>440.2</ele>
        <time>2014-04-19T13:19:56.883Z</time>
      </trkpt>
      <trkpt lat="45.48858" lon="4.63241">
        <ele>440</ele>
        <time>2014-04-19T13:19:58.899Z</time>
      </trkpt>
      <trkpt lat="45.4886" lon="4.63247">
        <ele>440</ele>
        <time>2014-04-19T13:19:59.966Z</time>
      </trkpt>
      <trkpt lat="45.48865" lon="4.63257">
        <ele>440</ele>
        <time>2014-04-19T13:20:01.886Z</time>
      </trkpt>
      <trkpt lat="45.48867" lon="4.63263">
        <ele>439.9</ele>
        <time>2014-04-19T13:20:02.877Z</time>
      </trkpt>
      <trkpt lat="45.48872" lon="4.63272">
        <ele>439.3</ele>
        <time>2014-04-19T13:20:04.906Z</time>
      </trkpt>
      <trkpt lat="45.48875" lon="4.63277">
        <ele>438.8</ele>
        <time>2014-04-19T13:20:05.872Z</time>
      </trkpt>
      <trkpt lat="45.48879" lon="4.63286">
        <ele>438.1</ele>
        <time>2014-04-19T13:20:08.290Z</time>
      </trkpt>
      <trkpt lat="45.48881" lon="4.6329">
        <ele>438.1</ele>
        <time>2014-04-19T13:20:08.844Z</time>
      </trkpt>
      <trkpt lat="45.48886" lon="4.63298">
        <ele>438</ele>
        <time>2014-04-19T13:20:11.278Z</time>
      </trkpt>
      <trkpt lat="45.48888" lon="4.63302">
        <ele>438</ele>
        <time>2014-04-19T13:20:11.875Z</time>
      </trkpt>
      <trkpt lat="45.48892" lon="4.63311">
        <ele>438.6</ele>
        <time>2014-04-19T13:20:13.927Z</time>
      </trkpt>
      <trkpt lat="45.48895" lon="4.63316">
        <ele>438.9</ele>
        <time>2014-04-19T13:20:14.886Z</time>
      </trkpt>
      <trkpt lat="45.489" lon="4.63325">
        <ele>439.1</ele>
        <time>2014-04-19T13:20:16.972Z</time>
      </trkpt>
      <trkpt lat="45.48902" lon="4.6333">
        <ele>439.2</ele>
        <time>2014-04-19T13:20:17.884Z</time>
      </trkpt>
      <trkpt lat="45.48907" lon="4.63338">
        <ele>439.3</ele>
        <time>2014-04-19T13:20:19.908Z</time>
      </trkpt>
      <trkpt lat="45.48909" lon="4.63342">
        <ele>439.3</ele>
        <time>2014-04-19T13:20:20.843Z</time>
      </trkpt>
      <trkpt lat="45.48914" lon="4.63351">
        <ele>439.3</ele>
        <time>2014-04-19T13:20:22.940Z</time>
      </trkpt>
      <trkpt lat="45.48916" lon="4.63356">
        <ele>439.3</ele>
        <time>2014-04-19T13:20:23.861Z</time>
      </trkpt>
      <trkpt lat="45.4892" lon="4.63365">
        <ele>439.8</ele>
        <time>2014-04-19T13:20:25.893Z</time>
      </trkpt>
      <trkpt lat="45.48922" lon="4.6337">
        <ele>440</ele>
        <time>2014-04-19T13:20:26.892Z</time>
      </trkpt>
      <trkpt lat="45.48925" lon="4.63379">
        <ele>440</ele>
        <time>2014-04-19T13:20:28.976Z</time>
      </trkpt>
      <trkpt lat="45.48926" lon="4.63384">
        <ele>440</ele>
        <time>2014-04-19T13:20:29.847Z</time>
      </trkpt>
      <trkpt lat="45.48927" lon="4.63394">
        <ele>440.1</ele>
        <time>2014-04-19T13:20:31.942Z</time>
      </trkpt>
      <trkpt lat="45.48927" lon="4.63399">
        <ele>440.1</ele>
        <time>2014-04-19T13:20:32.883Z</time>
      </trkpt>
      <trkpt lat="45.48926" lon="4.63408">
        <ele>440.2</ele>
        <time>2014-04-19T13:20:34.978Z</time>
      </trkpt>
      <trkpt lat="45.48924" lon="4.63412">
        <ele>440.3</ele>
        <time>2014-04-19T13:20:35.850Z</time>
      </trkpt>
      <trkpt lat="45.4892" lon="4.6342">
        <ele>440.3</ele>
        <time>2014-04-19T13:20:37.849Z</time>
      </trkpt>
      <trkpt lat="45.48918" lon="4.63422">
        <ele>440.4</ele>
        <time>2014-04-19T13:20:38.832Z</time>
      </trkpt>
      <trkpt lat="45.48912" lon="4.63427">
        <ele>440.5</ele>
        <time>2014-04-19T13:20:41.010Z</time>
      </trkpt>
      <trkpt lat="45.48909" lon="4.63428">
        <ele>440.6</ele>
        <time>2014-04-19T13:20:41.819Z</time>
      </trkpt>
      <trkpt lat="45.48903" lon="4.6343">
        <ele>440.7</ele>
        <time>2014-04-19T13:20:44.079Z</time>
      </trkpt>
      <trkpt lat="45.489" lon="4.63431">
        <ele>440.8</ele>
        <time>2014-04-19T13:20:44.844Z</time>
      </trkpt>
      <trkpt lat="45.48893" lon="4.63429">
        <ele>441.1</ele>
        <time>2014-04-19T13:20:46.914Z</time>
      </trkpt>
      <trkpt lat="45.48889" lon="4.63427">
        <ele>441.2</ele>
        <time>2014-04-19T13:20:47.837Z</time>
      </trkpt>
      <trkpt lat="45.48883" lon="4.63424">
        <ele>441.4</ele>
        <time>2014-04-19T13:20:49.874Z</time>
      </trkpt>
      <trkpt lat="45.48879" lon="4.63423">
        <ele>441.5</ele>
        <time>2014-04-19T13:20:50.831Z</time>
      </trkpt>
      <trkpt lat="45.48873" lon="4.6342">
        <ele>442.6</ele>
        <time>2014-04-19T13:20:53.559Z</time>
      </trkpt>
      <trkpt lat="45.48869" lon="4.63418">
        <ele>442.6</ele>
        <time>2014-04-19T13:20:53.818Z</time>
      </trkpt>
      <trkpt lat="45.48861" lon="4.63414">
        <ele>443.8</ele>
        <time>2014-04-19T13:20:55.857Z</time>
      </trkpt>
      <trkpt lat="45.48858" lon="4.63413">
        <ele>443.8</ele>
        <time>2014-04-19T13:20:56.944Z</time>
      </trkpt>
      <trkpt lat="45.48851" lon="4.6341">
        <ele>444</ele>
        <time>2014-04-19T13:20:58.908Z</time>
      </trkpt>
      <trkpt lat="45.48848" lon="4.63408">
        <ele>444.1</ele>
        <time>2014-04-19T13:20:59.882Z</time>
      </trkpt>
      <trkpt lat="45.4884" lon="4.63406">
        <ele>444.1</ele>
        <time>2014-04-19T13:21:01.916Z</time>
      </trkpt>
      <trkpt lat="45.48836" lon="4.63406">
        <ele>444.1</ele>
        <time>2014-04-19T13:21:02.851Z</time>
      </trkpt>
      <trkpt lat="45.48832" lon="4.63407">
        <ele>444.2</ele>
        <time>2014-04-19T13:21:03.976Z</time>
      </trkpt>
      <trkpt lat="45.48827" lon="4.63409">
        <ele>444.3</ele>
        <time>2014-04-19T13:21:04.832Z</time>
      </trkpt>
      <trkpt lat="45.48821" lon="4.63411">
        <ele>444.2</ele>
        <time>2014-04-19T13:21:05.837Z</time>
      </trkpt>
      <trkpt lat="45.48817" lon="4.63415">
        <ele>444.3</ele>
        <time>2014-04-19T13:21:06.874Z</time>
      </trkpt>
      <trkpt lat="45.48813" lon="4.63418">
        <ele>444.5</ele>
        <time>2014-04-19T13:21:08.050Z</time>
      </trkpt>
      <trkpt lat="45.48809" lon="4.63422">
        <ele>444.6</ele>
        <time>2014-04-19T13:21:08.874Z</time>
      </trkpt>
      <trkpt lat="45.48801" lon="4.63428">
        <ele>445.1</ele>
        <time>2014-04-19T13:21:10.885Z</time>
      </trkpt>
      <trkpt lat="45.48797" lon="4.63431">
        <ele>445.4</ele>
        <time>2014-04-19T13:21:11.882Z</time>
      </trkpt>
      <trkpt lat="45.4879" lon="4.63437">
        <ele>446.1</ele>
        <time>2014-04-19T13:21:14.071Z</time>
      </trkpt>
      <trkpt lat="45.48786" lon="4.63438">
        <ele>446.4</ele>
        <time>2014-04-19T13:21:14.861Z</time>
      </trkpt>
      <trkpt lat="45.48778" lon="4.63441">
        <ele>446.6</ele>
        <time>2014-04-19T13:21:16.899Z</time>
      </trkpt>
      <trkpt lat="45.48774" lon="4.63442">
        <ele>446.6</ele>
        <time>2014-04-19T13:21:17.871Z</time>
      </trkpt>
      <trkpt lat="45.48766" lon="4.63445">
        <ele>446.6</ele>
        <time>2014-04-19T13:21:19.981Z</time>
      </trkpt>
      <trkpt lat="45.48762" lon="4.63447">
        <ele>446.6</ele>
        <time>2014-04-19T13:21:20.826Z</time>
      </trkpt>
      <trkpt lat="45.48755" lon="4.6345">
        <ele>446.7</ele>
        <time>2014-04-19T13:21:22.915Z</time>
      </trkpt>
      <trkpt lat="45.48751" lon="4.63452">
        <ele>446.7</ele>
        <time>2014-04-19T13:21:23.837Z</time>
      </trkpt>
      <trkpt lat="45.48743" lon="4.63456">
        <ele>446.9</ele>
        <time>2014-04-19T13:21:25.886Z</time>
      </trkpt>
      <trkpt lat="45.48739" lon="4.63458">
        <ele>446.9</ele>
        <time>2014-04-19T13:21:26.874Z</time>
      </trkpt>
      <trkpt lat="45.48731" lon="4.63464">
        <ele>447</ele>
        <time>2014-04-19T13:21:29.196Z</time>
      </trkpt>
      <trkpt lat="45.48727" lon="4.63466">
        <ele>447</ele>
        <time>2014-04-19T13:21:29.862Z</time>
      </trkpt>
      <trkpt lat="45.4872" lon="4.63471">
        <ele>447.2</ele>
        <time>2014-04-19T13:21:31.981Z</time>
      </trkpt>
      <trkpt lat="45.48716" lon="4.63474">
        <ele>447.5</ele>
        <time>2014-04-19T13:21:32.838Z</time>
      </trkpt>
      <trkpt lat="45.48708" lon="4.63479">
        <ele>447.9</ele>
        <time>2014-04-19T13:21:34.962Z</time>
      </trkpt>
      <trkpt lat="45.48705" lon="4.63481">
        <ele>448.1</ele>
        <time>2014-04-19T13:21:35.886Z</time>
      </trkpt>
      <trkpt lat="45.48697" lon="4.63486">
        <ele>448.4</ele>
        <time>2014-04-19T13:21:38.001Z</time>
      </trkpt>
      <trkpt lat="45.48693" lon="4.63487">
        <ele>448.5</ele>
        <time>2014-04-19T13:21:38.853Z</time>
      </trkpt>
      <trkpt lat="45.48685" lon="4.6349">
        <ele>448.5</ele>
        <time>2014-04-19T13:21:40.911Z</time>
      </trkpt>
      <trkpt lat="45.48681" lon="4.63491">
        <ele>448.7</ele>
        <time>2014-04-19T13:21:41.881Z</time>
      </trkpt>
      <trkpt lat="45.48674" lon="4.63493">
        <ele>449.5</ele>
        <time>2014-04-19T13:21:44.329Z</time>
      </trkpt>
      <trkpt lat="45.4867" lon="4.63494">
        <ele>449.9</ele>
        <time>2014-04-19T13:21:44.852Z</time>
      </trkpt>
      <trkpt lat="45.48662" lon="4.63497">
        <ele>450.4</ele>
        <time>2014-04-19T13:21:46.949Z</time>
      </trkpt>
      <trkpt lat="45.48658" lon="4.63498">
        <ele>450.6</ele>
        <time>2014-04-19T13:21:47.866Z</time>
      </trkpt>
      <trkpt lat="45.48651" lon="4.635">
        <ele>450.7</ele>
        <time>2014-04-19T13:21:49.875Z</time>
      </trkpt>
      <trkpt lat="45.48647" lon="4.63501">
        <ele>450.6</ele>
        <time>2014-04-19T13:21:50.897Z</time>
      </trkpt>
      <trkpt lat="45.48638" lon="4.63503">
        <ele>450.2</ele>
        <time>2014-04-19T13:21:53.560Z</time>
      </trkpt>
      <trkpt lat="45.48634" lon="4.63504">
        <ele>450.3</ele>
        <time>2014-04-19T13:21:53.835Z</time>
      </trkpt>
      <trkpt lat="45.48628" lon="4.63504">
        <ele>449.8</ele>
        <time>2014-04-19T13:21:55.957Z</time>
      </trkpt>
      <trkpt lat="45.48625" lon="4.63504">
        <ele>449.8</ele>
        <time>2014-04-19T13:21:56.885Z</time>
      </trkpt>
      <trkpt lat="45.48616" lon="4.63503">
        <ele>450.6</ele>
        <time>2014-04-19T13:21:58.902Z</time>
      </trkpt>
      <trkpt lat="45.48612" lon="4.63503">
        <ele>451.8</ele>
        <time>2014-04-19T13:21:59.884Z</time>
      </trkpt>
      <trkpt lat="45.48603" lon="4.63502">
        <ele>453.4</ele>
        <time>2014-04-19T13:22:02.172Z</time>
      </trkpt>
      <trkpt lat="45.48599" lon="4.63502">
        <ele>453.7</ele>
        <time>2014-04-19T13:22:02.867Z</time>
      </trkpt>
      <trkpt lat="45.48593" lon="4.635">
        <ele>453.7</ele>
        <time>2014-04-19T13:22:04.983Z</time>
      </trkpt>
      <trkpt lat="45.48589" lon="4.63499">
        <ele>453.8</ele>
        <time>2014-04-19T13:22:05.847Z</time>
      </trkpt>
      <trkpt lat="45.48581" lon="4.63496">
        <ele>453.7</ele>
        <time>2014-04-19T13:22:08.816Z</time>
      </trkpt>
      <trkpt lat="45.48577" lon="4.63494">
        <ele>454.1</ele>
        <time>2014-04-19T13:22:08.949Z</time>
      </trkpt>
      <trkpt lat="45.48569" lon="4.63491">
        <ele>454.7</ele>
        <time>2014-04-19T13:22:10.893Z</time>
      </trkpt>
      <trkpt lat="45.48566" lon="4.63489">
        <ele>454.5</ele>
        <time>2014-04-19T13:22:11.886Z</time>
      </trkpt>
      <trkpt lat="45.48559" lon="4.63485">
        <ele>454.5</ele>
        <time>2014-04-19T13:22:13.976Z</time>
      </trkpt>
      <trkpt lat="45.48555" lon="4.63483">
        <ele>454.5</ele>
        <time>2014-04-19T13:22:14.878Z</time>
      </trkpt>
      <trkpt lat="45.48547" lon="4.63478">
        <ele>454.5</ele>
        <time>2014-04-19T13:22:17.385Z</time>
      </trkpt>
      <trkpt lat="45.48544" lon="4.63476">
        <ele>454.6</ele>
        <time>2014-04-19T13:22:17.823Z</time>
      </trkpt>
      <trkpt lat="45.48537" lon="4.63471">
        <ele>454.6</ele>
        <time>2014-04-19T13:22:19.879Z</time>
      </trkpt>
      <trkpt lat="45.48533" lon="4.63468">
        <ele>454.6</ele>
        <time>2014-04-19T13:22:20.873Z</time>
      </trkpt>
      <trkpt lat="45.48529" lon="4.63466">
        <ele>454.3</ele>
        <time>2014-04-19T13:22:21.945Z</time>
      </trkpt>
      <trkpt lat="45.48525" lon="4.63463">
        <ele>453.9</ele>
        <time>2014-04-19T13:22:22.863Z</time>
      </trkpt>
      <trkpt lat="45.48517" lon="4.63459">
        <ele>453.1</ele>
        <time>2014-04-19T13:22:24.870Z</time>
      </trkpt>
      <trkpt lat="45.48515" lon="4.63457">
        <ele>453</ele>
        <time>2014-04-19T13:22:25.861Z</time>
      </trkpt>
      <trkpt lat="45.48507" lon="4.63452">
        <ele>452.9</ele>
        <time>2014-04-19T13:22:28.893Z</time>
      </trkpt>
      <trkpt lat="45.48499" lon="4.63448">
        <ele>452.8</ele>
        <time>2014-04-19T13:22:29.904Z</time>
      </trkpt>
      <trkpt lat="45.48491" lon="4.63444">
        <ele>452.8</ele>
        <time>2014-04-19T13:22:31.961Z</time>
      </trkpt>
      <trkpt lat="45.48486" lon="4.63441">
        <ele>452.9</ele>
        <time>2014-04-19T13:22:32.871Z</time>
      </trkpt>
      <trkpt lat="45.48478" lon="4.63438">
        <ele>453</ele>
        <time>2014-04-19T13:22:34.849Z</time>
      </trkpt>
      <trkpt lat="45.48474" lon="4.63438">
        <ele>453</ele>
        <time>2014-04-19T13:22:35.872Z</time>
      </trkpt>
      <trkpt lat="45.48465" lon="4.63438">
        <ele>453.3</ele>
        <time>2014-04-19T13:22:39.057Z</time>
      </trkpt>
      <trkpt lat="45.48461" lon="4.63439">
        <ele>453.4</ele>
        <time>2014-04-19T13:22:39.838Z</time>
      </trkpt>
      <trkpt lat="45.48453" lon="4.63441">
        <ele>453.5</ele>
        <time>2014-04-19T13:22:41.865Z</time>
      </trkpt>
      <trkpt lat="45.4845" lon="4.63443">
        <ele>453.6</ele>
        <time>2014-04-19T13:22:42.845Z</time>
      </trkpt>
      <trkpt lat="45.48442" lon="4.63447">
        <ele>453.8</ele>
        <time>2014-04-19T13:22:44.931Z</time>
      </trkpt>
      <trkpt lat="45.48438" lon="4.63449">
        <ele>454</ele>
        <time>2014-04-19T13:22:45.864Z</time>
      </trkpt>
      <trkpt lat="45.48433" lon="4.63452">
        <ele>454.9</ele>
        <time>2014-04-19T13:22:46.861Z</time>
      </trkpt>
      <trkpt lat="45.48429" lon="4.63455">
        <ele>454.9</ele>
        <time>2014-04-19T13:22:47.871Z</time>
      </trkpt>
      <trkpt lat="45.48421" lon="4.63461">
        <ele>455.4</ele>
        <time>2014-04-19T13:22:50.031Z</time>
      </trkpt>
      <trkpt lat="45.48418" lon="4.63463">
        <ele>455.4</ele>
        <time>2014-04-19T13:22:50.844Z</time>
      </trkpt>
      <trkpt lat="45.48412" lon="4.63467">
        <ele>455.4</ele>
        <time>2014-04-19T13:22:53.629Z</time>
      </trkpt>
      <trkpt lat="45.48408" lon="4.6347">
        <ele>455.3</ele>
        <time>2014-04-19T13:22:53.843Z</time>
      </trkpt>
      <trkpt lat="45.48401" lon="4.63474">
        <ele>455.3</ele>
        <time>2014-04-19T13:22:55.939Z</time>
      </trkpt>
      <trkpt lat="45.48397" lon="4.63476">
        <ele>455.2</ele>
        <time>2014-04-19T13:22:56.879Z</time>
      </trkpt>
      <trkpt lat="45.4839" lon="4.6348">
        <ele>455.2</ele>
        <time>2014-04-19T13:22:58.870Z</time>
      </trkpt>
      <trkpt lat="45.48386" lon="4.63481">
        <ele>455.2</ele>
        <time>2014-04-19T13:22:59.870Z</time>
      </trkpt>
      <trkpt lat="45.48379" lon="4.63485">
        <ele>454.9</ele>
        <time>2014-04-19T13:23:01.950Z</time>
      </trkpt>
      <trkpt lat="45.48375" lon="4.63487">
        <ele>454.7</ele>
        <time>2014-04-19T13:23:02.881Z</time>
      </trkpt>
      <trkpt lat="45.48368" lon="4.6349">
        <ele>454.6</ele>
        <time>2014-04-19T13:23:05.025Z</time>
      </trkpt>
      <trkpt lat="45.48365" lon="4.63491">
        <ele>454.6</ele>
        <time>2014-04-19T13:23:05.844Z</time>
      </trkpt>
      <trkpt lat="45.48358" lon="4.63493">
        <ele>454.6</ele>
        <time>2014-04-19T13:23:08.733Z</time>
      </trkpt>
      <trkpt lat="45.48355" lon="4.63493">
        <ele>454.7</ele>
        <time>2014-04-19T13:23:08.840Z</time>
      </trkpt>
      <trkpt lat="45.48348" lon="4.63492">
        <ele>455.7</ele>
        <time>2014-04-19T13:23:11.006Z</time>
      </trkpt>
      <trkpt lat="45.48344" lon="4.63492">
        <ele>455.7</ele>
        <time>2014-04-19T13:23:11.892Z</time>
      </trkpt>
      <trkpt lat="45.48337" lon="4.63491">
        <ele>455.9</ele>
        <time>2014-04-19T13:23:13.892Z</time>
      </trkpt>
      <trkpt lat="45.48333" lon="4.63491">
        <ele>456</ele>
        <time>2014-04-19T13:23:14.860Z</time>
      </trkpt>
      <trkpt lat="45.48326" lon="4.63489">
        <ele>456.2</ele>
        <time>2014-04-19T13:23:16.998Z</time>
      </trkpt>
      <trkpt lat="45.48322" lon="4.63489">
        <ele>456.3</ele>
        <time>2014-04-19T13:23:17.876Z</time>
      </trkpt>
      <trkpt lat="45.48314" lon="4.63488">
        <ele>456.4</ele>
        <time>2014-04-19T13:23:19.988Z</time>
      </trkpt>
      <trkpt lat="45.48311" lon="4.63487">
        <ele>456.5</ele>
        <time>2014-04-19T13:23:20.903Z</time>
      </trkpt>
      <trkpt lat="45.48304" lon="4.63486">
        <ele>456.6</ele>
        <time>2014-04-19T13:23:22.886Z</time>
      </trkpt>
      <trkpt lat="45.483" lon="4.63485">
        <ele>456.7</ele>
        <time>2014-04-19T13:23:24.001Z</time>
      </trkpt>
      <trkpt lat="45.48293" lon="4.63483">
        <ele>456.7</ele>
        <time>2014-04-19T13:23:25.955Z</time>
      </trkpt>
      <trkpt lat="45.48288" lon="4.63481">
        <ele>457</ele>
        <time>2014-04-19T13:23:26.898Z</time>
      </trkpt>
      <trkpt lat="45.4828" lon="4.63478">
        <ele>457.9</ele>
        <time>2014-04-19T13:23:29.321Z</time>
      </trkpt>
      <trkpt lat="45.48277" lon="4.63476">
        <ele>458.3</ele>
        <time>2014-04-19T13:23:29.846Z</time>
      </trkpt>
      <trkpt lat="45.4827" lon="4.63473">
        <ele>458.8</ele>
        <time>2014-04-19T13:23:31.953Z</time>
      </trkpt>
      <trkpt lat="45.48267" lon="4.63471">
        <ele>459.1</ele>
        <time>2014-04-19T13:23:32.872Z</time>
      </trkpt>
      <trkpt lat="45.48261" lon="4.63469">
        <ele>459.5</ele>
        <time>2014-04-19T13:23:35.154Z</time>
      </trkpt>
      <trkpt lat="45.48257" lon="4.63467">
        <ele>459.5</ele>
        <time>2014-04-19T13:23:35.870Z</time>
      </trkpt>
      <trkpt lat="45.48249" lon="4.63464">
        <ele>459.3</ele>
        <time>2014-04-19T13:23:38.198Z</time>
      </trkpt>
      <trkpt lat="45.48246" lon="4.63462">
        <ele>459.1</ele>
        <time>2014-04-19T13:23:38.866Z</time>
      </trkpt>
      <trkpt lat="45.48238" lon="4.63458">
        <ele>459.1</ele>
        <time>2014-04-19T13:23:40.961Z</time>
      </trkpt>
      <trkpt lat="45.48234" lon="4.63456">
        <ele>459.1</ele>
        <time>2014-04-19T13:23:41.844Z</time>
      </trkpt>
      <trkpt lat="45.48226" lon="4.63453">
        <ele>459.4</ele>
        <time>2014-04-19T13:23:44.429Z</time>
      </trkpt>
      <trkpt lat="45.48222" lon="4.63452">
        <ele>459.8</ele>
        <time>2014-04-19T13:23:44.842Z</time>
      </trkpt>
      <trkpt lat="45.48214" lon="4.63451">
        <ele>460.4</ele>
        <time>2014-04-19T13:23:46.894Z</time>
      </trkpt>
      <trkpt lat="45.4821" lon="4.63452">
        <ele>460.4</ele>
        <time>2014-04-19T13:23:47.913Z</time>
      </trkpt>
      <trkpt lat="45.48206" lon="4.63452">
        <ele>460.4</ele>
        <time>2014-04-19T13:23:49.564Z</time>
      </trkpt>
      <trkpt lat="45.48201" lon="4.63454">
        <ele>460.4</ele>
        <time>2014-04-19T13:23:49.840Z</time>
      </trkpt>
      <trkpt lat="45.48193" lon="4.63458">
        <ele>460.4</ele>
        <time>2014-04-19T13:23:52.073Z</time>
      </trkpt>
      <trkpt lat="45.4819" lon="4.63461">
        <ele>460.3</ele>
        <time>2014-04-19T13:23:52.859Z</time>
      </trkpt>
      <trkpt lat="45.48183" lon="4.63469">
        <ele>460.3</ele>
        <time>2014-04-19T13:23:54.981Z</time>
      </trkpt>
      <trkpt lat="45.48181" lon="4.63473">
        <ele>460.3</ele>
        <time>2014-04-19T13:23:55.871Z</time>
      </trkpt>
      <trkpt lat="45.48177" lon="4.63482">
        <ele>460.4</ele>
        <time>2014-04-19T13:23:58.773Z</time>
      </trkpt>
      <trkpt lat="45.48176" lon="4.63488">
        <ele>460.5</ele>
        <time>2014-04-19T13:23:58.933Z</time>
      </trkpt>
      <trkpt lat="45.48176" lon="4.63499">
        <ele>461.4</ele>
        <time>2014-04-19T13:24:00.937Z</time>
      </trkpt>
      <trkpt lat="45.48178" lon="4.63506">
        <ele>462.1</ele>
        <time>2014-04-19T13:24:01.881Z</time>
      </trkpt>
      <trkpt lat="45.4818" lon="4.63512">
        <ele>462.5</ele>
        <time>2014-04-19T13:24:03.700Z</time>
      </trkpt>
      <trkpt lat="45.48182" lon="4.63518">
        <ele>462.8</ele>
        <time>2014-04-19T13:24:03.844Z</time>
      </trkpt>
      <trkpt lat="45.48186" lon="4.63527">
        <ele>462.8</ele>
        <time>2014-04-19T13:24:05.903Z</time>
      </trkpt>
      <trkpt lat="45.48189" lon="4.63532">
        <ele>462.8</ele>
        <time>2014-04-19T13:24:06.897Z</time>
      </trkpt>
      <trkpt lat="45.48193" lon="4.63542">
        <ele>462.7</ele>
        <time>2014-04-19T13:24:08.881Z</time>
      </trkpt>
      <trkpt lat="45.48196" lon="4.63546">
        <ele>462.7</ele>
        <time>2014-04-19T13:24:09.895Z</time>
      </trkpt>
      <trkpt lat="45.482" lon="4.63554">
        <ele>462.7</ele>
        <time>2014-04-19T13:24:11.962Z</time>
      </trkpt>
      <trkpt lat="45.48203" lon="4.63558">
        <ele>462.7</ele>
        <time>2014-04-19T13:24:12.855Z</time>
      </trkpt>
      <trkpt lat="45.48208" lon="4.63567">
        <ele>462.7</ele>
        <time>2014-04-19T13:24:14.950Z</time>
      </trkpt>
      <trkpt lat="45.48211" lon="4.63572">
        <ele>462.7</ele>
        <time>2014-04-19T13:24:15.890Z</time>
      </trkpt>
      <trkpt lat="45.48216" lon="4.6358">
        <ele>462.7</ele>
        <time>2014-04-19T13:24:18.873Z</time>
      </trkpt>
      <trkpt lat="45.48222" lon="4.63588">
        <ele>462.7</ele>
        <time>2014-04-19T13:24:19.856Z</time>
      </trkpt>
      <trkpt lat="45.48228" lon="4.63596">
        <ele>462.7</ele>
        <time>2014-04-19T13:24:21.967Z</time>
      </trkpt>
      <trkpt lat="45.48231" lon="4.63599">
        <ele>462.7</ele>
        <time>2014-04-19T13:24:22.893Z</time>
      </trkpt>
      <trkpt lat="45.48237" lon="4.63605">
        <ele>462.7</ele>
        <time>2014-04-19T13:24:24.898Z</time>
      </trkpt>
      <trkpt lat="45.4824" lon="4.63607">
        <ele>463</ele>
        <time>2014-04-19T13:24:25.992Z</time>
      </trkpt>
      <trkpt lat="45.48244" lon="4.6361">
        <ele>463</ele>
        <time>2014-04-19T13:24:26.890Z</time>
      </trkpt>
      <trkpt lat="45.48248" lon="4.63614">
        <ele>463</ele>
        <time>2014-04-19T13:24:27.855Z</time>
      </trkpt>
      <trkpt lat="45.48252" lon="4.63617">
        <ele>462.9</ele>
        <time>2014-04-19T13:24:29.008Z</time>
      </trkpt>
      <trkpt lat="45.48256" lon="4.63621">
        <ele>462.7</ele>
        <time>2014-04-19T13:24:29.899Z</time>
      </trkpt>
      <trkpt lat="45.48263" lon="4.63628">
        <ele>462.3</ele>
        <time>2014-04-19T13:24:31.990Z</time>
      </trkpt>
      <trkpt lat="45.48266" lon="4.63633">
        <ele>462.2</ele>
        <time>2014-04-19T13:24:32.892Z</time>
      </trkpt>
      <trkpt lat="45.4827" lon="4.63643">
        <ele>462.4</ele>
        <time>2014-04-19T13:24:34.978Z</time>
      </trkpt>
      <trkpt lat="45.48271" lon="4.63649">
        <ele>462.5</ele>
        <time>2014-04-19T13:24:35.881Z</time>
      </trkpt>
      <trkpt lat="45.48273" lon="4.63661">
        <ele>463</ele>
        <time>2014-04-19T13:24:37.980Z</time>
      </trkpt>
      <trkpt lat="45.48274" lon="4.63667">
        <ele>463.4</ele>
        <time>2014-04-19T13:24:38.885Z</time>
      </trkpt>
      <trkpt lat="45.48275" lon="4.63673">
        <ele>463.7</ele>
        <time>2014-04-19T13:24:39.932Z</time>
      </trkpt>
      <trkpt lat="45.48276" lon="4.63681">
        <ele>463.8</ele>
        <time>2014-04-19T13:24:40.856Z</time>
      </trkpt>
      <trkpt lat="45.48277" lon="4.63688">
        <ele>463.9</ele>
        <time>2014-04-19T13:24:41.883Z</time>
      </trkpt>
      <trkpt lat="45.48278" lon="4.63695">
        <ele>464.1</ele>
        <time>2014-04-19T13:24:42.866Z</time>
      </trkpt>
      <trkpt lat="45.48279" lon="4.63702">
        <ele>464.3</ele>
        <time>2014-04-19T13:24:44.145Z</time>
      </trkpt>
      <trkpt lat="45.4828" lon="4.6371">
        <ele>464.3</ele>
        <time>2014-04-19T13:24:44.880Z</time>
      </trkpt>
      <trkpt lat="45.4828" lon="4.63717">
        <ele>464.2</ele>
        <time>2014-04-19T13:24:45.922Z</time>
      </trkpt>
      <trkpt lat="45.4828" lon="4.63724">
        <ele>463.9</ele>
        <time>2014-04-19T13:24:46.849Z</time>
      </trkpt>
      <trkpt lat="45.48281" lon="4.63731">
        <ele>463.5</ele>
        <time>2014-04-19T13:24:47.881Z</time>
      </trkpt>
      <trkpt lat="45.48281" lon="4.63738">
        <ele>463.3</ele>
        <time>2014-04-19T13:24:48.840Z</time>
      </trkpt>
      <trkpt lat="45.48281" lon="4.63745">
        <ele>463.1</ele>
        <time>2014-04-19T13:24:49.868Z</time>
      </trkpt>
      <trkpt lat="45.48281" lon="4.63752">
        <ele>463.1</ele>
        <time>2014-04-19T13:24:50.873Z</time>
      </trkpt>
      <trkpt lat="45.48281" lon="4.6376">
        <ele>462.9</ele>
        <time>2014-04-19T13:24:51.873Z</time>
      </trkpt>
      <trkpt lat="45.48282" lon="4.63769">
        <ele>462.6</ele>
        <time>2014-04-19T13:24:52.857Z</time>
      </trkpt>
      <trkpt lat="45.48283" lon="4.63778">
        <ele>462.3</ele>
        <time>2014-04-19T13:24:53.867Z</time>
      </trkpt>
      <trkpt lat="45.48283" lon="4.63785">
        <ele>462.1</ele>
        <time>2014-04-19T13:24:54.885Z</time>
      </trkpt>
      <trkpt lat="45.48284" lon="4.63792">
        <ele>461.8</ele>
        <time>2014-04-19T13:24:55.942Z</time>
      </trkpt>
      <trkpt lat="45.48286" lon="4.63799">
        <ele>461.8</ele>
        <time>2014-04-19T13:24:56.857Z</time>
      </trkpt>
      <trkpt lat="45.48288" lon="4.63805">
        <ele>461.9</ele>
        <time>2014-04-19T13:24:58.683Z</time>
      </trkpt>
      <trkpt lat="45.4829" lon="4.63811">
        <ele>462.3</ele>
        <time>2014-04-19T13:24:58.842Z</time>
      </trkpt>
      <trkpt lat="45.48293" lon="4.63818">
        <ele>462.7</ele>
        <time>2014-04-19T13:24:59.969Z</time>
      </trkpt>
      <trkpt lat="45.48296" lon="4.63825">
        <ele>462.7</ele>
        <time>2014-04-19T13:25:00.837Z</time>
      </trkpt>
      <trkpt lat="45.48299" lon="4.63832">
        <ele>462.6</ele>
        <time>2014-04-19T13:25:01.980Z</time>
      </trkpt>
      <trkpt lat="45.483" lon="4.6384">
        <ele>462.7</ele>
        <time>2014-04-19T13:25:02.875Z</time>
      </trkpt>
      <trkpt lat="45.48301" lon="4.63847">
        <ele>462.5</ele>
        <time>2014-04-19T13:25:03.921Z</time>
      </trkpt>
      <trkpt lat="45.483" lon="4.63855">
        <ele>462.2</ele>
        <time>2014-04-19T13:25:04.872Z</time>
      </trkpt>
      <trkpt lat="45.48299" lon="4.63862">
        <ele>462</ele>
        <time>2014-04-19T13:25:05.908Z</time>
      </trkpt>
      <trkpt lat="45.48296" lon="4.63867">
        <ele>461.9</ele>
        <time>2014-04-19T13:25:06.849Z</time>
      </trkpt>
      <trkpt lat="45.48291" lon="4.63871">
        <ele>461.7</ele>
        <time>2014-04-19T13:25:08.762Z</time>
      </trkpt>
      <trkpt lat="45.48286" lon="4.63873">
        <ele>461.4</ele>
        <time>2014-04-19T13:25:08.908Z</time>
      </trkpt>
      <trkpt lat="45.48281" lon="4.63874">
        <ele>461.3</ele>
        <time>2014-04-19T13:25:09.918Z</time>
      </trkpt>
      <trkpt lat="45.48277" lon="4.63875">
        <ele>461.4</ele>
        <time>2014-04-19T13:25:10.893Z</time>
      </trkpt>
      <trkpt lat="45.48272" lon="4.63875">
        <ele>461.6</ele>
        <time>2014-04-19T13:25:11.873Z</time>
      </trkpt>
      <trkpt lat="45.48267" lon="4.63875">
        <ele>461.9</ele>
        <time>2014-04-19T13:25:12.895Z</time>
      </trkpt>
      <trkpt lat="45.48262" lon="4.63874">
        <ele>462.1</ele>
        <time>2014-04-19T13:25:14.297Z</time>
      </trkpt>
      <trkpt lat="45.48257" lon="4.63874">
        <ele>462.4</ele>
        <time>2014-04-19T13:25:14.840Z</time>
      </trkpt>
      <trkpt lat="45.48248" lon="4.63874">
        <ele>462.9</ele>
        <time>2014-04-19T13:25:16.897Z</time>
      </trkpt>
      <trkpt lat="45.48243" lon="4.63875">
        <ele>463.1</ele>
        <time>2014-04-19T13:25:17.889Z</time>
      </trkpt>
      <trkpt lat="45.48243" lon="4.63875">
        <ele>463.1</ele>
        <time>2014-04-19T13:25:18.971Z</time>
      </trkpt>
      <trkpt lat="45.48234" lon="4.63881">
        <ele>463.4</ele>
        <time>2014-04-19T13:25:19.882Z</time>
      </trkpt>
      <trkpt lat="45.4823" lon="4.63885">
        <ele>463.6</ele>
        <time>2014-04-19T13:25:21.223Z</time>
      </trkpt>
      <trkpt lat="45.48227" lon="4.63889">
        <ele>464</ele>
        <time>2014-04-19T13:25:21.892Z</time>
      </trkpt>
      <trkpt lat="45.48223" lon="4.63893">
        <ele>464.3</ele>
        <time>2014-04-19T13:25:22.868Z</time>
      </trkpt>
      <trkpt lat="45.4822" lon="4.63897">
        <ele>464.5</ele>
        <time>2014-04-19T13:25:23.857Z</time>
      </trkpt>
      <trkpt lat="45.48216" lon="4.63902">
        <ele>464.8</ele>
        <time>2014-04-19T13:25:24.884Z</time>
      </trkpt>
      <trkpt lat="45.48213" lon="4.63907">
        <ele>465.2</ele>
        <time>2014-04-19T13:25:25.889Z</time>
      </trkpt>
      <trkpt lat="45.4821" lon="4.63912">
        <ele>465.5</ele>
        <time>2014-04-19T13:25:26.926Z</time>
      </trkpt>
      <trkpt lat="45.48206" lon="4.63917">
        <ele>465.7</ele>
        <time>2014-04-19T13:25:27.876Z</time>
      </trkpt>
      <trkpt lat="45.48201" lon="4.63927">
        <ele>466.4</ele>
        <time>2014-04-19T13:25:29.938Z</time>
      </trkpt>
      <trkpt lat="45.48198" lon="4.63933">
        <ele>466.7</ele>
        <time>2014-04-19T13:25:30.889Z</time>
      </trkpt>
      <trkpt lat="45.48196" lon="4.63939">
        <ele>466.9</ele>
        <time>2014-04-19T13:25:32.021Z</time>
      </trkpt>
      <trkpt lat="45.48195" lon="4.63945">
        <ele>467.1</ele>
        <time>2014-04-19T13:25:32.851Z</time>
      </trkpt>
      <trkpt lat="45.48195" lon="4.63952">
        <ele>467.3</ele>
        <time>2014-04-19T13:25:34.015Z</time>
      </trkpt>
      <trkpt lat="45.48196" lon="4.63959">
        <ele>467.3</ele>
        <time>2014-04-19T13:25:34.881Z</time>
      </trkpt>
      <trkpt lat="45.48197" lon="4.63966">
        <ele>467.2</ele>
        <time>2014-04-19T13:25:36.184Z</time>
      </trkpt>
      <trkpt lat="45.48197" lon="4.63973">
        <ele>466.9</ele>
        <time>2014-04-19T13:25:36.901Z</time>
      </trkpt>
      <trkpt lat="45.48198" lon="4.6398">
        <ele>466.7</ele>
        <time>2014-04-19T13:25:37.955Z</time>
      </trkpt>
      <trkpt lat="45.48197" lon="4.63986">
        <ele>466.5</ele>
        <time>2014-04-19T13:25:38.875Z</time>
      </trkpt>
      <trkpt lat="45.48197" lon="4.63993">
        <ele>466.1</ele>
        <time>2014-04-19T13:25:39.889Z</time>
      </trkpt>
      <trkpt lat="45.48195" lon="4.64">
        <ele>465.7</ele>
        <time>2014-04-19T13:25:40.883Z</time>
      </trkpt>
      <trkpt lat="45.48192" lon="4.6401">
        <ele>465.3</ele>
        <time>2014-04-19T13:25:42.912Z</time>
      </trkpt>
      <trkpt lat="45.48189" lon="4.64015">
        <ele>465</ele>
        <time>2014-04-19T13:25:43.848Z</time>
      </trkpt>
      <trkpt lat="45.48184" lon="4.64022">
        <ele>464.7</ele>
        <time>2014-04-19T13:25:45.907Z</time>
      </trkpt>
      <trkpt lat="45.48181" lon="4.64025">
        <ele>464.7</ele>
        <time>2014-04-19T13:25:46.901Z</time>
      </trkpt>
      <trkpt lat="45.48175" lon="4.64031">
        <ele>464.8</ele>
        <time>2014-04-19T13:25:49.125Z</time>
      </trkpt>
      <trkpt lat="45.48171" lon="4.64033">
        <ele>465.1</ele>
        <time>2014-04-19T13:25:49.875Z</time>
      </trkpt>
      <trkpt lat="45.48164" lon="4.64039">
        <ele>465.9</ele>
        <time>2014-04-19T13:25:51.981Z</time>
      </trkpt>
      <trkpt lat="45.4816" lon="4.64042">
        <ele>466.2</ele>
        <time>2014-04-19T13:25:52.900Z</time>
      </trkpt>
      <trkpt lat="45.48156" lon="4.64045">
        <ele>466.6</ele>
        <time>2014-04-19T13:25:53.902Z</time>
      </trkpt>
      <trkpt lat="45.48152" lon="4.64048">
        <ele>466.9</ele>
        <time>2014-04-19T13:25:54.891Z</time>
      </trkpt>
      <trkpt lat="45.48144" lon="4.64053">
        <ele>467.4</ele>
        <time>2014-04-19T13:25:56.875Z</time>
      </trkpt>
      <trkpt lat="45.48139" lon="4.64056">
        <ele>467.5</ele>
        <time>2014-04-19T13:25:57.874Z</time>
      </trkpt>
      <trkpt lat="45.48131" lon="4.6406">
        <ele>467.7</ele>
        <time>2014-04-19T13:25:59.943Z</time>
      </trkpt>
      <trkpt lat="45.48127" lon="4.64062">
        <ele>467.5</ele>
        <time>2014-04-19T13:26:00.880Z</time>
      </trkpt>
      <trkpt lat="45.48118" lon="4.64065">
        <ele>467.1</ele>
        <time>2014-04-19T13:26:03.747Z</time>
      </trkpt>
      <trkpt lat="45.48114" lon="4.64066">
        <ele>467.1</ele>
        <time>2014-04-19T13:26:03.889Z</time>
      </trkpt>
      <trkpt lat="45.48105" lon="4.64069">
        <ele>467.4</ele>
        <time>2014-04-19T13:26:05.966Z</time>
      </trkpt>
      <trkpt lat="45.48101" lon="4.6407">
        <ele>467.9</ele>
        <time>2014-04-19T13:26:06.911Z</time>
      </trkpt>
      <trkpt lat="45.48092" lon="4.64072">
        <ele>468</ele>
        <time>2014-04-19T13:26:08.970Z</time>
      </trkpt>
      <trkpt lat="45.48088" lon="4.64073">
        <ele>468</ele>
        <time>2014-04-19T13:26:09.877Z</time>
      </trkpt>
      <trkpt lat="45.4808" lon="4.64076">
        <ele>467.6</ele>
        <time>2014-04-19T13:26:11.895Z</time>
      </trkpt>
      <trkpt lat="45.48075" lon="4.64077">
        <ele>467.3</ele>
        <time>2014-04-19T13:26:12.836Z</time>
      </trkpt>
      <trkpt lat="45.4807" lon="4.64077">
        <ele>467</ele>
        <time>2014-04-19T13:26:13.965Z</time>
      </trkpt>
      <trkpt lat="45.48066" lon="4.64077">
        <ele>466.8</ele>
        <time>2014-04-19T13:26:14.883Z</time>
      </trkpt>
      <trkpt lat="45.48057" lon="4.64077">
        <ele>466.8</ele>
        <time>2014-04-19T13:26:16.905Z</time>
      </trkpt>
      <trkpt lat="45.48053" lon="4.64077">
        <ele>467.1</ele>
        <time>2014-04-19T13:26:17.876Z</time>
      </trkpt>
      <trkpt lat="45.48048" lon="4.64077">
        <ele>467.4</ele>
        <time>2014-04-19T13:26:18.953Z</time>
      </trkpt>
      <trkpt lat="45.48044" lon="4.64078">
        <ele>467.5</ele>
        <time>2014-04-19T13:26:19.825Z</time>
      </trkpt>
      <trkpt lat="45.48039" lon="4.64079">
        <ele>467.5</ele>
        <time>2014-04-19T13:26:20.943Z</time>
      </trkpt>
      <trkpt lat="45.48034" lon="4.64081">
        <ele>467.1</ele>
        <time>2014-04-19T13:26:21.871Z</time>
      </trkpt>
      <trkpt lat="45.48029" lon="4.64084">
        <ele>466.9</ele>
        <time>2014-04-19T13:26:22.998Z</time>
      </trkpt>
      <trkpt lat="45.48025" lon="4.64087">
        <ele>466.8</ele>
        <time>2014-04-19T13:26:23.898Z</time>
      </trkpt>
      <trkpt lat="45.48022" lon="4.64091">
        <ele>466.8</ele>
        <time>2014-04-19T13:26:24.946Z</time>
      </trkpt>
      <trkpt lat="45.48019" lon="4.64096">
        <ele>466.8</ele>
        <time>2014-04-19T13:26:25.892Z</time>
      </trkpt>
      <trkpt lat="45.48016" lon="4.64102">
        <ele>466.8</ele>
        <time>2014-04-19T13:26:27.242Z</time>
      </trkpt>
      <trkpt lat="45.48013" lon="4.64108">
        <ele>467</ele>
        <time>2014-04-19T13:26:27.881Z</time>
      </trkpt>
      <trkpt lat="45.4801" lon="4.64119">
        <ele>467.5</ele>
        <time>2014-04-19T13:26:29.970Z</time>
      </trkpt>
      <trkpt lat="45.48008" lon="4.64125">
        <ele>467.9</ele>
        <time>2014-04-19T13:26:30.876Z</time>
      </trkpt>
      <trkpt lat="45.48007" lon="4.64133">
        <ele>468</ele>
        <time>2014-04-19T13:26:31.956Z</time>
      </trkpt>
      <trkpt lat="45.48006" lon="4.6414">
        <ele>468</ele>
        <time>2014-04-19T13:26:32.906Z</time>
      </trkpt>
      <trkpt lat="45.48006" lon="4.64146">
        <ele>468.1</ele>
        <time>2014-04-19T13:26:34.085Z</time>
      </trkpt>
      <trkpt lat="45.48006" lon="4.64153">
        <ele>468.2</ele>
        <time>2014-04-19T13:26:34.903Z</time>
      </trkpt>
      <trkpt lat="45.48006" lon="4.64165">
        <ele>468.6</ele>
        <time>2014-04-19T13:26:36.965Z</time>
      </trkpt>
      <trkpt lat="45.48006" lon="4.6417">
        <ele>469</ele>
        <time>2014-04-19T13:26:37.858Z</time>
      </trkpt>
      <trkpt lat="45.48006" lon="4.64176">
        <ele>469.1</ele>
        <time>2014-04-19T13:26:39.013Z</time>
      </trkpt>
      <trkpt lat="45.48006" lon="4.64183">
        <ele>469.6</ele>
        <time>2014-04-19T13:26:39.903Z</time>
      </trkpt>
      <trkpt lat="45.48005" lon="4.6419">
        <ele>469.9</ele>
        <time>2014-04-19T13:26:40.917Z</time>
      </trkpt>
      <trkpt lat="45.48005" lon="4.64197">
        <ele>470.1</ele>
        <time>2014-04-19T13:26:41.873Z</time>
      </trkpt>
      <trkpt lat="45.48004" lon="4.64208">
        <ele>470.2</ele>
        <time>2014-04-19T13:26:44.025Z</time>
      </trkpt>
      <trkpt lat="45.48003" lon="4.64214">
        <ele>470.4</ele>
        <time>2014-04-19T13:26:44.913Z</time>
      </trkpt>
      <trkpt lat="45.48003" lon="4.64221">
        <ele>471</ele>
        <time>2014-04-19T13:26:45.903Z</time>
      </trkpt>
      <trkpt lat="45.48002" lon="4.64228">
        <ele>471</ele>
        <time>2014-04-19T13:26:46.911Z</time>
      </trkpt>
      <trkpt lat="45.48002" lon="4.64235">
        <ele>471.1</ele>
        <time>2014-04-19T13:26:47.923Z</time>
      </trkpt>
      <trkpt lat="45.48002" lon="4.64241">
        <ele>471.3</ele>
        <time>2014-04-19T13:26:48.917Z</time>
      </trkpt>
      <trkpt lat="45.48003" lon="4.64249">
        <ele>471.6</ele>
        <time>2014-04-19T13:26:49.868Z</time>
      </trkpt>
      <trkpt lat="45.48004" lon="4.64257">
        <ele>471.4</ele>
        <time>2014-04-19T13:26:50.874Z</time>
      </trkpt>
      <trkpt lat="45.48006" lon="4.64263">
        <ele>471.3</ele>
        <time>2014-04-19T13:26:51.968Z</time>
      </trkpt>
      <trkpt lat="45.48008" lon="4.64269">
        <ele>471.4</ele>
        <time>2014-04-19T13:26:52.901Z</time>
      </trkpt>
      <trkpt lat="45.4801" lon="4.64275">
        <ele>471.3</ele>
        <time>2014-04-19T13:26:53.906Z</time>
      </trkpt>
      <trkpt lat="45.48013" lon="4.64281">
        <ele>471.1</ele>
        <time>2014-04-19T13:26:54.948Z</time>
      </trkpt>
      <trkpt lat="45.48015" lon="4.64286">
        <ele>471.2</ele>
        <time>2014-04-19T13:26:55.915Z</time>
      </trkpt>
      <trkpt lat="45.48018" lon="4.64291">
        <ele>471.1</ele>
        <time>2014-04-19T13:26:56.894Z</time>
      </trkpt>
      <trkpt lat="45.48021" lon="4.64296">
        <ele>471.1</ele>
        <time>2014-04-19T13:26:58.776Z</time>
      </trkpt>
      <trkpt lat="45.48024" lon="4.64301">
        <ele>471.1</ele>
        <time>2014-04-19T13:26:58.869Z</time>
      </trkpt>
      <trkpt lat="45.48028" lon="4.64306">
        <ele>471.2</ele>
        <time>2014-04-19T13:26:59.882Z</time>
      </trkpt>
      <trkpt lat="45.48031" lon="4.64311">
        <ele>471.4</ele>
        <time>2014-04-19T13:27:00.882Z</time>
      </trkpt>
      <trkpt lat="45.48035" lon="4.64316">
        <ele>471.4</ele>
        <time>2014-04-19T13:27:01.964Z</time>
      </trkpt>
      <trkpt lat="45.4804" lon="4.64321">
        <ele>471.2</ele>
        <time>2014-04-19T13:27:02.876Z</time>
      </trkpt>
      <trkpt lat="45.48045" lon="4.64325">
        <ele>470.9</ele>
        <time>2014-04-19T13:27:03.961Z</time>
      </trkpt>
      <trkpt lat="45.48049" lon="4.64329">
        <ele>470.5</ele>
        <time>2014-04-19T13:27:05.001Z</time>
      </trkpt>
      <trkpt lat="45.48054" lon="4.64333">
        <ele>469.9</ele>
        <time>2014-04-19T13:27:05.845Z</time>
      </trkpt>
      <trkpt lat="45.48057" lon="4.64338">
        <ele>469.3</ele>
        <time>2014-04-19T13:27:06.879Z</time>
      </trkpt>
      <trkpt lat="45.4806" lon="4.64343">
        <ele>468.7</ele>
        <time>2014-04-19T13:27:07.874Z</time>
      </trkpt>
      <trkpt lat="45.48063" lon="4.64348">
        <ele>468.2</ele>
        <time>2014-04-19T13:27:08.841Z</time>
      </trkpt>
      <trkpt lat="45.48066" lon="4.64353">
        <ele>467.9</ele>
        <time>2014-04-19T13:27:09.977Z</time>
      </trkpt>
      <trkpt lat="45.48068" lon="4.64359">
        <ele>467.7</ele>
        <time>2014-04-19T13:27:10.885Z</time>
      </trkpt>
      <trkpt lat="45.48071" lon="4.6437">
        <ele>467.7</ele>
        <time>2014-04-19T13:27:13.774Z</time>
      </trkpt>
      <trkpt lat="45.48073" lon="4.64376">
        <ele>468</ele>
        <time>2014-04-19T13:27:13.836Z</time>
      </trkpt>
      <trkpt lat="45.48075" lon="4.64382">
        <ele>468.3</ele>
        <time>2014-04-19T13:27:14.936Z</time>
      </trkpt>
      <trkpt lat="45.48078" lon="4.64388">
        <ele>468.3</ele>
        <time>2014-04-19T13:27:15.849Z</time>
      </trkpt>
      <trkpt lat="45.48081" lon="4.64395">
        <ele>468.2</ele>
        <time>2014-04-19T13:27:16.930Z</time>
      </trkpt>
      <trkpt lat="45.48084" lon="4.64401">
        <ele>468.2</ele>
        <time>2014-04-19T13:27:17.873Z</time>
      </trkpt>
      <trkpt lat="45.48087" lon="4.64406">
        <ele>468.1</ele>
        <time>2014-04-19T13:27:18.969Z</time>
      </trkpt>
      <trkpt lat="45.4809" lon="4.64412">
        <ele>467.9</ele>
        <time>2014-04-19T13:27:20.020Z</time>
      </trkpt>
      <trkpt lat="45.48093" lon="4.64417">
        <ele>467.6</ele>
        <time>2014-04-19T13:27:21.042Z</time>
      </trkpt>
      <trkpt lat="45.48095" lon="4.64422">
        <ele>467.5</ele>
        <time>2014-04-19T13:27:21.888Z</time>
      </trkpt>
      <trkpt lat="45.48098" lon="4.64427">
        <ele>467.5</ele>
        <time>2014-04-19T13:27:22.900Z</time>
      </trkpt>
      <trkpt lat="45.48101" lon="4.64433">
        <ele>467.3</ele>
        <time>2014-04-19T13:27:24.034Z</time>
      </trkpt>
      <trkpt lat="45.48104" lon="4.64438">
        <ele>467.5</ele>
        <time>2014-04-19T13:27:24.889Z</time>
      </trkpt>
      <trkpt lat="45.48107" lon="4.64443">
        <ele>467.8</ele>
        <time>2014-04-19T13:27:26.010Z</time>
      </trkpt>
      <trkpt lat="45.4811" lon="4.64448">
        <ele>468.2</ele>
        <time>2014-04-19T13:27:26.973Z</time>
      </trkpt>
      <trkpt lat="45.48113" lon="4.64453">
        <ele>468.8</ele>
        <time>2014-04-19T13:27:27.868Z</time>
      </trkpt>
      <trkpt lat="45.48116" lon="4.64459">
        <ele>469.3</ele>
        <time>2014-04-19T13:27:29.013Z</time>
      </trkpt>
      <trkpt lat="45.48119" lon="4.64465">
        <ele>469.5</ele>
        <time>2014-04-19T13:27:29.876Z</time>
      </trkpt>
      <trkpt lat="45.48121" lon="4.64471">
        <ele>469.5</ele>
        <time>2014-04-19T13:27:30.908Z</time>
      </trkpt>
      <trkpt lat="45.48123" lon="4.64477">
        <ele>469.6</ele>
        <time>2014-04-19T13:27:31.848Z</time>
      </trkpt>
      <trkpt lat="45.48125" lon="4.64483">
        <ele>469.5</ele>
        <time>2014-04-19T13:27:32.890Z</time>
      </trkpt>
      <trkpt lat="45.48126" lon="4.64489">
        <ele>469.3</ele>
        <time>2014-04-19T13:27:33.905Z</time>
      </trkpt>
      <trkpt lat="45.48127" lon="4.64495">
        <ele>469.1</ele>
        <time>2014-04-19T13:27:34.908Z</time>
      </trkpt>
      <trkpt lat="45.48128" lon="4.64502">
        <ele>468.8</ele>
        <time>2014-04-19T13:27:35.849Z</time>
      </trkpt>
      <trkpt lat="45.48129" lon="4.64509">
        <ele>468.3</ele>
        <time>2014-04-19T13:27:37.049Z</time>
      </trkpt>
      <trkpt lat="45.48129" lon="4.64516">
        <ele>467.8</ele>
        <time>2014-04-19T13:27:37.861Z</time>
      </trkpt>
      <trkpt lat="45.48128" lon="4.64523">
        <ele>467.4</ele>
        <time>2014-04-19T13:27:38.978Z</time>
      </trkpt>
      <trkpt lat="45.48128" lon="4.64529">
        <ele>467.1</ele>
        <time>2014-04-19T13:27:39.908Z</time>
      </trkpt>
      <trkpt lat="45.48127" lon="4.64535">
        <ele>466.9</ele>
        <time>2014-04-19T13:27:40.929Z</time>
      </trkpt>
      <trkpt lat="45.48125" lon="4.64542">
        <ele>466.9</ele>
        <time>2014-04-19T13:27:41.866Z</time>
      </trkpt>
      <trkpt lat="45.48122" lon="4.64553">
        <ele>467</ele>
        <time>2014-04-19T13:27:43.981Z</time>
      </trkpt>
      <trkpt lat="45.4812" lon="4.64559">
        <ele>467.3</ele>
        <time>2014-04-19T13:27:44.883Z</time>
      </trkpt>
      <trkpt lat="45.48117" lon="4.64564">
        <ele>467.7</ele>
        <time>2014-04-19T13:27:46.245Z</time>
      </trkpt>
      <trkpt lat="45.48114" lon="4.64569">
        <ele>468.2</ele>
        <time>2014-04-19T13:27:46.879Z</time>
      </trkpt>
      <trkpt lat="45.4811" lon="4.64573">
        <ele>468.7</ele>
        <time>2014-04-19T13:27:47.910Z</time>
      </trkpt>
      <trkpt lat="45.48106" lon="4.64577">
        <ele>469.2</ele>
        <time>2014-04-19T13:27:48.981Z</time>
      </trkpt>
      <trkpt lat="45.48102" lon="4.64581">
        <ele>469.4</ele>
        <time>2014-04-19T13:27:49.879Z</time>
      </trkpt>
      <trkpt lat="45.48097" lon="4.64585">
        <ele>469.7</ele>
        <time>2014-04-19T13:27:50.880Z</time>
      </trkpt>
      <trkpt lat="45.48093" lon="4.64589">
        <ele>469.9</ele>
        <time>2014-04-19T13:27:51.983Z</time>
      </trkpt>
      <trkpt lat="45.48088" lon="4.64593">
        <ele>470.1</ele>
        <time>2014-04-19T13:27:52.883Z</time>
      </trkpt>
      <trkpt lat="45.48083" lon="4.64597">
        <ele>470.3</ele>
        <time>2014-04-19T13:27:53.898Z</time>
      </trkpt>
      <trkpt lat="45.48079" lon="4.64601">
        <ele>470.4</ele>
        <time>2014-04-19T13:27:54.843Z</time>
      </trkpt>
      <trkpt lat="45.48075" lon="4.64604">
        <ele>470.7</ele>
        <time>2014-04-19T13:27:55.967Z</time>
      </trkpt>
      <trkpt lat="45.48071" lon="4.64607">
        <ele>471</ele>
        <time>2014-04-19T13:27:56.870Z</time>
      </trkpt>
      <trkpt lat="45.48067" lon="4.64611">
        <ele>471.2</ele>
        <time>2014-04-19T13:27:57.867Z</time>
      </trkpt>
      <trkpt lat="45.48063" lon="4.64614">
        <ele>471.5</ele>
        <time>2014-04-19T13:27:58.835Z</time>
      </trkpt>
      <trkpt lat="45.48059" lon="4.64618">
        <ele>471.6</ele>
        <time>2014-04-19T13:27:59.879Z</time>
      </trkpt>
      <trkpt lat="45.48054" lon="4.64621">
        <ele>471.9</ele>
        <time>2014-04-19T13:28:00.840Z</time>
      </trkpt>
      <trkpt lat="45.4805" lon="4.64625">
        <ele>472.1</ele>
        <time>2014-04-19T13:28:02.266Z</time>
      </trkpt>
      <trkpt lat="45.48046" lon="4.64629">
        <ele>472.2</ele>
        <time>2014-04-19T13:28:02.875Z</time>
      </trkpt>
      <trkpt lat="45.48042" lon="4.64633">
        <ele>472.4</ele>
        <time>2014-04-19T13:28:03.867Z</time>
      </trkpt>
      <trkpt lat="45.48038" lon="4.64637">
        <ele>472.6</ele>
        <time>2014-04-19T13:28:04.846Z</time>
      </trkpt>
      <trkpt lat="45.48034" lon="4.64643">
        <ele>472.6</ele>
        <time>2014-04-19T13:28:05.994Z</time>
      </trkpt>
      <trkpt lat="45.4803" lon="4.64649">
        <ele>472.7</ele>
        <time>2014-04-19T13:28:06.871Z</time>
      </trkpt>
      <trkpt lat="45.48027" lon="4.64654">
        <ele>472.8</ele>
        <time>2014-04-19T13:28:07.919Z</time>
      </trkpt>
      <trkpt lat="45.48024" lon="4.64661">
        <ele>472.8</ele>
        <time>2014-04-19T13:28:08.849Z</time>
      </trkpt>
      <trkpt lat="45.48022" lon="4.64668">
        <ele>472.7</ele>
        <time>2014-04-19T13:28:09.936Z</time>
      </trkpt>
      <trkpt lat="45.4802" lon="4.64676">
        <ele>472.5</ele>
        <time>2014-04-19T13:28:10.878Z</time>
      </trkpt>
      <trkpt lat="45.48018" lon="4.64683">
        <ele>472.4</ele>
        <time>2014-04-19T13:28:12.107Z</time>
      </trkpt>
      <trkpt lat="45.48016" lon="4.64691">
        <ele>472.4</ele>
        <time>2014-04-19T13:28:12.878Z</time>
      </trkpt>
      <trkpt lat="45.48014" lon="4.64699">
        <ele>472.4</ele>
        <time>2014-04-19T13:28:13.912Z</time>
      </trkpt>
      <trkpt lat="45.48013" lon="4.64706">
        <ele>472.5</ele>
        <time>2014-04-19T13:28:14.882Z</time>
      </trkpt>
      <trkpt lat="45.48011" lon="4.64713">
        <ele>472.6</ele>
        <time>2014-04-19T13:28:15.948Z</time>
      </trkpt>
      <trkpt lat="45.4801" lon="4.6472">
        <ele>472.6</ele>
        <time>2014-04-19T13:28:16.838Z</time>
      </trkpt>
      <trkpt lat="45.48009" lon="4.64727">
        <ele>472.6</ele>
        <time>2014-04-19T13:28:17.922Z</time>
      </trkpt>
      <trkpt lat="45.48007" lon="4.64733">
        <ele>472.7</ele>
        <time>2014-04-19T13:28:18.965Z</time>
      </trkpt>
      <trkpt lat="45.48005" lon="4.64739">
        <ele>472.7</ele>
        <time>2014-04-19T13:28:19.915Z</time>
      </trkpt>
      <trkpt lat="45.48002" lon="4.64745">
        <ele>472.6</ele>
        <time>2014-04-19T13:28:20.888Z</time>
      </trkpt>
      <trkpt lat="45.47999" lon="4.6475">
        <ele>472.6</ele>
        <time>2014-04-19T13:28:21.995Z</time>
      </trkpt>
      <trkpt lat="45.47996" lon="4.64754">
        <ele>472.7</ele>
        <time>2014-04-19T13:28:22.844Z</time>
      </trkpt>
      <trkpt lat="45.47991" lon="4.64757">
        <ele>472.7</ele>
        <time>2014-04-19T13:28:24.089Z</time>
      </trkpt>
      <trkpt lat="45.47986" lon="4.6476">
        <ele>472.7</ele>
        <time>2014-04-19T13:28:24.898Z</time>
      </trkpt>
      <trkpt lat="45.47982" lon="4.64761">
        <ele>473</ele>
        <time>2014-04-19T13:28:25.930Z</time>
      </trkpt>
      <trkpt lat="45.47977" lon="4.64761">
        <ele>473.2</ele>
        <time>2014-04-19T13:28:26.911Z</time>
      </trkpt>
      <trkpt lat="45.47969" lon="4.64758">
        <ele>473.9</ele>
        <time>2014-04-19T13:28:28.918Z</time>
      </trkpt>
      <trkpt lat="45.47964" lon="4.64754">
        <ele>473.7</ele>
        <time>2014-04-19T13:28:29.874Z</time>
      </trkpt>
      <trkpt lat="45.47958" lon="4.64749">
        <ele>473.4</ele>
        <time>2014-04-19T13:28:31.992Z</time>
      </trkpt>
      <trkpt lat="45.47955" lon="4.64745">
        <ele>473</ele>
        <time>2014-04-19T13:28:32.914Z</time>
      </trkpt>
      <trkpt lat="45.4795" lon="4.64738">
        <ele>472</ele>
        <time>2014-04-19T13:28:34.904Z</time>
      </trkpt>
      <trkpt lat="45.47947" lon="4.64734">
        <ele>472</ele>
        <time>2014-04-19T13:28:35.873Z</time>
      </trkpt>
      <trkpt lat="45.47942" lon="4.64725">
        <ele>472.7</ele>
        <time>2014-04-19T13:28:37.926Z</time>
      </trkpt>
      <trkpt lat="45.47938" lon="4.6472">
        <ele>473.2</ele>
        <time>2014-04-19T13:28:38.901Z</time>
      </trkpt>
      <trkpt lat="45.47931" lon="4.64713">
        <ele>473.4</ele>
        <time>2014-04-19T13:28:41.208Z</time>
      </trkpt>
      <trkpt lat="45.47927" lon="4.64711">
        <ele>473.4</ele>
        <time>2014-04-19T13:28:41.889Z</time>
      </trkpt>
      <trkpt lat="45.4792" lon="4.64706">
        <ele>473.4</ele>
        <time>2014-04-19T13:28:43.969Z</time>
      </trkpt>
      <trkpt lat="45.47916" lon="4.64704">
        <ele>473.5</ele>
        <time>2014-04-19T13:28:44.935Z</time>
      </trkpt>
      <trkpt lat="45.47909" lon="4.64702">
        <ele>473.5</ele>
        <time>2014-04-19T13:28:46.904Z</time>
      </trkpt>
      <trkpt lat="45.47906" lon="4.64702">
        <ele>473.6</ele>
        <time>2014-04-19T13:28:47.883Z</time>
      </trkpt>
      <trkpt lat="45.479" lon="4.64704">
        <ele>473.8</ele>
        <time>2014-04-19T13:28:49.884Z</time>
      </trkpt>
      <trkpt lat="45.47895" lon="4.64707">
        <ele>473.8</ele>
        <time>2014-04-19T13:28:50.893Z</time>
      </trkpt>
      <trkpt lat="45.47888" lon="4.64713">
        <ele>473.9</ele>
        <time>2014-04-19T13:28:52.966Z</time>
      </trkpt>
      <trkpt lat="45.47885" lon="4.64717">
        <ele>474</ele>
        <time>2014-04-19T13:28:53.845Z</time>
      </trkpt>
      <trkpt lat="45.47881" lon="4.64723">
        <ele>474</ele>
        <time>2014-04-19T13:28:55.915Z</time>
      </trkpt>
      <trkpt lat="45.47879" lon="4.64726">
        <ele>474</ele>
        <time>2014-04-19T13:28:56.855Z</time>
      </trkpt>
      <trkpt lat="45.47874" lon="4.64732">
        <ele>474.1</ele>
        <time>2014-04-19T13:28:59.143Z</time>
      </trkpt>
      <trkpt lat="45.47871" lon="4.64735">
        <ele>474.1</ele>
        <time>2014-04-19T13:28:59.873Z</time>
      </trkpt>
      <trkpt lat="45.47866" lon="4.64741">
        <ele>474.1</ele>
        <time>2014-04-19T13:29:01.965Z</time>
      </trkpt>
      <trkpt lat="45.47864" lon="4.64744">
        <ele>474.1</ele>
        <time>2014-04-19T13:29:02.885Z</time>
      </trkpt>
      <trkpt lat="45.47857" lon="4.64752">
        <ele>474.1</ele>
        <time>2014-04-19T13:29:05.940Z</time>
      </trkpt>
      <trkpt lat="45.47855" lon="4.64755">
        <ele>474.1</ele>
        <time>2014-04-19T13:29:06.852Z</time>
      </trkpt>
      <trkpt lat="45.47848" lon="4.64762">
        <ele>474.3</ele>
        <time>2014-04-19T13:29:09.940Z</time>
      </trkpt>
      <trkpt lat="45.47847" lon="4.64764">
        <ele>474.3</ele>
        <time>2014-04-19T13:29:10.865Z</time>
      </trkpt>
      <trkpt lat="45.47842" lon="4.64772">
        <ele>474.5</ele>
        <time>2014-04-19T13:29:12.910Z</time>
      </trkpt>
      <trkpt lat="45.47839" lon="4.64776">
        <ele>474.5</ele>
        <time>2014-04-19T13:29:13.891Z</time>
      </trkpt>
      <trkpt lat="45.47834" lon="4.64783">
        <ele>474.7</ele>
        <time>2014-04-19T13:29:15.882Z</time>
      </trkpt>
      <trkpt lat="45.47832" lon="4.64785">
        <ele>474.8</ele>
        <time>2014-04-19T13:29:16.856Z</time>
      </trkpt>
      <trkpt lat="45.47828" lon="4.6479">
        <ele>474.9</ele>
        <time>2014-04-19T13:29:18.957Z</time>
      </trkpt>
      <trkpt lat="45.47825" lon="4.64793">
        <ele>475</ele>
        <time>2014-04-19T13:29:19.889Z</time>
      </trkpt>
      <trkpt lat="45.4782" lon="4.64799">
        <ele>475.3</ele>
        <time>2014-04-19T13:29:21.905Z</time>
      </trkpt>
      <trkpt lat="45.47818" lon="4.64802">
        <ele>475.4</ele>
        <time>2014-04-19T13:29:22.875Z</time>
      </trkpt>
      <trkpt lat="45.47812" lon="4.64809">
        <ele>475.6</ele>
        <time>2014-04-19T13:29:24.945Z</time>
      </trkpt>
      <trkpt lat="45.4781" lon="4.64812">
        <ele>475.7</ele>
        <time>2014-04-19T13:29:25.939Z</time>
      </trkpt>
      <trkpt lat="45.47804" lon="4.64819">
        <ele>475.8</ele>
        <time>2014-04-19T13:29:27.875Z</time>
      </trkpt>
      <trkpt lat="45.47801" lon="4.64822">
        <ele>475.9</ele>
        <time>2014-04-19T13:29:28.846Z</time>
      </trkpt>
      <trkpt lat="45.47796" lon="4.6483">
        <ele>476.2</ele>
        <time>2014-04-19T13:29:31.905Z</time>
      </trkpt>
      <trkpt lat="45.47794" lon="4.64832">
        <ele>476.3</ele>
        <time>2014-04-19T13:29:32.899Z</time>
      </trkpt>
      <trkpt lat="45.47789" lon="4.64838">
        <ele>476.4</ele>
        <time>2014-04-19T13:29:34.928Z</time>
      </trkpt>
      <trkpt lat="45.47787" lon="4.64841">
        <ele>476.4</ele>
        <time>2014-04-19T13:29:35.859Z</time>
      </trkpt>
      <trkpt lat="45.47782" lon="4.64848">
        <ele>476.5</ele>
        <time>2014-04-19T13:29:38.032Z</time>
      </trkpt>
      <trkpt lat="45.47779" lon="4.64852">
        <ele>476.6</ele>
        <time>2014-04-19T13:29:38.881Z</time>
      </trkpt>
      <trkpt lat="45.47773" lon="4.64859">
        <ele>476.8</ele>
        <time>2014-04-19T13:29:40.871Z</time>
      </trkpt>
      <trkpt lat="45.47771" lon="4.64862">
        <ele>476.9</ele>
        <time>2014-04-19T13:29:41.837Z</time>
      </trkpt>
      <trkpt lat="45.47765" lon="4.6487">
        <ele>477.1</ele>
        <time>2014-04-19T13:29:43.888Z</time>
      </trkpt>
      <trkpt lat="45.47762" lon="4.64874">
        <ele>477.2</ele>
        <time>2014-04-19T13:29:44.884Z</time>
      </trkpt>
      <trkpt lat="45.47757" lon="4.64881">
        <ele>477.4</ele>
        <time>2014-04-19T13:29:46.915Z</time>
      </trkpt>
      <trkpt lat="45.47755" lon="4.64884">
        <ele>477.5</ele>
        <time>2014-04-19T13:29:47.943Z</time>
      </trkpt>
      <trkpt lat="45.47751" lon="4.64891">
        <ele>477.8</ele>
        <time>2014-04-19T13:29:49.898Z</time>
      </trkpt>
      <trkpt lat="45.47748" lon="4.64895">
        <ele>477.9</ele>
        <time>2014-04-19T13:29:50.885Z</time>
      </trkpt>
      <trkpt lat="45.47743" lon="4.64903">
        <ele>478.1</ele>
        <time>2014-04-19T13:29:53.055Z</time>
      </trkpt>
      <trkpt lat="45.47741" lon="4.64907">
        <ele>478.2</ele>
        <time>2014-04-19T13:29:53.839Z</time>
      </trkpt>
      <trkpt lat="45.47736" lon="4.64915">
        <ele>478.4</ele>
        <time>2014-04-19T13:29:55.933Z</time>
      </trkpt>
      <trkpt lat="45.47734" lon="4.64919">
        <ele>478.5</ele>
        <time>2014-04-19T13:29:56.867Z</time>
      </trkpt>
      <trkpt lat="45.4773" lon="4.64927">
        <ele>478.7</ele>
        <time>2014-04-19T13:29:58.887Z</time>
      </trkpt>
      <trkpt lat="45.47728" lon="4.64932">
        <ele>478.8</ele>
        <time>2014-04-19T13:29:59.887Z</time>
      </trkpt>
      <trkpt lat="45.47723" lon="4.6494">
        <ele>479</ele>
        <time>2014-04-19T13:30:02.143Z</time>
      </trkpt>
      <trkpt lat="45.47721" lon="4.64944">
        <ele>480.2</ele>
        <time>2014-04-19T13:30:02.878Z</time>
      </trkpt>
      <trkpt lat="45.47716" lon="4.64953">
        <ele>480.4</ele>
        <time>2014-04-19T13:30:04.918Z</time>
      </trkpt>
      <trkpt lat="45.47714" lon="4.64957">
        <ele>480.5</ele>
        <time>2014-04-19T13:30:05.881Z</time>
      </trkpt>
      <trkpt lat="45.4771" lon="4.64965">
        <ele>480.7</ele>
        <time>2014-04-19T13:30:07.970Z</time>
      </trkpt>
      <trkpt lat="45.47708" lon="4.64968">
        <ele>480.8</ele>
        <time>2014-04-19T13:30:08.867Z</time>
      </trkpt>
      <trkpt lat="45.47704" lon="4.64976">
        <ele>480.9</ele>
        <time>2014-04-19T13:30:11.066Z</time>
      </trkpt>
      <trkpt lat="45.47702" lon="4.6498">
        <ele>481</ele>
        <time>2014-04-19T13:30:11.857Z</time>
      </trkpt>
      <trkpt lat="45.47697" lon="4.64987">
        <ele>481.2</ele>
        <time>2014-04-19T13:30:14.019Z</time>
      </trkpt>
      <trkpt lat="45.47695" lon="4.6499">
        <ele>481.3</ele>
        <time>2014-04-19T13:30:15.396Z</time>
      </trkpt>
      <trkpt lat="45.47691" lon="4.64999">
        <ele>481.5</ele>
        <time>2014-04-19T13:30:17.115Z</time>
      </trkpt>
      <trkpt lat="45.47689" lon="4.65004">
        <ele>481.6</ele>
        <time>2014-04-19T13:30:18.184Z</time>
      </trkpt>
      <trkpt lat="45.47684" lon="4.65013">
        <ele>481.8</ele>
        <time>2014-04-19T13:30:20.364Z</time>
      </trkpt>
      <trkpt lat="45.47683" lon="4.65016">
        <ele>481.9</ele>
        <time>2014-04-19T13:30:20.925Z</time>
      </trkpt>
      <trkpt lat="45.47679" lon="4.65023">
        <ele>482.1</ele>
        <time>2014-04-19T13:30:22.941Z</time>
      </trkpt>
      <trkpt lat="45.47677" lon="4.65027">
        <ele>482.2</ele>
        <time>2014-04-19T13:30:24.050Z</time>
      </trkpt>
      <trkpt lat="45.47673" lon="4.65034">
        <ele>482.4</ele>
        <time>2014-04-19T13:30:26.233Z</time>
      </trkpt>
      <trkpt lat="45.47671" lon="4.65037">
        <ele>482.5</ele>
        <time>2014-04-19T13:30:26.838Z</time>
      </trkpt>
      <trkpt lat="45.47667" lon="4.65045">
        <ele>482.7</ele>
        <time>2014-04-19T13:30:28.931Z</time>
      </trkpt>
      <trkpt lat="45.47665" lon="4.65049">
        <ele>482.9</ele>
        <time>2014-04-19T13:30:29.902Z</time>
      </trkpt>
      <trkpt lat="45.47662" lon="4.65057">
        <ele>483.1</ele>
        <time>2014-04-19T13:30:32.070Z</time>
      </trkpt>
      <trkpt lat="45.47661" lon="4.65061">
        <ele>483.2</ele>
        <time>2014-04-19T13:30:32.844Z</time>
      </trkpt>
      <trkpt lat="45.47659" lon="4.6507">
        <ele>483.5</ele>
        <time>2014-04-19T13:30:34.873Z</time>
      </trkpt>
      <trkpt lat="45.47658" lon="4.65074">
        <ele>483.6</ele>
        <time>2014-04-19T13:30:35.903Z</time>
      </trkpt>
      <trkpt lat="45.47657" lon="4.65083">
        <ele>484</ele>
        <time>2014-04-19T13:30:38.008Z</time>
      </trkpt>
      <trkpt lat="45.47656" lon="4.65087">
        <ele>484.1</ele>
        <time>2014-04-19T13:30:38.930Z</time>
      </trkpt>
      <trkpt lat="45.47655" lon="4.65097">
        <ele>484.4</ele>
        <time>2014-04-19T13:30:41.267Z</time>
      </trkpt>
      <trkpt lat="45.47654" lon="4.65102">
        <ele>484.6</ele>
        <time>2014-04-19T13:30:41.829Z</time>
      </trkpt>
      <trkpt lat="45.47651" lon="4.65111">
        <ele>484.9</ele>
        <time>2014-04-19T13:30:43.900Z</time>
      </trkpt>
      <trkpt lat="45.4765" lon="4.65115">
        <ele>485.1</ele>
        <time>2014-04-19T13:30:44.934Z</time>
      </trkpt>
      <trkpt lat="45.47648" lon="4.65123">
        <ele>485.5</ele>
        <time>2014-04-19T13:30:46.935Z</time>
      </trkpt>
      <trkpt lat="45.47646" lon="4.65128">
        <ele>485.7</ele>
        <time>2014-04-19T13:30:47.888Z</time>
      </trkpt>
      <trkpt lat="45.47644" lon="4.65137">
        <ele>486.1</ele>
        <time>2014-04-19T13:30:49.971Z</time>
      </trkpt>
      <trkpt lat="45.47642" lon="4.65142">
        <ele>486.2</ele>
        <time>2014-04-19T13:30:50.874Z</time>
      </trkpt>
      <trkpt lat="45.47639" lon="4.65151">
        <ele>486.6</ele>
        <time>2014-04-19T13:30:53.632Z</time>
      </trkpt>
      <trkpt lat="45.47638" lon="4.65155">
        <ele>486.8</ele>
        <time>2014-04-19T13:30:53.841Z</time>
      </trkpt>
      <trkpt lat="45.47635" lon="4.65163">
        <ele>487.1</ele>
        <time>2014-04-19T13:30:55.945Z</time>
      </trkpt>
      <trkpt lat="45.47633" lon="4.65168">
        <ele>487.3</ele>
        <time>2014-04-19T13:30:56.862Z</time>
      </trkpt>
      <trkpt lat="45.47629" lon="4.65179">
        <ele>487.5</ele>
        <time>2014-04-19T13:30:58.823Z</time>
      </trkpt>
      <trkpt lat="45.47628" lon="4.65183">
        <ele>487.6</ele>
        <time>2014-04-19T13:30:59.865Z</time>
      </trkpt>
      <trkpt lat="45.47624" lon="4.65193">
        <ele>487.9</ele>
        <time>2014-04-19T13:31:03.811Z</time>
      </trkpt>
      <trkpt lat="45.47622" lon="4.65198">
        <ele>488.1</ele>
        <time>2014-04-19T13:31:03.945Z</time>
      </trkpt>
      <trkpt lat="45.47619" lon="4.65206">
        <ele>488.5</ele>
        <time>2014-04-19T13:31:05.924Z</time>
      </trkpt>
      <trkpt lat="45.47617" lon="4.6521">
        <ele>488.7</ele>
        <time>2014-04-19T13:31:06.861Z</time>
      </trkpt>
      <trkpt lat="45.47614" lon="4.65219">
        <ele>489.2</ele>
        <time>2014-04-19T13:31:09.266Z</time>
      </trkpt>
      <trkpt lat="45.47612" lon="4.65225">
        <ele>489.4</ele>
        <time>2014-04-19T13:31:09.852Z</time>
      </trkpt>
      <trkpt lat="45.47609" lon="4.65234">
        <ele>489.7</ele>
        <time>2014-04-19T13:31:11.889Z</time>
      </trkpt>
      <trkpt lat="45.47608" lon="4.65239">
        <ele>489.9</ele>
        <time>2014-04-19T13:31:12.848Z</time>
      </trkpt>
      <trkpt lat="45.47605" lon="4.65248">
        <ele>490.3</ele>
        <time>2014-04-19T13:31:14.979Z</time>
      </trkpt>
      <trkpt lat="45.47604" lon="4.65252">
        <ele>490.4</ele>
        <time>2014-04-19T13:31:15.887Z</time>
      </trkpt>
      <trkpt lat="45.47602" lon="4.65261">
        <ele>490.7</ele>
        <time>2014-04-19T13:31:18.022Z</time>
      </trkpt>
      <trkpt lat="45.476" lon="4.65266">
        <ele>490.8</ele>
        <time>2014-04-19T13:31:18.879Z</time>
      </trkpt>
      <trkpt lat="45.47598" lon="4.65275">
        <ele>491.1</ele>
        <time>2014-04-19T13:31:20.952Z</time>
      </trkpt>
      <trkpt lat="45.47597" lon="4.65279">
        <ele>491.2</ele>
        <time>2014-04-19T13:31:21.890Z</time>
      </trkpt>
      <trkpt lat="45.47594" lon="4.65288">
        <ele>491.5</ele>
        <time>2014-04-19T13:31:23.977Z</time>
      </trkpt>
      <trkpt lat="45.47593" lon="4.65293">
        <ele>491.6</ele>
        <time>2014-04-19T13:31:24.886Z</time>
      </trkpt>
      <trkpt lat="45.47591" lon="4.65301">
        <ele>491.8</ele>
        <time>2014-04-19T13:31:26.982Z</time>
      </trkpt>
      <trkpt lat="45.4759" lon="4.65305">
        <ele>492</ele>
        <time>2014-04-19T13:31:27.866Z</time>
      </trkpt>
      <trkpt lat="45.47587" lon="4.65314">
        <ele>492.3</ele>
        <time>2014-04-19T13:31:29.967Z</time>
      </trkpt>
      <trkpt lat="45.47586" lon="4.65317">
        <ele>492.5</ele>
        <time>2014-04-19T13:31:30.895Z</time>
      </trkpt>
      <trkpt lat="45.47583" lon="4.65326">
        <ele>492.8</ele>
        <time>2014-04-19T13:31:33.004Z</time>
      </trkpt>
      <trkpt lat="45.47582" lon="4.65329">
        <ele>493</ele>
        <time>2014-04-19T13:31:33.880Z</time>
      </trkpt>
      <trkpt lat="45.47578" lon="4.65336">
        <ele>493.3</ele>
        <time>2014-04-19T13:31:35.997Z</time>
      </trkpt>
      <trkpt lat="45.47576" lon="4.65341">
        <ele>493.5</ele>
        <time>2014-04-19T13:31:36.849Z</time>
      </trkpt>
      <trkpt lat="45.47571" lon="4.65349">
        <ele>494.1</ele>
        <time>2014-04-19T13:31:40.256Z</time>
      </trkpt>
      <trkpt lat="45.47568" lon="4.65352">
        <ele>494.3</ele>
        <time>2014-04-19T13:31:40.841Z</time>
      </trkpt>
      <trkpt lat="45.47564" lon="4.65359">
        <ele>494.7</ele>
        <time>2014-04-19T13:31:42.953Z</time>
      </trkpt>
      <trkpt lat="45.47561" lon="4.65363">
        <ele>494.9</ele>
        <time>2014-04-19T13:31:43.835Z</time>
      </trkpt>
      <trkpt lat="45.47557" lon="4.6537">
        <ele>495.3</ele>
        <time>2014-04-19T13:31:45.986Z</time>
      </trkpt>
      <trkpt lat="45.47555" lon="4.65373">
        <ele>495.5</ele>
        <time>2014-04-19T13:31:46.865Z</time>
      </trkpt>
      <trkpt lat="45.47549" lon="4.65382">
        <ele>496</ele>
        <time>2014-04-19T13:31:50.189Z</time>
      </trkpt>
      <trkpt lat="45.47546" lon="4.65386">
        <ele>496.2</ele>
        <time>2014-04-19T13:31:50.905Z</time>
      </trkpt>
      <trkpt lat="45.47542" lon="4.65392">
        <ele>496.6</ele>
        <time>2014-04-19T13:31:53.668Z</time>
      </trkpt>
      <trkpt lat="45.4754" lon="4.65396">
        <ele>496.8</ele>
        <time>2014-04-19T13:31:54.147Z</time>
      </trkpt>
      <trkpt lat="45.47536" lon="4.65402">
        <ele>497.2</ele>
        <time>2014-04-19T13:31:55.957Z</time>
      </trkpt>
      <trkpt lat="45.47534" lon="4.65406">
        <ele>497.3</ele>
        <time>2014-04-19T13:31:56.874Z</time>
      </trkpt>
      <trkpt lat="45.47531" lon="4.65413">
        <ele>497.7</ele>
        <time>2014-04-19T13:31:58.962Z</time>
      </trkpt>
      <trkpt lat="45.47529" lon="4.65416">
        <ele>497.8</ele>
        <time>2014-04-19T13:31:59.840Z</time>
      </trkpt>
      <trkpt lat="45.47524" lon="4.65424">
        <ele>498.1</ele>
        <time>2014-04-19T13:32:01.905Z</time>
      </trkpt>
      <trkpt lat="45.47522" lon="4.65427">
        <ele>498.2</ele>
        <time>2014-04-19T13:32:02.885Z</time>
      </trkpt>
      <trkpt lat="45.47517" lon="4.65434">
        <ele>498.6</ele>
        <time>2014-04-19T13:32:04.890Z</time>
      </trkpt>
      <trkpt lat="45.47515" lon="4.65438">
        <ele>498.8</ele>
        <time>2014-04-19T13:32:05.884Z</time>
      </trkpt>
      <trkpt lat="45.4751" lon="4.65447">
        <ele>499.1</ele>
        <time>2014-04-19T13:32:08.955Z</time>
      </trkpt>
      <trkpt lat="45.47508" lon="4.65451">
        <ele>499.2</ele>
        <time>2014-04-19T13:32:09.861Z</time>
      </trkpt>
      <trkpt lat="45.47504" lon="4.65461">
        <ele>499.6</ele>
        <time>2014-04-19T13:32:12.212Z</time>
      </trkpt>
      <trkpt lat="45.47502" lon="4.65465">
        <ele>499.8</ele>
        <time>2014-04-19T13:32:12.858Z</time>
      </trkpt>
      <trkpt lat="45.47499" lon="4.65474">
        <ele>500.2</ele>
        <time>2014-04-19T13:32:14.874Z</time>
      </trkpt>
      <trkpt lat="45.47497" lon="4.65479">
        <ele>500.4</ele>
        <time>2014-04-19T13:32:15.840Z</time>
      </trkpt>
      <trkpt lat="45.47493" lon="4.65487">
        <ele>500.9</ele>
        <time>2014-04-19T13:32:17.905Z</time>
      </trkpt>
      <trkpt lat="45.47492" lon="4.65491">
        <ele>501.1</ele>
        <time>2014-04-19T13:32:18.874Z</time>
      </trkpt>
      <trkpt lat="45.47488" lon="4.655">
        <ele>501.5</ele>
        <time>2014-04-19T13:32:22.386Z</time>
      </trkpt>
      <trkpt lat="45.47487" lon="4.65504">
        <ele>501.6</ele>
        <time>2014-04-19T13:32:22.832Z</time>
      </trkpt>
      <trkpt lat="45.47483" lon="4.65513">
        <ele>501.9</ele>
        <time>2014-04-19T13:32:24.911Z</time>
      </trkpt>
      <trkpt lat="45.47481" lon="4.65517">
        <ele>502.1</ele>
        <time>2014-04-19T13:32:25.882Z</time>
      </trkpt>
      <trkpt lat="45.47476" lon="4.65527">
        <ele>502.5</ele>
        <time>2014-04-19T13:32:29.151Z</time>
      </trkpt>
      <trkpt lat="45.47474" lon="4.6553">
        <ele>502.7</ele>
        <time>2014-04-19T13:32:29.876Z</time>
      </trkpt>
      <trkpt lat="45.4747" lon="4.65536">
        <ele>503</ele>
        <time>2014-04-19T13:32:31.922Z</time>
      </trkpt>
      <trkpt lat="45.47468" lon="4.6554">
        <ele>503.2</ele>
        <time>2014-04-19T13:32:32.877Z</time>
      </trkpt>
      <trkpt lat="45.47462" lon="4.65548">
        <ele>503.5</ele>
        <time>2014-04-19T13:32:36.304Z</time>
      </trkpt>
      <trkpt lat="45.4746" lon="4.6555">
        <ele>503.7</ele>
        <time>2014-04-19T13:32:36.888Z</time>
      </trkpt>
      <trkpt lat="45.47452" lon="4.65557">
        <ele>504.1</ele>
        <time>2014-04-19T13:32:39.915Z</time>
      </trkpt>
      <trkpt lat="45.47449" lon="4.65558">
        <ele>504.2</ele>
        <time>2014-04-19T13:32:40.903Z</time>
      </trkpt>
      <trkpt lat="45.47442" lon="4.65563">
        <ele>504.6</ele>
        <time>2014-04-19T13:32:44.206Z</time>
      </trkpt>
      <trkpt lat="45.47439" lon="4.65564">
        <ele>504.7</ele>
        <time>2014-04-19T13:32:44.899Z</time>
      </trkpt>
      <trkpt lat="45.47434" lon="4.65566">
        <ele>505.2</ele>
        <time>2014-04-19T13:32:46.912Z</time>
      </trkpt>
      <trkpt lat="45.47431" lon="4.65567">
        <ele>505.3</ele>
        <time>2014-04-19T13:32:47.855Z</time>
      </trkpt>
      <trkpt lat="45.47422" lon="4.65569">
        <ele>505.9</ele>
        <time>2014-04-19T13:32:50.976Z</time>
      </trkpt>
      <trkpt lat="45.47419" lon="4.65569">
        <ele>506.1</ele>
        <time>2014-04-19T13:32:51.855Z</time>
      </trkpt>
      <trkpt lat="45.47413" lon="4.65571">
        <ele>506.5</ele>
        <time>2014-04-19T13:32:53.894Z</time>
      </trkpt>
      <trkpt lat="45.47409" lon="4.65571">
        <ele>506.6</ele>
        <time>2014-04-19T13:32:54.877Z</time>
      </trkpt>
      <trkpt lat="45.47401" lon="4.65574">
        <ele>507.2</ele>
        <time>2014-04-19T13:32:58.735Z</time>
      </trkpt>
      <trkpt lat="45.47397" lon="4.65575">
        <ele>507.3</ele>
        <time>2014-04-19T13:32:58.881Z</time>
      </trkpt>
      <trkpt lat="45.47392" lon="4.65577">
        <ele>507.7</ele>
        <time>2014-04-19T13:33:00.920Z</time>
      </trkpt>
      <trkpt lat="45.47389" lon="4.65579">
        <ele>507.9</ele>
        <time>2014-04-19T13:33:01.849Z</time>
      </trkpt>
      <trkpt lat="45.47382" lon="4.6558">
        <ele>508.3</ele>
        <time>2014-04-19T13:33:04.210Z</time>
      </trkpt>
      <trkpt lat="45.47379" lon="4.6558">
        <ele>508.4</ele>
        <time>2014-04-19T13:33:04.886Z</time>
      </trkpt>
      <trkpt lat="45.47371" lon="4.65582">
        <ele>509</ele>
        <time>2014-04-19T13:33:07.890Z</time>
      </trkpt>
      <trkpt lat="45.47368" lon="4.65582">
        <ele>509.2</ele>
        <time>2014-04-19T13:33:08.871Z</time>
      </trkpt>
      <trkpt lat="45.47361" lon="4.65584">
        <ele>509.5</ele>
        <time>2014-04-19T13:33:10.918Z</time>
      </trkpt>
      <trkpt lat="45.47358" lon="4.65584">
        <ele>509.7</ele>
        <time>2014-04-19T13:33:11.848Z</time>
      </trkpt>
      <trkpt lat="45.47351" lon="4.65585">
        <ele>510</ele>
        <time>2014-04-19T13:33:14.034Z</time>
      </trkpt>
      <trkpt lat="45.47347" lon="4.65585">
        <ele>510.1</ele>
        <time>2014-04-19T13:33:14.894Z</time>
      </trkpt>
      <trkpt lat="45.47341" lon="4.65586">
        <ele>510.5</ele>
        <time>2014-04-19T13:33:16.983Z</time>
      </trkpt>
      <trkpt lat="45.47338" lon="4.65587">
        <ele>510.6</ele>
        <time>2014-04-19T13:33:17.892Z</time>
      </trkpt>
      <trkpt lat="45.4733" lon="4.65588">
        <ele>511.1</ele>
        <time>2014-04-19T13:33:20.950Z</time>
      </trkpt>
      <trkpt lat="45.47326" lon="4.65588">
        <ele>511.3</ele>
        <time>2014-04-19T13:33:21.883Z</time>
      </trkpt>
      <trkpt lat="45.47319" lon="4.65589">
        <ele>511.6</ele>
        <time>2014-04-19T13:33:24.445Z</time>
      </trkpt>
      <trkpt lat="45.47316" lon="4.65589">
        <ele>511.7</ele>
        <time>2014-04-19T13:33:24.907Z</time>
      </trkpt>
      <trkpt lat="45.47307" lon="4.6559">
        <ele>512.1</ele>
        <time>2014-04-19T13:33:28.119Z</time>
      </trkpt>
      <trkpt lat="45.47305" lon="4.6559">
        <ele>512.2</ele>
        <time>2014-04-19T13:33:28.958Z</time>
      </trkpt>
      <trkpt lat="45.47297" lon="4.65591">
        <ele>512.8</ele>
        <time>2014-04-19T13:33:31.896Z</time>
      </trkpt>
      <trkpt lat="45.47293" lon="4.65591">
        <ele>513</ele>
        <time>2014-04-19T13:33:32.951Z</time>
      </trkpt>
      <trkpt lat="45.47285" lon="4.65592">
        <ele>513.6</ele>
        <time>2014-04-19T13:33:35.953Z</time>
      </trkpt>
      <trkpt lat="45.47282" lon="4.65593">
        <ele>513.8</ele>
        <time>2014-04-19T13:33:36.904Z</time>
      </trkpt>
      <trkpt lat="45.47276" lon="4.65594">
        <ele>514.3</ele>
        <time>2014-04-19T13:33:39.553Z</time>
      </trkpt>
      <trkpt lat="45.47273" lon="4.65595">
        <ele>514.6</ele>
        <time>2014-04-19T13:33:39.858Z</time>
      </trkpt>
      <trkpt lat="45.47266" lon="4.65597">
        <ele>515.1</ele>
        <time>2014-04-19T13:33:41.887Z</time>
      </trkpt>
      <trkpt lat="45.47263" lon="4.65599">
        <ele>515.4</ele>
        <time>2014-04-19T13:33:42.892Z</time>
      </trkpt>
      <trkpt lat="45.47254" lon="4.65602">
        <ele>516.2</ele>
        <time>2014-04-19T13:33:45.985Z</time>
      </trkpt>
      <trkpt lat="45.47252" lon="4.65603">
        <ele>516.4</ele>
        <time>2014-04-19T13:33:46.841Z</time>
      </trkpt>
      <trkpt lat="45.47245" lon="4.65606">
        <ele>516.8</ele>
        <time>2014-04-19T13:33:49.824Z</time>
      </trkpt>
      <trkpt lat="45.47242" lon="4.65608">
        <ele>517</ele>
        <time>2014-04-19T13:33:49.946Z</time>
      </trkpt>
      <trkpt lat="45.47236" lon="4.6561">
        <ele>517.4</ele>
        <time>2014-04-19T13:33:51.964Z</time>
      </trkpt>
      <trkpt lat="45.47233" lon="4.65612">
        <ele>517.6</ele>
        <time>2014-04-19T13:33:52.870Z</time>
      </trkpt>
      <trkpt lat="45.47225" lon="4.65615">
        <ele>518.3</ele>
        <time>2014-04-19T13:33:55.953Z</time>
      </trkpt>
      <trkpt lat="45.47223" lon="4.65616">
        <ele>518.6</ele>
        <time>2014-04-19T13:33:56.870Z</time>
      </trkpt>
      <trkpt lat="45.47214" lon="4.65618">
        <ele>519.5</ele>
        <time>2014-04-19T13:33:59.969Z</time>
      </trkpt>
      <trkpt lat="45.47212" lon="4.65618">
        <ele>519.9</ele>
        <time>2014-04-19T13:34:00.856Z</time>
      </trkpt>
      <trkpt lat="45.47203" lon="4.65619">
        <ele>520.8</ele>
        <time>2014-04-19T13:34:03.878Z</time>
      </trkpt>
      <trkpt lat="45.472" lon="4.65619">
        <ele>521.2</ele>
        <time>2014-04-19T13:34:04.849Z</time>
      </trkpt>
      <trkpt lat="45.47194" lon="4.65619">
        <ele>522</ele>
        <time>2014-04-19T13:34:06.902Z</time>
      </trkpt>
      <trkpt lat="45.47191" lon="4.65619">
        <ele>522.4</ele>
        <time>2014-04-19T13:34:07.891Z</time>
      </trkpt>
      <trkpt lat="45.47183" lon="4.65619">
        <ele>523.6</ele>
        <time>2014-04-19T13:34:10.899Z</time>
      </trkpt>
      <trkpt lat="45.4718" lon="4.65619">
        <ele>524</ele>
        <time>2014-04-19T13:34:11.886Z</time>
      </trkpt>
      <trkpt lat="45.47171" lon="4.65619">
        <ele>525</ele>
        <time>2014-04-19T13:34:14.979Z</time>
      </trkpt>
      <trkpt lat="45.47169" lon="4.65619">
        <ele>525.4</ele>
        <time>2014-04-19T13:34:15.848Z</time>
      </trkpt>
      <trkpt lat="45.47162" lon="4.65619">
        <ele>526.4</ele>
        <time>2014-04-19T13:34:18.928Z</time>
      </trkpt>
      <trkpt lat="45.47159" lon="4.65619">
        <ele>526.8</ele>
        <time>2014-04-19T13:34:19.897Z</time>
      </trkpt>
      <trkpt lat="45.47152" lon="4.65619">
        <ele>527.5</ele>
        <time>2014-04-19T13:34:21.915Z</time>
      </trkpt>
      <trkpt lat="45.47149" lon="4.65619">
        <ele>527.9</ele>
        <time>2014-04-19T13:34:22.895Z</time>
      </trkpt>
      <trkpt lat="45.47142" lon="4.6562">
        <ele>528.7</ele>
        <time>2014-04-19T13:34:25.001Z</time>
      </trkpt>
      <trkpt lat="45.47139" lon="4.65621">
        <ele>529</ele>
        <time>2014-04-19T13:34:25.878Z</time>
      </trkpt>
      <trkpt lat="45.47132" lon="4.65623">
        <ele>529.5</ele>
        <time>2014-04-19T13:34:27.913Z</time>
      </trkpt>
      <trkpt lat="45.47129" lon="4.65624">
        <ele>529.8</ele>
        <time>2014-04-19T13:34:28.899Z</time>
      </trkpt>
      <trkpt lat="45.47124" lon="4.65626">
        <ele>530.1</ele>
        <time>2014-04-19T13:34:29.957Z</time>
      </trkpt>
      <trkpt lat="45.47119" lon="4.65628">
        <ele>530.3</ele>
        <time>2014-04-19T13:34:30.940Z</time>
      </trkpt>
      <trkpt lat="45.47111" lon="4.65632">
        <ele>530.8</ele>
        <time>2014-04-19T13:34:32.960Z</time>
      </trkpt>
      <trkpt lat="45.47108" lon="4.65633">
        <ele>531</ele>
        <time>2014-04-19T13:34:33.898Z</time>
      </trkpt>
      <trkpt lat="45.47103" lon="4.65637">
        <ele>531.4</ele>
        <time>2014-04-19T13:34:35.957Z</time>
      </trkpt>
      <trkpt lat="45.471" lon="4.65639">
        <ele>531.7</ele>
        <time>2014-04-19T13:34:36.878Z</time>
      </trkpt>
      <trkpt lat="45.47093" lon="4.65644">
        <ele>532.1</ele>
        <time>2014-04-19T13:34:39.119Z</time>
      </trkpt>
      <trkpt lat="45.4709" lon="4.65647">
        <ele>532.3</ele>
        <time>2014-04-19T13:34:39.897Z</time>
      </trkpt>
      <trkpt lat="45.47084" lon="4.65652">
        <ele>532.8</ele>
        <time>2014-04-19T13:34:41.904Z</time>
      </trkpt>
      <trkpt lat="45.47081" lon="4.65655">
        <ele>532.9</ele>
        <time>2014-04-19T13:34:42.863Z</time>
      </trkpt>
      <trkpt lat="45.47076" lon="4.65661">
        <ele>533.2</ele>
        <time>2014-04-19T13:34:44.955Z</time>
      </trkpt>
      <trkpt lat="45.47074" lon="4.65665">
        <ele>533.3</ele>
        <time>2014-04-19T13:34:45.905Z</time>
      </trkpt>
      <trkpt lat="45.47068" lon="4.65672">
        <ele>533.6</ele>
        <time>2014-04-19T13:34:48.130Z</time>
      </trkpt>
      <trkpt lat="45.47066" lon="4.65676">
        <ele>533.8</ele>
        <time>2014-04-19T13:34:48.877Z</time>
      </trkpt>
      <trkpt lat="45.47063" lon="4.65682">
        <ele>534.1</ele>
        <time>2014-04-19T13:34:50.947Z</time>
      </trkpt>
      <trkpt lat="45.4706" lon="4.65687">
        <ele>534.2</ele>
        <time>2014-04-19T13:34:51.865Z</time>
      </trkpt>
      <trkpt lat="45.47056" lon="4.65695">
        <ele>534.5</ele>
        <time>2014-04-19T13:34:53.904Z</time>
      </trkpt>
      <trkpt lat="45.47055" lon="4.657">
        <ele>534.7</ele>
        <time>2014-04-19T13:34:54.868Z</time>
      </trkpt>
      <trkpt lat="45.47051" lon="4.65709">
        <ele>534.9</ele>
        <time>2014-04-19T13:34:57.012Z</time>
      </trkpt>
      <trkpt lat="45.4705" lon="4.65713">
        <ele>535.1</ele>
        <time>2014-04-19T13:34:57.883Z</time>
      </trkpt>
      <trkpt lat="45.47047" lon="4.6572">
        <ele>535.5</ele>
        <time>2014-04-19T13:34:59.929Z</time>
      </trkpt>
      <trkpt lat="45.47045" lon="4.65725">
        <ele>535.8</ele>
        <time>2014-04-19T13:35:00.858Z</time>
      </trkpt>
      <trkpt lat="45.47041" lon="4.65736">
        <ele>536.2</ele>
        <time>2014-04-19T13:35:03.802Z</time>
      </trkpt>
      <trkpt lat="45.47039" lon="4.6574">
        <ele>536.4</ele>
        <time>2014-04-19T13:35:03.901Z</time>
      </trkpt>
      <trkpt lat="45.47035" lon="4.65747">
        <ele>536.7</ele>
        <time>2014-04-19T13:35:05.950Z</time>
      </trkpt>
      <trkpt lat="45.47032" lon="4.65752">
        <ele>536.9</ele>
        <time>2014-04-19T13:35:06.909Z</time>
      </trkpt>
      <trkpt lat="45.47027" lon="4.65759">
        <ele>537.1</ele>
        <time>2014-04-19T13:35:09.013Z</time>
      </trkpt>
      <trkpt lat="45.47025" lon="4.65763">
        <ele>537.3</ele>
        <time>2014-04-19T13:35:09.906Z</time>
      </trkpt>
      <trkpt lat="45.4702" lon="4.65769">
        <ele>537.5</ele>
        <time>2014-04-19T13:35:11.931Z</time>
      </trkpt>
      <trkpt lat="45.47018" lon="4.65772">
        <ele>537.6</ele>
        <time>2014-04-19T13:35:12.901Z</time>
      </trkpt>
      <trkpt lat="45.47014" lon="4.65778">
        <ele>537.9</ele>
        <time>2014-04-19T13:35:14.914Z</time>
      </trkpt>
      <trkpt lat="45.47011" lon="4.65781">
        <ele>538.1</ele>
        <time>2014-04-19T13:35:15.962Z</time>
      </trkpt>
      <trkpt lat="45.47006" lon="4.65787">
        <ele>538.5</ele>
        <time>2014-04-19T13:35:17.968Z</time>
      </trkpt>
      <trkpt lat="45.47004" lon="4.6579">
        <ele>538.5</ele>
        <time>2014-04-19T13:35:18.900Z</time>
      </trkpt>
      <trkpt lat="45.46999" lon="4.65796">
        <ele>538.7</ele>
        <time>2014-04-19T13:35:21.299Z</time>
      </trkpt>
      <trkpt lat="45.46996" lon="4.65799">
        <ele>538.8</ele>
        <time>2014-04-19T13:35:21.853Z</time>
      </trkpt>
      <trkpt lat="45.46989" lon="4.65806">
        <ele>539.1</ele>
        <time>2014-04-19T13:35:24.199Z</time>
      </trkpt>
      <trkpt lat="45.46987" lon="4.65808">
        <ele>539.2</ele>
        <time>2014-04-19T13:35:24.904Z</time>
      </trkpt>
      <trkpt lat="45.4698" lon="4.65814">
        <ele>539.6</ele>
        <time>2014-04-19T13:35:27.898Z</time>
      </trkpt>
      <trkpt lat="45.46978" lon="4.65817">
        <ele>539.7</ele>
        <time>2014-04-19T13:35:28.894Z</time>
      </trkpt>
      <trkpt lat="45.46974" lon="4.65824">
        <ele>540.3</ele>
        <time>2014-04-19T13:35:31.911Z</time>
      </trkpt>
      <trkpt lat="45.46972" lon="4.65827">
        <ele>540.5</ele>
        <time>2014-04-19T13:35:32.854Z</time>
      </trkpt>
      <trkpt lat="45.46968" lon="4.65834">
        <ele>541.1</ele>
        <time>2014-04-19T13:35:35.971Z</time>
      </trkpt>
      <trkpt lat="45.46965" lon="4.65836">
        <ele>541.3</ele>
        <time>2014-04-19T13:35:36.870Z</time>
      </trkpt>
      <trkpt lat="45.46961" lon="4.65841">
        <ele>541.6</ele>
        <time>2014-04-19T13:35:39.368Z</time>
      </trkpt>
      <trkpt lat="45.46958" lon="4.65844">
        <ele>541.8</ele>
        <time>2014-04-19T13:35:39.853Z</time>
      </trkpt>
      <trkpt lat="45.46952" lon="4.65849">
        <ele>542</ele>
        <time>2014-04-19T13:35:41.878Z</time>
      </trkpt>
      <trkpt lat="45.4695" lon="4.65851">
        <ele>542.1</ele>
        <time>2014-04-19T13:35:42.851Z</time>
      </trkpt>
      <trkpt lat="45.46944" lon="4.65858">
        <ele>542.2</ele>
        <time>2014-04-19T13:35:45.882Z</time>
      </trkpt>
      <trkpt lat="45.46942" lon="4.6586">
        <ele>542.3</ele>
        <time>2014-04-19T13:35:46.864Z</time>
      </trkpt>
      <trkpt lat="45.46937" lon="4.65868">
        <ele>542.6</ele>
        <time>2014-04-19T13:35:49.904Z</time>
      </trkpt>
      <trkpt lat="45.46935" lon="4.65871">
        <ele>542.7</ele>
        <time>2014-04-19T13:35:50.897Z</time>
      </trkpt>
      <trkpt lat="45.46931" lon="4.65882">
        <ele>543.1</ele>
        <time>2014-04-19T13:35:53.891Z</time>
      </trkpt>
      <trkpt lat="45.4693" lon="4.65885">
        <ele>543.2</ele>
        <time>2014-04-19T13:35:54.860Z</time>
      </trkpt>
      <trkpt lat="45.46926" lon="4.65895">
        <ele>543.5</ele>
        <time>2014-04-19T13:35:58.736Z</time>
      </trkpt>
      <trkpt lat="45.46925" lon="4.65899">
        <ele>543.6</ele>
        <time>2014-04-19T13:35:59.231Z</time>
      </trkpt>
      <trkpt lat="45.46923" lon="4.65908">
        <ele>543.8</ele>
        <time>2014-04-19T13:36:01.081Z</time>
      </trkpt>
      <trkpt lat="45.46923" lon="4.65912">
        <ele>544</ele>
        <time>2014-04-19T13:36:01.847Z</time>
      </trkpt>
      <trkpt lat="45.4692" lon="4.65924">
        <ele>544.4</ele>
        <time>2014-04-19T13:36:04.885Z</time>
      </trkpt>
      <trkpt lat="45.46919" lon="4.65928">
        <ele>544.5</ele>
        <time>2014-04-19T13:36:05.879Z</time>
      </trkpt>
      <trkpt lat="45.46915" lon="4.65937">
        <ele>544.8</ele>
        <time>2014-04-19T13:36:09.042Z</time>
      </trkpt>
      <trkpt lat="45.46912" lon="4.65939">
        <ele>545</ele>
        <time>2014-04-19T13:36:09.926Z</time>
      </trkpt>
      <trkpt lat="45.46906" lon="4.65941">
        <ele>545.4</ele>
        <time>2014-04-19T13:36:12.923Z</time>
      </trkpt>
      <trkpt lat="45.46903" lon="4.6594">
        <ele>545.6</ele>
        <time>2014-04-19T13:36:13.920Z</time>
      </trkpt>
      <trkpt lat="45.46897" lon="4.65934">
        <ele>546.2</ele>
        <time>2014-04-19T13:36:16.993Z</time>
      </trkpt>
      <trkpt lat="45.46895" lon="4.65932">
        <ele>546.4</ele>
        <time>2014-04-19T13:36:17.868Z</time>
      </trkpt>
      <trkpt lat="45.46889" lon="4.65922">
        <ele>547</ele>
        <time>2014-04-19T13:36:21.053Z</time>
      </trkpt>
      <trkpt lat="45.46888" lon="4.65919">
        <ele>547.2</ele>
        <time>2014-04-19T13:36:21.863Z</time>
      </trkpt>
      <trkpt lat="45.46884" lon="4.6591">
        <ele>547.8</ele>
        <time>2014-04-19T13:36:24.994Z</time>
      </trkpt>
      <trkpt lat="45.46882" lon="4.65907">
        <ele>547.9</ele>
        <time>2014-04-19T13:36:25.891Z</time>
      </trkpt>
      <trkpt lat="45.46879" lon="4.659">
        <ele>548.2</ele>
        <time>2014-04-19T13:36:28.140Z</time>
      </trkpt>
      <trkpt lat="45.46876" lon="4.65897">
        <ele>548.4</ele>
        <time>2014-04-19T13:36:28.859Z</time>
      </trkpt>
      <trkpt lat="45.4687" lon="4.65894">
        <ele>548.6</ele>
        <time>2014-04-19T13:36:30.954Z</time>
      </trkpt>
      <trkpt lat="45.46867" lon="4.65893">
        <ele>548.7</ele>
        <time>2014-04-19T13:36:31.866Z</time>
      </trkpt>
      <trkpt lat="45.46859" lon="4.65898">
        <ele>549.2</ele>
        <time>2014-04-19T13:36:34.909Z</time>
      </trkpt>
      <trkpt lat="45.46857" lon="4.65901">
        <ele>549.4</ele>
        <time>2014-04-19T13:36:35.882Z</time>
      </trkpt>
      <trkpt lat="45.46855" lon="4.65912">
        <ele>550.1</ele>
        <time>2014-04-19T13:36:38.855Z</time>
      </trkpt>
      <trkpt lat="45.46856" lon="4.65916">
        <ele>550.3</ele>
        <time>2014-04-19T13:36:39.895Z</time>
      </trkpt>
      <trkpt lat="45.46857" lon="4.65926">
        <ele>550.7</ele>
        <time>2014-04-19T13:36:41.868Z</time>
      </trkpt>
      <trkpt lat="45.46858" lon="4.65931">
        <ele>550.9</ele>
        <time>2014-04-19T13:36:42.908Z</time>
      </trkpt>
      <trkpt lat="45.46862" lon="4.6594">
        <ele>551.3</ele>
        <time>2014-04-19T13:36:44.898Z</time>
      </trkpt>
      <trkpt lat="45.46864" lon="4.65944">
        <ele>551.5</ele>
        <time>2014-04-19T13:36:45.881Z</time>
      </trkpt>
      <trkpt lat="45.46868" lon="4.65952">
        <ele>551.7</ele>
        <time>2014-04-19T13:36:48.151Z</time>
      </trkpt>
      <trkpt lat="45.4687" lon="4.65955">
        <ele>551.9</ele>
        <time>2014-04-19T13:36:48.854Z</time>
      </trkpt>
      <trkpt lat="45.46874" lon="4.65962">
        <ele>552.1</ele>
        <time>2014-04-19T13:36:50.927Z</time>
      </trkpt>
      <trkpt lat="45.46876" lon="4.65965">
        <ele>552.2</ele>
        <time>2014-04-19T13:36:51.866Z</time>
      </trkpt>
      <trkpt lat="45.46881" lon="4.65972">
        <ele>552.4</ele>
        <time>2014-04-19T13:36:53.896Z</time>
      </trkpt>
      <trkpt lat="45.46883" lon="4.65975">
        <ele>552.6</ele>
        <time>2014-04-19T13:36:54.931Z</time>
      </trkpt>
      <trkpt lat="45.46888" lon="4.65982">
        <ele>552.7</ele>
        <time>2014-04-19T13:36:57.052Z</time>
      </trkpt>
      <trkpt lat="45.4689" lon="4.65985">
        <ele>552.8</ele>
        <time>2014-04-19T13:36:57.906Z</time>
      </trkpt>
      <trkpt lat="45.46895" lon="4.65992">
        <ele>553.1</ele>
        <time>2014-04-19T13:36:59.954Z</time>
      </trkpt>
      <trkpt lat="45.46897" lon="4.65995">
        <ele>553.2</ele>
        <time>2014-04-19T13:37:00.866Z</time>
      </trkpt>
      <trkpt lat="45.46901" lon="4.66001">
        <ele>553.4</ele>
        <time>2014-04-19T13:37:03.876Z</time>
      </trkpt>
      <trkpt lat="45.46903" lon="4.66005">
        <ele>553.5</ele>
        <time>2014-04-19T13:37:03.981Z</time>
      </trkpt>
      <trkpt lat="45.46909" lon="4.66014">
        <ele>553.9</ele>
        <time>2014-04-19T13:37:06.932Z</time>
      </trkpt>
      <trkpt lat="45.46911" lon="4.66018">
        <ele>554</ele>
        <time>2014-04-19T13:37:07.902Z</time>
      </trkpt>
      <trkpt lat="45.46916" lon="4.66029">
        <ele>554.4</ele>
        <time>2014-04-19T13:37:10.908Z</time>
      </trkpt>
      <trkpt lat="45.46917" lon="4.66034">
        <ele>554.5</ele>
        <time>2014-04-19T13:37:11.920Z</time>
      </trkpt>
      <trkpt lat="45.46919" lon="4.66042">
        <ele>554.8</ele>
        <time>2014-04-19T13:37:14.050Z</time>
      </trkpt>
      <trkpt lat="45.4692" lon="4.66046">
        <ele>554.9</ele>
        <time>2014-04-19T13:37:14.865Z</time>
      </trkpt>
      <trkpt lat="45.46921" lon="4.66059">
        <ele>555.3</ele>
        <time>2014-04-19T13:37:17.946Z</time>
      </trkpt>
      <trkpt lat="45.4692" lon="4.66063">
        <ele>555.4</ele>
        <time>2014-04-19T13:37:18.860Z</time>
      </trkpt>
      <trkpt lat="45.4692" lon="4.66071">
        <ele>555.7</ele>
        <time>2014-04-19T13:37:20.884Z</time>
      </trkpt>
      <trkpt lat="45.46919" lon="4.66075">
        <ele>555.8</ele>
        <time>2014-04-19T13:37:21.867Z</time>
      </trkpt>
      <trkpt lat="45.46918" lon="4.66084">
        <ele>556</ele>
        <time>2014-04-19T13:37:24.445Z</time>
      </trkpt>
      <trkpt lat="45.46917" lon="4.66089">
        <ele>556.1</ele>
        <time>2014-04-19T13:37:24.855Z</time>
      </trkpt>
      <trkpt lat="45.46915" lon="4.66098">
        <ele>556.3</ele>
        <time>2014-04-19T13:37:26.905Z</time>
      </trkpt>
      <trkpt lat="45.46915" lon="4.66103">
        <ele>556.4</ele>
        <time>2014-04-19T13:37:27.891Z</time>
      </trkpt>
      <trkpt lat="45.46915" lon="4.66115">
        <ele>556.8</ele>
        <time>2014-04-19T13:37:30.915Z</time>
      </trkpt>
      <trkpt lat="45.46916" lon="4.6612">
        <ele>557</ele>
        <time>2014-04-19T13:37:31.857Z</time>
      </trkpt>
      <trkpt lat="45.46917" lon="4.66129">
        <ele>557.2</ele>
        <time>2014-04-19T13:37:34.633Z</time>
      </trkpt>
      <trkpt lat="45.46919" lon="4.66134">
        <ele>557.4</ele>
        <time>2014-04-19T13:37:34.861Z</time>
      </trkpt>
      <trkpt lat="45.46923" lon="4.66142">
        <ele>557.7</ele>
        <time>2014-04-19T13:37:36.897Z</time>
      </trkpt>
      <trkpt lat="45.46925" lon="4.66145">
        <ele>558</ele>
        <time>2014-04-19T13:37:37.893Z</time>
      </trkpt>
      <trkpt lat="45.46932" lon="4.66152">
        <ele>558.6</ele>
        <time>2014-04-19T13:37:40.962Z</time>
      </trkpt>
      <trkpt lat="45.46934" lon="4.66153">
        <ele>558.8</ele>
        <time>2014-04-19T13:37:41.853Z</time>
      </trkpt>
      <trkpt lat="45.4694" lon="4.66154">
        <ele>559.2</ele>
        <time>2014-04-19T13:37:43.941Z</time>
      </trkpt>
      <trkpt lat="45.46943" lon="4.66154">
        <ele>559.5</ele>
        <time>2014-04-19T13:37:44.899Z</time>
      </trkpt>
      <trkpt lat="45.4695" lon="4.66151">
        <ele>559.9</ele>
        <time>2014-04-19T13:37:46.937Z</time>
      </trkpt>
      <trkpt lat="45.46952" lon="4.66149">
        <ele>560.2</ele>
        <time>2014-04-19T13:37:47.901Z</time>
      </trkpt>
      <trkpt lat="45.46958" lon="4.66142">
        <ele>560.7</ele>
        <time>2014-04-19T13:37:50.100Z</time>
      </trkpt>
      <trkpt lat="45.4696" lon="4.66139">
        <ele>560.9</ele>
        <time>2014-04-19T13:37:50.964Z</time>
      </trkpt>
      <trkpt lat="45.46963" lon="4.66131">
        <ele>561.3</ele>
        <time>2014-04-19T13:37:52.901Z</time>
      </trkpt>
      <trkpt lat="45.46965" lon="4.66127">
        <ele>561.5</ele>
        <time>2014-04-19T13:37:53.875Z</time>
      </trkpt>
      <trkpt lat="45.46967" lon="4.66117">
        <ele>561.8</ele>
        <time>2014-04-19T13:37:55.989Z</time>
      </trkpt>
      <trkpt lat="45.46969" lon="4.66113">
        <ele>562</ele>
        <time>2014-04-19T13:37:56.870Z</time>
      </trkpt>
      <trkpt lat="45.46972" lon="4.66101">
        <ele>562.3</ele>
        <time>2014-04-19T13:37:59.237Z</time>
      </trkpt>
      <trkpt lat="45.46974" lon="4.66097">
        <ele>562.5</ele>
        <time>2014-04-19T13:37:59.901Z</time>
      </trkpt>
      <trkpt lat="45.46976" lon="4.66091">
        <ele>562.7</ele>
        <time>2014-04-19T13:38:00.894Z</time>
      </trkpt>
      <trkpt lat="45.46978" lon="4.66085">
        <ele>562.8</ele>
        <time>2014-04-19T13:38:01.892Z</time>
      </trkpt>
      <trkpt lat="45.46981" lon="4.66075">
        <ele>563.1</ele>
        <time>2014-04-19T13:38:04.273Z</time>
      </trkpt>
      <trkpt lat="45.46982" lon="4.66071">
        <ele>563.3</ele>
        <time>2014-04-19T13:38:04.926Z</time>
      </trkpt>
      <trkpt lat="45.46984" lon="4.66063">
        <ele>563.6</ele>
        <time>2014-04-19T13:38:06.917Z</time>
      </trkpt>
      <trkpt lat="45.46986" lon="4.6606">
        <ele>563.8</ele>
        <time>2014-04-19T13:38:07.860Z</time>
      </trkpt>
      <trkpt lat="45.46989" lon="4.66048">
        <ele>564.4</ele>
        <time>2014-04-19T13:38:10.948Z</time>
      </trkpt>
      <trkpt lat="45.4699" lon="4.66044">
        <ele>564.5</ele>
        <time>2014-04-19T13:38:11.892Z</time>
      </trkpt>
      <trkpt lat="45.46993" lon="4.66035">
        <ele>564.9</ele>
        <time>2014-04-19T13:38:14.321Z</time>
      </trkpt>
      <trkpt lat="45.46994" lon="4.66031">
        <ele>565.1</ele>
        <time>2014-04-19T13:38:14.893Z</time>
      </trkpt>
      <trkpt lat="45.46997" lon="4.66022">
        <ele>565.4</ele>
        <time>2014-04-19T13:38:16.901Z</time>
      </trkpt>
      <trkpt lat="45.46998" lon="4.66017">
        <ele>565.6</ele>
        <time>2014-04-19T13:38:17.881Z</time>
      </trkpt>
      <trkpt lat="45.47" lon="4.66009">
        <ele>565.9</ele>
        <time>2014-04-19T13:38:19.884Z</time>
      </trkpt>
      <trkpt lat="45.47001" lon="4.66005">
        <ele>566.1</ele>
        <time>2014-04-19T13:38:20.892Z</time>
      </trkpt>
      <trkpt lat="45.47005" lon="4.65994">
        <ele>566.6</ele>
        <time>2014-04-19T13:38:24.452Z</time>
      </trkpt>
      <trkpt lat="45.47006" lon="4.65989">
        <ele>566.8</ele>
        <time>2014-04-19T13:38:24.857Z</time>
      </trkpt>
      <trkpt lat="45.47008" lon="4.65981">
        <ele>567.2</ele>
        <time>2014-04-19T13:38:26.928Z</time>
      </trkpt>
      <trkpt lat="45.47009" lon="4.65977">
        <ele>567.3</ele>
        <time>2014-04-19T13:38:27.856Z</time>
      </trkpt>
      <trkpt lat="45.47012" lon="4.65966">
        <ele>567.9</ele>
        <time>2014-04-19T13:38:30.923Z</time>
      </trkpt>
      <trkpt lat="45.47013" lon="4.65962">
        <ele>568.1</ele>
        <time>2014-04-19T13:38:31.856Z</time>
      </trkpt>
      <trkpt lat="45.47018" lon="4.65951">
        <ele>568.7</ele>
        <time>2014-04-19T13:38:34.894Z</time>
      </trkpt>
      <trkpt lat="45.4702" lon="4.65948">
        <ele>568.9</ele>
        <time>2014-04-19T13:38:35.877Z</time>
      </trkpt>
      <trkpt lat="45.47024" lon="4.6594">
        <ele>569.2</ele>
        <time>2014-04-19T13:38:38.116Z</time>
      </trkpt>
      <trkpt lat="45.47026" lon="4.65937">
        <ele>569.4</ele>
        <time>2014-04-19T13:38:38.904Z</time>
      </trkpt>
      <trkpt lat="45.47031" lon="4.65931">
        <ele>569.8</ele>
        <time>2014-04-19T13:38:40.948Z</time>
      </trkpt>
      <trkpt lat="45.47033" lon="4.65928">
        <ele>569.9</ele>
        <time>2014-04-19T13:38:41.864Z</time>
      </trkpt>
      <trkpt lat="45.47041" lon="4.65922">
        <ele>570.4</ele>
        <time>2014-04-19T13:38:44.911Z</time>
      </trkpt>
      <trkpt lat="45.47044" lon="4.6592">
        <ele>570.6</ele>
        <time>2014-04-19T13:38:45.891Z</time>
      </trkpt>
      <trkpt lat="45.47051" lon="4.65915">
        <ele>571.1</ele>
        <time>2014-04-19T13:38:49.599Z</time>
      </trkpt>
      <trkpt lat="45.47054" lon="4.65913">
        <ele>571.2</ele>
        <time>2014-04-19T13:38:49.865Z</time>
      </trkpt>
      <trkpt lat="45.4706" lon="4.65909">
        <ele>571.5</ele>
        <time>2014-04-19T13:38:52.086Z</time>
      </trkpt>
      <trkpt lat="45.47062" lon="4.65907">
        <ele>571.6</ele>
        <time>2014-04-19T13:38:52.907Z</time>
      </trkpt>
      <trkpt lat="45.47068" lon="4.65903">
        <ele>572</ele>
        <time>2014-04-19T13:38:54.962Z</time>
      </trkpt>
      <trkpt lat="45.47071" lon="4.65901">
        <ele>572.1</ele>
        <time>2014-04-19T13:38:55.861Z</time>
      </trkpt>
      <trkpt lat="45.47079" lon="4.65896">
        <ele>572.6</ele>
        <time>2014-04-19T13:38:58.957Z</time>
      </trkpt>
      <trkpt lat="45.47082" lon="4.65895">
        <ele>572.8</ele>
        <time>2014-04-19T13:38:59.910Z</time>
      </trkpt>
      <trkpt lat="45.4709" lon="4.65894">
        <ele>573.2</ele>
        <time>2014-04-19T13:39:03.676Z</time>
      </trkpt>
      <trkpt lat="45.47093" lon="4.65895">
        <ele>573.4</ele>
        <time>2014-04-19T13:39:03.874Z</time>
      </trkpt>
      <trkpt lat="45.471" lon="4.65901">
        <ele>573.7</ele>
        <time>2014-04-19T13:39:06.929Z</time>
      </trkpt>
      <trkpt lat="45.47101" lon="4.65904">
        <ele>573.8</ele>
        <time>2014-04-19T13:39:07.875Z</time>
      </trkpt>
      <trkpt lat="45.47103" lon="4.65916">
        <ele>574.2</ele>
        <time>2014-04-19T13:39:10.934Z</time>
      </trkpt>
      <trkpt lat="45.47103" lon="4.6592">
        <ele>574.4</ele>
        <time>2014-04-19T13:39:11.894Z</time>
      </trkpt>
      <trkpt lat="45.471" lon="4.65928">
        <ele>574.7</ele>
        <time>2014-04-19T13:39:14.003Z</time>
      </trkpt>
      <trkpt lat="45.47098" lon="4.65932">
        <ele>574.8</ele>
        <time>2014-04-19T13:39:14.888Z</time>
      </trkpt>
      <trkpt lat="45.47094" lon="4.65939">
        <ele>575.1</ele>
        <time>2014-04-19T13:39:16.888Z</time>
      </trkpt>
      <trkpt lat="45.47092" lon="4.65942">
        <ele>575.3</ele>
        <time>2014-04-19T13:39:17.861Z</time>
      </trkpt>
      <trkpt lat="45.47087" lon="4.65949">
        <ele>575.8</ele>
        <time>2014-04-19T13:39:21.165Z</time>
      </trkpt>
      <trkpt lat="45.47084" lon="4.65952">
        <ele>575.9</ele>
        <time>2014-04-19T13:39:21.888Z</time>
      </trkpt>
      <trkpt lat="45.4708" lon="4.65958">
        <ele>576.3</ele>
        <time>2014-04-19T13:39:24.105Z</time>
      </trkpt>
      <trkpt lat="45.47078" lon="4.65961">
        <ele>576.4</ele>
        <time>2014-04-19T13:39:24.891Z</time>
      </trkpt>
      <trkpt lat="45.47072" lon="4.65969">
        <ele>576.9</ele>
        <time>2014-04-19T13:39:27.878Z</time>
      </trkpt>
      <trkpt lat="45.4707" lon="4.65972">
        <ele>577</ele>
        <time>2014-04-19T13:39:28.889Z</time>
      </trkpt>
      <trkpt lat="45.47065" lon="4.65982">
        <ele>577.5</ele>
        <time>2014-04-19T13:39:31.966Z</time>
      </trkpt>
      <trkpt lat="45.47064" lon="4.65986">
        <ele>577.7</ele>
        <time>2014-04-19T13:39:32.852Z</time>
      </trkpt>
      <trkpt lat="45.4706" lon="4.65996">
        <ele>578.2</ele>
        <time>2014-04-19T13:39:35.941Z</time>
      </trkpt>
      <trkpt lat="45.4706" lon="4.66">
        <ele>578.4</ele>
        <time>2014-04-19T13:39:36.906Z</time>
      </trkpt>
      <trkpt lat="45.47057" lon="4.66012">
        <ele>579</ele>
        <time>2014-04-19T13:39:39.978Z</time>
      </trkpt>
      <trkpt lat="45.47057" lon="4.66016">
        <ele>579.2</ele>
        <time>2014-04-19T13:39:40.908Z</time>
      </trkpt>
      <trkpt lat="45.47055" lon="4.66024">
        <ele>579.6</ele>
        <time>2014-04-19T13:39:42.900Z</time>
      </trkpt>
      <trkpt lat="45.47055" lon="4.66029">
        <ele>579.8</ele>
        <time>2014-04-19T13:39:43.893Z</time>
      </trkpt>
      <trkpt lat="45.47054" lon="4.66038">
        <ele>580.2</ele>
        <time>2014-04-19T13:39:45.908Z</time>
      </trkpt>
      <trkpt lat="45.47054" lon="4.66043">
        <ele>580.3</ele>
        <time>2014-04-19T13:39:46.864Z</time>
      </trkpt>
      <trkpt lat="45.47053" lon="4.66052">
        <ele>580.7</ele>
        <time>2014-04-19T13:39:49.535Z</time>
      </trkpt>
      <trkpt lat="45.47053" lon="4.66056">
        <ele>580.8</ele>
        <time>2014-04-19T13:39:49.866Z</time>
      </trkpt>
      <trkpt lat="45.47052" lon="4.66064">
        <ele>581.2</ele>
        <time>2014-04-19T13:39:51.928Z</time>
      </trkpt>
      <trkpt lat="45.47052" lon="4.66069">
        <ele>581.4</ele>
        <time>2014-04-19T13:39:52.948Z</time>
      </trkpt>
      <trkpt lat="45.47051" lon="4.66078">
        <ele>581.7</ele>
        <time>2014-04-19T13:39:54.892Z</time>
      </trkpt>
      <trkpt lat="45.47051" lon="4.66082">
        <ele>581.9</ele>
        <time>2014-04-19T13:39:55.863Z</time>
      </trkpt>
      <trkpt lat="45.4705" lon="4.66091">
        <ele>582.2</ele>
        <time>2014-04-19T13:39:57.973Z</time>
      </trkpt>
      <trkpt lat="45.47049" lon="4.66096">
        <ele>582.4</ele>
        <time>2014-04-19T13:39:58.940Z</time>
      </trkpt>
      <trkpt lat="45.47048" lon="4.66105">
        <ele>582.7</ele>
        <time>2014-04-19T13:40:00.930Z</time>
      </trkpt>
      <trkpt lat="45.47048" lon="4.66109">
        <ele>582.9</ele>
        <time>2014-04-19T13:40:01.879Z</time>
      </trkpt>
      <trkpt lat="45.47047" lon="4.66118">
        <ele>583.3</ele>
        <time>2014-04-19T13:40:04.207Z</time>
      </trkpt>
      <trkpt lat="45.47046" lon="4.66122">
        <ele>583.5</ele>
        <time>2014-04-19T13:40:04.905Z</time>
      </trkpt>
      <trkpt lat="45.47045" lon="4.66131">
        <ele>583.8</ele>
        <time>2014-04-19T13:40:06.993Z</time>
      </trkpt>
      <trkpt lat="45.47045" lon="4.66136">
        <ele>584</ele>
        <time>2014-04-19T13:40:07.852Z</time>
      </trkpt>
      <trkpt lat="45.47044" lon="4.66145">
        <ele>584.4</ele>
        <time>2014-04-19T13:40:09.990Z</time>
      </trkpt>
      <trkpt lat="45.47044" lon="4.6615">
        <ele>584.6</ele>
        <time>2014-04-19T13:40:10.899Z</time>
      </trkpt>
      <trkpt lat="45.47043" lon="4.66159">
        <ele>584.9</ele>
        <time>2014-04-19T13:40:13.211Z</time>
      </trkpt>
      <trkpt lat="45.47042" lon="4.66163">
        <ele>585.1</ele>
        <time>2014-04-19T13:40:13.913Z</time>
      </trkpt>
      <trkpt lat="45.47041" lon="4.66172">
        <ele>585.4</ele>
        <time>2014-04-19T13:40:15.902Z</time>
      </trkpt>
      <trkpt lat="45.47041" lon="4.66177">
        <ele>585.6</ele>
        <time>2014-04-19T13:40:16.863Z</time>
      </trkpt>
      <trkpt lat="45.4704" lon="4.66186">
        <ele>586</ele>
        <time>2014-04-19T13:40:19.280Z</time>
      </trkpt>
      <trkpt lat="45.47039" lon="4.66191">
        <ele>586.1</ele>
        <time>2014-04-19T13:40:19.858Z</time>
      </trkpt>
      <trkpt lat="45.47037" lon="4.662">
        <ele>586.5</ele>
        <time>2014-04-19T13:40:21.922Z</time>
      </trkpt>
      <trkpt lat="45.47036" lon="4.66205">
        <ele>586.6</ele>
        <time>2014-04-19T13:40:22.907Z</time>
      </trkpt>
      <trkpt lat="45.47035" lon="4.66213">
        <ele>587</ele>
        <time>2014-04-19T13:40:24.890Z</time>
      </trkpt>
      <trkpt lat="45.47034" lon="4.66218">
        <ele>587.2</ele>
        <time>2014-04-19T13:40:25.873Z</time>
      </trkpt>
      <trkpt lat="45.47032" lon="4.66227">
        <ele>587.5</ele>
        <time>2014-04-19T13:40:27.882Z</time>
      </trkpt>
      <trkpt lat="45.47031" lon="4.66232">
        <ele>587.7</ele>
        <time>2014-04-19T13:40:28.906Z</time>
      </trkpt>
      <trkpt lat="45.47029" lon="4.6624">
        <ele>588</ele>
        <time>2014-04-19T13:40:31.653Z</time>
      </trkpt>
      <trkpt lat="45.47028" lon="4.66245">
        <ele>588.1</ele>
        <time>2014-04-19T13:40:31.887Z</time>
      </trkpt>
      <trkpt lat="45.47026" lon="4.66254">
        <ele>588.4</ele>
        <time>2014-04-19T13:40:33.954Z</time>
      </trkpt>
      <trkpt lat="45.47025" lon="4.66259">
        <ele>588.5</ele>
        <time>2014-04-19T13:40:34.895Z</time>
      </trkpt>
      <trkpt lat="45.47023" lon="4.66268">
        <ele>588.8</ele>
        <time>2014-04-19T13:40:36.890Z</time>
      </trkpt>
      <trkpt lat="45.47022" lon="4.66273">
        <ele>588.9</ele>
        <time>2014-04-19T13:40:37.846Z</time>
      </trkpt>
      <trkpt lat="45.4702" lon="4.66282">
        <ele>589.2</ele>
        <time>2014-04-19T13:40:39.902Z</time>
      </trkpt>
      <trkpt lat="45.47019" lon="4.66286">
        <ele>589.3</ele>
        <time>2014-04-19T13:40:40.901Z</time>
      </trkpt>
      <trkpt lat="45.47017" lon="4.66296">
        <ele>589.7</ele>
        <time>2014-04-19T13:40:42.966Z</time>
      </trkpt>
      <trkpt lat="45.47015" lon="4.663">
        <ele>589.8</ele>
        <time>2014-04-19T13:40:43.906Z</time>
      </trkpt>
      <trkpt lat="45.47013" lon="4.6631">
        <ele>590.1</ele>
        <time>2014-04-19T13:40:45.960Z</time>
      </trkpt>
      <trkpt lat="45.47012" lon="4.66314">
        <ele>590.3</ele>
        <time>2014-04-19T13:40:46.905Z</time>
      </trkpt>
      <trkpt lat="45.47009" lon="4.66323">
        <ele>590.6</ele>
        <time>2014-04-19T13:40:49.651Z</time>
      </trkpt>
      <trkpt lat="45.47007" lon="4.66327">
        <ele>590.8</ele>
        <time>2014-04-19T13:40:49.849Z</time>
      </trkpt>
      <trkpt lat="45.47004" lon="4.66335">
        <ele>591.1</ele>
        <time>2014-04-19T13:40:51.891Z</time>
      </trkpt>
      <trkpt lat="45.47002" lon="4.66339">
        <ele>591.3</ele>
        <time>2014-04-19T13:40:52.925Z</time>
      </trkpt>
      <trkpt lat="45.46998" lon="4.66347">
        <ele>591.7</ele>
        <time>2014-04-19T13:40:54.909Z</time>
      </trkpt>
      <trkpt lat="45.46996" lon="4.66352">
        <ele>591.9</ele>
        <time>2014-04-19T13:40:55.895Z</time>
      </trkpt>
      <trkpt lat="45.46991" lon="4.6636">
        <ele>593.7</ele>
        <time>2014-04-19T13:40:58.742Z</time>
      </trkpt>
      <trkpt lat="45.46989" lon="4.66363">
        <ele>593.9</ele>
        <time>2014-04-19T13:40:58.894Z</time>
      </trkpt>
      <trkpt lat="45.46984" lon="4.66371">
        <ele>594.2</ele>
        <time>2014-04-19T13:41:01.193Z</time>
      </trkpt>
      <trkpt lat="45.46982" lon="4.66375">
        <ele>594.3</ele>
        <time>2014-04-19T13:41:01.871Z</time>
      </trkpt>
      <trkpt lat="45.46977" lon="4.66382">
        <ele>594.6</ele>
        <time>2014-04-19T13:41:04.027Z</time>
      </trkpt>
      <trkpt lat="45.46975" lon="4.66386">
        <ele>594.8</ele>
        <time>2014-04-19T13:41:04.902Z</time>
      </trkpt>
      <trkpt lat="45.4697" lon="4.66394">
        <ele>595.1</ele>
        <time>2014-04-19T13:41:06.950Z</time>
      </trkpt>
      <trkpt lat="45.46968" lon="4.66398">
        <ele>595.2</ele>
        <time>2014-04-19T13:41:07.857Z</time>
      </trkpt>
      <trkpt lat="45.46964" lon="4.66407">
        <ele>595.5</ele>
        <time>2014-04-19T13:41:09.971Z</time>
      </trkpt>
      <trkpt lat="45.46962" lon="4.66411">
        <ele>595.6</ele>
        <time>2014-04-19T13:41:10.919Z</time>
      </trkpt>
      <trkpt lat="45.46958" lon="4.6642">
        <ele>595.9</ele>
        <time>2014-04-19T13:41:12.977Z</time>
      </trkpt>
      <trkpt lat="45.46956" lon="4.66424">
        <ele>596</ele>
        <time>2014-04-19T13:41:13.876Z</time>
      </trkpt>
      <trkpt lat="45.46953" lon="4.66433">
        <ele>596.4</ele>
        <time>2014-04-19T13:41:15.975Z</time>
      </trkpt>
      <trkpt lat="45.46952" lon="4.66437">
        <ele>596.6</ele>
        <time>2014-04-19T13:41:16.887Z</time>
      </trkpt>
      <trkpt lat="45.46949" lon="4.66447">
        <ele>598.6</ele>
        <time>2014-04-19T13:41:18.985Z</time>
      </trkpt>
      <trkpt lat="45.46948" lon="4.66452">
        <ele>598.7</ele>
        <time>2014-04-19T13:41:19.872Z</time>
      </trkpt>
      <trkpt lat="45.46945" lon="4.66461">
        <ele>599</ele>
        <time>2014-04-19T13:41:22.168Z</time>
      </trkpt>
      <trkpt lat="45.46944" lon="4.66467">
        <ele>599.2</ele>
        <time>2014-04-19T13:41:22.891Z</time>
      </trkpt>
      <trkpt lat="45.46942" lon="4.66477">
        <ele>601.8</ele>
        <time>2014-04-19T13:41:24.969Z</time>
      </trkpt>
      <trkpt lat="45.46941" lon="4.66482">
        <ele>602.8</ele>
        <time>2014-04-19T13:41:25.863Z</time>
      </trkpt>
      <trkpt lat="45.46938" lon="4.66492">
        <ele>604</ele>
        <time>2014-04-19T13:41:27.968Z</time>
      </trkpt>
      <trkpt lat="45.46937" lon="4.66497">
        <ele>604.5</ele>
        <time>2014-04-19T13:41:28.875Z</time>
      </trkpt>
      <trkpt lat="45.46935" lon="4.66507">
        <ele>604.9</ele>
        <time>2014-04-19T13:41:30.967Z</time>
      </trkpt>
      <trkpt lat="45.46933" lon="4.66513">
        <ele>605.2</ele>
        <time>2014-04-19T13:41:31.879Z</time>
      </trkpt>
      <trkpt lat="45.4693" lon="4.66522">
        <ele>605.3</ele>
        <time>2014-04-19T13:41:34.132Z</time>
      </trkpt>
      <trkpt lat="45.46928" lon="4.66527">
        <ele>605.3</ele>
        <time>2014-04-19T13:41:34.906Z</time>
      </trkpt>
      <trkpt lat="45.46924" lon="4.66535">
        <ele>605.5</ele>
        <time>2014-04-19T13:41:36.901Z</time>
      </trkpt>
      <trkpt lat="45.46921" lon="4.66539">
        <ele>605.5</ele>
        <time>2014-04-19T13:41:37.899Z</time>
      </trkpt>
      <trkpt lat="45.46916" lon="4.66547">
        <ele>605.6</ele>
        <time>2014-04-19T13:41:39.874Z</time>
      </trkpt>
      <trkpt lat="45.46914" lon="4.6655">
        <ele>605.7</ele>
        <time>2014-04-19T13:41:40.905Z</time>
      </trkpt>
      <trkpt lat="45.46908" lon="4.66556">
        <ele>605.8</ele>
        <time>2014-04-19T13:41:42.910Z</time>
      </trkpt>
      <trkpt lat="45.46905" lon="4.66559">
        <ele>605.9</ele>
        <time>2014-04-19T13:41:43.879Z</time>
      </trkpt>
      <trkpt lat="45.46899" lon="4.66564">
        <ele>606.1</ele>
        <time>2014-04-19T13:41:45.994Z</time>
      </trkpt>
      <trkpt lat="45.46896" lon="4.66566">
        <ele>606.1</ele>
        <time>2014-04-19T13:41:46.849Z</time>
      </trkpt>
      <trkpt lat="45.4689" lon="4.66571">
        <ele>606.3</ele>
        <time>2014-04-19T13:41:49.281Z</time>
      </trkpt>
      <trkpt lat="45.46887" lon="4.66574">
        <ele>606.5</ele>
        <time>2014-04-19T13:41:49.930Z</time>
      </trkpt>
      <trkpt lat="45.46881" lon="4.6658">
        <ele>606.7</ele>
        <time>2014-04-19T13:41:51.945Z</time>
      </trkpt>
      <trkpt lat="45.46878" lon="4.66582">
        <ele>606.7</ele>
        <time>2014-04-19T13:41:52.877Z</time>
      </trkpt>
      <trkpt lat="45.46872" lon="4.66589">
        <ele>606.9</ele>
        <time>2014-04-19T13:41:54.937Z</time>
      </trkpt>
      <trkpt lat="45.4687" lon="4.66592">
        <ele>607</ele>
        <time>2014-04-19T13:41:55.892Z</time>
      </trkpt>
      <trkpt lat="45.46865" lon="4.66599">
        <ele>607.2</ele>
        <time>2014-04-19T13:41:58.591Z</time>
      </trkpt>
      <trkpt lat="45.46863" lon="4.66602">
        <ele>608.6</ele>
        <time>2014-04-19T13:41:58.863Z</time>
      </trkpt>
      <trkpt lat="45.46859" lon="4.6661">
        <ele>610.8</ele>
        <time>2014-04-19T13:42:01.099Z</time>
      </trkpt>
      <trkpt lat="45.46857" lon="4.66615">
        <ele>610.9</ele>
        <time>2014-04-19T13:42:01.898Z</time>
      </trkpt>
      <trkpt lat="45.46853" lon="4.66623">
        <ele>611</ele>
        <time>2014-04-19T13:42:04.100Z</time>
      </trkpt>
      <trkpt lat="45.46852" lon="4.66627">
        <ele>611.1</ele>
        <time>2014-04-19T13:42:04.850Z</time>
      </trkpt>
      <trkpt lat="45.46849" lon="4.66637">
        <ele>611.3</ele>
        <time>2014-04-19T13:42:06.950Z</time>
      </trkpt>
      <trkpt lat="45.46847" lon="4.66641">
        <ele>611.3</ele>
        <time>2014-04-19T13:42:07.865Z</time>
      </trkpt>
      <trkpt lat="45.46845" lon="4.66651">
        <ele>611.5</ele>
        <time>2014-04-19T13:42:09.933Z</time>
      </trkpt>
      <trkpt lat="45.46844" lon="4.66656">
        <ele>611.6</ele>
        <time>2014-04-19T13:42:11.000Z</time>
      </trkpt>
      <trkpt lat="45.46841" lon="4.66667">
        <ele>611.8</ele>
        <time>2014-04-19T13:42:12.931Z</time>
      </trkpt>
      <trkpt lat="45.4684" lon="4.66671">
        <ele>611.9</ele>
        <time>2014-04-19T13:42:14.001Z</time>
      </trkpt>
      <trkpt lat="45.46838" lon="4.66681">
        <ele>612.1</ele>
        <time>2014-04-19T13:42:15.886Z</time>
      </trkpt>
      <trkpt lat="45.46836" lon="4.66686">
        <ele>612.1</ele>
        <time>2014-04-19T13:42:16.916Z</time>
      </trkpt>
      <trkpt lat="45.46834" lon="4.66697">
        <ele>613.7</ele>
        <time>2014-04-19T13:42:18.940Z</time>
      </trkpt>
      <trkpt lat="45.46832" lon="4.66703">
        <ele>614</ele>
        <time>2014-04-19T13:42:19.894Z</time>
      </trkpt>
      <trkpt lat="45.4683" lon="4.66712">
        <ele>614.6</ele>
        <time>2014-04-19T13:42:21.901Z</time>
      </trkpt>
      <trkpt lat="45.46829" lon="4.66718">
        <ele>614.9</ele>
        <time>2014-04-19T13:42:22.902Z</time>
      </trkpt>
      <trkpt lat="45.46825" lon="4.66727">
        <ele>615</ele>
        <time>2014-04-19T13:42:24.911Z</time>
      </trkpt>
      <trkpt lat="45.46824" lon="4.66732">
        <ele>615.1</ele>
        <time>2014-04-19T13:42:25.865Z</time>
      </trkpt>
      <trkpt lat="45.4682" lon="4.6674">
        <ele>615.2</ele>
        <time>2014-04-19T13:42:28.040Z</time>
      </trkpt>
      <trkpt lat="45.46818" lon="4.66745">
        <ele>615.2</ele>
        <time>2014-04-19T13:42:28.895Z</time>
      </trkpt>
      <trkpt lat="45.46814" lon="4.66753">
        <ele>615.7</ele>
        <time>2014-04-19T13:42:30.917Z</time>
      </trkpt>
      <trkpt lat="45.46812" lon="4.66757">
        <ele>615.8</ele>
        <time>2014-04-19T13:42:31.882Z</time>
      </trkpt>
      <trkpt lat="45.46808" lon="4.66764">
        <ele>615.9</ele>
        <time>2014-04-19T13:42:33.945Z</time>
      </trkpt>
      <trkpt lat="45.46806" lon="4.66768">
        <ele>616</ele>
        <time>2014-04-19T13:42:34.862Z</time>
      </trkpt>
      <trkpt lat="45.468" lon="4.66775">
        <ele>616.2</ele>
        <time>2014-04-19T13:42:36.918Z</time>
      </trkpt>
      <trkpt lat="45.46797" lon="4.66778">
        <ele>616.3</ele>
        <time>2014-04-19T13:42:37.886Z</time>
      </trkpt>
      <trkpt lat="45.46791" lon="4.66785">
        <ele>616.4</ele>
        <time>2014-04-19T13:42:39.892Z</time>
      </trkpt>
      <trkpt lat="45.46788" lon="4.66788">
        <ele>616.5</ele>
        <time>2014-04-19T13:42:40.909Z</time>
      </trkpt>
      <trkpt lat="45.46783" lon="4.66795">
        <ele>616.7</ele>
        <time>2014-04-19T13:42:43.181Z</time>
      </trkpt>
      <trkpt lat="45.4678" lon="4.66798">
        <ele>616.8</ele>
        <time>2014-04-19T13:42:43.875Z</time>
      </trkpt>
      <trkpt lat="45.46773" lon="4.66804">
        <ele>618.4</ele>
        <time>2014-04-19T13:42:45.904Z</time>
      </trkpt>
      <trkpt lat="45.46771" lon="4.66807">
        <ele>619.1</ele>
        <time>2014-04-19T13:42:46.857Z</time>
      </trkpt>
      <trkpt lat="45.46765" lon="4.66812">
        <ele>619.8</ele>
        <time>2014-04-19T13:42:49.563Z</time>
      </trkpt>
      <trkpt lat="45.46762" lon="4.66815">
        <ele>619.9</ele>
        <time>2014-04-19T13:42:49.865Z</time>
      </trkpt>
      <trkpt lat="45.46756" lon="4.6682">
        <ele>620</ele>
        <time>2014-04-19T13:42:51.908Z</time>
      </trkpt>
      <trkpt lat="45.46753" lon="4.66824">
        <ele>620.1</ele>
        <time>2014-04-19T13:42:52.879Z</time>
      </trkpt>
      <trkpt lat="45.46747" lon="4.66829">
        <ele>620.3</ele>
        <time>2014-04-19T13:42:54.976Z</time>
      </trkpt>
      <trkpt lat="45.46744" lon="4.66832">
        <ele>620.5</ele>
        <time>2014-04-19T13:42:55.892Z</time>
      </trkpt>
      <trkpt lat="45.46738" lon="4.66838">
        <ele>621.6</ele>
        <time>2014-04-19T13:42:57.945Z</time>
      </trkpt>
      <trkpt lat="45.46735" lon="4.66841">
        <ele>621.7</ele>
        <time>2014-04-19T13:42:58.853Z</time>
      </trkpt>
      <trkpt lat="45.46729" lon="4.66848">
        <ele>621.9</ele>
        <time>2014-04-19T13:43:00.949Z</time>
      </trkpt>
      <trkpt lat="45.46726" lon="4.6685">
        <ele>622</ele>
        <time>2014-04-19T13:43:01.876Z</time>
      </trkpt>
      <trkpt lat="45.4672" lon="4.66856">
        <ele>622.1</ele>
        <time>2014-04-19T13:43:03.922Z</time>
      </trkpt>
      <trkpt lat="45.46717" lon="4.66859">
        <ele>622.2</ele>
        <time>2014-04-19T13:43:04.931Z</time>
      </trkpt>
      <trkpt lat="45.46712" lon="4.66865">
        <ele>622.4</ele>
        <time>2014-04-19T13:43:06.939Z</time>
      </trkpt>
      <trkpt lat="45.46709" lon="4.66868">
        <ele>622.6</ele>
        <time>2014-04-19T13:43:07.898Z</time>
      </trkpt>
      <trkpt lat="45.46704" lon="4.66875">
        <ele>622.8</ele>
        <time>2014-04-19T13:43:09.889Z</time>
      </trkpt>
      <trkpt lat="45.46702" lon="4.66879">
        <ele>624</ele>
        <time>2014-04-19T13:43:10.875Z</time>
      </trkpt>
      <trkpt lat="45.46697" lon="4.66887">
        <ele>624.2</ele>
        <time>2014-04-19T13:43:13.196Z</time>
      </trkpt>
      <trkpt lat="45.46694" lon="4.66892">
        <ele>624.3</ele>
        <time>2014-04-19T13:43:13.910Z</time>
      </trkpt>
      <trkpt lat="45.4669" lon="4.66901">
        <ele>625.3</ele>
        <time>2014-04-19T13:43:15.929Z</time>
      </trkpt>
      <trkpt lat="45.46687" lon="4.66905">
        <ele>625.4</ele>
        <time>2014-04-19T13:43:16.863Z</time>
      </trkpt>
      <trkpt lat="45.46684" lon="4.66914">
        <ele>625.5</ele>
        <time>2014-04-19T13:43:19.213Z</time>
      </trkpt>
      <trkpt lat="45.46682" lon="4.66918">
        <ele>625.6</ele>
        <time>2014-04-19T13:43:19.888Z</time>
      </trkpt>
      <trkpt lat="45.46678" lon="4.66926">
        <ele>625.8</ele>
        <time>2014-04-19T13:43:21.917Z</time>
      </trkpt>
      <trkpt lat="45.46676" lon="4.6693">
        <ele>625.9</ele>
        <time>2014-04-19T13:43:22.891Z</time>
      </trkpt>
      <trkpt lat="45.46672" lon="4.6694">
        <ele>626.1</ele>
        <time>2014-04-19T13:43:24.946Z</time>
      </trkpt>
      <trkpt lat="45.4667" lon="4.66945">
        <ele>626.3</ele>
        <time>2014-04-19T13:43:25.854Z</time>
      </trkpt>
      <trkpt lat="45.46666" lon="4.66953">
        <ele>626.5</ele>
        <time>2014-04-19T13:43:28.029Z</time>
      </trkpt>
      <trkpt lat="45.46664" lon="4.66958">
        <ele>626.6</ele>
        <time>2014-04-19T13:43:28.897Z</time>
      </trkpt>
      <trkpt lat="45.4666" lon="4.66967">
        <ele>626.7</ele>
        <time>2014-04-19T13:43:30.928Z</time>
      </trkpt>
      <trkpt lat="45.46658" lon="4.66972">
        <ele>626.8</ele>
        <time>2014-04-19T13:43:31.867Z</time>
      </trkpt>
      <trkpt lat="45.46655" lon="4.6698">
        <ele>627</ele>
        <time>2014-04-19T13:43:34.371Z</time>
      </trkpt>
      <trkpt lat="45.46653" lon="4.66985">
        <ele>627.1</ele>
        <time>2014-04-19T13:43:34.877Z</time>
      </trkpt>
      <trkpt lat="45.4665" lon="4.66993">
        <ele>627.3</ele>
        <time>2014-04-19T13:43:36.953Z</time>
      </trkpt>
      <trkpt lat="45.46648" lon="4.66997">
        <ele>627.4</ele>
        <time>2014-04-19T13:43:37.914Z</time>
      </trkpt>
      <trkpt lat="45.46645" lon="4.67005">
        <ele>627.6</ele>
        <time>2014-04-19T13:43:39.879Z</time>
      </trkpt>
      <trkpt lat="45.46643" lon="4.6701">
        <ele>627.7</ele>
        <time>2014-04-19T13:43:40.851Z</time>
      </trkpt>
      <trkpt lat="45.4664" lon="4.67019">
        <ele>628</ele>
        <time>2014-04-19T13:43:42.958Z</time>
      </trkpt>
      <trkpt lat="45.46639" lon="4.67025">
        <ele>628.1</ele>
        <time>2014-04-19T13:43:43.859Z</time>
      </trkpt>
      <trkpt lat="45.46638" lon="4.67035">
        <ele>628.3</ele>
        <time>2014-04-19T13:43:45.982Z</time>
      </trkpt>
      <trkpt lat="45.46637" lon="4.67039">
        <ele>628.5</ele>
        <time>2014-04-19T13:43:46.868Z</time>
      </trkpt>
      <trkpt lat="45.46635" lon="4.67047">
        <ele>628.7</ele>
        <time>2014-04-19T13:43:49.694Z</time>
      </trkpt>
      <trkpt lat="45.46635" lon="4.67053">
        <ele>628.9</ele>
        <time>2014-04-19T13:43:49.850Z</time>
      </trkpt>
      <trkpt lat="45.46633" lon="4.67062">
        <ele>629.1</ele>
        <time>2014-04-19T13:43:51.953Z</time>
      </trkpt>
      <trkpt lat="45.46632" lon="4.67066">
        <ele>629.3</ele>
        <time>2014-04-19T13:43:52.861Z</time>
      </trkpt>
      <trkpt lat="45.46629" lon="4.67075">
        <ele>629.5</ele>
        <time>2014-04-19T13:43:54.896Z</time>
      </trkpt>
      <trkpt lat="45.46627" lon="4.67079">
        <ele>629.7</ele>
        <time>2014-04-19T13:43:55.889Z</time>
      </trkpt>
      <trkpt lat="45.46622" lon="4.67088">
        <ele>631</ele>
        <time>2014-04-19T13:43:58.602Z</time>
      </trkpt>
      <trkpt lat="45.4662" lon="4.67092">
        <ele>631.1</ele>
        <time>2014-04-19T13:43:58.854Z</time>
      </trkpt>
      <trkpt lat="45.46615" lon="4.671">
        <ele>633.4</ele>
        <time>2014-04-19T13:44:00.942Z</time>
      </trkpt>
      <trkpt lat="45.46613" lon="4.67104">
        <ele>633.5</ele>
        <time>2014-04-19T13:44:01.863Z</time>
      </trkpt>
      <trkpt lat="45.46608" lon="4.6711">
        <ele>633.6</ele>
        <time>2014-04-19T13:44:03.887Z</time>
      </trkpt>
      <trkpt lat="45.46604" lon="4.67113">
        <ele>633.6</ele>
        <time>2014-04-19T13:44:04.879Z</time>
      </trkpt>
      <trkpt lat="45.46597" lon="4.67117">
        <ele>633.8</ele>
        <time>2014-04-19T13:44:06.925Z</time>
      </trkpt>
      <trkpt lat="45.46593" lon="4.67118">
        <ele>633.8</ele>
        <time>2014-04-19T13:44:07.898Z</time>
      </trkpt>
      <trkpt lat="45.46586" lon="4.67118">
        <ele>633.9</ele>
        <time>2014-04-19T13:44:09.995Z</time>
      </trkpt>
      <trkpt lat="45.46582" lon="4.67117">
        <ele>633.9</ele>
        <time>2014-04-19T13:44:10.889Z</time>
      </trkpt>
      <trkpt lat="45.46576" lon="4.67114">
        <ele>634</ele>
        <time>2014-04-19T13:44:13.808Z</time>
      </trkpt>
      <trkpt lat="45.46573" lon="4.67113">
        <ele>634.1</ele>
        <time>2014-04-19T13:44:13.920Z</time>
      </trkpt>
      <trkpt lat="45.46566" lon="4.6711">
        <ele>634.1</ele>
        <time>2014-04-19T13:44:15.951Z</time>
      </trkpt>
      <trkpt lat="45.46564" lon="4.67108">
        <ele>634.1</ele>
        <time>2014-04-19T13:44:16.914Z</time>
      </trkpt>
      <trkpt lat="45.46558" lon="4.67104">
        <ele>634.3</ele>
        <time>2014-04-19T13:44:18.964Z</time>
      </trkpt>
      <trkpt lat="45.46555" lon="4.67101">
        <ele>634.4</ele>
        <time>2014-04-19T13:44:19.899Z</time>
      </trkpt>
      <trkpt lat="45.46549" lon="4.67097">
        <ele>634.6</ele>
        <time>2014-04-19T13:44:21.960Z</time>
      </trkpt>
      <trkpt lat="45.46545" lon="4.67093">
        <ele>634.6</ele>
        <time>2014-04-19T13:44:22.866Z</time>
      </trkpt>
      <trkpt lat="45.46539" lon="4.67087">
        <ele>634.8</ele>
        <time>2014-04-19T13:44:24.937Z</time>
      </trkpt>
      <trkpt lat="45.46537" lon="4.67084">
        <ele>634.9</ele>
        <time>2014-04-19T13:44:25.910Z</time>
      </trkpt>
      <trkpt lat="45.46532" lon="4.67076">
        <ele>635</ele>
        <time>2014-04-19T13:44:27.943Z</time>
      </trkpt>
      <trkpt lat="45.4653" lon="4.67071">
        <ele>635.1</ele>
        <time>2014-04-19T13:44:29.031Z</time>
      </trkpt>
      <trkpt lat="45.46526" lon="4.6706">
        <ele>635.3</ele>
        <time>2014-04-19T13:44:30.951Z</time>
      </trkpt>
      <trkpt lat="45.46524" lon="4.67055">
        <ele>636.1</ele>
        <time>2014-04-19T13:44:31.896Z</time>
      </trkpt>
      <trkpt lat="45.46521" lon="4.67044">
        <ele>637.9</ele>
        <time>2014-04-19T13:44:34.089Z</time>
      </trkpt>
      <trkpt lat="45.4652" lon="4.67039">
        <ele>638.7</ele>
        <time>2014-04-19T13:44:34.885Z</time>
      </trkpt>
      <trkpt lat="45.46518" lon="4.67028">
        <ele>639.8</ele>
        <time>2014-04-19T13:44:36.981Z</time>
      </trkpt>
      <trkpt lat="45.46517" lon="4.67022">
        <ele>640.1</ele>
        <time>2014-04-19T13:44:37.889Z</time>
      </trkpt>
      <trkpt lat="45.46515" lon="4.67012">
        <ele>640.6</ele>
        <time>2014-04-19T13:44:39.949Z</time>
      </trkpt>
      <trkpt lat="45.46515" lon="4.67007">
        <ele>640.6</ele>
        <time>2014-04-19T13:44:40.866Z</time>
      </trkpt>
      <trkpt lat="45.46515" lon="4.66996">
        <ele>641</ele>
        <time>2014-04-19T13:44:43.055Z</time>
      </trkpt>
      <trkpt lat="45.46515" lon="4.66989">
        <ele>641.9</ele>
        <time>2014-04-19T13:44:43.890Z</time>
      </trkpt>
      <trkpt lat="45.46516" lon="4.66979">
        <ele>642.1</ele>
        <time>2014-04-19T13:44:45.951Z</time>
      </trkpt>
      <trkpt lat="45.46517" lon="4.66973">
        <ele>642.1</ele>
        <time>2014-04-19T13:44:46.862Z</time>
      </trkpt>
      <trkpt lat="45.46518" lon="4.66963">
        <ele>642.4</ele>
        <time>2014-04-19T13:44:49.160Z</time>
      </trkpt>
      <trkpt lat="45.46519" lon="4.66958">
        <ele>642.5</ele>
        <time>2014-04-19T13:44:49.895Z</time>
      </trkpt>
      <trkpt lat="45.46521" lon="4.66947">
        <ele>642.6</ele>
        <time>2014-04-19T13:44:51.901Z</time>
      </trkpt>
      <trkpt lat="45.46521" lon="4.66942">
        <ele>642.7</ele>
        <time>2014-04-19T13:44:52.960Z</time>
      </trkpt>
      <trkpt lat="45.46522" lon="4.66931">
        <ele>642.8</ele>
        <time>2014-04-19T13:44:54.942Z</time>
      </trkpt>
      <trkpt lat="45.46523" lon="4.66927">
        <ele>642.9</ele>
        <time>2014-04-19T13:44:55.889Z</time>
      </trkpt>
      <trkpt lat="45.46523" lon="4.66917">
        <ele>643.2</ele>
        <time>2014-04-19T13:44:58.753Z</time>
      </trkpt>
      <trkpt lat="45.46524" lon="4.66913">
        <ele>643.3</ele>
        <time>2014-04-19T13:44:58.917Z</time>
      </trkpt>
      <trkpt lat="45.46524" lon="4.66902">
        <ele>643.7</ele>
        <time>2014-04-19T13:45:00.875Z</time>
      </trkpt>
      <trkpt lat="45.46523" lon="4.66896">
        <ele>643.9</ele>
        <time>2014-04-19T13:45:01.857Z</time>
      </trkpt>
      <trkpt lat="45.46523" lon="4.66885">
        <ele>644.1</ele>
        <time>2014-04-19T13:45:04.015Z</time>
      </trkpt>
      <trkpt lat="45.46523" lon="4.6688">
        <ele>644.3</ele>
        <time>2014-04-19T13:45:04.855Z</time>
      </trkpt>
      <trkpt lat="45.46522" lon="4.66868">
        <ele>644.5</ele>
        <time>2014-04-19T13:45:06.908Z</time>
      </trkpt>
      <trkpt lat="45.46521" lon="4.66862">
        <ele>644.5</ele>
        <time>2014-04-19T13:45:07.951Z</time>
      </trkpt>
      <trkpt lat="45.4652" lon="4.66849">
        <ele>645</ele>
        <time>2014-04-19T13:45:09.984Z</time>
      </trkpt>
      <trkpt lat="45.46519" lon="4.66843">
        <ele>645.1</ele>
        <time>2014-04-19T13:45:10.882Z</time>
      </trkpt>
      <trkpt lat="45.46519" lon="4.66835">
        <ele>644.9</ele>
        <time>2014-04-19T13:45:12.023Z</time>
      </trkpt>
      <trkpt lat="45.46518" lon="4.66829">
        <ele>644.6</ele>
        <time>2014-04-19T13:45:12.901Z</time>
      </trkpt>
      <trkpt lat="45.46517" lon="4.66817">
        <ele>644.1</ele>
        <time>2014-04-19T13:45:14.877Z</time>
      </trkpt>
      <trkpt lat="45.46516" lon="4.66811">
        <ele>643.8</ele>
        <time>2014-04-19T13:45:15.879Z</time>
      </trkpt>
      <trkpt lat="45.46516" lon="4.66804">
        <ele>643.2</ele>
        <time>2014-04-19T13:45:16.931Z</time>
      </trkpt>
      <trkpt lat="45.46515" lon="4.66797">
        <ele>642.9</ele>
        <time>2014-04-19T13:45:17.888Z</time>
      </trkpt>
      <trkpt lat="45.46514" lon="4.66785">
        <ele>642.1</ele>
        <time>2014-04-19T13:45:19.971Z</time>
      </trkpt>
      <trkpt lat="45.46514" lon="4.6678">
        <ele>641.9</ele>
        <time>2014-04-19T13:45:20.896Z</time>
      </trkpt>
      <trkpt lat="45.46514" lon="4.66768">
        <ele>641.8</ele>
        <time>2014-04-19T13:45:22.931Z</time>
      </trkpt>
      <trkpt lat="45.46514" lon="4.66763">
        <ele>641.9</ele>
        <time>2014-04-19T13:45:23.896Z</time>
      </trkpt>
      <trkpt lat="45.46514" lon="4.66752">
        <ele>642</ele>
        <time>2014-04-19T13:45:25.928Z</time>
      </trkpt>
      <trkpt lat="45.46514" lon="4.66747">
        <ele>642</ele>
        <time>2014-04-19T13:45:26.842Z</time>
      </trkpt>
      <trkpt lat="45.46514" lon="4.66735">
        <ele>642.2</ele>
        <time>2014-04-19T13:45:29.414Z</time>
      </trkpt>
      <trkpt lat="45.46514" lon="4.6673">
        <ele>642.3</ele>
        <time>2014-04-19T13:45:29.893Z</time>
      </trkpt>
      <trkpt lat="45.46515" lon="4.66719">
        <ele>642.4</ele>
        <time>2014-04-19T13:45:32.200Z</time>
      </trkpt>
      <trkpt lat="45.46516" lon="4.66714">
        <ele>642.4</ele>
        <time>2014-04-19T13:45:32.892Z</time>
      </trkpt>
      <trkpt lat="45.46517" lon="4.66701">
        <ele>642.6</ele>
        <time>2014-04-19T13:45:35.937Z</time>
      </trkpt>
      <trkpt lat="45.46518" lon="4.66696">
        <ele>642.6</ele>
        <time>2014-04-19T13:45:36.904Z</time>
      </trkpt>
      <trkpt lat="45.46519" lon="4.66687">
        <ele>642.7</ele>
        <time>2014-04-19T13:45:39.663Z</time>
      </trkpt>
      <trkpt lat="45.4652" lon="4.66682">
        <ele>642.7</ele>
        <time>2014-04-19T13:45:39.857Z</time>
      </trkpt>
      <trkpt lat="45.46521" lon="4.66674">
        <ele>642.8</ele>
        <time>2014-04-19T13:45:41.885Z</time>
      </trkpt>
      <trkpt lat="45.46522" lon="4.66669">
        <ele>642.9</ele>
        <time>2014-04-19T13:45:42.900Z</time>
      </trkpt>
      <trkpt lat="45.46523" lon="4.6666">
        <ele>643</ele>
        <time>2014-04-19T13:45:45.204Z</time>
      </trkpt>
      <trkpt lat="45.46524" lon="4.66656">
        <ele>643</ele>
        <time>2014-04-19T13:45:45.895Z</time>
      </trkpt>
      <trkpt lat="45.46525" lon="4.66647">
        <ele>643.2</ele>
        <time>2014-04-19T13:45:47.968Z</time>
      </trkpt>
      <trkpt lat="45.46526" lon="4.66642">
        <ele>643.3</ele>
        <time>2014-04-19T13:45:48.931Z</time>
      </trkpt>
      <trkpt lat="45.46527" lon="4.66632">
        <ele>643.5</ele>
        <time>2014-04-19T13:45:50.923Z</time>
      </trkpt>
      <trkpt lat="45.46528" lon="4.66628">
        <ele>643.5</ele>
        <time>2014-04-19T13:45:51.900Z</time>
      </trkpt>
      <trkpt lat="45.4653" lon="4.66615">
        <ele>644</ele>
        <time>2014-04-19T13:45:54.936Z</time>
      </trkpt>
      <trkpt lat="45.46531" lon="4.66611">
        <ele>644.1</ele>
        <time>2014-04-19T13:45:55.907Z</time>
      </trkpt>
      <trkpt lat="45.46532" lon="4.66602">
        <ele>644.4</ele>
        <time>2014-04-19T13:45:58.605Z</time>
      </trkpt>
      <trkpt lat="45.46532" lon="4.66597">
        <ele>644.5</ele>
        <time>2014-04-19T13:45:58.863Z</time>
      </trkpt>
      <trkpt lat="45.46534" lon="4.66587">
        <ele>644.7</ele>
        <time>2014-04-19T13:46:00.934Z</time>
      </trkpt>
      <trkpt lat="45.46534" lon="4.66583">
        <ele>644.9</ele>
        <time>2014-04-19T13:46:01.900Z</time>
      </trkpt>
      <trkpt lat="45.46536" lon="4.66572">
        <ele>645.2</ele>
        <time>2014-04-19T13:46:03.912Z</time>
      </trkpt>
      <trkpt lat="45.46537" lon="4.66567">
        <ele>645.4</ele>
        <time>2014-04-19T13:46:04.863Z</time>
      </trkpt>
      <trkpt lat="45.46538" lon="4.66555">
        <ele>645.8</ele>
        <time>2014-04-19T13:46:08.735Z</time>
      </trkpt>
      <trkpt lat="45.46539" lon="4.66551">
        <ele>646</ele>
        <time>2014-04-19T13:46:08.873Z</time>
      </trkpt>
      <trkpt lat="45.4654" lon="4.6654">
        <ele>646.7</ele>
        <time>2014-04-19T13:46:12.272Z</time>
      </trkpt>
      <trkpt lat="45.4654" lon="4.66535">
        <ele>647</ele>
        <time>2014-04-19T13:46:12.899Z</time>
      </trkpt>
      <trkpt lat="45.46537" lon="4.66524">
        <ele>647.5</ele>
        <time>2014-04-19T13:46:14.997Z</time>
      </trkpt>
      <trkpt lat="45.46535" lon="4.6652">
        <ele>647.8</ele>
        <time>2014-04-19T13:46:15.919Z</time>
      </trkpt>
      <trkpt lat="45.46527" lon="4.66513">
        <ele>648.2</ele>
        <time>2014-04-19T13:46:18.820Z</time>
      </trkpt>
      <trkpt lat="45.46525" lon="4.66512">
        <ele>648.3</ele>
        <time>2014-04-19T13:46:18.929Z</time>
      </trkpt>
      <trkpt lat="45.46517" lon="4.66517">
        <ele>649.1</ele>
        <time>2014-04-19T13:46:23.952Z</time>
      </trkpt>
      <trkpt lat="45.46515" lon="4.66525">
        <ele>649.7</ele>
        <time>2014-04-19T13:46:24.910Z</time>
      </trkpt>
      <trkpt lat="45.46515" lon="4.66533">
        <ele>650.3</ele>
        <time>2014-04-19T13:46:26.989Z</time>
      </trkpt>
      <trkpt lat="45.46515" lon="4.66539">
        <ele>650.6</ele>
        <time>2014-04-19T13:46:27.897Z</time>
      </trkpt>
      <trkpt lat="45.46514" lon="4.66549">
        <ele>651.3</ele>
        <time>2014-04-19T13:46:29.944Z</time>
      </trkpt>
      <trkpt lat="45.46514" lon="4.66557">
        <ele>651.5</ele>
        <time>2014-04-19T13:46:30.903Z</time>
      </trkpt>
      <trkpt lat="45.46512" lon="4.66568">
        <ele>652.1</ele>
        <time>2014-04-19T13:46:32.969Z</time>
      </trkpt>
      <trkpt lat="45.46511" lon="4.66576">
        <ele>652.3</ele>
        <time>2014-04-19T13:46:33.891Z</time>
      </trkpt>
      <trkpt lat="45.46509" lon="4.66586">
        <ele>652.8</ele>
        <time>2014-04-19T13:46:35.962Z</time>
      </trkpt>
      <trkpt lat="45.46508" lon="4.6659">
        <ele>653.1</ele>
        <time>2014-04-19T13:46:36.897Z</time>
      </trkpt>
      <trkpt lat="45.46506" lon="4.66601">
        <ele>653.9</ele>
        <time>2014-04-19T13:46:39.912Z</time>
      </trkpt>
      <trkpt lat="45.46504" lon="4.66604">
        <ele>654.2</ele>
        <time>2014-04-19T13:46:40.903Z</time>
      </trkpt>
      <trkpt lat="45.46501" lon="4.66612">
        <ele>654.9</ele>
        <time>2014-04-19T13:46:42.950Z</time>
      </trkpt>
      <trkpt lat="45.465" lon="4.66616">
        <ele>655.3</ele>
        <time>2014-04-19T13:46:43.889Z</time>
      </trkpt>
      <trkpt lat="45.46497" lon="4.66627">
        <ele>656.3</ele>
        <time>2014-04-19T13:46:46.920Z</time>
      </trkpt>
      <trkpt lat="45.46495" lon="4.66632">
        <ele>656.6</ele>
        <time>2014-04-19T13:46:47.860Z</time>
      </trkpt>
      <trkpt lat="45.46493" lon="4.66638">
        <ele>656.9</ele>
        <time>2014-04-19T13:46:49.192Z</time>
      </trkpt>
      <trkpt lat="45.46491" lon="4.66644">
        <ele>657.1</ele>
        <time>2014-04-19T13:46:49.856Z</time>
      </trkpt>
      <trkpt lat="45.46488" lon="4.66655">
        <ele>657.7</ele>
        <time>2014-04-19T13:46:52.103Z</time>
      </trkpt>
      <trkpt lat="45.46486" lon="4.6666">
        <ele>658</ele>
        <time>2014-04-19T13:46:52.856Z</time>
      </trkpt>
      <trkpt lat="45.46483" lon="4.66669">
        <ele>658.6</ele>
        <time>2014-04-19T13:46:54.973Z</time>
      </trkpt>
      <trkpt lat="45.46481" lon="4.66674">
        <ele>659</ele>
        <time>2014-04-19T13:46:55.893Z</time>
      </trkpt>
      <trkpt lat="45.46477" lon="4.66684">
        <ele>659.8</ele>
        <time>2014-04-19T13:46:58.884Z</time>
      </trkpt>
      <trkpt lat="45.46475" lon="4.66688">
        <ele>660.1</ele>
        <time>2014-04-19T13:46:59.891Z</time>
      </trkpt>
      <trkpt lat="45.46473" lon="4.66698">
        <ele>660.4</ele>
        <time>2014-04-19T13:47:02.090Z</time>
      </trkpt>
      <trkpt lat="45.46471" lon="4.66703">
        <ele>660.5</ele>
        <time>2014-04-19T13:47:02.911Z</time>
      </trkpt>
      <trkpt lat="45.46468" lon="4.66712">
        <ele>660.7</ele>
        <time>2014-04-19T13:47:04.958Z</time>
      </trkpt>
      <trkpt lat="45.46466" lon="4.66717">
        <ele>660.8</ele>
        <time>2014-04-19T13:47:05.861Z</time>
      </trkpt>
      <trkpt lat="45.46462" lon="4.66724">
        <ele>661.1</ele>
        <time>2014-04-19T13:47:08.771Z</time>
      </trkpt>
      <trkpt lat="45.46459" lon="4.66729">
        <ele>661.3</ele>
        <time>2014-04-19T13:47:08.898Z</time>
      </trkpt>
      <trkpt lat="45.46454" lon="4.66738">
        <ele>661.6</ele>
        <time>2014-04-19T13:47:10.924Z</time>
      </trkpt>
      <trkpt lat="45.46452" lon="4.66743">
        <ele>661.7</ele>
        <time>2014-04-19T13:47:11.897Z</time>
      </trkpt>
      <trkpt lat="45.46448" lon="4.66752">
        <ele>662.1</ele>
        <time>2014-04-19T13:47:14.024Z</time>
      </trkpt>
      <trkpt lat="45.46446" lon="4.66756">
        <ele>662.2</ele>
        <time>2014-04-19T13:47:14.906Z</time>
      </trkpt>
      <trkpt lat="45.46442" lon="4.66764">
        <ele>662.6</ele>
        <time>2014-04-19T13:47:16.989Z</time>
      </trkpt>
      <trkpt lat="45.46441" lon="4.66768">
        <ele>662.7</ele>
        <time>2014-04-19T13:47:17.862Z</time>
      </trkpt>
      <trkpt lat="45.46436" lon="4.66779">
        <ele>663</ele>
        <time>2014-04-19T13:47:20.904Z</time>
      </trkpt>
      <trkpt lat="45.46435" lon="4.66784">
        <ele>663.1</ele>
        <time>2014-04-19T13:47:21.902Z</time>
      </trkpt>
      <trkpt lat="45.46432" lon="4.66793">
        <ele>663.3</ele>
        <time>2014-04-19T13:47:24.136Z</time>
      </trkpt>
      <trkpt lat="45.4643" lon="4.66798">
        <ele>663.5</ele>
        <time>2014-04-19T13:47:24.894Z</time>
      </trkpt>
      <trkpt lat="45.46428" lon="4.66808">
        <ele>664.1</ele>
        <time>2014-04-19T13:47:26.884Z</time>
      </trkpt>
      <trkpt lat="45.46427" lon="4.66812">
        <ele>664.4</ele>
        <time>2014-04-19T13:47:27.854Z</time>
      </trkpt>
      <trkpt lat="45.46426" lon="4.66822">
        <ele>664.9</ele>
        <time>2014-04-19T13:47:30.022Z</time>
      </trkpt>
      <trkpt lat="45.46426" lon="4.66826">
        <ele>665.1</ele>
        <time>2014-04-19T13:47:30.902Z</time>
      </trkpt>
      <trkpt lat="45.46425" lon="4.66836">
        <ele>666</ele>
        <time>2014-04-19T13:47:34.265Z</time>
      </trkpt>
      <trkpt lat="45.46424" lon="4.66842">
        <ele>666.3</ele>
        <time>2014-04-19T13:47:34.872Z</time>
      </trkpt>
      <trkpt lat="45.46424" lon="4.66853">
        <ele>667</ele>
        <time>2014-04-19T13:47:36.971Z</time>
      </trkpt>
      <trkpt lat="45.46423" lon="4.66859">
        <ele>667.3</ele>
        <time>2014-04-19T13:47:37.907Z</time>
      </trkpt>
      <trkpt lat="45.46423" lon="4.66869">
        <ele>667.7</ele>
        <time>2014-04-19T13:47:39.903Z</time>
      </trkpt>
      <trkpt lat="45.46422" lon="4.66874">
        <ele>667.9</ele>
        <time>2014-04-19T13:47:40.902Z</time>
      </trkpt>
      <trkpt lat="45.46421" lon="4.66885">
        <ele>668.2</ele>
        <time>2014-04-19T13:47:42.906Z</time>
      </trkpt>
      <trkpt lat="45.46421" lon="4.66891">
        <ele>668.3</ele>
        <time>2014-04-19T13:47:43.903Z</time>
      </trkpt>
      <trkpt lat="45.46421" lon="4.66899">
        <ele>668.5</ele>
        <time>2014-04-19T13:47:46.172Z</time>
      </trkpt>
      <trkpt lat="45.46421" lon="4.66905">
        <ele>668.6</ele>
        <time>2014-04-19T13:47:46.904Z</time>
      </trkpt>
      <trkpt lat="45.4642" lon="4.66915">
        <ele>668.9</ele>
        <time>2014-04-19T13:47:49.491Z</time>
      </trkpt>
      <trkpt lat="45.46419" lon="4.6692">
        <ele>669</ele>
        <time>2014-04-19T13:47:49.890Z</time>
      </trkpt>
      <trkpt lat="45.46417" lon="4.66932">
        <ele>669.4</ele>
        <time>2014-04-19T13:47:53.666Z</time>
      </trkpt>
      <trkpt lat="45.46416" lon="4.66936">
        <ele>669.5</ele>
        <time>2014-04-19T13:47:53.853Z</time>
      </trkpt>
      <trkpt lat="45.46414" lon="4.66943">
        <ele>669.8</ele>
        <time>2014-04-19T13:47:55.932Z</time>
      </trkpt>
      <trkpt lat="45.46413" lon="4.66948">
        <ele>669.9</ele>
        <time>2014-04-19T13:47:56.892Z</time>
      </trkpt>
      <trkpt lat="45.4641" lon="4.66958">
        <ele>670.2</ele>
        <time>2014-04-19T13:48:00.236Z</time>
      </trkpt>
      <trkpt lat="45.4641" lon="4.66962">
        <ele>670.3</ele>
        <time>2014-04-19T13:48:00.912Z</time>
      </trkpt>
      <trkpt lat="45.46408" lon="4.66971">
        <ele>670.6</ele>
        <time>2014-04-19T13:48:02.885Z</time>
      </trkpt>
      <trkpt lat="45.46407" lon="4.66975">
        <ele>670.7</ele>
        <time>2014-04-19T13:48:04.036Z</time>
      </trkpt>
      <trkpt lat="45.46405" lon="4.66986">
        <ele>671.2</ele>
        <time>2014-04-19T13:48:06.185Z</time>
      </trkpt>
      <trkpt lat="45.46404" lon="4.66991">
        <ele>671.4</ele>
        <time>2014-04-19T13:48:06.905Z</time>
      </trkpt>
      <trkpt lat="45.46402" lon="4.67001">
        <ele>671.8</ele>
        <time>2014-04-19T13:48:09.355Z</time>
      </trkpt>
      <trkpt lat="45.46401" lon="4.67006">
        <ele>672</ele>
        <time>2014-04-19T13:48:09.846Z</time>
      </trkpt>
      <trkpt lat="45.46401" lon="4.67015">
        <ele>672.4</ele>
        <time>2014-04-19T13:48:11.937Z</time>
      </trkpt>
      <trkpt lat="45.46401" lon="4.6702">
        <ele>672.5</ele>
        <time>2014-04-19T13:48:12.879Z</time>
      </trkpt>
      <trkpt lat="45.464" lon="4.6703">
        <ele>672.8</ele>
        <time>2014-04-19T13:48:14.911Z</time>
      </trkpt>
      <trkpt lat="45.464" lon="4.67036">
        <ele>672.9</ele>
        <time>2014-04-19T13:48:15.880Z</time>
      </trkpt>
      <trkpt lat="45.46399" lon="4.67045">
        <ele>673</ele>
        <time>2014-04-19T13:48:17.926Z</time>
      </trkpt>
      <trkpt lat="45.46398" lon="4.6705">
        <ele>673.1</ele>
        <time>2014-04-19T13:48:18.904Z</time>
      </trkpt>
      <trkpt lat="45.46397" lon="4.67061">
        <ele>673.2</ele>
        <time>2014-04-19T13:48:20.948Z</time>
      </trkpt>
      <trkpt lat="45.46397" lon="4.67066">
        <ele>673.3</ele>
        <time>2014-04-19T13:48:21.858Z</time>
      </trkpt>
      <trkpt lat="45.46396" lon="4.67078">
        <ele>673.3</ele>
        <time>2014-04-19T13:48:24.514Z</time>
      </trkpt>
      <trkpt lat="45.46395" lon="4.67082">
        <ele>673.4</ele>
        <time>2014-04-19T13:48:24.861Z</time>
      </trkpt>
      <trkpt lat="45.46395" lon="4.6709">
        <ele>673.6</ele>
        <time>2014-04-19T13:48:26.949Z</time>
      </trkpt>
      <trkpt lat="45.46394" lon="4.67095">
        <ele>673.7</ele>
        <time>2014-04-19T13:48:27.931Z</time>
      </trkpt>
      <trkpt lat="45.46394" lon="4.67106">
        <ele>674</ele>
        <time>2014-04-19T13:48:29.968Z</time>
      </trkpt>
      <trkpt lat="45.46394" lon="4.67112">
        <ele>674.1</ele>
        <time>2014-04-19T13:48:30.859Z</time>
      </trkpt>
      <trkpt lat="45.46394" lon="4.67122">
        <ele>674.3</ele>
        <time>2014-04-19T13:48:32.939Z</time>
      </trkpt>
      <trkpt lat="45.46395" lon="4.67127">
        <ele>674.5</ele>
        <time>2014-04-19T13:48:33.894Z</time>
      </trkpt>
      <trkpt lat="45.46396" lon="4.67136">
        <ele>674.8</ele>
        <time>2014-04-19T13:48:35.939Z</time>
      </trkpt>
      <trkpt lat="45.46396" lon="4.67141">
        <ele>675</ele>
        <time>2014-04-19T13:48:36.912Z</time>
      </trkpt>
      <trkpt lat="45.46398" lon="4.67152">
        <ele>675.2</ele>
        <time>2014-04-19T13:48:39.618Z</time>
      </trkpt>
      <trkpt lat="45.46399" lon="4.67157">
        <ele>675.3</ele>
        <time>2014-04-19T13:48:39.862Z</time>
      </trkpt>
      <trkpt lat="45.46401" lon="4.67167">
        <ele>675.6</ele>
        <time>2014-04-19T13:48:41.886Z</time>
      </trkpt>
      <trkpt lat="45.46402" lon="4.67173">
        <ele>675.7</ele>
        <time>2014-04-19T13:48:42.894Z</time>
      </trkpt>
      <trkpt lat="45.46403" lon="4.67184">
        <ele>675.9</ele>
        <time>2014-04-19T13:48:45.139Z</time>
      </trkpt>
      <trkpt lat="45.46404" lon="4.6719">
        <ele>676</ele>
        <time>2014-04-19T13:48:45.904Z</time>
      </trkpt>
      <trkpt lat="45.46405" lon="4.67199">
        <ele>676.4</ele>
        <time>2014-04-19T13:48:48.213Z</time>
      </trkpt>
      <trkpt lat="45.46405" lon="4.67203">
        <ele>676.5</ele>
        <time>2014-04-19T13:48:48.911Z</time>
      </trkpt>
      <trkpt lat="45.46406" lon="4.67209">
        <ele>676.7</ele>
        <time>2014-04-19T13:48:49.920Z</time>
      </trkpt>
      <trkpt lat="45.46406" lon="4.67216">
        <ele>678.1</ele>
        <time>2014-04-19T13:48:50.884Z</time>
      </trkpt>
      <trkpt lat="45.46407" lon="4.67228">
        <ele>678.3</ele>
        <time>2014-04-19T13:48:53.713Z</time>
      </trkpt>
      <trkpt lat="45.46408" lon="4.67233">
        <ele>679.3</ele>
        <time>2014-04-19T13:48:53.855Z</time>
      </trkpt>
      <trkpt lat="45.46408" lon="4.67245">
        <ele>679.4</ele>
        <time>2014-04-19T13:48:55.968Z</time>
      </trkpt>
      <trkpt lat="45.46408" lon="4.6725">
        <ele>679.5</ele>
        <time>2014-04-19T13:48:56.929Z</time>
      </trkpt>
      <trkpt lat="45.46408" lon="4.67261">
        <ele>679.6</ele>
        <time>2014-04-19T13:48:59.189Z</time>
      </trkpt>
      <trkpt lat="45.46407" lon="4.67266">
        <ele>679.7</ele>
        <time>2014-04-19T13:48:59.899Z</time>
      </trkpt>
      <trkpt lat="45.46406" lon="4.67277">
        <ele>679.8</ele>
        <time>2014-04-19T13:49:01.917Z</time>
      </trkpt>
      <trkpt lat="45.46406" lon="4.67282">
        <ele>679.8</ele>
        <time>2014-04-19T13:49:02.894Z</time>
      </trkpt>
      <trkpt lat="45.46405" lon="4.67293">
        <ele>679.9</ele>
        <time>2014-04-19T13:49:04.957Z</time>
      </trkpt>
      <trkpt lat="45.46404" lon="4.67298">
        <ele>680.5</ele>
        <time>2014-04-19T13:49:05.863Z</time>
      </trkpt>
      <trkpt lat="45.46404" lon="4.67309">
        <ele>681</ele>
        <time>2014-04-19T13:49:07.943Z</time>
      </trkpt>
      <trkpt lat="45.46403" lon="4.67315">
        <ele>681.3</ele>
        <time>2014-04-19T13:49:08.955Z</time>
      </trkpt>
      <trkpt lat="45.46403" lon="4.67326">
        <ele>681.9</ele>
        <time>2014-04-19T13:49:10.946Z</time>
      </trkpt>
      <trkpt lat="45.46403" lon="4.67331">
        <ele>682.2</ele>
        <time>2014-04-19T13:49:11.903Z</time>
      </trkpt>
      <trkpt lat="45.46404" lon="4.67342">
        <ele>682.2</ele>
        <time>2014-04-19T13:49:14.124Z</time>
      </trkpt>
      <trkpt lat="45.46405" lon="4.67347">
        <ele>682.4</ele>
        <time>2014-04-19T13:49:14.854Z</time>
      </trkpt>
      <trkpt lat="45.46406" lon="4.67357">
        <ele>683</ele>
        <time>2014-04-19T13:49:16.962Z</time>
      </trkpt>
      <trkpt lat="45.46406" lon="4.67362">
        <ele>683.1</ele>
        <time>2014-04-19T13:49:17.894Z</time>
      </trkpt>
      <trkpt lat="45.46408" lon="4.67372">
        <ele>683.2</ele>
        <time>2014-04-19T13:49:19.968Z</time>
      </trkpt>
      <trkpt lat="45.46409" lon="4.67377">
        <ele>683.3</ele>
        <time>2014-04-19T13:49:20.906Z</time>
      </trkpt>
      <trkpt lat="45.46411" lon="4.67387">
        <ele>683.4</ele>
        <time>2014-04-19T13:49:22.899Z</time>
      </trkpt>
      <trkpt lat="45.46412" lon="4.67393">
        <ele>683.5</ele>
        <time>2014-04-19T13:49:23.894Z</time>
      </trkpt>
      <trkpt lat="45.46413" lon="4.67404">
        <ele>683.7</ele>
        <time>2014-04-19T13:49:25.956Z</time>
      </trkpt>
      <trkpt lat="45.46414" lon="4.67408">
        <ele>683.8</ele>
        <time>2014-04-19T13:49:26.905Z</time>
      </trkpt>
      <trkpt lat="45.46416" lon="4.67418">
        <ele>684</ele>
        <time>2014-04-19T13:49:29.266Z</time>
      </trkpt>
      <trkpt lat="45.46417" lon="4.67423">
        <ele>684.2</ele>
        <time>2014-04-19T13:49:29.906Z</time>
      </trkpt>
      <trkpt lat="45.46419" lon="4.67434">
        <ele>685.4</ele>
        <time>2014-04-19T13:49:31.960Z</time>
      </trkpt>
      <trkpt lat="45.4642" lon="4.67439">
        <ele>685.5</ele>
        <time>2014-04-19T13:49:32.895Z</time>
      </trkpt>
      <trkpt lat="45.46422" lon="4.67449">
        <ele>685.8</ele>
        <time>2014-04-19T13:49:34.949Z</time>
      </trkpt>
      <trkpt lat="45.46423" lon="4.67454">
        <ele>687.2</ele>
        <time>2014-04-19T13:49:35.882Z</time>
      </trkpt>
      <trkpt lat="45.46424" lon="4.67463">
        <ele>688.9</ele>
        <time>2014-04-19T13:49:38.004Z</time>
      </trkpt>
      <trkpt lat="45.46425" lon="4.67469">
        <ele>689</ele>
        <time>2014-04-19T13:49:38.909Z</time>
      </trkpt>
      <trkpt lat="45.46426" lon="4.6748">
        <ele>689.7</ele>
        <time>2014-04-19T13:49:40.965Z</time>
      </trkpt>
      <trkpt lat="45.46427" lon="4.67486">
        <ele>689.7</ele>
        <time>2014-04-19T13:49:41.853Z</time>
      </trkpt>
      <trkpt lat="45.46428" lon="4.67497">
        <ele>689.8</ele>
        <time>2014-04-19T13:49:44.371Z</time>
      </trkpt>
      <trkpt lat="45.46428" lon="4.67503">
        <ele>690.5</ele>
        <time>2014-04-19T13:49:44.896Z</time>
      </trkpt>
      <trkpt lat="45.46429" lon="4.67515">
        <ele>691.5</ele>
        <time>2014-04-19T13:49:46.976Z</time>
      </trkpt>
      <trkpt lat="45.46429" lon="4.67522">
        <ele>691.8</ele>
        <time>2014-04-19T13:49:47.896Z</time>
      </trkpt>
      <trkpt lat="45.4643" lon="4.67534">
        <ele>692.1</ele>
        <time>2014-04-19T13:49:49.888Z</time>
      </trkpt>
      <trkpt lat="45.46431" lon="4.6754">
        <ele>692.6</ele>
        <time>2014-04-19T13:49:50.864Z</time>
      </trkpt>
      <trkpt lat="45.46431" lon="4.67551">
        <ele>693.4</ele>
        <time>2014-04-19T13:49:52.906Z</time>
      </trkpt>
      <trkpt lat="45.46432" lon="4.67557">
        <ele>693.8</ele>
        <time>2014-04-19T13:49:53.920Z</time>
      </trkpt>
      <trkpt lat="45.46433" lon="4.67568">
        <ele>694.1</ele>
        <time>2014-04-19T13:49:55.966Z</time>
      </trkpt>
      <trkpt lat="45.46433" lon="4.67573">
        <ele>694.4</ele>
        <time>2014-04-19T13:49:56.898Z</time>
      </trkpt>
      <trkpt lat="45.46434" lon="4.67583">
        <ele>695.3</ele>
        <time>2014-04-19T13:49:59.211Z</time>
      </trkpt>
      <trkpt lat="45.46434" lon="4.67588">
        <ele>695.6</ele>
        <time>2014-04-19T13:49:59.914Z</time>
      </trkpt>
      <trkpt lat="45.46435" lon="4.676">
        <ele>696.1</ele>
        <time>2014-04-19T13:50:01.907Z</time>
      </trkpt>
      <trkpt lat="45.46436" lon="4.67606">
        <ele>696.3</ele>
        <time>2014-04-19T13:50:02.896Z</time>
      </trkpt>
      <trkpt lat="45.46437" lon="4.67617">
        <ele>696.6</ele>
        <time>2014-04-19T13:50:04.972Z</time>
      </trkpt>
      <trkpt lat="45.46437" lon="4.67622">
        <ele>696.9</ele>
        <time>2014-04-19T13:50:05.904Z</time>
      </trkpt>
      <trkpt lat="45.46438" lon="4.67633">
        <ele>697.6</ele>
        <time>2014-04-19T13:50:07.884Z</time>
      </trkpt>
      <trkpt lat="45.46438" lon="4.67638">
        <ele>697.8</ele>
        <time>2014-04-19T13:50:08.894Z</time>
      </trkpt>
      <trkpt lat="45.46439" lon="4.6765">
        <ele>697.6</ele>
        <time>2014-04-19T13:50:10.966Z</time>
      </trkpt>
      <trkpt lat="45.46439" lon="4.67656">
        <ele>697.5</ele>
        <time>2014-04-19T13:50:11.882Z</time>
      </trkpt>
      <trkpt lat="45.4644" lon="4.67667">
        <ele>697.5</ele>
        <time>2014-04-19T13:50:13.953Z</time>
      </trkpt>
      <trkpt lat="45.46441" lon="4.67673">
        <ele>697.4</ele>
        <time>2014-04-19T13:50:14.906Z</time>
      </trkpt>
      <trkpt lat="45.46442" lon="4.67685">
        <ele>697.5</ele>
        <time>2014-04-19T13:50:16.924Z</time>
      </trkpt>
      <trkpt lat="45.46443" lon="4.67691">
        <ele>697.9</ele>
        <time>2014-04-19T13:50:17.859Z</time>
      </trkpt>
      <trkpt lat="45.46444" lon="4.67702">
        <ele>698.7</ele>
        <time>2014-04-19T13:50:20.117Z</time>
      </trkpt>
      <trkpt lat="45.46445" lon="4.67708">
        <ele>699</ele>
        <time>2014-04-19T13:50:21.180Z</time>
      </trkpt>
      <trkpt lat="45.46446" lon="4.6772">
        <ele>699.2</ele>
        <time>2014-04-19T13:50:22.965Z</time>
      </trkpt>
      <trkpt lat="45.46447" lon="4.67725">
        <ele>699.2</ele>
        <time>2014-04-19T13:50:23.850Z</time>
      </trkpt>
      <trkpt lat="45.46448" lon="4.67736">
        <ele>700</ele>
        <time>2014-04-19T13:50:25.935Z</time>
      </trkpt>
      <trkpt lat="45.46449" lon="4.67741">
        <ele>700.7</ele>
        <time>2014-04-19T13:50:26.881Z</time>
      </trkpt>
      <trkpt lat="45.46449" lon="4.6775">
        <ele>701.4</ele>
        <time>2014-04-19T13:50:29.312Z</time>
      </trkpt>
      <trkpt lat="45.46449" lon="4.67754">
        <ele>701.5</ele>
        <time>2014-04-19T13:50:29.899Z</time>
      </trkpt>
      <trkpt lat="45.4645" lon="4.67763">
        <ele>701.6</ele>
        <time>2014-04-19T13:50:31.951Z</time>
      </trkpt>
      <trkpt lat="45.4645" lon="4.67768">
        <ele>701.7</ele>
        <time>2014-04-19T13:50:32.889Z</time>
      </trkpt>
      <trkpt lat="45.46451" lon="4.67778">
        <ele>701.9</ele>
        <time>2014-04-19T13:50:35.606Z</time>
      </trkpt>
      <trkpt lat="45.46451" lon="4.67783">
        <ele>702</ele>
        <time>2014-04-19T13:50:35.853Z</time>
      </trkpt>
      <trkpt lat="45.46451" lon="4.67795">
        <ele>702.3</ele>
        <time>2014-04-19T13:50:39.357Z</time>
      </trkpt>
      <trkpt lat="45.46451" lon="4.67797">
        <ele>702.3</ele>
        <time>2014-04-19T13:50:39.853Z</time>
      </trkpt>
      <trkpt lat="45.4645" lon="4.67808">
        <ele>702.6</ele>
        <time>2014-04-19T13:50:42.900Z</time>
      </trkpt>
      <trkpt lat="45.4645" lon="4.67813">
        <ele>702.7</ele>
        <time>2014-04-19T13:50:43.846Z</time>
      </trkpt>
      <trkpt lat="45.46449" lon="4.67822">
        <ele>702.9</ele>
        <time>2014-04-19T13:50:45.974Z</time>
      </trkpt>
      <trkpt lat="45.46448" lon="4.67826">
        <ele>703</ele>
        <time>2014-04-19T13:50:46.857Z</time>
      </trkpt>
      <trkpt lat="45.46444" lon="4.67836">
        <ele>703.3</ele>
        <time>2014-04-19T13:50:49.887Z</time>
      </trkpt>
      <trkpt lat="45.46442" lon="4.67839">
        <ele>703.4</ele>
        <time>2014-04-19T13:50:50.892Z</time>
      </trkpt>
      <trkpt lat="45.46437" lon="4.67845">
        <ele>703.6</ele>
        <time>2014-04-19T13:50:53.594Z</time>
      </trkpt>
      <trkpt lat="45.46435" lon="4.67848">
        <ele>703.7</ele>
        <time>2014-04-19T13:50:53.857Z</time>
      </trkpt>
      <trkpt lat="45.46428" lon="4.67853">
        <ele>703.9</ele>
        <time>2014-04-19T13:50:55.891Z</time>
      </trkpt>
      <trkpt lat="45.46425" lon="4.67855">
        <ele>704</ele>
        <time>2014-04-19T13:50:56.884Z</time>
      </trkpt>
      <trkpt lat="45.46418" lon="4.67863">
        <ele>705</ele>
        <time>2014-04-19T13:50:58.894Z</time>
      </trkpt>
      <trkpt lat="45.46414" lon="4.67866">
        <ele>705.3</ele>
        <time>2014-04-19T13:50:59.896Z</time>
      </trkpt>
      <trkpt lat="45.46411" lon="4.6787">
        <ele>705.1</ele>
        <time>2014-04-19T13:51:00.887Z</time>
      </trkpt>
      <trkpt lat="45.46407" lon="4.67874">
        <ele>704.7</ele>
        <time>2014-04-19T13:51:01.852Z</time>
      </trkpt>
      <trkpt lat="45.46403" lon="4.67879">
        <ele>704.3</ele>
        <time>2014-04-19T13:51:03.649Z</time>
      </trkpt>
      <trkpt lat="45.464" lon="4.67883">
        <ele>703.9</ele>
        <time>2014-04-19T13:51:03.848Z</time>
      </trkpt>
      <trkpt lat="45.46392" lon="4.6789">
        <ele>703.3</ele>
        <time>2014-04-19T13:51:05.926Z</time>
      </trkpt>
      <trkpt lat="45.46389" lon="4.67894">
        <ele>703.1</ele>
        <time>2014-04-19T13:51:06.861Z</time>
      </trkpt>
      <trkpt lat="45.46384" lon="4.67898">
        <ele>702.9</ele>
        <time>2014-04-19T13:51:08.696Z</time>
      </trkpt>
      <trkpt lat="45.4638" lon="4.67902">
        <ele>702.9</ele>
        <time>2014-04-19T13:51:08.854Z</time>
      </trkpt>
      <trkpt lat="45.46373" lon="4.67909">
        <ele>703.2</ele>
        <time>2014-04-19T13:51:10.936Z</time>
      </trkpt>
      <trkpt lat="45.46369" lon="4.67912">
        <ele>703.3</ele>
        <time>2014-04-19T13:51:11.885Z</time>
      </trkpt>
      <trkpt lat="45.46365" lon="4.67917">
        <ele>703.5</ele>
        <time>2014-04-19T13:51:12.940Z</time>
      </trkpt>
      <trkpt lat="45.4636" lon="4.67922">
        <ele>703.7</ele>
        <time>2014-04-19T13:51:13.857Z</time>
      </trkpt>
      <trkpt lat="45.46355" lon="4.67926">
        <ele>703.9</ele>
        <time>2014-04-19T13:51:14.903Z</time>
      </trkpt>
      <trkpt lat="45.46351" lon="4.67932">
        <ele>704.3</ele>
        <time>2014-04-19T13:51:15.922Z</time>
      </trkpt>
      <trkpt lat="45.46347" lon="4.67936">
        <ele>704.2</ele>
        <time>2014-04-19T13:51:17.185Z</time>
      </trkpt>
      <trkpt lat="45.46343" lon="4.67941">
        <ele>704.1</ele>
        <time>2014-04-19T13:51:17.853Z</time>
      </trkpt>
      <trkpt lat="45.46339" lon="4.67945">
        <ele>704.3</ele>
        <time>2014-04-19T13:51:18.974Z</time>
      </trkpt>
      <trkpt lat="45.46336" lon="4.67949">
        <ele>704.4</ele>
        <time>2014-04-19T13:51:19.858Z</time>
      </trkpt>
      <trkpt lat="45.46331" lon="4.67954">
        <ele>705</ele>
        <time>2014-04-19T13:51:20.979Z</time>
      </trkpt>
      <trkpt lat="45.46327" lon="4.67959">
        <ele>705.7</ele>
        <time>2014-04-19T13:51:21.902Z</time>
      </trkpt>
      <trkpt lat="45.46323" lon="4.67963">
        <ele>706.6</ele>
        <time>2014-04-19T13:51:22.884Z</time>
      </trkpt>
      <trkpt lat="45.46318" lon="4.67967">
        <ele>706.7</ele>
        <time>2014-04-19T13:51:23.894Z</time>
      </trkpt>
      <trkpt lat="45.46314" lon="4.67972">
        <ele>706</ele>
        <time>2014-04-19T13:51:24.957Z</time>
      </trkpt>
      <trkpt lat="45.46311" lon="4.67976">
        <ele>705.5</ele>
        <time>2014-04-19T13:51:25.900Z</time>
      </trkpt>
      <trkpt lat="45.46307" lon="4.6798">
        <ele>705.3</ele>
        <time>2014-04-19T13:51:26.973Z</time>
      </trkpt>
      <trkpt lat="45.46303" lon="4.67985">
        <ele>705</ele>
        <time>2014-04-19T13:51:27.857Z</time>
      </trkpt>
      <trkpt lat="45.46299" lon="4.6799">
        <ele>705</ele>
        <time>2014-04-19T13:51:29.080Z</time>
      </trkpt>
      <trkpt lat="45.46295" lon="4.67995">
        <ele>704.8</ele>
        <time>2014-04-19T13:51:29.894Z</time>
      </trkpt>
      <trkpt lat="45.4629" lon="4.67999">
        <ele>704.7</ele>
        <time>2014-04-19T13:51:31.205Z</time>
      </trkpt>
      <trkpt lat="45.46285" lon="4.68002">
        <ele>704.9</ele>
        <time>2014-04-19T13:51:31.907Z</time>
      </trkpt>
      <trkpt lat="45.46281" lon="4.68004">
        <ele>704.9</ele>
        <time>2014-04-19T13:51:32.899Z</time>
      </trkpt>
      <trkpt lat="45.46277" lon="4.68007">
        <ele>704.9</ele>
        <time>2014-04-19T13:51:33.911Z</time>
      </trkpt>
      <trkpt lat="45.46272" lon="4.68011">
        <ele>704.8</ele>
        <time>2014-04-19T13:51:34.875Z</time>
      </trkpt>
      <trkpt lat="45.46268" lon="4.68015">
        <ele>704.8</ele>
        <time>2014-04-19T13:51:35.893Z</time>
      </trkpt>
      <trkpt lat="45.46262" lon="4.68018">
        <ele>704.8</ele>
        <time>2014-04-19T13:51:36.936Z</time>
      </trkpt>
      <trkpt lat="45.46257" lon="4.6802">
        <ele>704.8</ele>
        <time>2014-04-19T13:51:37.914Z</time>
      </trkpt>
      <trkpt lat="45.46252" lon="4.68023">
        <ele>704.7</ele>
        <time>2014-04-19T13:51:39.002Z</time>
      </trkpt>
      <trkpt lat="45.46246" lon="4.68025">
        <ele>704.6</ele>
        <time>2014-04-19T13:51:39.904Z</time>
      </trkpt>
      <trkpt lat="45.4624" lon="4.68029">
        <ele>704</ele>
        <time>2014-04-19T13:51:40.947Z</time>
      </trkpt>
      <trkpt lat="45.46235" lon="4.68033">
        <ele>704.4</ele>
        <time>2014-04-19T13:51:41.920Z</time>
      </trkpt>
      <trkpt lat="45.46229" lon="4.68038">
        <ele>704.6</ele>
        <time>2014-04-19T13:51:42.963Z</time>
      </trkpt>
      <trkpt lat="45.46222" lon="4.68043">
        <ele>704.7</ele>
        <time>2014-04-19T13:51:43.878Z</time>
      </trkpt>
      <trkpt lat="45.46215" lon="4.68047">
        <ele>704.7</ele>
        <time>2014-04-19T13:51:44.952Z</time>
      </trkpt>
      <trkpt lat="45.46208" lon="4.68052">
        <ele>704.2</ele>
        <time>2014-04-19T13:51:45.844Z</time>
      </trkpt>
      <trkpt lat="45.46202" lon="4.68055">
        <ele>703.8</ele>
        <time>2014-04-19T13:51:47.003Z</time>
      </trkpt>
      <trkpt lat="45.46196" lon="4.6806">
        <ele>704.2</ele>
        <time>2014-04-19T13:51:47.898Z</time>
      </trkpt>
      <trkpt lat="45.46189" lon="4.68065">
        <ele>704.1</ele>
        <time>2014-04-19T13:51:49.414Z</time>
      </trkpt>
      <trkpt lat="45.46183" lon="4.68069">
        <ele>703.6</ele>
        <time>2014-04-19T13:51:49.852Z</time>
      </trkpt>
      <trkpt lat="45.46177" lon="4.68073">
        <ele>703.2</ele>
        <time>2014-04-19T13:51:50.993Z</time>
      </trkpt>
      <trkpt lat="45.46172" lon="4.68078">
        <ele>702.3</ele>
        <time>2014-04-19T13:51:51.884Z</time>
      </trkpt>
      <trkpt lat="45.46167" lon="4.68082">
        <ele>701.7</ele>
        <time>2014-04-19T13:51:53.586Z</time>
      </trkpt>
      <trkpt lat="45.46163" lon="4.68087">
        <ele>701.3</ele>
        <time>2014-04-19T13:51:53.854Z</time>
      </trkpt>
      <trkpt lat="45.46158" lon="4.68093">
        <ele>700.5</ele>
        <time>2014-04-19T13:51:54.932Z</time>
      </trkpt>
      <trkpt lat="45.46154" lon="4.68099">
        <ele>699.1</ele>
        <time>2014-04-19T13:51:55.853Z</time>
      </trkpt>
      <trkpt lat="45.46149" lon="4.68105">
        <ele>697.9</ele>
        <time>2014-04-19T13:51:56.951Z</time>
      </trkpt>
      <trkpt lat="45.46144" lon="4.68112">
        <ele>696.6</ele>
        <time>2014-04-19T13:51:57.896Z</time>
      </trkpt>
      <trkpt lat="45.46139" lon="4.68119">
        <ele>695.8</ele>
        <time>2014-04-19T13:51:58.930Z</time>
      </trkpt>
      <trkpt lat="45.46134" lon="4.68125">
        <ele>694.8</ele>
        <time>2014-04-19T13:51:59.902Z</time>
      </trkpt>
      <trkpt lat="45.46129" lon="4.68131">
        <ele>694.4</ele>
        <time>2014-04-19T13:52:00.890Z</time>
      </trkpt>
      <trkpt lat="45.46124" lon="4.68138">
        <ele>693.9</ele>
        <time>2014-04-19T13:52:01.906Z</time>
      </trkpt>
      <trkpt lat="45.46121" lon="4.68146">
        <ele>693.4</ele>
        <time>2014-04-19T13:52:03.691Z</time>
      </trkpt>
      <trkpt lat="45.46118" lon="4.68155">
        <ele>692.7</ele>
        <time>2014-04-19T13:52:03.848Z</time>
      </trkpt>
      <trkpt lat="45.46115" lon="4.68163">
        <ele>691.9</ele>
        <time>2014-04-19T13:52:04.955Z</time>
      </trkpt>
      <trkpt lat="45.46111" lon="4.68169">
        <ele>691.3</ele>
        <time>2014-04-19T13:52:05.849Z</time>
      </trkpt>
      <trkpt lat="45.46107" lon="4.68175">
        <ele>690.8</ele>
        <time>2014-04-19T13:52:06.936Z</time>
      </trkpt>
      <trkpt lat="45.46103" lon="4.68182">
        <ele>690.2</ele>
        <time>2014-04-19T13:52:07.878Z</time>
      </trkpt>
      <trkpt lat="45.46099" lon="4.68187">
        <ele>690.1</ele>
        <time>2014-04-19T13:52:08.970Z</time>
      </trkpt>
      <trkpt lat="45.46095" lon="4.68192">
        <ele>689.7</ele>
        <time>2014-04-19T13:52:09.894Z</time>
      </trkpt>
      <trkpt lat="45.46091" lon="4.68197">
        <ele>689.7</ele>
        <time>2014-04-19T13:52:11.018Z</time>
      </trkpt>
      <trkpt lat="45.46087" lon="4.68201">
        <ele>689.9</ele>
        <time>2014-04-19T13:52:11.959Z</time>
      </trkpt>
      <trkpt lat="45.46083" lon="4.68204">
        <ele>690.4</ele>
        <time>2014-04-19T13:52:13.836Z</time>
      </trkpt>
      <trkpt lat="45.46079" lon="4.68208">
        <ele>690.7</ele>
        <time>2014-04-19T13:52:13.990Z</time>
      </trkpt>
      <trkpt lat="45.46074" lon="4.68212">
        <ele>690.8</ele>
        <time>2014-04-19T13:52:14.945Z</time>
      </trkpt>
      <trkpt lat="45.46068" lon="4.68218">
        <ele>691.2</ele>
        <time>2014-04-19T13:52:15.872Z</time>
      </trkpt>
      <trkpt lat="45.46063" lon="4.68222">
        <ele>691.8</ele>
        <time>2014-04-19T13:52:17.026Z</time>
      </trkpt>
      <trkpt lat="45.46058" lon="4.68225">
        <ele>691.6</ele>
        <time>2014-04-19T13:52:17.882Z</time>
      </trkpt>
      <trkpt lat="45.46052" lon="4.68229">
        <ele>691.1</ele>
        <time>2014-04-19T13:52:19.005Z</time>
      </trkpt>
      <trkpt lat="45.46047" lon="4.68231">
        <ele>690.5</ele>
        <time>2014-04-19T13:52:19.857Z</time>
      </trkpt>
      <trkpt lat="45.46042" lon="4.68234">
        <ele>690.5</ele>
        <time>2014-04-19T13:52:20.905Z</time>
      </trkpt>
      <trkpt lat="45.46036" lon="4.68237">
        <ele>690.3</ele>
        <time>2014-04-19T13:52:21.883Z</time>
      </trkpt>
      <trkpt lat="45.46031" lon="4.68239">
        <ele>690.3</ele>
        <time>2014-04-19T13:52:23.189Z</time>
      </trkpt>
      <trkpt lat="45.46025" lon="4.68241">
        <ele>690.1</ele>
        <time>2014-04-19T13:52:23.992Z</time>
      </trkpt>
      <trkpt lat="45.46019" lon="4.68244">
        <ele>690.2</ele>
        <time>2014-04-19T13:52:24.987Z</time>
      </trkpt>
      <trkpt lat="45.46013" lon="4.68249">
        <ele>690.5</ele>
        <time>2014-04-19T13:52:25.907Z</time>
      </trkpt>
      <trkpt lat="45.46007" lon="4.68251">
        <ele>690.8</ele>
        <time>2014-04-19T13:52:26.870Z</time>
      </trkpt>
      <trkpt lat="45.45999" lon="4.68254">
        <ele>690.9</ele>
        <time>2014-04-19T13:52:27.903Z</time>
      </trkpt>
      <trkpt lat="45.45994" lon="4.68257">
        <ele>691.3</ele>
        <time>2014-04-19T13:52:29.001Z</time>
      </trkpt>
      <trkpt lat="45.45988" lon="4.68259">
        <ele>691.4</ele>
        <time>2014-04-19T13:52:29.899Z</time>
      </trkpt>
      <trkpt lat="45.45982" lon="4.68262">
        <ele>691.3</ele>
        <time>2014-04-19T13:52:30.886Z</time>
      </trkpt>
      <trkpt lat="45.45976" lon="4.68265">
        <ele>691.1</ele>
        <time>2014-04-19T13:52:31.897Z</time>
      </trkpt>
      <trkpt lat="45.45971" lon="4.68267">
        <ele>690.8</ele>
        <time>2014-04-19T13:52:33.328Z</time>
      </trkpt>
      <trkpt lat="45.45966" lon="4.68271">
        <ele>690.8</ele>
        <time>2014-04-19T13:52:33.877Z</time>
      </trkpt>
      <trkpt lat="45.45961" lon="4.68274">
        <ele>690.5</ele>
        <time>2014-04-19T13:52:34.957Z</time>
      </trkpt>
      <trkpt lat="45.45956" lon="4.68279">
        <ele>690</ele>
        <time>2014-04-19T13:52:35.914Z</time>
      </trkpt>
      <trkpt lat="45.45951" lon="4.68283">
        <ele>689.7</ele>
        <time>2014-04-19T13:52:36.971Z</time>
      </trkpt>
      <trkpt lat="45.45947" lon="4.68286">
        <ele>689.3</ele>
        <time>2014-04-19T13:52:37.860Z</time>
      </trkpt>
      <trkpt lat="45.45942" lon="4.68289">
        <ele>688.8</ele>
        <time>2014-04-19T13:52:39.140Z</time>
      </trkpt>
      <trkpt lat="45.45937" lon="4.68291">
        <ele>688.7</ele>
        <time>2014-04-19T13:52:39.914Z</time>
      </trkpt>
      <trkpt lat="45.45932" lon="4.68292">
        <ele>689.3</ele>
        <time>2014-04-19T13:52:40.955Z</time>
      </trkpt>
      <trkpt lat="45.45926" lon="4.68291">
        <ele>690</ele>
        <time>2014-04-19T13:52:41.920Z</time>
      </trkpt>
      <trkpt lat="45.45921" lon="4.6829">
        <ele>690.4</ele>
        <time>2014-04-19T13:52:42.960Z</time>
      </trkpt>
      <trkpt lat="45.45916" lon="4.6829">
        <ele>691</ele>
        <time>2014-04-19T13:52:43.914Z</time>
      </trkpt>
      <trkpt lat="45.45907" lon="4.68292">
        <ele>691.9</ele>
        <time>2014-04-19T13:52:45.962Z</time>
      </trkpt>
      <trkpt lat="45.45902" lon="4.68294">
        <ele>692.8</ele>
        <time>2014-04-19T13:52:46.980Z</time>
      </trkpt>
      <trkpt lat="45.45898" lon="4.68295">
        <ele>694.1</ele>
        <time>2014-04-19T13:52:47.985Z</time>
      </trkpt>
      <trkpt lat="45.45892" lon="4.68298">
        <ele>695.5</ele>
        <time>2014-04-19T13:52:48.880Z</time>
      </trkpt>
      <trkpt lat="45.45887" lon="4.683">
        <ele>696.4</ele>
        <time>2014-04-19T13:52:49.944Z</time>
      </trkpt>
      <trkpt lat="45.45881" lon="4.68303">
        <ele>697</ele>
        <time>2014-04-19T13:52:50.902Z</time>
      </trkpt>
      <trkpt lat="45.45875" lon="4.68307">
        <ele>696.5</ele>
        <time>2014-04-19T13:52:51.925Z</time>
      </trkpt>
      <trkpt lat="45.45867" lon="4.68311">
        <ele>696</ele>
        <time>2014-04-19T13:52:52.864Z</time>
      </trkpt>
      <trkpt lat="45.4586" lon="4.68317">
        <ele>694.6</ele>
        <time>2014-04-19T13:52:53.907Z</time>
      </trkpt>
      <trkpt lat="45.45853" lon="4.68323">
        <ele>693.7</ele>
        <time>2014-04-19T13:52:54.924Z</time>
      </trkpt>
      <trkpt lat="45.45845" lon="4.68329">
        <ele>693.2</ele>
        <time>2014-04-19T13:52:56.510Z</time>
      </trkpt>
      <trkpt lat="45.45838" lon="4.68333">
        <ele>692.9</ele>
        <time>2014-04-19T13:52:56.988Z</time>
      </trkpt>
      <trkpt lat="45.45832" lon="4.68337">
        <ele>692.4</ele>
        <time>2014-04-19T13:52:58.122Z</time>
      </trkpt>
      <trkpt lat="45.45825" lon="4.68341">
        <ele>692.2</ele>
        <time>2014-04-19T13:52:58.858Z</time>
      </trkpt>
      <trkpt lat="45.45819" lon="4.68344">
        <ele>691.9</ele>
        <time>2014-04-19T13:53:00.160Z</time>
      </trkpt>
      <trkpt lat="45.45812" lon="4.68344">
        <ele>692.1</ele>
        <time>2014-04-19T13:53:00.899Z</time>
      </trkpt>
      <trkpt lat="45.45804" lon="4.68345">
        <ele>691.9</ele>
        <time>2014-04-19T13:53:01.963Z</time>
      </trkpt>
      <trkpt lat="45.45797" lon="4.68347">
        <ele>691.3</ele>
        <time>2014-04-19T13:53:02.892Z</time>
      </trkpt>
      <trkpt lat="45.4579" lon="4.68349">
        <ele>690.8</ele>
        <time>2014-04-19T13:53:04.058Z</time>
      </trkpt>
      <trkpt lat="45.45783" lon="4.68351">
        <ele>690.3</ele>
        <time>2014-04-19T13:53:04.910Z</time>
      </trkpt>
      <trkpt lat="45.45777" lon="4.68353">
        <ele>690.3</ele>
        <time>2014-04-19T13:53:05.971Z</time>
      </trkpt>
      <trkpt lat="45.45772" lon="4.68356">
        <ele>690.8</ele>
        <time>2014-04-19T13:53:06.927Z</time>
      </trkpt>
      <trkpt lat="45.45766" lon="4.68357">
        <ele>692.1</ele>
        <time>2014-04-19T13:53:07.891Z</time>
      </trkpt>
      <trkpt lat="45.45761" lon="4.68359">
        <ele>693.6</ele>
        <time>2014-04-19T13:53:08.905Z</time>
      </trkpt>
      <trkpt lat="45.45757" lon="4.68361">
        <ele>695.2</ele>
        <time>2014-04-19T13:53:09.977Z</time>
      </trkpt>
      <trkpt lat="45.45752" lon="4.68364">
        <ele>696.2</ele>
        <time>2014-04-19T13:53:10.916Z</time>
      </trkpt>
      <trkpt lat="45.45744" lon="4.68369">
        <ele>697.5</ele>
        <time>2014-04-19T13:53:12.912Z</time>
      </trkpt>
      <trkpt lat="45.45741" lon="4.68369">
        <ele>697.6</ele>
        <time>2014-04-19T13:53:13.896Z</time>
      </trkpt>
      <trkpt lat="45.45734" lon="4.68371">
        <ele>697.7</ele>
        <time>2014-04-19T13:53:16.011Z</time>
      </trkpt>
      <trkpt lat="45.45729" lon="4.68373">
        <ele>698.1</ele>
        <time>2014-04-19T13:53:16.869Z</time>
      </trkpt>
      <trkpt lat="45.45724" lon="4.68373">
        <ele>698.6</ele>
        <time>2014-04-19T13:53:18.900Z</time>
      </trkpt>
      <trkpt lat="45.45713" lon="4.68375">
        <ele>699.3</ele>
        <time>2014-04-19T13:53:19.872Z</time>
      </trkpt>
      <trkpt lat="45.45704" lon="4.68375">
        <ele>698.8</ele>
        <time>2014-04-19T13:53:21.923Z</time>
      </trkpt>
      <trkpt lat="45.45699" lon="4.68374">
        <ele>698.2</ele>
        <time>2014-04-19T13:53:22.916Z</time>
      </trkpt>
      <trkpt lat="45.45699" lon="4.68374">
        <ele>698.2</ele>
        <time>2014-04-19T13:53:24.115Z</time>
      </trkpt>
      <trkpt lat="45.45686" lon="4.6837">
        <ele>697</ele>
        <time>2014-04-19T13:53:24.922Z</time>
      </trkpt>
      <trkpt lat="45.4568" lon="4.68367">
        <ele>695.6</ele>
        <time>2014-04-19T13:53:26.015Z</time>
      </trkpt>
      <trkpt lat="45.45673" lon="4.68362">
        <ele>694.9</ele>
        <time>2014-04-19T13:53:26.927Z</time>
      </trkpt>
      <trkpt lat="45.45667" lon="4.68358">
        <ele>693.8</ele>
        <time>2014-04-19T13:53:27.975Z</time>
      </trkpt>
      <trkpt lat="45.45661" lon="4.68354">
        <ele>692.7</ele>
        <time>2014-04-19T13:53:28.912Z</time>
      </trkpt>
      <trkpt lat="45.45655" lon="4.68349">
        <ele>691.9</ele>
        <time>2014-04-19T13:53:29.913Z</time>
      </trkpt>
      <trkpt lat="45.4565" lon="4.68344">
        <ele>690.8</ele>
        <time>2014-04-19T13:53:30.904Z</time>
      </trkpt>
      <trkpt lat="45.45645" lon="4.6834">
        <ele>689.9</ele>
        <time>2014-04-19T13:53:32.016Z</time>
      </trkpt>
      <trkpt lat="45.45639" lon="4.68336">
        <ele>689</ele>
        <time>2014-04-19T13:53:32.878Z</time>
      </trkpt>
      <trkpt lat="45.45632" lon="4.68331">
        <ele>687.8</ele>
        <time>2014-04-19T13:53:34.139Z</time>
      </trkpt>
      <trkpt lat="45.45627" lon="4.68326">
        <ele>686.4</ele>
        <time>2014-04-19T13:53:34.866Z</time>
      </trkpt>
      <trkpt lat="45.45623" lon="4.6832">
        <ele>684.5</ele>
        <time>2014-04-19T13:53:35.955Z</time>
      </trkpt>
      <trkpt lat="45.45619" lon="4.68313">
        <ele>683.1</ele>
        <time>2014-04-19T13:53:36.925Z</time>
      </trkpt>
      <trkpt lat="45.45616" lon="4.68308">
        <ele>681.8</ele>
        <time>2014-04-19T13:53:37.963Z</time>
      </trkpt>
      <trkpt lat="45.45613" lon="4.68301">
        <ele>681.2</ele>
        <time>2014-04-19T13:53:38.925Z</time>
      </trkpt>
      <trkpt lat="45.4561" lon="4.68296">
        <ele>681</ele>
        <time>2014-04-19T13:53:39.970Z</time>
      </trkpt>
      <trkpt lat="45.45606" lon="4.68291">
        <ele>681.5</ele>
        <time>2014-04-19T13:53:41.040Z</time>
      </trkpt>
      <trkpt lat="45.45602" lon="4.68284">
        <ele>681.7</ele>
        <time>2014-04-19T13:53:41.983Z</time>
      </trkpt>
      <trkpt lat="45.45598" lon="4.68279">
        <ele>681.3</ele>
        <time>2014-04-19T13:53:42.916Z</time>
      </trkpt>
      <trkpt lat="45.45593" lon="4.68273">
        <ele>681</ele>
        <time>2014-04-19T13:53:44.262Z</time>
      </trkpt>
      <trkpt lat="45.45589" lon="4.68267">
        <ele>680.4</ele>
        <time>2014-04-19T13:53:44.879Z</time>
      </trkpt>
      <trkpt lat="45.45583" lon="4.68261">
        <ele>680.2</ele>
        <time>2014-04-19T13:53:45.988Z</time>
      </trkpt>
      <trkpt lat="45.45579" lon="4.68257">
        <ele>680.3</ele>
        <time>2014-04-19T13:53:46.916Z</time>
      </trkpt>
      <trkpt lat="45.45574" lon="4.68252">
        <ele>680.1</ele>
        <time>2014-04-19T13:53:47.905Z</time>
      </trkpt>
      <trkpt lat="45.45568" lon="4.68248">
        <ele>680.4</ele>
        <time>2014-04-19T13:53:48.901Z</time>
      </trkpt>
      <trkpt lat="45.45563" lon="4.68245">
        <ele>680.9</ele>
        <time>2014-04-19T13:53:49.917Z</time>
      </trkpt>
      <trkpt lat="45.45558" lon="4.68241">
        <ele>681.3</ele>
        <time>2014-04-19T13:53:50.905Z</time>
      </trkpt>
      <trkpt lat="45.45553" lon="4.68237">
        <ele>681.1</ele>
        <time>2014-04-19T13:53:51.977Z</time>
      </trkpt>
      <trkpt lat="45.45547" lon="4.68233">
        <ele>680.8</ele>
        <time>2014-04-19T13:53:52.904Z</time>
      </trkpt>
      <trkpt lat="45.45542" lon="4.68229">
        <ele>680.7</ele>
        <time>2014-04-19T13:53:53.901Z</time>
      </trkpt>
      <trkpt lat="45.45538" lon="4.68227">
        <ele>681.2</ele>
        <time>2014-04-19T13:53:54.855Z</time>
      </trkpt>
      <trkpt lat="45.45533" lon="4.68223">
        <ele>681.2</ele>
        <time>2014-04-19T13:53:56.037Z</time>
      </trkpt>
      <trkpt lat="45.45527" lon="4.6822">
        <ele>681.4</ele>
        <time>2014-04-19T13:53:56.901Z</time>
      </trkpt>
      <trkpt lat="45.45521" lon="4.68216">
        <ele>681.8</ele>
        <time>2014-04-19T13:53:58.649Z</time>
      </trkpt>
      <trkpt lat="45.45515" lon="4.68213">
        <ele>682.1</ele>
        <time>2014-04-19T13:53:59.159Z</time>
      </trkpt>
      <trkpt lat="45.4551" lon="4.68211">
        <ele>682.6</ele>
        <time>2014-04-19T13:53:59.972Z</time>
      </trkpt>
      <trkpt lat="45.45503" lon="4.68208">
        <ele>683</ele>
        <time>2014-04-19T13:54:00.868Z</time>
      </trkpt>
      <trkpt lat="45.45497" lon="4.68207">
        <ele>683.4</ele>
        <time>2014-04-19T13:54:01.983Z</time>
      </trkpt>
      <trkpt lat="45.45491" lon="4.68205">
        <ele>683.6</ele>
        <time>2014-04-19T13:54:02.905Z</time>
      </trkpt>
      <trkpt lat="45.45486" lon="4.68203">
        <ele>683.6</ele>
        <time>2014-04-19T13:54:03.901Z</time>
      </trkpt>
      <trkpt lat="45.45481" lon="4.68202">
        <ele>683.4</ele>
        <time>2014-04-19T13:54:04.853Z</time>
      </trkpt>
      <trkpt lat="45.45474" lon="4.682">
        <ele>683.4</ele>
        <time>2014-04-19T13:54:05.979Z</time>
      </trkpt>
      <trkpt lat="45.45468" lon="4.68198">
        <ele>683.3</ele>
        <time>2014-04-19T13:54:06.924Z</time>
      </trkpt>
      <trkpt lat="45.45462" lon="4.68196">
        <ele>683.1</ele>
        <time>2014-04-19T13:54:08.875Z</time>
      </trkpt>
      <trkpt lat="45.45449" lon="4.68193">
        <ele>683.2</ele>
        <time>2014-04-19T13:54:09.888Z</time>
      </trkpt>
      <trkpt lat="45.45444" lon="4.68192">
        <ele>683.3</ele>
        <time>2014-04-19T13:54:10.957Z</time>
      </trkpt>
      <trkpt lat="45.45438" lon="4.6819">
        <ele>683.5</ele>
        <time>2014-04-19T13:54:11.838Z</time>
      </trkpt>
      <trkpt lat="45.45432" lon="4.68189">
        <ele>683.9</ele>
        <time>2014-04-19T13:54:12.954Z</time>
      </trkpt>
      <trkpt lat="45.45426" lon="4.68188">
        <ele>684.1</ele>
        <time>2014-04-19T13:54:14.024Z</time>
      </trkpt>
      <trkpt lat="45.4542" lon="4.68187">
        <ele>683.7</ele>
        <time>2014-04-19T13:54:15.068Z</time>
      </trkpt>
      <trkpt lat="45.45416" lon="4.68186">
        <ele>683.5</ele>
        <time>2014-04-19T13:54:15.907Z</time>
      </trkpt>
      <trkpt lat="45.45411" lon="4.68185">
        <ele>683.4</ele>
        <time>2014-04-19T13:54:16.908Z</time>
      </trkpt>
      <trkpt lat="45.45407" lon="4.68184">
        <ele>683.4</ele>
        <time>2014-04-19T13:54:17.901Z</time>
      </trkpt>
      <trkpt lat="45.45402" lon="4.68182">
        <ele>683.3</ele>
        <time>2014-04-19T13:54:19.165Z</time>
      </trkpt>
      <trkpt lat="45.45397" lon="4.6818">
        <ele>682.7</ele>
        <time>2014-04-19T13:54:19.899Z</time>
      </trkpt>
      <trkpt lat="45.45392" lon="4.68177">
        <ele>681.8</ele>
        <time>2014-04-19T13:54:20.982Z</time>
      </trkpt>
      <trkpt lat="45.45386" lon="4.68174">
        <ele>680.6</ele>
        <time>2014-04-19T13:54:21.915Z</time>
      </trkpt>
      <trkpt lat="45.4538" lon="4.68169">
        <ele>680.2</ele>
        <time>2014-04-19T13:54:22.866Z</time>
      </trkpt>
      <trkpt lat="45.45372" lon="4.68163">
        <ele>679.6</ele>
        <time>2014-04-19T13:54:23.875Z</time>
      </trkpt>
      <trkpt lat="45.45365" lon="4.68158">
        <ele>678.2</ele>
        <time>2014-04-19T13:54:24.991Z</time>
      </trkpt>
      <trkpt lat="45.45359" lon="4.68153">
        <ele>677.4</ele>
        <time>2014-04-19T13:54:25.913Z</time>
      </trkpt>
      <trkpt lat="45.45353" lon="4.68148">
        <ele>676.6</ele>
        <time>2014-04-19T13:54:26.922Z</time>
      </trkpt>
      <trkpt lat="45.45346" lon="4.68142">
        <ele>675.9</ele>
        <time>2014-04-19T13:54:27.918Z</time>
      </trkpt>
      <trkpt lat="45.45339" lon="4.68137">
        <ele>675.4</ele>
        <time>2014-04-19T13:54:29.342Z</time>
      </trkpt>
      <trkpt lat="45.45333" lon="4.68134">
        <ele>674.6</ele>
        <time>2014-04-19T13:54:29.903Z</time>
      </trkpt>
      <trkpt lat="45.45328" lon="4.68131">
        <ele>673.6</ele>
        <time>2014-04-19T13:54:30.956Z</time>
      </trkpt>
      <trkpt lat="45.45322" lon="4.68129">
        <ele>672.7</ele>
        <time>2014-04-19T13:54:31.903Z</time>
      </trkpt>
      <trkpt lat="45.45316" lon="4.68128">
        <ele>672.5</ele>
        <time>2014-04-19T13:54:32.962Z</time>
      </trkpt>
      <trkpt lat="45.4531" lon="4.68127">
        <ele>673.3</ele>
        <time>2014-04-19T13:54:33.869Z</time>
      </trkpt>
      <trkpt lat="45.45302" lon="4.68129">
        <ele>674.7</ele>
        <time>2014-04-19T13:54:34.923Z</time>
      </trkpt>
      <trkpt lat="45.45295" lon="4.68132">
        <ele>676</ele>
        <time>2014-04-19T13:54:35.914Z</time>
      </trkpt>
      <trkpt lat="45.45295" lon="4.68132">
        <ele>676</ele>
        <time>2014-04-19T13:54:36.078Z</time>
      </trkpt>
      <trkpt lat="45.45285" lon="4.68138">
        <ele>676.1</ele>
        <time>2014-04-19T13:54:36.925Z</time>
      </trkpt>
      <trkpt lat="45.45285" lon="4.68138">
        <ele>676.1</ele>
        <time>2014-04-19T13:54:37.266Z</time>
      </trkpt>
      <trkpt lat="45.45275" lon="4.68145">
        <ele>675.8</ele>
        <time>2014-04-19T13:54:37.915Z</time>
      </trkpt>
      <trkpt lat="45.45275" lon="4.68145">
        <ele>675.8</ele>
        <time>2014-04-19T13:54:38.081Z</time>
      </trkpt>
      <trkpt lat="45.45268" lon="4.68154">
        <ele>675.1</ele>
        <time>2014-04-19T13:54:38.915Z</time>
      </trkpt>
      <trkpt lat="45.45268" lon="4.68154">
        <ele>675.1</ele>
        <time>2014-04-19T13:54:39.475Z</time>
      </trkpt>
      <trkpt lat="45.45261" lon="4.68162">
        <ele>674.7</ele>
        <time>2014-04-19T13:54:39.872Z</time>
      </trkpt>
      <trkpt lat="45.45255" lon="4.68169">
        <ele>675.1</ele>
        <time>2014-04-19T13:54:40.895Z</time>
      </trkpt>
      <trkpt lat="45.45251" lon="4.68178">
        <ele>676</ele>
        <time>2014-04-19T13:54:41.917Z</time>
      </trkpt>
      <trkpt lat="45.45247" lon="4.68186">
        <ele>676.7</ele>
        <time>2014-04-19T13:54:43.194Z</time>
      </trkpt>
      <trkpt lat="45.45243" lon="4.68194">
        <ele>677</ele>
        <time>2014-04-19T13:54:43.920Z</time>
      </trkpt>
      <trkpt lat="45.4524" lon="4.68201">
        <ele>677.3</ele>
        <time>2014-04-19T13:54:44.905Z</time>
      </trkpt>
      <trkpt lat="45.45237" lon="4.68208">
        <ele>677.6</ele>
        <time>2014-04-19T13:54:45.888Z</time>
      </trkpt>
      <trkpt lat="45.45233" lon="4.68214">
        <ele>677.5</ele>
        <time>2014-04-19T13:54:46.978Z</time>
      </trkpt>
      <trkpt lat="45.45229" lon="4.68221">
        <ele>677.2</ele>
        <time>2014-04-19T13:54:47.929Z</time>
      </trkpt>
      <trkpt lat="45.45224" lon="4.68228">
        <ele>677</ele>
        <time>2014-04-19T13:54:48.980Z</time>
      </trkpt>
      <trkpt lat="45.4522" lon="4.68234">
        <ele>677</ele>
        <time>2014-04-19T13:54:49.884Z</time>
      </trkpt>
      <trkpt lat="45.45215" lon="4.68242">
        <ele>676.9</ele>
        <time>2014-04-19T13:54:50.975Z</time>
      </trkpt>
      <trkpt lat="45.4521" lon="4.68252">
        <ele>676.5</ele>
        <time>2014-04-19T13:54:51.982Z</time>
      </trkpt>
      <trkpt lat="45.4521" lon="4.68252">
        <ele>676.5</ele>
        <time>2014-04-19T13:54:52.359Z</time>
      </trkpt>
      <trkpt lat="45.45205" lon="4.68263">
        <ele>676.1</ele>
        <time>2014-04-19T13:54:52.867Z</time>
      </trkpt>
      <trkpt lat="45.452" lon="4.68272">
        <ele>676.1</ele>
        <time>2014-04-19T13:54:53.906Z</time>
      </trkpt>
      <trkpt lat="45.45196" lon="4.68282">
        <ele>675.9</ele>
        <time>2014-04-19T13:54:54.870Z</time>
      </trkpt>
      <trkpt lat="45.45191" lon="4.68288">
        <ele>675.4</ele>
        <time>2014-04-19T13:54:56.064Z</time>
      </trkpt>
      <trkpt lat="45.45188" lon="4.68292">
        <ele>674.3</ele>
        <time>2014-04-19T13:54:56.929Z</time>
      </trkpt>
      <trkpt lat="45.45183" lon="4.68294">
        <ele>673.5</ele>
        <time>2014-04-19T13:54:58.011Z</time>
      </trkpt>
      <trkpt lat="45.45177" lon="4.68291">
        <ele>673.9</ele>
        <time>2014-04-19T13:54:58.888Z</time>
      </trkpt>
      <trkpt lat="45.45172" lon="4.68289">
        <ele>674.4</ele>
        <time>2014-04-19T13:54:59.894Z</time>
      </trkpt>
      <trkpt lat="45.45166" lon="4.68287">
        <ele>674.6</ele>
        <time>2014-04-19T13:55:00.899Z</time>
      </trkpt>
      <trkpt lat="45.4516" lon="4.68285">
        <ele>674.8</ele>
        <time>2014-04-19T13:55:01.977Z</time>
      </trkpt>
      <trkpt lat="45.45155" lon="4.68282">
        <ele>675.7</ele>
        <time>2014-04-19T13:55:02.888Z</time>
      </trkpt>
      <trkpt lat="45.45148" lon="4.68278">
        <ele>676.5</ele>
        <time>2014-04-19T13:55:03.896Z</time>
      </trkpt>
      <trkpt lat="45.45141" lon="4.68274">
        <ele>676.5</ele>
        <time>2014-04-19T13:55:04.864Z</time>
      </trkpt>
      <trkpt lat="45.45135" lon="4.68271">
        <ele>676.3</ele>
        <time>2014-04-19T13:55:05.967Z</time>
      </trkpt>
      <trkpt lat="45.45128" lon="4.68267">
        <ele>676.2</ele>
        <time>2014-04-19T13:55:06.913Z</time>
      </trkpt>
      <trkpt lat="45.45122" lon="4.68264">
        <ele>676.2</ele>
        <time>2014-04-19T13:55:08.003Z</time>
      </trkpt>
      <trkpt lat="45.45115" lon="4.68261">
        <ele>676.3</ele>
        <time>2014-04-19T13:55:08.949Z</time>
      </trkpt>
      <trkpt lat="45.45109" lon="4.68259">
        <ele>676.7</ele>
        <time>2014-04-19T13:55:09.971Z</time>
      </trkpt>
      <trkpt lat="45.45102" lon="4.68257">
        <ele>676.8</ele>
        <time>2014-04-19T13:55:10.852Z</time>
      </trkpt>
      <trkpt lat="45.45095" lon="4.68258">
        <ele>676.8</ele>
        <time>2014-04-19T13:55:11.939Z</time>
      </trkpt>
      <trkpt lat="45.45088" lon="4.6826">
        <ele>676.7</ele>
        <time>2014-04-19T13:55:12.890Z</time>
      </trkpt>
      <trkpt lat="45.4508" lon="4.68262">
        <ele>676.2</ele>
        <time>2014-04-19T13:55:13.975Z</time>
      </trkpt>
      <trkpt lat="45.45073" lon="4.68266">
        <ele>675.9</ele>
        <time>2014-04-19T13:55:14.872Z</time>
      </trkpt>
      <trkpt lat="45.45066" lon="4.6827">
        <ele>675.2</ele>
        <time>2014-04-19T13:55:16.023Z</time>
      </trkpt>
      <trkpt lat="45.4506" lon="4.68275">
        <ele>674.6</ele>
        <time>2014-04-19T13:55:16.901Z</time>
      </trkpt>
      <trkpt lat="45.45054" lon="4.6828">
        <ele>674.1</ele>
        <time>2014-04-19T13:55:17.898Z</time>
      </trkpt>
      <trkpt lat="45.45047" lon="4.68286">
        <ele>673.5</ele>
        <time>2014-04-19T13:55:18.903Z</time>
      </trkpt>
      <trkpt lat="45.45041" lon="4.68292">
        <ele>673.3</ele>
        <time>2014-04-19T13:55:20.582Z</time>
      </trkpt>
      <trkpt lat="45.45035" lon="4.68299">
        <ele>673.2</ele>
        <time>2014-04-19T13:55:21.630Z</time>
      </trkpt>
      <trkpt lat="45.45028" lon="4.68305">
        <ele>672.9</ele>
        <time>2014-04-19T13:55:21.959Z</time>
      </trkpt>
      <trkpt lat="45.45022" lon="4.6831">
        <ele>672.8</ele>
        <time>2014-04-19T13:55:23.056Z</time>
      </trkpt>
      <trkpt lat="45.45015" lon="4.68315">
        <ele>672.5</ele>
        <time>2014-04-19T13:55:24.538Z</time>
      </trkpt>
      <trkpt lat="45.45008" lon="4.68319">
        <ele>672.1</ele>
        <time>2014-04-19T13:55:24.998Z</time>
      </trkpt>
      <trkpt lat="45.45" lon="4.68321">
        <ele>671.7</ele>
        <time>2014-04-19T13:55:25.895Z</time>
      </trkpt>
      <trkpt lat="45.44992" lon="4.68322">
        <ele>671.3</ele>
        <time>2014-04-19T13:55:26.865Z</time>
      </trkpt>
      <trkpt lat="45.44985" lon="4.68321">
        <ele>670.8</ele>
        <time>2014-04-19T13:55:28.007Z</time>
      </trkpt>
      <trkpt lat="45.44977" lon="4.68317">
        <ele>670.3</ele>
        <time>2014-04-19T13:55:28.856Z</time>
      </trkpt>
      <trkpt lat="45.44969" lon="4.68314">
        <ele>670.1</ele>
        <time>2014-04-19T13:55:29.871Z</time>
      </trkpt>
      <trkpt lat="45.44961" lon="4.6831">
        <ele>670</ele>
        <time>2014-04-19T13:55:30.859Z</time>
      </trkpt>
      <trkpt lat="45.44954" lon="4.68305">
        <ele>669.6</ele>
        <time>2014-04-19T13:55:31.937Z</time>
      </trkpt>
      <trkpt lat="45.44946" lon="4.68301">
        <ele>669.6</ele>
        <time>2014-04-19T13:55:32.887Z</time>
      </trkpt>
      <trkpt lat="45.44939" lon="4.68296">
        <ele>669.9</ele>
        <time>2014-04-19T13:55:35.041Z</time>
      </trkpt>
      <trkpt lat="45.44925" lon="4.68286">
        <ele>670.1</ele>
        <time>2014-04-19T13:55:35.888Z</time>
      </trkpt>
      <trkpt lat="45.44918" lon="4.6828">
        <ele>670.1</ele>
        <time>2014-04-19T13:55:36.901Z</time>
      </trkpt>
      <trkpt lat="45.44911" lon="4.68273">
        <ele>669.9</ele>
        <time>2014-04-19T13:55:37.882Z</time>
      </trkpt>
      <trkpt lat="45.44911" lon="4.68273">
        <ele>669.9</ele>
        <time>2014-04-19T13:55:38.116Z</time>
      </trkpt>
      <trkpt lat="45.44905" lon="4.68263">
        <ele>669.4</ele>
        <time>2014-04-19T13:55:38.869Z</time>
      </trkpt>
      <trkpt lat="45.44899" lon="4.68254">
        <ele>668.9</ele>
        <time>2014-04-19T13:55:40.083Z</time>
      </trkpt>
      <trkpt lat="45.44894" lon="4.68245">
        <ele>668.4</ele>
        <time>2014-04-19T13:55:40.889Z</time>
      </trkpt>
      <trkpt lat="45.44889" lon="4.68235">
        <ele>668.2</ele>
        <time>2014-04-19T13:55:41.919Z</time>
      </trkpt>
      <trkpt lat="45.44885" lon="4.68225">
        <ele>668.2</ele>
        <time>2014-04-19T13:55:42.869Z</time>
      </trkpt>
      <trkpt lat="45.4488" lon="4.68215">
        <ele>668.1</ele>
        <time>2014-04-19T13:55:43.984Z</time>
      </trkpt>
      <trkpt lat="45.44876" lon="4.68204">
        <ele>667.8</ele>
        <time>2014-04-19T13:55:44.898Z</time>
      </trkpt>
      <trkpt lat="45.44872" lon="4.68193">
        <ele>668</ele>
        <time>2014-04-19T13:55:45.893Z</time>
      </trkpt>
      <trkpt lat="45.44867" lon="4.68183">
        <ele>667.9</ele>
        <time>2014-04-19T13:55:46.919Z</time>
      </trkpt>
      <trkpt lat="45.44863" lon="4.68173">
        <ele>668.5</ele>
        <time>2014-04-19T13:55:47.977Z</time>
      </trkpt>
      <trkpt lat="45.44859" lon="4.68163">
        <ele>669</ele>
        <time>2014-04-19T13:55:48.967Z</time>
      </trkpt>
      <trkpt lat="45.44854" lon="4.68153">
        <ele>669.4</ele>
        <time>2014-04-19T13:55:50.160Z</time>
      </trkpt>
      <trkpt lat="45.4485" lon="4.68143">
        <ele>669.4</ele>
        <time>2014-04-19T13:55:50.874Z</time>
      </trkpt>
      <trkpt lat="45.44846" lon="4.68133">
        <ele>669.7</ele>
        <time>2014-04-19T13:55:51.947Z</time>
      </trkpt>
      <trkpt lat="45.44842" lon="4.68122">
        <ele>669.7</ele>
        <time>2014-04-19T13:55:52.926Z</time>
      </trkpt>
      <trkpt lat="45.44838" lon="4.68112">
        <ele>669.5</ele>
        <time>2014-04-19T13:55:53.890Z</time>
      </trkpt>
      <trkpt lat="45.44834" lon="4.68102">
        <ele>669.5</ele>
        <time>2014-04-19T13:55:54.898Z</time>
      </trkpt>
      <trkpt lat="45.4483" lon="4.68092">
        <ele>669.4</ele>
        <time>2014-04-19T13:55:55.947Z</time>
      </trkpt>
      <trkpt lat="45.44826" lon="4.68082">
        <ele>668.8</ele>
        <time>2014-04-19T13:55:57.143Z</time>
      </trkpt>
      <trkpt lat="45.44822" lon="4.68072">
        <ele>668.4</ele>
        <time>2014-04-19T13:55:57.895Z</time>
      </trkpt>
      <trkpt lat="45.44819" lon="4.68062">
        <ele>668.3</ele>
        <time>2014-04-19T13:55:58.862Z</time>
      </trkpt>
      <trkpt lat="45.44815" lon="4.68051">
        <ele>668.2</ele>
        <time>2014-04-19T13:56:00.359Z</time>
      </trkpt>
      <trkpt lat="45.44811" lon="4.6804">
        <ele>668</ele>
        <time>2014-04-19T13:56:00.866Z</time>
      </trkpt>
      <trkpt lat="45.44807" lon="4.6803">
        <ele>668</ele>
        <time>2014-04-19T13:56:02.089Z</time>
      </trkpt>
      <trkpt lat="45.44804" lon="4.68019">
        <ele>668.6</ele>
        <time>2014-04-19T13:56:02.864Z</time>
      </trkpt>
      <trkpt lat="45.448" lon="4.68009">
        <ele>668.2</ele>
        <time>2014-04-19T13:56:04.151Z</time>
      </trkpt>
      <trkpt lat="45.44796" lon="4.67998">
        <ele>667.7</ele>
        <time>2014-04-19T13:56:04.926Z</time>
      </trkpt>
      <trkpt lat="45.44792" lon="4.67988">
        <ele>667.7</ele>
        <time>2014-04-19T13:56:05.891Z</time>
      </trkpt>
      <trkpt lat="45.44788" lon="4.67978">
        <ele>667.3</ele>
        <time>2014-04-19T13:56:06.870Z</time>
      </trkpt>
      <trkpt lat="45.44784" lon="4.67968">
        <ele>667.2</ele>
        <time>2014-04-19T13:56:07.994Z</time>
      </trkpt>
      <trkpt lat="45.44779" lon="4.67958">
        <ele>667.1</ele>
        <time>2014-04-19T13:56:08.870Z</time>
      </trkpt>
      <trkpt lat="45.44775" lon="4.67949">
        <ele>667.1</ele>
        <time>2014-04-19T13:56:09.997Z</time>
      </trkpt>
      <trkpt lat="45.4477" lon="4.67939">
        <ele>667.3</ele>
        <time>2014-04-19T13:56:10.896Z</time>
      </trkpt>
      <trkpt lat="45.44765" lon="4.6793">
        <ele>667.8</ele>
        <time>2014-04-19T13:56:11.914Z</time>
      </trkpt>
      <trkpt lat="45.44761" lon="4.6792">
        <ele>668.7</ele>
        <time>2014-04-19T13:56:12.920Z</time>
      </trkpt>
      <trkpt lat="45.44756" lon="4.67911">
        <ele>669.6</ele>
        <time>2014-04-19T13:56:14.046Z</time>
      </trkpt>
      <trkpt lat="45.44751" lon="4.67901">
        <ele>669.9</ele>
        <time>2014-04-19T13:56:14.924Z</time>
      </trkpt>
      <trkpt lat="45.44746" lon="4.67892">
        <ele>670.5</ele>
        <time>2014-04-19T13:56:15.976Z</time>
      </trkpt>
      <trkpt lat="45.44742" lon="4.67883">
        <ele>670.4</ele>
        <time>2014-04-19T13:56:16.864Z</time>
      </trkpt>
      <trkpt lat="45.44738" lon="4.67874">
        <ele>670.4</ele>
        <time>2014-04-19T13:56:17.975Z</time>
      </trkpt>
      <trkpt lat="45.44734" lon="4.67864">
        <ele>671.3</ele>
        <time>2014-04-19T13:56:18.898Z</time>
      </trkpt>
      <trkpt lat="45.4473" lon="4.67854">
        <ele>672.1</ele>
        <time>2014-04-19T13:56:19.874Z</time>
      </trkpt>
      <trkpt lat="45.44727" lon="4.67844">
        <ele>672.8</ele>
        <time>2014-04-19T13:56:20.867Z</time>
      </trkpt>
      <trkpt lat="45.44724" lon="4.67834">
        <ele>673.3</ele>
        <time>2014-04-19T13:56:21.966Z</time>
      </trkpt>
      <trkpt lat="45.44721" lon="4.67824">
        <ele>673.6</ele>
        <time>2014-04-19T13:56:22.861Z</time>
      </trkpt>
      <trkpt lat="45.44717" lon="4.67813">
        <ele>673.6</ele>
        <time>2014-04-19T13:56:23.894Z</time>
      </trkpt>
      <trkpt lat="45.44714" lon="4.67802">
        <ele>673.5</ele>
        <time>2014-04-19T13:56:24.862Z</time>
      </trkpt>
      <trkpt lat="45.4471" lon="4.6779">
        <ele>673</ele>
        <time>2014-04-19T13:56:25.906Z</time>
      </trkpt>
      <trkpt lat="45.44707" lon="4.67779">
        <ele>672.2</ele>
        <time>2014-04-19T13:56:26.895Z</time>
      </trkpt>
      <trkpt lat="45.44704" lon="4.67768">
        <ele>671.1</ele>
        <time>2014-04-19T13:56:27.980Z</time>
      </trkpt>
      <trkpt lat="45.44701" lon="4.67757">
        <ele>669.9</ele>
        <time>2014-04-19T13:56:28.870Z</time>
      </trkpt>
      <trkpt lat="45.44698" lon="4.67746">
        <ele>669.3</ele>
        <time>2014-04-19T13:56:29.966Z</time>
      </trkpt>
      <trkpt lat="45.44695" lon="4.67735">
        <ele>668.7</ele>
        <time>2014-04-19T13:56:30.854Z</time>
      </trkpt>
      <trkpt lat="45.44692" lon="4.67724">
        <ele>667.5</ele>
        <time>2014-04-19T13:56:31.968Z</time>
      </trkpt>
      <trkpt lat="45.4469" lon="4.67712">
        <ele>666.8</ele>
        <time>2014-04-19T13:56:32.910Z</time>
      </trkpt>
      <trkpt lat="45.44687" lon="4.677">
        <ele>665.9</ele>
        <time>2014-04-19T13:56:34.120Z</time>
      </trkpt>
      <trkpt lat="45.44683" lon="4.67688">
        <ele>665</ele>
        <time>2014-04-19T13:56:34.871Z</time>
      </trkpt>
      <trkpt lat="45.4468" lon="4.67676">
        <ele>663.9</ele>
        <time>2014-04-19T13:56:35.974Z</time>
      </trkpt>
      <trkpt lat="45.44676" lon="4.67665">
        <ele>662.9</ele>
        <time>2014-04-19T13:56:36.893Z</time>
      </trkpt>
      <trkpt lat="45.44672" lon="4.67655">
        <ele>661.9</ele>
        <time>2014-04-19T13:56:38.197Z</time>
      </trkpt>
      <trkpt lat="45.44668" lon="4.67646">
        <ele>661.1</ele>
        <time>2014-04-19T13:56:38.908Z</time>
      </trkpt>
      <trkpt lat="45.44663" lon="4.67636">
        <ele>660.9</ele>
        <time>2014-04-19T13:56:39.949Z</time>
      </trkpt>
      <trkpt lat="45.44658" lon="4.67627">
        <ele>660.8</ele>
        <time>2014-04-19T13:56:40.899Z</time>
      </trkpt>
      <trkpt lat="45.44652" lon="4.67618">
        <ele>660.6</ele>
        <time>2014-04-19T13:56:41.891Z</time>
      </trkpt>
      <trkpt lat="45.44646" lon="4.67609">
        <ele>660.1</ele>
        <time>2014-04-19T13:56:42.896Z</time>
      </trkpt>
      <trkpt lat="45.44646" lon="4.67609">
        <ele>660.1</ele>
        <time>2014-04-19T13:56:43.118Z</time>
      </trkpt>
      <trkpt lat="45.44639" lon="4.67599">
        <ele>659.2</ele>
        <time>2014-04-19T13:56:43.890Z</time>
      </trkpt>
      <trkpt lat="45.44633" lon="4.6759">
        <ele>658.6</ele>
        <time>2014-04-19T13:56:44.873Z</time>
      </trkpt>
      <trkpt lat="45.44627" lon="4.67581">
        <ele>657.9</ele>
        <time>2014-04-19T13:56:45.881Z</time>
      </trkpt>
      <trkpt lat="45.44621" lon="4.67573">
        <ele>657.6</ele>
        <time>2014-04-19T13:56:46.964Z</time>
      </trkpt>
      <trkpt lat="45.44615" lon="4.67565">
        <ele>657.4</ele>
        <time>2014-04-19T13:56:47.948Z</time>
      </trkpt>
      <trkpt lat="45.44609" lon="4.67556">
        <ele>657.2</ele>
        <time>2014-04-19T13:56:48.950Z</time>
      </trkpt>
      <trkpt lat="45.44604" lon="4.67548">
        <ele>657.1</ele>
        <time>2014-04-19T13:56:49.893Z</time>
      </trkpt>
      <trkpt lat="45.44599" lon="4.6754">
        <ele>657.3</ele>
        <time>2014-04-19T13:56:50.974Z</time>
      </trkpt>
      <trkpt lat="45.44593" lon="4.6753">
        <ele>657.3</ele>
        <time>2014-04-19T13:56:51.890Z</time>
      </trkpt>
      <trkpt lat="45.44588" lon="4.6752">
        <ele>657.3</ele>
        <time>2014-04-19T13:56:53.161Z</time>
      </trkpt>
      <trkpt lat="45.44583" lon="4.6751">
        <ele>657.3</ele>
        <time>2014-04-19T13:56:53.841Z</time>
      </trkpt>
      <trkpt lat="45.44579" lon="4.675">
        <ele>657.2</ele>
        <time>2014-04-19T13:56:55.012Z</time>
      </trkpt>
      <trkpt lat="45.44574" lon="4.67491">
        <ele>657</ele>
        <time>2014-04-19T13:56:55.958Z</time>
      </trkpt>
      <trkpt lat="45.44569" lon="4.67481">
        <ele>657</ele>
        <time>2014-04-19T13:56:56.870Z</time>
      </trkpt>
      <trkpt lat="45.44565" lon="4.6747">
        <ele>657</ele>
        <time>2014-04-19T13:56:57.876Z</time>
      </trkpt>
      <trkpt lat="45.4456" lon="4.67459">
        <ele>656.8</ele>
        <time>2014-04-19T13:56:58.883Z</time>
      </trkpt>
      <trkpt lat="45.44556" lon="4.67447">
        <ele>656.4</ele>
        <time>2014-04-19T13:56:59.910Z</time>
      </trkpt>
      <trkpt lat="45.44556" lon="4.67447">
        <ele>656.4</ele>
        <time>2014-04-19T13:57:00.428Z</time>
      </trkpt>
      <trkpt lat="45.44553" lon="4.67435">
        <ele>655.9</ele>
        <time>2014-04-19T13:57:00.863Z</time>
      </trkpt>
      <trkpt lat="45.44553" lon="4.67435">
        <ele>655.9</ele>
        <time>2014-04-19T13:57:01.010Z</time>
      </trkpt>
      <trkpt lat="45.4455" lon="4.67423">
        <ele>655.5</ele>
        <time>2014-04-19T13:57:01.905Z</time>
      </trkpt>
      <trkpt lat="45.44546" lon="4.67411">
        <ele>655.3</ele>
        <time>2014-04-19T13:57:03.084Z</time>
      </trkpt>
      <trkpt lat="45.44542" lon="4.674">
        <ele>655</ele>
        <time>2014-04-19T13:57:03.879Z</time>
      </trkpt>
      <trkpt lat="45.44538" lon="4.67389">
        <ele>654.7</ele>
        <time>2014-04-19T13:57:04.979Z</time>
      </trkpt>
      <trkpt lat="45.44534" lon="4.67378">
        <ele>654.5</ele>
        <time>2014-04-19T13:57:05.883Z</time>
      </trkpt>
      <trkpt lat="45.44534" lon="4.67378">
        <ele>654.5</ele>
        <time>2014-04-19T13:57:06.110Z</time>
      </trkpt>
      <trkpt lat="45.44529" lon="4.67367">
        <ele>654.4</ele>
        <time>2014-04-19T13:57:06.871Z</time>
      </trkpt>
      <trkpt lat="45.44524" lon="4.67357">
        <ele>654.3</ele>
        <time>2014-04-19T13:57:08.233Z</time>
      </trkpt>
      <trkpt lat="45.44518" lon="4.67347">
        <ele>654.1</ele>
        <time>2014-04-19T13:57:08.905Z</time>
      </trkpt>
      <trkpt lat="45.44513" lon="4.67337">
        <ele>653.7</ele>
        <time>2014-04-19T13:57:09.902Z</time>
      </trkpt>
      <trkpt lat="45.44507" lon="4.67327">
        <ele>653.3</ele>
        <time>2014-04-19T13:57:10.889Z</time>
      </trkpt>
      <trkpt lat="45.44507" lon="4.67327">
        <ele>653.3</ele>
        <time>2014-04-19T13:57:11.091Z</time>
      </trkpt>
      <trkpt lat="45.44501" lon="4.67316">
        <ele>652.9</ele>
        <time>2014-04-19T13:57:11.878Z</time>
      </trkpt>
      <trkpt lat="45.44501" lon="4.67316">
        <ele>652.9</ele>
        <time>2014-04-19T13:57:12.124Z</time>
      </trkpt>
      <trkpt lat="45.44495" lon="4.67305">
        <ele>653.2</ele>
        <time>2014-04-19T13:57:12.888Z</time>
      </trkpt>
      <trkpt lat="45.44495" lon="4.67305">
        <ele>653.2</ele>
        <time>2014-04-19T13:57:13.075Z</time>
      </trkpt>
      <trkpt lat="45.4449" lon="4.67294">
        <ele>653.9</ele>
        <time>2014-04-19T13:57:13.925Z</time>
      </trkpt>
      <trkpt lat="45.44485" lon="4.67284">
        <ele>654.2</ele>
        <time>2014-04-19T13:57:14.984Z</time>
      </trkpt>
      <trkpt lat="45.4448" lon="4.67273">
        <ele>654.5</ele>
        <time>2014-04-19T13:57:15.862Z</time>
      </trkpt>
      <trkpt lat="45.44475" lon="4.67263">
        <ele>654.4</ele>
        <time>2014-04-19T13:57:16.964Z</time>
      </trkpt>
      <trkpt lat="45.4447" lon="4.67253">
        <ele>654.5</ele>
        <time>2014-04-19T13:57:17.904Z</time>
      </trkpt>
      <trkpt lat="45.44465" lon="4.67243">
        <ele>654.1</ele>
        <time>2014-04-19T13:57:19.020Z</time>
      </trkpt>
      <trkpt lat="45.4446" lon="4.67233">
        <ele>653.9</ele>
        <time>2014-04-19T13:57:19.897Z</time>
      </trkpt>
      <trkpt lat="45.44454" lon="4.67223">
        <ele>653.6</ele>
        <time>2014-04-19T13:57:20.955Z</time>
      </trkpt>
      <trkpt lat="45.44447" lon="4.67215">
        <ele>652.8</ele>
        <time>2014-04-19T13:57:21.897Z</time>
      </trkpt>
      <trkpt lat="45.44447" lon="4.67215">
        <ele>652.8</ele>
        <time>2014-04-19T13:57:22.298Z</time>
      </trkpt>
      <trkpt lat="45.44439" lon="4.67207">
        <ele>651.8</ele>
        <time>2014-04-19T13:57:22.845Z</time>
      </trkpt>
      <trkpt lat="45.44432" lon="4.67201">
        <ele>650.6</ele>
        <time>2014-04-19T13:57:24.063Z</time>
      </trkpt>
      <trkpt lat="45.44426" lon="4.67196">
        <ele>649.7</ele>
        <time>2014-04-19T13:57:24.904Z</time>
      </trkpt>
      <trkpt lat="45.44419" lon="4.67194">
        <ele>649.1</ele>
        <time>2014-04-19T13:57:26.558Z</time>
      </trkpt>
      <trkpt lat="45.44413" lon="4.67192">
        <ele>648.6</ele>
        <time>2014-04-19T13:57:26.853Z</time>
      </trkpt>
      <trkpt lat="45.44406" lon="4.6719">
        <ele>647.9</ele>
        <time>2014-04-19T13:57:27.947Z</time>
      </trkpt>
      <trkpt lat="45.44399" lon="4.67188">
        <ele>647.4</ele>
        <time>2014-04-19T13:57:28.877Z</time>
      </trkpt>
      <trkpt lat="45.44392" lon="4.67186">
        <ele>647.1</ele>
        <time>2014-04-19T13:57:30.443Z</time>
      </trkpt>
      <trkpt lat="45.44383" lon="4.67183">
        <ele>647.3</ele>
        <time>2014-04-19T13:57:30.860Z</time>
      </trkpt>
      <trkpt lat="45.44383" lon="4.67183">
        <ele>647.3</ele>
        <time>2014-04-19T13:57:30.992Z</time>
      </trkpt>
      <trkpt lat="45.44374" lon="4.67181">
        <ele>647.8</ele>
        <time>2014-04-19T13:57:31.858Z</time>
      </trkpt>
      <trkpt lat="45.44374" lon="4.67181">
        <ele>647.8</ele>
        <time>2014-04-19T13:57:32.020Z</time>
      </trkpt>
      <trkpt lat="45.44363" lon="4.67179">
        <ele>648.1</ele>
        <time>2014-04-19T13:57:32.903Z</time>
      </trkpt>
      <trkpt lat="45.44363" lon="4.67179">
        <ele>648.1</ele>
        <time>2014-04-19T13:57:33.107Z</time>
      </trkpt>
      <trkpt lat="45.44354" lon="4.67173">
        <ele>648.2</ele>
        <time>2014-04-19T13:57:33.896Z</time>
      </trkpt>
      <trkpt lat="45.44354" lon="4.67173">
        <ele>648.2</ele>
        <time>2014-04-19T13:57:34.197Z</time>
      </trkpt>
      <trkpt lat="45.44345" lon="4.67167">
        <ele>647.8</ele>
        <time>2014-04-19T13:57:34.898Z</time>
      </trkpt>
      <trkpt lat="45.44345" lon="4.67167">
        <ele>647.8</ele>
        <time>2014-04-19T13:57:35.070Z</time>
      </trkpt>
      <trkpt lat="45.44336" lon="4.6716">
        <ele>647.2</ele>
        <time>2014-04-19T13:57:35.910Z</time>
      </trkpt>
      <trkpt lat="45.44336" lon="4.6716">
        <ele>647.2</ele>
        <time>2014-04-19T13:57:36.112Z</time>
      </trkpt>
      <trkpt lat="45.44327" lon="4.67154">
        <ele>646.8</ele>
        <time>2014-04-19T13:57:36.854Z</time>
      </trkpt>
      <trkpt lat="45.44327" lon="4.67154">
        <ele>646.8</ele>
        <time>2014-04-19T13:57:37.045Z</time>
      </trkpt>
      <trkpt lat="45.44319" lon="4.67149">
        <ele>646.2</ele>
        <time>2014-04-19T13:57:37.881Z</time>
      </trkpt>
      <trkpt lat="45.44311" lon="4.67144">
        <ele>645.6</ele>
        <time>2014-04-19T13:57:38.945Z</time>
      </trkpt>
      <trkpt lat="45.44303" lon="4.67139">
        <ele>645.1</ele>
        <time>2014-04-19T13:57:39.990Z</time>
      </trkpt>
      <trkpt lat="45.44296" lon="4.67135">
        <ele>644.6</ele>
        <time>2014-04-19T13:57:40.881Z</time>
      </trkpt>
      <trkpt lat="45.44288" lon="4.67132">
        <ele>644.2</ele>
        <time>2014-04-19T13:57:41.849Z</time>
      </trkpt>
      <trkpt lat="45.44281" lon="4.67129">
        <ele>643.9</ele>
        <time>2014-04-19T13:57:42.903Z</time>
      </trkpt>
      <trkpt lat="45.44274" lon="4.67127">
        <ele>644.1</ele>
        <time>2014-04-19T13:57:43.898Z</time>
      </trkpt>
      <trkpt lat="45.44266" lon="4.67126">
        <ele>644.6</ele>
        <time>2014-04-19T13:57:44.966Z</time>
      </trkpt>
      <trkpt lat="45.44258" lon="4.67124">
        <ele>645</ele>
        <time>2014-04-19T13:57:45.854Z</time>
      </trkpt>
      <trkpt lat="45.44249" lon="4.67123">
        <ele>645.2</ele>
        <time>2014-04-19T13:57:46.974Z</time>
      </trkpt>
      <trkpt lat="45.44241" lon="4.67122">
        <ele>645.4</ele>
        <time>2014-04-19T13:57:47.862Z</time>
      </trkpt>
      <trkpt lat="45.44241" lon="4.67122">
        <ele>645.4</ele>
        <time>2014-04-19T13:57:48.167Z</time>
      </trkpt>
      <trkpt lat="45.44232" lon="4.67122">
        <ele>645.5</ele>
        <time>2014-04-19T13:57:49.006Z</time>
      </trkpt>
      <trkpt lat="45.44232" lon="4.67122">
        <ele>645.5</ele>
        <time>2014-04-19T13:57:49.356Z</time>
      </trkpt>
      <trkpt lat="45.44222" lon="4.67122">
        <ele>645.6</ele>
        <time>2014-04-19T13:57:49.858Z</time>
      </trkpt>
      <trkpt lat="45.44222" lon="4.67122">
        <ele>645.6</ele>
        <time>2014-04-19T13:57:50.027Z</time>
      </trkpt>
      <trkpt lat="45.44213" lon="4.67123">
        <ele>645.6</ele>
        <time>2014-04-19T13:57:50.904Z</time>
      </trkpt>
      <trkpt lat="45.44213" lon="4.67123">
        <ele>645.6</ele>
        <time>2014-04-19T13:57:51.216Z</time>
      </trkpt>
      <trkpt lat="45.44203" lon="4.67123">
        <ele>645.2</ele>
        <time>2014-04-19T13:57:51.902Z</time>
      </trkpt>
      <trkpt lat="45.44203" lon="4.67123">
        <ele>645.2</ele>
        <time>2014-04-19T13:57:52.085Z</time>
      </trkpt>
      <trkpt lat="45.44193" lon="4.67122">
        <ele>644.6</ele>
        <time>2014-04-19T13:57:52.880Z</time>
      </trkpt>
      <trkpt lat="45.44193" lon="4.67122">
        <ele>644.6</ele>
        <time>2014-04-19T13:57:53.577Z</time>
      </trkpt>
      <trkpt lat="45.44182" lon="4.67121">
        <ele>644.5</ele>
        <time>2014-04-19T13:57:53.875Z</time>
      </trkpt>
      <trkpt lat="45.44182" lon="4.67121">
        <ele>644.5</ele>
        <time>2014-04-19T13:57:54.048Z</time>
      </trkpt>
      <trkpt lat="45.44172" lon="4.67119">
        <ele>644.8</ele>
        <time>2014-04-19T13:57:54.903Z</time>
      </trkpt>
      <trkpt lat="45.44172" lon="4.67119">
        <ele>644.8</ele>
        <time>2014-04-19T13:57:55.142Z</time>
      </trkpt>
      <trkpt lat="45.44161" lon="4.67115">
        <ele>645.3</ele>
        <time>2014-04-19T13:57:55.896Z</time>
      </trkpt>
      <trkpt lat="45.44161" lon="4.67115">
        <ele>645.3</ele>
        <time>2014-04-19T13:57:56.091Z</time>
      </trkpt>
      <trkpt lat="45.44151" lon="4.67111">
        <ele>645.2</ele>
        <time>2014-04-19T13:57:56.888Z</time>
      </trkpt>
      <trkpt lat="45.44151" lon="4.67111">
        <ele>645.2</ele>
        <time>2014-04-19T13:57:57.065Z</time>
      </trkpt>
      <trkpt lat="45.44143" lon="4.67104">
        <ele>644.6</ele>
        <time>2014-04-19T13:57:57.943Z</time>
      </trkpt>
      <trkpt lat="45.44143" lon="4.67104">
        <ele>644.6</ele>
        <time>2014-04-19T13:57:58.612Z</time>
      </trkpt>
      <trkpt lat="45.44135" lon="4.67097">
        <ele>644.1</ele>
        <time>2014-04-19T13:57:58.847Z</time>
      </trkpt>
      <trkpt lat="45.44127" lon="4.67089">
        <ele>643.5</ele>
        <time>2014-04-19T13:57:59.896Z</time>
      </trkpt>
      <trkpt lat="45.4412" lon="4.67082">
        <ele>642.8</ele>
        <time>2014-04-19T13:58:00.894Z</time>
      </trkpt>
      <trkpt lat="45.44114" lon="4.67074">
        <ele>642.3</ele>
        <time>2014-04-19T13:58:01.898Z</time>
      </trkpt>
      <trkpt lat="45.44107" lon="4.67066">
        <ele>642.3</ele>
        <time>2014-04-19T13:58:02.882Z</time>
      </trkpt>
      <trkpt lat="45.44102" lon="4.67057">
        <ele>641.6</ele>
        <time>2014-04-19T13:58:03.940Z</time>
      </trkpt>
      <trkpt lat="45.44097" lon="4.67048">
        <ele>640.8</ele>
        <time>2014-04-19T13:58:04.906Z</time>
      </trkpt>
      <trkpt lat="45.44092" lon="4.67039">
        <ele>639.9</ele>
        <time>2014-04-19T13:58:05.959Z</time>
      </trkpt>
      <trkpt lat="45.44088" lon="4.6703">
        <ele>639.1</ele>
        <time>2014-04-19T13:58:06.900Z</time>
      </trkpt>
      <trkpt lat="45.44084" lon="4.6702">
        <ele>638.5</ele>
        <time>2014-04-19T13:58:07.955Z</time>
      </trkpt>
      <trkpt lat="45.44081" lon="4.67011">
        <ele>637.9</ele>
        <time>2014-04-19T13:58:08.890Z</time>
      </trkpt>
      <trkpt lat="45.44078" lon="4.67002">
        <ele>637.8</ele>
        <time>2014-04-19T13:58:10.183Z</time>
      </trkpt>
      <trkpt lat="45.44075" lon="4.66992">
        <ele>638.1</ele>
        <time>2014-04-19T13:58:10.900Z</time>
      </trkpt>
      <trkpt lat="45.44072" lon="4.66982">
        <ele>638.5</ele>
        <time>2014-04-19T13:58:11.918Z</time>
      </trkpt>
      <trkpt lat="45.44068" lon="4.66971">
        <ele>638.8</ele>
        <time>2014-04-19T13:58:12.862Z</time>
      </trkpt>
      <trkpt lat="45.44065" lon="4.66961">
        <ele>638.9</ele>
        <time>2014-04-19T13:58:14.119Z</time>
      </trkpt>
      <trkpt lat="45.44061" lon="4.6695">
        <ele>638.8</ele>
        <time>2014-04-19T13:58:14.905Z</time>
      </trkpt>
      <trkpt lat="45.44058" lon="4.6694">
        <ele>638.6</ele>
        <time>2014-04-19T13:58:15.979Z</time>
      </trkpt>
      <trkpt lat="45.44054" lon="4.6693">
        <ele>638.2</ele>
        <time>2014-04-19T13:58:16.905Z</time>
      </trkpt>
      <trkpt lat="45.44051" lon="4.66919">
        <ele>637.6</ele>
        <time>2014-04-19T13:58:17.901Z</time>
      </trkpt>
      <trkpt lat="45.44047" lon="4.66908">
        <ele>637.6</ele>
        <time>2014-04-19T13:58:18.874Z</time>
      </trkpt>
      <trkpt lat="45.44043" lon="4.66898">
        <ele>637.7</ele>
        <time>2014-04-19T13:58:19.954Z</time>
      </trkpt>
      <trkpt lat="45.4404" lon="4.66886">
        <ele>637.9</ele>
        <time>2014-04-19T13:58:20.900Z</time>
      </trkpt>
      <trkpt lat="45.44036" lon="4.66875">
        <ele>637.6</ele>
        <time>2014-04-19T13:58:21.890Z</time>
      </trkpt>
      <trkpt lat="45.44033" lon="4.66863">
        <ele>637</ele>
        <time>2014-04-19T13:58:22.906Z</time>
      </trkpt>
      <trkpt lat="45.44031" lon="4.66851">
        <ele>636.6</ele>
        <time>2014-04-19T13:58:24.525Z</time>
      </trkpt>
      <trkpt lat="45.44029" lon="4.66841">
        <ele>636.5</ele>
        <time>2014-04-19T13:58:24.877Z</time>
      </trkpt>
      <trkpt lat="45.44027" lon="4.66829">
        <ele>636.4</ele>
        <time>2014-04-19T13:58:25.889Z</time>
      </trkpt>
      <trkpt lat="45.44026" lon="4.66818">
        <ele>636.6</ele>
        <time>2014-04-19T13:58:26.871Z</time>
      </trkpt>
      <trkpt lat="45.44026" lon="4.66806">
        <ele>636.7</ele>
        <time>2014-04-19T13:58:27.969Z</time>
      </trkpt>
      <trkpt lat="45.44026" lon="4.66794">
        <ele>636.6</ele>
        <time>2014-04-19T13:58:28.856Z</time>
      </trkpt>
      <trkpt lat="45.44025" lon="4.66782">
        <ele>637</ele>
        <time>2014-04-19T13:58:29.884Z</time>
      </trkpt>
      <trkpt lat="45.44026" lon="4.66769">
        <ele>637.8</ele>
        <time>2014-04-19T13:58:30.901Z</time>
      </trkpt>
      <trkpt lat="45.44026" lon="4.66758">
        <ele>638.4</ele>
        <time>2014-04-19T13:58:31.884Z</time>
      </trkpt>
      <trkpt lat="45.44026" lon="4.66746">
        <ele>639</ele>
        <time>2014-04-19T13:58:32.897Z</time>
      </trkpt>
      <trkpt lat="45.44027" lon="4.66734">
        <ele>639.7</ele>
        <time>2014-04-19T13:58:33.898Z</time>
      </trkpt>
      <trkpt lat="45.44028" lon="4.66722">
        <ele>640</ele>
        <time>2014-04-19T13:58:34.857Z</time>
      </trkpt>
      <trkpt lat="45.44028" lon="4.66722">
        <ele>640</ele>
        <time>2014-04-19T13:58:35.039Z</time>
      </trkpt>
      <trkpt lat="45.44028" lon="4.66709">
        <ele>639.9</ele>
        <time>2014-04-19T13:58:35.896Z</time>
      </trkpt>
      <trkpt lat="45.44029" lon="4.66697">
        <ele>639.7</ele>
        <time>2014-04-19T13:58:36.958Z</time>
      </trkpt>
      <trkpt lat="45.44029" lon="4.66684">
        <ele>639.8</ele>
        <time>2014-04-19T13:58:37.878Z</time>
      </trkpt>
      <trkpt lat="45.44029" lon="4.66672">
        <ele>639.9</ele>
        <time>2014-04-19T13:58:38.945Z</time>
      </trkpt>
      <trkpt lat="45.44029" lon="4.66659">
        <ele>640.1</ele>
        <time>2014-04-19T13:58:39.942Z</time>
      </trkpt>
      <trkpt lat="45.44029" lon="4.66647">
        <ele>640.3</ele>
        <time>2014-04-19T13:58:40.926Z</time>
      </trkpt>
      <trkpt lat="45.44029" lon="4.66636">
        <ele>640.6</ele>
        <time>2014-04-19T13:58:41.862Z</time>
      </trkpt>
      <trkpt lat="45.44029" lon="4.66624">
        <ele>640.8</ele>
        <time>2014-04-19T13:58:42.951Z</time>
      </trkpt>
      <trkpt lat="45.44029" lon="4.66612">
        <ele>641</ele>
        <time>2014-04-19T13:58:43.865Z</time>
      </trkpt>
      <trkpt lat="45.44029" lon="4.666">
        <ele>641.3</ele>
        <time>2014-04-19T13:58:45.087Z</time>
      </trkpt>
      <trkpt lat="45.44028" lon="4.66587">
        <ele>641.4</ele>
        <time>2014-04-19T13:58:45.925Z</time>
      </trkpt>
      <trkpt lat="45.44028" lon="4.66575">
        <ele>641.7</ele>
        <time>2014-04-19T13:58:47.082Z</time>
      </trkpt>
      <trkpt lat="45.44028" lon="4.66562">
        <ele>642</ele>
        <time>2014-04-19T13:58:47.886Z</time>
      </trkpt>
      <trkpt lat="45.44027" lon="4.6655">
        <ele>642.2</ele>
        <time>2014-04-19T13:58:48.964Z</time>
      </trkpt>
      <trkpt lat="45.44027" lon="4.66536">
        <ele>642.1</ele>
        <time>2014-04-19T13:58:49.882Z</time>
      </trkpt>
      <trkpt lat="45.44027" lon="4.66536">
        <ele>642.1</ele>
        <time>2014-04-19T13:58:50.149Z</time>
      </trkpt>
      <trkpt lat="45.44026" lon="4.66523">
        <ele>642.1</ele>
        <time>2014-04-19T13:58:50.920Z</time>
      </trkpt>
      <trkpt lat="45.44024" lon="4.66511">
        <ele>642.2</ele>
        <time>2014-04-19T13:58:51.939Z</time>
      </trkpt>
      <trkpt lat="45.44022" lon="4.66499">
        <ele>642.2</ele>
        <time>2014-04-19T13:58:52.891Z</time>
      </trkpt>
      <trkpt lat="45.44019" lon="4.66488">
        <ele>641.9</ele>
        <time>2014-04-19T13:58:53.891Z</time>
      </trkpt>
      <trkpt lat="45.44016" lon="4.66477">
        <ele>641.6</ele>
        <time>2014-04-19T13:58:54.910Z</time>
      </trkpt>
      <trkpt lat="45.44012" lon="4.66467">
        <ele>641.2</ele>
        <time>2014-04-19T13:58:55.906Z</time>
      </trkpt>
      <trkpt lat="45.44008" lon="4.66457">
        <ele>640.7</ele>
        <time>2014-04-19T13:58:56.898Z</time>
      </trkpt>
      <trkpt lat="45.44004" lon="4.66448">
        <ele>640.1</ele>
        <time>2014-04-19T13:58:57.911Z</time>
      </trkpt>
      <trkpt lat="45.43999" lon="4.66439">
        <ele>639.6</ele>
        <time>2014-04-19T13:58:58.877Z</time>
      </trkpt>
      <trkpt lat="45.43993" lon="4.66429">
        <ele>638.8</ele>
        <time>2014-04-19T13:58:59.903Z</time>
      </trkpt>
      <trkpt lat="45.43987" lon="4.6642">
        <ele>638.3</ele>
        <time>2014-04-19T13:59:00.893Z</time>
      </trkpt>
      <trkpt lat="45.43982" lon="4.66412">
        <ele>637.8</ele>
        <time>2014-04-19T13:59:01.976Z</time>
      </trkpt>
      <trkpt lat="45.43976" lon="4.66404">
        <ele>637.2</ele>
        <time>2014-04-19T13:59:02.860Z</time>
      </trkpt>
      <trkpt lat="45.43971" lon="4.66396">
        <ele>636.6</ele>
        <time>2014-04-19T13:59:04.029Z</time>
      </trkpt>
      <trkpt lat="45.43965" lon="4.66387">
        <ele>635.7</ele>
        <time>2014-04-19T13:59:04.877Z</time>
      </trkpt>
      <trkpt lat="45.4396" lon="4.66379">
        <ele>634.6</ele>
        <time>2014-04-19T13:59:06.129Z</time>
      </trkpt>
      <trkpt lat="45.43954" lon="4.6637">
        <ele>633.4</ele>
        <time>2014-04-19T13:59:06.874Z</time>
      </trkpt>
      <trkpt lat="45.43948" lon="4.66361">
        <ele>632</ele>
        <time>2014-04-19T13:59:07.955Z</time>
      </trkpt>
      <trkpt lat="45.43943" lon="4.66352">
        <ele>630.9</ele>
        <time>2014-04-19T13:59:08.848Z</time>
      </trkpt>
      <trkpt lat="45.43939" lon="4.66343">
        <ele>629.9</ele>
        <time>2014-04-19T13:59:09.898Z</time>
      </trkpt>
      <trkpt lat="45.43934" lon="4.66334">
        <ele>629</ele>
        <time>2014-04-19T13:59:10.903Z</time>
      </trkpt>
      <trkpt lat="45.4393" lon="4.66325">
        <ele>628.3</ele>
        <time>2014-04-19T13:59:11.972Z</time>
      </trkpt>
      <trkpt lat="45.43927" lon="4.66316">
        <ele>627.7</ele>
        <time>2014-04-19T13:59:12.907Z</time>
      </trkpt>
      <trkpt lat="45.43925" lon="4.66306">
        <ele>627.4</ele>
        <time>2014-04-19T13:59:14.029Z</time>
      </trkpt>
      <trkpt lat="45.43923" lon="4.66296">
        <ele>627.2</ele>
        <time>2014-04-19T13:59:14.865Z</time>
      </trkpt>
      <trkpt lat="45.43921" lon="4.66286">
        <ele>627</ele>
        <time>2014-04-19T13:59:15.949Z</time>
      </trkpt>
      <trkpt lat="45.4392" lon="4.66275">
        <ele>626.9</ele>
        <time>2014-04-19T13:59:16.915Z</time>
      </trkpt>
      <trkpt lat="45.43919" lon="4.66265">
        <ele>626.7</ele>
        <time>2014-04-19T13:59:17.900Z</time>
      </trkpt>
      <trkpt lat="45.43918" lon="4.66254">
        <ele>626.5</ele>
        <time>2014-04-19T13:59:18.904Z</time>
      </trkpt>
      <trkpt lat="45.43918" lon="4.66243">
        <ele>626.4</ele>
        <time>2014-04-19T13:59:19.971Z</time>
      </trkpt>
      <trkpt lat="45.43919" lon="4.66232">
        <ele>626.4</ele>
        <time>2014-04-19T13:59:20.898Z</time>
      </trkpt>
      <trkpt lat="45.4392" lon="4.66222">
        <ele>626.3</ele>
        <time>2014-04-19T13:59:21.926Z</time>
      </trkpt>
      <trkpt lat="45.43922" lon="4.66212">
        <ele>626.1</ele>
        <time>2014-04-19T13:59:22.908Z</time>
      </trkpt>
      <trkpt lat="45.43924" lon="4.66202">
        <ele>626.1</ele>
        <time>2014-04-19T13:59:23.948Z</time>
      </trkpt>
      <trkpt lat="45.43926" lon="4.66192">
        <ele>626.2</ele>
        <time>2014-04-19T13:59:24.949Z</time>
      </trkpt>
      <trkpt lat="45.43929" lon="4.66181">
        <ele>626.1</ele>
        <time>2014-04-19T13:59:25.911Z</time>
      </trkpt>
      <trkpt lat="45.43933" lon="4.6617">
        <ele>625.7</ele>
        <time>2014-04-19T13:59:26.902Z</time>
      </trkpt>
      <trkpt lat="45.43937" lon="4.6616">
        <ele>625.4</ele>
        <time>2014-04-19T13:59:27.975Z</time>
      </trkpt>
      <trkpt lat="45.43942" lon="4.66149">
        <ele>624.9</ele>
        <time>2014-04-19T13:59:28.860Z</time>
      </trkpt>
      <trkpt lat="45.43947" lon="4.66139">
        <ele>624.2</ele>
        <time>2014-04-19T13:59:29.930Z</time>
      </trkpt>
      <trkpt lat="45.43952" lon="4.66129">
        <ele>623.8</ele>
        <time>2014-04-19T13:59:30.884Z</time>
      </trkpt>
      <trkpt lat="45.43957" lon="4.66121">
        <ele>623.3</ele>
        <time>2014-04-19T13:59:32.138Z</time>
      </trkpt>
      <trkpt lat="45.43963" lon="4.66114">
        <ele>623</ele>
        <time>2014-04-19T13:59:32.896Z</time>
      </trkpt>
      <trkpt lat="45.43969" lon="4.66108">
        <ele>623</ele>
        <time>2014-04-19T13:59:34.005Z</time>
      </trkpt>
      <trkpt lat="45.43977" lon="4.66102">
        <ele>622.9</ele>
        <time>2014-04-19T13:59:34.926Z</time>
      </trkpt>
      <trkpt lat="45.43984" lon="4.66097">
        <ele>623</ele>
        <time>2014-04-19T13:59:35.863Z</time>
      </trkpt>
      <trkpt lat="45.43991" lon="4.66093">
        <ele>623</ele>
        <time>2014-04-19T13:59:36.893Z</time>
      </trkpt>
      <trkpt lat="45.43997" lon="4.6609">
        <ele>623.2</ele>
        <time>2014-04-19T13:59:37.989Z</time>
      </trkpt>
      <trkpt lat="45.44005" lon="4.66086">
        <ele>623.5</ele>
        <time>2014-04-19T13:59:38.880Z</time>
      </trkpt>
      <trkpt lat="45.44005" lon="4.66086">
        <ele>623.5</ele>
        <time>2014-04-19T13:59:39.078Z</time>
      </trkpt>
      <trkpt lat="45.44014" lon="4.66084">
        <ele>623.8</ele>
        <time>2014-04-19T13:59:39.891Z</time>
      </trkpt>
      <trkpt lat="45.44014" lon="4.66084">
        <ele>623.8</ele>
        <time>2014-04-19T13:59:40.005Z</time>
      </trkpt>
      <trkpt lat="45.44023" lon="4.66082">
        <ele>623.9</ele>
        <time>2014-04-19T13:59:40.853Z</time>
      </trkpt>
      <trkpt lat="45.44023" lon="4.66082">
        <ele>623.9</ele>
        <time>2014-04-19T13:59:40.992Z</time>
      </trkpt>
      <trkpt lat="45.44033" lon="4.66081">
        <ele>623.8</ele>
        <time>2014-04-19T13:59:41.900Z</time>
      </trkpt>
      <trkpt lat="45.44033" lon="4.66081">
        <ele>623.8</ele>
        <time>2014-04-19T13:59:42.098Z</time>
      </trkpt>
      <trkpt lat="45.44042" lon="4.66081">
        <ele>623.6</ele>
        <time>2014-04-19T13:59:42.861Z</time>
      </trkpt>
      <trkpt lat="45.44042" lon="4.66081">
        <ele>623.6</ele>
        <time>2014-04-19T13:59:43.028Z</time>
      </trkpt>
      <trkpt lat="45.44051" lon="4.6608">
        <ele>623.3</ele>
        <time>2014-04-19T13:59:43.896Z</time>
      </trkpt>
      <trkpt lat="45.44059" lon="4.66079">
        <ele>623.3</ele>
        <time>2014-04-19T13:59:44.986Z</time>
      </trkpt>
      <trkpt lat="45.44068" lon="4.66077">
        <ele>623.5</ele>
        <time>2014-04-19T13:59:45.908Z</time>
      </trkpt>
      <trkpt lat="45.44076" lon="4.66075">
        <ele>623.9</ele>
        <time>2014-04-19T13:59:46.919Z</time>
      </trkpt>
      <trkpt lat="45.44083" lon="4.66069">
        <ele>624.6</ele>
        <time>2014-04-19T13:59:47.851Z</time>
      </trkpt>
      <trkpt lat="45.4409" lon="4.66063">
        <ele>625.4</ele>
        <time>2014-04-19T13:59:49.000Z</time>
      </trkpt>
      <trkpt lat="45.44096" lon="4.66055">
        <ele>626.4</ele>
        <time>2014-04-19T13:59:49.919Z</time>
      </trkpt>
      <trkpt lat="45.44101" lon="4.66047">
        <ele>627.5</ele>
        <time>2014-04-19T13:59:50.898Z</time>
      </trkpt>
      <trkpt lat="45.44104" lon="4.66037">
        <ele>628.5</ele>
        <time>2014-04-19T13:59:51.903Z</time>
      </trkpt>
      <trkpt lat="45.44107" lon="4.66027">
        <ele>629.3</ele>
        <time>2014-04-19T13:59:52.998Z</time>
      </trkpt>
      <trkpt lat="45.44109" lon="4.66016">
        <ele>629.9</ele>
        <time>2014-04-19T13:59:53.863Z</time>
      </trkpt>
      <trkpt lat="45.4411" lon="4.66005">
        <ele>630.5</ele>
        <time>2014-04-19T13:59:54.998Z</time>
      </trkpt>
      <trkpt lat="45.44111" lon="4.65993">
        <ele>630.6</ele>
        <time>2014-04-19T13:59:55.914Z</time>
      </trkpt>
      <trkpt lat="45.44111" lon="4.65982">
        <ele>630.7</ele>
        <time>2014-04-19T13:59:56.918Z</time>
      </trkpt>
      <trkpt lat="45.4411" lon="4.6597">
        <ele>630.6</ele>
        <time>2014-04-19T13:59:57.905Z</time>
      </trkpt>
      <trkpt lat="45.44109" lon="4.65959">
        <ele>630.3</ele>
        <time>2014-04-19T13:59:58.893Z</time>
      </trkpt>
      <trkpt lat="45.44108" lon="4.65949">
        <ele>629.9</ele>
        <time>2014-04-19T13:59:59.920Z</time>
      </trkpt>
      <trkpt lat="45.44107" lon="4.65938">
        <ele>629.7</ele>
        <time>2014-04-19T14:00:00.895Z</time>
      </trkpt>
      <trkpt lat="45.44105" lon="4.65927">
        <ele>629.5</ele>
        <time>2014-04-19T14:00:01.874Z</time>
      </trkpt>
      <trkpt lat="45.44104" lon="4.65916">
        <ele>629.4</ele>
        <time>2014-04-19T14:00:02.948Z</time>
      </trkpt>
      <trkpt lat="45.44102" lon="4.65905">
        <ele>629.1</ele>
        <time>2014-04-19T14:00:03.905Z</time>
      </trkpt>
      <trkpt lat="45.44101" lon="4.65894">
        <ele>628.7</ele>
        <time>2014-04-19T14:00:04.947Z</time>
      </trkpt>
      <trkpt lat="45.441" lon="4.65884">
        <ele>628.4</ele>
        <time>2014-04-19T14:00:05.876Z</time>
      </trkpt>
      <trkpt lat="45.44098" lon="4.65872">
        <ele>628.1</ele>
        <time>2014-04-19T14:00:06.951Z</time>
      </trkpt>
      <trkpt lat="45.44096" lon="4.65862">
        <ele>627.5</ele>
        <time>2014-04-19T14:00:07.906Z</time>
      </trkpt>
      <trkpt lat="45.44095" lon="4.65852">
        <ele>627.1</ele>
        <time>2014-04-19T14:00:09.075Z</time>
      </trkpt>
      <trkpt lat="45.44093" lon="4.65842">
        <ele>626.8</ele>
        <time>2014-04-19T14:00:09.877Z</time>
      </trkpt>
      <trkpt lat="45.4409" lon="4.65833">
        <ele>626.7</ele>
        <time>2014-04-19T14:00:10.927Z</time>
      </trkpt>
      <trkpt lat="45.44088" lon="4.65823">
        <ele>626.2</ele>
        <time>2014-04-19T14:00:11.873Z</time>
      </trkpt>
      <trkpt lat="45.44085" lon="4.65813">
        <ele>625.5</ele>
        <time>2014-04-19T14:00:12.887Z</time>
      </trkpt>
      <trkpt lat="45.44082" lon="4.65804">
        <ele>624.8</ele>
        <time>2014-04-19T14:00:13.954Z</time>
      </trkpt>
      <trkpt lat="45.44079" lon="4.65795">
        <ele>624.6</ele>
        <time>2014-04-19T14:00:14.886Z</time>
      </trkpt>
      <trkpt lat="45.44075" lon="4.65787">
        <ele>624.2</ele>
        <time>2014-04-19T14:00:15.894Z</time>
      </trkpt>
      <trkpt lat="45.44071" lon="4.65777">
        <ele>623.9</ele>
        <time>2014-04-19T14:00:16.972Z</time>
      </trkpt>
      <trkpt lat="45.44067" lon="4.65768">
        <ele>623.9</ele>
        <time>2014-04-19T14:00:17.903Z</time>
      </trkpt>
      <trkpt lat="45.44062" lon="4.6576">
        <ele>623.8</ele>
        <time>2014-04-19T14:00:18.990Z</time>
      </trkpt>
      <trkpt lat="45.44058" lon="4.65752">
        <ele>623.9</ele>
        <time>2014-04-19T14:00:19.871Z</time>
      </trkpt>
      <trkpt lat="45.44054" lon="4.65745">
        <ele>623.9</ele>
        <time>2014-04-19T14:00:21.091Z</time>
      </trkpt>
      <trkpt lat="45.4405" lon="4.65737">
        <ele>623.7</ele>
        <time>2014-04-19T14:00:21.859Z</time>
      </trkpt>
      <trkpt lat="45.44046" lon="4.6573">
        <ele>623.1</ele>
        <time>2014-04-19T14:00:22.954Z</time>
      </trkpt>
      <trkpt lat="45.44043" lon="4.65723">
        <ele>622.5</ele>
        <time>2014-04-19T14:00:23.903Z</time>
      </trkpt>
      <trkpt lat="45.44039" lon="4.65717">
        <ele>621.8</ele>
        <time>2014-04-19T14:00:24.902Z</time>
      </trkpt>
      <trkpt lat="45.44035" lon="4.65709">
        <ele>620.9</ele>
        <time>2014-04-19T14:00:25.970Z</time>
      </trkpt>
      <trkpt lat="45.44031" lon="4.65701">
        <ele>620.2</ele>
        <time>2014-04-19T14:00:26.936Z</time>
      </trkpt>
      <trkpt lat="45.44027" lon="4.65694">
        <ele>619.7</ele>
        <time>2014-04-19T14:00:27.898Z</time>
      </trkpt>
      <trkpt lat="45.44023" lon="4.65686">
        <ele>619.1</ele>
        <time>2014-04-19T14:00:28.939Z</time>
      </trkpt>
      <trkpt lat="45.44018" lon="4.65679">
        <ele>619</ele>
        <time>2014-04-19T14:00:29.941Z</time>
      </trkpt>
      <trkpt lat="45.44014" lon="4.65671">
        <ele>618.6</ele>
        <time>2014-04-19T14:00:30.939Z</time>
      </trkpt>
      <trkpt lat="45.4401" lon="4.65664">
        <ele>618.3</ele>
        <time>2014-04-19T14:00:31.901Z</time>
      </trkpt>
      <trkpt lat="45.44005" lon="4.65656">
        <ele>618.1</ele>
        <time>2014-04-19T14:00:32.964Z</time>
      </trkpt>
      <trkpt lat="45.44001" lon="4.65648">
        <ele>618</ele>
        <time>2014-04-19T14:00:33.885Z</time>
      </trkpt>
      <trkpt lat="45.43997" lon="4.65641">
        <ele>617.9</ele>
        <time>2014-04-19T14:00:35.036Z</time>
      </trkpt>
      <trkpt lat="45.43993" lon="4.65634">
        <ele>617.9</ele>
        <time>2014-04-19T14:00:35.896Z</time>
      </trkpt>
      <trkpt lat="45.43988" lon="4.65626">
        <ele>617.7</ele>
        <time>2014-04-19T14:00:36.941Z</time>
      </trkpt>
      <trkpt lat="45.43984" lon="4.65619">
        <ele>617.7</ele>
        <time>2014-04-19T14:00:37.858Z</time>
      </trkpt>
      <trkpt lat="45.4398" lon="4.65612">
        <ele>617.6</ele>
        <time>2014-04-19T14:00:39.044Z</time>
      </trkpt>
      <trkpt lat="45.43976" lon="4.65604">
        <ele>617.2</ele>
        <time>2014-04-19T14:00:40.024Z</time>
      </trkpt>
      <trkpt lat="45.43972" lon="4.65596">
        <ele>616.9</ele>
        <time>2014-04-19T14:00:41.211Z</time>
      </trkpt>
      <trkpt lat="45.43969" lon="4.65589">
        <ele>616.8</ele>
        <time>2014-04-19T14:00:41.894Z</time>
      </trkpt>
      <trkpt lat="45.43966" lon="4.65582">
        <ele>616.6</ele>
        <time>2014-04-19T14:00:42.963Z</time>
      </trkpt>
      <trkpt lat="45.43963" lon="4.65574">
        <ele>616.7</ele>
        <time>2014-04-19T14:00:43.970Z</time>
      </trkpt>
      <trkpt lat="45.43959" lon="4.65566">
        <ele>616.6</ele>
        <time>2014-04-19T14:00:44.983Z</time>
      </trkpt>
      <trkpt lat="45.43956" lon="4.65559">
        <ele>616.3</ele>
        <time>2014-04-19T14:00:45.891Z</time>
      </trkpt>
      <trkpt lat="45.43953" lon="4.65552">
        <ele>616.2</ele>
        <time>2014-04-19T14:00:47.000Z</time>
      </trkpt>
      <trkpt lat="45.4395" lon="4.65545">
        <ele>615.8</ele>
        <time>2014-04-19T14:00:47.900Z</time>
      </trkpt>
      <trkpt lat="45.43946" lon="4.65537">
        <ele>615.5</ele>
        <time>2014-04-19T14:00:48.884Z</time>
      </trkpt>
      <trkpt lat="45.43941" lon="4.6553">
        <ele>614.9</ele>
        <time>2014-04-19T14:00:49.861Z</time>
      </trkpt>
      <trkpt lat="45.43937" lon="4.65522">
        <ele>614.2</ele>
        <time>2014-04-19T14:00:51.020Z</time>
      </trkpt>
      <trkpt lat="45.43933" lon="4.65516">
        <ele>613.8</ele>
        <time>2014-04-19T14:00:51.908Z</time>
      </trkpt>
      <trkpt lat="45.43929" lon="4.65509">
        <ele>613.7</ele>
        <time>2014-04-19T14:00:52.951Z</time>
      </trkpt>
      <trkpt lat="45.43925" lon="4.65502">
        <ele>613.7</ele>
        <time>2014-04-19T14:00:53.864Z</time>
      </trkpt>
      <trkpt lat="45.43921" lon="4.65495">
        <ele>613.7</ele>
        <time>2014-04-19T14:00:54.990Z</time>
      </trkpt>
      <trkpt lat="45.43917" lon="4.65488">
        <ele>614.2</ele>
        <time>2014-04-19T14:00:55.969Z</time>
      </trkpt>
      <trkpt lat="45.43913" lon="4.6548">
        <ele>614.4</ele>
        <time>2014-04-19T14:00:56.962Z</time>
      </trkpt>
      <trkpt lat="45.4391" lon="4.65473">
        <ele>614.7</ele>
        <time>2014-04-19T14:00:57.894Z</time>
      </trkpt>
      <trkpt lat="45.43907" lon="4.65465">
        <ele>614.9</ele>
        <time>2014-04-19T14:00:58.917Z</time>
      </trkpt>
      <trkpt lat="45.43905" lon="4.65456">
        <ele>614.9</ele>
        <time>2014-04-19T14:00:59.945Z</time>
      </trkpt>
      <trkpt lat="45.43904" lon="4.65446">
        <ele>615.1</ele>
        <time>2014-04-19T14:01:00.966Z</time>
      </trkpt>
      <trkpt lat="45.43903" lon="4.65437">
        <ele>615.4</ele>
        <time>2014-04-19T14:01:01.873Z</time>
      </trkpt>
      <trkpt lat="45.43902" lon="4.65427">
        <ele>615.5</ele>
        <time>2014-04-19T14:01:02.948Z</time>
      </trkpt>
      <trkpt lat="45.43901" lon="4.65418">
        <ele>615.9</ele>
        <time>2014-04-19T14:01:04.056Z</time>
      </trkpt>
      <trkpt lat="45.43901" lon="4.65409">
        <ele>616.1</ele>
        <time>2014-04-19T14:01:04.962Z</time>
      </trkpt>
      <trkpt lat="45.43901" lon="4.65401">
        <ele>616.4</ele>
        <time>2014-04-19T14:01:05.898Z</time>
      </trkpt>
      <trkpt lat="45.43901" lon="4.65392">
        <ele>616.7</ele>
        <time>2014-04-19T14:01:07.001Z</time>
      </trkpt>
      <trkpt lat="45.43902" lon="4.65384">
        <ele>616.8</ele>
        <time>2014-04-19T14:01:07.950Z</time>
      </trkpt>
      <trkpt lat="45.43903" lon="4.65374">
        <ele>616.8</ele>
        <time>2014-04-19T14:01:09.025Z</time>
      </trkpt>
      <trkpt lat="45.43903" lon="4.65365">
        <ele>617</ele>
        <time>2014-04-19T14:01:09.896Z</time>
      </trkpt>
      <trkpt lat="45.43904" lon="4.65356">
        <ele>617.2</ele>
        <time>2014-04-19T14:01:10.866Z</time>
      </trkpt>
      <trkpt lat="45.43904" lon="4.65347">
        <ele>617.1</ele>
        <time>2014-04-19T14:01:11.876Z</time>
      </trkpt>
      <trkpt lat="45.43904" lon="4.65338">
        <ele>617</ele>
        <time>2014-04-19T14:01:13.127Z</time>
      </trkpt>
      <trkpt lat="45.43904" lon="4.65328">
        <ele>616.2</ele>
        <time>2014-04-19T14:01:13.899Z</time>
      </trkpt>
      <trkpt lat="45.43902" lon="4.65319">
        <ele>615.4</ele>
        <time>2014-04-19T14:01:15.636Z</time>
      </trkpt>
      <trkpt lat="45.439" lon="4.6531">
        <ele>614.6</ele>
        <time>2014-04-19T14:01:15.848Z</time>
      </trkpt>
      <trkpt lat="45.43898" lon="4.65302">
        <ele>614</ele>
        <time>2014-04-19T14:01:16.965Z</time>
      </trkpt>
      <trkpt lat="45.43894" lon="4.65295">
        <ele>613.7</ele>
        <time>2014-04-19T14:01:17.893Z</time>
      </trkpt>
      <trkpt lat="45.4389" lon="4.65288">
        <ele>613.6</ele>
        <time>2014-04-19T14:01:19.264Z</time>
      </trkpt>
      <trkpt lat="45.43885" lon="4.65281">
        <ele>613.3</ele>
        <time>2014-04-19T14:01:19.897Z</time>
      </trkpt>
      <trkpt lat="45.43881" lon="4.65275">
        <ele>613.2</ele>
        <time>2014-04-19T14:01:20.978Z</time>
      </trkpt>
      <trkpt lat="45.43876" lon="4.65268">
        <ele>613.2</ele>
        <time>2014-04-19T14:01:21.866Z</time>
      </trkpt>
      <trkpt lat="45.4387" lon="4.65262">
        <ele>612.9</ele>
        <time>2014-04-19T14:01:23.038Z</time>
      </trkpt>
      <trkpt lat="45.43866" lon="4.65256">
        <ele>612.6</ele>
        <time>2014-04-19T14:01:23.898Z</time>
      </trkpt>
      <trkpt lat="45.43861" lon="4.65251">
        <ele>612.2</ele>
        <time>2014-04-19T14:01:25.391Z</time>
      </trkpt>
      <trkpt lat="45.43857" lon="4.65246">
        <ele>612.2</ele>
        <time>2014-04-19T14:01:25.898Z</time>
      </trkpt>
      <trkpt lat="45.43852" lon="4.65242">
        <ele>612.3</ele>
        <time>2014-04-19T14:01:26.902Z</time>
      </trkpt>
      <trkpt lat="45.43847" lon="4.65237">
        <ele>612.1</ele>
        <time>2014-04-19T14:01:27.910Z</time>
      </trkpt>
      <trkpt lat="45.43841" lon="4.65231">
        <ele>611.8</ele>
        <time>2014-04-19T14:01:28.931Z</time>
      </trkpt>
      <trkpt lat="45.43837" lon="4.65226">
        <ele>611.8</ele>
        <time>2014-04-19T14:01:30.071Z</time>
      </trkpt>
      <trkpt lat="45.43832" lon="4.65222">
        <ele>611.5</ele>
        <time>2014-04-19T14:01:30.968Z</time>
      </trkpt>
      <trkpt lat="45.43827" lon="4.65217">
        <ele>611.5</ele>
        <time>2014-04-19T14:01:31.918Z</time>
      </trkpt>
      <trkpt lat="45.43823" lon="4.65213">
        <ele>611.5</ele>
        <time>2014-04-19T14:01:32.941Z</time>
      </trkpt>
      <trkpt lat="45.43818" lon="4.65209">
        <ele>611.7</ele>
        <time>2014-04-19T14:01:33.875Z</time>
      </trkpt>
      <trkpt lat="45.43813" lon="4.65204">
        <ele>612.1</ele>
        <time>2014-04-19T14:01:34.991Z</time>
      </trkpt>
      <trkpt lat="45.43809" lon="4.65199">
        <ele>612.6</ele>
        <time>2014-04-19T14:01:35.898Z</time>
      </trkpt>
      <trkpt lat="45.43803" lon="4.65194">
        <ele>613.2</ele>
        <time>2014-04-19T14:01:36.871Z</time>
      </trkpt>
      <trkpt lat="45.43799" lon="4.6519">
        <ele>613.8</ele>
        <time>2014-04-19T14:01:37.890Z</time>
      </trkpt>
      <trkpt lat="45.43794" lon="4.65185">
        <ele>614.4</ele>
        <time>2014-04-19T14:01:39.401Z</time>
      </trkpt>
      <trkpt lat="45.4379" lon="4.6518">
        <ele>615</ele>
        <time>2014-04-19T14:01:39.867Z</time>
      </trkpt>
      <trkpt lat="45.43786" lon="4.65175">
        <ele>615.4</ele>
        <time>2014-04-19T14:01:41.000Z</time>
      </trkpt>
      <trkpt lat="45.43782" lon="4.6517">
        <ele>615.8</ele>
        <time>2014-04-19T14:01:41.844Z</time>
      </trkpt>
      <trkpt lat="45.43778" lon="4.65166">
        <ele>616.1</ele>
        <time>2014-04-19T14:01:42.948Z</time>
      </trkpt>
      <trkpt lat="45.43775" lon="4.65162">
        <ele>616.2</ele>
        <time>2014-04-19T14:01:43.978Z</time>
      </trkpt>
      <trkpt lat="45.4377" lon="4.6516">
        <ele>615.8</ele>
        <time>2014-04-19T14:01:44.984Z</time>
      </trkpt>
      <trkpt lat="45.43765" lon="4.65159">
        <ele>615.6</ele>
        <time>2014-04-19T14:01:45.913Z</time>
      </trkpt>
      <trkpt lat="45.43759" lon="4.65157">
        <ele>615</ele>
        <time>2014-04-19T14:01:46.886Z</time>
      </trkpt>
      <trkpt lat="45.43753" lon="4.65155">
        <ele>614.5</ele>
        <time>2014-04-19T14:01:47.892Z</time>
      </trkpt>
      <trkpt lat="45.43746" lon="4.65156">
        <ele>614.5</ele>
        <time>2014-04-19T14:01:49.396Z</time>
      </trkpt>
      <trkpt lat="45.43738" lon="4.65157">
        <ele>614.2</ele>
        <time>2014-04-19T14:01:49.899Z</time>
      </trkpt>
      <trkpt lat="45.43729" lon="4.65158">
        <ele>614</ele>
        <time>2014-04-19T14:01:50.969Z</time>
      </trkpt>
      <trkpt lat="45.4372" lon="4.65161">
        <ele>613.9</ele>
        <time>2014-04-19T14:01:51.863Z</time>
      </trkpt>
      <trkpt lat="45.4372" lon="4.65161">
        <ele>613.9</ele>
        <time>2014-04-19T14:01:52.052Z</time>
      </trkpt>
      <trkpt lat="45.43709" lon="4.65166">
        <ele>614</ele>
        <time>2014-04-19T14:01:52.901Z</time>
      </trkpt>
      <trkpt lat="45.43709" lon="4.65166">
        <ele>614</ele>
        <time>2014-04-19T14:01:53.688Z</time>
      </trkpt>
      <trkpt lat="45.43699" lon="4.65172">
        <ele>614.4</ele>
        <time>2014-04-19T14:01:53.855Z</time>
      </trkpt>
      <trkpt lat="45.43699" lon="4.65172">
        <ele>614.4</ele>
        <time>2014-04-19T14:01:54.002Z</time>
      </trkpt>
      <trkpt lat="45.43691" lon="4.65178">
        <ele>614.5</ele>
        <time>2014-04-19T14:01:54.891Z</time>
      </trkpt>
      <trkpt lat="45.43684" lon="4.65184">
        <ele>614.3</ele>
        <time>2014-04-19T14:01:55.961Z</time>
      </trkpt>
      <trkpt lat="45.43678" lon="4.65189">
        <ele>613.9</ele>
        <time>2014-04-19T14:01:56.887Z</time>
      </trkpt>
      <trkpt lat="45.43672" lon="4.65194">
        <ele>613.4</ele>
        <time>2014-04-19T14:01:58.765Z</time>
      </trkpt>
      <trkpt lat="45.43665" lon="4.652">
        <ele>612.9</ele>
        <time>2014-04-19T14:01:58.918Z</time>
      </trkpt>
      <trkpt lat="45.4366" lon="4.65205">
        <ele>612.4</ele>
        <time>2014-04-19T14:01:59.998Z</time>
      </trkpt>
      <trkpt lat="45.43653" lon="4.65211">
        <ele>612.3</ele>
        <time>2014-04-19T14:02:00.921Z</time>
      </trkpt>
      <trkpt lat="45.43647" lon="4.65217">
        <ele>612.1</ele>
        <time>2014-04-19T14:02:01.977Z</time>
      </trkpt>
      <trkpt lat="45.43642" lon="4.65222">
        <ele>611.8</ele>
        <time>2014-04-19T14:02:02.905Z</time>
      </trkpt>
      <trkpt lat="45.43637" lon="4.65228">
        <ele>611.6</ele>
        <time>2014-04-19T14:02:03.974Z</time>
      </trkpt>
      <trkpt lat="45.43632" lon="4.65233">
        <ele>611.9</ele>
        <time>2014-04-19T14:02:04.899Z</time>
      </trkpt>
      <trkpt lat="45.43627" lon="4.65239">
        <ele>612.3</ele>
        <time>2014-04-19T14:02:05.917Z</time>
      </trkpt>
      <trkpt lat="45.43622" lon="4.65244">
        <ele>613</ele>
        <time>2014-04-19T14:02:06.864Z</time>
      </trkpt>
      <trkpt lat="45.43616" lon="4.65249">
        <ele>613</ele>
        <time>2014-04-19T14:02:07.964Z</time>
      </trkpt>
      <trkpt lat="45.4361" lon="4.65254">
        <ele>612.6</ele>
        <time>2014-04-19T14:02:08.871Z</time>
      </trkpt>
      <trkpt lat="45.43602" lon="4.65257">
        <ele>612.2</ele>
        <time>2014-04-19T14:02:09.981Z</time>
      </trkpt>
      <trkpt lat="45.43595" lon="4.6526">
        <ele>611.8</ele>
        <time>2014-04-19T14:02:10.906Z</time>
      </trkpt>
      <trkpt lat="45.43587" lon="4.65263">
        <ele>611.3</ele>
        <time>2014-04-19T14:02:11.917Z</time>
      </trkpt>
      <trkpt lat="45.43579" lon="4.65266">
        <ele>610.8</ele>
        <time>2014-04-19T14:02:12.896Z</time>
      </trkpt>
      <trkpt lat="45.43572" lon="4.65269">
        <ele>610.2</ele>
        <time>2014-04-19T14:02:13.946Z</time>
      </trkpt>
      <trkpt lat="45.43563" lon="4.65271">
        <ele>610</ele>
        <time>2014-04-19T14:02:14.902Z</time>
      </trkpt>
      <trkpt lat="45.43555" lon="4.65272">
        <ele>609.6</ele>
        <time>2014-04-19T14:02:16.063Z</time>
      </trkpt>
      <trkpt lat="45.43548" lon="4.65272">
        <ele>609.7</ele>
        <time>2014-04-19T14:02:16.857Z</time>
      </trkpt>
      <trkpt lat="45.4354" lon="4.65272">
        <ele>609.2</ele>
        <time>2014-04-19T14:02:17.966Z</time>
      </trkpt>
      <trkpt lat="45.43533" lon="4.65272">
        <ele>609.3</ele>
        <time>2014-04-19T14:02:18.963Z</time>
      </trkpt>
      <trkpt lat="45.43526" lon="4.65272">
        <ele>610</ele>
        <time>2014-04-19T14:02:19.968Z</time>
      </trkpt>
      <trkpt lat="45.43519" lon="4.65272">
        <ele>610.7</ele>
        <time>2014-04-19T14:02:20.908Z</time>
      </trkpt>
      <trkpt lat="45.43512" lon="4.65273">
        <ele>611.4</ele>
        <time>2014-04-19T14:02:21.976Z</time>
      </trkpt>
      <trkpt lat="45.43506" lon="4.65275">
        <ele>612.2</ele>
        <time>2014-04-19T14:02:22.844Z</time>
      </trkpt>
      <trkpt lat="45.43499" lon="4.65277">
        <ele>612.7</ele>
        <time>2014-04-19T14:02:24.022Z</time>
      </trkpt>
      <trkpt lat="45.43492" lon="4.65279">
        <ele>613.2</ele>
        <time>2014-04-19T14:02:24.896Z</time>
      </trkpt>
      <trkpt lat="45.43486" lon="4.65282">
        <ele>613.3</ele>
        <time>2014-04-19T14:02:26.234Z</time>
      </trkpt>
      <trkpt lat="45.43479" lon="4.65285">
        <ele>613.7</ele>
        <time>2014-04-19T14:02:26.882Z</time>
      </trkpt>
      <trkpt lat="45.43473" lon="4.65289">
        <ele>614.2</ele>
        <time>2014-04-19T14:02:27.936Z</time>
      </trkpt>
      <trkpt lat="45.43467" lon="4.65295">
        <ele>615</ele>
        <time>2014-04-19T14:02:28.924Z</time>
      </trkpt>
      <trkpt lat="45.43461" lon="4.65301">
        <ele>615.6</ele>
        <time>2014-04-19T14:02:29.907Z</time>
      </trkpt>
      <trkpt lat="45.43456" lon="4.65308">
        <ele>615.4</ele>
        <time>2014-04-19T14:02:30.864Z</time>
      </trkpt>
      <trkpt lat="45.43452" lon="4.65314">
        <ele>615.3</ele>
        <time>2014-04-19T14:02:31.886Z</time>
      </trkpt>
      <trkpt lat="45.43448" lon="4.65321">
        <ele>615.1</ele>
        <time>2014-04-19T14:02:32.899Z</time>
      </trkpt>
      <trkpt lat="45.43445" lon="4.6533">
        <ele>615</ele>
        <time>2014-04-19T14:02:33.989Z</time>
      </trkpt>
      <trkpt lat="45.43442" lon="4.65339">
        <ele>614.9</ele>
        <time>2014-04-19T14:02:34.908Z</time>
      </trkpt>
      <trkpt lat="45.43439" lon="4.65349">
        <ele>615.2</ele>
        <time>2014-04-19T14:02:35.960Z</time>
      </trkpt>
      <trkpt lat="45.43435" lon="4.6536">
        <ele>615.6</ele>
        <time>2014-04-19T14:02:36.919Z</time>
      </trkpt>
      <trkpt lat="45.43432" lon="4.65369">
        <ele>616.1</ele>
        <time>2014-04-19T14:02:37.941Z</time>
      </trkpt>
      <trkpt lat="45.43428" lon="4.65378">
        <ele>617.1</ele>
        <time>2014-04-19T14:02:38.891Z</time>
      </trkpt>
      <trkpt lat="45.43425" lon="4.65387">
        <ele>617.6</ele>
        <time>2014-04-19T14:02:39.972Z</time>
      </trkpt>
      <trkpt lat="45.43421" lon="4.65394">
        <ele>618</ele>
        <time>2014-04-19T14:02:40.906Z</time>
      </trkpt>
      <trkpt lat="45.43418" lon="4.65402">
        <ele>618.5</ele>
        <time>2014-04-19T14:02:41.897Z</time>
      </trkpt>
      <trkpt lat="45.43414" lon="4.65409">
        <ele>618.7</ele>
        <time>2014-04-19T14:02:42.861Z</time>
      </trkpt>
      <trkpt lat="45.43409" lon="4.65418">
        <ele>618.5</ele>
        <time>2014-04-19T14:02:43.956Z</time>
      </trkpt>
      <trkpt lat="45.43405" lon="4.65427">
        <ele>617.5</ele>
        <time>2014-04-19T14:02:44.904Z</time>
      </trkpt>
      <trkpt lat="45.43401" lon="4.65434">
        <ele>616.4</ele>
        <time>2014-04-19T14:02:45.934Z</time>
      </trkpt>
      <trkpt lat="45.43396" lon="4.65442">
        <ele>615.2</ele>
        <time>2014-04-19T14:02:46.975Z</time>
      </trkpt>
      <trkpt lat="45.4339" lon="4.65449">
        <ele>614</ele>
        <time>2014-04-19T14:02:48.281Z</time>
      </trkpt>
      <trkpt lat="45.43384" lon="4.65456">
        <ele>612.9</ele>
        <time>2014-04-19T14:02:48.893Z</time>
      </trkpt>
      <trkpt lat="45.43377" lon="4.65463">
        <ele>612.1</ele>
        <time>2014-04-19T14:02:49.908Z</time>
      </trkpt>
      <trkpt lat="45.43371" lon="4.65469">
        <ele>611.3</ele>
        <time>2014-04-19T14:02:50.895Z</time>
      </trkpt>
      <trkpt lat="45.43365" lon="4.65473">
        <ele>610.9</ele>
        <time>2014-04-19T14:02:51.955Z</time>
      </trkpt>
      <trkpt lat="45.43359" lon="4.65476">
        <ele>610.8</ele>
        <time>2014-04-19T14:02:52.906Z</time>
      </trkpt>
      <trkpt lat="45.43352" lon="4.6548">
        <ele>610.8</ele>
        <time>2014-04-19T14:02:53.913Z</time>
      </trkpt>
      <trkpt lat="45.43346" lon="4.65484">
        <ele>610.8</ele>
        <time>2014-04-19T14:02:54.915Z</time>
      </trkpt>
      <trkpt lat="45.43339" lon="4.65488">
        <ele>610.7</ele>
        <time>2014-04-19T14:02:55.889Z</time>
      </trkpt>
      <trkpt lat="45.43333" lon="4.65491">
        <ele>610.7</ele>
        <time>2014-04-19T14:02:56.875Z</time>
      </trkpt>
      <trkpt lat="45.43327" lon="4.65494">
        <ele>610.6</ele>
        <time>2014-04-19T14:02:57.942Z</time>
      </trkpt>
      <trkpt lat="45.4332" lon="4.65497">
        <ele>610.5</ele>
        <time>2014-04-19T14:02:59.030Z</time>
      </trkpt>
      <trkpt lat="45.43314" lon="4.65501">
        <ele>610.2</ele>
        <time>2014-04-19T14:02:59.959Z</time>
      </trkpt>
      <trkpt lat="45.43309" lon="4.65506">
        <ele>609.7</ele>
        <time>2014-04-19T14:03:00.891Z</time>
      </trkpt>
      <trkpt lat="45.43303" lon="4.65511">
        <ele>609</ele>
        <time>2014-04-19T14:03:01.969Z</time>
      </trkpt>
      <trkpt lat="45.43297" lon="4.65517">
        <ele>608.4</ele>
        <time>2014-04-19T14:03:02.860Z</time>
      </trkpt>
      <trkpt lat="45.43292" lon="4.65522">
        <ele>607.6</ele>
        <time>2014-04-19T14:03:03.898Z</time>
      </trkpt>
      <trkpt lat="45.43287" lon="4.65529">
        <ele>606.8</ele>
        <time>2014-04-19T14:03:04.892Z</time>
      </trkpt>
      <trkpt lat="45.43282" lon="4.65535">
        <ele>606.2</ele>
        <time>2014-04-19T14:03:05.968Z</time>
      </trkpt>
      <trkpt lat="45.43277" lon="4.65543">
        <ele>605.7</ele>
        <time>2014-04-19T14:03:06.870Z</time>
      </trkpt>
      <trkpt lat="45.43272" lon="4.6555">
        <ele>605.3</ele>
        <time>2014-04-19T14:03:07.925Z</time>
      </trkpt>
      <trkpt lat="45.43268" lon="4.65556">
        <ele>605</ele>
        <time>2014-04-19T14:03:08.872Z</time>
      </trkpt>
      <trkpt lat="45.43264" lon="4.65564">
        <ele>604.7</ele>
        <time>2014-04-19T14:03:09.995Z</time>
      </trkpt>
      <trkpt lat="45.4326" lon="4.65571">
        <ele>604.5</ele>
        <time>2014-04-19T14:03:10.907Z</time>
      </trkpt>
      <trkpt lat="45.43256" lon="4.6558">
        <ele>604.4</ele>
        <time>2014-04-19T14:03:11.991Z</time>
      </trkpt>
      <trkpt lat="45.43253" lon="4.65588">
        <ele>604.2</ele>
        <time>2014-04-19T14:03:12.891Z</time>
      </trkpt>
      <trkpt lat="45.4325" lon="4.65598">
        <ele>604</ele>
        <time>2014-04-19T14:03:13.983Z</time>
      </trkpt>
      <trkpt lat="45.43247" lon="4.65606">
        <ele>603.8</ele>
        <time>2014-04-19T14:03:14.903Z</time>
      </trkpt>
      <trkpt lat="45.43244" lon="4.65616">
        <ele>603.6</ele>
        <time>2014-04-19T14:03:15.911Z</time>
      </trkpt>
      <trkpt lat="45.43241" lon="4.65625">
        <ele>603.3</ele>
        <time>2014-04-19T14:03:16.883Z</time>
      </trkpt>
      <trkpt lat="45.43238" lon="4.65634">
        <ele>603</ele>
        <time>2014-04-19T14:03:17.905Z</time>
      </trkpt>
      <trkpt lat="45.43235" lon="4.65643">
        <ele>602.7</ele>
        <time>2014-04-19T14:03:18.934Z</time>
      </trkpt>
      <trkpt lat="45.43231" lon="4.65651">
        <ele>602.5</ele>
        <time>2014-04-19T14:03:19.887Z</time>
      </trkpt>
      <trkpt lat="45.43227" lon="4.6566">
        <ele>602.3</ele>
        <time>2014-04-19T14:03:20.904Z</time>
      </trkpt>
      <trkpt lat="45.43223" lon="4.65667">
        <ele>602.2</ele>
        <time>2014-04-19T14:03:21.938Z</time>
      </trkpt>
      <trkpt lat="45.43218" lon="4.65675">
        <ele>602.3</ele>
        <time>2014-04-19T14:03:22.864Z</time>
      </trkpt>
      <trkpt lat="45.43213" lon="4.65682">
        <ele>602.3</ele>
        <time>2014-04-19T14:03:23.997Z</time>
      </trkpt>
      <trkpt lat="45.43208" lon="4.65689">
        <ele>602.2</ele>
        <time>2014-04-19T14:03:24.907Z</time>
      </trkpt>
      <trkpt lat="45.43203" lon="4.65696">
        <ele>602.2</ele>
        <time>2014-04-19T14:03:26.201Z</time>
      </trkpt>
      <trkpt lat="45.43197" lon="4.65701">
        <ele>602.1</ele>
        <time>2014-04-19T14:03:26.863Z</time>
      </trkpt>
      <trkpt lat="45.43191" lon="4.65707">
        <ele>601.9</ele>
        <time>2014-04-19T14:03:27.952Z</time>
      </trkpt>
      <trkpt lat="45.43185" lon="4.65712">
        <ele>601.6</ele>
        <time>2014-04-19T14:03:29.009Z</time>
      </trkpt>
      <trkpt lat="45.43179" lon="4.65716">
        <ele>601.4</ele>
        <time>2014-04-19T14:03:29.925Z</time>
      </trkpt>
      <trkpt lat="45.43173" lon="4.65719">
        <ele>601.4</ele>
        <time>2014-04-19T14:03:30.892Z</time>
      </trkpt>
      <trkpt lat="45.43167" lon="4.65721">
        <ele>601.5</ele>
        <time>2014-04-19T14:03:31.984Z</time>
      </trkpt>
      <trkpt lat="45.43161" lon="4.65723">
        <ele>601.8</ele>
        <time>2014-04-19T14:03:32.893Z</time>
      </trkpt>
      <trkpt lat="45.43155" lon="4.65724">
        <ele>602.1</ele>
        <time>2014-04-19T14:03:33.925Z</time>
      </trkpt>
      <trkpt lat="45.43149" lon="4.65725">
        <ele>602.2</ele>
        <time>2014-04-19T14:03:34.855Z</time>
      </trkpt>
      <trkpt lat="45.43141" lon="4.65724">
        <ele>602.6</ele>
        <time>2014-04-19T14:03:35.971Z</time>
      </trkpt>
      <trkpt lat="45.43134" lon="4.65723">
        <ele>603</ele>
        <time>2014-04-19T14:03:36.898Z</time>
      </trkpt>
      <trkpt lat="45.43126" lon="4.65722">
        <ele>603</ele>
        <time>2014-04-19T14:03:37.944Z</time>
      </trkpt>
      <trkpt lat="45.4312" lon="4.65721">
        <ele>602.8</ele>
        <time>2014-04-19T14:03:38.901Z</time>
      </trkpt>
      <trkpt lat="45.43113" lon="4.65719">
        <ele>603</ele>
        <time>2014-04-19T14:03:39.978Z</time>
      </trkpt>
      <trkpt lat="45.43106" lon="4.65717">
        <ele>602.5</ele>
        <time>2014-04-19T14:03:40.894Z</time>
      </trkpt>
      <trkpt lat="45.43098" lon="4.65716">
        <ele>602.3</ele>
        <time>2014-04-19T14:03:41.878Z</time>
      </trkpt>
      <trkpt lat="45.43091" lon="4.65716">
        <ele>602.7</ele>
        <time>2014-04-19T14:03:42.897Z</time>
      </trkpt>
      <trkpt lat="45.43083" lon="4.65716">
        <ele>602.5</ele>
        <time>2014-04-19T14:03:43.955Z</time>
      </trkpt>
      <trkpt lat="45.43075" lon="4.65718">
        <ele>602.2</ele>
        <time>2014-04-19T14:03:44.900Z</time>
      </trkpt>
      <trkpt lat="45.43075" lon="4.65718">
        <ele>602.2</ele>
        <time>2014-04-19T14:03:45.141Z</time>
      </trkpt>
      <trkpt lat="45.43066" lon="4.65723">
        <ele>602.4</ele>
        <time>2014-04-19T14:03:45.893Z</time>
      </trkpt>
      <trkpt lat="45.43059" lon="4.65728">
        <ele>602.1</ele>
        <time>2014-04-19T14:03:47.024Z</time>
      </trkpt>
      <trkpt lat="45.43052" lon="4.65733">
        <ele>602</ele>
        <time>2014-04-19T14:03:47.892Z</time>
      </trkpt>
      <trkpt lat="45.43045" lon="4.6574">
        <ele>602</ele>
        <time>2014-04-19T14:03:48.967Z</time>
      </trkpt>
      <trkpt lat="45.43039" lon="4.65747">
        <ele>602.1</ele>
        <time>2014-04-19T14:03:49.908Z</time>
      </trkpt>
      <trkpt lat="45.43033" lon="4.65754">
        <ele>602.2</ele>
        <time>2014-04-19T14:03:50.992Z</time>
      </trkpt>
      <trkpt lat="45.43027" lon="4.65762">
        <ele>602.5</ele>
        <time>2014-04-19T14:03:51.863Z</time>
      </trkpt>
      <trkpt lat="45.43021" lon="4.65769">
        <ele>602.7</ele>
        <time>2014-04-19T14:03:53.347Z</time>
      </trkpt>
      <trkpt lat="45.43016" lon="4.65777">
        <ele>602.5</ele>
        <time>2014-04-19T14:03:53.861Z</time>
      </trkpt>
      <trkpt lat="45.4301" lon="4.65785">
        <ele>602.6</ele>
        <time>2014-04-19T14:03:54.971Z</time>
      </trkpt>
      <trkpt lat="45.43005" lon="4.65792">
        <ele>602.8</ele>
        <time>2014-04-19T14:03:55.900Z</time>
      </trkpt>
      <trkpt lat="45.43001" lon="4.658">
        <ele>602.8</ele>
        <time>2014-04-19T14:03:56.985Z</time>
      </trkpt>
      <trkpt lat="45.42997" lon="4.65808">
        <ele>602.6</ele>
        <time>2014-04-19T14:03:57.853Z</time>
      </trkpt>
      <trkpt lat="45.42992" lon="4.65816">
        <ele>602.4</ele>
        <time>2014-04-19T14:03:58.905Z</time>
      </trkpt>
      <trkpt lat="45.42988" lon="4.65825">
        <ele>602.1</ele>
        <time>2014-04-19T14:03:59.899Z</time>
      </trkpt>
      <trkpt lat="45.42983" lon="4.65834">
        <ele>602</ele>
        <time>2014-04-19T14:04:00.896Z</time>
      </trkpt>
      <trkpt lat="45.42977" lon="4.65844">
        <ele>601.9</ele>
        <time>2014-04-19T14:04:01.901Z</time>
      </trkpt>
      <trkpt lat="45.42972" lon="4.65853">
        <ele>601.6</ele>
        <time>2014-04-19T14:04:02.944Z</time>
      </trkpt>
      <trkpt lat="45.42968" lon="4.65862">
        <ele>601.5</ele>
        <time>2014-04-19T14:04:03.862Z</time>
      </trkpt>
      <trkpt lat="45.42963" lon="4.6587">
        <ele>601.1</ele>
        <time>2014-04-19T14:04:04.937Z</time>
      </trkpt>
      <trkpt lat="45.42959" lon="4.65879">
        <ele>600.8</ele>
        <time>2014-04-19T14:04:05.900Z</time>
      </trkpt>
      <trkpt lat="45.42954" lon="4.65887">
        <ele>600.5</ele>
        <time>2014-04-19T14:04:06.971Z</time>
      </trkpt>
      <trkpt lat="45.42949" lon="4.65896">
        <ele>600.1</ele>
        <time>2014-04-19T14:04:07.895Z</time>
      </trkpt>
      <trkpt lat="45.42945" lon="4.65904">
        <ele>599.8</ele>
        <time>2014-04-19T14:04:09.248Z</time>
      </trkpt>
      <trkpt lat="45.4294" lon="4.65911">
        <ele>599.6</ele>
        <time>2014-04-19T14:04:09.896Z</time>
      </trkpt>
      <trkpt lat="45.42936" lon="4.65916">
        <ele>599.5</ele>
        <time>2014-04-19T14:04:11.010Z</time>
      </trkpt>
      <trkpt lat="45.42931" lon="4.65922">
        <ele>599.3</ele>
        <time>2014-04-19T14:04:11.900Z</time>
      </trkpt>
      <trkpt lat="45.42926" lon="4.65927">
        <ele>599.1</ele>
        <time>2014-04-19T14:04:12.896Z</time>
      </trkpt>
      <trkpt lat="45.42922" lon="4.65931">
        <ele>599</ele>
        <time>2014-04-19T14:04:13.916Z</time>
      </trkpt>
      <trkpt lat="45.42918" lon="4.65936">
        <ele>599</ele>
        <time>2014-04-19T14:04:14.978Z</time>
      </trkpt>
      <trkpt lat="45.42914" lon="4.6594">
        <ele>599.2</ele>
        <time>2014-04-19T14:04:15.900Z</time>
      </trkpt>
      <trkpt lat="45.4291" lon="4.65945">
        <ele>599.4</ele>
        <time>2014-04-19T14:04:16.890Z</time>
      </trkpt>
      <trkpt lat="45.42905" lon="4.6595">
        <ele>599.6</ele>
        <time>2014-04-19T14:04:17.911Z</time>
      </trkpt>
      <trkpt lat="45.42901" lon="4.65956">
        <ele>600.1</ele>
        <time>2014-04-19T14:04:18.925Z</time>
      </trkpt>
      <trkpt lat="45.42897" lon="4.65962">
        <ele>600.4</ele>
        <time>2014-04-19T14:04:19.919Z</time>
      </trkpt>
      <trkpt lat="45.42893" lon="4.65968">
        <ele>600.9</ele>
        <time>2014-04-19T14:04:21.011Z</time>
      </trkpt>
      <trkpt lat="45.42892" lon="4.65978">
        <ele>601.7</ele>
        <time>2014-04-19T14:04:21.892Z</time>
      </trkpt>
      <trkpt lat="45.42892" lon="4.65988">
        <ele>602.7</ele>
        <time>2014-04-19T14:04:22.981Z</time>
      </trkpt>
      <trkpt lat="45.42891" lon="4.65998">
        <ele>603.6</ele>
        <time>2014-04-19T14:04:23.925Z</time>
      </trkpt>
      <trkpt lat="45.42891" lon="4.66008">
        <ele>604.2</ele>
        <time>2014-04-19T14:04:24.946Z</time>
      </trkpt>
      <trkpt lat="45.4289" lon="4.66018">
        <ele>604.5</ele>
        <time>2014-04-19T14:04:25.900Z</time>
      </trkpt>
      <trkpt lat="45.4289" lon="4.66027">
        <ele>604.4</ele>
        <time>2014-04-19T14:04:26.891Z</time>
      </trkpt>
      <trkpt lat="45.42889" lon="4.66036">
        <ele>604.2</ele>
        <time>2014-04-19T14:04:27.858Z</time>
      </trkpt>
      <trkpt lat="45.42889" lon="4.66045">
        <ele>603.9</ele>
        <time>2014-04-19T14:04:29.036Z</time>
      </trkpt>
      <trkpt lat="45.42888" lon="4.66056">
        <ele>603.3</ele>
        <time>2014-04-19T14:04:29.865Z</time>
      </trkpt>
      <trkpt lat="45.42886" lon="4.66066">
        <ele>602.4</ele>
        <time>2014-04-19T14:04:30.971Z</time>
      </trkpt>
      <trkpt lat="45.42884" lon="4.66076">
        <ele>601.3</ele>
        <time>2014-04-19T14:04:31.911Z</time>
      </trkpt>
      <trkpt lat="45.42882" lon="4.66084">
        <ele>600.3</ele>
        <time>2014-04-19T14:04:32.893Z</time>
      </trkpt>
      <trkpt lat="45.4288" lon="4.66093">
        <ele>599.5</ele>
        <time>2014-04-19T14:04:33.879Z</time>
      </trkpt>
      <trkpt lat="45.42876" lon="4.66101">
        <ele>598.9</ele>
        <time>2014-04-19T14:04:34.960Z</time>
      </trkpt>
      <trkpt lat="45.42873" lon="4.66109">
        <ele>598.4</ele>
        <time>2014-04-19T14:04:35.958Z</time>
      </trkpt>
      <trkpt lat="45.42869" lon="4.66116">
        <ele>597.9</ele>
        <time>2014-04-19T14:04:36.894Z</time>
      </trkpt>
      <trkpt lat="45.42866" lon="4.66122">
        <ele>597.5</ele>
        <time>2014-04-19T14:04:37.877Z</time>
      </trkpt>
      <trkpt lat="45.42862" lon="4.66128">
        <ele>597.3</ele>
        <time>2014-04-19T14:04:38.948Z</time>
      </trkpt>
      <trkpt lat="45.42858" lon="4.66134">
        <ele>597.2</ele>
        <time>2014-04-19T14:04:39.861Z</time>
      </trkpt>
      <trkpt lat="45.42854" lon="4.66139">
        <ele>597.1</ele>
        <time>2014-04-19T14:04:40.938Z</time>
      </trkpt>
      <trkpt lat="45.4285" lon="4.66145">
        <ele>597.1</ele>
        <time>2014-04-19T14:04:41.862Z</time>
      </trkpt>
      <trkpt lat="45.42846" lon="4.6615">
        <ele>597.2</ele>
        <time>2014-04-19T14:04:43.396Z</time>
      </trkpt>
      <trkpt lat="45.42841" lon="4.66156">
        <ele>597.2</ele>
        <time>2014-04-19T14:04:43.887Z</time>
      </trkpt>
      <trkpt lat="45.42836" lon="4.66161">
        <ele>597</ele>
        <time>2014-04-19T14:04:44.910Z</time>
      </trkpt>
      <trkpt lat="45.42831" lon="4.66165">
        <ele>597</ele>
        <time>2014-04-19T14:04:45.899Z</time>
      </trkpt>
      <trkpt lat="45.42825" lon="4.6617">
        <ele>596.9</ele>
        <time>2014-04-19T14:04:46.876Z</time>
      </trkpt>
      <trkpt lat="45.4282" lon="4.66172">
        <ele>596.8</ele>
        <time>2014-04-19T14:04:47.856Z</time>
      </trkpt>
      <trkpt lat="45.42816" lon="4.66174">
        <ele>597.1</ele>
        <time>2014-04-19T14:04:48.939Z</time>
      </trkpt>
      <trkpt lat="45.42811" lon="4.66176">
        <ele>597.5</ele>
        <time>2014-04-19T14:04:49.907Z</time>
      </trkpt>
      <trkpt lat="45.42806" lon="4.66179">
        <ele>597.8</ele>
        <time>2014-04-19T14:04:50.972Z</time>
      </trkpt>
      <trkpt lat="45.42801" lon="4.6618">
        <ele>597.8</ele>
        <time>2014-04-19T14:04:51.866Z</time>
      </trkpt>
      <trkpt lat="45.42796" lon="4.6618">
        <ele>597.9</ele>
        <time>2014-04-19T14:04:52.925Z</time>
      </trkpt>
      <trkpt lat="45.4279" lon="4.6618">
        <ele>597.9</ele>
        <time>2014-04-19T14:04:53.900Z</time>
      </trkpt>
      <trkpt lat="45.42784" lon="4.66179">
        <ele>597.8</ele>
        <time>2014-04-19T14:04:54.970Z</time>
      </trkpt>
      <trkpt lat="45.42778" lon="4.66174">
        <ele>597.9</ele>
        <time>2014-04-19T14:04:55.910Z</time>
      </trkpt>
      <trkpt lat="45.42772" lon="4.66169">
        <ele>598.1</ele>
        <time>2014-04-19T14:04:56.992Z</time>
      </trkpt>
      <trkpt lat="45.42766" lon="4.66164">
        <ele>598.2</ele>
        <time>2014-04-19T14:04:57.919Z</time>
      </trkpt>
      <trkpt lat="45.4276" lon="4.66159">
        <ele>598.4</ele>
        <time>2014-04-19T14:04:58.929Z</time>
      </trkpt>
      <trkpt lat="45.42754" lon="4.66154">
        <ele>598.9</ele>
        <time>2014-04-19T14:04:59.933Z</time>
      </trkpt>
      <trkpt lat="45.42748" lon="4.66149">
        <ele>599.4</ele>
        <time>2014-04-19T14:05:00.931Z</time>
      </trkpt>
      <trkpt lat="45.42742" lon="4.66144">
        <ele>599.9</ele>
        <time>2014-04-19T14:05:01.899Z</time>
      </trkpt>
      <trkpt lat="45.42736" lon="4.6614">
        <ele>600.2</ele>
        <time>2014-04-19T14:05:03.023Z</time>
      </trkpt>
      <trkpt lat="45.4273" lon="4.66135">
        <ele>600.5</ele>
        <time>2014-04-19T14:05:03.908Z</time>
      </trkpt>
      <trkpt lat="45.42724" lon="4.66131">
        <ele>600.7</ele>
        <time>2014-04-19T14:05:04.973Z</time>
      </trkpt>
      <trkpt lat="45.42718" lon="4.66126">
        <ele>601.1</ele>
        <time>2014-04-19T14:05:05.897Z</time>
      </trkpt>
      <trkpt lat="45.42712" lon="4.66121">
        <ele>601.5</ele>
        <time>2014-04-19T14:05:06.962Z</time>
      </trkpt>
      <trkpt lat="45.42706" lon="4.66116">
        <ele>601.4</ele>
        <time>2014-04-19T14:05:07.896Z</time>
      </trkpt>
      <trkpt lat="45.427" lon="4.66112">
        <ele>601.3</ele>
        <time>2014-04-19T14:05:09.062Z</time>
      </trkpt>
      <trkpt lat="45.42693" lon="4.66107">
        <ele>601.1</ele>
        <time>2014-04-19T14:05:09.891Z</time>
      </trkpt>
      <trkpt lat="45.42687" lon="4.66102">
        <ele>600.6</ele>
        <time>2014-04-19T14:05:11.175Z</time>
      </trkpt>
      <trkpt lat="45.4268" lon="4.66097">
        <ele>599.8</ele>
        <time>2014-04-19T14:05:11.925Z</time>
      </trkpt>
      <trkpt lat="45.42673" lon="4.66093">
        <ele>598.8</ele>
        <time>2014-04-19T14:05:12.983Z</time>
      </trkpt>
      <trkpt lat="45.42667" lon="4.66088">
        <ele>597.8</ele>
        <time>2014-04-19T14:05:13.923Z</time>
      </trkpt>
      <trkpt lat="45.42661" lon="4.66084">
        <ele>596.9</ele>
        <time>2014-04-19T14:05:15.008Z</time>
      </trkpt>
      <trkpt lat="45.42655" lon="4.6608">
        <ele>596.1</ele>
        <time>2014-04-19T14:05:15.928Z</time>
      </trkpt>
      <trkpt lat="45.4265" lon="4.66076">
        <ele>595.4</ele>
        <time>2014-04-19T14:05:16.939Z</time>
      </trkpt>
      <trkpt lat="45.42644" lon="4.66072">
        <ele>594.7</ele>
        <time>2014-04-19T14:05:17.894Z</time>
      </trkpt>
      <trkpt lat="45.42638" lon="4.66068">
        <ele>594</ele>
        <time>2014-04-19T14:05:19.211Z</time>
      </trkpt>
      <trkpt lat="45.42633" lon="4.66064">
        <ele>593.7</ele>
        <time>2014-04-19T14:05:19.906Z</time>
      </trkpt>
      <trkpt lat="45.42628" lon="4.6606">
        <ele>593.5</ele>
        <time>2014-04-19T14:05:20.921Z</time>
      </trkpt>
      <trkpt lat="45.42623" lon="4.66058">
        <ele>593.7</ele>
        <time>2014-04-19T14:05:21.891Z</time>
      </trkpt>
      <trkpt lat="45.42618" lon="4.66055">
        <ele>593.7</ele>
        <time>2014-04-19T14:05:22.927Z</time>
      </trkpt>
      <trkpt lat="45.42613" lon="4.66053">
        <ele>593.9</ele>
        <time>2014-04-19T14:05:23.858Z</time>
      </trkpt>
      <trkpt lat="45.42604" lon="4.66051">
        <ele>594.5</ele>
        <time>2014-04-19T14:05:25.971Z</time>
      </trkpt>
      <trkpt lat="45.426" lon="4.6605">
        <ele>594.9</ele>
        <time>2014-04-19T14:05:26.902Z</time>
      </trkpt>
      <trkpt lat="45.42592" lon="4.66048">
        <ele>595.4</ele>
        <time>2014-04-19T14:05:29.320Z</time>
      </trkpt>
      <trkpt lat="45.42587" lon="4.66047">
        <ele>595.8</ele>
        <time>2014-04-19T14:05:29.911Z</time>
      </trkpt>
      <trkpt lat="45.42581" lon="4.66046">
        <ele>596.2</ele>
        <time>2014-04-19T14:05:30.976Z</time>
      </trkpt>
      <trkpt lat="45.42577" lon="4.66046">
        <ele>596.7</ele>
        <time>2014-04-19T14:05:31.872Z</time>
      </trkpt>
      <trkpt lat="45.42572" lon="4.66045">
        <ele>597</ele>
        <time>2014-04-19T14:05:33.016Z</time>
      </trkpt>
      <trkpt lat="45.42567" lon="4.66045">
        <ele>597.2</ele>
        <time>2014-04-19T14:05:33.913Z</time>
      </trkpt>
      <trkpt lat="45.42562" lon="4.66044">
        <ele>597.4</ele>
        <time>2014-04-19T14:05:34.885Z</time>
      </trkpt>
      <trkpt lat="45.42557" lon="4.66044">
        <ele>597.6</ele>
        <time>2014-04-19T14:05:35.899Z</time>
      </trkpt>
      <trkpt lat="45.42548" lon="4.66043">
        <ele>596.3</ele>
        <time>2014-04-19T14:05:37.985Z</time>
      </trkpt>
      <trkpt lat="45.42543" lon="4.66043">
        <ele>595.6</ele>
        <time>2014-04-19T14:05:38.931Z</time>
      </trkpt>
      <trkpt lat="45.42539" lon="4.66043">
        <ele>595.1</ele>
        <time>2014-04-19T14:05:39.886Z</time>
      </trkpt>
      <trkpt lat="45.42533" lon="4.66044">
        <ele>594.9</ele>
        <time>2014-04-19T14:05:40.904Z</time>
      </trkpt>
      <trkpt lat="45.4254" lon="4.66045">
        <ele>595.5</ele>
        <time>2014-04-19T14:05:50.106Z</time>
      </trkpt>
      <trkpt lat="45.42543" lon="4.66045">
        <ele>595.5</ele>
        <time>2014-04-19T14:05:50.904Z</time>
      </trkpt>
      <trkpt lat="45.4255" lon="4.66045">
        <ele>595.5</ele>
        <time>2014-04-19T14:05:53.597Z</time>
      </trkpt>
      <trkpt lat="45.42553" lon="4.66045">
        <ele>595.4</ele>
        <time>2014-04-19T14:05:53.859Z</time>
      </trkpt>
      <trkpt lat="45.42559" lon="4.66045">
        <ele>595.4</ele>
        <time>2014-04-19T14:05:55.982Z</time>
      </trkpt>
      <trkpt lat="45.42562" lon="4.66045">
        <ele>595.4</ele>
        <time>2014-04-19T14:05:56.923Z</time>
      </trkpt>
      <trkpt lat="45.42569" lon="4.66045">
        <ele>595.5</ele>
        <time>2014-04-19T14:05:58.913Z</time>
      </trkpt>
      <trkpt lat="45.42572" lon="4.66045">
        <ele>595.6</ele>
        <time>2014-04-19T14:05:59.865Z</time>
      </trkpt>
      <trkpt lat="45.4258" lon="4.66046">
        <ele>595.7</ele>
        <time>2014-04-19T14:06:02.950Z</time>
      </trkpt>
      <trkpt lat="45.42583" lon="4.66046">
        <ele>595.8</ele>
        <time>2014-04-19T14:06:03.877Z</time>
      </trkpt>
      <trkpt lat="45.42592" lon="4.66046">
        <ele>595.9</ele>
        <time>2014-04-19T14:06:07.119Z</time>
      </trkpt>
      <trkpt lat="45.42595" lon="4.66046">
        <ele>596</ele>
        <time>2014-04-19T14:06:07.916Z</time>
      </trkpt>
      <trkpt lat="45.42603" lon="4.66047">
        <ele>596.1</ele>
        <time>2014-04-19T14:06:10.997Z</time>
      </trkpt>
      <trkpt lat="45.42606" lon="4.66048">
        <ele>596.1</ele>
        <time>2014-04-19T14:06:11.908Z</time>
      </trkpt>
      <trkpt lat="45.42614" lon="4.66049">
        <ele>596.3</ele>
        <time>2014-04-19T14:06:14.964Z</time>
      </trkpt>
      <trkpt lat="45.42616" lon="4.6605">
        <ele>596.3</ele>
        <time>2014-04-19T14:06:15.937Z</time>
      </trkpt>
      <trkpt lat="45.42623" lon="4.66051">
        <ele>596.5</ele>
        <time>2014-04-19T14:06:18.922Z</time>
      </trkpt>
      <trkpt lat="45.42626" lon="4.66051">
        <ele>596.5</ele>
        <time>2014-04-19T14:06:19.926Z</time>
      </trkpt>
      <trkpt lat="45.42633" lon="4.66053">
        <ele>596.6</ele>
        <time>2014-04-19T14:06:23.177Z</time>
      </trkpt>
      <trkpt lat="45.42636" lon="4.66054">
        <ele>596.6</ele>
        <time>2014-04-19T14:06:23.898Z</time>
      </trkpt>
      <trkpt lat="45.42644" lon="4.66057">
        <ele>596.7</ele>
        <time>2014-04-19T14:06:26.942Z</time>
      </trkpt>
      <trkpt lat="45.42646" lon="4.66058">
        <ele>596.7</ele>
        <time>2014-04-19T14:06:27.866Z</time>
      </trkpt>
      <trkpt lat="45.42655" lon="4.6606">
        <ele>596.8</ele>
        <time>2014-04-19T14:06:31.197Z</time>
      </trkpt>
      <trkpt lat="45.42658" lon="4.66061">
        <ele>596.8</ele>
        <time>2014-04-19T14:06:31.899Z</time>
      </trkpt>
      <trkpt lat="45.42665" lon="4.66062">
        <ele>596.9</ele>
        <time>2014-04-19T14:06:34.048Z</time>
      </trkpt>
      <trkpt lat="45.42667" lon="4.66063">
        <ele>596.9</ele>
        <time>2014-04-19T14:06:34.904Z</time>
      </trkpt>
      <trkpt lat="45.42674" lon="4.66066">
        <ele>596.9</ele>
        <time>2014-04-19T14:06:36.914Z</time>
      </trkpt>
      <trkpt lat="45.42676" lon="4.66067">
        <ele>597</ele>
        <time>2014-04-19T14:06:37.885Z</time>
      </trkpt>
      <trkpt lat="45.42682" lon="4.66069">
        <ele>597</ele>
        <time>2014-04-19T14:06:39.949Z</time>
      </trkpt>
      <trkpt lat="45.42685" lon="4.66071">
        <ele>597.1</ele>
        <time>2014-04-19T14:06:40.896Z</time>
      </trkpt>
      <trkpt lat="45.42693" lon="4.66075">
        <ele>597.2</ele>
        <time>2014-04-19T14:06:44.083Z</time>
      </trkpt>
      <trkpt lat="45.42696" lon="4.66076">
        <ele>597.2</ele>
        <time>2014-04-19T14:06:44.912Z</time>
      </trkpt>
      <trkpt lat="45.42704" lon="4.66081">
        <ele>597.4</ele>
        <time>2014-04-19T14:06:47.923Z</time>
      </trkpt>
      <trkpt lat="45.42706" lon="4.66083">
        <ele>597.5</ele>
        <time>2014-04-19T14:06:48.911Z</time>
      </trkpt>
      <trkpt lat="45.42712" lon="4.66088">
        <ele>597.7</ele>
        <time>2014-04-19T14:06:50.944Z</time>
      </trkpt>
      <trkpt lat="45.42715" lon="4.6609">
        <ele>597.8</ele>
        <time>2014-04-19T14:06:51.906Z</time>
      </trkpt>
      <trkpt lat="45.42721" lon="4.66095">
        <ele>598</ele>
        <time>2014-04-19T14:06:53.912Z</time>
      </trkpt>
      <trkpt lat="45.42724" lon="4.66098">
        <ele>598.1</ele>
        <time>2014-04-19T14:06:54.873Z</time>
      </trkpt>
      <trkpt lat="45.42729" lon="4.66104">
        <ele>598.3</ele>
        <time>2014-04-19T14:06:57.019Z</time>
      </trkpt>
      <trkpt lat="45.42731" lon="4.66107">
        <ele>598.4</ele>
        <time>2014-04-19T14:06:57.923Z</time>
      </trkpt>
      <trkpt lat="45.42736" lon="4.66112">
        <ele>598.6</ele>
        <time>2014-04-19T14:06:59.904Z</time>
      </trkpt>
      <trkpt lat="45.42738" lon="4.66115">
        <ele>598.7</ele>
        <time>2014-04-19T14:07:00.910Z</time>
      </trkpt>
      <trkpt lat="45.42745" lon="4.66123">
        <ele>599.1</ele>
        <time>2014-04-19T14:07:04.144Z</time>
      </trkpt>
      <trkpt lat="45.42747" lon="4.66126">
        <ele>599.3</ele>
        <time>2014-04-19T14:07:04.864Z</time>
      </trkpt>
      <trkpt lat="45.42754" lon="4.66133">
        <ele>599.8</ele>
        <time>2014-04-19T14:07:07.980Z</time>
      </trkpt>
      <trkpt lat="45.42756" lon="4.66135">
        <ele>600</ele>
        <time>2014-04-19T14:07:08.935Z</time>
      </trkpt>
      <trkpt lat="45.42764" lon="4.66138">
        <ele>600.4</ele>
        <time>2014-04-19T14:07:11.001Z</time>
      </trkpt>
      <trkpt lat="45.42767" lon="4.66139">
        <ele>600.5</ele>
        <time>2014-04-19T14:07:11.877Z</time>
      </trkpt>
      <trkpt lat="45.42773" lon="4.66139">
        <ele>600.8</ele>
        <time>2014-04-19T14:07:13.979Z</time>
      </trkpt>
      <trkpt lat="45.42776" lon="4.66139">
        <ele>600.9</ele>
        <time>2014-04-19T14:07:14.897Z</time>
      </trkpt>
      <trkpt lat="45.42782" lon="4.66136">
        <ele>601.2</ele>
        <time>2014-04-19T14:07:17.135Z</time>
      </trkpt>
      <trkpt lat="45.42785" lon="4.66133">
        <ele>601.3</ele>
        <time>2014-04-19T14:07:17.864Z</time>
      </trkpt>
      <trkpt lat="45.4279" lon="4.66127">
        <ele>601.6</ele>
        <time>2014-04-19T14:07:19.883Z</time>
      </trkpt>
      <trkpt lat="45.42792" lon="4.66124">
        <ele>601.6</ele>
        <time>2014-04-19T14:07:20.925Z</time>
      </trkpt>
      <trkpt lat="45.42796" lon="4.66116">
        <ele>601.8</ele>
        <time>2014-04-19T14:07:22.978Z</time>
      </trkpt>
      <trkpt lat="45.42798" lon="4.66112">
        <ele>601.9</ele>
        <time>2014-04-19T14:07:24.007Z</time>
      </trkpt>
      <trkpt lat="45.428" lon="4.66102">
        <ele>602.1</ele>
        <time>2014-04-19T14:07:25.963Z</time>
      </trkpt>
      <trkpt lat="45.42802" lon="4.66097">
        <ele>602.3</ele>
        <time>2014-04-19T14:07:26.873Z</time>
      </trkpt>
      <trkpt lat="45.42804" lon="4.66088">
        <ele>602.7</ele>
        <time>2014-04-19T14:07:29.109Z</time>
      </trkpt>
      <trkpt lat="45.42805" lon="4.66083">
        <ele>602.8</ele>
        <time>2014-04-19T14:07:29.920Z</time>
      </trkpt>
      <trkpt lat="45.42807" lon="4.66074">
        <ele>603.1</ele>
        <time>2014-04-19T14:07:31.922Z</time>
      </trkpt>
      <trkpt lat="45.42807" lon="4.66069">
        <ele>603.2</ele>
        <time>2014-04-19T14:07:32.886Z</time>
      </trkpt>
      <trkpt lat="45.42809" lon="4.6606">
        <ele>603.5</ele>
        <time>2014-04-19T14:07:35.001Z</time>
      </trkpt>
      <trkpt lat="45.4281" lon="4.66055">
        <ele>603.6</ele>
        <time>2014-04-19T14:07:35.926Z</time>
      </trkpt>
      <trkpt lat="45.42812" lon="4.66047">
        <ele>603.8</ele>
        <time>2014-04-19T14:07:38.034Z</time>
      </trkpt>
      <trkpt lat="45.42813" lon="4.66043">
        <ele>604</ele>
        <time>2014-04-19T14:07:38.922Z</time>
      </trkpt>
      <trkpt lat="45.42815" lon="4.66034">
        <ele>604.2</ele>
        <time>2014-04-19T14:07:40.961Z</time>
      </trkpt>
      <trkpt lat="45.42816" lon="4.6603">
        <ele>604.3</ele>
        <time>2014-04-19T14:07:41.876Z</time>
      </trkpt>
      <trkpt lat="45.4282" lon="4.66019">
        <ele>604.7</ele>
        <time>2014-04-19T14:07:44.953Z</time>
      </trkpt>
      <trkpt lat="45.42821" lon="4.66015">
        <ele>604.8</ele>
        <time>2014-04-19T14:07:45.924Z</time>
      </trkpt>
      <trkpt lat="45.42826" lon="4.66004">
        <ele>605.2</ele>
        <time>2014-04-19T14:07:49.269Z</time>
      </trkpt>
      <trkpt lat="45.42827" lon="4.66001">
        <ele>605.3</ele>
        <time>2014-04-19T14:07:49.919Z</time>
      </trkpt>
      <trkpt lat="45.4283" lon="4.65994">
        <ele>605.6</ele>
        <time>2014-04-19T14:07:51.927Z</time>
      </trkpt>
      <trkpt lat="45.42832" lon="4.6599">
        <ele>605.8</ele>
        <time>2014-04-19T14:07:52.930Z</time>
      </trkpt>
      <trkpt lat="45.42836" lon="4.65983">
        <ele>606.1</ele>
        <time>2014-04-19T14:07:55.031Z</time>
      </trkpt>
      <trkpt lat="45.42837" lon="4.65979">
        <ele>606.2</ele>
        <time>2014-04-19T14:07:55.939Z</time>
      </trkpt>
      <trkpt lat="45.42842" lon="4.65971">
        <ele>606.5</ele>
        <time>2014-04-19T14:07:58.674Z</time>
      </trkpt>
      <trkpt lat="45.42844" lon="4.65967">
        <ele>606.7</ele>
        <time>2014-04-19T14:07:58.884Z</time>
      </trkpt>
      <trkpt lat="45.4285" lon="4.65958">
        <ele>607.3</ele>
        <time>2014-04-19T14:08:02.041Z</time>
      </trkpt>
      <trkpt lat="45.42851" lon="4.65955">
        <ele>607.5</ele>
        <time>2014-04-19T14:08:02.898Z</time>
      </trkpt>
      <trkpt lat="45.42856" lon="4.65944">
        <ele>608.3</ele>
        <time>2014-04-19T14:08:06.007Z</time>
      </trkpt>
      <trkpt lat="45.42857" lon="4.6594">
        <ele>608.6</ele>
        <time>2014-04-19T14:08:06.914Z</time>
      </trkpt>
      <trkpt lat="45.42855" lon="4.65928">
        <ele>609.1</ele>
        <time>2014-04-19T14:08:09.991Z</time>
      </trkpt>
      <trkpt lat="45.42854" lon="4.65926">
        <ele>609.3</ele>
        <time>2014-04-19T14:08:10.925Z</time>
      </trkpt>
      <trkpt lat="45.42847" lon="4.65926">
        <ele>610</ele>
        <time>2014-04-19T14:08:13.966Z</time>
      </trkpt>
      <trkpt lat="45.42844" lon="4.65927">
        <ele>610.2</ele>
        <time>2014-04-19T14:08:14.923Z</time>
      </trkpt>
      <trkpt lat="45.42837" lon="4.6593">
        <ele>610.6</ele>
        <time>2014-04-19T14:08:17.231Z</time>
      </trkpt>
      <trkpt lat="45.42833" lon="4.65931">
        <ele>610.8</ele>
        <time>2014-04-19T14:08:17.911Z</time>
      </trkpt>
      <trkpt lat="45.42827" lon="4.65934">
        <ele>611.1</ele>
        <time>2014-04-19T14:08:20.057Z</time>
      </trkpt>
      <trkpt lat="45.42824" lon="4.65936">
        <ele>611.3</ele>
        <time>2014-04-19T14:08:20.960Z</time>
      </trkpt>
      <trkpt lat="45.42818" lon="4.65939">
        <ele>611.7</ele>
        <time>2014-04-19T14:08:22.985Z</time>
      </trkpt>
      <trkpt lat="45.42815" lon="4.65941">
        <ele>611.9</ele>
        <time>2014-04-19T14:08:23.916Z</time>
      </trkpt>
      <trkpt lat="45.42808" lon="4.65949">
        <ele>612.4</ele>
        <time>2014-04-19T14:08:26.973Z</time>
      </trkpt>
      <trkpt lat="45.42806" lon="4.65951">
        <ele>612.6</ele>
        <time>2014-04-19T14:08:27.916Z</time>
      </trkpt>
      <trkpt lat="45.42802" lon="4.65958">
        <ele>612.9</ele>
        <time>2014-04-19T14:08:29.982Z</time>
      </trkpt>
      <trkpt lat="45.42799" lon="4.65961">
        <ele>613.1</ele>
        <time>2014-04-19T14:08:30.934Z</time>
      </trkpt>
      <trkpt lat="45.42794" lon="4.65967">
        <ele>613.4</ele>
        <time>2014-04-19T14:08:33.339Z</time>
      </trkpt>
      <trkpt lat="45.42791" lon="4.6597">
        <ele>613.5</ele>
        <time>2014-04-19T14:08:34.028Z</time>
      </trkpt>
      <trkpt lat="45.42785" lon="4.65977">
        <ele>613.7</ele>
        <time>2014-04-19T14:08:35.942Z</time>
      </trkpt>
      <trkpt lat="45.42783" lon="4.65979">
        <ele>613.8</ele>
        <time>2014-04-19T14:08:36.903Z</time>
      </trkpt>
      <trkpt lat="45.42775" lon="4.65985">
        <ele>614</ele>
        <time>2014-04-19T14:08:39.997Z</time>
      </trkpt>
      <trkpt lat="45.42773" lon="4.65987">
        <ele>614.1</ele>
        <time>2014-04-19T14:08:40.914Z</time>
      </trkpt>
      <trkpt lat="45.42766" lon="4.6599">
        <ele>614.4</ele>
        <time>2014-04-19T14:08:44.138Z</time>
      </trkpt>
      <trkpt lat="45.42764" lon="4.65991">
        <ele>614.5</ele>
        <time>2014-04-19T14:08:44.928Z</time>
      </trkpt>
      <trkpt lat="45.42756" lon="4.65993">
        <ele>614.8</ele>
        <time>2014-04-19T14:08:48.023Z</time>
      </trkpt>
      <trkpt lat="45.42753" lon="4.65993">
        <ele>614.9</ele>
        <time>2014-04-19T14:08:48.918Z</time>
      </trkpt>
      <trkpt lat="45.42746" lon="4.65993">
        <ele>615.3</ele>
        <time>2014-04-19T14:08:52.016Z</time>
      </trkpt>
      <trkpt lat="45.42744" lon="4.65993">
        <ele>615.4</ele>
        <time>2014-04-19T14:08:52.887Z</time>
      </trkpt>
      <trkpt lat="45.42737" lon="4.65991">
        <ele>615.9</ele>
        <time>2014-04-19T14:08:55.917Z</time>
      </trkpt>
      <trkpt lat="45.42735" lon="4.6599">
        <ele>616</ele>
        <time>2014-04-19T14:08:56.919Z</time>
      </trkpt>
      <trkpt lat="45.42728" lon="4.65985">
        <ele>616.4</ele>
        <time>2014-04-19T14:08:59.948Z</time>
      </trkpt>
      <trkpt lat="45.42725" lon="4.65984">
        <ele>616.5</ele>
        <time>2014-04-19T14:09:00.931Z</time>
      </trkpt>
      <trkpt lat="45.42717" lon="4.65979">
        <ele>616.9</ele>
        <time>2014-04-19T14:09:04.008Z</time>
      </trkpt>
      <trkpt lat="45.42715" lon="4.65978">
        <ele>617</ele>
        <time>2014-04-19T14:09:04.915Z</time>
      </trkpt>
      <trkpt lat="45.42709" lon="4.65974">
        <ele>617.4</ele>
        <time>2014-04-19T14:09:08.890Z</time>
      </trkpt>
      <trkpt lat="45.42707" lon="4.65973">
        <ele>617.5</ele>
        <time>2014-04-19T14:09:08.961Z</time>
      </trkpt>
      <trkpt lat="45.42699" lon="4.65968">
        <ele>618</ele>
        <time>2014-04-19T14:09:13.951Z</time>
      </trkpt>
      <trkpt lat="45.42694" lon="4.65966">
        <ele>618.3</ele>
        <time>2014-04-19T14:09:14.929Z</time>
      </trkpt>
      <trkpt lat="45.42687" lon="4.65963">
        <ele>618.8</ele>
        <time>2014-04-19T14:09:17.902Z</time>
      </trkpt>
      <trkpt lat="45.42685" lon="4.65962">
        <ele>619</ele>
        <time>2014-04-19T14:09:18.989Z</time>
      </trkpt>
      <trkpt lat="45.42677" lon="4.65958">
        <ele>619.5</ele>
        <time>2014-04-19T14:09:21.924Z</time>
      </trkpt>
      <trkpt lat="45.42674" lon="4.65957">
        <ele>619.7</ele>
        <time>2014-04-19T14:09:22.878Z</time>
      </trkpt>
      <trkpt lat="45.42667" lon="4.65954">
        <ele>620.2</ele>
        <time>2014-04-19T14:09:26.023Z</time>
      </trkpt>
      <trkpt lat="45.42665" lon="4.65954">
        <ele>620.3</ele>
        <time>2014-04-19T14:09:26.926Z</time>
      </trkpt>
      <trkpt lat="45.42658" lon="4.6595">
        <ele>620.9</ele>
        <time>2014-04-19T14:09:31.056Z</time>
      </trkpt>
      <trkpt lat="45.42656" lon="4.65949">
        <ele>621.1</ele>
        <time>2014-04-19T14:09:31.917Z</time>
      </trkpt>
      <trkpt lat="45.42647" lon="4.65945">
        <ele>621.9</ele>
        <time>2014-04-19T14:09:35.985Z</time>
      </trkpt>
      <trkpt lat="45.42645" lon="4.65944">
        <ele>622.2</ele>
        <time>2014-04-19T14:09:36.917Z</time>
      </trkpt>
      <trkpt lat="45.42638" lon="4.65941">
        <ele>623</ele>
        <time>2014-04-19T14:09:40.006Z</time>
      </trkpt>
      <trkpt lat="45.42636" lon="4.6594">
        <ele>623.3</ele>
        <time>2014-04-19T14:09:40.892Z</time>
      </trkpt>
      <trkpt lat="45.42629" lon="4.65938">
        <ele>624.2</ele>
        <time>2014-04-19T14:09:43.973Z</time>
      </trkpt>
      <trkpt lat="45.42627" lon="4.65937">
        <ele>624.5</ele>
        <time>2014-04-19T14:09:44.927Z</time>
      </trkpt>
      <trkpt lat="45.42618" lon="4.65935">
        <ele>625.3</ele>
        <time>2014-04-19T14:09:48.988Z</time>
      </trkpt>
      <trkpt lat="45.42616" lon="4.65934">
        <ele>625.4</ele>
        <time>2014-04-19T14:09:49.919Z</time>
      </trkpt>
      <trkpt lat="45.42609" lon="4.65932">
        <ele>625.9</ele>
        <time>2014-04-19T14:09:53.110Z</time>
      </trkpt>
      <trkpt lat="45.42607" lon="4.65931">
        <ele>626</ele>
        <time>2014-04-19T14:09:53.880Z</time>
      </trkpt>
      <trkpt lat="45.426" lon="4.65929">
        <ele>626.4</ele>
        <time>2014-04-19T14:09:56.921Z</time>
      </trkpt>
      <trkpt lat="45.42598" lon="4.65928">
        <ele>626.5</ele>
        <time>2014-04-19T14:09:57.917Z</time>
      </trkpt>
      <trkpt lat="45.4259" lon="4.65925">
        <ele>627</ele>
        <time>2014-04-19T14:10:01.932Z</time>
      </trkpt>
      <trkpt lat="45.42588" lon="4.65923">
        <ele>627.2</ele>
        <time>2014-04-19T14:10:02.918Z</time>
      </trkpt>
      <trkpt lat="45.42581" lon="4.65917">
        <ele>627.7</ele>
        <time>2014-04-19T14:10:06.912Z</time>
      </trkpt>
      <trkpt lat="45.42579" lon="4.65914">
        <ele>627.9</ele>
        <time>2014-04-19T14:10:07.916Z</time>
      </trkpt>
      <trkpt lat="45.42572" lon="4.65906">
        <ele>628.5</ele>
        <time>2014-04-19T14:10:11.990Z</time>
      </trkpt>
      <trkpt lat="45.42571" lon="4.65905">
        <ele>628.7</ele>
        <time>2014-04-19T14:10:13.019Z</time>
      </trkpt>
      <trkpt lat="45.42565" lon="4.65899">
        <ele>629.6</ele>
        <time>2014-04-19T14:10:16.994Z</time>
      </trkpt>
      <trkpt lat="45.42563" lon="4.65897">
        <ele>629.9</ele>
        <time>2014-04-19T14:10:17.917Z</time>
      </trkpt>
      <trkpt lat="45.42556" lon="4.6589">
        <ele>631</ele>
        <time>2014-04-19T14:10:22.108Z</time>
      </trkpt>
      <trkpt lat="45.42555" lon="4.65887">
        <ele>631.3</ele>
        <time>2014-04-19T14:10:22.920Z</time>
      </trkpt>
      <trkpt lat="45.4255" lon="4.65881">
        <ele>632.1</ele>
        <time>2014-04-19T14:10:25.959Z</time>
      </trkpt>
      <trkpt lat="45.42547" lon="4.65878">
        <ele>632.3</ele>
        <time>2014-04-19T14:10:27.170Z</time>
      </trkpt>
      <trkpt lat="45.4254" lon="4.65872">
        <ele>632.9</ele>
        <time>2014-04-19T14:10:29.930Z</time>
      </trkpt>
      <trkpt lat="45.42538" lon="4.6587">
        <ele>633.1</ele>
        <time>2014-04-19T14:10:30.885Z</time>
      </trkpt>
      <trkpt lat="45.42531" lon="4.65865">
        <ele>633.6</ele>
        <time>2014-04-19T14:10:34.062Z</time>
      </trkpt>
      <trkpt lat="45.42529" lon="4.65863">
        <ele>633.8</ele>
        <time>2014-04-19T14:10:34.934Z</time>
      </trkpt>
      <trkpt lat="45.42523" lon="4.65857">
        <ele>634.3</ele>
        <time>2014-04-19T14:10:38.063Z</time>
      </trkpt>
      <trkpt lat="45.42521" lon="4.65855">
        <ele>634.4</ele>
        <time>2014-04-19T14:10:38.941Z</time>
      </trkpt>
      <trkpt lat="45.42514" lon="4.65849">
        <ele>634.8</ele>
        <time>2014-04-19T14:10:42.087Z</time>
      </trkpt>
      <trkpt lat="45.42512" lon="4.65846">
        <ele>634.9</ele>
        <time>2014-04-19T14:10:42.937Z</time>
      </trkpt>
      <trkpt lat="45.42507" lon="4.65839">
        <ele>635.3</ele>
        <time>2014-04-19T14:10:45.930Z</time>
      </trkpt>
      <trkpt lat="45.42506" lon="4.65837">
        <ele>635.4</ele>
        <time>2014-04-19T14:10:46.914Z</time>
      </trkpt>
      <trkpt lat="45.425" lon="4.65829">
        <ele>635.8</ele>
        <time>2014-04-19T14:10:50.947Z</time>
      </trkpt>
      <trkpt lat="45.42498" lon="4.65826">
        <ele>636</ele>
        <time>2014-04-19T14:10:51.913Z</time>
      </trkpt>
      <trkpt lat="45.42491" lon="4.65818">
        <ele>636.7</ele>
        <time>2014-04-19T14:10:56.004Z</time>
      </trkpt>
      <trkpt lat="45.42489" lon="4.65816">
        <ele>636.9</ele>
        <time>2014-04-19T14:10:56.908Z</time>
      </trkpt>
      <trkpt lat="45.42483" lon="4.65808">
        <ele>637.6</ele>
        <time>2014-04-19T14:11:00.931Z</time>
      </trkpt>
      <trkpt lat="45.42481" lon="4.65806">
        <ele>637.8</ele>
        <time>2014-04-19T14:11:01.858Z</time>
      </trkpt>
      <trkpt lat="45.42475" lon="4.65797">
        <ele>638.5</ele>
        <time>2014-04-19T14:11:05.915Z</time>
      </trkpt>
      <trkpt lat="45.42473" lon="4.65795">
        <ele>638.7</ele>
        <time>2014-04-19T14:11:06.911Z</time>
      </trkpt>
      <trkpt lat="45.42468" lon="4.65784">
        <ele>639.5</ele>
        <time>2014-04-19T14:11:11.201Z</time>
      </trkpt>
      <trkpt lat="45.42466" lon="4.65782">
        <ele>639.7</ele>
        <time>2014-04-19T14:11:11.913Z</time>
      </trkpt>
      <trkpt lat="45.42462" lon="4.65774">
        <ele>640.4</ele>
        <time>2014-04-19T14:11:14.905Z</time>
      </trkpt>
      <trkpt lat="45.42461" lon="4.65771">
        <ele>640.6</ele>
        <time>2014-04-19T14:11:15.874Z</time>
      </trkpt>
      <trkpt lat="45.42457" lon="4.65761">
        <ele>641.4</ele>
        <time>2014-04-19T14:11:19.910Z</time>
      </trkpt>
      <trkpt lat="45.42456" lon="4.65758">
        <ele>641.7</ele>
        <time>2014-04-19T14:11:20.920Z</time>
      </trkpt>
      <trkpt lat="45.42452" lon="4.65749">
        <ele>642.2</ele>
        <time>2014-04-19T14:11:24.780Z</time>
      </trkpt>
      <trkpt lat="45.42451" lon="4.65746">
        <ele>642.4</ele>
        <time>2014-04-19T14:11:24.944Z</time>
      </trkpt>
      <trkpt lat="45.42449" lon="4.65737">
        <ele>642.9</ele>
        <time>2014-04-19T14:11:27.982Z</time>
      </trkpt>
      <trkpt lat="45.42448" lon="4.65734">
        <ele>643</ele>
        <time>2014-04-19T14:11:28.867Z</time>
      </trkpt>
      <trkpt lat="45.42445" lon="4.65724">
        <ele>643.5</ele>
        <time>2014-04-19T14:11:31.919Z</time>
      </trkpt>
      <trkpt lat="45.42444" lon="4.65721">
        <ele>643.6</ele>
        <time>2014-04-19T14:11:32.909Z</time>
      </trkpt>
      <trkpt lat="45.42441" lon="4.65711">
        <ele>644.1</ele>
        <time>2014-04-19T14:11:36.589Z</time>
      </trkpt>
      <trkpt lat="45.4244" lon="4.65708">
        <ele>644.2</ele>
        <time>2014-04-19T14:11:36.859Z</time>
      </trkpt>
      <trkpt lat="45.42436" lon="4.65697">
        <ele>644.8</ele>
        <time>2014-04-19T14:11:40.934Z</time>
      </trkpt>
      <trkpt lat="45.42435" lon="4.65694">
        <ele>645</ele>
        <time>2014-04-19T14:11:41.868Z</time>
      </trkpt>
      <trkpt lat="45.42432" lon="4.65685">
        <ele>645.4</ele>
        <time>2014-04-19T14:11:45.526Z</time>
      </trkpt>
      <trkpt lat="45.42431" lon="4.65682">
        <ele>645.6</ele>
        <time>2014-04-19T14:11:45.861Z</time>
      </trkpt>
      <trkpt lat="45.42427" lon="4.65671">
        <ele>646.4</ele>
        <time>2014-04-19T14:11:50.630Z</time>
      </trkpt>
      <trkpt lat="45.42426" lon="4.65668">
        <ele>646.6</ele>
        <time>2014-04-19T14:11:50.868Z</time>
      </trkpt>
      <trkpt lat="45.42423" lon="4.65659">
        <ele>647.2</ele>
        <time>2014-04-19T14:11:53.908Z</time>
      </trkpt>
      <trkpt lat="45.42422" lon="4.65656">
        <ele>647.4</ele>
        <time>2014-04-19T14:11:54.908Z</time>
      </trkpt>
      <trkpt lat="45.42418" lon="4.65645">
        <ele>648.1</ele>
        <time>2014-04-19T14:11:59.336Z</time>
      </trkpt>
      <trkpt lat="45.42417" lon="4.65643">
        <ele>648.3</ele>
        <time>2014-04-19T14:11:59.858Z</time>
      </trkpt>
      <trkpt lat="45.42414" lon="4.65635">
        <ele>649</ele>
        <time>2014-04-19T14:12:03.915Z</time>
      </trkpt>
      <trkpt lat="45.42413" lon="4.65629">
        <ele>649.5</ele>
        <time>2014-04-19T14:12:04.882Z</time>
      </trkpt>
      <trkpt lat="45.4241" lon="4.6562">
        <ele>650.2</ele>
        <time>2014-04-19T14:12:07.989Z</time>
      </trkpt>
      <trkpt lat="45.42409" lon="4.65616">
        <ele>650.4</ele>
        <time>2014-04-19T14:12:09.032Z</time>
      </trkpt>
      <trkpt lat="45.42406" lon="4.65605">
        <ele>650.9</ele>
        <time>2014-04-19T14:12:11.967Z</time>
      </trkpt>
      <trkpt lat="45.42406" lon="4.65603">
        <ele>651</ele>
        <time>2014-04-19T14:12:12.875Z</time>
      </trkpt>
      <trkpt lat="45.42404" lon="4.65593">
        <ele>651.5</ele>
        <time>2014-04-19T14:12:16.102Z</time>
      </trkpt>
      <trkpt lat="45.42404" lon="4.6559">
        <ele>651.7</ele>
        <time>2014-04-19T14:12:16.911Z</time>
      </trkpt>
      <trkpt lat="45.42402" lon="4.65579">
        <ele>652.2</ele>
        <time>2014-04-19T14:12:19.927Z</time>
      </trkpt>
      <trkpt lat="45.42401" lon="4.65576">
        <ele>652.4</ele>
        <time>2014-04-19T14:12:20.877Z</time>
      </trkpt>
      <trkpt lat="45.424" lon="4.65565">
        <ele>653.2</ele>
        <time>2014-04-19T14:12:24.930Z</time>
      </trkpt>
      <trkpt lat="45.42399" lon="4.65562">
        <ele>653.5</ele>
        <time>2014-04-19T14:12:25.878Z</time>
      </trkpt>
      <trkpt lat="45.42398" lon="4.65553">
        <ele>654.2</ele>
        <time>2014-04-19T14:12:29.107Z</time>
      </trkpt>
      <trkpt lat="45.42397" lon="4.65549">
        <ele>654.4</ele>
        <time>2014-04-19T14:12:29.872Z</time>
      </trkpt>
      <trkpt lat="45.42396" lon="4.65539">
        <ele>655</ele>
        <time>2014-04-19T14:12:32.924Z</time>
      </trkpt>
      <trkpt lat="45.42395" lon="4.65535">
        <ele>655.2</ele>
        <time>2014-04-19T14:12:33.919Z</time>
      </trkpt>
      <trkpt lat="45.42394" lon="4.65525">
        <ele>655.7</ele>
        <time>2014-04-19T14:12:37.053Z</time>
      </trkpt>
      <trkpt lat="45.42394" lon="4.65522">
        <ele>655.9</ele>
        <time>2014-04-19T14:12:37.890Z</time>
      </trkpt>
      <trkpt lat="45.42393" lon="4.65513">
        <ele>656.4</ele>
        <time>2014-04-19T14:12:41.020Z</time>
      </trkpt>
      <trkpt lat="45.42392" lon="4.6551">
        <ele>656.6</ele>
        <time>2014-04-19T14:12:41.867Z</time>
      </trkpt>
      <trkpt lat="45.42392" lon="4.655">
        <ele>657.1</ele>
        <time>2014-04-19T14:12:44.930Z</time>
      </trkpt>
      <trkpt lat="45.42391" lon="4.65496">
        <ele>657.3</ele>
        <time>2014-04-19T14:12:45.882Z</time>
      </trkpt>
      <trkpt lat="45.42391" lon="4.65487">
        <ele>657.9</ele>
        <time>2014-04-19T14:12:49.262Z</time>
      </trkpt>
      <trkpt lat="45.42391" lon="4.65483">
        <ele>658.1</ele>
        <time>2014-04-19T14:12:49.877Z</time>
      </trkpt>
      <trkpt lat="45.4239" lon="4.65471">
        <ele>659.1</ele>
        <time>2014-04-19T14:12:53.952Z</time>
      </trkpt>
      <trkpt lat="45.4239" lon="4.65468">
        <ele>659.4</ele>
        <time>2014-04-19T14:12:54.913Z</time>
      </trkpt>
      <trkpt lat="45.42388" lon="4.65458">
        <ele>660.1</ele>
        <time>2014-04-19T14:12:58.816Z</time>
      </trkpt>
      <trkpt lat="45.42387" lon="4.65454">
        <ele>660.3</ele>
        <time>2014-04-19T14:12:58.972Z</time>
      </trkpt>
      <trkpt lat="45.42385" lon="4.65444">
        <ele>660.9</ele>
        <time>2014-04-19T14:13:01.902Z</time>
      </trkpt>
      <trkpt lat="45.42385" lon="4.65441">
        <ele>661.1</ele>
        <time>2014-04-19T14:13:02.894Z</time>
      </trkpt>
      <trkpt lat="45.42383" lon="4.65432">
        <ele>661.8</ele>
        <time>2014-04-19T14:13:05.993Z</time>
      </trkpt>
      <trkpt lat="45.42382" lon="4.65428">
        <ele>662</ele>
        <time>2014-04-19T14:13:06.906Z</time>
      </trkpt>
      <trkpt lat="45.42381" lon="4.65418">
        <ele>662.6</ele>
        <time>2014-04-19T14:13:10.012Z</time>
      </trkpt>
      <trkpt lat="45.4238" lon="4.65415">
        <ele>662.8</ele>
        <time>2014-04-19T14:13:10.886Z</time>
      </trkpt>
      <trkpt lat="45.42378" lon="4.65408">
        <ele>663.1</ele>
        <time>2014-04-19T14:13:14.016Z</time>
      </trkpt>
      <trkpt lat="45.42377" lon="4.65401">
        <ele>663.4</ele>
        <time>2014-04-19T14:13:14.877Z</time>
      </trkpt>
      <trkpt lat="45.42374" lon="4.65391">
        <ele>663.7</ele>
        <time>2014-04-19T14:13:17.909Z</time>
      </trkpt>
      <trkpt lat="45.42373" lon="4.65388">
        <ele>663.8</ele>
        <time>2014-04-19T14:13:18.946Z</time>
      </trkpt>
      <trkpt lat="45.42369" lon="4.65379">
        <ele>664.2</ele>
        <time>2014-04-19T14:13:22.024Z</time>
      </trkpt>
      <trkpt lat="45.42368" lon="4.65376">
        <ele>664.3</ele>
        <time>2014-04-19T14:13:22.876Z</time>
      </trkpt>
      <trkpt lat="45.42365" lon="4.65366">
        <ele>664.5</ele>
        <time>2014-04-19T14:13:25.936Z</time>
      </trkpt>
      <trkpt lat="45.42364" lon="4.65363">
        <ele>664.6</ele>
        <time>2014-04-19T14:13:26.918Z</time>
      </trkpt>
      <trkpt lat="45.4236" lon="4.65352">
        <ele>665</ele>
        <time>2014-04-19T14:13:30.995Z</time>
      </trkpt>
      <trkpt lat="45.42359" lon="4.65349">
        <ele>665.1</ele>
        <time>2014-04-19T14:13:31.881Z</time>
      </trkpt>
      <trkpt lat="45.42356" lon="4.65339">
        <ele>665.4</ele>
        <time>2014-04-19T14:13:34.911Z</time>
      </trkpt>
      <trkpt lat="45.42355" lon="4.65337">
        <ele>665.5</ele>
        <time>2014-04-19T14:13:35.906Z</time>
      </trkpt>
      <trkpt lat="45.42353" lon="4.65327">
        <ele>665.8</ele>
        <time>2014-04-19T14:13:39.141Z</time>
      </trkpt>
      <trkpt lat="45.42352" lon="4.65324">
        <ele>665.9</ele>
        <time>2014-04-19T14:13:39.883Z</time>
      </trkpt>
      <trkpt lat="45.42349" lon="4.65315">
        <ele>666.4</ele>
        <time>2014-04-19T14:13:44.137Z</time>
      </trkpt>
      <trkpt lat="45.42348" lon="4.65312">
        <ele>666.6</ele>
        <time>2014-04-19T14:13:44.861Z</time>
      </trkpt>
      <trkpt lat="45.42345" lon="4.65302">
        <ele>667.3</ele>
        <time>2014-04-19T14:13:49.186Z</time>
      </trkpt>
      <trkpt lat="45.42344" lon="4.65299">
        <ele>667.5</ele>
        <time>2014-04-19T14:13:49.914Z</time>
      </trkpt>
      <trkpt lat="45.42341" lon="4.65288">
        <ele>668.2</ele>
        <time>2014-04-19T14:13:53.904Z</time>
      </trkpt>
      <trkpt lat="45.4234" lon="4.65285">
        <ele>668.4</ele>
        <time>2014-04-19T14:13:54.908Z</time>
      </trkpt>
      <trkpt lat="45.42338" lon="4.65274">
        <ele>669.3</ele>
        <time>2014-04-19T14:13:59.167Z</time>
      </trkpt>
      <trkpt lat="45.42337" lon="4.65271">
        <ele>669.6</ele>
        <time>2014-04-19T14:13:59.915Z</time>
      </trkpt>
      <trkpt lat="45.42335" lon="4.65263">
        <ele>670.4</ele>
        <time>2014-04-19T14:14:03.899Z</time>
      </trkpt>
      <trkpt lat="45.42334" lon="4.65257">
        <ele>670.9</ele>
        <time>2014-04-19T14:14:04.912Z</time>
      </trkpt>
      <trkpt lat="45.42332" lon="4.65245">
        <ele>672</ele>
        <time>2014-04-19T14:14:08.942Z</time>
      </trkpt>
      <trkpt lat="45.42331" lon="4.65242">
        <ele>672.3</ele>
        <time>2014-04-19T14:14:09.884Z</time>
      </trkpt>
      <trkpt lat="45.42328" lon="4.65233">
        <ele>672.9</ele>
        <time>2014-04-19T14:14:12.992Z</time>
      </trkpt>
      <trkpt lat="45.42328" lon="4.6523">
        <ele>673.1</ele>
        <time>2014-04-19T14:14:14.214Z</time>
      </trkpt>
      <trkpt lat="45.42325" lon="4.6522">
        <ele>674</ele>
        <time>2014-04-19T14:14:17.946Z</time>
      </trkpt>
      <trkpt lat="45.42325" lon="4.65217">
        <ele>674.3</ele>
        <time>2014-04-19T14:14:18.917Z</time>
      </trkpt>
      <trkpt lat="45.42322" lon="4.65205">
        <ele>675.1</ele>
        <time>2014-04-19T14:14:22.912Z</time>
      </trkpt>
      <trkpt lat="45.42322" lon="4.65202">
        <ele>675.3</ele>
        <time>2014-04-19T14:14:23.919Z</time>
      </trkpt>
      <trkpt lat="45.4232" lon="4.65192">
        <ele>675.7</ele>
        <time>2014-04-19T14:14:26.924Z</time>
      </trkpt>
      <trkpt lat="45.42319" lon="4.65188">
        <ele>675.8</ele>
        <time>2014-04-19T14:14:28.027Z</time>
      </trkpt>
      <trkpt lat="45.42317" lon="4.65179">
        <ele>676.2</ele>
        <time>2014-04-19T14:14:30.969Z</time>
      </trkpt>
      <trkpt lat="45.42316" lon="4.65176">
        <ele>676.4</ele>
        <time>2014-04-19T14:14:31.884Z</time>
      </trkpt>
      <trkpt lat="45.42314" lon="4.65164">
        <ele>677.1</ele>
        <time>2014-04-19T14:14:36.019Z</time>
      </trkpt>
      <trkpt lat="45.42314" lon="4.65161">
        <ele>677.2</ele>
        <time>2014-04-19T14:14:36.889Z</time>
      </trkpt>
      <trkpt lat="45.42311" lon="4.65149">
        <ele>677.9</ele>
        <time>2014-04-19T14:14:41.611Z</time>
      </trkpt>
      <trkpt lat="45.42311" lon="4.65145">
        <ele>678.1</ele>
        <time>2014-04-19T14:14:41.876Z</time>
      </trkpt>
      <trkpt lat="45.4231" lon="4.65133">
        <ele>678.7</ele>
        <time>2014-04-19T14:14:45.967Z</time>
      </trkpt>
      <trkpt lat="45.42309" lon="4.65131">
        <ele>678.8</ele>
        <time>2014-04-19T14:14:46.918Z</time>
      </trkpt>
      <trkpt lat="45.42308" lon="4.65122">
        <ele>679.4</ele>
        <time>2014-04-19T14:14:49.906Z</time>
      </trkpt>
      <trkpt lat="45.42307" lon="4.65118">
        <ele>679.5</ele>
        <time>2014-04-19T14:14:50.924Z</time>
      </trkpt>
      <trkpt lat="45.42305" lon="4.65109">
        <ele>679.9</ele>
        <time>2014-04-19T14:14:53.922Z</time>
      </trkpt>
      <trkpt lat="45.42304" lon="4.65105">
        <ele>680.1</ele>
        <time>2014-04-19T14:14:54.882Z</time>
      </trkpt>
      <trkpt lat="45.42302" lon="4.65093">
        <ele>680.7</ele>
        <time>2014-04-19T14:14:58.933Z</time>
      </trkpt>
      <trkpt lat="45.42301" lon="4.65091">
        <ele>680.9</ele>
        <time>2014-04-19T14:14:59.958Z</time>
      </trkpt>
      <trkpt lat="45.42299" lon="4.65081">
        <ele>681.3</ele>
        <time>2014-04-19T14:15:03.239Z</time>
      </trkpt>
      <trkpt lat="45.42298" lon="4.65078">
        <ele>681.5</ele>
        <time>2014-04-19T14:15:03.874Z</time>
      </trkpt>
      <trkpt lat="45.42296" lon="4.65068">
        <ele>681.8</ele>
        <time>2014-04-19T14:15:06.992Z</time>
      </trkpt>
      <trkpt lat="45.42296" lon="4.65065">
        <ele>682</ele>
        <time>2014-04-19T14:15:07.991Z</time>
      </trkpt>
      <trkpt lat="45.42294" lon="4.65056">
        <ele>682.4</ele>
        <time>2014-04-19T14:15:10.962Z</time>
      </trkpt>
      <trkpt lat="45.42294" lon="4.65052">
        <ele>682.6</ele>
        <time>2014-04-19T14:15:11.978Z</time>
      </trkpt>
      <trkpt lat="45.42292" lon="4.6504">
        <ele>683.1</ele>
        <time>2014-04-19T14:15:15.889Z</time>
      </trkpt>
      <trkpt lat="45.42292" lon="4.65037">
        <ele>683.2</ele>
        <time>2014-04-19T14:15:16.900Z</time>
      </trkpt>
      <trkpt lat="45.4229" lon="4.65028">
        <ele>683.7</ele>
        <time>2014-04-19T14:15:19.957Z</time>
      </trkpt>
      <trkpt lat="45.4229" lon="4.65024">
        <ele>683.9</ele>
        <time>2014-04-19T14:15:20.933Z</time>
      </trkpt>
      <trkpt lat="45.42286" lon="4.65013">
        <ele>684.6</ele>
        <time>2014-04-19T14:15:24.932Z</time>
      </trkpt>
      <trkpt lat="45.42286" lon="4.6501">
        <ele>684.7</ele>
        <time>2014-04-19T14:15:25.921Z</time>
      </trkpt>
      <trkpt lat="45.42284" lon="4.64998">
        <ele>685.4</ele>
        <time>2014-04-19T14:15:29.972Z</time>
      </trkpt>
      <trkpt lat="45.42283" lon="4.64995">
        <ele>685.5</ele>
        <time>2014-04-19T14:15:30.919Z</time>
      </trkpt>
      <trkpt lat="45.42283" lon="4.64985">
        <ele>686.1</ele>
        <time>2014-04-19T14:15:34.042Z</time>
      </trkpt>
      <trkpt lat="45.42282" lon="4.64982">
        <ele>686.2</ele>
        <time>2014-04-19T14:15:34.920Z</time>
      </trkpt>
      <trkpt lat="45.42282" lon="4.64972">
        <ele>686.7</ele>
        <time>2014-04-19T14:15:37.990Z</time>
      </trkpt>
      <trkpt lat="45.42281" lon="4.64968">
        <ele>686.9</ele>
        <time>2014-04-19T14:15:38.941Z</time>
      </trkpt>
      <trkpt lat="45.42281" lon="4.64958">
        <ele>687.3</ele>
        <time>2014-04-19T14:15:41.914Z</time>
      </trkpt>
      <trkpt lat="45.42281" lon="4.64955">
        <ele>687.4</ele>
        <time>2014-04-19T14:15:42.865Z</time>
      </trkpt>
      <trkpt lat="45.42281" lon="4.64942">
        <ele>688.1</ele>
        <time>2014-04-19T14:15:46.912Z</time>
      </trkpt>
      <trkpt lat="45.42281" lon="4.64939">
        <ele>688.3</ele>
        <time>2014-04-19T14:15:47.862Z</time>
      </trkpt>
      <trkpt lat="45.4228" lon="4.64929">
        <ele>689</ele>
        <time>2014-04-19T14:15:50.984Z</time>
      </trkpt>
      <trkpt lat="45.4228" lon="4.64926">
        <ele>689.2</ele>
        <time>2014-04-19T14:15:51.898Z</time>
      </trkpt>
      <trkpt lat="45.42279" lon="4.64915">
        <ele>689.8</ele>
        <time>2014-04-19T14:15:54.928Z</time>
      </trkpt>
      <trkpt lat="45.42279" lon="4.64912">
        <ele>690</ele>
        <time>2014-04-19T14:15:55.911Z</time>
      </trkpt>
      <trkpt lat="45.42278" lon="4.64901">
        <ele>690.4</ele>
        <time>2014-04-19T14:15:58.919Z</time>
      </trkpt>
      <trkpt lat="45.42277" lon="4.64898">
        <ele>690.5</ele>
        <time>2014-04-19T14:16:00.015Z</time>
      </trkpt>
      <trkpt lat="45.42277" lon="4.64888">
        <ele>691</ele>
        <time>2014-04-19T14:16:03.147Z</time>
      </trkpt>
      <trkpt lat="45.42276" lon="4.64884">
        <ele>691.2</ele>
        <time>2014-04-19T14:16:03.879Z</time>
      </trkpt>
      <trkpt lat="45.42276" lon="4.64874">
        <ele>691.9</ele>
        <time>2014-04-19T14:16:06.962Z</time>
      </trkpt>
      <trkpt lat="45.42275" lon="4.6487">
        <ele>692.2</ele>
        <time>2014-04-19T14:16:07.913Z</time>
      </trkpt>
      <trkpt lat="45.42275" lon="4.64858">
        <ele>693.3</ele>
        <time>2014-04-19T14:16:11.989Z</time>
      </trkpt>
      <trkpt lat="45.42275" lon="4.64854">
        <ele>693.6</ele>
        <time>2014-04-19T14:16:12.875Z</time>
      </trkpt>
      <trkpt lat="45.42274" lon="4.64844">
        <ele>694.3</ele>
        <time>2014-04-19T14:16:16.014Z</time>
      </trkpt>
      <trkpt lat="45.42273" lon="4.64841">
        <ele>694.6</ele>
        <time>2014-04-19T14:16:16.922Z</time>
      </trkpt>
      <trkpt lat="45.42273" lon="4.6483">
        <ele>695.4</ele>
        <time>2014-04-19T14:16:19.995Z</time>
      </trkpt>
      <trkpt lat="45.42272" lon="4.64827">
        <ele>695.7</ele>
        <time>2014-04-19T14:16:20.930Z</time>
      </trkpt>
      <trkpt lat="45.42271" lon="4.64816">
        <ele>696.5</ele>
        <time>2014-04-19T14:16:24.023Z</time>
      </trkpt>
      <trkpt lat="45.42271" lon="4.64812">
        <ele>696.7</ele>
        <time>2014-04-19T14:16:24.929Z</time>
      </trkpt>
      <trkpt lat="45.4227" lon="4.64802">
        <ele>697.3</ele>
        <time>2014-04-19T14:16:27.996Z</time>
      </trkpt>
      <trkpt lat="45.4227" lon="4.64798">
        <ele>697.5</ele>
        <time>2014-04-19T14:16:28.928Z</time>
      </trkpt>
      <trkpt lat="45.42269" lon="4.64786">
        <ele>697.8</ele>
        <time>2014-04-19T14:16:32.035Z</time>
      </trkpt>
      <trkpt lat="45.42269" lon="4.64783">
        <ele>697.9</ele>
        <time>2014-04-19T14:16:32.874Z</time>
      </trkpt>
      <trkpt lat="45.42269" lon="4.6477">
        <ele>698.4</ele>
        <time>2014-04-19T14:16:36.993Z</time>
      </trkpt>
      <trkpt lat="45.42269" lon="4.64767">
        <ele>698.6</ele>
        <time>2014-04-19T14:16:37.918Z</time>
      </trkpt>
      <trkpt lat="45.42268" lon="4.64757">
        <ele>699.2</ele>
        <time>2014-04-19T14:16:40.979Z</time>
      </trkpt>
      <trkpt lat="45.42268" lon="4.64754">
        <ele>699.4</ele>
        <time>2014-04-19T14:16:41.888Z</time>
      </trkpt>
      <trkpt lat="45.42267" lon="4.64744">
        <ele>700</ele>
        <time>2014-04-19T14:16:44.928Z</time>
      </trkpt>
      <trkpt lat="45.42267" lon="4.64741">
        <ele>700.2</ele>
        <time>2014-04-19T14:16:45.928Z</time>
      </trkpt>
      <trkpt lat="45.42266" lon="4.6473">
        <ele>700.8</ele>
        <time>2014-04-19T14:16:48.995Z</time>
      </trkpt>
      <trkpt lat="45.42266" lon="4.64727">
        <ele>700.9</ele>
        <time>2014-04-19T14:16:49.932Z</time>
      </trkpt>
      <trkpt lat="45.42265" lon="4.64715">
        <ele>701.4</ele>
        <time>2014-04-19T14:16:52.923Z</time>
      </trkpt>
      <trkpt lat="45.42265" lon="4.64712">
        <ele>701.5</ele>
        <time>2014-04-19T14:16:53.892Z</time>
      </trkpt>
      <trkpt lat="45.42265" lon="4.64699">
        <ele>702.2</ele>
        <time>2014-04-19T14:16:58.186Z</time>
      </trkpt>
      <trkpt lat="45.42265" lon="4.64696">
        <ele>702.3</ele>
        <time>2014-04-19T14:16:58.875Z</time>
      </trkpt>
      <trkpt lat="45.42265" lon="4.64686">
        <ele>703.1</ele>
        <time>2014-04-19T14:17:02.989Z</time>
      </trkpt>
      <trkpt lat="45.42265" lon="4.64683">
        <ele>703.3</ele>
        <time>2014-04-19T14:17:03.876Z</time>
      </trkpt>
      <trkpt lat="45.42264" lon="4.6467">
        <ele>704</ele>
        <time>2014-04-19T14:17:08.246Z</time>
      </trkpt>
      <trkpt lat="45.42264" lon="4.64667">
        <ele>704.2</ele>
        <time>2014-04-19T14:17:08.983Z</time>
      </trkpt>
      <trkpt lat="45.42263" lon="4.64655">
        <ele>705</ele>
        <time>2014-04-19T14:17:12.963Z</time>
      </trkpt>
      <trkpt lat="45.42263" lon="4.64652">
        <ele>705.2</ele>
        <time>2014-04-19T14:17:13.901Z</time>
      </trkpt>
      <trkpt lat="45.42263" lon="4.64641">
        <ele>706.1</ele>
        <time>2014-04-19T14:17:17.904Z</time>
      </trkpt>
      <trkpt lat="45.42263" lon="4.64637">
        <ele>706.2</ele>
        <time>2014-04-19T14:17:18.908Z</time>
      </trkpt>
      <trkpt lat="45.42262" lon="4.64625">
        <ele>706.9</ele>
        <time>2014-04-19T14:17:22.903Z</time>
      </trkpt>
      <trkpt lat="45.42262" lon="4.64622">
        <ele>707.1</ele>
        <time>2014-04-19T14:17:23.931Z</time>
      </trkpt>
      <trkpt lat="45.42261" lon="4.64613">
        <ele>707.7</ele>
        <time>2014-04-19T14:17:26.984Z</time>
      </trkpt>
      <trkpt lat="45.42261" lon="4.64609">
        <ele>707.9</ele>
        <time>2014-04-19T14:17:27.911Z</time>
      </trkpt>
      <trkpt lat="45.4226" lon="4.64596">
        <ele>708.8</ele>
        <time>2014-04-19T14:17:31.924Z</time>
      </trkpt>
      <trkpt lat="45.4226" lon="4.64593">
        <ele>709</ele>
        <time>2014-04-19T14:17:32.975Z</time>
      </trkpt>
      <trkpt lat="45.42259" lon="4.64583">
        <ele>709.5</ele>
        <time>2014-04-19T14:17:36.048Z</time>
      </trkpt>
      <trkpt lat="45.42259" lon="4.6458">
        <ele>709.6</ele>
        <time>2014-04-19T14:17:36.877Z</time>
      </trkpt>
      <trkpt lat="45.42257" lon="4.64569">
        <ele>709.9</ele>
        <time>2014-04-19T14:17:39.906Z</time>
      </trkpt>
      <trkpt lat="45.42257" lon="4.64566">
        <ele>710</ele>
        <time>2014-04-19T14:17:40.916Z</time>
      </trkpt>
      <trkpt lat="45.42255" lon="4.64553">
        <ele>710.6</ele>
        <time>2014-04-19T14:17:44.936Z</time>
      </trkpt>
      <trkpt lat="45.42254" lon="4.6455">
        <ele>710.7</ele>
        <time>2014-04-19T14:17:45.921Z</time>
      </trkpt>
      <trkpt lat="45.42254" lon="4.64541">
        <ele>711.4</ele>
        <time>2014-04-19T14:17:49.114Z</time>
      </trkpt>
      <trkpt lat="45.42254" lon="4.64538">
        <ele>711.5</ele>
        <time>2014-04-19T14:17:49.878Z</time>
      </trkpt>
      <trkpt lat="45.42253" lon="4.64526">
        <ele>712.3</ele>
        <time>2014-04-19T14:17:53.919Z</time>
      </trkpt>
      <trkpt lat="45.42252" lon="4.64522">
        <ele>712.4</ele>
        <time>2014-04-19T14:17:54.916Z</time>
      </trkpt>
      <trkpt lat="45.42252" lon="4.64512">
        <ele>713</ele>
        <time>2014-04-19T14:17:57.972Z</time>
      </trkpt>
      <trkpt lat="45.42251" lon="4.64509">
        <ele>713.2</ele>
        <time>2014-04-19T14:17:58.888Z</time>
      </trkpt>
      <trkpt lat="45.4225" lon="4.64497">
        <ele>714</ele>
        <time>2014-04-19T14:18:02.925Z</time>
      </trkpt>
      <trkpt lat="45.4225" lon="4.64494">
        <ele>714.3</ele>
        <time>2014-04-19T14:18:03.992Z</time>
      </trkpt>
      <trkpt lat="45.42249" lon="4.64483">
        <ele>714.9</ele>
        <time>2014-04-19T14:18:06.938Z</time>
      </trkpt>
      <trkpt lat="45.42249" lon="4.64479">
        <ele>715</ele>
        <time>2014-04-19T14:18:07.913Z</time>
      </trkpt>
      <trkpt lat="45.42249" lon="4.64468">
        <ele>715.5</ele>
        <time>2014-04-19T14:18:11.069Z</time>
      </trkpt>
      <trkpt lat="45.42249" lon="4.64465">
        <ele>715.7</ele>
        <time>2014-04-19T14:18:11.920Z</time>
      </trkpt>
      <trkpt lat="45.42249" lon="4.64456">
        <ele>716.2</ele>
        <time>2014-04-19T14:18:14.972Z</time>
      </trkpt>
      <trkpt lat="45.4225" lon="4.64452">
        <ele>716.4</ele>
        <time>2014-04-19T14:18:15.888Z</time>
      </trkpt>
      <trkpt lat="45.42251" lon="4.64443">
        <ele>717</ele>
        <time>2014-04-19T14:18:19.128Z</time>
      </trkpt>
      <trkpt lat="45.42251" lon="4.64439">
        <ele>717.2</ele>
        <time>2014-04-19T14:18:19.935Z</time>
      </trkpt>
      <trkpt lat="45.42254" lon="4.64429">
        <ele>717.7</ele>
        <time>2014-04-19T14:18:22.936Z</time>
      </trkpt>
      <trkpt lat="45.42255" lon="4.64425">
        <ele>717.9</ele>
        <time>2014-04-19T14:18:24.037Z</time>
      </trkpt>
      <trkpt lat="45.42257" lon="4.64417">
        <ele>718.4</ele>
        <time>2014-04-19T14:18:27.067Z</time>
      </trkpt>
      <trkpt lat="45.42258" lon="4.64413">
        <ele>718.6</ele>
        <time>2014-04-19T14:18:27.884Z</time>
      </trkpt>
      <trkpt lat="45.42261" lon="4.64404">
        <ele>719.1</ele>
        <time>2014-04-19T14:18:31.011Z</time>
      </trkpt>
      <trkpt lat="45.42262" lon="4.64401">
        <ele>719.3</ele>
        <time>2014-04-19T14:18:31.887Z</time>
      </trkpt>
      <trkpt lat="45.42265" lon="4.64392">
        <ele>719.7</ele>
        <time>2014-04-19T14:18:34.935Z</time>
      </trkpt>
      <trkpt lat="45.42266" lon="4.64389">
        <ele>719.9</ele>
        <time>2014-04-19T14:18:35.937Z</time>
      </trkpt>
      <trkpt lat="45.42269" lon="4.64379">
        <ele>720.4</ele>
        <time>2014-04-19T14:18:39.168Z</time>
      </trkpt>
      <trkpt lat="45.4227" lon="4.64376">
        <ele>720.5</ele>
        <time>2014-04-19T14:18:39.887Z</time>
      </trkpt>
      <trkpt lat="45.42273" lon="4.64367">
        <ele>721</ele>
        <time>2014-04-19T14:18:42.912Z</time>
      </trkpt>
      <trkpt lat="45.42274" lon="4.64364">
        <ele>721.2</ele>
        <time>2014-04-19T14:18:43.905Z</time>
      </trkpt>
      <trkpt lat="45.42277" lon="4.64355">
        <ele>721.7</ele>
        <time>2014-04-19T14:18:46.954Z</time>
      </trkpt>
      <trkpt lat="45.42278" lon="4.64352">
        <ele>721.9</ele>
        <time>2014-04-19T14:18:47.863Z</time>
      </trkpt>
      <trkpt lat="45.42281" lon="4.64343">
        <ele>722.4</ele>
        <time>2014-04-19T14:18:51.014Z</time>
      </trkpt>
      <trkpt lat="45.42282" lon="4.6434">
        <ele>722.6</ele>
        <time>2014-04-19T14:18:51.919Z</time>
      </trkpt>
      <trkpt lat="45.42285" lon="4.64331">
        <ele>723.2</ele>
        <time>2014-04-19T14:18:55.238Z</time>
      </trkpt>
      <trkpt lat="45.42286" lon="4.64327">
        <ele>723.4</ele>
        <time>2014-04-19T14:18:55.887Z</time>
      </trkpt>
      <trkpt lat="45.42289" lon="4.64318">
        <ele>724</ele>
        <time>2014-04-19T14:18:58.952Z</time>
      </trkpt>
      <trkpt lat="45.42291" lon="4.64314">
        <ele>724.2</ele>
        <time>2014-04-19T14:18:59.920Z</time>
      </trkpt>
      <trkpt lat="45.42294" lon="4.64305">
        <ele>724.9</ele>
        <time>2014-04-19T14:19:02.985Z</time>
      </trkpt>
      <trkpt lat="45.42295" lon="4.64302">
        <ele>725.1</ele>
        <time>2014-04-19T14:19:03.931Z</time>
      </trkpt>
      <trkpt lat="45.423" lon="4.64292">
        <ele>725.9</ele>
        <time>2014-04-19T14:19:08.010Z</time>
      </trkpt>
      <trkpt lat="45.42301" lon="4.64288">
        <ele>726.1</ele>
        <time>2014-04-19T14:19:08.949Z</time>
      </trkpt>
      <trkpt lat="45.42304" lon="4.6428">
        <ele>726.6</ele>
        <time>2014-04-19T14:19:12.008Z</time>
      </trkpt>
      <trkpt lat="45.42305" lon="4.64277">
        <ele>726.8</ele>
        <time>2014-04-19T14:19:12.860Z</time>
      </trkpt>
      <trkpt lat="45.42309" lon="4.64268">
        <ele>727.3</ele>
        <time>2014-04-19T14:19:15.987Z</time>
      </trkpt>
      <trkpt lat="45.4231" lon="4.64264">
        <ele>727.4</ele>
        <time>2014-04-19T14:19:16.920Z</time>
      </trkpt>
      <trkpt lat="45.42313" lon="4.64255">
        <ele>727.9</ele>
        <time>2014-04-19T14:19:19.935Z</time>
      </trkpt>
      <trkpt lat="45.42314" lon="4.64252">
        <ele>728.1</ele>
        <time>2014-04-19T14:19:20.929Z</time>
      </trkpt>
      <trkpt lat="45.42316" lon="4.64243">
        <ele>728.6</ele>
        <time>2014-04-19T14:19:24.254Z</time>
      </trkpt>
      <trkpt lat="45.42317" lon="4.6424">
        <ele>728.8</ele>
        <time>2014-04-19T14:19:24.871Z</time>
      </trkpt>
      <trkpt lat="45.4232" lon="4.6423">
        <ele>729.3</ele>
        <time>2014-04-19T14:19:27.994Z</time>
      </trkpt>
      <trkpt lat="45.4232" lon="4.64227">
        <ele>729.4</ele>
        <time>2014-04-19T14:19:28.916Z</time>
      </trkpt>
      <trkpt lat="45.42323" lon="4.64217">
        <ele>729.8</ele>
        <time>2014-04-19T14:19:31.934Z</time>
      </trkpt>
      <trkpt lat="45.42323" lon="4.64215">
        <ele>729.9</ele>
        <time>2014-04-19T14:19:32.894Z</time>
      </trkpt>
      <trkpt lat="45.42326" lon="4.64206">
        <ele>730.3</ele>
        <time>2014-04-19T14:19:35.953Z</time>
      </trkpt>
      <trkpt lat="45.42326" lon="4.64202">
        <ele>730.5</ele>
        <time>2014-04-19T14:19:36.907Z</time>
      </trkpt>
      <trkpt lat="45.42329" lon="4.64192">
        <ele>730.9</ele>
        <time>2014-04-19T14:19:39.993Z</time>
      </trkpt>
      <trkpt lat="45.42329" lon="4.64189">
        <ele>731</ele>
        <time>2014-04-19T14:19:40.921Z</time>
      </trkpt>
      <trkpt lat="45.42332" lon="4.64178">
        <ele>731.4</ele>
        <time>2014-04-19T14:19:43.951Z</time>
      </trkpt>
      <trkpt lat="45.42332" lon="4.64175">
        <ele>731.6</ele>
        <time>2014-04-19T14:19:45.117Z</time>
      </trkpt>
      <trkpt lat="45.42335" lon="4.64165">
        <ele>731.9</ele>
        <time>2014-04-19T14:19:47.907Z</time>
      </trkpt>
      <trkpt lat="45.42336" lon="4.64162">
        <ele>732.1</ele>
        <time>2014-04-19T14:19:48.907Z</time>
      </trkpt>
      <trkpt lat="45.42337" lon="4.64152">
        <ele>732.5</ele>
        <time>2014-04-19T14:19:52.037Z</time>
      </trkpt>
      <trkpt lat="45.42338" lon="4.64149">
        <ele>732.6</ele>
        <time>2014-04-19T14:19:52.872Z</time>
      </trkpt>
      <trkpt lat="45.4234" lon="4.6414">
        <ele>733.1</ele>
        <time>2014-04-19T14:19:56.045Z</time>
      </trkpt>
      <trkpt lat="45.4234" lon="4.64137">
        <ele>733.3</ele>
        <time>2014-04-19T14:19:56.907Z</time>
      </trkpt>
      <trkpt lat="45.42342" lon="4.6413">
        <ele>733.6</ele>
        <time>2014-04-19T14:19:59.902Z</time>
      </trkpt>
      <trkpt lat="45.42343" lon="4.64124">
        <ele>733.9</ele>
        <time>2014-04-19T14:20:00.923Z</time>
      </trkpt>
      <trkpt lat="45.42345" lon="4.64115">
        <ele>734.5</ele>
        <time>2014-04-19T14:20:03.995Z</time>
      </trkpt>
      <trkpt lat="45.42346" lon="4.64112">
        <ele>734.7</ele>
        <time>2014-04-19T14:20:04.905Z</time>
      </trkpt>
      <trkpt lat="45.42348" lon="4.64102">
        <ele>735.3</ele>
        <time>2014-04-19T14:20:08.856Z</time>
      </trkpt>
      <trkpt lat="45.42349" lon="4.64099">
        <ele>735.5</ele>
        <time>2014-04-19T14:20:09.318Z</time>
      </trkpt>
      <trkpt lat="45.42351" lon="4.6409">
        <ele>736.1</ele>
        <time>2014-04-19T14:20:12.006Z</time>
      </trkpt>
      <trkpt lat="45.42352" lon="4.64086">
        <ele>736.3</ele>
        <time>2014-04-19T14:20:12.913Z</time>
      </trkpt>
      <trkpt lat="45.42354" lon="4.64076">
        <ele>737.1</ele>
        <time>2014-04-19T14:20:15.931Z</time>
      </trkpt>
      <trkpt lat="45.42355" lon="4.64072">
        <ele>737.3</ele>
        <time>2014-04-19T14:20:16.877Z</time>
      </trkpt>
      <trkpt lat="45.42358" lon="4.64061">
        <ele>738</ele>
        <time>2014-04-19T14:20:20.014Z</time>
      </trkpt>
      <trkpt lat="45.42358" lon="4.64058">
        <ele>738.2</ele>
        <time>2014-04-19T14:20:20.920Z</time>
      </trkpt>
      <trkpt lat="45.42361" lon="4.64049">
        <ele>738.8</ele>
        <time>2014-04-19T14:20:24.374Z</time>
      </trkpt>
      <trkpt lat="45.42361" lon="4.64046">
        <ele>738.9</ele>
        <time>2014-04-19T14:20:24.879Z</time>
      </trkpt>
      <trkpt lat="45.42363" lon="4.64034">
        <ele>739.5</ele>
        <time>2014-04-19T14:20:29.434Z</time>
      </trkpt>
      <trkpt lat="45.42364" lon="4.64032">
        <ele>739.6</ele>
        <time>2014-04-19T14:20:29.877Z</time>
      </trkpt>
      <trkpt lat="45.42366" lon="4.6402">
        <ele>740.8</ele>
        <time>2014-04-19T14:20:34.924Z</time>
      </trkpt>
      <trkpt lat="45.42367" lon="4.64017">
        <ele>741.2</ele>
        <time>2014-04-19T14:20:35.926Z</time>
      </trkpt>
      <trkpt lat="45.42369" lon="4.64006">
        <ele>742.7</ele>
        <time>2014-04-19T14:20:39.899Z</time>
      </trkpt>
      <trkpt lat="45.4237" lon="4.64003">
        <ele>743.1</ele>
        <time>2014-04-19T14:20:40.918Z</time>
      </trkpt>
      <trkpt lat="45.42372" lon="4.63991">
        <ele>744.2</ele>
        <time>2014-04-19T14:20:44.530Z</time>
      </trkpt>
      <trkpt lat="45.42372" lon="4.63988">
        <ele>744.5</ele>
        <time>2014-04-19T14:20:44.880Z</time>
      </trkpt>
      <trkpt lat="45.42373" lon="4.63977">
        <ele>745.6</ele>
        <time>2014-04-19T14:20:47.992Z</time>
      </trkpt>
      <trkpt lat="45.42374" lon="4.63974">
        <ele>745.9</ele>
        <time>2014-04-19T14:20:48.914Z</time>
      </trkpt>
      <trkpt lat="45.42376" lon="4.63963">
        <ele>746.9</ele>
        <time>2014-04-19T14:20:51.928Z</time>
      </trkpt>
      <trkpt lat="45.42376" lon="4.6396">
        <ele>747.1</ele>
        <time>2014-04-19T14:20:53.015Z</time>
      </trkpt>
      <trkpt lat="45.42377" lon="4.63951">
        <ele>747.8</ele>
        <time>2014-04-19T14:20:55.931Z</time>
      </trkpt>
      <trkpt lat="45.42378" lon="4.63948">
        <ele>748</ele>
        <time>2014-04-19T14:20:56.920Z</time>
      </trkpt>
      <trkpt lat="45.4238" lon="4.63937">
        <ele>748.8</ele>
        <time>2014-04-19T14:20:59.920Z</time>
      </trkpt>
      <trkpt lat="45.4238" lon="4.63934">
        <ele>749</ele>
        <time>2014-04-19T14:21:00.885Z</time>
      </trkpt>
      <trkpt lat="45.42382" lon="4.63925">
        <ele>749.7</ele>
        <time>2014-04-19T14:21:04.028Z</time>
      </trkpt>
      <trkpt lat="45.42383" lon="4.63921">
        <ele>749.9</ele>
        <time>2014-04-19T14:21:04.930Z</time>
      </trkpt>
      <trkpt lat="45.42384" lon="4.6391">
        <ele>750.5</ele>
        <time>2014-04-19T14:21:08.997Z</time>
      </trkpt>
      <trkpt lat="45.42384" lon="4.63907">
        <ele>750.7</ele>
        <time>2014-04-19T14:21:09.900Z</time>
      </trkpt>
      <trkpt lat="45.42385" lon="4.63895">
        <ele>751.6</ele>
        <time>2014-04-19T14:21:13.924Z</time>
      </trkpt>
      <trkpt lat="45.42386" lon="4.63891">
        <ele>751.8</ele>
        <time>2014-04-19T14:21:14.908Z</time>
      </trkpt>
      <trkpt lat="45.42387" lon="4.6388">
        <ele>752.2</ele>
        <time>2014-04-19T14:21:17.949Z</time>
      </trkpt>
      <trkpt lat="45.42387" lon="4.63876">
        <ele>752.2</ele>
        <time>2014-04-19T14:21:18.935Z</time>
      </trkpt>
      <trkpt lat="45.42387" lon="4.63863">
        <ele>752.5</ele>
        <time>2014-04-19T14:21:23.255Z</time>
      </trkpt>
      <trkpt lat="45.42387" lon="4.6386">
        <ele>752.6</ele>
        <time>2014-04-19T14:21:23.907Z</time>
      </trkpt>
      <trkpt lat="45.42387" lon="4.63849">
        <ele>752.9</ele>
        <time>2014-04-19T14:21:27.062Z</time>
      </trkpt>
      <trkpt lat="45.42387" lon="4.63844">
        <ele>752.8</ele>
        <time>2014-04-19T14:21:27.867Z</time>
      </trkpt>
      <trkpt lat="45.42387" lon="4.63834">
        <ele>753</ele>
        <time>2014-04-19T14:21:30.956Z</time>
      </trkpt>
      <trkpt lat="45.42388" lon="4.63831">
        <ele>753.1</ele>
        <time>2014-04-19T14:21:31.915Z</time>
      </trkpt>
      <trkpt lat="45.42389" lon="4.6382">
        <ele>753.7</ele>
        <time>2014-04-19T14:21:34.907Z</time>
      </trkpt>
      <trkpt lat="45.42389" lon="4.63817">
        <ele>754</ele>
        <time>2014-04-19T14:21:35.918Z</time>
      </trkpt>
      <trkpt lat="45.42389" lon="4.63805">
        <ele>754.6</ele>
        <time>2014-04-19T14:21:38.914Z</time>
      </trkpt>
      <trkpt lat="45.4239" lon="4.63802">
        <ele>754.8</ele>
        <time>2014-04-19T14:21:39.893Z</time>
      </trkpt>
      <trkpt lat="45.42392" lon="4.63792">
        <ele>755.3</ele>
        <time>2014-04-19T14:21:42.905Z</time>
      </trkpt>
      <trkpt lat="45.42393" lon="4.63788">
        <ele>755.5</ele>
        <time>2014-04-19T14:21:43.905Z</time>
      </trkpt>
      <trkpt lat="45.42396" lon="4.63779">
        <ele>755.9</ele>
        <time>2014-04-19T14:21:46.997Z</time>
      </trkpt>
      <trkpt lat="45.42396" lon="4.63776">
        <ele>756.1</ele>
        <time>2014-04-19T14:21:47.890Z</time>
      </trkpt>
      <trkpt lat="45.42397" lon="4.63764">
        <ele>756.9</ele>
        <time>2014-04-19T14:21:51.983Z</time>
      </trkpt>
      <trkpt lat="45.42398" lon="4.63761">
        <ele>757.1</ele>
        <time>2014-04-19T14:21:52.960Z</time>
      </trkpt>
      <trkpt lat="45.42399" lon="4.63749">
        <ele>758</ele>
        <time>2014-04-19T14:21:56.931Z</time>
      </trkpt>
      <trkpt lat="45.42399" lon="4.63745">
        <ele>758.2</ele>
        <time>2014-04-19T14:21:57.915Z</time>
      </trkpt>
      <trkpt lat="45.424" lon="4.63735">
        <ele>759.2</ele>
        <time>2014-04-19T14:22:00.973Z</time>
      </trkpt>
      <trkpt lat="45.424" lon="4.63732">
        <ele>759.5</ele>
        <time>2014-04-19T14:22:01.888Z</time>
      </trkpt>
      <trkpt lat="45.424" lon="4.63722">
        <ele>760.5</ele>
        <time>2014-04-19T14:22:04.984Z</time>
      </trkpt>
      <trkpt lat="45.42399" lon="4.63718">
        <ele>760.9</ele>
        <time>2014-04-19T14:22:05.930Z</time>
      </trkpt>
      <trkpt lat="45.42398" lon="4.63706">
        <ele>761.9</ele>
        <time>2014-04-19T14:22:09.419Z</time>
      </trkpt>
      <trkpt lat="45.42398" lon="4.63702">
        <ele>762.2</ele>
        <time>2014-04-19T14:22:09.881Z</time>
      </trkpt>
      <trkpt lat="45.42397" lon="4.6369">
        <ele>762.9</ele>
        <time>2014-04-19T14:22:13.062Z</time>
      </trkpt>
      <trkpt lat="45.42397" lon="4.63687">
        <ele>763.1</ele>
        <time>2014-04-19T14:22:13.967Z</time>
      </trkpt>
      <trkpt lat="45.42395" lon="4.63677">
        <ele>763.6</ele>
        <time>2014-04-19T14:22:16.932Z</time>
      </trkpt>
      <trkpt lat="45.42394" lon="4.63673">
        <ele>763.7</ele>
        <time>2014-04-19T14:22:17.886Z</time>
      </trkpt>
      <trkpt lat="45.42393" lon="4.63663">
        <ele>764</ele>
        <time>2014-04-19T14:22:20.956Z</time>
      </trkpt>
      <trkpt lat="45.42393" lon="4.6366">
        <ele>764.1</ele>
        <time>2014-04-19T14:22:21.896Z</time>
      </trkpt>
      <trkpt lat="45.42393" lon="4.63649">
        <ele>764.2</ele>
        <time>2014-04-19T14:22:24.923Z</time>
      </trkpt>
      <trkpt lat="45.42393" lon="4.63646">
        <ele>764.3</ele>
        <time>2014-04-19T14:22:25.890Z</time>
      </trkpt>
      <trkpt lat="45.42394" lon="4.63635">
        <ele>764.6</ele>
        <time>2014-04-19T14:22:29.191Z</time>
      </trkpt>
      <trkpt lat="45.42395" lon="4.63632">
        <ele>764.7</ele>
        <time>2014-04-19T14:22:29.923Z</time>
      </trkpt>
      <trkpt lat="45.42397" lon="4.63621">
        <ele>765.1</ele>
        <time>2014-04-19T14:22:32.904Z</time>
      </trkpt>
      <trkpt lat="45.42397" lon="4.63617">
        <ele>765.1</ele>
        <time>2014-04-19T14:22:33.915Z</time>
      </trkpt>
      <trkpt lat="45.424" lon="4.63606">
        <ele>765.3</ele>
        <time>2014-04-19T14:22:36.956Z</time>
      </trkpt>
      <trkpt lat="45.424" lon="4.63603">
        <ele>765.4</ele>
        <time>2014-04-19T14:22:37.945Z</time>
      </trkpt>
      <trkpt lat="45.42404" lon="4.63592">
        <ele>765.6</ele>
        <time>2014-04-19T14:22:40.908Z</time>
      </trkpt>
      <trkpt lat="45.42405" lon="4.63588">
        <ele>765.7</ele>
        <time>2014-04-19T14:22:41.881Z</time>
      </trkpt>
      <trkpt lat="45.42409" lon="4.63577">
        <ele>766.2</ele>
        <time>2014-04-19T14:22:44.931Z</time>
      </trkpt>
      <trkpt lat="45.42409" lon="4.63574">
        <ele>766.3</ele>
        <time>2014-04-19T14:22:45.876Z</time>
      </trkpt>
      <trkpt lat="45.42413" lon="4.63565">
        <ele>766.7</ele>
        <time>2014-04-19T14:22:49.016Z</time>
      </trkpt>
      <trkpt lat="45.42414" lon="4.63561">
        <ele>766.9</ele>
        <time>2014-04-19T14:22:49.868Z</time>
      </trkpt>
      <trkpt lat="45.42417" lon="4.63551">
        <ele>767.4</ele>
        <time>2014-04-19T14:22:53.704Z</time>
      </trkpt>
      <trkpt lat="45.42418" lon="4.63548">
        <ele>767.6</ele>
        <time>2014-04-19T14:22:53.879Z</time>
      </trkpt>
      <trkpt lat="45.42421" lon="4.63537">
        <ele>768.4</ele>
        <time>2014-04-19T14:22:56.989Z</time>
      </trkpt>
      <trkpt lat="45.42422" lon="4.63533">
        <ele>768.6</ele>
        <time>2014-04-19T14:22:57.883Z</time>
      </trkpt>
      <trkpt lat="45.42424" lon="4.63523">
        <ele>769.4</ele>
        <time>2014-04-19T14:23:00.931Z</time>
      </trkpt>
      <trkpt lat="45.42424" lon="4.6352">
        <ele>769.7</ele>
        <time>2014-04-19T14:23:01.893Z</time>
      </trkpt>
      <trkpt lat="45.42425" lon="4.63507">
        <ele>770.8</ele>
        <time>2014-04-19T14:23:06.040Z</time>
      </trkpt>
      <trkpt lat="45.42425" lon="4.63504">
        <ele>771.2</ele>
        <time>2014-04-19T14:23:06.897Z</time>
      </trkpt>
      <trkpt lat="45.42423" lon="4.63492">
        <ele>772.3</ele>
        <time>2014-04-19T14:23:09.972Z</time>
      </trkpt>
      <trkpt lat="45.42422" lon="4.63487">
        <ele>772.7</ele>
        <time>2014-04-19T14:23:10.908Z</time>
      </trkpt>
      <trkpt lat="45.42421" lon="4.63478">
        <ele>773.4</ele>
        <time>2014-04-19T14:23:14.033Z</time>
      </trkpt>
      <trkpt lat="45.42419" lon="4.63472">
        <ele>774.2</ele>
        <time>2014-04-19T14:23:14.906Z</time>
      </trkpt>
      <trkpt lat="45.42418" lon="4.6346">
        <ele>775.2</ele>
        <time>2014-04-19T14:23:17.950Z</time>
      </trkpt>
      <trkpt lat="45.42418" lon="4.63456">
        <ele>775.5</ele>
        <time>2014-04-19T14:23:19.041Z</time>
      </trkpt>
      <trkpt lat="45.42416" lon="4.63446">
        <ele>776.1</ele>
        <time>2014-04-19T14:23:21.174Z</time>
      </trkpt>
      <trkpt lat="45.42416" lon="4.6344">
        <ele>776.4</ele>
        <time>2014-04-19T14:23:21.932Z</time>
      </trkpt>
      <trkpt lat="45.42415" lon="4.6343">
        <ele>776.9</ele>
        <time>2014-04-19T14:23:23.907Z</time>
      </trkpt>
      <trkpt lat="45.42415" lon="4.63426">
        <ele>777.2</ele>
        <time>2014-04-19T14:23:24.905Z</time>
      </trkpt>
      <trkpt lat="45.42414" lon="4.63417">
        <ele>778.1</ele>
        <time>2014-04-19T14:23:27.991Z</time>
      </trkpt>
      <trkpt lat="45.42414" lon="4.63413">
        <ele>778.4</ele>
        <time>2014-04-19T14:23:28.900Z</time>
      </trkpt>
      <trkpt lat="45.42412" lon="4.63404">
        <ele>779.3</ele>
        <time>2014-04-19T14:23:31.927Z</time>
      </trkpt>
      <trkpt lat="45.42412" lon="4.634">
        <ele>779.7</ele>
        <time>2014-04-19T14:23:32.906Z</time>
      </trkpt>
      <trkpt lat="45.42412" lon="4.63389">
        <ele>781</ele>
        <time>2014-04-19T14:23:37.195Z</time>
      </trkpt>
      <trkpt lat="45.42412" lon="4.63386">
        <ele>781.4</ele>
        <time>2014-04-19T14:23:37.854Z</time>
      </trkpt>
      <trkpt lat="45.42412" lon="4.63374">
        <ele>782.2</ele>
        <time>2014-04-19T14:23:40.928Z</time>
      </trkpt>
      <trkpt lat="45.42412" lon="4.6337">
        <ele>782.4</ele>
        <time>2014-04-19T14:23:41.877Z</time>
      </trkpt>
      <trkpt lat="45.42412" lon="4.6336">
        <ele>783.1</ele>
        <time>2014-04-19T14:23:44.942Z</time>
      </trkpt>
      <trkpt lat="45.42412" lon="4.63357">
        <ele>783.2</ele>
        <time>2014-04-19T14:23:45.878Z</time>
      </trkpt>
      <trkpt lat="45.42413" lon="4.63347">
        <ele>783.7</ele>
        <time>2014-04-19T14:23:49.297Z</time>
      </trkpt>
      <trkpt lat="45.42413" lon="4.63344">
        <ele>783.9</ele>
        <time>2014-04-19T14:23:49.879Z</time>
      </trkpt>
      <trkpt lat="45.42413" lon="4.63333">
        <ele>784.3</ele>
        <time>2014-04-19T14:23:53.829Z</time>
      </trkpt>
      <trkpt lat="45.42413" lon="4.6333">
        <ele>784.4</ele>
        <time>2014-04-19T14:23:53.906Z</time>
      </trkpt>
      <trkpt lat="45.42414" lon="4.63319">
        <ele>784.7</ele>
        <time>2014-04-19T14:23:56.978Z</time>
      </trkpt>
      <trkpt lat="45.42414" lon="4.63315">
        <ele>784.9</ele>
        <time>2014-04-19T14:23:57.883Z</time>
      </trkpt>
      <trkpt lat="45.42415" lon="4.63305">
        <ele>785.2</ele>
        <time>2014-04-19T14:24:00.936Z</time>
      </trkpt>
      <trkpt lat="45.42415" lon="4.63302">
        <ele>785.3</ele>
        <time>2014-04-19T14:24:01.870Z</time>
      </trkpt>
      <trkpt lat="45.42416" lon="4.63291">
        <ele>785.5</ele>
        <time>2014-04-19T14:24:04.932Z</time>
      </trkpt>
      <trkpt lat="45.42417" lon="4.63288">
        <ele>785.6</ele>
        <time>2014-04-19T14:24:05.886Z</time>
      </trkpt>
      <trkpt lat="45.42419" lon="4.63276">
        <ele>786.1</ele>
        <time>2014-04-19T14:24:09.954Z</time>
      </trkpt>
      <trkpt lat="45.42419" lon="4.63274">
        <ele>786.3</ele>
        <time>2014-04-19T14:24:10.886Z</time>
      </trkpt>
      <trkpt lat="45.4242" lon="4.63261">
        <ele>787.3</ele>
        <time>2014-04-19T14:24:15.173Z</time>
      </trkpt>
      <trkpt lat="45.4242" lon="4.63258">
        <ele>787.5</ele>
        <time>2014-04-19T14:24:15.903Z</time>
      </trkpt>
      <trkpt lat="45.4242" lon="4.63248">
        <ele>787.9</ele>
        <time>2014-04-19T14:24:19.169Z</time>
      </trkpt>
      <trkpt lat="45.4242" lon="4.63244">
        <ele>788.1</ele>
        <time>2014-04-19T14:24:19.865Z</time>
      </trkpt>
      <trkpt lat="45.4242" lon="4.63235">
        <ele>788.6</ele>
        <time>2014-04-19T14:24:22.914Z</time>
      </trkpt>
      <trkpt lat="45.42419" lon="4.63231">
        <ele>788.7</ele>
        <time>2014-04-19T14:24:23.906Z</time>
      </trkpt>
      <trkpt lat="45.42418" lon="4.63221">
        <ele>789.1</ele>
        <time>2014-04-19T14:24:26.911Z</time>
      </trkpt>
      <trkpt lat="45.42418" lon="4.63218">
        <ele>789.2</ele>
        <time>2014-04-19T14:24:27.907Z</time>
      </trkpt>
      <trkpt lat="45.42415" lon="4.63209">
        <ele>789.4</ele>
        <time>2014-04-19T14:24:30.963Z</time>
      </trkpt>
      <trkpt lat="45.42414" lon="4.63206">
        <ele>789.4</ele>
        <time>2014-04-19T14:24:31.906Z</time>
      </trkpt>
      <trkpt lat="45.42411" lon="4.63196">
        <ele>789.8</ele>
        <time>2014-04-19T14:24:35.933Z</time>
      </trkpt>
      <trkpt lat="45.4241" lon="4.63194">
        <ele>789.9</ele>
        <time>2014-04-19T14:24:36.881Z</time>
      </trkpt>
      <trkpt lat="45.42405" lon="4.63187">
        <ele>790.4</ele>
        <time>2014-04-19T14:24:41.048Z</time>
      </trkpt>
      <trkpt lat="45.42404" lon="4.63184">
        <ele>790.6</ele>
        <time>2014-04-19T14:24:41.876Z</time>
      </trkpt>
      <trkpt lat="45.42399" lon="4.63175">
        <ele>791.3</ele>
        <time>2014-04-19T14:24:45.919Z</time>
      </trkpt>
      <trkpt lat="45.42398" lon="4.63172">
        <ele>791.4</ele>
        <time>2014-04-19T14:24:46.878Z</time>
      </trkpt>
      <trkpt lat="45.42394" lon="4.63164">
        <ele>791.7</ele>
        <time>2014-04-19T14:24:49.912Z</time>
      </trkpt>
      <trkpt lat="45.42392" lon="4.63161">
        <ele>791.8</ele>
        <time>2014-04-19T14:24:50.906Z</time>
      </trkpt>
      <trkpt lat="45.42387" lon="4.63152">
        <ele>792.1</ele>
        <time>2014-04-19T14:24:53.893Z</time>
      </trkpt>
      <trkpt lat="45.42386" lon="4.6315">
        <ele>792.2</ele>
        <time>2014-04-19T14:24:54.897Z</time>
      </trkpt>
      <trkpt lat="45.42381" lon="4.63141">
        <ele>792.5</ele>
        <time>2014-04-19T14:24:58.892Z</time>
      </trkpt>
      <trkpt lat="45.4238" lon="4.63139">
        <ele>792.6</ele>
        <time>2014-04-19T14:24:59.879Z</time>
      </trkpt>
      <trkpt lat="45.42375" lon="4.63129">
        <ele>793</ele>
        <time>2014-04-19T14:25:04.083Z</time>
      </trkpt>
      <trkpt lat="45.42374" lon="4.63126">
        <ele>793.1</ele>
        <time>2014-04-19T14:25:04.901Z</time>
      </trkpt>
      <trkpt lat="45.42371" lon="4.63117">
        <ele>793.3</ele>
        <time>2014-04-19T14:25:07.958Z</time>
      </trkpt>
      <trkpt lat="45.4237" lon="4.63114">
        <ele>793.4</ele>
        <time>2014-04-19T14:25:08.908Z</time>
      </trkpt>
      <trkpt lat="45.42367" lon="4.63103">
        <ele>793.9</ele>
        <time>2014-04-19T14:25:13.072Z</time>
      </trkpt>
      <trkpt lat="45.42366" lon="4.631">
        <ele>794</ele>
        <time>2014-04-19T14:25:13.912Z</time>
      </trkpt>
      <trkpt lat="45.42364" lon="4.63088">
        <ele>794.5</ele>
        <time>2014-04-19T14:25:17.972Z</time>
      </trkpt>
      <trkpt lat="45.42363" lon="4.63085">
        <ele>794.7</ele>
        <time>2014-04-19T14:25:18.899Z</time>
      </trkpt>
      <trkpt lat="45.42362" lon="4.63076">
        <ele>795</ele>
        <time>2014-04-19T14:25:21.910Z</time>
      </trkpt>
      <trkpt lat="45.42361" lon="4.63072">
        <ele>795.1</ele>
        <time>2014-04-19T14:25:22.870Z</time>
      </trkpt>
      <trkpt lat="45.42359" lon="4.6306">
        <ele>795.6</ele>
        <time>2014-04-19T14:25:27.018Z</time>
      </trkpt>
      <trkpt lat="45.42358" lon="4.63057">
        <ele>795.8</ele>
        <time>2014-04-19T14:25:27.879Z</time>
      </trkpt>
      <trkpt lat="45.42355" lon="4.63045">
        <ele>796.3</ele>
        <time>2014-04-19T14:25:32.017Z</time>
      </trkpt>
      <trkpt lat="45.42355" lon="4.63042">
        <ele>796.5</ele>
        <time>2014-04-19T14:25:32.942Z</time>
      </trkpt>
      <trkpt lat="45.42353" lon="4.63029">
        <ele>797.2</ele>
        <time>2014-04-19T14:25:36.908Z</time>
      </trkpt>
      <trkpt lat="45.42353" lon="4.63026">
        <ele>797.3</ele>
        <time>2014-04-19T14:25:37.905Z</time>
      </trkpt>
      <trkpt lat="45.42352" lon="4.63015">
        <ele>797.7</ele>
        <time>2014-04-19T14:25:40.926Z</time>
      </trkpt>
      <trkpt lat="45.42352" lon="4.63012">
        <ele>797.9</ele>
        <time>2014-04-19T14:25:41.863Z</time>
      </trkpt>
      <trkpt lat="45.42352" lon="4.63002">
        <ele>798.3</ele>
        <time>2014-04-19T14:25:44.968Z</time>
      </trkpt>
      <trkpt lat="45.42352" lon="4.62998">
        <ele>798.4</ele>
        <time>2014-04-19T14:25:45.878Z</time>
      </trkpt>
      <trkpt lat="45.42352" lon="4.62986">
        <ele>799</ele>
        <time>2014-04-19T14:25:50.159Z</time>
      </trkpt>
      <trkpt lat="45.42352" lon="4.62983">
        <ele>799.2</ele>
        <time>2014-04-19T14:25:50.904Z</time>
      </trkpt>
      <trkpt lat="45.42352" lon="4.62973">
        <ele>799.7</ele>
        <time>2014-04-19T14:25:53.951Z</time>
      </trkpt>
      <trkpt lat="45.42352" lon="4.62969">
        <ele>799.9</ele>
        <time>2014-04-19T14:25:54.906Z</time>
      </trkpt>
      <trkpt lat="45.42352" lon="4.62959">
        <ele>800.4</ele>
        <time>2014-04-19T14:25:57.987Z</time>
      </trkpt>
      <trkpt lat="45.42351" lon="4.62955">
        <ele>800.6</ele>
        <time>2014-04-19T14:25:58.930Z</time>
      </trkpt>
      <trkpt lat="45.42351" lon="4.62945">
        <ele>801.1</ele>
        <time>2014-04-19T14:26:01.911Z</time>
      </trkpt>
      <trkpt lat="45.42351" lon="4.62941">
        <ele>801.2</ele>
        <time>2014-04-19T14:26:02.905Z</time>
      </trkpt>
      <trkpt lat="45.4235" lon="4.62931">
        <ele>801.7</ele>
        <time>2014-04-19T14:26:05.998Z</time>
      </trkpt>
      <trkpt lat="45.4235" lon="4.62927">
        <ele>801.8</ele>
        <time>2014-04-19T14:26:06.878Z</time>
      </trkpt>
      <trkpt lat="45.42349" lon="4.62917">
        <ele>802.1</ele>
        <time>2014-04-19T14:26:09.947Z</time>
      </trkpt>
      <trkpt lat="45.42349" lon="4.62914">
        <ele>802.2</ele>
        <time>2014-04-19T14:26:10.913Z</time>
      </trkpt>
      <trkpt lat="45.42348" lon="4.62901">
        <ele>802.7</ele>
        <time>2014-04-19T14:26:14.961Z</time>
      </trkpt>
      <trkpt lat="45.42348" lon="4.62898">
        <ele>802.8</ele>
        <time>2014-04-19T14:26:15.920Z</time>
      </trkpt>
      <trkpt lat="45.42346" lon="4.62886">
        <ele>803.3</ele>
        <time>2014-04-19T14:26:19.903Z</time>
      </trkpt>
      <trkpt lat="45.42346" lon="4.62883">
        <ele>803.5</ele>
        <time>2014-04-19T14:26:20.901Z</time>
      </trkpt>
      <trkpt lat="45.42345" lon="4.62873">
        <ele>803.8</ele>
        <time>2014-04-19T14:26:24.565Z</time>
      </trkpt>
      <trkpt lat="45.42344" lon="4.6287">
        <ele>803.9</ele>
        <time>2014-04-19T14:26:24.872Z</time>
      </trkpt>
      <trkpt lat="45.42343" lon="4.62858">
        <ele>804.4</ele>
        <time>2014-04-19T14:26:29.667Z</time>
      </trkpt>
      <trkpt lat="45.42343" lon="4.62855">
        <ele>804.5</ele>
        <time>2014-04-19T14:26:29.875Z</time>
      </trkpt>
      <trkpt lat="45.42342" lon="4.62844">
        <ele>805.1</ele>
        <time>2014-04-19T14:26:33.985Z</time>
      </trkpt>
      <trkpt lat="45.42342" lon="4.62841">
        <ele>805.3</ele>
        <time>2014-04-19T14:26:34.884Z</time>
      </trkpt>
      <trkpt lat="45.42341" lon="4.6283">
        <ele>806.1</ele>
        <time>2014-04-19T14:26:39.720Z</time>
      </trkpt>
      <trkpt lat="45.42341" lon="4.62828">
        <ele>806.3</ele>
        <time>2014-04-19T14:26:39.914Z</time>
      </trkpt>
      <trkpt lat="45.4234" lon="4.62818">
        <ele>807.2</ele>
        <time>2014-04-19T14:26:42.983Z</time>
      </trkpt>
      <trkpt lat="45.42339" lon="4.62815">
        <ele>807.5</ele>
        <time>2014-04-19T14:26:43.905Z</time>
      </trkpt>
      <trkpt lat="45.42337" lon="4.62803">
        <ele>808.5</ele>
        <time>2014-04-19T14:26:47.963Z</time>
      </trkpt>
      <trkpt lat="45.42337" lon="4.628">
        <ele>808.7</ele>
        <time>2014-04-19T14:26:48.906Z</time>
      </trkpt>
      <trkpt lat="45.42334" lon="4.6279">
        <ele>809.5</ele>
        <time>2014-04-19T14:26:51.923Z</time>
      </trkpt>
      <trkpt lat="45.42334" lon="4.62787">
        <ele>809.7</ele>
        <time>2014-04-19T14:26:52.932Z</time>
      </trkpt>
      <trkpt lat="45.42332" lon="4.62776">
        <ele>810.4</ele>
        <time>2014-04-19T14:26:55.953Z</time>
      </trkpt>
      <trkpt lat="45.42331" lon="4.62773">
        <ele>810.6</ele>
        <time>2014-04-19T14:26:56.915Z</time>
      </trkpt>
      <trkpt lat="45.42328" lon="4.62763">
        <ele>811.2</ele>
        <time>2014-04-19T14:26:59.936Z</time>
      </trkpt>
      <trkpt lat="45.42326" lon="4.6276">
        <ele>811.4</ele>
        <time>2014-04-19T14:27:00.961Z</time>
      </trkpt>
      <trkpt lat="45.42321" lon="4.62751">
        <ele>812.1</ele>
        <time>2014-04-19T14:27:04.941Z</time>
      </trkpt>
      <trkpt lat="45.4232" lon="4.62749">
        <ele>812.2</ele>
        <time>2014-04-19T14:27:05.904Z</time>
      </trkpt>
      <trkpt lat="45.42314" lon="4.62743">
        <ele>812.9</ele>
        <time>2014-04-19T14:27:09.019Z</time>
      </trkpt>
      <trkpt lat="45.42311" lon="4.62742">
        <ele>813.1</ele>
        <time>2014-04-19T14:27:09.883Z</time>
      </trkpt>
      <trkpt lat="45.42304" lon="4.62739">
        <ele>813.9</ele>
        <time>2014-04-19T14:27:14.079Z</time>
      </trkpt>
      <trkpt lat="45.42302" lon="4.62739">
        <ele>814</ele>
        <time>2014-04-19T14:27:14.911Z</time>
      </trkpt>
      <trkpt lat="45.42295" lon="4.62742">
        <ele>814.5</ele>
        <time>2014-04-19T14:27:18.878Z</time>
      </trkpt>
      <trkpt lat="45.42292" lon="4.62743">
        <ele>814.7</ele>
        <time>2014-04-19T14:27:18.987Z</time>
      </trkpt>
      <trkpt lat="45.42284" lon="4.62747">
        <ele>815.2</ele>
        <time>2014-04-19T14:27:21.981Z</time>
      </trkpt>
      <trkpt lat="45.42281" lon="4.62749">
        <ele>815.4</ele>
        <time>2014-04-19T14:27:22.924Z</time>
      </trkpt>
      <trkpt lat="45.42273" lon="4.62754">
        <ele>815.9</ele>
        <time>2014-04-19T14:27:26.008Z</time>
      </trkpt>
      <trkpt lat="45.42271" lon="4.62756">
        <ele>816.1</ele>
        <time>2014-04-19T14:27:26.907Z</time>
      </trkpt>
      <trkpt lat="45.42263" lon="4.62761">
        <ele>816.8</ele>
        <time>2014-04-19T14:27:30.959Z</time>
      </trkpt>
      <trkpt lat="45.42261" lon="4.62763">
        <ele>816.9</ele>
        <time>2014-04-19T14:27:31.913Z</time>
      </trkpt>
      <trkpt lat="45.42254" lon="4.62768">
        <ele>817.5</ele>
        <time>2014-04-19T14:27:34.900Z</time>
      </trkpt>
      <trkpt lat="45.42252" lon="4.6277">
        <ele>817.8</ele>
        <time>2014-04-19T14:27:35.866Z</time>
      </trkpt>
      <trkpt lat="45.42245" lon="4.62775">
        <ele>818.7</ele>
        <time>2014-04-19T14:27:39.921Z</time>
      </trkpt>
      <trkpt lat="45.42243" lon="4.62777">
        <ele>818.9</ele>
        <time>2014-04-19T14:27:40.881Z</time>
      </trkpt>
      <trkpt lat="45.42237" lon="4.62782">
        <ele>819.6</ele>
        <time>2014-04-19T14:27:44.427Z</time>
      </trkpt>
      <trkpt lat="45.42235" lon="4.62784">
        <ele>819.9</ele>
        <time>2014-04-19T14:27:44.880Z</time>
      </trkpt>
      <trkpt lat="45.42229" lon="4.62789">
        <ele>820.5</ele>
        <time>2014-04-19T14:27:47.962Z</time>
      </trkpt>
      <trkpt lat="45.42227" lon="4.62791">
        <ele>820.8</ele>
        <time>2014-04-19T14:27:48.919Z</time>
      </trkpt>
      <trkpt lat="45.4222" lon="4.62798">
        <ele>821.6</ele>
        <time>2014-04-19T14:27:53.629Z</time>
      </trkpt>
      <trkpt lat="45.42218" lon="4.628">
        <ele>821.8</ele>
        <time>2014-04-19T14:27:53.877Z</time>
      </trkpt>
      <trkpt lat="45.42212" lon="4.62806">
        <ele>822.7</ele>
        <time>2014-04-19T14:27:58.669Z</time>
      </trkpt>
      <trkpt lat="45.4221" lon="4.62807">
        <ele>822.9</ele>
        <time>2014-04-19T14:27:58.873Z</time>
      </trkpt>
      <trkpt lat="45.42202" lon="4.62813">
        <ele>823.7</ele>
        <time>2014-04-19T14:28:03.683Z</time>
      </trkpt>
      <trkpt lat="45.42201" lon="4.62814">
        <ele>823.9</ele>
        <time>2014-04-19T14:28:03.872Z</time>
      </trkpt>
      <trkpt lat="45.42195" lon="4.6282">
        <ele>824.9</ele>
        <time>2014-04-19T14:28:08.721Z</time>
      </trkpt>
      <trkpt lat="45.42193" lon="4.62822">
        <ele>825.2</ele>
        <time>2014-04-19T14:28:08.908Z</time>
      </trkpt>
      <trkpt lat="45.42186" lon="4.62829">
        <ele>825.9</ele>
        <time>2014-04-19T14:28:12.034Z</time>
      </trkpt>
      <trkpt lat="45.42184" lon="4.62831">
        <ele>826</ele>
        <time>2014-04-19T14:28:12.911Z</time>
      </trkpt>
      <trkpt lat="45.42177" lon="4.62838">
        <ele>826.6</ele>
        <time>2014-04-19T14:28:17.018Z</time>
      </trkpt>
      <trkpt lat="45.42175" lon="4.6284">
        <ele>826.8</ele>
        <time>2014-04-19T14:28:17.888Z</time>
      </trkpt>
      <trkpt lat="45.42168" lon="4.62847">
        <ele>827.8</ele>
        <time>2014-04-19T14:28:22.014Z</time>
      </trkpt>
      <trkpt lat="45.42166" lon="4.62848">
        <ele>828.1</ele>
        <time>2014-04-19T14:28:22.897Z</time>
      </trkpt>
      <trkpt lat="45.4216" lon="4.62854">
        <ele>828.9</ele>
        <time>2014-04-19T14:28:25.999Z</time>
      </trkpt>
      <trkpt lat="45.42158" lon="4.62856">
        <ele>829.1</ele>
        <time>2014-04-19T14:28:26.917Z</time>
      </trkpt>
      <trkpt lat="45.4215" lon="4.62863">
        <ele>829.8</ele>
        <time>2014-04-19T14:28:30.920Z</time>
      </trkpt>
      <trkpt lat="45.42149" lon="4.62865">
        <ele>829.9</ele>
        <time>2014-04-19T14:28:31.892Z</time>
      </trkpt>
      <trkpt lat="45.42141" lon="4.6287">
        <ele>830.7</ele>
        <time>2014-04-19T14:28:36.957Z</time>
      </trkpt>
      <trkpt lat="45.42139" lon="4.62871">
        <ele>830.8</ele>
        <time>2014-04-19T14:28:37.883Z</time>
      </trkpt>
      <trkpt lat="45.4213" lon="4.62874">
        <ele>831.9</ele>
        <time>2014-04-19T14:28:43.010Z</time>
      </trkpt>
      <trkpt lat="45.4213" lon="4.62874">
        <ele>832.1</ele>
        <time>2014-04-19T14:28:43.919Z</time>
      </trkpt>
      <trkpt lat="45.42122" lon="4.62877">
        <ele>832.8</ele>
        <time>2014-04-19T14:28:49.727Z</time>
      </trkpt>
      <trkpt lat="45.4212" lon="4.62877">
        <ele>832.8</ele>
        <time>2014-04-19T14:28:49.950Z</time>
      </trkpt>
      <trkpt lat="45.42112" lon="4.62878">
        <ele>832.8</ele>
        <time>2014-04-19T14:28:53.922Z</time>
      </trkpt>
      <trkpt lat="45.4211" lon="4.62877">
        <ele>832.8</ele>
        <time>2014-04-19T14:28:54.886Z</time>
      </trkpt>
      <trkpt lat="45.42102" lon="4.62873">
        <ele>832.8</ele>
        <time>2014-04-19T14:29:00.339Z</time>
      </trkpt>
      <trkpt lat="45.421" lon="4.62873">
        <ele>832.8</ele>
        <time>2014-04-19T14:29:00.880Z</time>
      </trkpt>
      <trkpt lat="45.42091" lon="4.6287">
        <ele>833.6</ele>
        <time>2014-04-19T14:29:05.915Z</time>
      </trkpt>
      <trkpt lat="45.4209" lon="4.6287">
        <ele>833.9</ele>
        <time>2014-04-19T14:29:06.921Z</time>
      </trkpt>
      <trkpt lat="45.42081" lon="4.62866">
        <ele>835.3</ele>
        <time>2014-04-19T14:29:10.979Z</time>
      </trkpt>
      <trkpt lat="45.42079" lon="4.62865">
        <ele>835.7</ele>
        <time>2014-04-19T14:29:11.932Z</time>
      </trkpt>
      <trkpt lat="45.42072" lon="4.62862">
        <ele>837</ele>
        <time>2014-04-19T14:29:14.993Z</time>
      </trkpt>
      <trkpt lat="45.42069" lon="4.62861">
        <ele>837.5</ele>
        <time>2014-04-19T14:29:15.894Z</time>
      </trkpt>
      <trkpt lat="45.42062" lon="4.62858">
        <ele>838.7</ele>
        <time>2014-04-19T14:29:19.140Z</time>
      </trkpt>
      <trkpt lat="45.4206" lon="4.62858">
        <ele>839.1</ele>
        <time>2014-04-19T14:29:19.930Z</time>
      </trkpt>
      <trkpt lat="45.42053" lon="4.62855">
        <ele>840.2</ele>
        <time>2014-04-19T14:29:22.922Z</time>
      </trkpt>
      <trkpt lat="45.42051" lon="4.62855">
        <ele>840.5</ele>
        <time>2014-04-19T14:29:23.920Z</time>
      </trkpt>
      <trkpt lat="45.42044" lon="4.62856">
        <ele>841.8</ele>
        <time>2014-04-19T14:29:27.921Z</time>
      </trkpt>
      <trkpt lat="45.42041" lon="4.62856">
        <ele>842.2</ele>
        <time>2014-04-19T14:29:28.915Z</time>
      </trkpt>
      <trkpt lat="45.42035" lon="4.62857">
        <ele>843.6</ele>
        <time>2014-04-19T14:29:34.266Z</time>
      </trkpt>
      <trkpt lat="45.42032" lon="4.62858">
        <ele>843.9</ele>
        <time>2014-04-19T14:29:34.890Z</time>
      </trkpt>
      <trkpt lat="45.42024" lon="4.62862">
        <ele>844.9</ele>
        <time>2014-04-19T14:29:37.903Z</time>
      </trkpt>
      <trkpt lat="45.4202" lon="4.62865">
        <ele>845.2</ele>
        <time>2014-04-19T14:29:38.888Z</time>
      </trkpt>
      <trkpt lat="45.42015" lon="4.62869">
        <ele>845.8</ele>
        <time>2014-04-19T14:29:41.042Z</time>
      </trkpt>
      <trkpt lat="45.42012" lon="4.6287">
        <ele>846.1</ele>
        <time>2014-04-19T14:29:41.887Z</time>
      </trkpt>
      <trkpt lat="45.42003" lon="4.62872">
        <ele>846.8</ele>
        <time>2014-04-19T14:29:44.926Z</time>
      </trkpt>
      <trkpt lat="45.42002" lon="4.62874">
        <ele>847</ele>
        <time>2014-04-19T14:29:45.920Z</time>
      </trkpt>
      <trkpt lat="45.41996" lon="4.62879">
        <ele>847.8</ele>
        <time>2014-04-19T14:29:48.926Z</time>
      </trkpt>
      <trkpt lat="45.41994" lon="4.62881">
        <ele>848</ele>
        <time>2014-04-19T14:29:49.920Z</time>
      </trkpt>
      <trkpt lat="45.41991" lon="4.62888">
        <ele>848.6</ele>
        <time>2014-04-19T14:29:51.934Z</time>
      </trkpt>
      <trkpt lat="45.41988" lon="4.62893">
        <ele>848.9</ele>
        <time>2014-04-19T14:29:52.906Z</time>
      </trkpt>
      <trkpt lat="45.41984" lon="4.62901">
        <ele>849.6</ele>
        <time>2014-04-19T14:29:54.976Z</time>
      </trkpt>
      <trkpt lat="45.41983" lon="4.62904">
        <ele>850</ele>
        <time>2014-04-19T14:29:55.907Z</time>
      </trkpt>
      <trkpt lat="45.41978" lon="4.62913">
        <ele>851.1</ele>
        <time>2014-04-19T14:29:58.967Z</time>
      </trkpt>
      <trkpt lat="45.41976" lon="4.62916">
        <ele>851.5</ele>
        <time>2014-04-19T14:29:59.891Z</time>
      </trkpt>
      <trkpt lat="45.41971" lon="4.62926">
        <ele>852.2</ele>
        <time>2014-04-19T14:30:03.954Z</time>
      </trkpt>
      <trkpt lat="45.4197" lon="4.62929">
        <ele>852.3</ele>
        <time>2014-04-19T14:30:04.922Z</time>
      </trkpt>
      <trkpt lat="45.41965" lon="4.62937">
        <ele>852.9</ele>
        <time>2014-04-19T14:30:09.202Z</time>
      </trkpt>
      <trkpt lat="45.41965" lon="4.6294">
        <ele>853.1</ele>
        <time>2014-04-19T14:30:09.926Z</time>
      </trkpt>
      <trkpt lat="45.41962" lon="4.62949">
        <ele>853.7</ele>
        <time>2014-04-19T14:30:12.927Z</time>
      </trkpt>
      <trkpt lat="45.41961" lon="4.62952">
        <ele>853.9</ele>
        <time>2014-04-19T14:30:13.921Z</time>
      </trkpt>
      <trkpt lat="45.41959" lon="4.62963">
        <ele>854.6</ele>
        <time>2014-04-19T14:30:16.967Z</time>
      </trkpt>
      <trkpt lat="45.41959" lon="4.62966">
        <ele>854.8</ele>
        <time>2014-04-19T14:30:17.880Z</time>
      </trkpt>
      <trkpt lat="45.41957" lon="4.62976">
        <ele>855.3</ele>
        <time>2014-04-19T14:30:21.069Z</time>
      </trkpt>
      <trkpt lat="45.41957" lon="4.6298">
        <ele>855.4</ele>
        <time>2014-04-19T14:30:21.874Z</time>
      </trkpt>
      <trkpt lat="45.41955" lon="4.62991">
        <ele>856</ele>
        <time>2014-04-19T14:30:24.972Z</time>
      </trkpt>
      <trkpt lat="45.41955" lon="4.62994">
        <ele>856.1</ele>
        <time>2014-04-19T14:30:25.939Z</time>
      </trkpt>
      <trkpt lat="45.41954" lon="4.63005">
        <ele>856.5</ele>
        <time>2014-04-19T14:30:29.029Z</time>
      </trkpt>
      <trkpt lat="45.41954" lon="4.63009">
        <ele>856.6</ele>
        <time>2014-04-19T14:30:29.897Z</time>
      </trkpt>
      <trkpt lat="45.41953" lon="4.63019">
        <ele>857.3</ele>
        <time>2014-04-19T14:30:33.100Z</time>
      </trkpt>
      <trkpt lat="45.41953" lon="4.63022">
        <ele>857.5</ele>
        <time>2014-04-19T14:30:33.996Z</time>
      </trkpt>
      <trkpt lat="45.41951" lon="4.63033">
        <ele>858.1</ele>
        <time>2014-04-19T14:30:36.937Z</time>
      </trkpt>
      <trkpt lat="45.4195" lon="4.63037">
        <ele>858.3</ele>
        <time>2014-04-19T14:30:37.895Z</time>
      </trkpt>
      <trkpt lat="45.41947" lon="4.63047">
        <ele>859</ele>
        <time>2014-04-19T14:30:41.000Z</time>
      </trkpt>
      <trkpt lat="45.41946" lon="4.63049">
        <ele>859.2</ele>
        <time>2014-04-19T14:30:41.935Z</time>
      </trkpt>
      <trkpt lat="45.41943" lon="4.63059">
        <ele>860.1</ele>
        <time>2014-04-19T14:30:45.996Z</time>
      </trkpt>
      <trkpt lat="45.41943" lon="4.63061">
        <ele>860.3</ele>
        <time>2014-04-19T14:30:46.894Z</time>
      </trkpt>
      <trkpt lat="45.4194" lon="4.6307">
        <ele>861</ele>
        <time>2014-04-19T14:30:50.085Z</time>
      </trkpt>
      <trkpt lat="45.41939" lon="4.63074">
        <ele>861.2</ele>
        <time>2014-04-19T14:30:50.930Z</time>
      </trkpt>
      <trkpt lat="45.41936" lon="4.63084">
        <ele>861.9</ele>
        <time>2014-04-19T14:30:54.980Z</time>
      </trkpt>
      <trkpt lat="45.41935" lon="4.63087">
        <ele>862.1</ele>
        <time>2014-04-19T14:30:55.917Z</time>
      </trkpt>
      <trkpt lat="45.41933" lon="4.63096">
        <ele>862.5</ele>
        <time>2014-04-19T14:30:58.921Z</time>
      </trkpt>
      <trkpt lat="45.41932" lon="4.63099">
        <ele>862.6</ele>
        <time>2014-04-19T14:30:59.929Z</time>
      </trkpt>
      <trkpt lat="45.41928" lon="4.6311">
        <ele>863.2</ele>
        <time>2014-04-19T14:31:03.926Z</time>
      </trkpt>
      <trkpt lat="45.41927" lon="4.63112">
        <ele>863.4</ele>
        <time>2014-04-19T14:31:04.946Z</time>
      </trkpt>
      <trkpt lat="45.41923" lon="4.63122">
        <ele>863.9</ele>
        <time>2014-04-19T14:31:07.910Z</time>
      </trkpt>
      <trkpt lat="45.41922" lon="4.63125">
        <ele>864.1</ele>
        <time>2014-04-19T14:31:08.880Z</time>
      </trkpt>
      <trkpt lat="45.41918" lon="4.63135">
        <ele>864.7</ele>
        <time>2014-04-19T14:31:13.195Z</time>
      </trkpt>
      <trkpt lat="45.41916" lon="4.63139">
        <ele>864.9</ele>
        <time>2014-04-19T14:31:13.880Z</time>
      </trkpt>
      <trkpt lat="45.41912" lon="4.63149">
        <ele>865.4</ele>
        <time>2014-04-19T14:31:17.023Z</time>
      </trkpt>
      <trkpt lat="45.41911" lon="4.63151">
        <ele>865.5</ele>
        <time>2014-04-19T14:31:18.000Z</time>
      </trkpt>
      <trkpt lat="45.41907" lon="4.6316">
        <ele>866</ele>
        <time>2014-04-19T14:31:21.099Z</time>
      </trkpt>
      <trkpt lat="45.41906" lon="4.63163">
        <ele>866.2</ele>
        <time>2014-04-19T14:31:21.931Z</time>
      </trkpt>
      <trkpt lat="45.41902" lon="4.63172">
        <ele>866.6</ele>
        <time>2014-04-19T14:31:24.936Z</time>
      </trkpt>
      <trkpt lat="45.41901" lon="4.63175">
        <ele>866.8</ele>
        <time>2014-04-19T14:31:25.920Z</time>
      </trkpt>
      <trkpt lat="45.41898" lon="4.63186">
        <ele>867.5</ele>
        <time>2014-04-19T14:31:29.946Z</time>
      </trkpt>
      <trkpt lat="45.41896" lon="4.6319">
        <ele>867.6</ele>
        <time>2014-04-19T14:31:30.969Z</time>
      </trkpt>
      <trkpt lat="45.41892" lon="4.63202">
        <ele>868</ele>
        <time>2014-04-19T14:31:33.992Z</time>
      </trkpt>
      <trkpt lat="45.41891" lon="4.63205">
        <ele>868.1</ele>
        <time>2014-04-19T14:31:34.883Z</time>
      </trkpt>
      <trkpt lat="45.41887" lon="4.63214">
        <ele>868.4</ele>
        <time>2014-04-19T14:31:37.908Z</time>
      </trkpt>
      <trkpt lat="45.41885" lon="4.63217">
        <ele>868.5</ele>
        <time>2014-04-19T14:31:38.927Z</time>
      </trkpt>
      <trkpt lat="45.41882" lon="4.63227">
        <ele>868.7</ele>
        <time>2014-04-19T14:31:41.955Z</time>
      </trkpt>
      <trkpt lat="45.41881" lon="4.63229">
        <ele>868.7</ele>
        <time>2014-04-19T14:31:42.980Z</time>
      </trkpt>
      <trkpt lat="45.41877" lon="4.63241">
        <ele>869.1</ele>
        <time>2014-04-19T14:31:46.934Z</time>
      </trkpt>
      <trkpt lat="45.41876" lon="4.63244">
        <ele>869.2</ele>
        <time>2014-04-19T14:31:47.920Z</time>
      </trkpt>
      <trkpt lat="45.41872" lon="4.63255">
        <ele>869.7</ele>
        <time>2014-04-19T14:31:52.008Z</time>
      </trkpt>
      <trkpt lat="45.41872" lon="4.63258">
        <ele>869.8</ele>
        <time>2014-04-19T14:31:52.919Z</time>
      </trkpt>
      <trkpt lat="45.41869" lon="4.63267">
        <ele>870.1</ele>
        <time>2014-04-19T14:31:55.959Z</time>
      </trkpt>
      <trkpt lat="45.41868" lon="4.6327">
        <ele>870.2</ele>
        <time>2014-04-19T14:31:56.933Z</time>
      </trkpt>
      <trkpt lat="45.41865" lon="4.63279">
        <ele>870.6</ele>
        <time>2014-04-19T14:31:59.903Z</time>
      </trkpt>
      <trkpt lat="45.41864" lon="4.63283">
        <ele>870.7</ele>
        <time>2014-04-19T14:32:00.894Z</time>
      </trkpt>
      <trkpt lat="45.41862" lon="4.63294">
        <ele>871</ele>
        <time>2014-04-19T14:32:04.075Z</time>
      </trkpt>
      <trkpt lat="45.41861" lon="4.63298">
        <ele>871</ele>
        <time>2014-04-19T14:32:04.903Z</time>
      </trkpt>
      <trkpt lat="45.4186" lon="4.63309">
        <ele>871.5</ele>
        <time>2014-04-19T14:32:09.013Z</time>
      </trkpt>
      <trkpt lat="45.41859" lon="4.63312">
        <ele>871.6</ele>
        <time>2014-04-19T14:32:09.929Z</time>
      </trkpt>
      <trkpt lat="45.41858" lon="4.63324">
        <ele>872.3</ele>
        <time>2014-04-19T14:32:14.035Z</time>
      </trkpt>
      <trkpt lat="45.41857" lon="4.63328">
        <ele>872.4</ele>
        <time>2014-04-19T14:32:14.893Z</time>
      </trkpt>
      <trkpt lat="45.41853" lon="4.63336">
        <ele>872.9</ele>
        <time>2014-04-19T14:32:17.986Z</time>
      </trkpt>
      <trkpt lat="45.41851" lon="4.63339">
        <ele>873</ele>
        <time>2014-04-19T14:32:18.980Z</time>
      </trkpt>
      <trkpt lat="45.41843" lon="4.63338">
        <ele>873.7</ele>
        <time>2014-04-19T14:32:24.113Z</time>
      </trkpt>
      <trkpt lat="45.41842" lon="4.63336">
        <ele>873.8</ele>
        <time>2014-04-19T14:32:24.931Z</time>
      </trkpt>
      <trkpt lat="45.41842" lon="4.63325">
        <ele>874.5</ele>
        <time>2014-04-19T14:32:29.170Z</time>
      </trkpt>
      <trkpt lat="45.41842" lon="4.63322">
        <ele>874.6</ele>
        <time>2014-04-19T14:32:29.943Z</time>
      </trkpt>
      <trkpt lat="45.41843" lon="4.63309">
        <ele>875.4</ele>
        <time>2014-04-19T14:32:34.180Z</time>
      </trkpt>
      <trkpt lat="45.41843" lon="4.63306">
        <ele>875.6</ele>
        <time>2014-04-19T14:32:34.894Z</time>
      </trkpt>
      <trkpt lat="45.41844" lon="4.63296">
        <ele>876.3</ele>
        <time>2014-04-19T14:32:37.968Z</time>
      </trkpt>
      <trkpt lat="45.41844" lon="4.63292">
        <ele>876.5</ele>
        <time>2014-04-19T14:32:38.915Z</time>
      </trkpt>
      <trkpt lat="45.41845" lon="4.63281">
        <ele>877.1</ele>
        <time>2014-04-19T14:32:41.928Z</time>
      </trkpt>
      <trkpt lat="45.41845" lon="4.63278">
        <ele>877.3</ele>
        <time>2014-04-19T14:32:43.011Z</time>
      </trkpt>
      <trkpt lat="45.41847" lon="4.63268">
        <ele>877.9</ele>
        <time>2014-04-19T14:32:45.971Z</time>
      </trkpt>
      <trkpt lat="45.41847" lon="4.63265">
        <ele>878.1</ele>
        <time>2014-04-19T14:32:46.896Z</time>
      </trkpt>
      <trkpt lat="45.41849" lon="4.63255">
        <ele>878.7</ele>
        <time>2014-04-19T14:32:51.020Z</time>
      </trkpt>
      <trkpt lat="45.4185" lon="4.63252">
        <ele>878.8</ele>
        <time>2014-04-19T14:32:51.938Z</time>
      </trkpt>
      <trkpt lat="45.41851" lon="4.63243">
        <ele>879.4</ele>
        <time>2014-04-19T14:32:54.932Z</time>
      </trkpt>
      <trkpt lat="45.41852" lon="4.63239">
        <ele>879.6</ele>
        <time>2014-04-19T14:32:55.945Z</time>
      </trkpt>
      <trkpt lat="45.41854" lon="4.6323">
        <ele>880.4</ele>
        <time>2014-04-19T14:32:58.930Z</time>
      </trkpt>
      <trkpt lat="45.41855" lon="4.63227">
        <ele>880.6</ele>
        <time>2014-04-19T14:32:59.964Z</time>
      </trkpt>
      <trkpt lat="45.41857" lon="4.63216">
        <ele>881.4</ele>
        <time>2014-04-19T14:33:03.998Z</time>
      </trkpt>
      <trkpt lat="45.41857" lon="4.63212">
        <ele>881.7</ele>
        <time>2014-04-19T14:33:04.923Z</time>
      </trkpt>
      <trkpt lat="45.41858" lon="4.63201">
        <ele>882.4</ele>
        <time>2014-04-19T14:33:07.920Z</time>
      </trkpt>
      <trkpt lat="45.41858" lon="4.63197">
        <ele>882.7</ele>
        <time>2014-04-19T14:33:08.896Z</time>
      </trkpt>
      <trkpt lat="45.41858" lon="4.63186">
        <ele>883.4</ele>
        <time>2014-04-19T14:33:11.948Z</time>
      </trkpt>
      <trkpt lat="45.41858" lon="4.63183">
        <ele>883.6</ele>
        <time>2014-04-19T14:33:12.930Z</time>
      </trkpt>
      <trkpt lat="45.41859" lon="4.63171">
        <ele>884.2</ele>
        <time>2014-04-19T14:33:16.972Z</time>
      </trkpt>
      <trkpt lat="45.41859" lon="4.63167">
        <ele>884.2</ele>
        <time>2014-04-19T14:33:17.934Z</time>
      </trkpt>
      <trkpt lat="45.4186" lon="4.63156">
        <ele>884.3</ele>
        <time>2014-04-19T14:33:20.926Z</time>
      </trkpt>
      <trkpt lat="45.4186" lon="4.63152">
        <ele>884.3</ele>
        <time>2014-04-19T14:33:21.933Z</time>
      </trkpt>
      <trkpt lat="45.41861" lon="4.63141">
        <ele>884.5</ele>
        <time>2014-04-19T14:33:26.015Z</time>
      </trkpt>
      <trkpt lat="45.41862" lon="4.63139">
        <ele>884.6</ele>
        <time>2014-04-19T14:33:26.926Z</time>
      </trkpt>
      <trkpt lat="45.41862" lon="4.63126">
        <ele>885</ele>
        <time>2014-04-19T14:33:30.972Z</time>
      </trkpt>
      <trkpt lat="45.41862" lon="4.63123">
        <ele>885.2</ele>
        <time>2014-04-19T14:33:31.938Z</time>
      </trkpt>
      <trkpt lat="45.41863" lon="4.63111">
        <ele>885.8</ele>
        <time>2014-04-19T14:33:36.383Z</time>
      </trkpt>
      <trkpt lat="45.41863" lon="4.63108">
        <ele>886</ele>
        <time>2014-04-19T14:33:36.922Z</time>
      </trkpt>
      <trkpt lat="45.41864" lon="4.63097">
        <ele>886.4</ele>
        <time>2014-04-19T14:33:40.020Z</time>
      </trkpt>
      <trkpt lat="45.41864" lon="4.63094">
        <ele>886.6</ele>
        <time>2014-04-19T14:33:40.937Z</time>
      </trkpt>
      <trkpt lat="45.41863" lon="4.63081">
        <ele>887</ele>
        <time>2014-04-19T14:33:44.982Z</time>
      </trkpt>
      <trkpt lat="45.41863" lon="4.63078">
        <ele>887.1</ele>
        <time>2014-04-19T14:33:45.924Z</time>
      </trkpt>
      <trkpt lat="45.41863" lon="4.63068">
        <ele>887.3</ele>
        <time>2014-04-19T14:33:49.983Z</time>
      </trkpt>
      <trkpt lat="45.41863" lon="4.63065">
        <ele>887.4</ele>
        <time>2014-04-19T14:33:50.942Z</time>
      </trkpt>
      <trkpt lat="45.41863" lon="4.63052">
        <ele>887.7</ele>
        <time>2014-04-19T14:33:55.041Z</time>
      </trkpt>
      <trkpt lat="45.41863" lon="4.63049">
        <ele>887.8</ele>
        <time>2014-04-19T14:33:55.937Z</time>
      </trkpt>
      <trkpt lat="45.41863" lon="4.63037">
        <ele>888.1</ele>
        <time>2014-04-19T14:34:00.160Z</time>
      </trkpt>
      <trkpt lat="45.41863" lon="4.63034">
        <ele>888.3</ele>
        <time>2014-04-19T14:34:00.933Z</time>
      </trkpt>
      <trkpt lat="45.41864" lon="4.63021">
        <ele>888.8</ele>
        <time>2014-04-19T14:34:04.987Z</time>
      </trkpt>
      <trkpt lat="45.41864" lon="4.63018">
        <ele>889</ele>
        <time>2014-04-19T14:34:05.936Z</time>
      </trkpt>
      <trkpt lat="45.41865" lon="4.63006">
        <ele>889.5</ele>
        <time>2014-04-19T14:34:09.928Z</time>
      </trkpt>
      <trkpt lat="45.41865" lon="4.63002">
        <ele>889.6</ele>
        <time>2014-04-19T14:34:10.932Z</time>
      </trkpt>
      <trkpt lat="45.41866" lon="4.62991">
        <ele>889.8</ele>
        <time>2014-04-19T14:34:14.075Z</time>
      </trkpt>
      <trkpt lat="45.41866" lon="4.62988">
        <ele>889.9</ele>
        <time>2014-04-19T14:34:14.995Z</time>
      </trkpt>
      <trkpt lat="45.41866" lon="4.62977">
        <ele>890.2</ele>
        <time>2014-04-19T14:34:17.941Z</time>
      </trkpt>
      <trkpt lat="45.41866" lon="4.62974">
        <ele>890.3</ele>
        <time>2014-04-19T14:34:18.938Z</time>
      </trkpt>
      <trkpt lat="45.41866" lon="4.62963">
        <ele>890.6</ele>
        <time>2014-04-19T14:34:22.986Z</time>
      </trkpt>
      <trkpt lat="45.41866" lon="4.6296">
        <ele>890.7</ele>
        <time>2014-04-19T14:34:24.040Z</time>
      </trkpt>
      <trkpt lat="45.41866" lon="4.62947">
        <ele>891.1</ele>
        <time>2014-04-19T14:34:28.027Z</time>
      </trkpt>
      <trkpt lat="45.41866" lon="4.62944">
        <ele>891.2</ele>
        <time>2014-04-19T14:34:28.935Z</time>
      </trkpt>
      <trkpt lat="45.41867" lon="4.62934">
        <ele>891.6</ele>
        <time>2014-04-19T14:34:32.093Z</time>
      </trkpt>
      <trkpt lat="45.41867" lon="4.62931">
        <ele>891.8</ele>
        <time>2014-04-19T14:34:32.919Z</time>
      </trkpt>
      <trkpt lat="45.41866" lon="4.6292">
        <ele>892.4</ele>
        <time>2014-04-19T14:34:36.508Z</time>
      </trkpt>
      <trkpt lat="45.41866" lon="4.62916">
        <ele>892.7</ele>
        <time>2014-04-19T14:34:36.899Z</time>
      </trkpt>
      <trkpt lat="45.41866" lon="4.62905">
        <ele>893.2</ele>
        <time>2014-04-19T14:34:40.969Z</time>
      </trkpt>
      <trkpt lat="45.41866" lon="4.62902">
        <ele>893.4</ele>
        <time>2014-04-19T14:34:41.891Z</time>
      </trkpt>
      <trkpt lat="45.41867" lon="4.62891">
        <ele>894.1</ele>
        <time>2014-04-19T14:34:46.014Z</time>
      </trkpt>
      <trkpt lat="45.41867" lon="4.62888">
        <ele>894.3</ele>
        <time>2014-04-19T14:34:46.903Z</time>
      </trkpt>
      <trkpt lat="45.41869" lon="4.62878">
        <ele>894.9</ele>
        <time>2014-04-19T14:34:50.954Z</time>
      </trkpt>
      <trkpt lat="45.4187" lon="4.62876">
        <ele>895</ele>
        <time>2014-04-19T14:34:51.897Z</time>
      </trkpt>
      <trkpt lat="45.4187" lon="4.62867">
        <ele>895.5</ele>
        <time>2014-04-19T14:34:54.976Z</time>
      </trkpt>
      <trkpt lat="45.41869" lon="4.62863">
        <ele>895.6</ele>
        <time>2014-04-19T14:34:55.920Z</time>
      </trkpt>
      <trkpt lat="45.41868" lon="4.62854">
        <ele>896</ele>
        <time>2014-04-19T14:34:58.990Z</time>
      </trkpt>
      <trkpt lat="45.41869" lon="4.62849">
        <ele>896.2</ele>
        <time>2014-04-19T14:34:59.902Z</time>
      </trkpt>
      <trkpt lat="45.41868" lon="4.62837">
        <ele>897</ele>
        <time>2014-04-19T14:35:03.827Z</time>
      </trkpt>
      <trkpt lat="45.41868" lon="4.62833">
        <ele>897.4</ele>
        <time>2014-04-19T14:35:03.923Z</time>
      </trkpt>
      <trkpt lat="45.41868" lon="4.62821">
        <ele>898.3</ele>
        <time>2014-04-19T14:35:06.958Z</time>
      </trkpt>
      <trkpt lat="45.41869" lon="4.62818">
        <ele>898.5</ele>
        <time>2014-04-19T14:35:07.922Z</time>
      </trkpt>
      <trkpt lat="45.41869" lon="4.62807">
        <ele>899.1</ele>
        <time>2014-04-19T14:35:10.981Z</time>
      </trkpt>
      <trkpt lat="45.41869" lon="4.62803">
        <ele>899.4</ele>
        <time>2014-04-19T14:35:11.899Z</time>
      </trkpt>
      <trkpt lat="45.41869" lon="4.6279">
        <ele>900.1</ele>
        <time>2014-04-19T14:35:15.947Z</time>
      </trkpt>
      <trkpt lat="45.41869" lon="4.62787">
        <ele>900.3</ele>
        <time>2014-04-19T14:35:16.939Z</time>
      </trkpt>
      <trkpt lat="45.41869" lon="4.62775">
        <ele>901</ele>
        <time>2014-04-19T14:35:21.161Z</time>
      </trkpt>
      <trkpt lat="45.41869" lon="4.62772">
        <ele>901.1</ele>
        <time>2014-04-19T14:35:21.909Z</time>
      </trkpt>
      <trkpt lat="45.41867" lon="4.62762">
        <ele>901.6</ele>
        <time>2014-04-19T14:35:25.025Z</time>
      </trkpt>
      <trkpt lat="45.41866" lon="4.62759">
        <ele>901.8</ele>
        <time>2014-04-19T14:35:25.925Z</time>
      </trkpt>
      <trkpt lat="45.41864" lon="4.62749">
        <ele>902.6</ele>
        <time>2014-04-19T14:35:29.177Z</time>
      </trkpt>
      <trkpt lat="45.41863" lon="4.62745">
        <ele>902.9</ele>
        <time>2014-04-19T14:35:29.936Z</time>
      </trkpt>
      <trkpt lat="45.41861" lon="4.62734">
        <ele>903.7</ele>
        <time>2014-04-19T14:35:34.206Z</time>
      </trkpt>
      <trkpt lat="45.41861" lon="4.62731">
        <ele>903.9</ele>
        <time>2014-04-19T14:35:34.896Z</time>
      </trkpt>
      <trkpt lat="45.41859" lon="4.62721">
        <ele>904.6</ele>
        <time>2014-04-19T14:35:39.227Z</time>
      </trkpt>
      <trkpt lat="45.41859" lon="4.62718">
        <ele>904.8</ele>
        <time>2014-04-19T14:35:39.896Z</time>
      </trkpt>
      <trkpt lat="45.41858" lon="4.62706">
        <ele>905.6</ele>
        <time>2014-04-19T14:35:44.250Z</time>
      </trkpt>
      <trkpt lat="45.41858" lon="4.62704">
        <ele>905.8</ele>
        <time>2014-04-19T14:35:44.910Z</time>
      </trkpt>
      <trkpt lat="45.41856" lon="4.62693">
        <ele>906.3</ele>
        <time>2014-04-19T14:35:48.064Z</time>
      </trkpt>
      <trkpt lat="45.41856" lon="4.62689">
        <ele>906.4</ele>
        <time>2014-04-19T14:35:48.929Z</time>
      </trkpt>
      <trkpt lat="45.41854" lon="4.62678">
        <ele>906.4</ele>
        <time>2014-04-19T14:35:53.736Z</time>
      </trkpt>
      <trkpt lat="45.41854" lon="4.62675">
        <ele>906.5</ele>
        <time>2014-04-19T14:35:53.893Z</time>
      </trkpt>
      <trkpt lat="45.41853" lon="4.62663">
        <ele>907.1</ele>
        <time>2014-04-19T14:35:57.970Z</time>
      </trkpt>
      <trkpt lat="45.41853" lon="4.6266">
        <ele>907.3</ele>
        <time>2014-04-19T14:35:59.042Z</time>
      </trkpt>
      <trkpt lat="45.41853" lon="4.62648">
        <ele>908.1</ele>
        <time>2014-04-19T14:36:01.965Z</time>
      </trkpt>
      <trkpt lat="45.41853" lon="4.62645">
        <ele>908.4</ele>
        <time>2014-04-19T14:36:02.948Z</time>
      </trkpt>
      <trkpt lat="45.41852" lon="4.62634">
        <ele>909.8</ele>
        <time>2014-04-19T14:36:08.005Z</time>
      </trkpt>
      <trkpt lat="45.41852" lon="4.62631">
        <ele>910.1</ele>
        <time>2014-04-19T14:36:08.923Z</time>
      </trkpt>
      <trkpt lat="45.4185" lon="4.62619">
        <ele>912</ele>
        <time>2014-04-19T14:36:14.161Z</time>
      </trkpt>
      <trkpt lat="45.4185" lon="4.62617">
        <ele>912.4</ele>
        <time>2014-04-19T14:36:14.920Z</time>
      </trkpt>
      <trkpt lat="45.41851" lon="4.62604">
        <ele>914.5</ele>
        <time>2014-04-19T14:36:19.951Z</time>
      </trkpt>
      <trkpt lat="45.41851" lon="4.62601">
        <ele>914.9</ele>
        <time>2014-04-19T14:36:20.888Z</time>
      </trkpt>
      <trkpt lat="45.4185" lon="4.62588">
        <ele>916.3</ele>
        <time>2014-04-19T14:36:24.205Z</time>
      </trkpt>
      <trkpt lat="45.4185" lon="4.62584">
        <ele>916.7</ele>
        <time>2014-04-19T14:36:24.906Z</time>
      </trkpt>
      <trkpt lat="45.4185" lon="4.62574">
        <ele>918.3</ele>
        <time>2014-04-19T14:36:27.927Z</time>
      </trkpt>
      <trkpt lat="45.4185" lon="4.6257">
        <ele>918.8</ele>
        <time>2014-04-19T14:36:28.922Z</time>
      </trkpt>
      <trkpt lat="45.41852" lon="4.6256">
        <ele>920.7</ele>
        <time>2014-04-19T14:36:33.104Z</time>
      </trkpt>
      <trkpt lat="45.41853" lon="4.62557">
        <ele>921.1</ele>
        <time>2014-04-19T14:36:33.893Z</time>
      </trkpt>
      <trkpt lat="45.41857" lon="4.62549">
        <ele>923.1</ele>
        <time>2014-04-19T14:36:37.990Z</time>
      </trkpt>
      <trkpt lat="45.41858" lon="4.62546">
        <ele>923.7</ele>
        <time>2014-04-19T14:36:38.926Z</time>
      </trkpt>
      <trkpt lat="45.4186" lon="4.62534">
        <ele>926.4</ele>
        <time>2014-04-19T14:36:44.947Z</time>
      </trkpt>
      <trkpt lat="45.41861" lon="4.62533">
        <ele>926.7</ele>
        <time>2014-04-19T14:36:45.879Z</time>
      </trkpt>
      <trkpt lat="45.41866" lon="4.62523">
        <ele>927.8</ele>
        <time>2014-04-19T14:36:49.910Z</time>
      </trkpt>
      <trkpt lat="45.41868" lon="4.62522">
        <ele>928</ele>
        <time>2014-04-19T14:36:50.885Z</time>
      </trkpt>
      <trkpt lat="45.41874" lon="4.62513">
        <ele>928.6</ele>
        <time>2014-04-19T14:36:55.923Z</time>
      </trkpt>
      <trkpt lat="45.41876" lon="4.62512">
        <ele>928.7</ele>
        <time>2014-04-19T14:36:56.872Z</time>
      </trkpt>
      <trkpt lat="45.41883" lon="4.62507">
        <ele>929.2</ele>
        <time>2014-04-19T14:37:01.956Z</time>
      </trkpt>
      <trkpt lat="45.41884" lon="4.62506">
        <ele>929.3</ele>
        <time>2014-04-19T14:37:03.129Z</time>
      </trkpt>
      <trkpt lat="45.41893" lon="4.62504">
        <ele>929.9</ele>
        <time>2014-04-19T14:37:07.955Z</time>
      </trkpt>
      <trkpt lat="45.41896" lon="4.62503">
        <ele>930.1</ele>
        <time>2014-04-19T14:37:08.890Z</time>
      </trkpt>
      <trkpt lat="45.41904" lon="4.62502">
        <ele>930.6</ele>
        <time>2014-04-19T14:37:11.975Z</time>
      </trkpt>
      <trkpt lat="45.41907" lon="4.62502">
        <ele>930.8</ele>
        <time>2014-04-19T14:37:12.915Z</time>
      </trkpt>
      <trkpt lat="45.41915" lon="4.625">
        <ele>931.3</ele>
        <time>2014-04-19T14:37:16.015Z</time>
      </trkpt>
      <trkpt lat="45.41917" lon="4.625">
        <ele>931.5</ele>
        <time>2014-04-19T14:37:16.888Z</time>
      </trkpt>
      <trkpt lat="45.41926" lon="4.62498">
        <ele>932.1</ele>
        <time>2014-04-19T14:37:21.121Z</time>
      </trkpt>
      <trkpt lat="45.41928" lon="4.62499">
        <ele>932.2</ele>
        <time>2014-04-19T14:37:21.881Z</time>
      </trkpt>
      <trkpt lat="45.41936" lon="4.62502">
        <ele>932.6</ele>
        <time>2014-04-19T14:37:26.012Z</time>
      </trkpt>
      <trkpt lat="45.41939" lon="4.62503">
        <ele>932.7</ele>
        <time>2014-04-19T14:37:26.931Z</time>
      </trkpt>
      <trkpt lat="45.41945" lon="4.62507">
        <ele>932.9</ele>
        <time>2014-04-19T14:37:30.967Z</time>
      </trkpt>
      <trkpt lat="45.41948" lon="4.62509">
        <ele>933</ele>
        <time>2014-04-19T14:37:31.911Z</time>
      </trkpt>
      <trkpt lat="45.41955" lon="4.62511">
        <ele>933.3</ele>
        <time>2014-04-19T14:37:34.951Z</time>
      </trkpt>
      <trkpt lat="45.41957" lon="4.62512">
        <ele>933.4</ele>
        <time>2014-04-19T14:37:35.923Z</time>
      </trkpt>
      <trkpt lat="45.41964" lon="4.62513">
        <ele>933.7</ele>
        <time>2014-04-19T14:37:38.190Z</time>
      </trkpt>
      <trkpt lat="45.41966" lon="4.62513">
        <ele>933.8</ele>
        <time>2014-04-19T14:37:38.923Z</time>
      </trkpt>
      <trkpt lat="45.41974" lon="4.62514">
        <ele>934.3</ele>
        <time>2014-04-19T14:37:42.018Z</time>
      </trkpt>
      <trkpt lat="45.41976" lon="4.62514">
        <ele>934.5</ele>
        <time>2014-04-19T14:37:42.945Z</time>
      </trkpt>
      <trkpt lat="45.41984" lon="4.62513">
        <ele>935</ele>
        <time>2014-04-19T14:37:46.040Z</time>
      </trkpt>
      <trkpt lat="45.41986" lon="4.62513">
        <ele>935.2</ele>
        <time>2014-04-19T14:37:46.928Z</time>
      </trkpt>
      <trkpt lat="45.41992" lon="4.62507">
        <ele>935.8</ele>
        <time>2014-04-19T14:37:51.031Z</time>
      </trkpt>
      <trkpt lat="45.41994" lon="4.62505">
        <ele>936</ele>
        <time>2014-04-19T14:37:51.904Z</time>
      </trkpt>
      <trkpt lat="45.41999" lon="4.62497">
        <ele>936.7</ele>
        <time>2014-04-19T14:37:54.995Z</time>
      </trkpt>
      <trkpt lat="45.42001" lon="4.62494">
        <ele>937</ele>
        <time>2014-04-19T14:37:55.933Z</time>
      </trkpt>
      <trkpt lat="45.42006" lon="4.62487">
        <ele>937.8</ele>
        <time>2014-04-19T14:37:59.196Z</time>
      </trkpt>
      <trkpt lat="45.42008" lon="4.62485">
        <ele>938</ele>
        <time>2014-04-19T14:37:59.915Z</time>
      </trkpt>
      <trkpt lat="45.42012" lon="4.62477">
        <ele>938.7</ele>
        <time>2014-04-19T14:38:03.008Z</time>
      </trkpt>
      <trkpt lat="45.42013" lon="4.62474">
        <ele>938.9</ele>
        <time>2014-04-19T14:38:03.925Z</time>
      </trkpt>
      <trkpt lat="45.42018" lon="4.62467">
        <ele>939.1</ele>
        <time>2014-04-19T14:38:06.998Z</time>
      </trkpt>
      <trkpt lat="45.42021" lon="4.62463">
        <ele>939.2</ele>
        <time>2014-04-19T14:38:07.935Z</time>
      </trkpt>
      <trkpt lat="45.42026" lon="4.62456">
        <ele>939.5</ele>
        <time>2014-04-19T14:38:09.990Z</time>
      </trkpt>
      <trkpt lat="45.42028" lon="4.62454">
        <ele>939.7</ele>
        <time>2014-04-19T14:38:10.937Z</time>
      </trkpt>
      <trkpt lat="45.42033" lon="4.62446">
        <ele>940.1</ele>
        <time>2014-04-19T14:38:14.254Z</time>
      </trkpt>
      <trkpt lat="45.42035" lon="4.62442">
        <ele>940.4</ele>
        <time>2014-04-19T14:38:14.915Z</time>
      </trkpt>
      <trkpt lat="45.4204" lon="4.62434">
        <ele>941</ele>
        <time>2014-04-19T14:38:17.977Z</time>
      </trkpt>
      <trkpt lat="45.42042" lon="4.62432">
        <ele>941.2</ele>
        <time>2014-04-19T14:38:18.939Z</time>
      </trkpt>
      <trkpt lat="45.42048" lon="4.62424">
        <ele>942.3</ele>
        <time>2014-04-19T14:38:23.046Z</time>
      </trkpt>
      <trkpt lat="45.4205" lon="4.62422">
        <ele>942.5</ele>
        <time>2014-04-19T14:38:23.949Z</time>
      </trkpt>
      <trkpt lat="45.42056" lon="4.62413">
        <ele>943.3</ele>
        <time>2014-04-19T14:38:27.968Z</time>
      </trkpt>
      <trkpt lat="45.42057" lon="4.62411">
        <ele>943.5</ele>
        <time>2014-04-19T14:38:28.923Z</time>
      </trkpt>
      <trkpt lat="45.42063" lon="4.62405">
        <ele>943.9</ele>
        <time>2014-04-19T14:38:32.934Z</time>
      </trkpt>
      <trkpt lat="45.42064" lon="4.62403">
        <ele>944</ele>
        <time>2014-04-19T14:38:33.954Z</time>
      </trkpt>
      <trkpt lat="45.4207" lon="4.62395">
        <ele>944.4</ele>
        <time>2014-04-19T14:38:38.052Z</time>
      </trkpt>
      <trkpt lat="45.42071" lon="4.62393">
        <ele>944.5</ele>
        <time>2014-04-19T14:38:38.924Z</time>
      </trkpt>
      <trkpt lat="45.42078" lon="4.62385">
        <ele>944.9</ele>
        <time>2014-04-19T14:38:44.438Z</time>
      </trkpt>
      <trkpt lat="45.42079" lon="4.62384">
        <ele>945.1</ele>
        <time>2014-04-19T14:38:44.906Z</time>
      </trkpt>
      <trkpt lat="45.42084" lon="4.62377">
        <ele>945.6</ele>
        <time>2014-04-19T14:38:48.185Z</time>
      </trkpt>
      <trkpt lat="45.42086" lon="4.62374">
        <ele>945.8</ele>
        <time>2014-04-19T14:38:48.925Z</time>
      </trkpt>
      <trkpt lat="45.42092" lon="4.62366">
        <ele>946.6</ele>
        <time>2014-04-19T14:38:53.785Z</time>
      </trkpt>
      <trkpt lat="45.42094" lon="4.62365">
        <ele>946.8</ele>
        <time>2014-04-19T14:38:53.922Z</time>
      </trkpt>
      <trkpt lat="45.421" lon="4.62356">
        <ele>948</ele>
        <time>2014-04-19T14:38:59.053Z</time>
      </trkpt>
      <trkpt lat="45.42101" lon="4.62355">
        <ele>948.3</ele>
        <time>2014-04-19T14:38:59.922Z</time>
      </trkpt>
      <trkpt lat="45.42106" lon="4.62347">
        <ele>949.2</ele>
        <time>2014-04-19T14:39:04.009Z</time>
      </trkpt>
      <trkpt lat="45.42107" lon="4.62345">
        <ele>949.4</ele>
        <time>2014-04-19T14:39:04.911Z</time>
      </trkpt>
      <trkpt lat="45.42112" lon="4.62336">
        <ele>949.7</ele>
        <time>2014-04-19T14:39:08.023Z</time>
      </trkpt>
      <trkpt lat="45.42114" lon="4.62333">
        <ele>949.7</ele>
        <time>2014-04-19T14:39:09.005Z</time>
      </trkpt>
      <trkpt lat="45.4212" lon="4.62326">
        <ele>949.8</ele>
        <time>2014-04-19T14:39:12.002Z</time>
      </trkpt>
      <trkpt lat="45.42121" lon="4.62324">
        <ele>949.8</ele>
        <time>2014-04-19T14:39:12.903Z</time>
      </trkpt>
      <trkpt lat="45.42127" lon="4.62315">
        <ele>950.6</ele>
        <time>2014-04-19T14:39:16.989Z</time>
      </trkpt>
      <trkpt lat="45.42127" lon="4.62313">
        <ele>950.8</ele>
        <time>2014-04-19T14:39:17.956Z</time>
      </trkpt>
      <trkpt lat="45.42132" lon="4.62304">
        <ele>951.7</ele>
        <time>2014-04-19T14:39:22.008Z</time>
      </trkpt>
      <trkpt lat="45.42134" lon="4.62302">
        <ele>951.9</ele>
        <time>2014-04-19T14:39:22.936Z</time>
      </trkpt>
      <trkpt lat="45.42139" lon="4.62294">
        <ele>953.1</ele>
        <time>2014-04-19T14:39:29.716Z</time>
      </trkpt>
      <trkpt lat="45.4214" lon="4.62292">
        <ele>953.3</ele>
        <time>2014-04-19T14:39:29.917Z</time>
      </trkpt>
      <trkpt lat="45.42145" lon="4.62285">
        <ele>954.2</ele>
        <time>2014-04-19T14:39:34.785Z</time>
      </trkpt>
      <trkpt lat="45.42147" lon="4.62283">
        <ele>954.5</ele>
        <time>2014-04-19T14:39:34.927Z</time>
      </trkpt>
      <trkpt lat="45.42152" lon="4.62274">
        <ele>955.1</ele>
        <time>2014-04-19T14:39:37.958Z</time>
      </trkpt>
      <trkpt lat="45.42154" lon="4.62271">
        <ele>955.3</ele>
        <time>2014-04-19T14:39:38.923Z</time>
      </trkpt>
      <trkpt lat="45.42158" lon="4.62263">
        <ele>955.8</ele>
        <time>2014-04-19T14:39:41.944Z</time>
      </trkpt>
      <trkpt lat="45.42159" lon="4.6226">
        <ele>956</ele>
        <time>2014-04-19T14:39:42.950Z</time>
      </trkpt>
      <trkpt lat="45.42163" lon="4.62249">
        <ele>957.1</ele>
        <time>2014-04-19T14:39:47.286Z</time>
      </trkpt>
      <trkpt lat="45.42164" lon="4.62247">
        <ele>957.4</ele>
        <time>2014-04-19T14:39:47.906Z</time>
      </trkpt>
      <trkpt lat="45.42169" lon="4.6224">
        <ele>958.1</ele>
        <time>2014-04-19T14:39:50.952Z</time>
      </trkpt>
      <trkpt lat="45.4217" lon="4.62237">
        <ele>958.2</ele>
        <time>2014-04-19T14:39:51.924Z</time>
      </trkpt>
      <trkpt lat="45.42174" lon="4.62228">
        <ele>958.8</ele>
        <time>2014-04-19T14:39:55.018Z</time>
      </trkpt>
      <trkpt lat="45.42175" lon="4.62225">
        <ele>958.9</ele>
        <time>2014-04-19T14:39:55.928Z</time>
      </trkpt>
      <trkpt lat="45.4218" lon="4.62216">
        <ele>959.4</ele>
        <time>2014-04-19T14:39:59.020Z</time>
      </trkpt>
      <trkpt lat="45.42182" lon="4.62213">
        <ele>959.6</ele>
        <time>2014-04-19T14:39:59.930Z</time>
      </trkpt>
      <trkpt lat="45.42187" lon="4.62203">
        <ele>960</ele>
        <time>2014-04-19T14:40:03.911Z</time>
      </trkpt>
      <trkpt lat="45.4219" lon="4.62197">
        <ele>960.3</ele>
        <time>2014-04-19T14:40:04.927Z</time>
      </trkpt>
      <trkpt lat="45.42195" lon="4.62187">
        <ele>961.6</ele>
        <time>2014-04-19T14:40:08.948Z</time>
      </trkpt>
      <trkpt lat="45.42196" lon="4.62186">
        <ele>961.9</ele>
        <time>2014-04-19T14:40:09.907Z</time>
      </trkpt>
      <trkpt lat="45.42202" lon="4.62179">
        <ele>963.4</ele>
        <time>2014-04-19T14:40:13.956Z</time>
      </trkpt>
      <trkpt lat="45.42204" lon="4.62176">
        <ele>963.7</ele>
        <time>2014-04-19T14:40:14.962Z</time>
      </trkpt>
      <trkpt lat="45.4221" lon="4.62167">
        <ele>964.7</ele>
        <time>2014-04-19T14:40:19.057Z</time>
      </trkpt>
      <trkpt lat="45.42211" lon="4.62165">
        <ele>965</ele>
        <time>2014-04-19T14:40:19.948Z</time>
      </trkpt>
      <trkpt lat="45.42216" lon="4.62156">
        <ele>965.8</ele>
        <time>2014-04-19T14:40:24.069Z</time>
      </trkpt>
      <trkpt lat="45.42217" lon="4.62154">
        <ele>966.1</ele>
        <time>2014-04-19T14:40:24.943Z</time>
      </trkpt>
      <trkpt lat="45.42221" lon="4.62146">
        <ele>966.8</ele>
        <time>2014-04-19T14:40:27.941Z</time>
      </trkpt>
      <trkpt lat="45.42223" lon="4.62143">
        <ele>966.9</ele>
        <time>2014-04-19T14:40:28.895Z</time>
      </trkpt>
      <trkpt lat="45.42227" lon="4.62133">
        <ele>967.1</ele>
        <time>2014-04-19T14:40:31.991Z</time>
      </trkpt>
      <trkpt lat="45.42229" lon="4.6213">
        <ele>967.2</ele>
        <time>2014-04-19T14:40:32.934Z</time>
      </trkpt>
      <trkpt lat="45.42234" lon="4.62121">
        <ele>967.7</ele>
        <time>2014-04-19T14:40:36.040Z</time>
      </trkpt>
      <trkpt lat="45.42236" lon="4.62118">
        <ele>967.9</ele>
        <time>2014-04-19T14:40:36.900Z</time>
      </trkpt>
      <trkpt lat="45.42241" lon="4.62108">
        <ele>968.4</ele>
        <time>2014-04-19T14:40:39.995Z</time>
      </trkpt>
      <trkpt lat="45.42243" lon="4.62105">
        <ele>968.6</ele>
        <time>2014-04-19T14:40:40.941Z</time>
      </trkpt>
      <trkpt lat="45.42247" lon="4.62095">
        <ele>969</ele>
        <time>2014-04-19T14:40:44.007Z</time>
      </trkpt>
      <trkpt lat="45.42249" lon="4.62091">
        <ele>969.1</ele>
        <time>2014-04-19T14:40:44.912Z</time>
      </trkpt>
      <trkpt lat="45.42254" lon="4.62081">
        <ele>969.4</ele>
        <time>2014-04-19T14:40:47.945Z</time>
      </trkpt>
      <trkpt lat="45.42256" lon="4.62077">
        <ele>969.4</ele>
        <time>2014-04-19T14:40:48.942Z</time>
      </trkpt>
      <trkpt lat="45.42261" lon="4.62068">
        <ele>969.6</ele>
        <time>2014-04-19T14:40:51.997Z</time>
      </trkpt>
      <trkpt lat="45.42262" lon="4.62065">
        <ele>969.6</ele>
        <time>2014-04-19T14:40:52.922Z</time>
      </trkpt>
      <trkpt lat="45.42267" lon="4.62057">
        <ele>969.8</ele>
        <time>2014-04-19T14:40:56.946Z</time>
      </trkpt>
      <trkpt lat="45.42268" lon="4.62055">
        <ele>969.8</ele>
        <time>2014-04-19T14:40:57.895Z</time>
      </trkpt>
      <trkpt lat="45.42273" lon="4.62047">
        <ele>969.6</ele>
        <time>2014-04-19T14:41:01.988Z</time>
      </trkpt>
      <trkpt lat="45.42275" lon="4.62044">
        <ele>969.6</ele>
        <time>2014-04-19T14:41:02.926Z</time>
      </trkpt>
      <trkpt lat="45.4228" lon="4.62036">
        <ele>969.4</ele>
        <time>2014-04-19T14:41:05.940Z</time>
      </trkpt>
      <trkpt lat="45.42282" lon="4.62033">
        <ele>969.4</ele>
        <time>2014-04-19T14:41:06.941Z</time>
      </trkpt>
      <trkpt lat="45.42289" lon="4.62025">
        <ele>969.3</ele>
        <time>2014-04-19T14:41:09.942Z</time>
      </trkpt>
      <trkpt lat="45.42291" lon="4.62023">
        <ele>969.3</ele>
        <time>2014-04-19T14:41:10.992Z</time>
      </trkpt>
      <trkpt lat="45.42297" lon="4.62017">
        <ele>969.4</ele>
        <time>2014-04-19T14:41:14.311Z</time>
      </trkpt>
      <trkpt lat="45.42299" lon="4.62014">
        <ele>969.4</ele>
        <time>2014-04-19T14:41:14.886Z</time>
      </trkpt>
      <trkpt lat="45.42306" lon="4.62007">
        <ele>969.6</ele>
        <time>2014-04-19T14:41:18.002Z</time>
      </trkpt>
      <trkpt lat="45.42307" lon="4.62005">
        <ele>969.7</ele>
        <time>2014-04-19T14:41:18.940Z</time>
      </trkpt>
      <trkpt lat="45.42313" lon="4.61998">
        <ele>969.9</ele>
        <time>2014-04-19T14:41:22.141Z</time>
      </trkpt>
      <trkpt lat="45.42315" lon="4.61995">
        <ele>970</ele>
        <time>2014-04-19T14:41:22.895Z</time>
      </trkpt>
      <trkpt lat="45.42321" lon="4.61988">
        <ele>970.3</ele>
        <time>2014-04-19T14:41:26.199Z</time>
      </trkpt>
      <trkpt lat="45.42322" lon="4.61986">
        <ele>970.4</ele>
        <time>2014-04-19T14:41:26.932Z</time>
      </trkpt>
      <trkpt lat="45.42328" lon="4.61979">
        <ele>970.7</ele>
        <time>2014-04-19T14:41:29.983Z</time>
      </trkpt>
      <trkpt lat="45.4233" lon="4.61976">
        <ele>970.8</ele>
        <time>2014-04-19T14:41:30.906Z</time>
      </trkpt>
      <trkpt lat="45.42336" lon="4.61968">
        <ele>971.2</ele>
        <time>2014-04-19T14:41:34.102Z</time>
      </trkpt>
      <trkpt lat="45.42338" lon="4.61965">
        <ele>971.3</ele>
        <time>2014-04-19T14:41:34.954Z</time>
      </trkpt>
      <trkpt lat="45.42344" lon="4.61957">
        <ele>971.7</ele>
        <time>2014-04-19T14:41:38.043Z</time>
      </trkpt>
      <trkpt lat="45.42346" lon="4.61954">
        <ele>971.8</ele>
        <time>2014-04-19T14:41:38.953Z</time>
      </trkpt>
      <trkpt lat="45.42353" lon="4.61946">
        <ele>972.3</ele>
        <time>2014-04-19T14:41:41.955Z</time>
      </trkpt>
      <trkpt lat="45.42355" lon="4.61943">
        <ele>972.4</ele>
        <time>2014-04-19T14:41:42.894Z</time>
      </trkpt>
      <trkpt lat="45.42361" lon="4.61936">
        <ele>972.8</ele>
        <time>2014-04-19T14:41:46.024Z</time>
      </trkpt>
      <trkpt lat="45.42363" lon="4.61934">
        <ele>972.9</ele>
        <time>2014-04-19T14:41:46.927Z</time>
      </trkpt>
      <trkpt lat="45.4237" lon="4.61926">
        <ele>973.3</ele>
        <time>2014-04-19T14:41:49.950Z</time>
      </trkpt>
      <trkpt lat="45.42372" lon="4.61923">
        <ele>973.5</ele>
        <time>2014-04-19T14:41:50.951Z</time>
      </trkpt>
      <trkpt lat="45.42379" lon="4.61915">
        <ele>973.9</ele>
        <time>2014-04-19T14:41:53.921Z</time>
      </trkpt>
      <trkpt lat="45.42381" lon="4.61913">
        <ele>974</ele>
        <time>2014-04-19T14:41:54.955Z</time>
      </trkpt>
      <trkpt lat="45.42387" lon="4.61905">
        <ele>974.5</ele>
        <time>2014-04-19T14:41:58.955Z</time>
      </trkpt>
      <trkpt lat="45.42392" lon="4.61899">
        <ele>974.8</ele>
        <time>2014-04-19T14:41:59.926Z</time>
      </trkpt>
      <trkpt lat="45.42398" lon="4.61892">
        <ele>975.2</ele>
        <time>2014-04-19T14:42:03.940Z</time>
      </trkpt>
      <trkpt lat="45.42402" lon="4.61887">
        <ele>975.6</ele>
        <time>2014-04-19T14:42:04.958Z</time>
      </trkpt>
      <trkpt lat="45.42409" lon="4.61879">
        <ele>976.2</ele>
        <time>2014-04-19T14:42:07.942Z</time>
      </trkpt>
      <trkpt lat="45.42411" lon="4.61877">
        <ele>976.4</ele>
        <time>2014-04-19T14:42:09.003Z</time>
      </trkpt>
      <trkpt lat="45.42418" lon="4.61869">
        <ele>976.9</ele>
        <time>2014-04-19T14:42:12.002Z</time>
      </trkpt>
      <trkpt lat="45.4242" lon="4.61866">
        <ele>977.1</ele>
        <time>2014-04-19T14:42:12.928Z</time>
      </trkpt>
      <trkpt lat="45.42425" lon="4.61861">
        <ele>977.4</ele>
        <time>2014-04-19T14:42:14.927Z</time>
      </trkpt>
      <trkpt lat="45.42427" lon="4.61858">
        <ele>977.5</ele>
        <time>2014-04-19T14:42:15.894Z</time>
      </trkpt>
      <trkpt lat="45.42434" lon="4.61851">
        <ele>977.9</ele>
        <time>2014-04-19T14:42:19.220Z</time>
      </trkpt>
      <trkpt lat="45.42437" lon="4.61849">
        <ele>978.1</ele>
        <time>2014-04-19T14:42:19.939Z</time>
      </trkpt>
      <trkpt lat="45.42442" lon="4.61844">
        <ele>978.4</ele>
        <time>2014-04-19T14:42:22.040Z</time>
      </trkpt>
      <trkpt lat="45.42444" lon="4.61841">
        <ele>978.5</ele>
        <time>2014-04-19T14:42:22.889Z</time>
      </trkpt>
      <trkpt lat="45.42451" lon="4.61834">
        <ele>979</ele>
        <time>2014-04-19T14:42:25.918Z</time>
      </trkpt>
      <trkpt lat="45.42453" lon="4.61832">
        <ele>979.2</ele>
        <time>2014-04-19T14:42:26.936Z</time>
      </trkpt>
      <trkpt lat="45.42459" lon="4.61826">
        <ele>979.7</ele>
        <time>2014-04-19T14:42:30.012Z</time>
      </trkpt>
      <trkpt lat="45.42461" lon="4.61824">
        <ele>979.9</ele>
        <time>2014-04-19T14:42:30.919Z</time>
      </trkpt>
      <trkpt lat="45.42468" lon="4.61818">
        <ele>980.5</ele>
        <time>2014-04-19T14:42:34.541Z</time>
      </trkpt>
      <trkpt lat="45.4247" lon="4.61816">
        <ele>980.7</ele>
        <time>2014-04-19T14:42:34.935Z</time>
      </trkpt>
      <trkpt lat="45.42477" lon="4.61812">
        <ele>981.5</ele>
        <time>2014-04-19T14:42:38.037Z</time>
      </trkpt>
      <trkpt lat="45.4248" lon="4.6181">
        <ele>981.8</ele>
        <time>2014-04-19T14:42:38.892Z</time>
      </trkpt>
      <trkpt lat="45.42488" lon="4.61806">
        <ele>982.6</ele>
        <time>2014-04-19T14:42:42.090Z</time>
      </trkpt>
      <trkpt lat="45.4249" lon="4.61805">
        <ele>982.9</ele>
        <time>2014-04-19T14:42:42.937Z</time>
      </trkpt>
      <trkpt lat="45.42497" lon="4.61802">
        <ele>983.4</ele>
        <time>2014-04-19T14:42:44.946Z</time>
      </trkpt>
      <trkpt lat="45.425" lon="4.61801">
        <ele>983.6</ele>
        <time>2014-04-19T14:42:45.951Z</time>
      </trkpt>
      <trkpt lat="45.42509" lon="4.618">
        <ele>984.2</ele>
        <time>2014-04-19T14:42:49.651Z</time>
      </trkpt>
      <trkpt lat="45.42511" lon="4.61799">
        <ele>984.4</ele>
        <time>2014-04-19T14:42:49.906Z</time>
      </trkpt>
      <trkpt lat="45.42518" lon="4.61797">
        <ele>984.9</ele>
        <time>2014-04-19T14:42:52.970Z</time>
      </trkpt>
      <trkpt lat="45.4252" lon="4.61797">
        <ele>985.2</ele>
        <time>2014-04-19T14:42:54.227Z</time>
      </trkpt>
      <trkpt lat="45.42527" lon="4.61791">
        <ele>986.4</ele>
        <time>2014-04-19T14:42:59.065Z</time>
      </trkpt>
      <trkpt lat="45.42528" lon="4.61788">
        <ele>987.1</ele>
        <time>2014-04-19T14:42:59.917Z</time>
      </trkpt>
      <trkpt lat="45.42528" lon="4.61777">
        <ele>988.7</ele>
        <time>2014-04-19T14:43:04.133Z</time>
      </trkpt>
      <trkpt lat="45.42528" lon="4.61773">
        <ele>989.1</ele>
        <time>2014-04-19T14:43:04.952Z</time>
      </trkpt>
      <trkpt lat="45.42527" lon="4.61761">
        <ele>990.3</ele>
        <time>2014-04-19T14:43:07.956Z</time>
      </trkpt>
      <trkpt lat="45.42526" lon="4.61758">
        <ele>990.6</ele>
        <time>2014-04-19T14:43:08.941Z</time>
      </trkpt>
      <trkpt lat="45.42524" lon="4.61745">
        <ele>991.3</ele>
        <time>2014-04-19T14:43:12.013Z</time>
      </trkpt>
      <trkpt lat="45.42523" lon="4.61743">
        <ele>991.5</ele>
        <time>2014-04-19T14:43:12.945Z</time>
      </trkpt>
      <trkpt lat="45.42518" lon="4.61733">
        <ele>992</ele>
        <time>2014-04-19T14:43:17.949Z</time>
      </trkpt>
      <trkpt lat="45.42517" lon="4.61732">
        <ele>992.1</ele>
        <time>2014-04-19T14:43:18.941Z</time>
      </trkpt>
      <trkpt lat="45.42508" lon="4.61736">
        <ele>992.9</ele>
        <time>2014-04-19T14:43:33.021Z</time>
      </trkpt>
      <trkpt lat="45.42507" lon="4.61738">
        <ele>993.1</ele>
        <time>2014-04-19T14:43:33.944Z</time>
      </trkpt>
      <trkpt lat="45.425" lon="4.61739">
        <ele>993.9</ele>
        <time>2014-04-19T14:43:40.959Z</time>
      </trkpt>
      <trkpt lat="45.42497" lon="4.61739">
        <ele>994</ele>
        <time>2014-04-19T14:43:41.950Z</time>
      </trkpt>
      <trkpt lat="45.42504" lon="4.61731">
        <ele>995.5</ele>
        <time>2014-04-19T14:43:57.026Z</time>
      </trkpt>
      <trkpt lat="45.42504" lon="4.61727">
        <ele>995.5</ele>
        <time>2014-04-19T14:43:57.929Z</time>
      </trkpt>
      <trkpt lat="45.42502" lon="4.61715">
        <ele>995.6</ele>
        <time>2014-04-19T14:44:00.995Z</time>
      </trkpt>
      <trkpt lat="45.42501" lon="4.61711">
        <ele>995.6</ele>
        <time>2014-04-19T14:44:01.944Z</time>
      </trkpt>
      <trkpt lat="45.425" lon="4.61703">
        <ele>995.6</ele>
        <time>2014-04-19T14:44:03.941Z</time>
      </trkpt>
      <trkpt lat="45.425" lon="4.61698">
        <ele>995.6</ele>
        <time>2014-04-19T14:44:04.952Z</time>
      </trkpt>
      <trkpt lat="45.425" lon="4.61686">
        <ele>995.7</ele>
        <time>2014-04-19T14:44:08.783Z</time>
      </trkpt>
      <trkpt lat="45.42501" lon="4.61683">
        <ele>995.7</ele>
        <time>2014-04-19T14:44:08.903Z</time>
      </trkpt>
      <trkpt lat="45.42498" lon="4.61694">
        <ele>996.8</ele>
        <time>2014-04-19T14:44:22.983Z</time>
      </trkpt>
      <trkpt lat="45.42498" lon="4.61696">
        <ele>996.8</ele>
        <time>2014-04-19T14:44:23.972Z</time>
      </trkpt>
      <trkpt lat="45.42498" lon="4.61709">
        <ele>997.3</ele>
        <time>2014-04-19T14:44:29.996Z</time>
      </trkpt>
      <trkpt lat="45.42499" lon="4.61711">
        <ele>997.3</ele>
        <time>2014-04-19T14:44:30.955Z</time>
      </trkpt>
      <trkpt lat="45.425" lon="4.61722">
        <ele>997.5</ele>
        <time>2014-04-19T14:44:34.995Z</time>
      </trkpt>
      <trkpt lat="45.425" lon="4.61725">
        <ele>997.5</ele>
        <time>2014-04-19T14:44:35.957Z</time>
      </trkpt>
      <trkpt lat="45.42494" lon="4.61734">
        <ele>997.6</ele>
        <time>2014-04-19T14:44:40.001Z</time>
      </trkpt>
      <trkpt lat="45.42493" lon="4.61736">
        <ele>997.6</ele>
        <time>2014-04-19T14:44:40.913Z</time>
      </trkpt>
      <trkpt lat="45.42486" lon="4.61742">
        <ele>997.6</ele>
        <time>2014-04-19T14:44:46.018Z</time>
      </trkpt>
      <trkpt lat="45.42485" lon="4.61743">
        <ele>997.6</ele>
        <time>2014-04-19T14:44:46.948Z</time>
      </trkpt>
      <trkpt lat="45.42476" lon="4.61747">
        <ele>997.6</ele>
        <time>2014-04-19T14:44:52.063Z</time>
      </trkpt>
      <trkpt lat="45.42475" lon="4.61748">
        <ele>997.7</ele>
        <time>2014-04-19T14:44:52.940Z</time>
      </trkpt>
      <trkpt lat="45.42467" lon="4.61752">
        <ele>997.8</ele>
        <time>2014-04-19T14:44:56.947Z</time>
      </trkpt>
      <trkpt lat="45.42466" lon="4.61753">
        <ele>997.9</ele>
        <time>2014-04-19T14:44:57.947Z</time>
      </trkpt>
      <trkpt lat="45.42459" lon="4.61756">
        <ele>998</ele>
        <time>2014-04-19T14:45:01.938Z</time>
      </trkpt>
      <trkpt lat="45.42456" lon="4.61756">
        <ele>998.1</ele>
        <time>2014-04-19T14:45:02.943Z</time>
      </trkpt>
      <trkpt lat="45.42449" lon="4.61759">
        <ele>998.2</ele>
        <time>2014-04-19T14:45:07.056Z</time>
      </trkpt>
      <trkpt lat="45.42447" lon="4.6176">
        <ele>998.2</ele>
        <time>2014-04-19T14:45:07.943Z</time>
      </trkpt>
      <trkpt lat="45.42439" lon="4.61761">
        <ele>998.5</ele>
        <time>2014-04-19T14:45:12.050Z</time>
      </trkpt>
      <trkpt lat="45.42437" lon="4.61762">
        <ele>998.5</ele>
        <time>2014-04-19T14:45:12.913Z</time>
      </trkpt>
      <trkpt lat="45.4243" lon="4.61765">
        <ele>998.9</ele>
        <time>2014-04-19T14:45:16.985Z</time>
      </trkpt>
      <trkpt lat="45.42428" lon="4.61766">
        <ele>999</ele>
        <time>2014-04-19T14:45:17.943Z</time>
      </trkpt>
      <trkpt lat="45.4242" lon="4.6177">
        <ele>999.9</ele>
        <time>2014-04-19T14:45:24.136Z</time>
      </trkpt>
      <trkpt lat="45.42419" lon="4.6177">
        <ele>1000</ele>
        <time>2014-04-19T14:45:24.964Z</time>
      </trkpt>
      <trkpt lat="45.42412" lon="4.61775">
        <ele>1001</ele>
        <time>2014-04-19T14:45:30.050Z</time>
      </trkpt>
      <trkpt lat="45.4241" lon="4.61776">
        <ele>1001.2</ele>
        <time>2014-04-19T14:45:30.943Z</time>
      </trkpt>
      <trkpt lat="45.42402" lon="4.6178">
        <ele>1002.7</ele>
        <time>2014-04-19T14:45:38.027Z</time>
      </trkpt>
      <trkpt lat="45.42401" lon="4.61782">
        <ele>1002.9</ele>
        <time>2014-04-19T14:45:38.928Z</time>
      </trkpt>
      <trkpt lat="45.42395" lon="4.61787">
        <ele>1003.4</ele>
        <time>2014-04-19T14:45:41.964Z</time>
      </trkpt>
      <trkpt lat="45.42393" lon="4.61789">
        <ele>1003.6</ele>
        <time>2014-04-19T14:45:42.912Z</time>
      </trkpt>
      <trkpt lat="45.42387" lon="4.61792">
        <ele>1004.2</ele>
        <time>2014-04-19T14:45:46.965Z</time>
      </trkpt>
      <trkpt lat="45.42384" lon="4.61793">
        <ele>1004.4</ele>
        <time>2014-04-19T14:45:47.913Z</time>
      </trkpt>
      <trkpt lat="45.42377" lon="4.61797">
        <ele>1004.9</ele>
        <time>2014-04-19T14:45:52.031Z</time>
      </trkpt>
      <trkpt lat="45.42375" lon="4.61799">
        <ele>1005.1</ele>
        <time>2014-04-19T14:45:52.905Z</time>
      </trkpt>
      <trkpt lat="45.42368" lon="4.61805">
        <ele>1005.6</ele>
        <time>2014-04-19T14:45:57.080Z</time>
      </trkpt>
      <trkpt lat="45.42366" lon="4.61807">
        <ele>1005.7</ele>
        <time>2014-04-19T14:45:57.938Z</time>
      </trkpt>
      <trkpt lat="45.42358" lon="4.6181">
        <ele>1006.1</ele>
        <time>2014-04-19T14:46:03.310Z</time>
      </trkpt>
      <trkpt lat="45.42356" lon="4.61811">
        <ele>1006.2</ele>
        <time>2014-04-19T14:46:03.906Z</time>
      </trkpt>
      <trkpt lat="45.4235" lon="4.61813">
        <ele>1006.6</ele>
        <time>2014-04-19T14:46:09.021Z</time>
      </trkpt>
      <trkpt lat="45.42347" lon="4.61815">
        <ele>1006.8</ele>
        <time>2014-04-19T14:46:09.905Z</time>
      </trkpt>
      <trkpt lat="45.42339" lon="4.61817">
        <ele>1007.4</ele>
        <time>2014-04-19T14:46:15.086Z</time>
      </trkpt>
      <trkpt lat="45.42338" lon="4.61818">
        <ele>1007.5</ele>
        <time>2014-04-19T14:46:16.006Z</time>
      </trkpt>
      <trkpt lat="45.4233" lon="4.61819">
        <ele>1008.1</ele>
        <time>2014-04-19T14:46:19.969Z</time>
      </trkpt>
      <trkpt lat="45.42328" lon="4.6182">
        <ele>1008.2</ele>
        <time>2014-04-19T14:46:20.916Z</time>
      </trkpt>
      <trkpt lat="45.4232" lon="4.61823">
        <ele>1008.5</ele>
        <time>2014-04-19T14:46:23.968Z</time>
      </trkpt>
      <trkpt lat="45.42318" lon="4.61824">
        <ele>1008.6</ele>
        <time>2014-04-19T14:46:24.952Z</time>
      </trkpt>
      <trkpt lat="45.4231" lon="4.61828">
        <ele>1008.9</ele>
        <time>2014-04-19T14:46:28.967Z</time>
      </trkpt>
      <trkpt lat="45.42308" lon="4.61829">
        <ele>1009</ele>
        <time>2014-04-19T14:46:29.915Z</time>
      </trkpt>
      <trkpt lat="45.42301" lon="4.61831">
        <ele>1009.4</ele>
        <time>2014-04-19T14:46:34.000Z</time>
      </trkpt>
      <trkpt lat="45.42299" lon="4.61832">
        <ele>1009.5</ele>
        <time>2014-04-19T14:46:34.955Z</time>
      </trkpt>
      <trkpt lat="45.42292" lon="4.61837">
        <ele>1009.9</ele>
        <time>2014-04-19T14:46:38.956Z</time>
      </trkpt>
      <trkpt lat="45.4229" lon="4.61838">
        <ele>1009.9</ele>
        <time>2014-04-19T14:46:39.957Z</time>
      </trkpt>
      <trkpt lat="45.42283" lon="4.61843">
        <ele>1010.3</ele>
        <time>2014-04-19T14:46:44.180Z</time>
      </trkpt>
      <trkpt lat="45.42282" lon="4.61844">
        <ele>1010.5</ele>
        <time>2014-04-19T14:46:44.893Z</time>
      </trkpt>
      <trkpt lat="45.42274" lon="4.61849">
        <ele>1011.1</ele>
        <time>2014-04-19T14:46:49.919Z</time>
      </trkpt>
      <trkpt lat="45.42273" lon="4.6185">
        <ele>1011.3</ele>
        <time>2014-04-19T14:46:50.945Z</time>
      </trkpt>
      <trkpt lat="45.42266" lon="4.61855">
        <ele>1011.8</ele>
        <time>2014-04-19T14:46:54.995Z</time>
      </trkpt>
      <trkpt lat="45.42264" lon="4.61856">
        <ele>1011.9</ele>
        <time>2014-04-19T14:46:55.921Z</time>
      </trkpt>
      <trkpt lat="45.42257" lon="4.61862">
        <ele>1012.4</ele>
        <time>2014-04-19T14:47:00.140Z</time>
      </trkpt>
      <trkpt lat="45.42256" lon="4.61863">
        <ele>1012.4</ele>
        <time>2014-04-19T14:47:00.935Z</time>
      </trkpt>
      <trkpt lat="45.42248" lon="4.61868">
        <ele>1012.9</ele>
        <time>2014-04-19T14:47:05.971Z</time>
      </trkpt>
      <trkpt lat="45.42246" lon="4.6187">
        <ele>1013</ele>
        <time>2014-04-19T14:47:06.935Z</time>
      </trkpt>
      <trkpt lat="45.42239" lon="4.61875">
        <ele>1013.6</ele>
        <time>2014-04-19T14:47:12.039Z</time>
      </trkpt>
      <trkpt lat="45.42238" lon="4.61876">
        <ele>1013.7</ele>
        <time>2014-04-19T14:47:12.890Z</time>
      </trkpt>
      <trkpt lat="45.4223" lon="4.61881">
        <ele>1014.4</ele>
        <time>2014-04-19T14:47:17.937Z</time>
      </trkpt>
      <trkpt lat="45.42228" lon="4.61882">
        <ele>1014.5</ele>
        <time>2014-04-19T14:47:18.955Z</time>
      </trkpt>
      <trkpt lat="45.42221" lon="4.61888">
        <ele>1015</ele>
        <time>2014-04-19T14:47:22.936Z</time>
      </trkpt>
      <trkpt lat="45.42219" lon="4.61889">
        <ele>1015.1</ele>
        <time>2014-04-19T14:47:23.923Z</time>
      </trkpt>
      <trkpt lat="45.42212" lon="4.61896">
        <ele>1015.4</ele>
        <time>2014-04-19T14:47:27.971Z</time>
      </trkpt>
      <trkpt lat="45.42211" lon="4.61897">
        <ele>1015.5</ele>
        <time>2014-04-19T14:47:28.927Z</time>
      </trkpt>
      <trkpt lat="45.42204" lon="4.61903">
        <ele>1015.8</ele>
        <time>2014-04-19T14:47:33.213Z</time>
      </trkpt>
      <trkpt lat="45.42202" lon="4.61905">
        <ele>1015.9</ele>
        <time>2014-04-19T14:47:33.934Z</time>
      </trkpt>
      <trkpt lat="45.42196" lon="4.61911">
        <ele>1016.3</ele>
        <time>2014-04-19T14:47:39.107Z</time>
      </trkpt>
      <trkpt lat="45.42194" lon="4.61912">
        <ele>1016.4</ele>
        <time>2014-04-19T14:47:39.940Z</time>
      </trkpt>
      <trkpt lat="45.42188" lon="4.61916">
        <ele>1017</ele>
        <time>2014-04-19T14:47:44.161Z</time>
      </trkpt>
      <trkpt lat="45.42186" lon="4.61917">
        <ele>1017.2</ele>
        <time>2014-04-19T14:47:44.884Z</time>
      </trkpt>
      <trkpt lat="45.42178" lon="4.61922">
        <ele>1017.7</ele>
        <time>2014-04-19T14:47:50.137Z</time>
      </trkpt>
      <trkpt lat="45.42175" lon="4.61925">
        <ele>1017.9</ele>
        <time>2014-04-19T14:47:50.958Z</time>
      </trkpt>
      <trkpt lat="45.42169" lon="4.61931">
        <ele>1018.3</ele>
        <time>2014-04-19T14:47:55.090Z</time>
      </trkpt>
      <trkpt lat="45.42167" lon="4.61932">
        <ele>1018.5</ele>
        <time>2014-04-19T14:47:55.927Z</time>
      </trkpt>
      <trkpt lat="45.4216" lon="4.61938">
        <ele>1018.8</ele>
        <time>2014-04-19T14:47:59.977Z</time>
      </trkpt>
      <trkpt lat="45.42158" lon="4.61939">
        <ele>1018.9</ele>
        <time>2014-04-19T14:48:00.940Z</time>
      </trkpt>
      <trkpt lat="45.42152" lon="4.61944">
        <ele>1019.4</ele>
        <time>2014-04-19T14:48:04.961Z</time>
      </trkpt>
      <trkpt lat="45.4215" lon="4.61945">
        <ele>1019.5</ele>
        <time>2014-04-19T14:48:05.927Z</time>
      </trkpt>
      <trkpt lat="45.42142" lon="4.61951">
        <ele>1020.2</ele>
        <time>2014-04-19T14:48:11.061Z</time>
      </trkpt>
      <trkpt lat="45.4214" lon="4.61952">
        <ele>1020.3</ele>
        <time>2014-04-19T14:48:11.927Z</time>
      </trkpt>
      <trkpt lat="45.42133" lon="4.61957">
        <ele>1020.7</ele>
        <time>2014-04-19T14:48:15.948Z</time>
      </trkpt>
      <trkpt lat="45.42131" lon="4.61959">
        <ele>1020.9</ele>
        <time>2014-04-19T14:48:16.927Z</time>
      </trkpt>
      <trkpt lat="45.42124" lon="4.61964">
        <ele>1021.8</ele>
        <time>2014-04-19T14:48:21.948Z</time>
      </trkpt>
      <trkpt lat="45.42122" lon="4.61965">
        <ele>1022</ele>
        <time>2014-04-19T14:48:22.886Z</time>
      </trkpt>
      <trkpt lat="45.42115" lon="4.61969">
        <ele>1022.7</ele>
        <time>2014-04-19T14:48:26.976Z</time>
      </trkpt>
      <trkpt lat="45.42113" lon="4.6197">
        <ele>1022.9</ele>
        <time>2014-04-19T14:48:27.932Z</time>
      </trkpt>
      <trkpt lat="45.42106" lon="4.61975">
        <ele>1023.6</ele>
        <time>2014-04-19T14:48:31.974Z</time>
      </trkpt>
      <trkpt lat="45.42105" lon="4.61976">
        <ele>1023.8</ele>
        <time>2014-04-19T14:48:32.915Z</time>
      </trkpt>
      <trkpt lat="45.42097" lon="4.61981">
        <ele>1024.4</ele>
        <time>2014-04-19T14:48:36.984Z</time>
      </trkpt>
      <trkpt lat="45.42095" lon="4.61983">
        <ele>1024.6</ele>
        <time>2014-04-19T14:48:37.890Z</time>
      </trkpt>
      <trkpt lat="45.42087" lon="4.61987">
        <ele>1025.2</ele>
        <time>2014-04-19T14:48:43.061Z</time>
      </trkpt>
      <trkpt lat="45.42086" lon="4.61988">
        <ele>1025.3</ele>
        <time>2014-04-19T14:48:43.946Z</time>
      </trkpt>
      <trkpt lat="45.42079" lon="4.61991">
        <ele>1025.7</ele>
        <time>2014-04-19T14:48:47.964Z</time>
      </trkpt>
      <trkpt lat="45.42077" lon="4.61992">
        <ele>1025.9</ele>
        <time>2014-04-19T14:48:48.938Z</time>
      </trkpt>
      <trkpt lat="45.42069" lon="4.61996">
        <ele>1026.5</ele>
        <time>2014-04-19T14:48:53.755Z</time>
      </trkpt>
      <trkpt lat="45.42067" lon="4.61996">
        <ele>1026.7</ele>
        <time>2014-04-19T14:48:53.903Z</time>
      </trkpt>
      <trkpt lat="45.42059" lon="4.62">
        <ele>1027.7</ele>
        <time>2014-04-19T14:48:59.072Z</time>
      </trkpt>
      <trkpt lat="45.42057" lon="4.62001">
        <ele>1027.9</ele>
        <time>2014-04-19T14:48:59.942Z</time>
      </trkpt>
      <trkpt lat="45.4205" lon="4.62004">
        <ele>1028.9</ele>
        <time>2014-04-19T14:49:04.122Z</time>
      </trkpt>
      <trkpt lat="45.42048" lon="4.62004">
        <ele>1029.1</ele>
        <time>2014-04-19T14:49:04.942Z</time>
      </trkpt>
      <trkpt lat="45.42042" lon="4.62008">
        <ele>1030</ele>
        <time>2014-04-19T14:49:09.132Z</time>
      </trkpt>
      <trkpt lat="45.4204" lon="4.62009">
        <ele>1030.3</ele>
        <time>2014-04-19T14:49:09.940Z</time>
      </trkpt>
      <trkpt lat="45.42033" lon="4.62013">
        <ele>1031</ele>
        <time>2014-04-19T14:49:14.101Z</time>
      </trkpt>
      <trkpt lat="45.42031" lon="4.62014">
        <ele>1031.2</ele>
        <time>2014-04-19T14:49:14.935Z</time>
      </trkpt>
      <trkpt lat="45.42025" lon="4.62017">
        <ele>1031.6</ele>
        <time>2014-04-19T14:49:17.936Z</time>
      </trkpt>
      <trkpt lat="45.42022" lon="4.62018">
        <ele>1031.7</ele>
        <time>2014-04-19T14:49:18.932Z</time>
      </trkpt>
      <trkpt lat="45.42014" lon="4.62021">
        <ele>1032</ele>
        <time>2014-04-19T14:49:21.929Z</time>
      </trkpt>
      <trkpt lat="45.42013" lon="4.62021">
        <ele>1032.1</ele>
        <time>2014-04-19T14:49:22.883Z</time>
      </trkpt>
      <trkpt lat="45.42005" lon="4.62024">
        <ele>1032.4</ele>
        <time>2014-04-19T14:49:27.018Z</time>
      </trkpt>
      <trkpt lat="45.42004" lon="4.62025">
        <ele>1032.5</ele>
        <time>2014-04-19T14:49:27.911Z</time>
      </trkpt>
      <trkpt lat="45.41995" lon="4.62028">
        <ele>1033.1</ele>
        <time>2014-04-19T14:49:32.994Z</time>
      </trkpt>
      <trkpt lat="45.41994" lon="4.62029">
        <ele>1033.3</ele>
        <time>2014-04-19T14:49:33.931Z</time>
      </trkpt>
      <trkpt lat="45.41987" lon="4.62032">
        <ele>1034.1</ele>
        <time>2014-04-19T14:49:41.001Z</time>
      </trkpt>
      <trkpt lat="45.41985" lon="4.62033">
        <ele>1034.1</ele>
        <time>2014-04-19T14:49:41.892Z</time>
      </trkpt>
      <trkpt lat="45.41977" lon="4.62036">
        <ele>1034.7</ele>
        <time>2014-04-19T14:49:46.002Z</time>
      </trkpt>
      <trkpt lat="45.41975" lon="4.62036">
        <ele>1034.9</ele>
        <time>2014-04-19T14:49:46.898Z</time>
      </trkpt>
      <trkpt lat="45.41968" lon="4.62038">
        <ele>1035.9</ele>
        <time>2014-04-19T14:49:50.971Z</time>
      </trkpt>
      <trkpt lat="45.41966" lon="4.62039">
        <ele>1036.2</ele>
        <time>2014-04-19T14:49:51.915Z</time>
      </trkpt>
      <trkpt lat="45.41957" lon="4.62042">
        <ele>1037.3</ele>
        <time>2014-04-19T14:49:55.978Z</time>
      </trkpt>
      <trkpt lat="45.41956" lon="4.62043">
        <ele>1037.7</ele>
        <time>2014-04-19T14:49:56.891Z</time>
      </trkpt>
      <trkpt lat="45.41948" lon="4.62044">
        <ele>1039.3</ele>
        <time>2014-04-19T14:50:01.996Z</time>
      </trkpt>
      <trkpt lat="45.41946" lon="4.62044">
        <ele>1039.6</ele>
        <time>2014-04-19T14:50:02.919Z</time>
      </trkpt>
      <trkpt lat="45.41938" lon="4.62044">
        <ele>1040.8</ele>
        <time>2014-04-19T14:50:07.986Z</time>
      </trkpt>
      <trkpt lat="45.41936" lon="4.62044">
        <ele>1041</ele>
        <time>2014-04-19T14:50:08.932Z</time>
      </trkpt>
      <trkpt lat="45.41928" lon="4.62046">
        <ele>1041.8</ele>
        <time>2014-04-19T14:50:14.150Z</time>
      </trkpt>
      <trkpt lat="45.41926" lon="4.62046">
        <ele>1042</ele>
        <time>2014-04-19T14:50:14.929Z</time>
      </trkpt>
      <trkpt lat="45.41918" lon="4.62045">
        <ele>1042.7</ele>
        <time>2014-04-19T14:50:20.421Z</time>
      </trkpt>
      <trkpt lat="45.41917" lon="4.62044">
        <ele>1042.8</ele>
        <time>2014-04-19T14:50:20.875Z</time>
      </trkpt>
      <trkpt lat="45.41913" lon="4.62035">
        <ele>1043.2</ele>
        <time>2014-04-19T14:50:27.917Z</time>
      </trkpt>
      <trkpt lat="45.41911" lon="4.62034">
        <ele>1043.3</ele>
        <time>2014-04-19T14:50:28.918Z</time>
      </trkpt>
      <trkpt lat="45.41904" lon="4.6203">
        <ele>1043.4</ele>
        <time>2014-04-19T14:50:31.933Z</time>
      </trkpt>
      <trkpt lat="45.41901" lon="4.62029">
        <ele>1043.4</ele>
        <time>2014-04-19T14:50:32.932Z</time>
      </trkpt>
      <trkpt lat="45.41894" lon="4.62027">
        <ele>1043.5</ele>
        <time>2014-04-19T14:50:34.918Z</time>
      </trkpt>
      <trkpt lat="45.41892" lon="4.62026">
        <ele>1043.6</ele>
        <time>2014-04-19T14:50:35.885Z</time>
      </trkpt>
      <trkpt lat="45.41885" lon="4.62023">
        <ele>1043.8</ele>
        <time>2014-04-19T14:50:37.994Z</time>
      </trkpt>
      <trkpt lat="45.41882" lon="4.62023">
        <ele>1044</ele>
        <time>2014-04-19T14:50:38.894Z</time>
      </trkpt>
      <trkpt lat="45.41875" lon="4.62021">
        <ele>1044.3</ele>
        <time>2014-04-19T14:50:40.920Z</time>
      </trkpt>
      <trkpt lat="45.41872" lon="4.62021">
        <ele>1044.4</ele>
        <time>2014-04-19T14:50:41.887Z</time>
      </trkpt>
      <trkpt lat="45.41863" lon="4.62017">
        <ele>1044.5</ele>
        <time>2014-04-19T14:50:45.245Z</time>
      </trkpt>
      <trkpt lat="45.41861" lon="4.62016">
        <ele>1044.5</ele>
        <time>2014-04-19T14:50:45.941Z</time>
      </trkpt>
      <trkpt lat="45.41853" lon="4.62015">
        <ele>1044.5</ele>
        <time>2014-04-19T14:50:50.315Z</time>
      </trkpt>
      <trkpt lat="45.41851" lon="4.62015">
        <ele>1044.6</ele>
        <time>2014-04-19T14:50:50.905Z</time>
      </trkpt>
      <trkpt lat="45.41844" lon="4.62015">
        <ele>1045.1</ele>
        <time>2014-04-19T14:50:55.057Z</time>
      </trkpt>
      <trkpt lat="45.41842" lon="4.62015">
        <ele>1045.4</ele>
        <time>2014-04-19T14:50:55.893Z</time>
      </trkpt>
      <trkpt lat="45.41834" lon="4.62018">
        <ele>1046.5</ele>
        <time>2014-04-19T14:51:00.241Z</time>
      </trkpt>
      <trkpt lat="45.41832" lon="4.62019">
        <ele>1046.7</ele>
        <time>2014-04-19T14:51:00.935Z</time>
      </trkpt>
      <trkpt lat="45.41824" lon="4.6202">
        <ele>1047.8</ele>
        <time>2014-04-19T14:51:04.997Z</time>
      </trkpt>
      <trkpt lat="45.41822" lon="4.62021">
        <ele>1048.1</ele>
        <time>2014-04-19T14:51:05.990Z</time>
      </trkpt>
      <trkpt lat="45.41815" lon="4.62021">
        <ele>1048.9</ele>
        <time>2014-04-19T14:51:09.116Z</time>
      </trkpt>
      <trkpt lat="45.41812" lon="4.6202">
        <ele>1049.2</ele>
        <time>2014-04-19T14:51:09.879Z</time>
      </trkpt>
      <trkpt lat="45.41803" lon="4.6202">
        <ele>1050.9</ele>
        <time>2014-04-19T14:51:15.066Z</time>
      </trkpt>
      <trkpt lat="45.41802" lon="4.6202">
        <ele>1051.3</ele>
        <time>2014-04-19T14:51:15.943Z</time>
      </trkpt>
      <trkpt lat="45.41794" lon="4.62019">
        <ele>1052.6</ele>
        <time>2014-04-19T14:51:19.988Z</time>
      </trkpt>
      <trkpt lat="45.41792" lon="4.62019">
        <ele>1053</ele>
        <time>2014-04-19T14:51:20.876Z</time>
      </trkpt>
      <trkpt lat="45.41784" lon="4.62019">
        <ele>1054.7</ele>
        <time>2014-04-19T14:51:24.952Z</time>
      </trkpt>
      <trkpt lat="45.41782" lon="4.62019">
        <ele>1055.2</ele>
        <time>2014-04-19T14:51:25.912Z</time>
      </trkpt>
      <trkpt lat="45.41776" lon="4.62021">
        <ele>1057.2</ele>
        <time>2014-04-19T14:51:29.992Z</time>
      </trkpt>
      <trkpt lat="45.41773" lon="4.62021">
        <ele>1057.6</ele>
        <time>2014-04-19T14:51:30.893Z</time>
      </trkpt>
      <trkpt lat="45.41765" lon="4.6202">
        <ele>1059.1</ele>
        <time>2014-04-19T14:51:35.000Z</time>
      </trkpt>
      <trkpt lat="45.41763" lon="4.6202">
        <ele>1059.4</ele>
        <time>2014-04-19T14:51:35.916Z</time>
      </trkpt>
      <trkpt lat="45.41755" lon="4.62021">
        <ele>1060.6</ele>
        <time>2014-04-19T14:51:39.170Z</time>
      </trkpt>
      <trkpt lat="45.41752" lon="4.62022">
        <ele>1060.9</ele>
        <time>2014-04-19T14:51:39.871Z</time>
      </trkpt>
      <trkpt lat="45.41746" lon="4.62024">
        <ele>1061.6</ele>
        <time>2014-04-19T14:51:42.041Z</time>
      </trkpt>
      <trkpt lat="45.41743" lon="4.62025">
        <ele>1061.9</ele>
        <time>2014-04-19T14:51:42.908Z</time>
      </trkpt>
      <trkpt lat="45.41736" lon="4.62026">
        <ele>1062.5</ele>
        <time>2014-04-19T14:51:44.985Z</time>
      </trkpt>
      <trkpt lat="45.41734" lon="4.62027">
        <ele>1062.8</ele>
        <time>2014-04-19T14:51:45.923Z</time>
      </trkpt>
      <trkpt lat="45.41726" lon="4.62028">
        <ele>1064.3</ele>
        <time>2014-04-19T14:51:50.996Z</time>
      </trkpt>
      <trkpt lat="45.41724" lon="4.62028">
        <ele>1064.6</ele>
        <time>2014-04-19T14:51:51.894Z</time>
      </trkpt>
      <trkpt lat="45.41717" lon="4.62029">
        <ele>1065.6</ele>
        <time>2014-04-19T14:51:55.007Z</time>
      </trkpt>
      <trkpt lat="45.41715" lon="4.62029">
        <ele>1066</ele>
        <time>2014-04-19T14:51:55.928Z</time>
      </trkpt>
      <trkpt lat="45.41708" lon="4.62028">
        <ele>1067.1</ele>
        <time>2014-04-19T14:51:59.341Z</time>
      </trkpt>
      <trkpt lat="45.41706" lon="4.62028">
        <ele>1067.5</ele>
        <time>2014-04-19T14:51:59.929Z</time>
      </trkpt>
      <trkpt lat="45.41698" lon="4.62028">
        <ele>1068.9</ele>
        <time>2014-04-19T14:52:04.322Z</time>
      </trkpt>
      <trkpt lat="45.41696" lon="4.62028">
        <ele>1069.2</ele>
        <time>2014-04-19T14:52:04.884Z</time>
      </trkpt>
      <trkpt lat="45.41689" lon="4.62028">
        <ele>1070</ele>
        <time>2014-04-19T14:52:07.958Z</time>
      </trkpt>
      <trkpt lat="45.41686" lon="4.62029">
        <ele>1070.3</ele>
        <time>2014-04-19T14:52:08.929Z</time>
      </trkpt>
      <trkpt lat="45.41678" lon="4.62029">
        <ele>1070.9</ele>
        <time>2014-04-19T14:52:13.080Z</time>
      </trkpt>
      <trkpt lat="45.41675" lon="4.62029">
        <ele>1071.1</ele>
        <time>2014-04-19T14:52:13.923Z</time>
      </trkpt>
      <trkpt lat="45.41667" lon="4.6203">
        <ele>1072.1</ele>
        <time>2014-04-19T14:52:17.006Z</time>
      </trkpt>
      <trkpt lat="45.41664" lon="4.6203">
        <ele>1072.4</ele>
        <time>2014-04-19T14:52:17.940Z</time>
      </trkpt>
      <trkpt lat="45.41657" lon="4.62032">
        <ele>1073.5</ele>
        <time>2014-04-19T14:52:20.988Z</time>
      </trkpt>
      <trkpt lat="45.41655" lon="4.62032">
        <ele>1073.8</ele>
        <time>2014-04-19T14:52:21.887Z</time>
      </trkpt>
      <trkpt lat="45.41648" lon="4.62034">
        <ele>1075.2</ele>
        <time>2014-04-19T14:52:26.006Z</time>
      </trkpt>
      <trkpt lat="45.41646" lon="4.62034">
        <ele>1075.5</ele>
        <time>2014-04-19T14:52:26.919Z</time>
      </trkpt>
      <trkpt lat="45.41637" lon="4.62038">
        <ele>1076.8</ele>
        <time>2014-04-19T14:52:30.993Z</time>
      </trkpt>
      <trkpt lat="45.41636" lon="4.62038">
        <ele>1077.2</ele>
        <time>2014-04-19T14:52:31.882Z</time>
      </trkpt>
      <trkpt lat="45.41628" lon="4.62043">
        <ele>1079.1</ele>
        <time>2014-04-19T14:52:36.916Z</time>
      </trkpt>
      <trkpt lat="45.41626" lon="4.62043">
        <ele>1079.3</ele>
        <time>2014-04-19T14:52:37.951Z</time>
      </trkpt>
      <trkpt lat="45.41618" lon="4.62048">
        <ele>1081.3</ele>
        <time>2014-04-19T14:52:43.204Z</time>
      </trkpt>
      <trkpt lat="45.41616" lon="4.62049">
        <ele>1081.8</ele>
        <time>2014-04-19T14:52:43.899Z</time>
      </trkpt>
      <trkpt lat="45.41608" lon="4.62053">
        <ele>1083.5</ele>
        <time>2014-04-19T14:52:48.994Z</time>
      </trkpt>
      <trkpt lat="45.41607" lon="4.62054">
        <ele>1083.8</ele>
        <time>2014-04-19T14:52:50.180Z</time>
      </trkpt>
      <trkpt lat="45.41601" lon="4.62058">
        <ele>1084.6</ele>
        <time>2014-04-19T14:52:53.939Z</time>
      </trkpt>
      <trkpt lat="45.41599" lon="4.62059">
        <ele>1084.8</ele>
        <time>2014-04-19T14:52:54.896Z</time>
      </trkpt>
      <trkpt lat="45.41591" lon="4.62065">
        <ele>1085.4</ele>
        <time>2014-04-19T14:52:58.947Z</time>
      </trkpt>
      <trkpt lat="45.4159" lon="4.62066">
        <ele>1085.5</ele>
        <time>2014-04-19T14:53:00.010Z</time>
      </trkpt>
      <trkpt lat="45.41583" lon="4.62072">
        <ele>1085.9</ele>
        <time>2014-04-19T14:53:03.915Z</time>
      </trkpt>
      <trkpt lat="45.41578" lon="4.62076">
        <ele>1086</ele>
        <time>2014-04-19T14:53:04.931Z</time>
      </trkpt>
      <trkpt lat="45.4157" lon="4.62083">
        <ele>1086.2</ele>
        <time>2014-04-19T14:53:08.052Z</time>
      </trkpt>
      <trkpt lat="45.41568" lon="4.62085">
        <ele>1086.3</ele>
        <time>2014-04-19T14:53:08.977Z</time>
      </trkpt>
      <trkpt lat="45.41561" lon="4.6209">
        <ele>1086.5</ele>
        <time>2014-04-19T14:53:11.156Z</time>
      </trkpt>
      <trkpt lat="45.41558" lon="4.62093">
        <ele>1086.5</ele>
        <time>2014-04-19T14:53:11.884Z</time>
      </trkpt>
      <trkpt lat="45.4155" lon="4.62098">
        <ele>1087</ele>
        <time>2014-04-19T14:53:14.932Z</time>
      </trkpt>
      <trkpt lat="45.41548" lon="4.621">
        <ele>1087.2</ele>
        <time>2014-04-19T14:53:15.964Z</time>
      </trkpt>
      <trkpt lat="45.4154" lon="4.62105">
        <ele>1088.2</ele>
        <time>2014-04-19T14:53:21.047Z</time>
      </trkpt>
      <trkpt lat="45.41538" lon="4.62106">
        <ele>1088.4</ele>
        <time>2014-04-19T14:53:21.934Z</time>
      </trkpt>
      <trkpt lat="45.41531" lon="4.62112">
        <ele>1088.9</ele>
        <time>2014-04-19T14:53:24.934Z</time>
      </trkpt>
      <trkpt lat="45.41528" lon="4.62114">
        <ele>1089</ele>
        <time>2014-04-19T14:53:25.943Z</time>
      </trkpt>
      <trkpt lat="45.41522" lon="4.6212">
        <ele>1089.1</ele>
        <time>2014-04-19T14:53:27.929Z</time>
      </trkpt>
      <trkpt lat="45.4152" lon="4.62123">
        <ele>1089.1</ele>
        <time>2014-04-19T14:53:28.924Z</time>
      </trkpt>
      <trkpt lat="45.41515" lon="4.62129">
        <ele>1089</ele>
        <time>2014-04-19T14:53:31.107Z</time>
      </trkpt>
      <trkpt lat="45.41512" lon="4.62132">
        <ele>1088.8</ele>
        <time>2014-04-19T14:53:31.932Z</time>
      </trkpt>
      <trkpt lat="45.41506" lon="4.62139">
        <ele>1088.4</ele>
        <time>2014-04-19T14:53:34.945Z</time>
      </trkpt>
      <trkpt lat="45.41504" lon="4.62141">
        <ele>1088.2</ele>
        <time>2014-04-19T14:53:35.936Z</time>
      </trkpt>
      <trkpt lat="45.41498" lon="4.62147">
        <ele>1087.4</ele>
        <time>2014-04-19T14:53:39.981Z</time>
      </trkpt>
      <trkpt lat="45.41496" lon="4.62149">
        <ele>1087.3</ele>
        <time>2014-04-19T14:53:40.894Z</time>
      </trkpt>
      <trkpt lat="45.41488" lon="4.62153">
        <ele>1087</ele>
        <time>2014-04-19T14:53:45.088Z</time>
      </trkpt>
      <trkpt lat="45.41486" lon="4.62154">
        <ele>1087</ele>
        <time>2014-04-19T14:53:45.932Z</time>
      </trkpt>
      <trkpt lat="45.4148" lon="4.62159">
        <ele>1087.1</ele>
        <time>2014-04-19T14:53:48.912Z</time>
      </trkpt>
      <trkpt lat="45.41478" lon="4.62161">
        <ele>1087.1</ele>
        <time>2014-04-19T14:53:49.921Z</time>
      </trkpt>
      <trkpt lat="45.4147" lon="4.62165">
        <ele>1087.4</ele>
        <time>2014-04-19T14:53:53.934Z</time>
      </trkpt>
      <trkpt lat="45.41467" lon="4.62167">
        <ele>1087.6</ele>
        <time>2014-04-19T14:53:54.943Z</time>
      </trkpt>
      <trkpt lat="45.41461" lon="4.62172">
        <ele>1088</ele>
        <time>2014-04-19T14:53:58.789Z</time>
      </trkpt>
      <trkpt lat="45.41459" lon="4.62174">
        <ele>1088.1</ele>
        <time>2014-04-19T14:53:58.922Z</time>
      </trkpt>
      <trkpt lat="45.41453" lon="4.62179">
        <ele>1088.3</ele>
        <time>2014-04-19T14:54:01.914Z</time>
      </trkpt>
      <trkpt lat="45.41451" lon="4.62181">
        <ele>1088.5</ele>
        <time>2014-04-19T14:54:02.922Z</time>
      </trkpt>
      <trkpt lat="45.41443" lon="4.62187">
        <ele>1089.2</ele>
        <time>2014-04-19T14:54:06.993Z</time>
      </trkpt>
      <trkpt lat="45.41441" lon="4.62189">
        <ele>1089.4</ele>
        <time>2014-04-19T14:54:07.926Z</time>
      </trkpt>
      <trkpt lat="45.41433" lon="4.62196">
        <ele>1090</ele>
        <time>2014-04-19T14:54:12.026Z</time>
      </trkpt>
      <trkpt lat="45.41432" lon="4.62197">
        <ele>1090.1</ele>
        <time>2014-04-19T14:54:12.922Z</time>
      </trkpt>
      <trkpt lat="45.41425" lon="4.62205">
        <ele>1090.3</ele>
        <time>2014-04-19T14:54:16.928Z</time>
      </trkpt>
      <trkpt lat="45.41423" lon="4.62206">
        <ele>1090.3</ele>
        <time>2014-04-19T14:54:17.920Z</time>
      </trkpt>
      <trkpt lat="45.41416" lon="4.62211">
        <ele>1090.3</ele>
        <time>2014-04-19T14:54:21.954Z</time>
      </trkpt>
      <trkpt lat="45.41414" lon="4.62213">
        <ele>1090.3</ele>
        <time>2014-04-19T14:54:22.913Z</time>
      </trkpt>
      <trkpt lat="45.41407" lon="4.62218">
        <ele>1090.2</ele>
        <time>2014-04-19T14:54:27.007Z</time>
      </trkpt>
      <trkpt lat="45.41405" lon="4.62219">
        <ele>1090.3</ele>
        <time>2014-04-19T14:54:27.894Z</time>
      </trkpt>
      <trkpt lat="45.41397" lon="4.62225">
        <ele>1090.7</ele>
        <time>2014-04-19T14:54:33.040Z</time>
      </trkpt>
      <trkpt lat="45.41394" lon="4.62226">
        <ele>1090.8</ele>
        <time>2014-04-19T14:54:33.937Z</time>
      </trkpt>
      <trkpt lat="45.41387" lon="4.62232">
        <ele>1091.1</ele>
        <time>2014-04-19T14:54:36.936Z</time>
      </trkpt>
      <trkpt lat="45.41385" lon="4.62234">
        <ele>1091.3</ele>
        <time>2014-04-19T14:54:37.934Z</time>
      </trkpt>
      <trkpt lat="45.41377" lon="4.62241">
        <ele>1091.6</ele>
        <time>2014-04-19T14:54:40.954Z</time>
      </trkpt>
      <trkpt lat="45.41376" lon="4.62243">
        <ele>1091.7</ele>
        <time>2014-04-19T14:54:41.899Z</time>
      </trkpt>
      <trkpt lat="45.41369" lon="4.62251">
        <ele>1092.4</ele>
        <time>2014-04-19T14:54:46.025Z</time>
      </trkpt>
      <trkpt lat="45.41367" lon="4.62253">
        <ele>1092.6</ele>
        <time>2014-04-19T14:54:46.905Z</time>
      </trkpt>
      <trkpt lat="45.4136" lon="4.62259">
        <ele>1093.4</ele>
        <time>2014-04-19T14:54:51.043Z</time>
      </trkpt>
      <trkpt lat="45.41358" lon="4.62261">
        <ele>1093.6</ele>
        <time>2014-04-19T14:54:51.924Z</time>
      </trkpt>
      <trkpt lat="45.41351" lon="4.62265">
        <ele>1094.1</ele>
        <time>2014-04-19T14:54:54.923Z</time>
      </trkpt>
      <trkpt lat="45.41349" lon="4.62267">
        <ele>1094.2</ele>
        <time>2014-04-19T14:54:55.938Z</time>
      </trkpt>
      <trkpt lat="45.41342" lon="4.62273">
        <ele>1094.5</ele>
        <time>2014-04-19T14:54:59.162Z</time>
      </trkpt>
      <trkpt lat="45.4134" lon="4.62276">
        <ele>1094.6</ele>
        <time>2014-04-19T14:54:59.968Z</time>
      </trkpt>
      <trkpt lat="45.41334" lon="4.62284">
        <ele>1095</ele>
        <time>2014-04-19T14:55:02.937Z</time>
      </trkpt>
      <trkpt lat="45.41332" lon="4.62287">
        <ele>1095.1</ele>
        <time>2014-04-19T14:55:03.921Z</time>
      </trkpt>
      <trkpt lat="45.41328" lon="4.62297">
        <ele>1095.5</ele>
        <time>2014-04-19T14:55:06.955Z</time>
      </trkpt>
      <trkpt lat="45.41326" lon="4.62299">
        <ele>1095.6</ele>
        <time>2014-04-19T14:55:07.900Z</time>
      </trkpt>
      <trkpt lat="45.41321" lon="4.62308">
        <ele>1096</ele>
        <time>2014-04-19T14:55:11.196Z</time>
      </trkpt>
      <trkpt lat="45.41319" lon="4.62311">
        <ele>1096.2</ele>
        <time>2014-04-19T14:55:11.944Z</time>
      </trkpt>
      <trkpt lat="45.41314" lon="4.62319">
        <ele>1096.6</ele>
        <time>2014-04-19T14:55:14.934Z</time>
      </trkpt>
      <trkpt lat="45.41312" lon="4.62322">
        <ele>1096.7</ele>
        <time>2014-04-19T14:55:15.896Z</time>
      </trkpt>
      <trkpt lat="45.41307" lon="4.62331">
        <ele>1097.1</ele>
        <time>2014-04-19T14:55:19.255Z</time>
      </trkpt>
      <trkpt lat="45.41306" lon="4.62334">
        <ele>1097.3</ele>
        <time>2014-04-19T14:55:19.952Z</time>
      </trkpt>
      <trkpt lat="45.41301" lon="4.62344">
        <ele>1097.5</ele>
        <time>2014-04-19T14:55:22.949Z</time>
      </trkpt>
      <trkpt lat="45.41299" lon="4.62347">
        <ele>1097.6</ele>
        <time>2014-04-19T14:55:23.937Z</time>
      </trkpt>
      <trkpt lat="45.41293" lon="4.62354">
        <ele>1097.8</ele>
        <time>2014-04-19T14:55:26.981Z</time>
      </trkpt>
      <trkpt lat="45.41291" lon="4.62356">
        <ele>1097.8</ele>
        <time>2014-04-19T14:55:27.978Z</time>
      </trkpt>
      <trkpt lat="45.41284" lon="4.62358">
        <ele>1098</ele>
        <time>2014-04-19T14:55:31.023Z</time>
      </trkpt>
      <trkpt lat="45.41282" lon="4.62359">
        <ele>1098.1</ele>
        <time>2014-04-19T14:55:32.002Z</time>
      </trkpt>
      <trkpt lat="45.41274" lon="4.62357">
        <ele>1098.3</ele>
        <time>2014-04-19T14:55:36.033Z</time>
      </trkpt>
      <trkpt lat="45.41272" lon="4.62356">
        <ele>1098.4</ele>
        <time>2014-04-19T14:55:36.897Z</time>
      </trkpt>
      <trkpt lat="45.41265" lon="4.62349">
        <ele>1098.5</ele>
        <time>2014-04-19T14:55:40.991Z</time>
      </trkpt>
      <trkpt lat="45.41263" lon="4.62347">
        <ele>1098.6</ele>
        <time>2014-04-19T14:55:41.887Z</time>
      </trkpt>
      <trkpt lat="45.41257" lon="4.62338">
        <ele>1098.8</ele>
        <time>2014-04-19T14:55:45.924Z</time>
      </trkpt>
      <trkpt lat="45.41256" lon="4.62335">
        <ele>1098.9</ele>
        <time>2014-04-19T14:55:46.937Z</time>
      </trkpt>
      <trkpt lat="45.41251" lon="4.62328">
        <ele>1099.1</ele>
        <time>2014-04-19T14:55:50.185Z</time>
      </trkpt>
      <trkpt lat="45.4125" lon="4.62325">
        <ele>1099.2</ele>
        <time>2014-04-19T14:55:50.939Z</time>
      </trkpt>
      <trkpt lat="45.41245" lon="4.62316">
        <ele>1099.5</ele>
        <time>2014-04-19T14:55:54.957Z</time>
      </trkpt>
      <trkpt lat="45.41243" lon="4.62314">
        <ele>1099.6</ele>
        <time>2014-04-19T14:55:55.961Z</time>
      </trkpt>
      <trkpt lat="45.41238" lon="4.62304">
        <ele>1099.9</ele>
        <time>2014-04-19T14:55:59.973Z</time>
      </trkpt>
      <trkpt lat="45.41236" lon="4.62302">
        <ele>1100</ele>
        <time>2014-04-19T14:56:00.929Z</time>
      </trkpt>
      <trkpt lat="45.41231" lon="4.62294">
        <ele>1100.3</ele>
        <time>2014-04-19T14:56:04.433Z</time>
      </trkpt>
      <trkpt lat="45.4123" lon="4.62292">
        <ele>1100.4</ele>
        <time>2014-04-19T14:56:04.909Z</time>
      </trkpt>
      <trkpt lat="45.41225" lon="4.62283">
        <ele>1100.7</ele>
        <time>2014-04-19T14:56:09.123Z</time>
      </trkpt>
      <trkpt lat="45.41224" lon="4.62281">
        <ele>1100.8</ele>
        <time>2014-04-19T14:56:09.944Z</time>
      </trkpt>
      <trkpt lat="45.4122" lon="4.62271">
        <ele>1101.2</ele>
        <time>2014-04-19T14:56:14.127Z</time>
      </trkpt>
      <trkpt lat="45.41219" lon="4.62268">
        <ele>1101.4</ele>
        <time>2014-04-19T14:56:14.930Z</time>
      </trkpt>
      <trkpt lat="45.41215" lon="4.62257">
        <ele>1101.9</ele>
        <time>2014-04-19T14:56:19.425Z</time>
      </trkpt>
      <trkpt lat="45.41214" lon="4.62254">
        <ele>1102</ele>
        <time>2014-04-19T14:56:19.912Z</time>
      </trkpt>
      <trkpt lat="45.41209" lon="4.62244">
        <ele>1102.7</ele>
        <time>2014-04-19T14:56:23.964Z</time>
      </trkpt>
      <trkpt lat="45.41208" lon="4.62241">
        <ele>1102.8</ele>
        <time>2014-04-19T14:56:24.914Z</time>
      </trkpt>
      <trkpt lat="45.41204" lon="4.62232">
        <ele>1103.2</ele>
        <time>2014-04-19T14:56:28.094Z</time>
      </trkpt>
      <trkpt lat="45.41203" lon="4.6223">
        <ele>1103.3</ele>
        <time>2014-04-19T14:56:28.928Z</time>
      </trkpt>
      <trkpt lat="45.41199" lon="4.6222">
        <ele>1104</ele>
        <time>2014-04-19T14:56:33.139Z</time>
      </trkpt>
      <trkpt lat="45.41198" lon="4.62218">
        <ele>1104.1</ele>
        <time>2014-04-19T14:56:33.927Z</time>
      </trkpt>
      <trkpt lat="45.41193" lon="4.62209">
        <ele>1104.7</ele>
        <time>2014-04-19T14:56:37.943Z</time>
      </trkpt>
      <trkpt lat="45.41192" lon="4.62206">
        <ele>1104.8</ele>
        <time>2014-04-19T14:56:38.929Z</time>
      </trkpt>
      <trkpt lat="45.41186" lon="4.62197">
        <ele>1105.6</ele>
        <time>2014-04-19T14:56:42.966Z</time>
      </trkpt>
      <trkpt lat="45.41185" lon="4.62195">
        <ele>1105.8</ele>
        <time>2014-04-19T14:56:43.934Z</time>
      </trkpt>
      <trkpt lat="45.41181" lon="4.62187">
        <ele>1107</ele>
        <time>2014-04-19T14:56:48.240Z</time>
      </trkpt>
      <trkpt lat="45.4118" lon="4.62184">
        <ele>1107.3</ele>
        <time>2014-04-19T14:56:48.936Z</time>
      </trkpt>
      <trkpt lat="45.41174" lon="4.62176">
        <ele>1108.6</ele>
        <time>2014-04-19T14:56:53.025Z</time>
      </trkpt>
      <trkpt lat="45.41173" lon="4.62174">
        <ele>1109</ele>
        <time>2014-04-19T14:56:54.054Z</time>
      </trkpt>
      <trkpt lat="45.41169" lon="4.62164">
        <ele>1110.5</ele>
        <time>2014-04-19T14:56:57.996Z</time>
      </trkpt>
      <trkpt lat="45.41168" lon="4.62162">
        <ele>1110.8</ele>
        <time>2014-04-19T14:56:58.949Z</time>
      </trkpt>
      <trkpt lat="45.41163" lon="4.62154">
        <ele>1111.8</ele>
        <time>2014-04-19T14:57:02.005Z</time>
      </trkpt>
      <trkpt lat="45.41161" lon="4.62152">
        <ele>1112.1</ele>
        <time>2014-04-19T14:57:02.914Z</time>
      </trkpt>
      <trkpt lat="45.41156" lon="4.62145">
        <ele>1113.1</ele>
        <time>2014-04-19T14:57:05.960Z</time>
      </trkpt>
      <trkpt lat="45.41154" lon="4.62142">
        <ele>1113.4</ele>
        <time>2014-04-19T14:57:06.929Z</time>
      </trkpt>
      <trkpt lat="45.41148" lon="4.62135">
        <ele>1114.2</ele>
        <time>2014-04-19T14:57:09.938Z</time>
      </trkpt>
      <trkpt lat="45.41146" lon="4.62133">
        <ele>1114.4</ele>
        <time>2014-04-19T14:57:11.116Z</time>
      </trkpt>
      <trkpt lat="45.41139" lon="4.62127">
        <ele>1115.4</ele>
        <time>2014-04-19T14:57:14.961Z</time>
      </trkpt>
      <trkpt lat="45.41138" lon="4.62126">
        <ele>1115.7</ele>
        <time>2014-04-19T14:57:15.918Z</time>
      </trkpt>
      <trkpt lat="45.41131" lon="4.62119">
        <ele>1118</ele>
        <time>2014-04-19T14:57:21.956Z</time>
      </trkpt>
      <trkpt lat="45.4113" lon="4.62118">
        <ele>1118.5</ele>
        <time>2014-04-19T14:57:22.934Z</time>
      </trkpt>
      <trkpt lat="45.41122" lon="4.62112">
        <ele>1120.8</ele>
        <time>2014-04-19T14:57:28.135Z</time>
      </trkpt>
      <trkpt lat="45.4112" lon="4.6211">
        <ele>1121.2</ele>
        <time>2014-04-19T14:57:28.964Z</time>
      </trkpt>
      <trkpt lat="45.41113" lon="4.62106">
        <ele>1122.3</ele>
        <time>2014-04-19T14:57:32.034Z</time>
      </trkpt>
      <trkpt lat="45.41111" lon="4.62104">
        <ele>1122.6</ele>
        <time>2014-04-19T14:57:32.931Z</time>
      </trkpt>
      <trkpt lat="45.41104" lon="4.621">
        <ele>1123.6</ele>
        <time>2014-04-19T14:57:36.037Z</time>
      </trkpt>
      <trkpt lat="45.41102" lon="4.62099">
        <ele>1124</ele>
        <time>2014-04-19T14:57:36.932Z</time>
      </trkpt>
      <trkpt lat="45.41096" lon="4.62095">
        <ele>1125.1</ele>
        <time>2014-04-19T14:57:39.980Z</time>
      </trkpt>
      <trkpt lat="45.41094" lon="4.62094">
        <ele>1125.4</ele>
        <time>2014-04-19T14:57:40.953Z</time>
      </trkpt>
      <trkpt lat="45.41086" lon="4.62088">
        <ele>1126.5</ele>
        <time>2014-04-19T14:57:45.091Z</time>
      </trkpt>
      <trkpt lat="45.41084" lon="4.62087">
        <ele>1126.8</ele>
        <time>2014-04-19T14:57:45.966Z</time>
      </trkpt>
      <trkpt lat="45.41077" lon="4.62083">
        <ele>1127.7</ele>
        <time>2014-04-19T14:57:48.952Z</time>
      </trkpt>
      <trkpt lat="45.41075" lon="4.62081">
        <ele>1128</ele>
        <time>2014-04-19T14:57:49.950Z</time>
      </trkpt>
      <trkpt lat="45.41067" lon="4.62074">
        <ele>1129.2</ele>
        <time>2014-04-19T14:57:53.922Z</time>
      </trkpt>
      <trkpt lat="45.41066" lon="4.62073">
        <ele>1129.5</ele>
        <time>2014-04-19T14:57:54.939Z</time>
      </trkpt>
      <trkpt lat="45.4106" lon="4.62066">
        <ele>1130.7</ele>
        <time>2014-04-19T14:57:59.130Z</time>
      </trkpt>
      <trkpt lat="45.41058" lon="4.62064">
        <ele>1131</ele>
        <time>2014-04-19T14:57:59.952Z</time>
      </trkpt>
      <trkpt lat="45.41051" lon="4.62059">
        <ele>1131.7</ele>
        <time>2014-04-19T14:58:02.947Z</time>
      </trkpt>
      <trkpt lat="45.41049" lon="4.62057">
        <ele>1131.9</ele>
        <time>2014-04-19T14:58:03.945Z</time>
      </trkpt>
      <trkpt lat="45.41043" lon="4.62051">
        <ele>1133</ele>
        <time>2014-04-19T14:58:07.992Z</time>
      </trkpt>
      <trkpt lat="45.41041" lon="4.62049">
        <ele>1133.3</ele>
        <time>2014-04-19T14:58:08.914Z</time>
      </trkpt>
      <trkpt lat="45.41033" lon="4.62043">
        <ele>1134.3</ele>
        <time>2014-04-19T14:58:12.947Z</time>
      </trkpt>
      <trkpt lat="45.41031" lon="4.62042">
        <ele>1134.5</ele>
        <time>2014-04-19T14:58:13.943Z</time>
      </trkpt>
      <trkpt lat="45.41026" lon="4.62034">
        <ele>1135.3</ele>
        <time>2014-04-19T14:58:17.003Z</time>
      </trkpt>
      <trkpt lat="45.41024" lon="4.62032">
        <ele>1135.6</ele>
        <time>2014-04-19T14:58:17.903Z</time>
      </trkpt>
      <trkpt lat="45.41019" lon="4.62027">
        <ele>1136.5</ele>
        <time>2014-04-19T14:58:20.941Z</time>
      </trkpt>
      <trkpt lat="45.41017" lon="4.62025">
        <ele>1136.8</ele>
        <time>2014-04-19T14:58:21.933Z</time>
      </trkpt>
      <trkpt lat="45.4101" lon="4.62018">
        <ele>1137.9</ele>
        <time>2014-04-19T14:58:25.945Z</time>
      </trkpt>
      <trkpt lat="45.41008" lon="4.62017">
        <ele>1138.1</ele>
        <time>2014-04-19T14:58:26.925Z</time>
      </trkpt>
      <trkpt lat="45.41002" lon="4.62011">
        <ele>1138.9</ele>
        <time>2014-04-19T14:58:29.927Z</time>
      </trkpt>
      <trkpt lat="45.41" lon="4.62009">
        <ele>1139.1</ele>
        <time>2014-04-19T14:58:30.939Z</time>
      </trkpt>
      <trkpt lat="45.40994" lon="4.62003">
        <ele>1139.8</ele>
        <time>2014-04-19T14:58:34.001Z</time>
      </trkpt>
      <trkpt lat="45.40992" lon="4.62001">
        <ele>1140</ele>
        <time>2014-04-19T14:58:34.889Z</time>
      </trkpt>
      <trkpt lat="45.40985" lon="4.61995">
        <ele>1140.7</ele>
        <time>2014-04-19T14:58:37.980Z</time>
      </trkpt>
      <trkpt lat="45.40982" lon="4.61992">
        <ele>1140.8</ele>
        <time>2014-04-19T14:58:38.929Z</time>
      </trkpt>
      <trkpt lat="45.40975" lon="4.61986">
        <ele>1141.2</ele>
        <time>2014-04-19T14:58:42.039Z</time>
      </trkpt>
      <trkpt lat="45.40972" lon="4.61984">
        <ele>1141.3</ele>
        <time>2014-04-19T14:58:42.947Z</time>
      </trkpt>
      <trkpt lat="45.40966" lon="4.6198">
        <ele>1141.6</ele>
        <time>2014-04-19T14:58:45.981Z</time>
      </trkpt>
      <trkpt lat="45.40964" lon="4.61978">
        <ele>1141.8</ele>
        <time>2014-04-19T14:58:46.934Z</time>
      </trkpt>
      <trkpt lat="45.40956" lon="4.61972">
        <ele>1142.1</ele>
        <time>2014-04-19T14:58:51.022Z</time>
      </trkpt>
      <trkpt lat="45.40954" lon="4.6197">
        <ele>1142.2</ele>
        <time>2014-04-19T14:58:52.062Z</time>
      </trkpt>
      <trkpt lat="45.40946" lon="4.61965">
        <ele>1142.6</ele>
        <time>2014-04-19T14:58:54.993Z</time>
      </trkpt>
      <trkpt lat="45.40944" lon="4.61964">
        <ele>1142.7</ele>
        <time>2014-04-19T14:58:55.926Z</time>
      </trkpt>
      <trkpt lat="45.40937" lon="4.61958">
        <ele>1143.1</ele>
        <time>2014-04-19T14:58:59.952Z</time>
      </trkpt>
      <trkpt lat="45.40935" lon="4.61957">
        <ele>1143.3</ele>
        <time>2014-04-19T14:59:00.903Z</time>
      </trkpt>
      <trkpt lat="45.40929" lon="4.61952">
        <ele>1143.9</ele>
        <time>2014-04-19T14:59:04.979Z</time>
      </trkpt>
      <trkpt lat="45.40927" lon="4.6195">
        <ele>1144.1</ele>
        <time>2014-04-19T14:59:05.958Z</time>
      </trkpt>
      <trkpt lat="45.4092" lon="4.61944">
        <ele>1144.8</ele>
        <time>2014-04-19T14:59:10.063Z</time>
      </trkpt>
      <trkpt lat="45.40917" lon="4.61942">
        <ele>1145</ele>
        <time>2014-04-19T14:59:10.927Z</time>
      </trkpt>
      <trkpt lat="45.4091" lon="4.61934">
        <ele>1145.7</ele>
        <time>2014-04-19T14:59:15.004Z</time>
      </trkpt>
      <trkpt lat="45.40909" lon="4.61932">
        <ele>1145.9</ele>
        <time>2014-04-19T14:59:16.014Z</time>
      </trkpt>
      <trkpt lat="45.40902" lon="4.61926">
        <ele>1146.5</ele>
        <time>2014-04-19T14:59:20.957Z</time>
      </trkpt>
      <trkpt lat="45.409" lon="4.61926">
        <ele>1146.6</ele>
        <time>2014-04-19T14:59:21.921Z</time>
      </trkpt>
      <trkpt lat="45.40893" lon="4.61918">
        <ele>1147.2</ele>
        <time>2014-04-19T14:59:26.034Z</time>
      </trkpt>
      <trkpt lat="45.40891" lon="4.61917">
        <ele>1147.4</ele>
        <time>2014-04-19T14:59:26.919Z</time>
      </trkpt>
      <trkpt lat="45.40885" lon="4.6191">
        <ele>1148.3</ele>
        <time>2014-04-19T14:59:32.047Z</time>
      </trkpt>
      <trkpt lat="45.40884" lon="4.61909">
        <ele>1148.5</ele>
        <time>2014-04-19T14:59:32.903Z</time>
      </trkpt>
      <trkpt lat="45.40878" lon="4.61903">
        <ele>1149.4</ele>
        <time>2014-04-19T14:59:36.947Z</time>
      </trkpt>
      <trkpt lat="45.40876" lon="4.61901">
        <ele>1149.6</ele>
        <time>2014-04-19T14:59:37.939Z</time>
      </trkpt>
      <trkpt lat="45.40869" lon="4.61897">
        <ele>1150.3</ele>
        <time>2014-04-19T14:59:40.997Z</time>
      </trkpt>
      <trkpt lat="45.40867" lon="4.61896">
        <ele>1150.6</ele>
        <time>2014-04-19T14:59:41.903Z</time>
      </trkpt>
      <trkpt lat="45.4086" lon="4.61892">
        <ele>1151.1</ele>
        <time>2014-04-19T14:59:43.973Z</time>
      </trkpt>
      <trkpt lat="45.40857" lon="4.61891">
        <ele>1151.4</ele>
        <time>2014-04-19T14:59:44.954Z</time>
      </trkpt>
      <trkpt lat="45.4085" lon="4.61887">
        <ele>1152</ele>
        <time>2014-04-19T14:59:48.077Z</time>
      </trkpt>
      <trkpt lat="45.40847" lon="4.61885">
        <ele>1152.2</ele>
        <time>2014-04-19T14:59:48.912Z</time>
      </trkpt>
      <trkpt lat="45.40841" lon="4.6188">
        <ele>1152.8</ele>
        <time>2014-04-19T14:59:52.688Z</time>
      </trkpt>
      <trkpt lat="45.40839" lon="4.61879">
        <ele>1152.9</ele>
        <time>2014-04-19T14:59:52.888Z</time>
      </trkpt>
      <trkpt lat="45.40831" lon="4.61876">
        <ele>1153.4</ele>
        <time>2014-04-19T14:59:55.955Z</time>
      </trkpt>
      <trkpt lat="45.40829" lon="4.61875">
        <ele>1153.5</ele>
        <time>2014-04-19T14:59:56.932Z</time>
      </trkpt>
      <trkpt lat="45.40823" lon="4.61871">
        <ele>1154</ele>
        <time>2014-04-19T15:00:00.031Z</time>
      </trkpt>
      <trkpt lat="45.40821" lon="4.6187">
        <ele>1154.2</ele>
        <time>2014-04-19T15:00:00.943Z</time>
      </trkpt>
      <trkpt lat="45.40812" lon="4.61867">
        <ele>1154.7</ele>
        <time>2014-04-19T15:00:05.023Z</time>
      </trkpt>
      <trkpt lat="45.4081" lon="4.61866">
        <ele>1154.9</ele>
        <time>2014-04-19T15:00:05.929Z</time>
      </trkpt>
      <trkpt lat="45.40804" lon="4.61862">
        <ele>1155.4</ele>
        <time>2014-04-19T15:00:09.016Z</time>
      </trkpt>
      <trkpt lat="45.40802" lon="4.6186">
        <ele>1155.6</ele>
        <time>2014-04-19T15:00:09.925Z</time>
      </trkpt>
      <trkpt lat="45.40794" lon="4.61857">
        <ele>1156.7</ele>
        <time>2014-04-19T15:00:14.964Z</time>
      </trkpt>
      <trkpt lat="45.40792" lon="4.61856">
        <ele>1156.9</ele>
        <time>2014-04-19T15:00:15.937Z</time>
      </trkpt>
      <trkpt lat="45.40785" lon="4.61853">
        <ele>1157.8</ele>
        <time>2014-04-19T15:00:19.981Z</time>
      </trkpt>
      <trkpt lat="45.40783" lon="4.61852">
        <ele>1158.1</ele>
        <time>2014-04-19T15:00:20.951Z</time>
      </trkpt>
      <trkpt lat="45.40776" lon="4.61849">
        <ele>1158.6</ele>
        <time>2014-04-19T15:00:24.466Z</time>
      </trkpt>
      <trkpt lat="45.40773" lon="4.61848">
        <ele>1158.7</ele>
        <time>2014-04-19T15:00:24.912Z</time>
      </trkpt>
      <trkpt lat="45.40766" lon="4.61844">
        <ele>1159.2</ele>
        <time>2014-04-19T15:00:28.200Z</time>
      </trkpt>
      <trkpt lat="45.40764" lon="4.61844">
        <ele>1159.3</ele>
        <time>2014-04-19T15:00:28.944Z</time>
      </trkpt>
      <trkpt lat="45.40755" lon="4.61841">
        <ele>1160</ele>
        <time>2014-04-19T15:00:34.728Z</time>
      </trkpt>
      <trkpt lat="45.40753" lon="4.61841">
        <ele>1160.2</ele>
        <time>2014-04-19T15:00:34.878Z</time>
      </trkpt>
      <trkpt lat="45.40745" lon="4.61838">
        <ele>1161.6</ele>
        <time>2014-04-19T15:00:40.095Z</time>
      </trkpt>
      <trkpt lat="45.40743" lon="4.61838">
        <ele>1161.8</ele>
        <time>2014-04-19T15:00:40.932Z</time>
      </trkpt>
      <trkpt lat="45.40735" lon="4.61835">
        <ele>1163.9</ele>
        <time>2014-04-19T15:00:47.030Z</time>
      </trkpt>
      <trkpt lat="45.40734" lon="4.61834">
        <ele>1164.3</ele>
        <time>2014-04-19T15:00:47.943Z</time>
      </trkpt>
      <trkpt lat="45.40727" lon="4.61833">
        <ele>1165.5</ele>
        <time>2014-04-19T15:00:51.938Z</time>
      </trkpt>
      <trkpt lat="45.40723" lon="4.61833">
        <ele>1165.8</ele>
        <time>2014-04-19T15:00:52.929Z</time>
      </trkpt>
      <trkpt lat="45.40716" lon="4.61834">
        <ele>1166.6</ele>
        <time>2014-04-19T15:00:55.992Z</time>
      </trkpt>
      <trkpt lat="45.40714" lon="4.61834">
        <ele>1166.9</ele>
        <time>2014-04-19T15:00:56.972Z</time>
      </trkpt>
      <trkpt lat="45.40707" lon="4.61835">
        <ele>1167.6</ele>
        <time>2014-04-19T15:00:59.972Z</time>
      </trkpt>
      <trkpt lat="45.40705" lon="4.61835">
        <ele>1167.7</ele>
        <time>2014-04-19T15:01:00.896Z</time>
      </trkpt>
      <trkpt lat="45.40697" lon="4.61835">
        <ele>1168</ele>
        <time>2014-04-19T15:01:04.393Z</time>
      </trkpt>
      <trkpt lat="45.40695" lon="4.61835">
        <ele>1168.1</ele>
        <time>2014-04-19T15:01:04.935Z</time>
      </trkpt>
      <trkpt lat="45.40687" lon="4.61833">
        <ele>1168.6</ele>
        <time>2014-04-19T15:01:09.000Z</time>
      </trkpt>
      <trkpt lat="45.40682" lon="4.61832">
        <ele>1169</ele>
        <time>2014-04-19T15:01:09.928Z</time>
      </trkpt>
      <trkpt lat="45.40673" lon="4.61831">
        <ele>1169.9</ele>
        <time>2014-04-19T15:01:14.042Z</time>
      </trkpt>
      <trkpt lat="45.4067" lon="4.6183">
        <ele>1170.1</ele>
        <time>2014-04-19T15:01:14.935Z</time>
      </trkpt>
      <trkpt lat="45.40663" lon="4.61829">
        <ele>1170.8</ele>
        <time>2014-04-19T15:01:17.945Z</time>
      </trkpt>
      <trkpt lat="45.4066" lon="4.61829">
        <ele>1171.1</ele>
        <time>2014-04-19T15:01:18.922Z</time>
      </trkpt>
      <trkpt lat="45.40652" lon="4.61828">
        <ele>1172</ele>
        <time>2014-04-19T15:01:22.978Z</time>
      </trkpt>
      <trkpt lat="45.40649" lon="4.61828">
        <ele>1172.2</ele>
        <time>2014-04-19T15:01:23.916Z</time>
      </trkpt>
      <trkpt lat="45.40642" lon="4.61831">
        <ele>1172.9</ele>
        <time>2014-04-19T15:01:26.919Z</time>
      </trkpt>
      <trkpt lat="45.4064" lon="4.61832">
        <ele>1173.1</ele>
        <time>2014-04-19T15:01:27.963Z</time>
      </trkpt>
      <trkpt lat="45.40633" lon="4.61837">
        <ele>1173.6</ele>
        <time>2014-04-19T15:01:31.036Z</time>
      </trkpt>
      <trkpt lat="45.4063" lon="4.61838">
        <ele>1173.7</ele>
        <time>2014-04-19T15:01:31.934Z</time>
      </trkpt>
      <trkpt lat="45.40623" lon="4.6184">
        <ele>1174.3</ele>
        <time>2014-04-19T15:01:34.931Z</time>
      </trkpt>
      <trkpt lat="45.40621" lon="4.61841">
        <ele>1174.5</ele>
        <time>2014-04-19T15:01:35.944Z</time>
      </trkpt>
      <trkpt lat="45.40613" lon="4.61843">
        <ele>1175.3</ele>
        <time>2014-04-19T15:01:39.676Z</time>
      </trkpt>
      <trkpt lat="45.40612" lon="4.61844">
        <ele>1175.7</ele>
        <time>2014-04-19T15:01:39.916Z</time>
      </trkpt>
      <trkpt lat="45.40604" lon="4.61845">
        <ele>1177</ele>
        <time>2014-04-19T15:01:44.015Z</time>
      </trkpt>
      <trkpt lat="45.40602" lon="4.61845">
        <ele>1177.4</ele>
        <time>2014-04-19T15:01:44.906Z</time>
      </trkpt>
      <trkpt lat="45.40595" lon="4.61846">
        <ele>1178.5</ele>
        <time>2014-04-19T15:01:47.943Z</time>
      </trkpt>
      <trkpt lat="45.40592" lon="4.61847">
        <ele>1178.8</ele>
        <time>2014-04-19T15:01:48.965Z</time>
      </trkpt>
      <trkpt lat="45.40584" lon="4.61846">
        <ele>1179.6</ele>
        <time>2014-04-19T15:01:51.924Z</time>
      </trkpt>
      <trkpt lat="45.40581" lon="4.61846">
        <ele>1179.9</ele>
        <time>2014-04-19T15:01:52.923Z</time>
      </trkpt>
      <trkpt lat="45.40573" lon="4.61846">
        <ele>1180.7</ele>
        <time>2014-04-19T15:01:56.006Z</time>
      </trkpt>
      <trkpt lat="45.40571" lon="4.61846">
        <ele>1180.8</ele>
        <time>2014-04-19T15:01:56.910Z</time>
      </trkpt>
      <trkpt lat="45.40564" lon="4.61845">
        <ele>1181.4</ele>
        <time>2014-04-19T15:02:00.951Z</time>
      </trkpt>
      <trkpt lat="45.40562" lon="4.61844">
        <ele>1181.5</ele>
        <time>2014-04-19T15:02:01.890Z</time>
      </trkpt>
      <trkpt lat="45.40554" lon="4.61841">
        <ele>1181.8</ele>
        <time>2014-04-19T15:02:04.999Z</time>
      </trkpt>
      <trkpt lat="45.40552" lon="4.6184">
        <ele>1181.9</ele>
        <time>2014-04-19T15:02:05.938Z</time>
      </trkpt>
      <trkpt lat="45.40544" lon="4.61835">
        <ele>1182.1</ele>
        <time>2014-04-19T15:02:09.004Z</time>
      </trkpt>
      <trkpt lat="45.40541" lon="4.61835">
        <ele>1182.1</ele>
        <time>2014-04-19T15:02:09.942Z</time>
      </trkpt>
      <trkpt lat="45.40535" lon="4.61834">
        <ele>1182.4</ele>
        <time>2014-04-19T15:02:14.011Z</time>
      </trkpt>
      <trkpt lat="45.4053" lon="4.61833">
        <ele>1182.4</ele>
        <time>2014-04-19T15:02:14.939Z</time>
      </trkpt>
      <trkpt lat="45.40521" lon="4.61832">
        <ele>1182.2</ele>
        <time>2014-04-19T15:02:19.095Z</time>
      </trkpt>
      <trkpt lat="45.40519" lon="4.61832">
        <ele>1182.3</ele>
        <time>2014-04-19T15:02:19.933Z</time>
      </trkpt>
      <trkpt lat="45.40511" lon="4.61829">
        <ele>1182.5</ele>
        <time>2014-04-19T15:02:24.060Z</time>
      </trkpt>
      <trkpt lat="45.40509" lon="4.61829">
        <ele>1182.6</ele>
        <time>2014-04-19T15:02:24.928Z</time>
      </trkpt>
      <trkpt lat="45.40501" lon="4.6183">
        <ele>1183.1</ele>
        <time>2014-04-19T15:02:30.051Z</time>
      </trkpt>
      <trkpt lat="45.40499" lon="4.6183">
        <ele>1183.3</ele>
        <time>2014-04-19T15:02:31.041Z</time>
      </trkpt>
      <trkpt lat="45.40492" lon="4.61826">
        <ele>1184</ele>
        <time>2014-04-19T15:02:34.990Z</time>
      </trkpt>
      <trkpt lat="45.4049" lon="4.61825">
        <ele>1184.1</ele>
        <time>2014-04-19T15:02:35.944Z</time>
      </trkpt>
      <trkpt lat="45.40481" lon="4.61825">
        <ele>1184.6</ele>
        <time>2014-04-19T15:02:39.993Z</time>
      </trkpt>
      <trkpt lat="45.4048" lon="4.61825">
        <ele>1184.8</ele>
        <time>2014-04-19T15:02:40.933Z</time>
      </trkpt>
      <trkpt lat="45.40473" lon="4.61824">
        <ele>1185.5</ele>
        <time>2014-04-19T15:02:45.052Z</time>
      </trkpt>
      <trkpt lat="45.40471" lon="4.61823">
        <ele>1185.7</ele>
        <time>2014-04-19T15:02:45.950Z</time>
      </trkpt>
      <trkpt lat="45.40464" lon="4.6182">
        <ele>1186.3</ele>
        <time>2014-04-19T15:02:49.197Z</time>
      </trkpt>
      <trkpt lat="45.4046" lon="4.6182">
        <ele>1186.5</ele>
        <time>2014-04-19T15:02:49.943Z</time>
      </trkpt>
      <trkpt lat="45.40455" lon="4.61817">
        <ele>1186.7</ele>
        <time>2014-04-19T15:02:51.942Z</time>
      </trkpt>
      <trkpt lat="45.40452" lon="4.61816">
        <ele>1186.7</ele>
        <time>2014-04-19T15:02:53.008Z</time>
      </trkpt>
      <trkpt lat="45.40446" lon="4.61813">
        <ele>1186.8</ele>
        <time>2014-04-19T15:02:54.997Z</time>
      </trkpt>
      <trkpt lat="45.40443" lon="4.61812">
        <ele>1186.9</ele>
        <time>2014-04-19T15:02:55.921Z</time>
      </trkpt>
      <trkpt lat="45.40436" lon="4.6181">
        <ele>1186.9</ele>
        <time>2014-04-19T15:02:59.052Z</time>
      </trkpt>
      <trkpt lat="45.40433" lon="4.6181">
        <ele>1187</ele>
        <time>2014-04-19T15:02:59.920Z</time>
      </trkpt>
      <trkpt lat="45.40425" lon="4.6181">
        <ele>1187.3</ele>
        <time>2014-04-19T15:03:04.363Z</time>
      </trkpt>
      <trkpt lat="45.40424" lon="4.6181">
        <ele>1187.5</ele>
        <time>2014-04-19T15:03:04.886Z</time>
      </trkpt>
      <trkpt lat="45.40416" lon="4.61808">
        <ele>1189.3</ele>
        <time>2014-04-19T15:03:09.938Z</time>
      </trkpt>
      <trkpt lat="45.40413" lon="4.61807">
        <ele>1189.6</ele>
        <time>2014-04-19T15:03:10.933Z</time>
      </trkpt>
      <trkpt lat="45.40406" lon="4.61806">
        <ele>1190.3</ele>
        <time>2014-04-19T15:03:14.136Z</time>
      </trkpt>
      <trkpt lat="45.40402" lon="4.61805">
        <ele>1190.5</ele>
        <time>2014-04-19T15:03:14.937Z</time>
      </trkpt>
      <trkpt lat="45.40394" lon="4.61805">
        <ele>1191.2</ele>
        <time>2014-04-19T15:03:17.933Z</time>
      </trkpt>
      <trkpt lat="45.40392" lon="4.61805">
        <ele>1191.4</ele>
        <time>2014-04-19T15:03:18.941Z</time>
      </trkpt>
      <trkpt lat="45.40385" lon="4.61803">
        <ele>1191.8</ele>
        <time>2014-04-19T15:03:21.970Z</time>
      </trkpt>
      <trkpt lat="45.40383" lon="4.61803">
        <ele>1191.9</ele>
        <time>2014-04-19T15:03:22.931Z</time>
      </trkpt>
      <trkpt lat="45.40375" lon="4.61802">
        <ele>1192.2</ele>
        <time>2014-04-19T15:03:26.019Z</time>
      </trkpt>
      <trkpt lat="45.40372" lon="4.61802">
        <ele>1192.2</ele>
        <time>2014-04-19T15:03:26.927Z</time>
      </trkpt>
      <trkpt lat="45.40364" lon="4.61804">
        <ele>1192.4</ele>
        <time>2014-04-19T15:03:30.980Z</time>
      </trkpt>
      <trkpt lat="45.40362" lon="4.61803">
        <ele>1192.6</ele>
        <time>2014-04-19T15:03:31.934Z</time>
      </trkpt>
      <trkpt lat="45.40355" lon="4.61804">
        <ele>1193.1</ele>
        <time>2014-04-19T15:03:35.410Z</time>
      </trkpt>
      <trkpt lat="45.40352" lon="4.61805">
        <ele>1193.2</ele>
        <time>2014-04-19T15:03:35.892Z</time>
      </trkpt>
      <trkpt lat="45.40344" lon="4.61806">
        <ele>1194.1</ele>
        <time>2014-04-19T15:03:39.959Z</time>
      </trkpt>
      <trkpt lat="45.40342" lon="4.61806">
        <ele>1194.4</ele>
        <time>2014-04-19T15:03:40.924Z</time>
      </trkpt>
      <trkpt lat="45.40333" lon="4.61805">
        <ele>1195.3</ele>
        <time>2014-04-19T15:03:45.148Z</time>
      </trkpt>
      <trkpt lat="45.40332" lon="4.61805">
        <ele>1195.5</ele>
        <time>2014-04-19T15:03:45.938Z</time>
      </trkpt>
      <trkpt lat="45.40324" lon="4.61806">
        <ele>1195.7</ele>
        <time>2014-04-19T15:03:48.917Z</time>
      </trkpt>
      <trkpt lat="45.40322" lon="4.61807">
        <ele>1195.8</ele>
        <time>2014-04-19T15:03:49.926Z</time>
      </trkpt>
      <trkpt lat="45.40314" lon="4.61806">
        <ele>1196.2</ele>
        <time>2014-04-19T15:03:53.982Z</time>
      </trkpt>
      <trkpt lat="45.40312" lon="4.61806">
        <ele>1196.4</ele>
        <time>2014-04-19T15:03:54.922Z</time>
      </trkpt>
      <trkpt lat="45.40305" lon="4.61806">
        <ele>1197.1</ele>
        <time>2014-04-19T15:03:59.000Z</time>
      </trkpt>
      <trkpt lat="45.40302" lon="4.61806">
        <ele>1197.4</ele>
        <time>2014-04-19T15:03:59.939Z</time>
      </trkpt>
      <trkpt lat="45.40295" lon="4.61806">
        <ele>1198.3</ele>
        <time>2014-04-19T15:04:03.806Z</time>
      </trkpt>
      <trkpt lat="45.40293" lon="4.61808">
        <ele>1198.7</ele>
        <time>2014-04-19T15:04:03.932Z</time>
      </trkpt>
      <trkpt lat="45.40286" lon="4.61812">
        <ele>1200.4</ele>
        <time>2014-04-19T15:04:08.982Z</time>
      </trkpt>
      <trkpt lat="45.40282" lon="4.61813">
        <ele>1201.3</ele>
        <time>2014-04-19T15:04:09.887Z</time>
      </trkpt>
      <trkpt lat="45.40276" lon="4.61819">
        <ele>1203</ele>
        <time>2014-04-19T15:04:14.058Z</time>
      </trkpt>
      <trkpt lat="45.40274" lon="4.6182">
        <ele>1203.4</ele>
        <time>2014-04-19T15:04:14.912Z</time>
      </trkpt>
      <trkpt lat="45.40267" lon="4.61827">
        <ele>1204.7</ele>
        <time>2014-04-19T15:04:19.128Z</time>
      </trkpt>
      <trkpt lat="45.40266" lon="4.61828">
        <ele>1205</ele>
        <time>2014-04-19T15:04:19.945Z</time>
      </trkpt>
      <trkpt lat="45.40259" lon="4.61834">
        <ele>1206.3</ele>
        <time>2014-04-19T15:04:24.151Z</time>
      </trkpt>
      <trkpt lat="45.40257" lon="4.61836">
        <ele>1206.6</ele>
        <time>2014-04-19T15:04:24.940Z</time>
      </trkpt>
      <trkpt lat="45.40251" lon="4.61844">
        <ele>1207.4</ele>
        <time>2014-04-19T15:04:27.950Z</time>
      </trkpt>
      <trkpt lat="45.40249" lon="4.61847">
        <ele>1207.6</ele>
        <time>2014-04-19T15:04:28.935Z</time>
      </trkpt>
      <trkpt lat="45.40242" lon="4.61855">
        <ele>1208.2</ele>
        <time>2014-04-19T15:04:32.378Z</time>
      </trkpt>
      <trkpt lat="45.4024" lon="4.61858">
        <ele>1208.3</ele>
        <time>2014-04-19T15:04:32.917Z</time>
      </trkpt>
      <trkpt lat="45.40234" lon="4.61865">
        <ele>1208.4</ele>
        <time>2014-04-19T15:04:34.947Z</time>
      </trkpt>
      <trkpt lat="45.40232" lon="4.61869">
        <ele>1208.4</ele>
        <time>2014-04-19T15:04:35.927Z</time>
      </trkpt>
      <trkpt lat="45.40226" lon="4.61878">
        <ele>1208.4</ele>
        <time>2014-04-19T15:04:39.236Z</time>
      </trkpt>
      <trkpt lat="45.40225" lon="4.6188">
        <ele>1208.5</ele>
        <time>2014-04-19T15:04:39.939Z</time>
      </trkpt>
      <trkpt lat="45.40219" lon="4.61886">
        <ele>1208.8</ele>
        <time>2014-04-19T15:04:44.254Z</time>
      </trkpt>
      <trkpt lat="45.40217" lon="4.61889">
        <ele>1208.9</ele>
        <time>2014-04-19T15:04:44.941Z</time>
      </trkpt>
      <trkpt lat="45.40211" lon="4.61896">
        <ele>1209.1</ele>
        <time>2014-04-19T15:04:49.001Z</time>
      </trkpt>
      <trkpt lat="45.4021" lon="4.61899">
        <ele>1209.3</ele>
        <time>2014-04-19T15:04:49.886Z</time>
      </trkpt>
      <trkpt lat="45.40205" lon="4.61909">
        <ele>1209.8</ele>
        <time>2014-04-19T15:04:53.925Z</time>
      </trkpt>
      <trkpt lat="45.40204" lon="4.61912">
        <ele>1210</ele>
        <time>2014-04-19T15:04:54.903Z</time>
      </trkpt>
      <trkpt lat="45.40199" lon="4.61921">
        <ele>1210.4</ele>
        <time>2014-04-19T15:04:58.028Z</time>
      </trkpt>
      <trkpt lat="45.40197" lon="4.61924">
        <ele>1210.5</ele>
        <time>2014-04-19T15:04:58.960Z</time>
      </trkpt>
      <trkpt lat="45.40192" lon="4.61933">
        <ele>1210.7</ele>
        <time>2014-04-19T15:05:01.973Z</time>
      </trkpt>
      <trkpt lat="45.4019" lon="4.61935">
        <ele>1210.8</ele>
        <time>2014-04-19T15:05:02.886Z</time>
      </trkpt>
      <trkpt lat="45.40184" lon="4.61942">
        <ele>1211</ele>
        <time>2014-04-19T15:05:06.023Z</time>
      </trkpt>
      <trkpt lat="45.40183" lon="4.61945">
        <ele>1211.1</ele>
        <time>2014-04-19T15:05:06.957Z</time>
      </trkpt>
      <trkpt lat="45.40177" lon="4.61953">
        <ele>1211.4</ele>
        <time>2014-04-19T15:05:09.986Z</time>
      </trkpt>
      <trkpt lat="45.40176" lon="4.61956">
        <ele>1211.5</ele>
        <time>2014-04-19T15:05:10.970Z</time>
      </trkpt>
      <trkpt lat="45.4017" lon="4.61963">
        <ele>1211.8</ele>
        <time>2014-04-19T15:05:14.164Z</time>
      </trkpt>
      <trkpt lat="45.40168" lon="4.61966">
        <ele>1211.8</ele>
        <time>2014-04-19T15:05:14.882Z</time>
      </trkpt>
      <trkpt lat="45.40163" lon="4.61972">
        <ele>1211.7</ele>
        <time>2014-04-19T15:05:16.968Z</time>
      </trkpt>
      <trkpt lat="45.4016" lon="4.61974">
        <ele>1211.6</ele>
        <time>2014-04-19T15:05:17.914Z</time>
      </trkpt>
      <trkpt lat="45.40153" lon="4.61979">
        <ele>1211.7</ele>
        <time>2014-04-19T15:05:21.177Z</time>
      </trkpt>
      <trkpt lat="45.40151" lon="4.61981">
        <ele>1211.7</ele>
        <time>2014-04-19T15:05:21.884Z</time>
      </trkpt>
      <trkpt lat="45.40144" lon="4.61989">
        <ele>1211.9</ele>
        <time>2014-04-19T15:05:24.956Z</time>
      </trkpt>
      <trkpt lat="45.40143" lon="4.61991">
        <ele>1212</ele>
        <time>2014-04-19T15:05:25.952Z</time>
      </trkpt>
      <trkpt lat="45.40136" lon="4.61999">
        <ele>1212.4</ele>
        <time>2014-04-19T15:05:30.031Z</time>
      </trkpt>
      <trkpt lat="45.40134" lon="4.62001">
        <ele>1212.6</ele>
        <time>2014-04-19T15:05:30.929Z</time>
      </trkpt>
      <trkpt lat="45.40126" lon="4.62008">
        <ele>1213.2</ele>
        <time>2014-04-19T15:05:36.012Z</time>
      </trkpt>
      <trkpt lat="45.40125" lon="4.62009">
        <ele>1213.4</ele>
        <time>2014-04-19T15:05:36.943Z</time>
      </trkpt>
      <trkpt lat="45.40119" lon="4.62014">
        <ele>1213.9</ele>
        <time>2014-04-19T15:05:40.006Z</time>
      </trkpt>
      <trkpt lat="45.40117" lon="4.62016">
        <ele>1214</ele>
        <time>2014-04-19T15:05:40.966Z</time>
      </trkpt>
      <trkpt lat="45.40109" lon="4.62019">
        <ele>1215.1</ele>
        <time>2014-04-19T15:05:46.102Z</time>
      </trkpt>
      <trkpt lat="45.40107" lon="4.6202">
        <ele>1215.3</ele>
        <time>2014-04-19T15:05:46.957Z</time>
      </trkpt>
      <trkpt lat="45.40099" lon="4.62018">
        <ele>1216.3</ele>
        <time>2014-04-19T15:05:52.181Z</time>
      </trkpt>
      <trkpt lat="45.40097" lon="4.62018">
        <ele>1216.5</ele>
        <time>2014-04-19T15:05:52.945Z</time>
      </trkpt>
      <trkpt lat="45.40089" lon="4.62013">
        <ele>1217.2</ele>
        <time>2014-04-19T15:05:56.999Z</time>
      </trkpt>
      <trkpt lat="45.40087" lon="4.62011">
        <ele>1217.3</ele>
        <time>2014-04-19T15:05:57.954Z</time>
      </trkpt>
      <trkpt lat="45.40081" lon="4.62005">
        <ele>1218</ele>
        <time>2014-04-19T15:06:01.962Z</time>
      </trkpt>
      <trkpt lat="45.40079" lon="4.62003">
        <ele>1218.1</ele>
        <time>2014-04-19T15:06:02.930Z</time>
      </trkpt>
      <trkpt lat="45.40073" lon="4.61996">
        <ele>1218.6</ele>
        <time>2014-04-19T15:06:07.018Z</time>
      </trkpt>
      <trkpt lat="45.40071" lon="4.61994">
        <ele>1218.7</ele>
        <time>2014-04-19T15:06:07.945Z</time>
      </trkpt>
      <trkpt lat="45.40065" lon="4.61987">
        <ele>1219.1</ele>
        <time>2014-04-19T15:06:12.151Z</time>
      </trkpt>
      <trkpt lat="45.40063" lon="4.61986">
        <ele>1219.2</ele>
        <time>2014-04-19T15:06:12.939Z</time>
      </trkpt>
      <trkpt lat="45.40056" lon="4.61981">
        <ele>1219.5</ele>
        <time>2014-04-19T15:06:17.022Z</time>
      </trkpt>
      <trkpt lat="45.40054" lon="4.6198">
        <ele>1219.6</ele>
        <time>2014-04-19T15:06:17.950Z</time>
      </trkpt>
      <trkpt lat="45.40047" lon="4.61975">
        <ele>1220.1</ele>
        <time>2014-04-19T15:06:22.035Z</time>
      </trkpt>
      <trkpt lat="45.40046" lon="4.61974">
        <ele>1220.3</ele>
        <time>2014-04-19T15:06:22.913Z</time>
      </trkpt>
      <trkpt lat="45.40039" lon="4.6197">
        <ele>1220.9</ele>
        <time>2014-04-19T15:06:26.950Z</time>
      </trkpt>
      <trkpt lat="45.40037" lon="4.61969">
        <ele>1221.1</ele>
        <time>2014-04-19T15:06:27.901Z</time>
      </trkpt>
      <trkpt lat="45.40029" lon="4.61965">
        <ele>1221.6</ele>
        <time>2014-04-19T15:06:30.927Z</time>
      </trkpt>
      <trkpt lat="45.40027" lon="4.61963">
        <ele>1221.8</ele>
        <time>2014-04-19T15:06:31.944Z</time>
      </trkpt>
      <trkpt lat="45.40019" lon="4.61957">
        <ele>1222.4</ele>
        <time>2014-04-19T15:06:35.958Z</time>
      </trkpt>
      <trkpt lat="45.40018" lon="4.61956">
        <ele>1222.6</ele>
        <time>2014-04-19T15:06:36.890Z</time>
      </trkpt>
      <trkpt lat="45.40011" lon="4.6195">
        <ele>1223.3</ele>
        <time>2014-04-19T15:06:41.946Z</time>
      </trkpt>
      <trkpt lat="45.4001" lon="4.61948">
        <ele>1223.5</ele>
        <time>2014-04-19T15:06:42.938Z</time>
      </trkpt>
      <trkpt lat="45.40004" lon="4.61941">
        <ele>1224</ele>
        <time>2014-04-19T15:06:46.993Z</time>
      </trkpt>
      <trkpt lat="45.40003" lon="4.6194">
        <ele>1224.2</ele>
        <time>2014-04-19T15:06:47.926Z</time>
      </trkpt>
      <trkpt lat="45.39997" lon="4.61932">
        <ele>1224.6</ele>
        <time>2014-04-19T15:06:51.999Z</time>
      </trkpt>
      <trkpt lat="45.39995" lon="4.6193">
        <ele>1224.7</ele>
        <time>2014-04-19T15:06:53.032Z</time>
      </trkpt>
      <trkpt lat="45.39991" lon="4.61923">
        <ele>1225</ele>
        <time>2014-04-19T15:06:55.978Z</time>
      </trkpt>
      <trkpt lat="45.39989" lon="4.6192">
        <ele>1225.1</ele>
        <time>2014-04-19T15:06:56.926Z</time>
      </trkpt>
      <trkpt lat="45.39986" lon="4.61911">
        <ele>1225.2</ele>
        <time>2014-04-19T15:07:00.068Z</time>
      </trkpt>
      <trkpt lat="45.39984" lon="4.61908">
        <ele>1225.3</ele>
        <time>2014-04-19T15:07:00.933Z</time>
      </trkpt>
      <trkpt lat="45.39981" lon="4.61896">
        <ele>1225.7</ele>
        <time>2014-04-19T15:07:05.935Z</time>
      </trkpt>
      <trkpt lat="45.3998" lon="4.61893">
        <ele>1225.8</ele>
        <time>2014-04-19T15:07:06.953Z</time>
      </trkpt>
      <trkpt lat="45.39975" lon="4.61883">
        <ele>1226</ele>
        <time>2014-04-19T15:07:10.983Z</time>
      </trkpt>
      <trkpt lat="45.39974" lon="4.6188">
        <ele>1226.1</ele>
        <time>2014-04-19T15:07:11.942Z</time>
      </trkpt>
      <trkpt lat="45.39969" lon="4.6187">
        <ele>1226.7</ele>
        <time>2014-04-19T15:07:16.968Z</time>
      </trkpt>
      <trkpt lat="45.39968" lon="4.61867">
        <ele>1226.9</ele>
        <time>2014-04-19T15:07:17.933Z</time>
      </trkpt>
      <trkpt lat="45.39964" lon="4.61856">
        <ele>1227.6</ele>
        <time>2014-04-19T15:07:22.948Z</time>
      </trkpt>
      <trkpt lat="45.39963" lon="4.61854">
        <ele>1227.8</ele>
        <time>2014-04-19T15:07:23.936Z</time>
      </trkpt>
      <trkpt lat="45.3996" lon="4.61844">
        <ele>1228.6</ele>
        <time>2014-04-19T15:07:29.178Z</time>
      </trkpt>
      <trkpt lat="45.3996" lon="4.61842">
        <ele>1228.8</ele>
        <time>2014-04-19T15:07:29.888Z</time>
      </trkpt>
      <trkpt lat="45.39954" lon="4.61833">
        <ele>1229.8</ele>
        <time>2014-04-19T15:07:34.997Z</time>
      </trkpt>
      <trkpt lat="45.39953" lon="4.61831">
        <ele>1230</ele>
        <time>2014-04-19T15:07:35.912Z</time>
      </trkpt>
      <trkpt lat="45.39948" lon="4.61823">
        <ele>1230.7</ele>
        <time>2014-04-19T15:07:39.942Z</time>
      </trkpt>
      <trkpt lat="45.39947" lon="4.61821">
        <ele>1230.9</ele>
        <time>2014-04-19T15:07:40.937Z</time>
      </trkpt>
      <trkpt lat="45.39941" lon="4.61813">
        <ele>1231.8</ele>
        <time>2014-04-19T15:07:44.951Z</time>
      </trkpt>
      <trkpt lat="45.39941" lon="4.6181">
        <ele>1232</ele>
        <time>2014-04-19T15:07:45.944Z</time>
      </trkpt>
      <trkpt lat="45.39936" lon="4.618">
        <ele>1233</ele>
        <time>2014-04-19T15:07:49.955Z</time>
      </trkpt>
      <trkpt lat="45.39935" lon="4.61798">
        <ele>1233.2</ele>
        <time>2014-04-19T15:07:50.947Z</time>
      </trkpt>
      <trkpt lat="45.3993" lon="4.6179">
        <ele>1233.9</ele>
        <time>2014-04-19T15:07:54.936Z</time>
      </trkpt>
      <trkpt lat="45.39929" lon="4.61787">
        <ele>1234</ele>
        <time>2014-04-19T15:07:55.943Z</time>
      </trkpt>
      <trkpt lat="45.39924" lon="4.61778">
        <ele>1234.6</ele>
        <time>2014-04-19T15:08:00.158Z</time>
      </trkpt>
      <trkpt lat="45.39923" lon="4.61776">
        <ele>1234.8</ele>
        <time>2014-04-19T15:08:00.915Z</time>
      </trkpt>
      <trkpt lat="45.39919" lon="4.61768">
        <ele>1235.4</ele>
        <time>2014-04-19T15:08:05.085Z</time>
      </trkpt>
      <trkpt lat="45.39918" lon="4.61766">
        <ele>1235.6</ele>
        <time>2014-04-19T15:08:05.925Z</time>
      </trkpt>
      <trkpt lat="45.39914" lon="4.61754">
        <ele>1236.3</ele>
        <time>2014-04-19T15:08:10.173Z</time>
      </trkpt>
      <trkpt lat="45.39913" lon="4.61752">
        <ele>1236.5</ele>
        <time>2014-04-19T15:08:10.931Z</time>
      </trkpt>
      <trkpt lat="45.39907" lon="4.61745">
        <ele>1237.4</ele>
        <time>2014-04-19T15:08:15.005Z</time>
      </trkpt>
      <trkpt lat="45.39906" lon="4.61744">
        <ele>1237.6</ele>
        <time>2014-04-19T15:08:16.043Z</time>
      </trkpt>
      <trkpt lat="45.39901" lon="4.61736">
        <ele>1238.5</ele>
        <time>2014-04-19T15:08:19.950Z</time>
      </trkpt>
      <trkpt lat="45.39899" lon="4.61734">
        <ele>1238.7</ele>
        <time>2014-04-19T15:08:20.961Z</time>
      </trkpt>
      <trkpt lat="45.39893" lon="4.61728">
        <ele>1239.5</ele>
        <time>2014-04-19T15:08:25.019Z</time>
      </trkpt>
      <trkpt lat="45.39891" lon="4.61726">
        <ele>1239.7</ele>
        <time>2014-04-19T15:08:26.071Z</time>
      </trkpt>
      <trkpt lat="45.39885" lon="4.6172">
        <ele>1240.4</ele>
        <time>2014-04-19T15:08:29.922Z</time>
      </trkpt>
      <trkpt lat="45.39884" lon="4.61718">
        <ele>1240.6</ele>
        <time>2014-04-19T15:08:30.925Z</time>
      </trkpt>
      <trkpt lat="45.39878" lon="4.61711">
        <ele>1241.4</ele>
        <time>2014-04-19T15:08:36.097Z</time>
      </trkpt>
      <trkpt lat="45.39877" lon="4.61709">
        <ele>1241.6</ele>
        <time>2014-04-19T15:08:36.915Z</time>
      </trkpt>
      <trkpt lat="45.39871" lon="4.61702">
        <ele>1242.2</ele>
        <time>2014-04-19T15:08:41.021Z</time>
      </trkpt>
      <trkpt lat="45.39869" lon="4.617">
        <ele>1242.3</ele>
        <time>2014-04-19T15:08:41.936Z</time>
      </trkpt>
      <trkpt lat="45.39863" lon="4.61691">
        <ele>1242.9</ele>
        <time>2014-04-19T15:08:47.002Z</time>
      </trkpt>
      <trkpt lat="45.39861" lon="4.61689">
        <ele>1243</ele>
        <time>2014-04-19T15:08:47.894Z</time>
      </trkpt>
      <trkpt lat="45.39856" lon="4.61682">
        <ele>1243.3</ele>
        <time>2014-04-19T15:08:50.966Z</time>
      </trkpt>
      <trkpt lat="45.39854" lon="4.61679">
        <ele>1243.4</ele>
        <time>2014-04-19T15:08:51.939Z</time>
      </trkpt>
      <trkpt lat="45.3985" lon="4.61673">
        <ele>1243.5</ele>
        <time>2014-04-19T15:08:53.946Z</time>
      </trkpt>
      <trkpt lat="45.39848" lon="4.6167">
        <ele>1243.6</ele>
        <time>2014-04-19T15:08:55.007Z</time>
      </trkpt>
      <trkpt lat="45.39842" lon="4.61662">
        <ele>1243.7</ele>
        <time>2014-04-19T15:08:58.126Z</time>
      </trkpt>
      <trkpt lat="45.3984" lon="4.6166">
        <ele>1243.8</ele>
        <time>2014-04-19T15:08:58.905Z</time>
      </trkpt>
      <trkpt lat="45.39835" lon="4.61652">
        <ele>1244.2</ele>
        <time>2014-04-19T15:09:02.954Z</time>
      </trkpt>
      <trkpt lat="45.39833" lon="4.6165">
        <ele>1244.4</ele>
        <time>2014-04-19T15:09:04.042Z</time>
      </trkpt>
      <trkpt lat="45.39828" lon="4.61643">
        <ele>1244.9</ele>
        <time>2014-04-19T15:09:07.021Z</time>
      </trkpt>
      <trkpt lat="45.39826" lon="4.6164">
        <ele>1245</ele>
        <time>2014-04-19T15:09:07.935Z</time>
      </trkpt>
      <trkpt lat="45.39822" lon="4.61632">
        <ele>1245.5</ele>
        <time>2014-04-19T15:09:11.069Z</time>
      </trkpt>
      <trkpt lat="45.3982" lon="4.6163">
        <ele>1245.7</ele>
        <time>2014-04-19T15:09:11.926Z</time>
      </trkpt>
      <trkpt lat="45.39814" lon="4.61622">
        <ele>1246.7</ele>
        <time>2014-04-19T15:09:16.028Z</time>
      </trkpt>
      <trkpt lat="45.39811" lon="4.6162">
        <ele>1246.9</ele>
        <time>2014-04-19T15:09:16.946Z</time>
      </trkpt>
      <trkpt lat="45.39804" lon="4.61614">
        <ele>1247.9</ele>
        <time>2014-04-19T15:09:21.189Z</time>
      </trkpt>
      <trkpt lat="45.39802" lon="4.61613">
        <ele>1248.1</ele>
        <time>2014-04-19T15:09:21.909Z</time>
      </trkpt>
      <trkpt lat="45.39795" lon="4.61608">
        <ele>1248.7</ele>
        <time>2014-04-19T15:09:24.957Z</time>
      </trkpt>
      <trkpt lat="45.39793" lon="4.61607">
        <ele>1249</ele>
        <time>2014-04-19T15:09:25.937Z</time>
      </trkpt>
      <trkpt lat="45.39785" lon="4.61601">
        <ele>1250.1</ele>
        <time>2014-04-19T15:09:30.002Z</time>
      </trkpt>
      <trkpt lat="45.39782" lon="4.616">
        <ele>1250.4</ele>
        <time>2014-04-19T15:09:30.932Z</time>
      </trkpt>
      <trkpt lat="45.39775" lon="4.61597">
        <ele>1251.3</ele>
        <time>2014-04-19T15:09:34.286Z</time>
      </trkpt>
      <trkpt lat="45.39774" lon="4.61596">
        <ele>1251.6</ele>
        <time>2014-04-19T15:09:34.893Z</time>
      </trkpt>
      <trkpt lat="45.39767" lon="4.61593">
        <ele>1252.7</ele>
        <time>2014-04-19T15:09:38.131Z</time>
      </trkpt>
      <trkpt lat="45.39765" lon="4.61592">
        <ele>1253.1</ele>
        <time>2014-04-19T15:09:38.918Z</time>
      </trkpt>
      <trkpt lat="45.39757" lon="4.61588">
        <ele>1254</ele>
        <time>2014-04-19T15:09:41.900Z</time>
      </trkpt>
      <trkpt lat="45.39755" lon="4.61586">
        <ele>1254.3</ele>
        <time>2014-04-19T15:09:42.918Z</time>
      </trkpt>
      <trkpt lat="45.39748" lon="4.61583">
        <ele>1255</ele>
        <time>2014-04-19T15:09:45.984Z</time>
      </trkpt>
      <trkpt lat="45.39746" lon="4.61582">
        <ele>1255.3</ele>
        <time>2014-04-19T15:09:46.893Z</time>
      </trkpt>
      <trkpt lat="45.39739" lon="4.6158">
        <ele>1255.8</ele>
        <time>2014-04-19T15:09:49.334Z</time>
      </trkpt>
      <trkpt lat="45.39735" lon="4.61578">
        <ele>1256</ele>
        <time>2014-04-19T15:09:49.879Z</time>
      </trkpt>
      <trkpt lat="45.39728" lon="4.61577">
        <ele>1256.6</ele>
        <time>2014-04-19T15:09:52.009Z</time>
      </trkpt>
      <trkpt lat="45.39725" lon="4.61575">
        <ele>1256.8</ele>
        <time>2014-04-19T15:09:52.926Z</time>
      </trkpt>
      <trkpt lat="45.39718" lon="4.6157">
        <ele>1257.8</ele>
        <time>2014-04-19T15:09:56.070Z</time>
      </trkpt>
      <trkpt lat="45.39716" lon="4.61569">
        <ele>1258.2</ele>
        <time>2014-04-19T15:09:56.929Z</time>
      </trkpt>
      <trkpt lat="45.39708" lon="4.61566">
        <ele>1259.3</ele>
        <time>2014-04-19T15:10:00.346Z</time>
      </trkpt>
      <trkpt lat="45.39706" lon="4.61565">
        <ele>1259.7</ele>
        <time>2014-04-19T15:10:00.929Z</time>
      </trkpt>
      <trkpt lat="45.39697" lon="4.61564">
        <ele>1261.4</ele>
        <time>2014-04-19T15:10:05.996Z</time>
      </trkpt>
      <trkpt lat="45.39696" lon="4.61563">
        <ele>1261.7</ele>
        <time>2014-04-19T15:10:06.923Z</time>
      </trkpt>
      <trkpt lat="45.39689" lon="4.6156">
        <ele>1263</ele>
        <time>2014-04-19T15:10:10.992Z</time>
      </trkpt>
      <trkpt lat="45.39686" lon="4.61559">
        <ele>1263.2</ele>
        <time>2014-04-19T15:10:11.931Z</time>
      </trkpt>
      <trkpt lat="45.39678" lon="4.61557">
        <ele>1263.7</ele>
        <time>2014-04-19T15:10:14.039Z</time>
      </trkpt>
      <trkpt lat="45.39674" lon="4.61556">
        <ele>1263.8</ele>
        <time>2014-04-19T15:10:14.939Z</time>
      </trkpt>
      <trkpt lat="45.39667" lon="4.61554">
        <ele>1264.1</ele>
        <time>2014-04-19T15:10:16.976Z</time>
      </trkpt>
      <trkpt lat="45.39664" lon="4.61552">
        <ele>1264.3</ele>
        <time>2014-04-19T15:10:17.895Z</time>
      </trkpt>
      <trkpt lat="45.39657" lon="4.6155">
        <ele>1264.8</ele>
        <time>2014-04-19T15:10:20.002Z</time>
      </trkpt>
      <trkpt lat="45.39654" lon="4.61548">
        <ele>1265</ele>
        <time>2014-04-19T15:10:20.935Z</time>
      </trkpt>
      <trkpt lat="45.39647" lon="4.61545">
        <ele>1265.6</ele>
        <time>2014-04-19T15:10:22.935Z</time>
      </trkpt>
      <trkpt lat="45.39644" lon="4.61544">
        <ele>1265.8</ele>
        <time>2014-04-19T15:10:23.927Z</time>
      </trkpt>
      <trkpt lat="45.39638" lon="4.61541">
        <ele>1266.4</ele>
        <time>2014-04-19T15:10:26.253Z</time>
      </trkpt>
      <trkpt lat="45.39635" lon="4.6154">
        <ele>1266.6</ele>
        <time>2014-04-19T15:10:26.941Z</time>
      </trkpt>
      <trkpt lat="45.39629" lon="4.61538">
        <ele>1267.1</ele>
        <time>2014-04-19T15:10:29.124Z</time>
      </trkpt>
      <trkpt lat="45.39625" lon="4.61537">
        <ele>1267.2</ele>
        <time>2014-04-19T15:10:29.965Z</time>
      </trkpt>
      <trkpt lat="45.39619" lon="4.61534">
        <ele>1267.5</ele>
        <time>2014-04-19T15:10:32.014Z</time>
      </trkpt>
      <trkpt lat="45.39615" lon="4.61533">
        <ele>1267.7</ele>
        <time>2014-04-19T15:10:32.899Z</time>
      </trkpt>
      <trkpt lat="45.39608" lon="4.61531">
        <ele>1267.9</ele>
        <time>2014-04-19T15:10:35.014Z</time>
      </trkpt>
      <trkpt lat="45.39605" lon="4.6153">
        <ele>1268</ele>
        <time>2014-04-19T15:10:35.952Z</time>
      </trkpt>
      <trkpt lat="45.39597" lon="4.61529">
        <ele>1268.1</ele>
        <time>2014-04-19T15:10:37.941Z</time>
      </trkpt>
      <trkpt lat="45.39594" lon="4.61529">
        <ele>1268.1</ele>
        <time>2014-04-19T15:10:38.949Z</time>
      </trkpt>
      <trkpt lat="45.39585" lon="4.61529">
        <ele>1268.2</ele>
        <time>2014-04-19T15:10:41.498Z</time>
      </trkpt>
      <trkpt lat="45.39581" lon="4.61529">
        <ele>1268.3</ele>
        <time>2014-04-19T15:10:41.951Z</time>
      </trkpt>
      <trkpt lat="45.39573" lon="4.61528">
        <ele>1268.4</ele>
        <time>2014-04-19T15:10:44.066Z</time>
      </trkpt>
      <trkpt lat="45.39569" lon="4.61527">
        <ele>1268.4</ele>
        <time>2014-04-19T15:10:44.962Z</time>
      </trkpt>
      <trkpt lat="45.39561" lon="4.61526">
        <ele>1268.5</ele>
        <time>2014-04-19T15:10:47.007Z</time>
      </trkpt>
      <trkpt lat="45.39557" lon="4.61526">
        <ele>1268.6</ele>
        <time>2014-04-19T15:10:48.016Z</time>
      </trkpt>
      <trkpt lat="45.39549" lon="4.61526">
        <ele>1268.7</ele>
        <time>2014-04-19T15:10:50.073Z</time>
      </trkpt>
      <trkpt lat="45.39545" lon="4.61527">
        <ele>1268.7</ele>
        <time>2014-04-19T15:10:50.962Z</time>
      </trkpt>
      <trkpt lat="45.39536" lon="4.61528">
        <ele>1268.7</ele>
        <time>2014-04-19T15:10:52.961Z</time>
      </trkpt>
      <trkpt lat="45.39532" lon="4.61528">
        <ele>1268.8</ele>
        <time>2014-04-19T15:10:53.917Z</time>
      </trkpt>
      <trkpt lat="45.39524" lon="4.61529">
        <ele>1269.5</ele>
        <time>2014-04-19T15:10:56.090Z</time>
      </trkpt>
      <trkpt lat="45.39519" lon="4.61529">
        <ele>1270.4</ele>
        <time>2014-04-19T15:10:56.948Z</time>
      </trkpt>
      <trkpt lat="45.39514" lon="4.61529">
        <ele>1271.2</ele>
        <time>2014-04-19T15:10:58.439Z</time>
      </trkpt>
      <trkpt lat="45.39509" lon="4.61529">
        <ele>1271.2</ele>
        <time>2014-04-19T15:10:58.913Z</time>
      </trkpt>
      <trkpt lat="45.39504" lon="4.61528">
        <ele>1271.4</ele>
        <time>2014-04-19T15:11:00.107Z</time>
      </trkpt>
      <trkpt lat="45.39499" lon="4.61528">
        <ele>1271.9</ele>
        <time>2014-04-19T15:11:00.937Z</time>
      </trkpt>
      <trkpt lat="45.39494" lon="4.61527">
        <ele>1272.5</ele>
        <time>2014-04-19T15:11:02.034Z</time>
      </trkpt>
      <trkpt lat="45.39489" lon="4.61527">
        <ele>1272.5</ele>
        <time>2014-04-19T15:11:02.946Z</time>
      </trkpt>
      <trkpt lat="45.39481" lon="4.61528">
        <ele>1272.8</ele>
        <time>2014-04-19T15:11:05.047Z</time>
      </trkpt>
      <trkpt lat="45.39477" lon="4.61528">
        <ele>1272.9</ele>
        <time>2014-04-19T15:11:05.930Z</time>
      </trkpt>
      <trkpt lat="45.3947" lon="4.61528">
        <ele>1273.1</ele>
        <time>2014-04-19T15:11:08.020Z</time>
      </trkpt>
      <trkpt lat="45.39466" lon="4.61529">
        <ele>1273.2</ele>
        <time>2014-04-19T15:11:08.995Z</time>
      </trkpt>
      <trkpt lat="45.39459" lon="4.61529">
        <ele>1273.3</ele>
        <time>2014-04-19T15:11:10.954Z</time>
      </trkpt>
      <trkpt lat="45.39455" lon="4.61529">
        <ele>1273.3</ele>
        <time>2014-04-19T15:11:11.941Z</time>
      </trkpt>
      <trkpt lat="45.39448" lon="4.6153">
        <ele>1273.4</ele>
        <time>2014-04-19T15:11:14.102Z</time>
      </trkpt>
      <trkpt lat="45.39444" lon="4.6153">
        <ele>1273.8</ele>
        <time>2014-04-19T15:11:14.957Z</time>
      </trkpt>
      <trkpt lat="45.39437" lon="4.61531">
        <ele>1273.8</ele>
        <time>2014-04-19T15:11:16.968Z</time>
      </trkpt>
      <trkpt lat="45.39433" lon="4.61533">
        <ele>1274.8</ele>
        <time>2014-04-19T15:11:17.999Z</time>
      </trkpt>
      <trkpt lat="45.39428" lon="4.61533">
        <ele>1275.2</ele>
        <time>2014-04-19T15:11:19.040Z</time>
      </trkpt>
      <trkpt lat="45.39424" lon="4.61534">
        <ele>1276</ele>
        <time>2014-04-19T15:11:19.926Z</time>
      </trkpt>
      <trkpt lat="45.39419" lon="4.61535">
        <ele>1276.2</ele>
        <time>2014-04-19T15:11:20.989Z</time>
      </trkpt>
      <trkpt lat="45.39414" lon="4.61537">
        <ele>1276.2</ele>
        <time>2014-04-19T15:11:21.942Z</time>
      </trkpt>
      <trkpt lat="45.39409" lon="4.61539">
        <ele>1276.3</ele>
        <time>2014-04-19T15:11:23.064Z</time>
      </trkpt>
      <trkpt lat="45.39404" lon="4.6154">
        <ele>1276.5</ele>
        <time>2014-04-19T15:11:23.980Z</time>
      </trkpt>
      <trkpt lat="45.39399" lon="4.61542">
        <ele>1276.5</ele>
        <time>2014-04-19T15:11:25.019Z</time>
      </trkpt>
      <trkpt lat="45.39395" lon="4.61543">
        <ele>1276.5</ele>
        <time>2014-04-19T15:11:25.949Z</time>
      </trkpt>
      <trkpt lat="45.39387" lon="4.61546">
        <ele>1276.5</ele>
        <time>2014-04-19T15:11:28.270Z</time>
      </trkpt>
      <trkpt lat="45.39383" lon="4.61547">
        <ele>1276.3</ele>
        <time>2014-04-19T15:11:28.929Z</time>
      </trkpt>
      <trkpt lat="45.39379" lon="4.61548">
        <ele>1276.2</ele>
        <time>2014-04-19T15:11:30.029Z</time>
      </trkpt>
      <trkpt lat="45.39375" lon="4.61551">
        <ele>1275.9</ele>
        <time>2014-04-19T15:11:30.902Z</time>
      </trkpt>
      <trkpt lat="45.3937" lon="4.61552">
        <ele>1275.7</ele>
        <time>2014-04-19T15:11:31.972Z</time>
      </trkpt>
      <trkpt lat="45.39366" lon="4.61554">
        <ele>1275.5</ele>
        <time>2014-04-19T15:11:32.961Z</time>
      </trkpt>
      <trkpt lat="45.39358" lon="4.61557">
        <ele>1275.6</ele>
        <time>2014-04-19T15:11:35.012Z</time>
      </trkpt>
      <trkpt lat="45.39353" lon="4.61559">
        <ele>1275.6</ele>
        <time>2014-04-19T15:11:35.945Z</time>
      </trkpt>
      <trkpt lat="45.39345" lon="4.61563">
        <ele>1275.5</ele>
        <time>2014-04-19T15:11:37.982Z</time>
      </trkpt>
      <trkpt lat="45.3934" lon="4.61565">
        <ele>1275.6</ele>
        <time>2014-04-19T15:11:38.932Z</time>
      </trkpt>
      <trkpt lat="45.39331" lon="4.61568">
        <ele>1275.5</ele>
        <time>2014-04-19T15:11:41.026Z</time>
      </trkpt>
      <trkpt lat="45.39327" lon="4.61569">
        <ele>1275.3</ele>
        <time>2014-04-19T15:11:41.901Z</time>
      </trkpt>
      <trkpt lat="45.39319" lon="4.61571">
        <ele>1275.8</ele>
        <time>2014-04-19T15:11:44.927Z</time>
      </trkpt>
      <trkpt lat="45.39314" lon="4.61572">
        <ele>1276.3</ele>
        <time>2014-04-19T15:11:45.947Z</time>
      </trkpt>
      <trkpt lat="45.39305" lon="4.61572">
        <ele>1276.3</ele>
        <time>2014-04-19T15:11:48.184Z</time>
      </trkpt>
      <trkpt lat="45.39301" lon="4.61573">
        <ele>1276.3</ele>
        <time>2014-04-19T15:11:48.936Z</time>
      </trkpt>
      <trkpt lat="45.39294" lon="4.61575">
        <ele>1276.1</ele>
        <time>2014-04-19T15:11:51.011Z</time>
      </trkpt>
      <trkpt lat="45.3929" lon="4.61575">
        <ele>1275.9</ele>
        <time>2014-04-19T15:11:51.949Z</time>
      </trkpt>
      <trkpt lat="45.39282" lon="4.61576">
        <ele>1276.4</ele>
        <time>2014-04-19T15:11:53.926Z</time>
      </trkpt>
      <trkpt lat="45.39277" lon="4.61576">
        <ele>1276.8</ele>
        <time>2014-04-19T15:11:54.894Z</time>
      </trkpt>
      <trkpt lat="45.3927" lon="4.61577">
        <ele>1276.8</ele>
        <time>2014-04-19T15:11:57.014Z</time>
      </trkpt>
      <trkpt lat="45.39266" lon="4.61577">
        <ele>1276.1</ele>
        <time>2014-04-19T15:11:57.896Z</time>
      </trkpt>
      <trkpt lat="45.39257" lon="4.61577">
        <ele>1274.8</ele>
        <time>2014-04-19T15:11:59.986Z</time>
      </trkpt>
      <trkpt lat="45.39253" lon="4.61577">
        <ele>1274.4</ele>
        <time>2014-04-19T15:12:00.926Z</time>
      </trkpt>
      <trkpt lat="45.39245" lon="4.61577">
        <ele>1274.2</ele>
        <time>2014-04-19T15:12:03.879Z</time>
      </trkpt>
      <trkpt lat="45.39242" lon="4.61577">
        <ele>1274.2</ele>
        <time>2014-04-19T15:12:03.968Z</time>
      </trkpt>
      <trkpt lat="45.39235" lon="4.61576">
        <ele>1274.2</ele>
        <time>2014-04-19T15:12:05.983Z</time>
      </trkpt>
      <trkpt lat="45.39231" lon="4.61576">
        <ele>1274.2</ele>
        <time>2014-04-19T15:12:06.929Z</time>
      </trkpt>
      <trkpt lat="45.39223" lon="4.61575">
        <ele>1274.2</ele>
        <time>2014-04-19T15:12:08.970Z</time>
      </trkpt>
      <trkpt lat="45.39219" lon="4.61575">
        <ele>1274.3</ele>
        <time>2014-04-19T15:12:09.934Z</time>
      </trkpt>
      <trkpt lat="45.39212" lon="4.61574">
        <ele>1274.3</ele>
        <time>2014-04-19T15:12:11.942Z</time>
      </trkpt>
      <trkpt lat="45.3921" lon="4.61573">
        <ele>1274.2</ele>
        <time>2014-04-19T15:12:12.901Z</time>
      </trkpt>
      <trkpt lat="45.39204" lon="4.61571">
        <ele>1274.2</ele>
        <time>2014-04-19T15:12:15.029Z</time>
      </trkpt>
      <trkpt lat="45.39201" lon="4.6157">
        <ele>1274.2</ele>
        <time>2014-04-19T15:12:15.937Z</time>
      </trkpt>
      <trkpt lat="45.39194" lon="4.61569">
        <ele>1274.2</ele>
        <time>2014-04-19T15:12:18.008Z</time>
      </trkpt>
      <trkpt lat="45.3919" lon="4.61569">
        <ele>1274.2</ele>
        <time>2014-04-19T15:12:18.925Z</time>
      </trkpt>
      <trkpt lat="45.39183" lon="4.61568">
        <ele>1274.3</ele>
        <time>2014-04-19T15:12:21.016Z</time>
      </trkpt>
      <trkpt lat="45.39179" lon="4.61568">
        <ele>1274.3</ele>
        <time>2014-04-19T15:12:21.987Z</time>
      </trkpt>
      <trkpt lat="45.39171" lon="4.61568">
        <ele>1274.4</ele>
        <time>2014-04-19T15:12:24.120Z</time>
      </trkpt>
      <trkpt lat="45.39168" lon="4.61567">
        <ele>1274.5</ele>
        <time>2014-04-19T15:12:24.937Z</time>
      </trkpt>
      <trkpt lat="45.39161" lon="4.61567">
        <ele>1274.6</ele>
        <time>2014-04-19T15:12:26.970Z</time>
      </trkpt>
      <trkpt lat="45.39157" lon="4.61567">
        <ele>1274.7</ele>
        <time>2014-04-19T15:12:27.902Z</time>
      </trkpt>
      <trkpt lat="45.39151" lon="4.61567">
        <ele>1274.8</ele>
        <time>2014-04-19T15:12:29.998Z</time>
      </trkpt>
      <trkpt lat="45.39147" lon="4.61567">
        <ele>1274.9</ele>
        <time>2014-04-19T15:12:30.973Z</time>
      </trkpt>
      <trkpt lat="45.3914" lon="4.61567">
        <ele>1275</ele>
        <time>2014-04-19T15:12:32.943Z</time>
      </trkpt>
      <trkpt lat="45.39137" lon="4.61566">
        <ele>1275.1</ele>
        <time>2014-04-19T15:12:33.930Z</time>
      </trkpt>
      <trkpt lat="45.39131" lon="4.61566">
        <ele>1275.3</ele>
        <time>2014-04-19T15:12:36.034Z</time>
      </trkpt>
      <trkpt lat="45.39127" lon="4.61566">
        <ele>1275.4</ele>
        <time>2014-04-19T15:12:36.950Z</time>
      </trkpt>
      <trkpt lat="45.39118" lon="4.61566">
        <ele>1275.6</ele>
        <time>2014-04-19T15:12:39.211Z</time>
      </trkpt>
      <trkpt lat="45.39114" lon="4.61567">
        <ele>1275.6</ele>
        <time>2014-04-19T15:12:39.955Z</time>
      </trkpt>
      <trkpt lat="45.39106" lon="4.61568">
        <ele>1276</ele>
        <time>2014-04-19T15:12:41.929Z</time>
      </trkpt>
      <trkpt lat="45.39101" lon="4.61568">
        <ele>1276.5</ele>
        <time>2014-04-19T15:12:42.894Z</time>
      </trkpt>
      <trkpt lat="45.39093" lon="4.61569">
        <ele>1278.2</ele>
        <time>2014-04-19T15:12:44.968Z</time>
      </trkpt>
      <trkpt lat="45.3909" lon="4.6157">
        <ele>1278.3</ele>
        <time>2014-04-19T15:12:45.955Z</time>
      </trkpt>
      <trkpt lat="45.39082" lon="4.61571">
        <ele>1278.3</ele>
        <time>2014-04-19T15:12:47.956Z</time>
      </trkpt>
      <trkpt lat="45.39079" lon="4.61571">
        <ele>1278.4</ele>
        <time>2014-04-19T15:12:48.963Z</time>
      </trkpt>
      <trkpt lat="45.39072" lon="4.61573">
        <ele>1278.6</ele>
        <time>2014-04-19T15:12:50.942Z</time>
      </trkpt>
      <trkpt lat="45.39068" lon="4.61573">
        <ele>1278.7</ele>
        <time>2014-04-19T15:12:51.957Z</time>
      </trkpt>
      <trkpt lat="45.3906" lon="4.61574">
        <ele>1278.9</ele>
        <time>2014-04-19T15:12:53.915Z</time>
      </trkpt>
      <trkpt lat="45.39057" lon="4.61574">
        <ele>1279</ele>
        <time>2014-04-19T15:12:54.947Z</time>
      </trkpt>
      <trkpt lat="45.3905" lon="4.61574">
        <ele>1279.2</ele>
        <time>2014-04-19T15:12:57.104Z</time>
      </trkpt>
      <trkpt lat="45.39046" lon="4.61574">
        <ele>1279.3</ele>
        <time>2014-04-19T15:12:57.953Z</time>
      </trkpt>
      <trkpt lat="45.39039" lon="4.61574">
        <ele>1279.6</ele>
        <time>2014-04-19T15:13:00.292Z</time>
      </trkpt>
      <trkpt lat="45.39035" lon="4.61574">
        <ele>1279.7</ele>
        <time>2014-04-19T15:13:00.894Z</time>
      </trkpt>
      <trkpt lat="45.39028" lon="4.61574">
        <ele>1279.8</ele>
        <time>2014-04-19T15:13:03.807Z</time>
      </trkpt>
      <trkpt lat="45.39024" lon="4.61574">
        <ele>1279.9</ele>
        <time>2014-04-19T15:13:03.928Z</time>
      </trkpt>
      <trkpt lat="45.39018" lon="4.61575">
        <ele>1279.9</ele>
        <time>2014-04-19T15:13:06.023Z</time>
      </trkpt>
      <trkpt lat="45.39014" lon="4.61575">
        <ele>1280</ele>
        <time>2014-04-19T15:13:06.954Z</time>
      </trkpt>
      <trkpt lat="45.39006" lon="4.61576">
        <ele>1280.2</ele>
        <time>2014-04-19T15:13:09.035Z</time>
      </trkpt>
      <trkpt lat="45.39002" lon="4.61576">
        <ele>1280.2</ele>
        <time>2014-04-19T15:13:09.936Z</time>
      </trkpt>
      <trkpt lat="45.38994" lon="4.61576">
        <ele>1281</ele>
        <time>2014-04-19T15:13:11.984Z</time>
      </trkpt>
      <trkpt lat="45.3899" lon="4.61576">
        <ele>1281</ele>
        <time>2014-04-19T15:13:12.938Z</time>
      </trkpt>
      <trkpt lat="45.38982" lon="4.61577">
        <ele>1281.1</ele>
        <time>2014-04-19T15:13:15.000Z</time>
      </trkpt>
      <trkpt lat="45.38979" lon="4.61577">
        <ele>1281.2</ele>
        <time>2014-04-19T15:13:15.939Z</time>
      </trkpt>
      <trkpt lat="45.38971" lon="4.61577">
        <ele>1281.3</ele>
        <time>2014-04-19T15:13:18.012Z</time>
      </trkpt>
      <trkpt lat="45.38968" lon="4.61578">
        <ele>1281.4</ele>
        <time>2014-04-19T15:13:18.995Z</time>
      </trkpt>
      <trkpt lat="45.38961" lon="4.61578">
        <ele>1281.5</ele>
        <time>2014-04-19T15:13:20.919Z</time>
      </trkpt>
      <trkpt lat="45.38957" lon="4.61579">
        <ele>1281.6</ele>
        <time>2014-04-19T15:13:21.941Z</time>
      </trkpt>
      <trkpt lat="45.38951" lon="4.61579">
        <ele>1281.7</ele>
        <time>2014-04-19T15:13:24.168Z</time>
      </trkpt>
      <trkpt lat="45.38948" lon="4.61579">
        <ele>1281.8</ele>
        <time>2014-04-19T15:13:24.947Z</time>
      </trkpt>
      <trkpt lat="45.38941" lon="4.6158">
        <ele>1281.9</ele>
        <time>2014-04-19T15:13:27.946Z</time>
      </trkpt>
      <trkpt lat="45.38938" lon="4.6158">
        <ele>1281.9</ele>
        <time>2014-04-19T15:13:28.943Z</time>
      </trkpt>
      <trkpt lat="45.38932" lon="4.6158">
        <ele>1281.9</ele>
        <time>2014-04-19T15:13:30.957Z</time>
      </trkpt>
      <trkpt lat="45.38928" lon="4.6158">
        <ele>1281.9</ele>
        <time>2014-04-19T15:13:31.954Z</time>
      </trkpt>
      <trkpt lat="45.3892" lon="4.61579">
        <ele>1282.1</ele>
        <time>2014-04-19T15:13:35.092Z</time>
      </trkpt>
      <trkpt lat="45.38917" lon="4.61579">
        <ele>1282.1</ele>
        <time>2014-04-19T15:13:36.014Z</time>
      </trkpt>
      <trkpt lat="45.3891" lon="4.61579">
        <ele>1282.4</ele>
        <time>2014-04-19T15:13:38.034Z</time>
      </trkpt>
      <trkpt lat="45.38906" lon="4.61578">
        <ele>1282.5</ele>
        <time>2014-04-19T15:13:38.966Z</time>
      </trkpt>
      <trkpt lat="45.389" lon="4.61578">
        <ele>1282.6</ele>
        <time>2014-04-19T15:13:41.033Z</time>
      </trkpt>
      <trkpt lat="45.38897" lon="4.61577">
        <ele>1282.7</ele>
        <time>2014-04-19T15:13:41.976Z</time>
      </trkpt>
      <trkpt lat="45.38889" lon="4.61575">
        <ele>1282.9</ele>
        <time>2014-04-19T15:13:46.071Z</time>
      </trkpt>
      <trkpt lat="45.38887" lon="4.61575">
        <ele>1283</ele>
        <time>2014-04-19T15:13:46.929Z</time>
      </trkpt>
      <trkpt lat="45.38882" lon="4.61584">
        <ele>1283.8</ele>
        <time>2014-04-19T15:18:14.022Z</time>
      </trkpt>
      <trkpt lat="45.38881" lon="4.61585">
        <ele>1283.8</ele>
        <time>2014-04-19T15:18:14.939Z</time>
      </trkpt>
      <trkpt lat="45.38888" lon="4.61584">
        <ele>1283.6</ele>
        <time>2014-04-19T15:18:42.029Z</time>
      </trkpt>
      <trkpt lat="45.3889" lon="4.61584">
        <ele>1283.7</ele>
        <time>2014-04-19T15:18:42.967Z</time>
      </trkpt>
      <trkpt lat="45.38898" lon="4.61584">
        <ele>1283.9</ele>
        <time>2014-04-19T15:18:49.067Z</time>
      </trkpt>
      <trkpt lat="45.38899" lon="4.61584">
        <ele>1284</ele>
        <time>2014-04-19T15:18:49.976Z</time>
      </trkpt>
      <trkpt lat="45.38906" lon="4.61585">
        <ele>1284.2</ele>
        <time>2014-04-19T15:18:53.036Z</time>
      </trkpt>
      <trkpt lat="45.3891" lon="4.61585">
        <ele>1284.2</ele>
        <time>2014-04-19T15:18:53.925Z</time>
      </trkpt>
      <trkpt lat="45.38918" lon="4.61586">
        <ele>1284.4</ele>
        <time>2014-04-19T15:18:56.966Z</time>
      </trkpt>
      <trkpt lat="45.3892" lon="4.61587">
        <ele>1284.5</ele>
        <time>2014-04-19T15:18:57.929Z</time>
      </trkpt>
      <trkpt lat="45.38929" lon="4.61588">
        <ele>1284.8</ele>
        <time>2014-04-19T15:19:00.960Z</time>
      </trkpt>
      <trkpt lat="45.38932" lon="4.61588">
        <ele>1284.9</ele>
        <time>2014-04-19T15:19:01.966Z</time>
      </trkpt>
      <trkpt lat="45.38939" lon="4.61589">
        <ele>1285</ele>
        <time>2014-04-19T15:19:03.978Z</time>
      </trkpt>
      <trkpt lat="45.38942" lon="4.61589">
        <ele>1285.1</ele>
        <time>2014-04-19T15:19:04.926Z</time>
      </trkpt>
      <trkpt lat="45.38948" lon="4.61589">
        <ele>1285.3</ele>
        <time>2014-04-19T15:19:07.022Z</time>
      </trkpt>
      <trkpt lat="45.38951" lon="4.61589">
        <ele>1285.3</ele>
        <time>2014-04-19T15:19:07.963Z</time>
      </trkpt>
      <trkpt lat="45.38957" lon="4.61589">
        <ele>1285.4</ele>
        <time>2014-04-19T15:19:10.117Z</time>
      </trkpt>
      <trkpt lat="45.38961" lon="4.61589">
        <ele>1285.4</ele>
        <time>2014-04-19T15:19:10.937Z</time>
      </trkpt>
      <trkpt lat="45.38969" lon="4.61589">
        <ele>1285.5</ele>
        <time>2014-04-19T15:19:13.037Z</time>
      </trkpt>
      <trkpt lat="45.38973" lon="4.61588">
        <ele>1285.5</ele>
        <time>2014-04-19T15:19:14.015Z</time>
      </trkpt>
      <trkpt lat="45.38981" lon="4.61587">
        <ele>1285.4</ele>
        <time>2014-04-19T15:19:16.049Z</time>
      </trkpt>
      <trkpt lat="45.38986" lon="4.61587">
        <ele>1285.5</ele>
        <time>2014-04-19T15:19:16.972Z</time>
      </trkpt>
      <trkpt lat="45.38993" lon="4.61586">
        <ele>1285.3</ele>
        <time>2014-04-19T15:19:19.144Z</time>
      </trkpt>
      <trkpt lat="45.38998" lon="4.61585">
        <ele>1285</ele>
        <time>2014-04-19T15:19:19.973Z</time>
      </trkpt>
      <trkpt lat="45.39006" lon="4.61584">
        <ele>1284.5</ele>
        <time>2014-04-19T15:19:22.040Z</time>
      </trkpt>
      <trkpt lat="45.3901" lon="4.61584">
        <ele>1284.7</ele>
        <time>2014-04-19T15:19:22.963Z</time>
      </trkpt>
      <trkpt lat="45.39019" lon="4.61583">
        <ele>1285.2</ele>
        <time>2014-04-19T15:19:24.967Z</time>
      </trkpt>
      <trkpt lat="45.39023" lon="4.61583">
        <ele>1285.4</ele>
        <time>2014-04-19T15:19:25.974Z</time>
      </trkpt>
      <trkpt lat="45.39032" lon="4.61582">
        <ele>1285.4</ele>
        <time>2014-04-19T15:19:27.963Z</time>
      </trkpt>
      <trkpt lat="45.39036" lon="4.61581">
        <ele>1285.2</ele>
        <time>2014-04-19T15:19:28.964Z</time>
      </trkpt>
      <trkpt lat="45.39045" lon="4.6158">
        <ele>1284.7</ele>
        <time>2014-04-19T15:19:30.975Z</time>
      </trkpt>
      <trkpt lat="45.39048" lon="4.6158">
        <ele>1284.5</ele>
        <time>2014-04-19T15:19:31.954Z</time>
      </trkpt>
      <trkpt lat="45.39056" lon="4.61579">
        <ele>1284.2</ele>
        <time>2014-04-19T15:19:34.229Z</time>
      </trkpt>
      <trkpt lat="45.3906" lon="4.61579">
        <ele>1284.2</ele>
        <time>2014-04-19T15:19:34.922Z</time>
      </trkpt>
      <trkpt lat="45.39065" lon="4.61579">
        <ele>1284.2</ele>
        <time>2014-04-19T15:19:36.006Z</time>
      </trkpt>
      <trkpt lat="45.39069" lon="4.61579">
        <ele>1284</ele>
        <time>2014-04-19T15:19:36.963Z</time>
      </trkpt>
      <trkpt lat="45.39078" lon="4.61579">
        <ele>1283.6</ele>
        <time>2014-04-19T15:19:39.026Z</time>
      </trkpt>
      <trkpt lat="45.39082" lon="4.61578">
        <ele>1283.3</ele>
        <time>2014-04-19T15:19:39.914Z</time>
      </trkpt>
      <trkpt lat="45.39087" lon="4.61578">
        <ele>1282.9</ele>
        <time>2014-04-19T15:19:40.955Z</time>
      </trkpt>
      <trkpt lat="45.39091" lon="4.61578">
        <ele>1282.5</ele>
        <time>2014-04-19T15:19:41.973Z</time>
      </trkpt>
      <trkpt lat="45.39096" lon="4.61577">
        <ele>1282.2</ele>
        <time>2014-04-19T15:19:43.136Z</time>
      </trkpt>
      <trkpt lat="45.39101" lon="4.61577">
        <ele>1282</ele>
        <time>2014-04-19T15:19:43.923Z</time>
      </trkpt>
      <trkpt lat="45.39106" lon="4.61576">
        <ele>1282</ele>
        <time>2014-04-19T15:19:45.001Z</time>
      </trkpt>
      <trkpt lat="45.39111" lon="4.61576">
        <ele>1282.1</ele>
        <time>2014-04-19T15:19:45.963Z</time>
      </trkpt>
      <trkpt lat="45.39116" lon="4.61576">
        <ele>1282</ele>
        <time>2014-04-19T15:19:47.073Z</time>
      </trkpt>
      <trkpt lat="45.39121" lon="4.61576">
        <ele>1282.1</ele>
        <time>2014-04-19T15:19:47.922Z</time>
      </trkpt>
      <trkpt lat="45.39127" lon="4.61576">
        <ele>1282.4</ele>
        <time>2014-04-19T15:19:48.993Z</time>
      </trkpt>
      <trkpt lat="45.39132" lon="4.61577">
        <ele>1282.6</ele>
        <time>2014-04-19T15:19:49.921Z</time>
      </trkpt>
      <trkpt lat="45.39137" lon="4.61577">
        <ele>1282.8</ele>
        <time>2014-04-19T15:19:50.955Z</time>
      </trkpt>
      <trkpt lat="45.39142" lon="4.61577">
        <ele>1283</ele>
        <time>2014-04-19T15:19:51.969Z</time>
      </trkpt>
      <trkpt lat="45.39146" lon="4.61577">
        <ele>1283</ele>
        <time>2014-04-19T15:19:53.270Z</time>
      </trkpt>
      <trkpt lat="45.39151" lon="4.61577">
        <ele>1282.8</ele>
        <time>2014-04-19T15:19:53.918Z</time>
      </trkpt>
      <trkpt lat="45.39155" lon="4.61577">
        <ele>1282.6</ele>
        <time>2014-04-19T15:19:54.969Z</time>
      </trkpt>
      <trkpt lat="45.3916" lon="4.61577">
        <ele>1282.4</ele>
        <time>2014-04-19T15:19:55.958Z</time>
      </trkpt>
      <trkpt lat="45.39165" lon="4.61578">
        <ele>1282.1</ele>
        <time>2014-04-19T15:19:57.068Z</time>
      </trkpt>
      <trkpt lat="45.3917" lon="4.61578">
        <ele>1281.6</ele>
        <time>2014-04-19T15:19:57.926Z</time>
      </trkpt>
      <trkpt lat="45.39175" lon="4.61578">
        <ele>1281.4</ele>
        <time>2014-04-19T15:19:58.927Z</time>
      </trkpt>
      <trkpt lat="45.3918" lon="4.61578">
        <ele>1281.4</ele>
        <time>2014-04-19T15:19:59.902Z</time>
      </trkpt>
      <trkpt lat="45.39184" lon="4.61578">
        <ele>1281.2</ele>
        <time>2014-04-19T15:20:01.055Z</time>
      </trkpt>
      <trkpt lat="45.39189" lon="4.61579">
        <ele>1281</ele>
        <time>2014-04-19T15:20:01.964Z</time>
      </trkpt>
      <trkpt lat="45.39194" lon="4.61579">
        <ele>1281</ele>
        <time>2014-04-19T15:20:03.057Z</time>
      </trkpt>
      <trkpt lat="45.39199" lon="4.6158">
        <ele>1281.1</ele>
        <time>2014-04-19T15:20:03.908Z</time>
      </trkpt>
      <trkpt lat="45.39204" lon="4.61581">
        <ele>1281.2</ele>
        <time>2014-04-19T15:20:05.046Z</time>
      </trkpt>
      <trkpt lat="45.39209" lon="4.61582">
        <ele>1281.3</ele>
        <time>2014-04-19T15:20:05.907Z</time>
      </trkpt>
      <trkpt lat="45.39214" lon="4.61582">
        <ele>1281.2</ele>
        <time>2014-04-19T15:20:07.012Z</time>
      </trkpt>
      <trkpt lat="45.39219" lon="4.61583">
        <ele>1280.8</ele>
        <time>2014-04-19T15:20:07.961Z</time>
      </trkpt>
      <trkpt lat="45.39224" lon="4.61584">
        <ele>1280.3</ele>
        <time>2014-04-19T15:20:09.031Z</time>
      </trkpt>
      <trkpt lat="45.39228" lon="4.61584">
        <ele>1279.9</ele>
        <time>2014-04-19T15:20:09.911Z</time>
      </trkpt>
      <trkpt lat="45.39237" lon="4.61585">
        <ele>1279.8</ele>
        <time>2014-04-19T15:20:11.958Z</time>
      </trkpt>
      <trkpt lat="45.39242" lon="4.61585">
        <ele>1279.6</ele>
        <time>2014-04-19T15:20:12.943Z</time>
      </trkpt>
      <trkpt lat="45.39247" lon="4.61586">
        <ele>1279.4</ele>
        <time>2014-04-19T15:20:14.116Z</time>
      </trkpt>
      <trkpt lat="45.39252" lon="4.61586">
        <ele>1279</ele>
        <time>2014-04-19T15:20:14.949Z</time>
      </trkpt>
      <trkpt lat="45.39257" lon="4.61586">
        <ele>1279.1</ele>
        <time>2014-04-19T15:20:16.024Z</time>
      </trkpt>
      <trkpt lat="45.39262" lon="4.61586">
        <ele>1279</ele>
        <time>2014-04-19T15:20:16.906Z</time>
      </trkpt>
      <trkpt lat="45.39267" lon="4.61586">
        <ele>1279.3</ele>
        <time>2014-04-19T15:20:17.946Z</time>
      </trkpt>
      <trkpt lat="45.39272" lon="4.61586">
        <ele>1279.6</ele>
        <time>2014-04-19T15:20:18.955Z</time>
      </trkpt>
      <trkpt lat="45.39278" lon="4.61585">
        <ele>1279.8</ele>
        <time>2014-04-19T15:20:20.078Z</time>
      </trkpt>
      <trkpt lat="45.39283" lon="4.61585">
        <ele>1279.4</ele>
        <time>2014-04-19T15:20:21.222Z</time>
      </trkpt>
      <trkpt lat="45.39288" lon="4.61584">
        <ele>1278.9</ele>
        <time>2014-04-19T15:20:21.908Z</time>
      </trkpt>
      <trkpt lat="45.39293" lon="4.61584">
        <ele>1278.4</ele>
        <time>2014-04-19T15:20:22.956Z</time>
      </trkpt>
      <trkpt lat="45.39298" lon="4.61583">
        <ele>1277.8</ele>
        <time>2014-04-19T15:20:24.029Z</time>
      </trkpt>
      <trkpt lat="45.39303" lon="4.61581">
        <ele>1277.2</ele>
        <time>2014-04-19T15:20:24.962Z</time>
      </trkpt>
      <trkpt lat="45.39308" lon="4.6158">
        <ele>1276.6</ele>
        <time>2014-04-19T15:20:26.053Z</time>
      </trkpt>
      <trkpt lat="45.39313" lon="4.61579">
        <ele>1276.3</ele>
        <time>2014-04-19T15:20:26.977Z</time>
      </trkpt>
      <trkpt lat="45.39321" lon="4.61577">
        <ele>1275.7</ele>
        <time>2014-04-19T15:20:29.352Z</time>
      </trkpt>
      <trkpt lat="45.39325" lon="4.61577">
        <ele>1275.4</ele>
        <time>2014-04-19T15:20:29.955Z</time>
      </trkpt>
      <trkpt lat="45.39332" lon="4.61575">
        <ele>1275.7</ele>
        <time>2014-04-19T15:20:31.947Z</time>
      </trkpt>
      <trkpt lat="45.39336" lon="4.61574">
        <ele>1275.7</ele>
        <time>2014-04-19T15:20:33.124Z</time>
      </trkpt>
      <trkpt lat="45.39344" lon="4.61572">
        <ele>1276.5</ele>
        <time>2014-04-19T15:20:34.934Z</time>
      </trkpt>
      <trkpt lat="45.39349" lon="4.61571">
        <ele>1277</ele>
        <time>2014-04-19T15:20:35.953Z</time>
      </trkpt>
      <trkpt lat="45.39353" lon="4.6157">
        <ele>1277.4</ele>
        <time>2014-04-19T15:20:36.976Z</time>
      </trkpt>
      <trkpt lat="45.39359" lon="4.61568">
        <ele>1277.6</ele>
        <time>2014-04-19T15:20:37.940Z</time>
      </trkpt>
      <trkpt lat="45.39364" lon="4.61566">
        <ele>1277.9</ele>
        <time>2014-04-19T15:20:39.648Z</time>
      </trkpt>
      <trkpt lat="45.39369" lon="4.61564">
        <ele>1277.9</ele>
        <time>2014-04-19T15:20:39.895Z</time>
      </trkpt>
      <trkpt lat="45.39375" lon="4.61562">
        <ele>1277.6</ele>
        <time>2014-04-19T15:20:41.025Z</time>
      </trkpt>
      <trkpt lat="45.3938" lon="4.61561">
        <ele>1277</ele>
        <time>2014-04-19T15:20:41.915Z</time>
      </trkpt>
      <trkpt lat="45.39385" lon="4.61559">
        <ele>1276.5</ele>
        <time>2014-04-19T15:20:42.974Z</time>
      </trkpt>
      <trkpt lat="45.3939" lon="4.61556">
        <ele>1276</ele>
        <time>2014-04-19T15:20:43.969Z</time>
      </trkpt>
      <trkpt lat="45.39395" lon="4.61554">
        <ele>1275.6</ele>
        <time>2014-04-19T15:20:44.937Z</time>
      </trkpt>
      <trkpt lat="45.394" lon="4.61552">
        <ele>1275.2</ele>
        <time>2014-04-19T15:20:45.931Z</time>
      </trkpt>
      <trkpt lat="45.39405" lon="4.6155">
        <ele>1274.8</ele>
        <time>2014-04-19T15:20:46.958Z</time>
      </trkpt>
      <trkpt lat="45.3941" lon="4.61548">
        <ele>1274.5</ele>
        <time>2014-04-19T15:20:47.958Z</time>
      </trkpt>
      <trkpt lat="45.39415" lon="4.61546">
        <ele>1274.3</ele>
        <time>2014-04-19T15:20:49.005Z</time>
      </trkpt>
      <trkpt lat="45.39421" lon="4.61545">
        <ele>1274.2</ele>
        <time>2014-04-19T15:20:49.923Z</time>
      </trkpt>
      <trkpt lat="45.39426" lon="4.61543">
        <ele>1274.1</ele>
        <time>2014-04-19T15:20:50.946Z</time>
      </trkpt>
      <trkpt lat="45.39432" lon="4.61542">
        <ele>1274.1</ele>
        <time>2014-04-19T15:20:51.968Z</time>
      </trkpt>
      <trkpt lat="45.39437" lon="4.6154">
        <ele>1274</ele>
        <time>2014-04-19T15:20:52.963Z</time>
      </trkpt>
      <trkpt lat="45.39442" lon="4.61539">
        <ele>1274.1</ele>
        <time>2014-04-19T15:20:53.937Z</time>
      </trkpt>
      <trkpt lat="45.39448" lon="4.61538">
        <ele>1274.4</ele>
        <time>2014-04-19T15:20:54.969Z</time>
      </trkpt>
      <trkpt lat="45.39453" lon="4.61537">
        <ele>1274.9</ele>
        <time>2014-04-19T15:20:55.917Z</time>
      </trkpt>
      <trkpt lat="45.39459" lon="4.61537">
        <ele>1275.6</ele>
        <time>2014-04-19T15:20:57.003Z</time>
      </trkpt>
      <trkpt lat="45.39465" lon="4.61536">
        <ele>1276.4</ele>
        <time>2014-04-19T15:20:57.917Z</time>
      </trkpt>
      <trkpt lat="45.39471" lon="4.61536">
        <ele>1276.9</ele>
        <time>2014-04-19T15:20:59.021Z</time>
      </trkpt>
      <trkpt lat="45.39478" lon="4.61536">
        <ele>1277.1</ele>
        <time>2014-04-19T15:21:00.069Z</time>
      </trkpt>
      <trkpt lat="45.39485" lon="4.61536">
        <ele>1277</ele>
        <time>2014-04-19T15:21:01.009Z</time>
      </trkpt>
      <trkpt lat="45.39491" lon="4.61536">
        <ele>1277</ele>
        <time>2014-04-19T15:21:01.910Z</time>
      </trkpt>
      <trkpt lat="45.39497" lon="4.61536">
        <ele>1277.1</ele>
        <time>2014-04-19T15:21:02.993Z</time>
      </trkpt>
      <trkpt lat="45.39503" lon="4.61536">
        <ele>1277</ele>
        <time>2014-04-19T15:21:04.105Z</time>
      </trkpt>
      <trkpt lat="45.3951" lon="4.61536">
        <ele>1276.9</ele>
        <time>2014-04-19T15:21:05.008Z</time>
      </trkpt>
      <trkpt lat="45.39516" lon="4.61537">
        <ele>1276.8</ele>
        <time>2014-04-19T15:21:05.913Z</time>
      </trkpt>
      <trkpt lat="45.39523" lon="4.61537">
        <ele>1276.7</ele>
        <time>2014-04-19T15:21:07.065Z</time>
      </trkpt>
      <trkpt lat="45.39531" lon="4.61538">
        <ele>1276.1</ele>
        <time>2014-04-19T15:21:07.951Z</time>
      </trkpt>
      <trkpt lat="45.39537" lon="4.61538">
        <ele>1275.5</ele>
        <time>2014-04-19T15:21:09.095Z</time>
      </trkpt>
      <trkpt lat="45.39544" lon="4.61538">
        <ele>1274.8</ele>
        <time>2014-04-19T15:21:09.933Z</time>
      </trkpt>
      <trkpt lat="45.3955" lon="4.61539">
        <ele>1274.5</ele>
        <time>2014-04-19T15:21:10.987Z</time>
      </trkpt>
      <trkpt lat="45.39556" lon="4.6154">
        <ele>1274.2</ele>
        <time>2014-04-19T15:21:11.933Z</time>
      </trkpt>
      <trkpt lat="45.39563" lon="4.6154">
        <ele>1273.8</ele>
        <time>2014-04-19T15:21:12.990Z</time>
      </trkpt>
      <trkpt lat="45.39569" lon="4.61541">
        <ele>1273.5</ele>
        <time>2014-04-19T15:21:13.992Z</time>
      </trkpt>
      <trkpt lat="45.39576" lon="4.61542">
        <ele>1273.2</ele>
        <time>2014-04-19T15:21:15.204Z</time>
      </trkpt>
      <trkpt lat="45.39583" lon="4.61543">
        <ele>1272.8</ele>
        <time>2014-04-19T15:21:15.925Z</time>
      </trkpt>
      <trkpt lat="45.3959" lon="4.61545">
        <ele>1272.4</ele>
        <time>2014-04-19T15:21:17.032Z</time>
      </trkpt>
      <trkpt lat="45.39597" lon="4.61547">
        <ele>1272.1</ele>
        <time>2014-04-19T15:21:17.927Z</time>
      </trkpt>
      <trkpt lat="45.39603" lon="4.61549">
        <ele>1271.6</ele>
        <time>2014-04-19T15:21:19.269Z</time>
      </trkpt>
      <trkpt lat="45.3961" lon="4.61551">
        <ele>1271</ele>
        <time>2014-04-19T15:21:19.925Z</time>
      </trkpt>
      <trkpt lat="45.39617" lon="4.61554">
        <ele>1270.5</ele>
        <time>2014-04-19T15:21:21.029Z</time>
      </trkpt>
      <trkpt lat="45.39623" lon="4.61556">
        <ele>1270.2</ele>
        <time>2014-04-19T15:21:21.977Z</time>
      </trkpt>
      <trkpt lat="45.39629" lon="4.61558">
        <ele>1269.8</ele>
        <time>2014-04-19T15:21:22.978Z</time>
      </trkpt>
      <trkpt lat="45.39635" lon="4.6156">
        <ele>1269.8</ele>
        <time>2014-04-19T15:21:23.967Z</time>
      </trkpt>
      <trkpt lat="45.39642" lon="4.61562">
        <ele>1269.9</ele>
        <time>2014-04-19T15:21:25.029Z</time>
      </trkpt>
      <trkpt lat="45.39649" lon="4.61564">
        <ele>1270.1</ele>
        <time>2014-04-19T15:21:25.971Z</time>
      </trkpt>
      <trkpt lat="45.39655" lon="4.61566">
        <ele>1269.9</ele>
        <time>2014-04-19T15:21:27.002Z</time>
      </trkpt>
      <trkpt lat="45.39662" lon="4.61568">
        <ele>1270.3</ele>
        <time>2014-04-19T15:21:27.927Z</time>
      </trkpt>
      <trkpt lat="45.3967" lon="4.6157">
        <ele>1271</ele>
        <time>2014-04-19T15:21:29.340Z</time>
      </trkpt>
      <trkpt lat="45.39678" lon="4.61573">
        <ele>1271.8</ele>
        <time>2014-04-19T15:21:29.968Z</time>
      </trkpt>
      <trkpt lat="45.39685" lon="4.61575">
        <ele>1272.5</ele>
        <time>2014-04-19T15:21:31.040Z</time>
      </trkpt>
      <trkpt lat="45.39693" lon="4.61577">
        <ele>1272.9</ele>
        <time>2014-04-19T15:21:32.001Z</time>
      </trkpt>
      <trkpt lat="45.39701" lon="4.6158">
        <ele>1272.8</ele>
        <time>2014-04-19T15:21:32.959Z</time>
      </trkpt>
      <trkpt lat="45.39709" lon="4.61581">
        <ele>1272.3</ele>
        <time>2014-04-19T15:21:33.966Z</time>
      </trkpt>
      <trkpt lat="45.39716" lon="4.61583">
        <ele>1271.9</ele>
        <time>2014-04-19T15:21:35.294Z</time>
      </trkpt>
      <trkpt lat="45.39723" lon="4.61585">
        <ele>1271.7</ele>
        <time>2014-04-19T15:21:35.985Z</time>
      </trkpt>
      <trkpt lat="45.3973" lon="4.61587">
        <ele>1271.3</ele>
        <time>2014-04-19T15:21:36.987Z</time>
      </trkpt>
      <trkpt lat="45.39738" lon="4.6159">
        <ele>1270.9</ele>
        <time>2014-04-19T15:21:38.073Z</time>
      </trkpt>
      <trkpt lat="45.39745" lon="4.61593">
        <ele>1270.6</ele>
        <time>2014-04-19T15:21:39.345Z</time>
      </trkpt>
      <trkpt lat="45.39753" lon="4.61597">
        <ele>1270.2</ele>
        <time>2014-04-19T15:21:39.935Z</time>
      </trkpt>
      <trkpt lat="45.3976" lon="4.61602">
        <ele>1269.8</ele>
        <time>2014-04-19T15:21:41.011Z</time>
      </trkpt>
      <trkpt lat="45.39769" lon="4.61607">
        <ele>1268.9</ele>
        <time>2014-04-19T15:21:41.919Z</time>
      </trkpt>
      <trkpt lat="45.39769" lon="4.61607">
        <ele>1268.9</ele>
        <time>2014-04-19T15:21:42.076Z</time>
      </trkpt>
      <trkpt lat="45.39778" lon="4.61613">
        <ele>1268.2</ele>
        <time>2014-04-19T15:21:42.930Z</time>
      </trkpt>
      <trkpt lat="45.39778" lon="4.61613">
        <ele>1268.2</ele>
        <time>2014-04-19T15:21:43.113Z</time>
      </trkpt>
      <trkpt lat="45.39787" lon="4.6162">
        <ele>1267.6</ele>
        <time>2014-04-19T15:21:43.934Z</time>
      </trkpt>
      <trkpt lat="45.39787" lon="4.6162">
        <ele>1267.6</ele>
        <time>2014-04-19T15:21:44.377Z</time>
      </trkpt>
      <trkpt lat="45.39796" lon="4.61627">
        <ele>1266.8</ele>
        <time>2014-04-19T15:21:44.964Z</time>
      </trkpt>
      <trkpt lat="45.39796" lon="4.61627">
        <ele>1266.8</ele>
        <time>2014-04-19T15:21:45.472Z</time>
      </trkpt>
      <trkpt lat="45.39804" lon="4.61635">
        <ele>1266.2</ele>
        <time>2014-04-19T15:21:45.954Z</time>
      </trkpt>
      <trkpt lat="45.39804" lon="4.61635">
        <ele>1266.2</ele>
        <time>2014-04-19T15:21:46.134Z</time>
      </trkpt>
      <trkpt lat="45.39813" lon="4.61643">
        <ele>1265.3</ele>
        <time>2014-04-19T15:21:46.951Z</time>
      </trkpt>
      <trkpt lat="45.39813" lon="4.61643">
        <ele>1265.3</ele>
        <time>2014-04-19T15:21:47.142Z</time>
      </trkpt>
      <trkpt lat="45.39822" lon="4.61654">
        <ele>1264</ele>
        <time>2014-04-19T15:21:47.948Z</time>
      </trkpt>
      <trkpt lat="45.39822" lon="4.61654">
        <ele>1264</ele>
        <time>2014-04-19T15:21:48.183Z</time>
      </trkpt>
      <trkpt lat="45.3983" lon="4.61665">
        <ele>1262.5</ele>
        <time>2014-04-19T15:21:48.968Z</time>
      </trkpt>
      <trkpt lat="45.3983" lon="4.61665">
        <ele>1262.5</ele>
        <time>2014-04-19T15:21:49.131Z</time>
      </trkpt>
      <trkpt lat="45.39839" lon="4.61676">
        <ele>1260.7</ele>
        <time>2014-04-19T15:21:49.924Z</time>
      </trkpt>
      <trkpt lat="45.39839" lon="4.61676">
        <ele>1260.7</ele>
        <time>2014-04-19T15:21:50.058Z</time>
      </trkpt>
      <trkpt lat="45.39847" lon="4.61688">
        <ele>1258.8</ele>
        <time>2014-04-19T15:21:50.974Z</time>
      </trkpt>
      <trkpt lat="45.39847" lon="4.61688">
        <ele>1258.8</ele>
        <time>2014-04-19T15:21:51.285Z</time>
      </trkpt>
      <trkpt lat="45.39856" lon="4.617">
        <ele>1257</ele>
        <time>2014-04-19T15:21:51.944Z</time>
      </trkpt>
      <trkpt lat="45.39856" lon="4.617">
        <ele>1257</ele>
        <time>2014-04-19T15:21:52.138Z</time>
      </trkpt>
      <trkpt lat="45.39864" lon="4.61711">
        <ele>1255.4</ele>
        <time>2014-04-19T15:21:53.040Z</time>
      </trkpt>
      <trkpt lat="45.39864" lon="4.61711">
        <ele>1255.4</ele>
        <time>2014-04-19T15:21:53.436Z</time>
      </trkpt>
      <trkpt lat="45.39873" lon="4.61723">
        <ele>1253.8</ele>
        <time>2014-04-19T15:21:53.932Z</time>
      </trkpt>
      <trkpt lat="45.39873" lon="4.61723">
        <ele>1253.8</ele>
        <time>2014-04-19T15:21:54.071Z</time>
      </trkpt>
      <trkpt lat="45.39882" lon="4.61735">
        <ele>1252.3</ele>
        <time>2014-04-19T15:21:54.974Z</time>
      </trkpt>
      <trkpt lat="45.39882" lon="4.61735">
        <ele>1252.3</ele>
        <time>2014-04-19T15:21:55.173Z</time>
      </trkpt>
      <trkpt lat="45.39892" lon="4.61748">
        <ele>1250.9</ele>
        <time>2014-04-19T15:21:55.970Z</time>
      </trkpt>
      <trkpt lat="45.39892" lon="4.61748">
        <ele>1250.9</ele>
        <time>2014-04-19T15:21:56.126Z</time>
      </trkpt>
      <trkpt lat="45.39901" lon="4.61761">
        <ele>1249.6</ele>
        <time>2014-04-19T15:21:56.968Z</time>
      </trkpt>
      <trkpt lat="45.39901" lon="4.61761">
        <ele>1249.6</ele>
        <time>2014-04-19T15:21:57.213Z</time>
      </trkpt>
      <trkpt lat="45.3991" lon="4.61776">
        <ele>1248.3</ele>
        <time>2014-04-19T15:21:57.939Z</time>
      </trkpt>
      <trkpt lat="45.3991" lon="4.61776">
        <ele>1248.3</ele>
        <time>2014-04-19T15:21:58.039Z</time>
      </trkpt>
      <trkpt lat="45.39919" lon="4.6179">
        <ele>1246.6</ele>
        <time>2014-04-19T15:21:58.937Z</time>
      </trkpt>
      <trkpt lat="45.39919" lon="4.6179">
        <ele>1246.6</ele>
        <time>2014-04-19T15:21:59.106Z</time>
      </trkpt>
      <trkpt lat="45.39928" lon="4.61806">
        <ele>1244.9</ele>
        <time>2014-04-19T15:21:59.936Z</time>
      </trkpt>
      <trkpt lat="45.39928" lon="4.61806">
        <ele>1244.9</ele>
        <time>2014-04-19T15:22:00.232Z</time>
      </trkpt>
      <trkpt lat="45.39936" lon="4.61821">
        <ele>1243.2</ele>
        <time>2014-04-19T15:22:00.917Z</time>
      </trkpt>
      <trkpt lat="45.39936" lon="4.61821">
        <ele>1243.2</ele>
        <time>2014-04-19T15:22:01.261Z</time>
      </trkpt>
      <trkpt lat="45.39945" lon="4.61837">
        <ele>1241.6</ele>
        <time>2014-04-19T15:22:01.942Z</time>
      </trkpt>
      <trkpt lat="45.39945" lon="4.61837">
        <ele>1241.6</ele>
        <time>2014-04-19T15:22:02.122Z</time>
      </trkpt>
      <trkpt lat="45.39953" lon="4.61853">
        <ele>1240.2</ele>
        <time>2014-04-19T15:22:02.955Z</time>
      </trkpt>
      <trkpt lat="45.39953" lon="4.61853">
        <ele>1240.2</ele>
        <time>2014-04-19T15:22:03.136Z</time>
      </trkpt>
      <trkpt lat="45.3996" lon="4.61868">
        <ele>1239.1</ele>
        <time>2014-04-19T15:22:03.944Z</time>
      </trkpt>
      <trkpt lat="45.3996" lon="4.61868">
        <ele>1239.1</ele>
        <time>2014-04-19T15:22:04.294Z</time>
      </trkpt>
      <trkpt lat="45.39966" lon="4.61882">
        <ele>1238.1</ele>
        <time>2014-04-19T15:22:04.939Z</time>
      </trkpt>
      <trkpt lat="45.39966" lon="4.61882">
        <ele>1238.1</ele>
        <time>2014-04-19T15:22:05.166Z</time>
      </trkpt>
      <trkpt lat="45.39972" lon="4.61896">
        <ele>1236.8</ele>
        <time>2014-04-19T15:22:05.969Z</time>
      </trkpt>
      <trkpt lat="45.39972" lon="4.61896">
        <ele>1236.8</ele>
        <time>2014-04-19T15:22:06.151Z</time>
      </trkpt>
      <trkpt lat="45.39978" lon="4.61909">
        <ele>1235.7</ele>
        <time>2014-04-19T15:22:06.939Z</time>
      </trkpt>
      <trkpt lat="45.39978" lon="4.61909">
        <ele>1235.7</ele>
        <time>2014-04-19T15:22:07.063Z</time>
      </trkpt>
      <trkpt lat="45.39983" lon="4.61921">
        <ele>1234.8</ele>
        <time>2014-04-19T15:22:07.967Z</time>
      </trkpt>
      <trkpt lat="45.39983" lon="4.61921">
        <ele>1234.8</ele>
        <time>2014-04-19T15:22:08.129Z</time>
      </trkpt>
      <trkpt lat="45.39989" lon="4.61933">
        <ele>1234.1</ele>
        <time>2014-04-19T15:22:08.980Z</time>
      </trkpt>
      <trkpt lat="45.39989" lon="4.61933">
        <ele>1234.1</ele>
        <time>2014-04-19T15:22:09.140Z</time>
      </trkpt>
      <trkpt lat="45.39996" lon="4.61946">
        <ele>1233.2</ele>
        <time>2014-04-19T15:22:09.938Z</time>
      </trkpt>
      <trkpt lat="45.39996" lon="4.61946">
        <ele>1233.2</ele>
        <time>2014-04-19T15:22:10.121Z</time>
      </trkpt>
      <trkpt lat="45.40004" lon="4.61957">
        <ele>1232.2</ele>
        <time>2014-04-19T15:22:10.934Z</time>
      </trkpt>
      <trkpt lat="45.40004" lon="4.61957">
        <ele>1232.2</ele>
        <time>2014-04-19T15:22:11.111Z</time>
      </trkpt>
      <trkpt lat="45.40016" lon="4.61966">
        <ele>1231.3</ele>
        <time>2014-04-19T15:22:11.987Z</time>
      </trkpt>
      <trkpt lat="45.40016" lon="4.61966">
        <ele>1231.3</ele>
        <time>2014-04-19T15:22:12.175Z</time>
      </trkpt>
      <trkpt lat="45.40027" lon="4.61975">
        <ele>1230.5</ele>
        <time>2014-04-19T15:22:12.936Z</time>
      </trkpt>
      <trkpt lat="45.40027" lon="4.61975">
        <ele>1230.5</ele>
        <time>2014-04-19T15:22:13.067Z</time>
      </trkpt>
      <trkpt lat="45.40038" lon="4.61983">
        <ele>1229.7</ele>
        <time>2014-04-19T15:22:14.092Z</time>
      </trkpt>
      <trkpt lat="45.40038" lon="4.61983">
        <ele>1229.7</ele>
        <time>2014-04-19T15:22:14.244Z</time>
      </trkpt>
      <trkpt lat="45.40049" lon="4.61991">
        <ele>1229.2</ele>
        <time>2014-04-19T15:22:14.971Z</time>
      </trkpt>
      <trkpt lat="45.40049" lon="4.61991">
        <ele>1229.2</ele>
        <time>2014-04-19T15:22:15.120Z</time>
      </trkpt>
      <trkpt lat="45.40059" lon="4.62">
        <ele>1228.8</ele>
        <time>2014-04-19T15:22:15.947Z</time>
      </trkpt>
      <trkpt lat="45.40059" lon="4.62">
        <ele>1228.8</ele>
        <time>2014-04-19T15:22:16.093Z</time>
      </trkpt>
      <trkpt lat="45.40071" lon="4.62009">
        <ele>1228</ele>
        <time>2014-04-19T15:22:17.000Z</time>
      </trkpt>
      <trkpt lat="45.40071" lon="4.62009">
        <ele>1228</ele>
        <time>2014-04-19T15:22:17.245Z</time>
      </trkpt>
      <trkpt lat="45.40081" lon="4.62017">
        <ele>1226.6</ele>
        <time>2014-04-19T15:22:17.968Z</time>
      </trkpt>
      <trkpt lat="45.40081" lon="4.62017">
        <ele>1226.6</ele>
        <time>2014-04-19T15:22:18.120Z</time>
      </trkpt>
      <trkpt lat="45.4009" lon="4.62026">
        <ele>1224.8</ele>
        <time>2014-04-19T15:22:18.972Z</time>
      </trkpt>
      <trkpt lat="45.4009" lon="4.62026">
        <ele>1224.8</ele>
        <time>2014-04-19T15:22:19.280Z</time>
      </trkpt>
      <trkpt lat="45.40098" lon="4.62032">
        <ele>1223.3</ele>
        <time>2014-04-19T15:22:19.984Z</time>
      </trkpt>
      <trkpt lat="45.40106" lon="4.62035">
        <ele>1222.1</ele>
        <time>2014-04-19T15:22:21.591Z</time>
      </trkpt>
      <trkpt lat="45.40114" lon="4.62035">
        <ele>1221.2</ele>
        <time>2014-04-19T15:22:21.925Z</time>
      </trkpt>
      <trkpt lat="45.40122" lon="4.62033">
        <ele>1220.5</ele>
        <time>2014-04-19T15:22:22.967Z</time>
      </trkpt>
      <trkpt lat="45.40129" lon="4.6203">
        <ele>1219.9</ele>
        <time>2014-04-19T15:22:23.973Z</time>
      </trkpt>
      <trkpt lat="45.40137" lon="4.62026">
        <ele>1219.3</ele>
        <time>2014-04-19T15:22:24.955Z</time>
      </trkpt>
      <trkpt lat="45.40144" lon="4.62018">
        <ele>1218.7</ele>
        <time>2014-04-19T15:22:25.963Z</time>
      </trkpt>
      <trkpt lat="45.40144" lon="4.62018">
        <ele>1218.7</ele>
        <time>2014-04-19T15:22:26.111Z</time>
      </trkpt>
      <trkpt lat="45.40152" lon="4.62011">
        <ele>1218.3</ele>
        <time>2014-04-19T15:22:26.976Z</time>
      </trkpt>
      <trkpt lat="45.40152" lon="4.62011">
        <ele>1218.3</ele>
        <time>2014-04-19T15:22:27.164Z</time>
      </trkpt>
      <trkpt lat="45.40159" lon="4.62002">
        <ele>1218</ele>
        <time>2014-04-19T15:22:28.004Z</time>
      </trkpt>
      <trkpt lat="45.40159" lon="4.62002">
        <ele>1218</ele>
        <time>2014-04-19T15:22:28.310Z</time>
      </trkpt>
      <trkpt lat="45.40168" lon="4.61993">
        <ele>1217.5</ele>
        <time>2014-04-19T15:22:28.981Z</time>
      </trkpt>
      <trkpt lat="45.40168" lon="4.61993">
        <ele>1217.5</ele>
        <time>2014-04-19T15:22:29.375Z</time>
      </trkpt>
      <trkpt lat="45.40176" lon="4.61983">
        <ele>1217</ele>
        <time>2014-04-19T15:22:29.984Z</time>
      </trkpt>
      <trkpt lat="45.40176" lon="4.61983">
        <ele>1217</ele>
        <time>2014-04-19T15:22:30.170Z</time>
      </trkpt>
      <trkpt lat="45.40183" lon="4.61973">
        <ele>1216.4</ele>
        <time>2014-04-19T15:22:30.986Z</time>
      </trkpt>
      <trkpt lat="45.40183" lon="4.61973">
        <ele>1216.4</ele>
        <time>2014-04-19T15:22:31.174Z</time>
      </trkpt>
      <trkpt lat="45.40191" lon="4.61964">
        <ele>1215.9</ele>
        <time>2014-04-19T15:22:31.933Z</time>
      </trkpt>
      <trkpt lat="45.40191" lon="4.61964">
        <ele>1215.9</ele>
        <time>2014-04-19T15:22:32.094Z</time>
      </trkpt>
      <trkpt lat="45.40198" lon="4.61955">
        <ele>1215.5</ele>
        <time>2014-04-19T15:22:32.977Z</time>
      </trkpt>
      <trkpt lat="45.40198" lon="4.61955">
        <ele>1215.5</ele>
        <time>2014-04-19T15:22:33.176Z</time>
      </trkpt>
      <trkpt lat="45.40205" lon="4.61944">
        <ele>1215.2</ele>
        <time>2014-04-19T15:22:33.973Z</time>
      </trkpt>
      <trkpt lat="45.40205" lon="4.61944">
        <ele>1215.2</ele>
        <time>2014-04-19T15:22:34.173Z</time>
      </trkpt>
      <trkpt lat="45.40213" lon="4.61932">
        <ele>1214.8</ele>
        <time>2014-04-19T15:22:34.939Z</time>
      </trkpt>
      <trkpt lat="45.40213" lon="4.61932">
        <ele>1214.8</ele>
        <time>2014-04-19T15:22:35.122Z</time>
      </trkpt>
      <trkpt lat="45.4022" lon="4.6192">
        <ele>1214.2</ele>
        <time>2014-04-19T15:22:35.977Z</time>
      </trkpt>
      <trkpt lat="45.4022" lon="4.6192">
        <ele>1214.2</ele>
        <time>2014-04-19T15:22:36.238Z</time>
      </trkpt>
      <trkpt lat="45.40227" lon="4.61908">
        <ele>1213.2</ele>
        <time>2014-04-19T15:22:36.944Z</time>
      </trkpt>
      <trkpt lat="45.40227" lon="4.61908">
        <ele>1213.2</ele>
        <time>2014-04-19T15:22:37.122Z</time>
      </trkpt>
      <trkpt lat="45.40234" lon="4.61897">
        <ele>1212</ele>
        <time>2014-04-19T15:22:38.031Z</time>
      </trkpt>
      <trkpt lat="45.40234" lon="4.61897">
        <ele>1212</ele>
        <time>2014-04-19T15:22:38.163Z</time>
      </trkpt>
      <trkpt lat="45.40241" lon="4.61885">
        <ele>1210.7</ele>
        <time>2014-04-19T15:22:38.976Z</time>
      </trkpt>
      <trkpt lat="45.40241" lon="4.61885">
        <ele>1210.7</ele>
        <time>2014-04-19T15:22:39.285Z</time>
      </trkpt>
      <trkpt lat="45.40247" lon="4.61874">
        <ele>1209.4</ele>
        <time>2014-04-19T15:22:39.965Z</time>
      </trkpt>
      <trkpt lat="45.40247" lon="4.61874">
        <ele>1209.4</ele>
        <time>2014-04-19T15:22:40.198Z</time>
      </trkpt>
      <trkpt lat="45.40254" lon="4.61864">
        <ele>1208.1</ele>
        <time>2014-04-19T15:22:40.976Z</time>
      </trkpt>
      <trkpt lat="45.40254" lon="4.61864">
        <ele>1208.1</ele>
        <time>2014-04-19T15:22:41.188Z</time>
      </trkpt>
      <trkpt lat="45.4026" lon="4.61854">
        <ele>1207</ele>
        <time>2014-04-19T15:22:41.955Z</time>
      </trkpt>
      <trkpt lat="45.4026" lon="4.61854">
        <ele>1207</ele>
        <time>2014-04-19T15:22:42.151Z</time>
      </trkpt>
      <trkpt lat="45.40267" lon="4.61845">
        <ele>1205.8</ele>
        <time>2014-04-19T15:22:42.958Z</time>
      </trkpt>
      <trkpt lat="45.40273" lon="4.61836">
        <ele>1204.8</ele>
        <time>2014-04-19T15:22:44.048Z</time>
      </trkpt>
      <trkpt lat="45.4028" lon="4.61829">
        <ele>1204</ele>
        <time>2014-04-19T15:22:44.921Z</time>
      </trkpt>
      <trkpt lat="45.40287" lon="4.61825">
        <ele>1203.6</ele>
        <time>2014-04-19T15:22:46.019Z</time>
      </trkpt>
      <trkpt lat="45.40295" lon="4.6182">
        <ele>1203.3</ele>
        <time>2014-04-19T15:22:46.928Z</time>
      </trkpt>
      <trkpt lat="45.40303" lon="4.61817">
        <ele>1202.8</ele>
        <time>2014-04-19T15:22:47.967Z</time>
      </trkpt>
      <trkpt lat="45.40311" lon="4.61815">
        <ele>1202</ele>
        <time>2014-04-19T15:22:48.966Z</time>
      </trkpt>
      <trkpt lat="45.40319" lon="4.61814">
        <ele>1201.4</ele>
        <time>2014-04-19T15:22:49.979Z</time>
      </trkpt>
      <trkpt lat="45.40328" lon="4.61813">
        <ele>1200.8</ele>
        <time>2014-04-19T15:22:50.975Z</time>
      </trkpt>
      <trkpt lat="45.40337" lon="4.61812">
        <ele>1200.7</ele>
        <time>2014-04-19T15:22:51.982Z</time>
      </trkpt>
      <trkpt lat="45.40346" lon="4.61813">
        <ele>1200.9</ele>
        <time>2014-04-19T15:22:53.087Z</time>
      </trkpt>
      <trkpt lat="45.40346" lon="4.61813">
        <ele>1200.9</ele>
        <time>2014-04-19T15:22:53.638Z</time>
      </trkpt>
      <trkpt lat="45.40356" lon="4.61813">
        <ele>1201.1</ele>
        <time>2014-04-19T15:22:53.905Z</time>
      </trkpt>
      <trkpt lat="45.40356" lon="4.61813">
        <ele>1201.1</ele>
        <time>2014-04-19T15:22:54.027Z</time>
      </trkpt>
      <trkpt lat="45.40366" lon="4.61815">
        <ele>1201.2</ele>
        <time>2014-04-19T15:22:54.928Z</time>
      </trkpt>
      <trkpt lat="45.40366" lon="4.61815">
        <ele>1201.2</ele>
        <time>2014-04-19T15:22:55.310Z</time>
      </trkpt>
      <trkpt lat="45.40375" lon="4.61816">
        <ele>1201.1</ele>
        <time>2014-04-19T15:22:55.980Z</time>
      </trkpt>
      <trkpt lat="45.40383" lon="4.61817">
        <ele>1200.7</ele>
        <time>2014-04-19T15:22:57.233Z</time>
      </trkpt>
      <trkpt lat="45.40392" lon="4.61819">
        <ele>1200.7</ele>
        <time>2014-04-19T15:22:57.914Z</time>
      </trkpt>
      <trkpt lat="45.40401" lon="4.6182">
        <ele>1200.3</ele>
        <time>2014-04-19T15:22:58.955Z</time>
      </trkpt>
      <trkpt lat="45.4041" lon="4.61821">
        <ele>1199.8</ele>
        <time>2014-04-19T15:23:00.053Z</time>
      </trkpt>
      <trkpt lat="45.40418" lon="4.61823">
        <ele>1198.9</ele>
        <time>2014-04-19T15:23:00.958Z</time>
      </trkpt>
      <trkpt lat="45.40427" lon="4.61825">
        <ele>1198.2</ele>
        <time>2014-04-19T15:23:01.914Z</time>
      </trkpt>
      <trkpt lat="45.40427" lon="4.61825">
        <ele>1198.2</ele>
        <time>2014-04-19T15:23:02.101Z</time>
      </trkpt>
      <trkpt lat="45.40437" lon="4.61828">
        <ele>1197.1</ele>
        <time>2014-04-19T15:23:02.964Z</time>
      </trkpt>
      <trkpt lat="45.40437" lon="4.61828">
        <ele>1197.1</ele>
        <time>2014-04-19T15:23:03.750Z</time>
      </trkpt>
      <trkpt lat="45.40448" lon="4.61831">
        <ele>1195.8</ele>
        <time>2014-04-19T15:23:03.929Z</time>
      </trkpt>
      <trkpt lat="45.40448" lon="4.61831">
        <ele>1195.8</ele>
        <time>2014-04-19T15:23:04.117Z</time>
      </trkpt>
      <trkpt lat="45.4046" lon="4.61835">
        <ele>1194.1</ele>
        <time>2014-04-19T15:23:04.970Z</time>
      </trkpt>
      <trkpt lat="45.4046" lon="4.61835">
        <ele>1194.1</ele>
        <time>2014-04-19T15:23:05.244Z</time>
      </trkpt>
      <trkpt lat="45.40472" lon="4.61838">
        <ele>1192.8</ele>
        <time>2014-04-19T15:23:05.973Z</time>
      </trkpt>
      <trkpt lat="45.40472" lon="4.61838">
        <ele>1192.8</ele>
        <time>2014-04-19T15:23:06.232Z</time>
      </trkpt>
      <trkpt lat="45.40485" lon="4.61841">
        <ele>1191.7</ele>
        <time>2014-04-19T15:23:06.919Z</time>
      </trkpt>
      <trkpt lat="45.40485" lon="4.61841">
        <ele>1191.7</ele>
        <time>2014-04-19T15:23:07.236Z</time>
      </trkpt>
      <trkpt lat="45.40497" lon="4.61844">
        <ele>1190.6</ele>
        <time>2014-04-19T15:23:07.968Z</time>
      </trkpt>
      <trkpt lat="45.40497" lon="4.61844">
        <ele>1190.6</ele>
        <time>2014-04-19T15:23:08.940Z</time>
      </trkpt>
      <trkpt lat="45.40509" lon="4.61848">
        <ele>1189.5</ele>
        <time>2014-04-19T15:23:09.001Z</time>
      </trkpt>
      <trkpt lat="45.40509" lon="4.61848">
        <ele>1189.5</ele>
        <time>2014-04-19T15:23:09.291Z</time>
      </trkpt>
      <trkpt lat="45.4053" lon="4.61853">
        <ele>1187.5</ele>
        <time>2014-04-19T15:23:11.291Z</time>
      </trkpt>
      <trkpt lat="45.4053" lon="4.61853">
        <ele>1187.5</ele>
        <time>2014-04-19T15:23:11.580Z</time>
      </trkpt>
      <trkpt lat="45.40539" lon="4.61855">
        <ele>1186.5</ele>
        <time>2014-04-19T15:23:11.990Z</time>
      </trkpt>
      <trkpt lat="45.40547" lon="4.61857">
        <ele>1185.7</ele>
        <time>2014-04-19T15:23:12.933Z</time>
      </trkpt>
      <trkpt lat="45.40556" lon="4.61858">
        <ele>1184.9</ele>
        <time>2014-04-19T15:23:13.914Z</time>
      </trkpt>
      <trkpt lat="45.40556" lon="4.61858">
        <ele>1184.9</ele>
        <time>2014-04-19T15:23:13.948Z</time>
      </trkpt>
      <trkpt lat="45.40567" lon="4.61859">
        <ele>1183.6</ele>
        <time>2014-04-19T15:23:14.916Z</time>
      </trkpt>
      <trkpt lat="45.40567" lon="4.61859">
        <ele>1183.6</ele>
        <time>2014-04-19T15:23:14.925Z</time>
      </trkpt>
      <trkpt lat="45.40578" lon="4.6186">
        <ele>1182.5</ele>
        <time>2014-04-19T15:23:15.923Z</time>
      </trkpt>
      <trkpt lat="45.40578" lon="4.6186">
        <ele>1182.5</ele>
        <time>2014-04-19T15:23:15.945Z</time>
      </trkpt>
      <trkpt lat="45.40589" lon="4.61861">
        <ele>1181.7</ele>
        <time>2014-04-19T15:23:16.939Z</time>
      </trkpt>
      <trkpt lat="45.40589" lon="4.61861">
        <ele>1181.7</ele>
        <time>2014-04-19T15:23:16.956Z</time>
      </trkpt>
      <trkpt lat="45.406" lon="4.61861">
        <ele>1180.8</ele>
        <time>2014-04-19T15:23:17.920Z</time>
      </trkpt>
      <trkpt lat="45.406" lon="4.61861">
        <ele>1180.8</ele>
        <time>2014-04-19T15:23:17.945Z</time>
      </trkpt>
      <trkpt lat="45.4061" lon="4.6186">
        <ele>1179.7</ele>
        <time>2014-04-19T15:23:18.921Z</time>
      </trkpt>
      <trkpt lat="45.4061" lon="4.6186">
        <ele>1179.7</ele>
        <time>2014-04-19T15:23:18.951Z</time>
      </trkpt>
      <trkpt lat="45.4062" lon="4.61859">
        <ele>1178</ele>
        <time>2014-04-19T15:23:19.920Z</time>
      </trkpt>
      <trkpt lat="45.4062" lon="4.61859">
        <ele>1178</ele>
        <time>2014-04-19T15:23:19.934Z</time>
      </trkpt>
      <trkpt lat="45.40631" lon="4.61857">
        <ele>1176.4</ele>
        <time>2014-04-19T15:23:20.936Z</time>
      </trkpt>
      <trkpt lat="45.40631" lon="4.61857">
        <ele>1176.4</ele>
        <time>2014-04-19T15:23:20.957Z</time>
      </trkpt>
      <trkpt lat="45.40641" lon="4.61855">
        <ele>1175.2</ele>
        <time>2014-04-19T15:23:21.923Z</time>
      </trkpt>
      <trkpt lat="45.40641" lon="4.61855">
        <ele>1175.2</ele>
        <time>2014-04-19T15:23:21.936Z</time>
      </trkpt>
      <trkpt lat="45.40651" lon="4.61854">
        <ele>1174.4</ele>
        <time>2014-04-19T15:23:22.926Z</time>
      </trkpt>
      <trkpt lat="45.40651" lon="4.61854">
        <ele>1174.4</ele>
        <time>2014-04-19T15:23:22.939Z</time>
      </trkpt>
      <trkpt lat="45.40661" lon="4.61852">
        <ele>1173.7</ele>
        <time>2014-04-19T15:23:23.931Z</time>
      </trkpt>
      <trkpt lat="45.40661" lon="4.61852">
        <ele>1173.7</ele>
        <time>2014-04-19T15:23:23.953Z</time>
      </trkpt>
      <trkpt lat="45.40671" lon="4.61851">
        <ele>1172.8</ele>
        <time>2014-04-19T15:23:24.946Z</time>
      </trkpt>
      <trkpt lat="45.40671" lon="4.61851">
        <ele>1172.8</ele>
        <time>2014-04-19T15:23:25.042Z</time>
      </trkpt>
      <trkpt lat="45.40682" lon="4.61849">
        <ele>1171.9</ele>
        <time>2014-04-19T15:23:25.934Z</time>
      </trkpt>
      <trkpt lat="45.40682" lon="4.61849">
        <ele>1171.9</ele>
        <time>2014-04-19T15:23:26.070Z</time>
      </trkpt>
      <trkpt lat="45.40693" lon="4.61848">
        <ele>1170.7</ele>
        <time>2014-04-19T15:23:26.927Z</time>
      </trkpt>
      <trkpt lat="45.40693" lon="4.61848">
        <ele>1170.7</ele>
        <time>2014-04-19T15:23:27.107Z</time>
      </trkpt>
      <trkpt lat="45.40703" lon="4.61848">
        <ele>1169.6</ele>
        <time>2014-04-19T15:23:27.919Z</time>
      </trkpt>
      <trkpt lat="45.40703" lon="4.61848">
        <ele>1169.6</ele>
        <time>2014-04-19T15:23:28.069Z</time>
      </trkpt>
      <trkpt lat="45.40714" lon="4.61847">
        <ele>1168.5</ele>
        <time>2014-04-19T15:23:29.134Z</time>
      </trkpt>
      <trkpt lat="45.40714" lon="4.61847">
        <ele>1168.5</ele>
        <time>2014-04-19T15:23:29.308Z</time>
      </trkpt>
      <trkpt lat="45.40724" lon="4.61848">
        <ele>1167.5</ele>
        <time>2014-04-19T15:23:29.906Z</time>
      </trkpt>
      <trkpt lat="45.40724" lon="4.61848">
        <ele>1167.5</ele>
        <time>2014-04-19T15:23:30.092Z</time>
      </trkpt>
      <trkpt lat="45.40735" lon="4.61849">
        <ele>1166.8</ele>
        <time>2014-04-19T15:23:30.996Z</time>
      </trkpt>
      <trkpt lat="45.40735" lon="4.61849">
        <ele>1166.8</ele>
        <time>2014-04-19T15:23:31.351Z</time>
      </trkpt>
      <trkpt lat="45.40745" lon="4.61851">
        <ele>1166.2</ele>
        <time>2014-04-19T15:23:32.017Z</time>
      </trkpt>
      <trkpt lat="45.40745" lon="4.61851">
        <ele>1166.2</ele>
        <time>2014-04-19T15:23:32.157Z</time>
      </trkpt>
      <trkpt lat="45.40755" lon="4.61853">
        <ele>1165.5</ele>
        <time>2014-04-19T15:23:33.003Z</time>
      </trkpt>
      <trkpt lat="45.40755" lon="4.61853">
        <ele>1165.5</ele>
        <time>2014-04-19T15:23:33.116Z</time>
      </trkpt>
      <trkpt lat="45.40765" lon="4.61855">
        <ele>1165.3</ele>
        <time>2014-04-19T15:23:33.974Z</time>
      </trkpt>
      <trkpt lat="45.40765" lon="4.61855">
        <ele>1165.3</ele>
        <time>2014-04-19T15:23:34.253Z</time>
      </trkpt>
      <trkpt lat="45.40775" lon="4.61859">
        <ele>1165.1</ele>
        <time>2014-04-19T15:23:34.931Z</time>
      </trkpt>
      <trkpt lat="45.40775" lon="4.61859">
        <ele>1165.1</ele>
        <time>2014-04-19T15:23:35.125Z</time>
      </trkpt>
      <trkpt lat="45.40786" lon="4.61863">
        <ele>1164.8</ele>
        <time>2014-04-19T15:23:35.976Z</time>
      </trkpt>
      <trkpt lat="45.40786" lon="4.61863">
        <ele>1164.8</ele>
        <time>2014-04-19T15:23:36.190Z</time>
      </trkpt>
      <trkpt lat="45.40797" lon="4.61868">
        <ele>1164.2</ele>
        <time>2014-04-19T15:23:36.932Z</time>
      </trkpt>
      <trkpt lat="45.40797" lon="4.61868">
        <ele>1164.2</ele>
        <time>2014-04-19T15:23:37.180Z</time>
      </trkpt>
      <trkpt lat="45.40807" lon="4.61873">
        <ele>1163.8</ele>
        <time>2014-04-19T15:23:37.926Z</time>
      </trkpt>
      <trkpt lat="45.40807" lon="4.61873">
        <ele>1163.8</ele>
        <time>2014-04-19T15:23:38.136Z</time>
      </trkpt>
      <trkpt lat="45.40816" lon="4.61878">
        <ele>1163.1</ele>
        <time>2014-04-19T15:23:38.933Z</time>
      </trkpt>
      <trkpt lat="45.40816" lon="4.61878">
        <ele>1163.1</ele>
        <time>2014-04-19T15:23:39.353Z</time>
      </trkpt>
      <trkpt lat="45.40826" lon="4.61884">
        <ele>1162.4</ele>
        <time>2014-04-19T15:23:39.926Z</time>
      </trkpt>
      <trkpt lat="45.40826" lon="4.61884">
        <ele>1162.4</ele>
        <time>2014-04-19T15:23:40.093Z</time>
      </trkpt>
      <trkpt lat="45.40836" lon="4.61891">
        <ele>1161.5</ele>
        <time>2014-04-19T15:23:40.968Z</time>
      </trkpt>
      <trkpt lat="45.40836" lon="4.61891">
        <ele>1161.5</ele>
        <time>2014-04-19T15:23:41.138Z</time>
      </trkpt>
      <trkpt lat="45.40846" lon="4.61897">
        <ele>1160.7</ele>
        <time>2014-04-19T15:23:41.925Z</time>
      </trkpt>
      <trkpt lat="45.40846" lon="4.61897">
        <ele>1160.7</ele>
        <time>2014-04-19T15:23:42.092Z</time>
      </trkpt>
      <trkpt lat="45.40855" lon="4.61902">
        <ele>1159.8</ele>
        <time>2014-04-19T15:23:42.925Z</time>
      </trkpt>
      <trkpt lat="45.40855" lon="4.61902">
        <ele>1159.8</ele>
        <time>2014-04-19T15:23:43.096Z</time>
      </trkpt>
      <trkpt lat="45.40865" lon="4.61909">
        <ele>1159.1</ele>
        <time>2014-04-19T15:23:43.970Z</time>
      </trkpt>
      <trkpt lat="45.40865" lon="4.61909">
        <ele>1159.1</ele>
        <time>2014-04-19T15:23:44.319Z</time>
      </trkpt>
      <trkpt lat="45.40875" lon="4.61916">
        <ele>1158.4</ele>
        <time>2014-04-19T15:23:44.920Z</time>
      </trkpt>
      <trkpt lat="45.40875" lon="4.61916">
        <ele>1158.4</ele>
        <time>2014-04-19T15:23:45.123Z</time>
      </trkpt>
      <trkpt lat="45.40884" lon="4.61924">
        <ele>1157.6</ele>
        <time>2014-04-19T15:23:45.967Z</time>
      </trkpt>
      <trkpt lat="45.40884" lon="4.61924">
        <ele>1157.6</ele>
        <time>2014-04-19T15:23:46.269Z</time>
      </trkpt>
      <trkpt lat="45.40893" lon="4.61932">
        <ele>1156.6</ele>
        <time>2014-04-19T15:23:46.927Z</time>
      </trkpt>
      <trkpt lat="45.40893" lon="4.61932">
        <ele>1156.6</ele>
        <time>2014-04-19T15:23:47.083Z</time>
      </trkpt>
      <trkpt lat="45.40903" lon="4.61941">
        <ele>1155.7</ele>
        <time>2014-04-19T15:23:47.928Z</time>
      </trkpt>
      <trkpt lat="45.40903" lon="4.61941">
        <ele>1155.7</ele>
        <time>2014-04-19T15:23:48.068Z</time>
      </trkpt>
      <trkpt lat="45.40913" lon="4.6195">
        <ele>1154.8</ele>
        <time>2014-04-19T15:23:48.931Z</time>
      </trkpt>
      <trkpt lat="45.40913" lon="4.6195">
        <ele>1154.8</ele>
        <time>2014-04-19T15:23:49.351Z</time>
      </trkpt>
      <trkpt lat="45.40923" lon="4.61959">
        <ele>1153.8</ele>
        <time>2014-04-19T15:23:49.993Z</time>
      </trkpt>
      <trkpt lat="45.40923" lon="4.61959">
        <ele>1153.8</ele>
        <time>2014-04-19T15:23:50.443Z</time>
      </trkpt>
      <trkpt lat="45.40933" lon="4.61967">
        <ele>1152.5</ele>
        <time>2014-04-19T15:23:50.927Z</time>
      </trkpt>
      <trkpt lat="45.40933" lon="4.61967">
        <ele>1152.5</ele>
        <time>2014-04-19T15:23:51.092Z</time>
      </trkpt>
      <trkpt lat="45.40943" lon="4.61975">
        <ele>1151.4</ele>
        <time>2014-04-19T15:23:51.971Z</time>
      </trkpt>
      <trkpt lat="45.40943" lon="4.61975">
        <ele>1151.4</ele>
        <time>2014-04-19T15:23:52.169Z</time>
      </trkpt>
      <trkpt lat="45.40952" lon="4.61983">
        <ele>1150.3</ele>
        <time>2014-04-19T15:23:52.932Z</time>
      </trkpt>
      <trkpt lat="45.40952" lon="4.61983">
        <ele>1150.3</ele>
        <time>2014-04-19T15:23:53.161Z</time>
      </trkpt>
      <trkpt lat="45.40963" lon="4.61993">
        <ele>1149.5</ele>
        <time>2014-04-19T15:23:54.482Z</time>
      </trkpt>
      <trkpt lat="45.40963" lon="4.61993">
        <ele>1149.5</ele>
        <time>2014-04-19T15:23:54.533Z</time>
      </trkpt>
      <trkpt lat="45.40973" lon="4.62002">
        <ele>1148.9</ele>
        <time>2014-04-19T15:23:54.923Z</time>
      </trkpt>
      <trkpt lat="45.40973" lon="4.62002">
        <ele>1148.9</ele>
        <time>2014-04-19T15:23:55.071Z</time>
      </trkpt>
      <trkpt lat="45.40984" lon="4.62012">
        <ele>1148.1</ele>
        <time>2014-04-19T15:23:55.923Z</time>
      </trkpt>
      <trkpt lat="45.40984" lon="4.62012">
        <ele>1148.1</ele>
        <time>2014-04-19T15:23:56.069Z</time>
      </trkpt>
      <trkpt lat="45.40995" lon="4.62023">
        <ele>1147.2</ele>
        <time>2014-04-19T15:23:56.974Z</time>
      </trkpt>
      <trkpt lat="45.40995" lon="4.62023">
        <ele>1147.2</ele>
        <time>2014-04-19T15:23:57.152Z</time>
      </trkpt>
      <trkpt lat="45.41005" lon="4.62033">
        <ele>1146.2</ele>
        <time>2014-04-19T15:23:57.970Z</time>
      </trkpt>
      <trkpt lat="45.41005" lon="4.62033">
        <ele>1146.2</ele>
        <time>2014-04-19T15:23:58.141Z</time>
      </trkpt>
      <trkpt lat="45.41016" lon="4.62044">
        <ele>1144.7</ele>
        <time>2014-04-19T15:23:59.004Z</time>
      </trkpt>
      <trkpt lat="45.41016" lon="4.62044">
        <ele>1144.7</ele>
        <time>2014-04-19T15:23:59.572Z</time>
      </trkpt>
      <trkpt lat="45.41027" lon="4.62055">
        <ele>1143.1</ele>
        <time>2014-04-19T15:23:59.938Z</time>
      </trkpt>
      <trkpt lat="45.41027" lon="4.62055">
        <ele>1143.1</ele>
        <time>2014-04-19T15:24:00.159Z</time>
      </trkpt>
      <trkpt lat="45.41038" lon="4.62067">
        <ele>1141.5</ele>
        <time>2014-04-19T15:24:00.985Z</time>
      </trkpt>
      <trkpt lat="45.41038" lon="4.62067">
        <ele>1141.5</ele>
        <time>2014-04-19T15:24:01.173Z</time>
      </trkpt>
      <trkpt lat="45.41048" lon="4.62078">
        <ele>1140.4</ele>
        <time>2014-04-19T15:24:01.943Z</time>
      </trkpt>
      <trkpt lat="45.41048" lon="4.62078">
        <ele>1140.4</ele>
        <time>2014-04-19T15:24:02.138Z</time>
      </trkpt>
      <trkpt lat="45.4106" lon="4.62089">
        <ele>1139.4</ele>
        <time>2014-04-19T15:24:02.987Z</time>
      </trkpt>
      <trkpt lat="45.4106" lon="4.62089">
        <ele>1139.4</ele>
        <time>2014-04-19T15:24:03.251Z</time>
      </trkpt>
      <trkpt lat="45.4107" lon="4.62099">
        <ele>1138.4</ele>
        <time>2014-04-19T15:24:03.947Z</time>
      </trkpt>
      <trkpt lat="45.4107" lon="4.62099">
        <ele>1138.4</ele>
        <time>2014-04-19T15:24:04.563Z</time>
      </trkpt>
      <trkpt lat="45.4108" lon="4.62108">
        <ele>1137.3</ele>
        <time>2014-04-19T15:24:05.067Z</time>
      </trkpt>
      <trkpt lat="45.4108" lon="4.62108">
        <ele>1137.3</ele>
        <time>2014-04-19T15:24:05.196Z</time>
      </trkpt>
      <trkpt lat="45.4109" lon="4.62116">
        <ele>1135.7</ele>
        <time>2014-04-19T15:24:05.987Z</time>
      </trkpt>
      <trkpt lat="45.4109" lon="4.62116">
        <ele>1135.7</ele>
        <time>2014-04-19T15:24:06.163Z</time>
      </trkpt>
      <trkpt lat="45.411" lon="4.62124">
        <ele>1134.1</ele>
        <time>2014-04-19T15:24:06.990Z</time>
      </trkpt>
      <trkpt lat="45.411" lon="4.62124">
        <ele>1134.1</ele>
        <time>2014-04-19T15:24:07.221Z</time>
      </trkpt>
      <trkpt lat="45.4111" lon="4.62132">
        <ele>1132.5</ele>
        <time>2014-04-19T15:24:07.990Z</time>
      </trkpt>
      <trkpt lat="45.4111" lon="4.62132">
        <ele>1132.5</ele>
        <time>2014-04-19T15:24:08.218Z</time>
      </trkpt>
      <trkpt lat="45.4112" lon="4.6214">
        <ele>1130.9</ele>
        <time>2014-04-19T15:24:08.937Z</time>
      </trkpt>
      <trkpt lat="45.4112" lon="4.6214">
        <ele>1130.9</ele>
        <time>2014-04-19T15:24:09.601Z</time>
      </trkpt>
      <trkpt lat="45.4113" lon="4.62149">
        <ele>1129.5</ele>
        <time>2014-04-19T15:24:09.938Z</time>
      </trkpt>
      <trkpt lat="45.4113" lon="4.62149">
        <ele>1129.5</ele>
        <time>2014-04-19T15:24:10.087Z</time>
      </trkpt>
      <trkpt lat="45.41139" lon="4.62158">
        <ele>1128</ele>
        <time>2014-04-19T15:24:10.991Z</time>
      </trkpt>
      <trkpt lat="45.41139" lon="4.62158">
        <ele>1128</ele>
        <time>2014-04-19T15:24:11.193Z</time>
      </trkpt>
      <trkpt lat="45.41148" lon="4.62168">
        <ele>1126.4</ele>
        <time>2014-04-19T15:24:12.081Z</time>
      </trkpt>
      <trkpt lat="45.41148" lon="4.62168">
        <ele>1126.4</ele>
        <time>2014-04-19T15:24:12.405Z</time>
      </trkpt>
      <trkpt lat="45.41157" lon="4.62178">
        <ele>1125.1</ele>
        <time>2014-04-19T15:24:12.945Z</time>
      </trkpt>
      <trkpt lat="45.41157" lon="4.62178">
        <ele>1125.1</ele>
        <time>2014-04-19T15:24:13.088Z</time>
      </trkpt>
      <trkpt lat="45.41164" lon="4.62189">
        <ele>1124</ele>
        <time>2014-04-19T15:24:13.978Z</time>
      </trkpt>
      <trkpt lat="45.41164" lon="4.62189">
        <ele>1124</ele>
        <time>2014-04-19T15:24:14.768Z</time>
      </trkpt>
      <trkpt lat="45.41171" lon="4.62199">
        <ele>1123.1</ele>
        <time>2014-04-19T15:24:15.225Z</time>
      </trkpt>
      <trkpt lat="45.41171" lon="4.62199">
        <ele>1123.1</ele>
        <time>2014-04-19T15:24:15.327Z</time>
      </trkpt>
      <trkpt lat="45.41178" lon="4.6221">
        <ele>1121.9</ele>
        <time>2014-04-19T15:24:16.014Z</time>
      </trkpt>
      <trkpt lat="45.41178" lon="4.6221">
        <ele>1121.9</ele>
        <time>2014-04-19T15:24:16.183Z</time>
      </trkpt>
      <trkpt lat="45.41186" lon="4.62223">
        <ele>1120.7</ele>
        <time>2014-04-19T15:24:16.990Z</time>
      </trkpt>
      <trkpt lat="45.41186" lon="4.62223">
        <ele>1120.7</ele>
        <time>2014-04-19T15:24:17.253Z</time>
      </trkpt>
      <trkpt lat="45.41193" lon="4.62235">
        <ele>1119.8</ele>
        <time>2014-04-19T15:24:17.997Z</time>
      </trkpt>
      <trkpt lat="45.41193" lon="4.62235">
        <ele>1119.8</ele>
        <time>2014-04-19T15:24:18.246Z</time>
      </trkpt>
      <trkpt lat="45.41201" lon="4.62248">
        <ele>1119</ele>
        <time>2014-04-19T15:24:18.996Z</time>
      </trkpt>
      <trkpt lat="45.41201" lon="4.62248">
        <ele>1119</ele>
        <time>2014-04-19T15:24:19.654Z</time>
      </trkpt>
      <trkpt lat="45.41208" lon="4.6226">
        <ele>1117.7</ele>
        <time>2014-04-19T15:24:19.944Z</time>
      </trkpt>
      <trkpt lat="45.41208" lon="4.6226">
        <ele>1117.7</ele>
        <time>2014-04-19T15:24:20.081Z</time>
      </trkpt>
      <trkpt lat="45.41214" lon="4.62271">
        <ele>1116.2</ele>
        <time>2014-04-19T15:24:20.973Z</time>
      </trkpt>
      <trkpt lat="45.41214" lon="4.62271">
        <ele>1116.2</ele>
        <time>2014-04-19T15:24:21.107Z</time>
      </trkpt>
      <trkpt lat="45.41221" lon="4.62282">
        <ele>1114.5</ele>
        <time>2014-04-19T15:24:21.984Z</time>
      </trkpt>
      <trkpt lat="45.41221" lon="4.62282">
        <ele>1114.5</ele>
        <time>2014-04-19T15:24:22.184Z</time>
      </trkpt>
      <trkpt lat="45.41227" lon="4.62292">
        <ele>1112.9</ele>
        <time>2014-04-19T15:24:22.938Z</time>
      </trkpt>
      <trkpt lat="45.41227" lon="4.62292">
        <ele>1112.9</ele>
        <time>2014-04-19T15:24:23.218Z</time>
      </trkpt>
      <trkpt lat="45.41234" lon="4.62304">
        <ele>1111.5</ele>
        <time>2014-04-19T15:24:23.977Z</time>
      </trkpt>
      <trkpt lat="45.41234" lon="4.62304">
        <ele>1111.5</ele>
        <time>2014-04-19T15:24:24.798Z</time>
      </trkpt>
      <trkpt lat="45.4124" lon="4.62315">
        <ele>1110.3</ele>
        <time>2014-04-19T15:24:24.947Z</time>
      </trkpt>
      <trkpt lat="45.4124" lon="4.62315">
        <ele>1110.3</ele>
        <time>2014-04-19T15:24:25.103Z</time>
      </trkpt>
      <trkpt lat="45.41247" lon="4.62326">
        <ele>1109.2</ele>
        <time>2014-04-19T15:24:25.976Z</time>
      </trkpt>
      <trkpt lat="45.41247" lon="4.62326">
        <ele>1109.2</ele>
        <time>2014-04-19T15:24:26.173Z</time>
      </trkpt>
      <trkpt lat="45.41252" lon="4.62336">
        <ele>1108.2</ele>
        <time>2014-04-19T15:24:26.982Z</time>
      </trkpt>
      <trkpt lat="45.41258" lon="4.62345">
        <ele>1107.2</ele>
        <time>2014-04-19T15:24:28.410Z</time>
      </trkpt>
      <trkpt lat="45.41263" lon="4.62353">
        <ele>1106.3</ele>
        <time>2014-04-19T15:24:28.937Z</time>
      </trkpt>
      <trkpt lat="45.41268" lon="4.62362">
        <ele>1105.4</ele>
        <time>2014-04-19T15:24:29.965Z</time>
      </trkpt>
      <trkpt lat="45.41275" lon="4.62368">
        <ele>1104.4</ele>
        <time>2014-04-19T15:24:31.001Z</time>
      </trkpt>
      <trkpt lat="45.41281" lon="4.6237">
        <ele>1103.8</ele>
        <time>2014-04-19T15:24:32.347Z</time>
      </trkpt>
      <trkpt lat="45.41286" lon="4.62368">
        <ele>1103.7</ele>
        <time>2014-04-19T15:24:32.942Z</time>
      </trkpt>
      <trkpt lat="45.41293" lon="4.62364">
        <ele>1103.3</ele>
        <time>2014-04-19T15:24:34.026Z</time>
      </trkpt>
      <trkpt lat="45.41299" lon="4.62359">
        <ele>1102.8</ele>
        <time>2014-04-19T15:24:34.938Z</time>
      </trkpt>
      <trkpt lat="45.41305" lon="4.62351">
        <ele>1102.3</ele>
        <time>2014-04-19T15:24:36.154Z</time>
      </trkpt>
      <trkpt lat="45.41311" lon="4.62343">
        <ele>1101.8</ele>
        <time>2014-04-19T15:24:36.986Z</time>
      </trkpt>
      <trkpt lat="45.41317" lon="4.62335">
        <ele>1101.3</ele>
        <time>2014-04-19T15:24:37.987Z</time>
      </trkpt>
      <trkpt lat="45.41323" lon="4.62326">
        <ele>1100.7</ele>
        <time>2014-04-19T15:24:38.988Z</time>
      </trkpt>
      <trkpt lat="45.4133" lon="4.62317">
        <ele>1100.1</ele>
        <time>2014-04-19T15:24:40.074Z</time>
      </trkpt>
      <trkpt lat="45.41336" lon="4.62307">
        <ele>1099.4</ele>
        <time>2014-04-19T15:24:40.988Z</time>
      </trkpt>
      <trkpt lat="45.41336" lon="4.62307">
        <ele>1099.4</ele>
        <time>2014-04-19T15:24:41.177Z</time>
      </trkpt>
      <trkpt lat="45.41343" lon="4.62298">
        <ele>1098.7</ele>
        <time>2014-04-19T15:24:41.984Z</time>
      </trkpt>
      <trkpt lat="45.41343" lon="4.62298">
        <ele>1098.7</ele>
        <time>2014-04-19T15:24:42.187Z</time>
      </trkpt>
      <trkpt lat="45.4135" lon="4.62288">
        <ele>1098.1</ele>
        <time>2014-04-19T15:24:42.940Z</time>
      </trkpt>
      <trkpt lat="45.4135" lon="4.62288">
        <ele>1098.1</ele>
        <time>2014-04-19T15:24:43.121Z</time>
      </trkpt>
      <trkpt lat="45.41358" lon="4.62278">
        <ele>1097.7</ele>
        <time>2014-04-19T15:24:43.976Z</time>
      </trkpt>
      <trkpt lat="45.41358" lon="4.62278">
        <ele>1097.7</ele>
        <time>2014-04-19T15:24:44.214Z</time>
      </trkpt>
      <trkpt lat="45.41366" lon="4.62269">
        <ele>1097.2</ele>
        <time>2014-04-19T15:24:44.983Z</time>
      </trkpt>
      <trkpt lat="45.41366" lon="4.62269">
        <ele>1097.2</ele>
        <time>2014-04-19T15:24:45.318Z</time>
      </trkpt>
      <trkpt lat="45.41374" lon="4.6226">
        <ele>1096.7</ele>
        <time>2014-04-19T15:24:45.994Z</time>
      </trkpt>
      <trkpt lat="45.41374" lon="4.6226">
        <ele>1096.7</ele>
        <time>2014-04-19T15:24:46.193Z</time>
      </trkpt>
      <trkpt lat="45.41382" lon="4.62251">
        <ele>1096.3</ele>
        <time>2014-04-19T15:24:46.991Z</time>
      </trkpt>
      <trkpt lat="45.41382" lon="4.62251">
        <ele>1096.3</ele>
        <time>2014-04-19T15:24:47.215Z</time>
      </trkpt>
      <trkpt lat="45.4139" lon="4.62242">
        <ele>1095.8</ele>
        <time>2014-04-19T15:24:47.959Z</time>
      </trkpt>
      <trkpt lat="45.4139" lon="4.62242">
        <ele>1095.8</ele>
        <time>2014-04-19T15:24:48.147Z</time>
      </trkpt>
      <trkpt lat="45.41399" lon="4.62234">
        <ele>1095.3</ele>
        <time>2014-04-19T15:24:48.945Z</time>
      </trkpt>
      <trkpt lat="45.41399" lon="4.62234">
        <ele>1095.3</ele>
        <time>2014-04-19T15:24:49.151Z</time>
      </trkpt>
      <trkpt lat="45.41409" lon="4.62226">
        <ele>1094.9</ele>
        <time>2014-04-19T15:24:49.979Z</time>
      </trkpt>
      <trkpt lat="45.41409" lon="4.62226">
        <ele>1094.9</ele>
        <time>2014-04-19T15:24:50.256Z</time>
      </trkpt>
      <trkpt lat="45.41418" lon="4.62218">
        <ele>1094.3</ele>
        <time>2014-04-19T15:24:50.993Z</time>
      </trkpt>
      <trkpt lat="45.41418" lon="4.62218">
        <ele>1094.3</ele>
        <time>2014-04-19T15:24:51.179Z</time>
      </trkpt>
      <trkpt lat="45.41428" lon="4.62211">
        <ele>1093.7</ele>
        <time>2014-04-19T15:24:51.940Z</time>
      </trkpt>
      <trkpt lat="45.41428" lon="4.62211">
        <ele>1093.7</ele>
        <time>2014-04-19T15:24:52.128Z</time>
      </trkpt>
      <trkpt lat="45.41437" lon="4.62204">
        <ele>1093.5</ele>
        <time>2014-04-19T15:24:52.944Z</time>
      </trkpt>
      <trkpt lat="45.41437" lon="4.62204">
        <ele>1093.5</ele>
        <time>2014-04-19T15:24:53.946Z</time>
      </trkpt>
      <trkpt lat="45.41447" lon="4.62196">
        <ele>1093.2</ele>
        <time>2014-04-19T15:24:54.061Z</time>
      </trkpt>
      <trkpt lat="45.41447" lon="4.62196">
        <ele>1093.2</ele>
        <time>2014-04-19T15:24:54.223Z</time>
      </trkpt>
      <trkpt lat="45.41457" lon="4.62189">
        <ele>1092.7</ele>
        <time>2014-04-19T15:24:54.976Z</time>
      </trkpt>
      <trkpt lat="45.41457" lon="4.62189">
        <ele>1092.7</ele>
        <time>2014-04-19T15:24:55.344Z</time>
      </trkpt>
      <trkpt lat="45.41468" lon="4.62181">
        <ele>1092</ele>
        <time>2014-04-19T15:24:55.978Z</time>
      </trkpt>
      <trkpt lat="45.41468" lon="4.62181">
        <ele>1092</ele>
        <time>2014-04-19T15:24:56.211Z</time>
      </trkpt>
      <trkpt lat="45.41478" lon="4.62174">
        <ele>1091.2</ele>
        <time>2014-04-19T15:24:56.974Z</time>
      </trkpt>
      <trkpt lat="45.41478" lon="4.62174">
        <ele>1091.2</ele>
        <time>2014-04-19T15:24:57.140Z</time>
      </trkpt>
      <trkpt lat="45.41489" lon="4.62167">
        <ele>1090.8</ele>
        <time>2014-04-19T15:24:57.983Z</time>
      </trkpt>
      <trkpt lat="45.41489" lon="4.62167">
        <ele>1090.8</ele>
        <time>2014-04-19T15:24:58.201Z</time>
      </trkpt>
      <trkpt lat="45.41499" lon="4.6216">
        <ele>1090.2</ele>
        <time>2014-04-19T15:24:58.964Z</time>
      </trkpt>
      <trkpt lat="45.41499" lon="4.6216">
        <ele>1090.2</ele>
        <time>2014-04-19T15:24:59.042Z</time>
      </trkpt>
      <trkpt lat="45.4151" lon="4.62153">
        <ele>1089.4</ele>
        <time>2014-04-19T15:24:59.954Z</time>
      </trkpt>
      <trkpt lat="45.4151" lon="4.62153">
        <ele>1089.4</ele>
        <time>2014-04-19T15:25:00.213Z</time>
      </trkpt>
      <trkpt lat="45.4152" lon="4.62146">
        <ele>1088.5</ele>
        <time>2014-04-19T15:25:00.990Z</time>
      </trkpt>
      <trkpt lat="45.4152" lon="4.62146">
        <ele>1088.5</ele>
        <time>2014-04-19T15:25:01.141Z</time>
      </trkpt>
      <trkpt lat="45.4153" lon="4.62138">
        <ele>1087.4</ele>
        <time>2014-04-19T15:25:01.981Z</time>
      </trkpt>
      <trkpt lat="45.4153" lon="4.62138">
        <ele>1087.4</ele>
        <time>2014-04-19T15:25:02.148Z</time>
      </trkpt>
      <trkpt lat="45.41541" lon="4.6213">
        <ele>1086.5</ele>
        <time>2014-04-19T15:25:02.956Z</time>
      </trkpt>
      <trkpt lat="45.41541" lon="4.6213">
        <ele>1086.5</ele>
        <time>2014-04-19T15:25:03.187Z</time>
      </trkpt>
      <trkpt lat="45.41551" lon="4.62121">
        <ele>1086</ele>
        <time>2014-04-19T15:25:03.916Z</time>
      </trkpt>
      <trkpt lat="45.41551" lon="4.62121">
        <ele>1086</ele>
        <time>2014-04-19T15:25:04.020Z</time>
      </trkpt>
      <trkpt lat="45.4156" lon="4.62113">
        <ele>1085</ele>
        <time>2014-04-19T15:25:04.982Z</time>
      </trkpt>
      <trkpt lat="45.4156" lon="4.62113">
        <ele>1085</ele>
        <time>2014-04-19T15:25:05.236Z</time>
      </trkpt>
      <trkpt lat="45.4157" lon="4.62105">
        <ele>1084.2</ele>
        <time>2014-04-19T15:25:06.101Z</time>
      </trkpt>
      <trkpt lat="45.4157" lon="4.62105">
        <ele>1084.2</ele>
        <time>2014-04-19T15:25:06.274Z</time>
      </trkpt>
      <trkpt lat="45.4158" lon="4.62097">
        <ele>1083.4</ele>
        <time>2014-04-19T15:25:06.977Z</time>
      </trkpt>
      <trkpt lat="45.4158" lon="4.62097">
        <ele>1083.4</ele>
        <time>2014-04-19T15:25:07.190Z</time>
      </trkpt>
      <trkpt lat="45.41589" lon="4.6209">
        <ele>1082.6</ele>
        <time>2014-04-19T15:25:07.995Z</time>
      </trkpt>
      <trkpt lat="45.41589" lon="4.6209">
        <ele>1082.6</ele>
        <time>2014-04-19T15:25:08.224Z</time>
      </trkpt>
      <trkpt lat="45.41598" lon="4.62084">
        <ele>1082</ele>
        <time>2014-04-19T15:25:09.071Z</time>
      </trkpt>
      <trkpt lat="45.41598" lon="4.62084">
        <ele>1082</ele>
        <time>2014-04-19T15:25:09.513Z</time>
      </trkpt>
      <trkpt lat="45.41607" lon="4.62078">
        <ele>1081.7</ele>
        <time>2014-04-19T15:25:09.915Z</time>
      </trkpt>
      <trkpt lat="45.41616" lon="4.62073">
        <ele>1081.3</ele>
        <time>2014-04-19T15:25:11.054Z</time>
      </trkpt>
      <trkpt lat="45.41624" lon="4.6207">
        <ele>1080.9</ele>
        <time>2014-04-19T15:25:11.927Z</time>
      </trkpt>
      <trkpt lat="45.41631" lon="4.62067">
        <ele>1080.3</ele>
        <time>2014-04-19T15:25:13.106Z</time>
      </trkpt>
      <trkpt lat="45.4164" lon="4.62064">
        <ele>1079.4</ele>
        <time>2014-04-19T15:25:13.966Z</time>
      </trkpt>
      <trkpt lat="45.4164" lon="4.62064">
        <ele>1079.4</ele>
        <time>2014-04-19T15:25:14.493Z</time>
      </trkpt>
      <trkpt lat="45.41649" lon="4.6206">
        <ele>1078.3</ele>
        <time>2014-04-19T15:25:14.934Z</time>
      </trkpt>
      <trkpt lat="45.41649" lon="4.6206">
        <ele>1078.3</ele>
        <time>2014-04-19T15:25:15.164Z</time>
      </trkpt>
      <trkpt lat="45.41657" lon="4.62056">
        <ele>1077.2</ele>
        <time>2014-04-19T15:25:15.932Z</time>
      </trkpt>
      <trkpt lat="45.41665" lon="4.62053">
        <ele>1075.7</ele>
        <time>2014-04-19T15:25:16.971Z</time>
      </trkpt>
      <trkpt lat="45.41673" lon="4.62052">
        <ele>1074.5</ele>
        <time>2014-04-19T15:25:18.015Z</time>
      </trkpt>
      <trkpt lat="45.41682" lon="4.62051">
        <ele>1073.4</ele>
        <time>2014-04-19T15:25:19.590Z</time>
      </trkpt>
      <trkpt lat="45.41691" lon="4.6205">
        <ele>1072.6</ele>
        <time>2014-04-19T15:25:19.930Z</time>
      </trkpt>
      <trkpt lat="45.41691" lon="4.6205">
        <ele>1072.6</ele>
        <time>2014-04-19T15:25:20.114Z</time>
      </trkpt>
      <trkpt lat="45.417" lon="4.6205">
        <ele>1072.1</ele>
        <time>2014-04-19T15:25:20.932Z</time>
      </trkpt>
      <trkpt lat="45.417" lon="4.6205">
        <ele>1072.1</ele>
        <time>2014-04-19T15:25:21.122Z</time>
      </trkpt>
      <trkpt lat="45.41709" lon="4.62049">
        <ele>1071.6</ele>
        <time>2014-04-19T15:25:22.000Z</time>
      </trkpt>
      <trkpt lat="45.41709" lon="4.62049">
        <ele>1071.6</ele>
        <time>2014-04-19T15:25:22.355Z</time>
      </trkpt>
      <trkpt lat="45.41719" lon="4.62049">
        <ele>1071.1</ele>
        <time>2014-04-19T15:25:22.964Z</time>
      </trkpt>
      <trkpt lat="45.41719" lon="4.62049">
        <ele>1071.1</ele>
        <time>2014-04-19T15:25:23.207Z</time>
      </trkpt>
      <trkpt lat="45.4173" lon="4.62048">
        <ele>1070.7</ele>
        <time>2014-04-19T15:25:23.932Z</time>
      </trkpt>
      <trkpt lat="45.4173" lon="4.62048">
        <ele>1070.7</ele>
        <time>2014-04-19T15:25:24.579Z</time>
      </trkpt>
      <trkpt lat="45.41741" lon="4.62047">
        <ele>1070.2</ele>
        <time>2014-04-19T15:25:24.916Z</time>
      </trkpt>
      <trkpt lat="45.41741" lon="4.62047">
        <ele>1070.2</ele>
        <time>2014-04-19T15:25:25.096Z</time>
      </trkpt>
      <trkpt lat="45.41753" lon="4.62046">
        <ele>1069.9</ele>
        <time>2014-04-19T15:25:26.148Z</time>
      </trkpt>
      <trkpt lat="45.41753" lon="4.62046">
        <ele>1069.9</ele>
        <time>2014-04-19T15:25:26.334Z</time>
      </trkpt>
      <trkpt lat="45.41765" lon="4.62046">
        <ele>1069.5</ele>
        <time>2014-04-19T15:25:26.932Z</time>
      </trkpt>
      <trkpt lat="45.41765" lon="4.62046">
        <ele>1069.5</ele>
        <time>2014-04-19T15:25:27.094Z</time>
      </trkpt>
      <trkpt lat="45.41777" lon="4.62046">
        <ele>1069.1</ele>
        <time>2014-04-19T15:25:27.937Z</time>
      </trkpt>
      <trkpt lat="45.41777" lon="4.62046">
        <ele>1069.1</ele>
        <time>2014-04-19T15:25:28.105Z</time>
      </trkpt>
      <trkpt lat="45.41789" lon="4.62046">
        <ele>1068.3</ele>
        <time>2014-04-19T15:25:28.930Z</time>
      </trkpt>
      <trkpt lat="45.41789" lon="4.62046">
        <ele>1068.3</ele>
        <time>2014-04-19T15:25:29.593Z</time>
      </trkpt>
      <trkpt lat="45.418" lon="4.62046">
        <ele>1067.6</ele>
        <time>2014-04-19T15:25:29.929Z</time>
      </trkpt>
      <trkpt lat="45.418" lon="4.62046">
        <ele>1067.6</ele>
        <time>2014-04-19T15:25:30.121Z</time>
      </trkpt>
      <trkpt lat="45.4181" lon="4.62047">
        <ele>1066.8</ele>
        <time>2014-04-19T15:25:30.979Z</time>
      </trkpt>
      <trkpt lat="45.4181" lon="4.62047">
        <ele>1066.8</ele>
        <time>2014-04-19T15:25:31.188Z</time>
      </trkpt>
      <trkpt lat="45.41822" lon="4.62048">
        <ele>1066.6</ele>
        <time>2014-04-19T15:25:31.930Z</time>
      </trkpt>
      <trkpt lat="45.41822" lon="4.62048">
        <ele>1066.6</ele>
        <time>2014-04-19T15:25:32.220Z</time>
      </trkpt>
      <trkpt lat="45.41834" lon="4.6205">
        <ele>1066.4</ele>
        <time>2014-04-19T15:25:32.957Z</time>
      </trkpt>
      <trkpt lat="45.41834" lon="4.6205">
        <ele>1066.4</ele>
        <time>2014-04-19T15:25:33.241Z</time>
      </trkpt>
      <trkpt lat="45.41846" lon="4.62053">
        <ele>1065.8</ele>
        <time>2014-04-19T15:25:33.972Z</time>
      </trkpt>
      <trkpt lat="45.41846" lon="4.62053">
        <ele>1065.8</ele>
        <time>2014-04-19T15:25:34.688Z</time>
      </trkpt>
      <trkpt lat="45.41857" lon="4.62056">
        <ele>1064.8</ele>
        <time>2014-04-19T15:25:34.933Z</time>
      </trkpt>
      <trkpt lat="45.41857" lon="4.62056">
        <ele>1064.8</ele>
        <time>2014-04-19T15:25:35.425Z</time>
      </trkpt>
      <trkpt lat="45.4187" lon="4.62059">
        <ele>1064</ele>
        <time>2014-04-19T15:25:35.933Z</time>
      </trkpt>
      <trkpt lat="45.4187" lon="4.62059">
        <ele>1064</ele>
        <time>2014-04-19T15:25:36.089Z</time>
      </trkpt>
      <trkpt lat="45.41883" lon="4.62064">
        <ele>1062.5</ele>
        <time>2014-04-19T15:25:37.074Z</time>
      </trkpt>
      <trkpt lat="45.41883" lon="4.62064">
        <ele>1062.5</ele>
        <time>2014-04-19T15:25:37.269Z</time>
      </trkpt>
      <trkpt lat="45.41895" lon="4.62068">
        <ele>1061.4</ele>
        <time>2014-04-19T15:25:37.938Z</time>
      </trkpt>
      <trkpt lat="45.41895" lon="4.62068">
        <ele>1061.4</ele>
        <time>2014-04-19T15:25:38.254Z</time>
      </trkpt>
      <trkpt lat="45.41907" lon="4.62071">
        <ele>1060.2</ele>
        <time>2014-04-19T15:25:38.971Z</time>
      </trkpt>
      <trkpt lat="45.41907" lon="4.62071">
        <ele>1060.2</ele>
        <time>2014-04-19T15:25:39.659Z</time>
      </trkpt>
      <trkpt lat="45.41918" lon="4.62073">
        <ele>1059.3</ele>
        <time>2014-04-19T15:25:39.928Z</time>
      </trkpt>
      <trkpt lat="45.41918" lon="4.62073">
        <ele>1059.3</ele>
        <time>2014-04-19T15:25:40.062Z</time>
      </trkpt>
      <trkpt lat="45.41929" lon="4.62072">
        <ele>1058.7</ele>
        <time>2014-04-19T15:25:40.967Z</time>
      </trkpt>
      <trkpt lat="45.41929" lon="4.62072">
        <ele>1058.7</ele>
        <time>2014-04-19T15:25:41.134Z</time>
      </trkpt>
      <trkpt lat="45.41938" lon="4.62071">
        <ele>1057.9</ele>
        <time>2014-04-19T15:25:42.000Z</time>
      </trkpt>
      <trkpt lat="45.41938" lon="4.62071">
        <ele>1057.9</ele>
        <time>2014-04-19T15:25:42.229Z</time>
      </trkpt>
      <trkpt lat="45.41948" lon="4.6207">
        <ele>1057</ele>
        <time>2014-04-19T15:25:42.937Z</time>
      </trkpt>
      <trkpt lat="45.41948" lon="4.6207">
        <ele>1057</ele>
        <time>2014-04-19T15:25:43.236Z</time>
      </trkpt>
      <trkpt lat="45.41957" lon="4.62067">
        <ele>1056.4</ele>
        <time>2014-04-19T15:25:43.951Z</time>
      </trkpt>
      <trkpt lat="45.41957" lon="4.62067">
        <ele>1056.4</ele>
        <time>2014-04-19T15:25:44.685Z</time>
      </trkpt>
      <trkpt lat="45.41968" lon="4.62061">
        <ele>1055.9</ele>
        <time>2014-04-19T15:25:44.930Z</time>
      </trkpt>
      <trkpt lat="45.41968" lon="4.62061">
        <ele>1055.9</ele>
        <time>2014-04-19T15:25:45.139Z</time>
      </trkpt>
      <trkpt lat="45.41979" lon="4.62055">
        <ele>1054.6</ele>
        <time>2014-04-19T15:25:45.968Z</time>
      </trkpt>
      <trkpt lat="45.41979" lon="4.62055">
        <ele>1054.6</ele>
        <time>2014-04-19T15:25:46.195Z</time>
      </trkpt>
      <trkpt lat="45.4199" lon="4.62049">
        <ele>1052.8</ele>
        <time>2014-04-19T15:25:46.980Z</time>
      </trkpt>
      <trkpt lat="45.4199" lon="4.62049">
        <ele>1052.8</ele>
        <time>2014-04-19T15:25:47.254Z</time>
      </trkpt>
      <trkpt lat="45.42001" lon="4.62042">
        <ele>1051.3</ele>
        <time>2014-04-19T15:25:47.941Z</time>
      </trkpt>
      <trkpt lat="45.42001" lon="4.62042">
        <ele>1051.3</ele>
        <time>2014-04-19T15:25:48.332Z</time>
      </trkpt>
      <trkpt lat="45.42013" lon="4.62035">
        <ele>1049.7</ele>
        <time>2014-04-19T15:25:48.966Z</time>
      </trkpt>
      <trkpt lat="45.42013" lon="4.62035">
        <ele>1049.7</ele>
        <time>2014-04-19T15:25:49.659Z</time>
      </trkpt>
      <trkpt lat="45.42025" lon="4.62029">
        <ele>1048.2</ele>
        <time>2014-04-19T15:25:49.937Z</time>
      </trkpt>
      <trkpt lat="45.42025" lon="4.62029">
        <ele>1048.2</ele>
        <time>2014-04-19T15:25:50.075Z</time>
      </trkpt>
      <trkpt lat="45.42037" lon="4.62023">
        <ele>1046.7</ele>
        <time>2014-04-19T15:25:50.970Z</time>
      </trkpt>
      <trkpt lat="45.42037" lon="4.62023">
        <ele>1046.7</ele>
        <time>2014-04-19T15:25:51.148Z</time>
      </trkpt>
      <trkpt lat="45.4205" lon="4.62017">
        <ele>1045.3</ele>
        <time>2014-04-19T15:25:51.970Z</time>
      </trkpt>
      <trkpt lat="45.4205" lon="4.62017">
        <ele>1045.3</ele>
        <time>2014-04-19T15:25:52.144Z</time>
      </trkpt>
      <trkpt lat="45.42061" lon="4.62011">
        <ele>1043.9</ele>
        <time>2014-04-19T15:25:52.933Z</time>
      </trkpt>
      <trkpt lat="45.42061" lon="4.62011">
        <ele>1043.9</ele>
        <time>2014-04-19T15:25:53.797Z</time>
      </trkpt>
      <trkpt lat="45.42073" lon="4.62005">
        <ele>1042.4</ele>
        <time>2014-04-19T15:25:53.927Z</time>
      </trkpt>
      <trkpt lat="45.42073" lon="4.62005">
        <ele>1042.4</ele>
        <time>2014-04-19T15:25:54.044Z</time>
      </trkpt>
      <trkpt lat="45.42085" lon="4.61999">
        <ele>1041.1</ele>
        <time>2014-04-19T15:25:54.926Z</time>
      </trkpt>
      <trkpt lat="45.42085" lon="4.61999">
        <ele>1041.1</ele>
        <time>2014-04-19T15:25:55.063Z</time>
      </trkpt>
      <trkpt lat="45.42097" lon="4.61993">
        <ele>1039.8</ele>
        <time>2014-04-19T15:25:55.926Z</time>
      </trkpt>
      <trkpt lat="45.42097" lon="4.61993">
        <ele>1039.8</ele>
        <time>2014-04-19T15:25:56.064Z</time>
      </trkpt>
      <trkpt lat="45.42108" lon="4.61988">
        <ele>1038.6</ele>
        <time>2014-04-19T15:25:56.957Z</time>
      </trkpt>
      <trkpt lat="45.42108" lon="4.61988">
        <ele>1038.6</ele>
        <time>2014-04-19T15:25:57.137Z</time>
      </trkpt>
      <trkpt lat="45.4212" lon="4.61981">
        <ele>1037.4</ele>
        <time>2014-04-19T15:25:57.939Z</time>
      </trkpt>
      <trkpt lat="45.4212" lon="4.61981">
        <ele>1037.4</ele>
        <time>2014-04-19T15:25:58.107Z</time>
      </trkpt>
      <trkpt lat="45.42132" lon="4.61974">
        <ele>1036.5</ele>
        <time>2014-04-19T15:25:59.051Z</time>
      </trkpt>
      <trkpt lat="45.42132" lon="4.61974">
        <ele>1036.5</ele>
        <time>2014-04-19T15:25:59.657Z</time>
      </trkpt>
      <trkpt lat="45.42145" lon="4.61967">
        <ele>1035.9</ele>
        <time>2014-04-19T15:25:59.906Z</time>
      </trkpt>
      <trkpt lat="45.42145" lon="4.61967">
        <ele>1035.9</ele>
        <time>2014-04-19T15:26:00.122Z</time>
      </trkpt>
      <trkpt lat="45.42157" lon="4.6196">
        <ele>1035.3</ele>
        <time>2014-04-19T15:26:00.972Z</time>
      </trkpt>
      <trkpt lat="45.42157" lon="4.6196">
        <ele>1035.3</ele>
        <time>2014-04-19T15:26:01.135Z</time>
      </trkpt>
      <trkpt lat="45.42168" lon="4.61951">
        <ele>1034.8</ele>
        <time>2014-04-19T15:26:01.971Z</time>
      </trkpt>
      <trkpt lat="45.42168" lon="4.61951">
        <ele>1034.8</ele>
        <time>2014-04-19T15:26:02.156Z</time>
      </trkpt>
      <trkpt lat="45.42181" lon="4.61942">
        <ele>1034.4</ele>
        <time>2014-04-19T15:26:02.940Z</time>
      </trkpt>
      <trkpt lat="45.42181" lon="4.61942">
        <ele>1034.4</ele>
        <time>2014-04-19T15:26:03.881Z</time>
      </trkpt>
      <trkpt lat="45.42193" lon="4.61933">
        <ele>1033.7</ele>
        <time>2014-04-19T15:26:03.998Z</time>
      </trkpt>
      <trkpt lat="45.42193" lon="4.61933">
        <ele>1033.7</ele>
        <time>2014-04-19T15:26:04.168Z</time>
      </trkpt>
      <trkpt lat="45.42205" lon="4.61923">
        <ele>1032.7</ele>
        <time>2014-04-19T15:26:04.934Z</time>
      </trkpt>
      <trkpt lat="45.42205" lon="4.61923">
        <ele>1032.7</ele>
        <time>2014-04-19T15:26:05.126Z</time>
      </trkpt>
      <trkpt lat="45.42216" lon="4.61912">
        <ele>1031.6</ele>
        <time>2014-04-19T15:26:05.973Z</time>
      </trkpt>
      <trkpt lat="45.42216" lon="4.61912">
        <ele>1031.6</ele>
        <time>2014-04-19T15:26:06.178Z</time>
      </trkpt>
      <trkpt lat="45.42227" lon="4.61903">
        <ele>1030.5</ele>
        <time>2014-04-19T15:26:06.936Z</time>
      </trkpt>
      <trkpt lat="45.42227" lon="4.61903">
        <ele>1030.5</ele>
        <time>2014-04-19T15:26:07.078Z</time>
      </trkpt>
      <trkpt lat="45.42238" lon="4.61893">
        <ele>1029.1</ele>
        <time>2014-04-19T15:26:07.937Z</time>
      </trkpt>
      <trkpt lat="45.42238" lon="4.61893">
        <ele>1029.1</ele>
        <time>2014-04-19T15:26:08.938Z</time>
      </trkpt>
      <trkpt lat="45.42248" lon="4.61885">
        <ele>1027.9</ele>
        <time>2014-04-19T15:26:09.040Z</time>
      </trkpt>
      <trkpt lat="45.42248" lon="4.61885">
        <ele>1027.9</ele>
        <time>2014-04-19T15:26:09.203Z</time>
      </trkpt>
      <trkpt lat="45.4226" lon="4.61876">
        <ele>1026.5</ele>
        <time>2014-04-19T15:26:09.940Z</time>
      </trkpt>
      <trkpt lat="45.4226" lon="4.61876">
        <ele>1026.5</ele>
        <time>2014-04-19T15:26:10.124Z</time>
      </trkpt>
      <trkpt lat="45.42271" lon="4.61867">
        <ele>1025.1</ele>
        <time>2014-04-19T15:26:10.924Z</time>
      </trkpt>
      <trkpt lat="45.42271" lon="4.61867">
        <ele>1025.1</ele>
        <time>2014-04-19T15:26:11.078Z</time>
      </trkpt>
      <trkpt lat="45.42283" lon="4.61858">
        <ele>1023.6</ele>
        <time>2014-04-19T15:26:11.978Z</time>
      </trkpt>
      <trkpt lat="45.42283" lon="4.61858">
        <ele>1023.6</ele>
        <time>2014-04-19T15:26:12.181Z</time>
      </trkpt>
      <trkpt lat="45.42295" lon="4.61849">
        <ele>1022.2</ele>
        <time>2014-04-19T15:26:12.957Z</time>
      </trkpt>
      <trkpt lat="45.42295" lon="4.61849">
        <ele>1022.2</ele>
        <time>2014-04-19T15:26:13.270Z</time>
      </trkpt>
      <trkpt lat="45.42307" lon="4.61841">
        <ele>1020.7</ele>
        <time>2014-04-19T15:26:14.033Z</time>
      </trkpt>
      <trkpt lat="45.42307" lon="4.61841">
        <ele>1020.7</ele>
        <time>2014-04-19T15:26:14.365Z</time>
      </trkpt>
      <trkpt lat="45.42318" lon="4.61834">
        <ele>1019.5</ele>
        <time>2014-04-19T15:26:14.972Z</time>
      </trkpt>
      <trkpt lat="45.42318" lon="4.61834">
        <ele>1019.5</ele>
        <time>2014-04-19T15:26:15.132Z</time>
      </trkpt>
      <trkpt lat="45.42329" lon="4.61829">
        <ele>1018.4</ele>
        <time>2014-04-19T15:26:15.976Z</time>
      </trkpt>
      <trkpt lat="45.42329" lon="4.61829">
        <ele>1018.4</ele>
        <time>2014-04-19T15:26:16.204Z</time>
      </trkpt>
      <trkpt lat="45.4234" lon="4.61824">
        <ele>1017.2</ele>
        <time>2014-04-19T15:26:16.982Z</time>
      </trkpt>
      <trkpt lat="45.4234" lon="4.61824">
        <ele>1017.2</ele>
        <time>2014-04-19T15:26:17.376Z</time>
      </trkpt>
      <trkpt lat="45.42352" lon="4.6182">
        <ele>1016</ele>
        <time>2014-04-19T15:26:17.952Z</time>
      </trkpt>
      <trkpt lat="45.42352" lon="4.6182">
        <ele>1016</ele>
        <time>2014-04-19T15:26:18.090Z</time>
      </trkpt>
      <trkpt lat="45.42362" lon="4.61816">
        <ele>1015.1</ele>
        <time>2014-04-19T15:26:19.095Z</time>
      </trkpt>
      <trkpt lat="45.42362" lon="4.61816">
        <ele>1015.1</ele>
        <time>2014-04-19T15:26:19.269Z</time>
      </trkpt>
      <trkpt lat="45.42372" lon="4.61813">
        <ele>1014.3</ele>
        <time>2014-04-19T15:26:19.972Z</time>
      </trkpt>
      <trkpt lat="45.42372" lon="4.61813">
        <ele>1014.3</ele>
        <time>2014-04-19T15:26:20.156Z</time>
      </trkpt>
      <trkpt lat="45.42382" lon="4.61808">
        <ele>1013</ele>
        <time>2014-04-19T15:26:20.941Z</time>
      </trkpt>
      <trkpt lat="45.42382" lon="4.61808">
        <ele>1013</ele>
        <time>2014-04-19T15:26:21.128Z</time>
      </trkpt>
      <trkpt lat="45.42392" lon="4.61803">
        <ele>1011.6</ele>
        <time>2014-04-19T15:26:21.981Z</time>
      </trkpt>
      <trkpt lat="45.42392" lon="4.61803">
        <ele>1011.6</ele>
        <time>2014-04-19T15:26:22.171Z</time>
      </trkpt>
      <trkpt lat="45.42402" lon="4.61797">
        <ele>1010.4</ele>
        <time>2014-04-19T15:26:22.973Z</time>
      </trkpt>
      <trkpt lat="45.42402" lon="4.61797">
        <ele>1010.4</ele>
        <time>2014-04-19T15:26:23.141Z</time>
      </trkpt>
      <trkpt lat="45.42413" lon="4.6179">
        <ele>1009.6</ele>
        <time>2014-04-19T15:26:23.944Z</time>
      </trkpt>
      <trkpt lat="45.42413" lon="4.6179">
        <ele>1009.6</ele>
        <time>2014-04-19T15:26:24.200Z</time>
      </trkpt>
      <trkpt lat="45.42422" lon="4.61783">
        <ele>1009</ele>
        <time>2014-04-19T15:26:24.985Z</time>
      </trkpt>
      <trkpt lat="45.42422" lon="4.61783">
        <ele>1009</ele>
        <time>2014-04-19T15:26:25.355Z</time>
      </trkpt>
      <trkpt lat="45.42432" lon="4.61776">
        <ele>1008.3</ele>
        <time>2014-04-19T15:26:25.990Z</time>
      </trkpt>
      <trkpt lat="45.42432" lon="4.61776">
        <ele>1008.3</ele>
        <time>2014-04-19T15:26:26.190Z</time>
      </trkpt>
      <trkpt lat="45.42442" lon="4.61771">
        <ele>1007.9</ele>
        <time>2014-04-19T15:26:26.967Z</time>
      </trkpt>
      <trkpt lat="45.42442" lon="4.61771">
        <ele>1007.9</ele>
        <time>2014-04-19T15:26:27.102Z</time>
      </trkpt>
      <trkpt lat="45.42451" lon="4.61766">
        <ele>1006.8</ele>
        <time>2014-04-19T15:26:27.984Z</time>
      </trkpt>
      <trkpt lat="45.42451" lon="4.61766">
        <ele>1006.8</ele>
        <time>2014-04-19T15:26:28.166Z</time>
      </trkpt>
      <trkpt lat="45.42461" lon="4.61761">
        <ele>1006</ele>
        <time>2014-04-19T15:26:28.971Z</time>
      </trkpt>
      <trkpt lat="45.42461" lon="4.61761">
        <ele>1006</ele>
        <time>2014-04-19T15:26:29.321Z</time>
      </trkpt>
      <trkpt lat="45.4247" lon="4.61757">
        <ele>1005.2</ele>
        <time>2014-04-19T15:26:29.939Z</time>
      </trkpt>
      <trkpt lat="45.42477" lon="4.61753">
        <ele>1004.3</ele>
        <time>2014-04-19T15:26:31.046Z</time>
      </trkpt>
      <trkpt lat="45.42484" lon="4.6175">
        <ele>1003.5</ele>
        <time>2014-04-19T15:26:31.974Z</time>
      </trkpt>
      <trkpt lat="45.42489" lon="4.61748">
        <ele>1002.5</ele>
        <time>2014-04-19T15:26:33.007Z</time>
      </trkpt>
      <trkpt lat="45.42494" lon="4.61746">
        <ele>1001.6</ele>
        <time>2014-04-19T15:26:33.933Z</time>
      </trkpt>
      <trkpt lat="45.42501" lon="4.61741">
        <ele>1000.8</ele>
        <time>2014-04-19T15:26:36.031Z</time>
      </trkpt>
      <trkpt lat="45.42503" lon="4.61737">
        <ele>1000.8</ele>
        <time>2014-04-19T15:26:36.924Z</time>
      </trkpt>
      <trkpt lat="45.42507" lon="4.61729">
        <ele>1000.7</ele>
        <time>2014-04-19T15:26:39.068Z</time>
      </trkpt>
      <trkpt lat="45.42509" lon="4.61725">
        <ele>1000.7</ele>
        <time>2014-04-19T15:26:39.918Z</time>
      </trkpt>
      <trkpt lat="45.42507" lon="4.61713">
        <ele>1000.2</ele>
        <time>2014-04-19T15:27:23.036Z</time>
      </trkpt>
      <trkpt lat="45.42506" lon="4.6171">
        <ele>1000.2</ele>
        <time>2014-04-19T15:27:23.968Z</time>
      </trkpt>
      <trkpt lat="45.42503" lon="4.61703">
        <ele>1000.1</ele>
        <time>2014-04-19T15:27:27.088Z</time>
      </trkpt>
      <trkpt lat="45.42501" lon="4.61699">
        <ele>1000</ele>
        <time>2014-04-19T15:27:27.920Z</time>
      </trkpt>
      <trkpt lat="45.425" lon="4.6169">
        <ele>999.9</ele>
        <time>2014-04-19T15:27:30.027Z</time>
      </trkpt>
      <trkpt lat="45.42499" lon="4.61684">
        <ele>999.8</ele>
        <time>2014-04-19T15:27:30.961Z</time>
      </trkpt>
      <trkpt lat="45.42497" lon="4.61674">
        <ele>999.6</ele>
        <time>2014-04-19T15:27:33.077Z</time>
      </trkpt>
      <trkpt lat="45.42496" lon="4.61668">
        <ele>999.5</ele>
        <time>2014-04-19T15:27:33.924Z</time>
      </trkpt>
      <trkpt lat="45.42493" lon="4.61659">
        <ele>999.3</ele>
        <time>2014-04-19T15:27:36.022Z</time>
      </trkpt>
      <trkpt lat="45.42492" lon="4.61655">
        <ele>999.2</ele>
        <time>2014-04-19T15:27:36.934Z</time>
      </trkpt>
      <trkpt lat="45.42488" lon="4.61643">
        <ele>998.9</ele>
        <time>2014-04-19T15:27:39.979Z</time>
      </trkpt>
      <trkpt lat="45.42487" lon="4.61639">
        <ele>998.7</ele>
        <time>2014-04-19T15:27:40.932Z</time>
      </trkpt>
      <trkpt lat="45.42484" lon="4.61631">
        <ele>998.5</ele>
        <time>2014-04-19T15:27:43.099Z</time>
      </trkpt>
      <trkpt lat="45.42483" lon="4.61627">
        <ele>998.4</ele>
        <time>2014-04-19T15:27:43.921Z</time>
      </trkpt>
      <trkpt lat="45.4248" lon="4.61616">
        <ele>998.2</ele>
        <time>2014-04-19T15:27:46.044Z</time>
      </trkpt>
      <trkpt lat="45.42478" lon="4.61611">
        <ele>998</ele>
        <time>2014-04-19T15:27:46.937Z</time>
      </trkpt>
      <trkpt lat="45.42476" lon="4.61605">
        <ele>997.9</ele>
        <time>2014-04-19T15:27:48.350Z</time>
      </trkpt>
      <trkpt lat="45.42474" lon="4.61599">
        <ele>996.8</ele>
        <time>2014-04-19T15:27:48.985Z</time>
      </trkpt>
      <trkpt lat="45.42472" lon="4.61593">
        <ele>995.7</ele>
        <time>2014-04-19T15:27:49.973Z</time>
      </trkpt>
      <trkpt lat="45.4247" lon="4.61586">
        <ele>994.8</ele>
        <time>2014-04-19T15:27:50.952Z</time>
      </trkpt>
      <trkpt lat="45.42468" lon="4.61579">
        <ele>993.8</ele>
        <time>2014-04-19T15:27:52.073Z</time>
      </trkpt>
      <trkpt lat="45.42466" lon="4.61573">
        <ele>993.1</ele>
        <time>2014-04-19T15:27:52.984Z</time>
      </trkpt>
      <trkpt lat="45.42463" lon="4.61561">
        <ele>992.2</ele>
        <time>2014-04-19T15:27:54.979Z</time>
      </trkpt>
      <trkpt lat="45.42461" lon="4.61555">
        <ele>991.9</ele>
        <time>2014-04-19T15:27:55.936Z</time>
      </trkpt>
      <trkpt lat="45.4246" lon="4.61548">
        <ele>991.5</ele>
        <time>2014-04-19T15:27:57.029Z</time>
      </trkpt>
      <trkpt lat="45.42458" lon="4.61539">
        <ele>991.5</ele>
        <time>2014-04-19T15:27:57.945Z</time>
      </trkpt>
      <trkpt lat="45.42456" lon="4.6153">
        <ele>991.6</ele>
        <time>2014-04-19T15:27:59.370Z</time>
      </trkpt>
      <trkpt lat="45.42454" lon="4.61521">
        <ele>991.7</ele>
        <time>2014-04-19T15:27:59.970Z</time>
      </trkpt>
      <trkpt lat="45.42453" lon="4.61512">
        <ele>992.1</ele>
        <time>2014-04-19T15:28:01.048Z</time>
      </trkpt>
      <trkpt lat="45.42452" lon="4.61503">
        <ele>992.1</ele>
        <time>2014-04-19T15:28:01.935Z</time>
      </trkpt>
      <trkpt lat="45.4245" lon="4.61493">
        <ele>992.4</ele>
        <time>2014-04-19T15:28:03.244Z</time>
      </trkpt>
      <trkpt lat="45.42449" lon="4.61483">
        <ele>992.8</ele>
        <time>2014-04-19T15:28:03.996Z</time>
      </trkpt>
      <trkpt lat="45.42448" lon="4.61474">
        <ele>993.6</ele>
        <time>2014-04-19T15:28:05.018Z</time>
      </trkpt>
      <trkpt lat="45.42447" lon="4.61462">
        <ele>994.1</ele>
        <time>2014-04-19T15:28:05.978Z</time>
      </trkpt>
      <trkpt lat="45.42445" lon="4.6145">
        <ele>994.2</ele>
        <time>2014-04-19T15:28:07.505Z</time>
      </trkpt>
      <trkpt lat="45.42444" lon="4.61438">
        <ele>994.2</ele>
        <time>2014-04-19T15:28:07.933Z</time>
      </trkpt>
      <trkpt lat="45.42442" lon="4.61426">
        <ele>994</ele>
        <time>2014-04-19T15:28:08.980Z</time>
      </trkpt>
      <trkpt lat="45.42441" lon="4.61415">
        <ele>993.6</ele>
        <time>2014-04-19T15:28:09.972Z</time>
      </trkpt>
      <trkpt lat="45.42439" lon="4.61404">
        <ele>993.1</ele>
        <time>2014-04-19T15:28:11.205Z</time>
      </trkpt>
      <trkpt lat="45.42437" lon="4.61394">
        <ele>992.6</ele>
        <time>2014-04-19T15:28:11.984Z</time>
      </trkpt>
      <trkpt lat="45.42435" lon="4.61384">
        <ele>992.4</ele>
        <time>2014-04-19T15:28:12.989Z</time>
      </trkpt>
      <trkpt lat="45.42432" lon="4.61372">
        <ele>992.5</ele>
        <time>2014-04-19T15:28:13.929Z</time>
      </trkpt>
      <trkpt lat="45.42429" lon="4.6136">
        <ele>991.8</ele>
        <time>2014-04-19T15:28:14.977Z</time>
      </trkpt>
      <trkpt lat="45.42426" lon="4.61348">
        <ele>991.1</ele>
        <time>2014-04-19T15:28:15.984Z</time>
      </trkpt>
      <trkpt lat="45.42426" lon="4.61348">
        <ele>991.1</ele>
        <time>2014-04-19T15:28:16.158Z</time>
      </trkpt>
      <trkpt lat="45.42422" lon="4.61336">
        <ele>990.4</ele>
        <time>2014-04-19T15:28:16.938Z</time>
      </trkpt>
      <trkpt lat="45.42422" lon="4.61336">
        <ele>990.4</ele>
        <time>2014-04-19T15:28:17.092Z</time>
      </trkpt>
      <trkpt lat="45.42419" lon="4.61324">
        <ele>989.7</ele>
        <time>2014-04-19T15:28:17.940Z</time>
      </trkpt>
      <trkpt lat="45.42416" lon="4.61312">
        <ele>989.1</ele>
        <time>2014-04-19T15:28:19.011Z</time>
      </trkpt>
      <trkpt lat="45.42412" lon="4.61301">
        <ele>988.5</ele>
        <time>2014-04-19T15:28:19.985Z</time>
      </trkpt>
      <trkpt lat="45.42409" lon="4.6129">
        <ele>988</ele>
        <time>2014-04-19T15:28:20.949Z</time>
      </trkpt>
      <trkpt lat="45.42405" lon="4.61279">
        <ele>987.7</ele>
        <time>2014-04-19T15:28:22.056Z</time>
      </trkpt>
      <trkpt lat="45.42405" lon="4.61279">
        <ele>987.7</ele>
        <time>2014-04-19T15:28:22.161Z</time>
      </trkpt>
      <trkpt lat="45.42401" lon="4.61267">
        <ele>986.9</ele>
        <time>2014-04-19T15:28:22.985Z</time>
      </trkpt>
      <trkpt lat="45.42401" lon="4.61267">
        <ele>986.9</ele>
        <time>2014-04-19T15:28:23.213Z</time>
      </trkpt>
      <trkpt lat="45.42396" lon="4.61254">
        <ele>985.9</ele>
        <time>2014-04-19T15:28:23.988Z</time>
      </trkpt>
      <trkpt lat="45.42396" lon="4.61254">
        <ele>985.9</ele>
        <time>2014-04-19T15:28:24.371Z</time>
      </trkpt>
      <trkpt lat="45.42392" lon="4.61243">
        <ele>984.6</ele>
        <time>2014-04-19T15:28:24.940Z</time>
      </trkpt>
      <trkpt lat="45.42388" lon="4.61232">
        <ele>983.4</ele>
        <time>2014-04-19T15:28:26.057Z</time>
      </trkpt>
      <trkpt lat="45.42383" lon="4.61221">
        <ele>982.6</ele>
        <time>2014-04-19T15:28:26.979Z</time>
      </trkpt>
      <trkpt lat="45.42383" lon="4.61221">
        <ele>982.6</ele>
        <time>2014-04-19T15:28:27.186Z</time>
      </trkpt>
      <trkpt lat="45.42379" lon="4.6121">
        <ele>982</ele>
        <time>2014-04-19T15:28:27.977Z</time>
      </trkpt>
      <trkpt lat="45.42379" lon="4.6121">
        <ele>982</ele>
        <time>2014-04-19T15:28:28.203Z</time>
      </trkpt>
      <trkpt lat="45.42373" lon="4.61197">
        <ele>981.2</ele>
        <time>2014-04-19T15:28:28.973Z</time>
      </trkpt>
      <trkpt lat="45.42373" lon="4.61197">
        <ele>981.2</ele>
        <time>2014-04-19T15:28:29.442Z</time>
      </trkpt>
      <trkpt lat="45.42368" lon="4.61185">
        <ele>980.5</ele>
        <time>2014-04-19T15:28:29.936Z</time>
      </trkpt>
      <trkpt lat="45.42368" lon="4.61185">
        <ele>980.5</ele>
        <time>2014-04-19T15:28:30.118Z</time>
      </trkpt>
      <trkpt lat="45.42363" lon="4.61174">
        <ele>979.9</ele>
        <time>2014-04-19T15:28:30.935Z</time>
      </trkpt>
      <trkpt lat="45.42363" lon="4.61174">
        <ele>979.9</ele>
        <time>2014-04-19T15:28:31.120Z</time>
      </trkpt>
      <trkpt lat="45.42358" lon="4.61162">
        <ele>979.4</ele>
        <time>2014-04-19T15:28:32.166Z</time>
      </trkpt>
      <trkpt lat="45.42358" lon="4.61162">
        <ele>979.4</ele>
        <time>2014-04-19T15:28:32.295Z</time>
      </trkpt>
      <trkpt lat="45.42353" lon="4.6115">
        <ele>979.2</ele>
        <time>2014-04-19T15:28:32.968Z</time>
      </trkpt>
      <trkpt lat="45.42353" lon="4.6115">
        <ele>979.2</ele>
        <time>2014-04-19T15:28:33.146Z</time>
      </trkpt>
      <trkpt lat="45.42348" lon="4.61139">
        <ele>979.1</ele>
        <time>2014-04-19T15:28:33.978Z</time>
      </trkpt>
      <trkpt lat="45.42348" lon="4.61139">
        <ele>979.1</ele>
        <time>2014-04-19T15:28:34.765Z</time>
      </trkpt>
      <trkpt lat="45.42344" lon="4.61127">
        <ele>979</ele>
        <time>2014-04-19T15:28:34.930Z</time>
      </trkpt>
      <trkpt lat="45.42344" lon="4.61127">
        <ele>979</ele>
        <time>2014-04-19T15:28:35.028Z</time>
      </trkpt>
      <trkpt lat="45.42339" lon="4.61114">
        <ele>978.5</ele>
        <time>2014-04-19T15:28:35.946Z</time>
      </trkpt>
      <trkpt lat="45.42339" lon="4.61114">
        <ele>978.5</ele>
        <time>2014-04-19T15:28:36.085Z</time>
      </trkpt>
      <trkpt lat="45.42334" lon="4.61101">
        <ele>978.1</ele>
        <time>2014-04-19T15:28:36.983Z</time>
      </trkpt>
      <trkpt lat="45.42334" lon="4.61101">
        <ele>978.1</ele>
        <time>2014-04-19T15:28:37.201Z</time>
      </trkpt>
      <trkpt lat="45.42329" lon="4.61089">
        <ele>977.9</ele>
        <time>2014-04-19T15:28:37.954Z</time>
      </trkpt>
      <trkpt lat="45.42329" lon="4.61089">
        <ele>977.9</ele>
        <time>2014-04-19T15:28:38.256Z</time>
      </trkpt>
      <trkpt lat="45.42325" lon="4.61076">
        <ele>977.5</ele>
        <time>2014-04-19T15:28:39.006Z</time>
      </trkpt>
      <trkpt lat="45.42325" lon="4.61076">
        <ele>977.5</ele>
        <time>2014-04-19T15:28:39.218Z</time>
      </trkpt>
      <trkpt lat="45.42319" lon="4.61062">
        <ele>977</ele>
        <time>2014-04-19T15:28:39.994Z</time>
      </trkpt>
      <trkpt lat="45.42319" lon="4.61062">
        <ele>977</ele>
        <time>2014-04-19T15:28:40.183Z</time>
      </trkpt>
      <trkpt lat="45.42313" lon="4.61049">
        <ele>976.8</ele>
        <time>2014-04-19T15:28:40.947Z</time>
      </trkpt>
      <trkpt lat="45.42313" lon="4.61049">
        <ele>976.8</ele>
        <time>2014-04-19T15:28:41.133Z</time>
      </trkpt>
      <trkpt lat="45.42307" lon="4.61036">
        <ele>976.5</ele>
        <time>2014-04-19T15:28:41.955Z</time>
      </trkpt>
      <trkpt lat="45.42307" lon="4.61036">
        <ele>976.5</ele>
        <time>2014-04-19T15:28:42.074Z</time>
      </trkpt>
      <trkpt lat="45.42301" lon="4.61023">
        <ele>976.3</ele>
        <time>2014-04-19T15:28:42.988Z</time>
      </trkpt>
      <trkpt lat="45.42301" lon="4.61023">
        <ele>976.3</ele>
        <time>2014-04-19T15:28:43.195Z</time>
      </trkpt>
      <trkpt lat="45.42295" lon="4.61011">
        <ele>976</ele>
        <time>2014-04-19T15:28:43.981Z</time>
      </trkpt>
      <trkpt lat="45.42295" lon="4.61011">
        <ele>976</ele>
        <time>2014-04-19T15:28:44.645Z</time>
      </trkpt>
      <trkpt lat="45.4229" lon="4.60999">
        <ele>975.8</ele>
        <time>2014-04-19T15:28:44.935Z</time>
      </trkpt>
      <trkpt lat="45.4229" lon="4.60999">
        <ele>975.8</ele>
        <time>2014-04-19T15:28:45.101Z</time>
      </trkpt>
      <trkpt lat="45.42285" lon="4.60988">
        <ele>975.4</ele>
        <time>2014-04-19T15:28:46.055Z</time>
      </trkpt>
      <trkpt lat="45.42285" lon="4.60988">
        <ele>975.4</ele>
        <time>2014-04-19T15:28:46.224Z</time>
      </trkpt>
      <trkpt lat="45.42278" lon="4.60978">
        <ele>974.6</ele>
        <time>2014-04-19T15:28:46.977Z</time>
      </trkpt>
      <trkpt lat="45.42272" lon="4.60968">
        <ele>974.1</ele>
        <time>2014-04-19T15:28:47.949Z</time>
      </trkpt>
      <trkpt lat="45.42267" lon="4.6096">
        <ele>973.8</ele>
        <time>2014-04-19T15:28:48.951Z</time>
      </trkpt>
      <trkpt lat="45.42263" lon="4.60954">
        <ele>973.6</ele>
        <time>2014-04-19T15:28:49.962Z</time>
      </trkpt>
      <trkpt lat="45.4226" lon="4.60947">
        <ele>973.3</ele>
        <time>2014-04-19T15:28:50.959Z</time>
      </trkpt>
      <trkpt lat="45.42258" lon="4.60939">
        <ele>973</ele>
        <time>2014-04-19T15:28:52.048Z</time>
      </trkpt>
      <trkpt lat="45.42256" lon="4.60932">
        <ele>972.8</ele>
        <time>2014-04-19T15:28:52.973Z</time>
      </trkpt>
      <trkpt lat="45.42256" lon="4.60926">
        <ele>972.3</ele>
        <time>2014-04-19T15:28:54.033Z</time>
      </trkpt>
      <trkpt lat="45.42259" lon="4.60919">
        <ele>971.2</ele>
        <time>2014-04-19T15:28:54.934Z</time>
      </trkpt>
      <trkpt lat="45.42264" lon="4.60911">
        <ele>970.3</ele>
        <time>2014-04-19T15:28:56.045Z</time>
      </trkpt>
      <trkpt lat="45.4227" lon="4.60902">
        <ele>969.4</ele>
        <time>2014-04-19T15:28:56.981Z</time>
      </trkpt>
      <trkpt lat="45.4227" lon="4.60902">
        <ele>969.4</ele>
        <time>2014-04-19T15:28:57.366Z</time>
      </trkpt>
      <trkpt lat="45.42277" lon="4.6089">
        <ele>967.6</ele>
        <time>2014-04-19T15:28:57.983Z</time>
      </trkpt>
      <trkpt lat="45.42277" lon="4.6089">
        <ele>967.6</ele>
        <time>2014-04-19T15:28:59.130Z</time>
      </trkpt>
      <trkpt lat="45.42291" lon="4.60866">
        <ele>965.3</ele>
        <time>2014-04-19T15:28:59.931Z</time>
      </trkpt>
      <trkpt lat="45.42291" lon="4.60866">
        <ele>965.3</ele>
        <time>2014-04-19T15:29:00.142Z</time>
      </trkpt>
      <trkpt lat="45.42298" lon="4.60855">
        <ele>964.3</ele>
        <time>2014-04-19T15:29:00.971Z</time>
      </trkpt>
      <trkpt lat="45.42298" lon="4.60855">
        <ele>964.3</ele>
        <time>2014-04-19T15:29:01.121Z</time>
      </trkpt>
      <trkpt lat="45.42305" lon="4.60844">
        <ele>962.7</ele>
        <time>2014-04-19T15:29:01.982Z</time>
      </trkpt>
      <trkpt lat="45.42305" lon="4.60844">
        <ele>962.7</ele>
        <time>2014-04-19T15:29:02.450Z</time>
      </trkpt>
      <trkpt lat="45.42313" lon="4.60837">
        <ele>961.2</ele>
        <time>2014-04-19T15:29:02.936Z</time>
      </trkpt>
      <trkpt lat="45.42313" lon="4.60837">
        <ele>961.2</ele>
        <time>2014-04-19T15:29:02.978Z</time>
      </trkpt>
      <trkpt lat="45.42321" lon="4.6083">
        <ele>959.8</ele>
        <time>2014-04-19T15:29:04.029Z</time>
      </trkpt>
      <trkpt lat="45.42321" lon="4.6083">
        <ele>959.8</ele>
        <time>2014-04-19T15:29:04.407Z</time>
      </trkpt>
      <trkpt lat="45.4233" lon="4.60824">
        <ele>958.7</ele>
        <time>2014-04-19T15:29:04.975Z</time>
      </trkpt>
      <trkpt lat="45.4233" lon="4.60824">
        <ele>958.7</ele>
        <time>2014-04-19T15:29:05.196Z</time>
      </trkpt>
      <trkpt lat="45.4234" lon="4.60818">
        <ele>958.1</ele>
        <time>2014-04-19T15:29:05.928Z</time>
      </trkpt>
      <trkpt lat="45.4234" lon="4.60818">
        <ele>958.1</ele>
        <time>2014-04-19T15:29:06.093Z</time>
      </trkpt>
      <trkpt lat="45.42349" lon="4.60812">
        <ele>957.8</ele>
        <time>2014-04-19T15:29:06.939Z</time>
      </trkpt>
      <trkpt lat="45.42349" lon="4.60812">
        <ele>957.8</ele>
        <time>2014-04-19T15:29:07.162Z</time>
      </trkpt>
      <trkpt lat="45.42358" lon="4.60807">
        <ele>957.5</ele>
        <time>2014-04-19T15:29:07.989Z</time>
      </trkpt>
      <trkpt lat="45.42358" lon="4.60807">
        <ele>957.5</ele>
        <time>2014-04-19T15:29:08.255Z</time>
      </trkpt>
      <trkpt lat="45.42367" lon="4.60801">
        <ele>957.2</ele>
        <time>2014-04-19T15:29:08.952Z</time>
      </trkpt>
      <trkpt lat="45.42367" lon="4.60801">
        <ele>957.2</ele>
        <time>2014-04-19T15:29:09.113Z</time>
      </trkpt>
      <trkpt lat="45.42377" lon="4.60795">
        <ele>956.7</ele>
        <time>2014-04-19T15:29:09.976Z</time>
      </trkpt>
      <trkpt lat="45.42377" lon="4.60795">
        <ele>956.7</ele>
        <time>2014-04-19T15:29:10.173Z</time>
      </trkpt>
      <trkpt lat="45.42386" lon="4.60789">
        <ele>956</ele>
        <time>2014-04-19T15:29:10.941Z</time>
      </trkpt>
      <trkpt lat="45.42386" lon="4.60789">
        <ele>956</ele>
        <time>2014-04-19T15:29:11.115Z</time>
      </trkpt>
      <trkpt lat="45.42395" lon="4.60784">
        <ele>955.7</ele>
        <time>2014-04-19T15:29:11.937Z</time>
      </trkpt>
      <trkpt lat="45.42395" lon="4.60784">
        <ele>955.7</ele>
        <time>2014-04-19T15:29:12.124Z</time>
      </trkpt>
      <trkpt lat="45.42404" lon="4.60778">
        <ele>955.7</ele>
        <time>2014-04-19T15:29:12.950Z</time>
      </trkpt>
      <trkpt lat="45.42404" lon="4.60778">
        <ele>955.7</ele>
        <time>2014-04-19T15:29:13.192Z</time>
      </trkpt>
      <trkpt lat="45.42413" lon="4.60773">
        <ele>956</ele>
        <time>2014-04-19T15:29:13.963Z</time>
      </trkpt>
      <trkpt lat="45.42413" lon="4.60773">
        <ele>956</ele>
        <time>2014-04-19T15:29:14.170Z</time>
      </trkpt>
      <trkpt lat="45.42421" lon="4.60767">
        <ele>955.6</ele>
        <time>2014-04-19T15:29:14.966Z</time>
      </trkpt>
      <trkpt lat="45.42421" lon="4.60767">
        <ele>955.6</ele>
        <time>2014-04-19T15:29:15.200Z</time>
      </trkpt>
      <trkpt lat="45.42428" lon="4.60758">
        <ele>955.2</ele>
        <time>2014-04-19T15:29:15.962Z</time>
      </trkpt>
      <trkpt lat="45.42428" lon="4.60758">
        <ele>955.2</ele>
        <time>2014-04-19T15:29:16.194Z</time>
      </trkpt>
      <trkpt lat="45.42436" lon="4.60749">
        <ele>954.8</ele>
        <time>2014-04-19T15:29:16.922Z</time>
      </trkpt>
      <trkpt lat="45.42436" lon="4.60749">
        <ele>954.8</ele>
        <time>2014-04-19T15:29:17.135Z</time>
      </trkpt>
      <trkpt lat="45.42442" lon="4.60738">
        <ele>954.2</ele>
        <time>2014-04-19T15:29:17.917Z</time>
      </trkpt>
      <trkpt lat="45.42442" lon="4.60738">
        <ele>954.2</ele>
        <time>2014-04-19T15:29:18.150Z</time>
      </trkpt>
      <trkpt lat="45.42448" lon="4.60725">
        <ele>953.8</ele>
        <time>2014-04-19T15:29:18.967Z</time>
      </trkpt>
      <trkpt lat="45.42448" lon="4.60725">
        <ele>953.8</ele>
        <time>2014-04-19T15:29:19.185Z</time>
      </trkpt>
      <trkpt lat="45.42453" lon="4.60712">
        <ele>953.1</ele>
        <time>2014-04-19T15:29:19.943Z</time>
      </trkpt>
      <trkpt lat="45.42453" lon="4.60712">
        <ele>953.1</ele>
        <time>2014-04-19T15:29:20.129Z</time>
      </trkpt>
      <trkpt lat="45.42457" lon="4.60698">
        <ele>952.3</ele>
        <time>2014-04-19T15:29:20.984Z</time>
      </trkpt>
      <trkpt lat="45.42457" lon="4.60698">
        <ele>952.3</ele>
        <time>2014-04-19T15:29:21.192Z</time>
      </trkpt>
      <trkpt lat="45.42461" lon="4.60684">
        <ele>951.5</ele>
        <time>2014-04-19T15:29:21.944Z</time>
      </trkpt>
      <trkpt lat="45.42461" lon="4.60684">
        <ele>951.5</ele>
        <time>2014-04-19T15:29:22.126Z</time>
      </trkpt>
      <trkpt lat="45.42465" lon="4.60669">
        <ele>950.9</ele>
        <time>2014-04-19T15:29:22.996Z</time>
      </trkpt>
      <trkpt lat="45.42465" lon="4.60669">
        <ele>950.9</ele>
        <time>2014-04-19T15:29:23.189Z</time>
      </trkpt>
      <trkpt lat="45.42468" lon="4.60654">
        <ele>950.5</ele>
        <time>2014-04-19T15:29:23.987Z</time>
      </trkpt>
      <trkpt lat="45.42468" lon="4.60654">
        <ele>950.5</ele>
        <time>2014-04-19T15:29:24.177Z</time>
      </trkpt>
      <trkpt lat="45.4247" lon="4.60639">
        <ele>950.4</ele>
        <time>2014-04-19T15:29:24.938Z</time>
      </trkpt>
      <trkpt lat="45.4247" lon="4.60639">
        <ele>950.4</ele>
        <time>2014-04-19T15:29:25.112Z</time>
      </trkpt>
      <trkpt lat="45.42472" lon="4.60625">
        <ele>950.5</ele>
        <time>2014-04-19T15:29:25.946Z</time>
      </trkpt>
      <trkpt lat="45.42472" lon="4.60625">
        <ele>950.5</ele>
        <time>2014-04-19T15:29:26.141Z</time>
      </trkpt>
      <trkpt lat="45.42473" lon="4.60609">
        <ele>950.9</ele>
        <time>2014-04-19T15:29:26.987Z</time>
      </trkpt>
      <trkpt lat="45.42473" lon="4.60609">
        <ele>950.9</ele>
        <time>2014-04-19T15:29:27.170Z</time>
      </trkpt>
      <trkpt lat="45.42473" lon="4.60594">
        <ele>951.2</ele>
        <time>2014-04-19T15:29:27.990Z</time>
      </trkpt>
      <trkpt lat="45.42473" lon="4.60594">
        <ele>951.2</ele>
        <time>2014-04-19T15:29:28.147Z</time>
      </trkpt>
      <trkpt lat="45.42473" lon="4.60579">
        <ele>951.9</ele>
        <time>2014-04-19T15:29:29.022Z</time>
      </trkpt>
      <trkpt lat="45.42473" lon="4.60579">
        <ele>951.9</ele>
        <time>2014-04-19T15:29:29.315Z</time>
      </trkpt>
      <trkpt lat="45.42473" lon="4.60566">
        <ele>952.4</ele>
        <time>2014-04-19T15:29:29.946Z</time>
      </trkpt>
      <trkpt lat="45.42473" lon="4.60566">
        <ele>952.4</ele>
        <time>2014-04-19T15:29:30.100Z</time>
      </trkpt>
      <trkpt lat="45.42472" lon="4.60552">
        <ele>952.8</ele>
        <time>2014-04-19T15:29:30.947Z</time>
      </trkpt>
      <trkpt lat="45.42472" lon="4.60552">
        <ele>952.8</ele>
        <time>2014-04-19T15:29:31.171Z</time>
      </trkpt>
      <trkpt lat="45.42471" lon="4.60536">
        <ele>953</ele>
        <time>2014-04-19T15:29:31.949Z</time>
      </trkpt>
      <trkpt lat="45.42471" lon="4.60536">
        <ele>953</ele>
        <time>2014-04-19T15:29:32.129Z</time>
      </trkpt>
      <trkpt lat="45.42469" lon="4.60521">
        <ele>953.1</ele>
        <time>2014-04-19T15:29:33.007Z</time>
      </trkpt>
      <trkpt lat="45.42469" lon="4.60521">
        <ele>953.1</ele>
        <time>2014-04-19T15:29:33.199Z</time>
      </trkpt>
      <trkpt lat="45.42467" lon="4.60506">
        <ele>953.2</ele>
        <time>2014-04-19T15:29:33.986Z</time>
      </trkpt>
      <trkpt lat="45.42467" lon="4.60506">
        <ele>953.2</ele>
        <time>2014-04-19T15:29:34.204Z</time>
      </trkpt>
      <trkpt lat="45.42465" lon="4.60491">
        <ele>953.2</ele>
        <time>2014-04-19T15:29:34.930Z</time>
      </trkpt>
      <trkpt lat="45.42465" lon="4.60491">
        <ele>953.2</ele>
        <time>2014-04-19T15:29:35.362Z</time>
      </trkpt>
      <trkpt lat="45.42463" lon="4.60477">
        <ele>953.1</ele>
        <time>2014-04-19T15:29:35.934Z</time>
      </trkpt>
      <trkpt lat="45.42463" lon="4.60477">
        <ele>953.1</ele>
        <time>2014-04-19T15:29:36.085Z</time>
      </trkpt>
      <trkpt lat="45.42461" lon="4.60464">
        <ele>952.6</ele>
        <time>2014-04-19T15:29:37.001Z</time>
      </trkpt>
      <trkpt lat="45.42461" lon="4.60464">
        <ele>952.6</ele>
        <time>2014-04-19T15:29:37.966Z</time>
      </trkpt>
      <trkpt lat="45.4246" lon="4.60449">
        <ele>952.5</ele>
        <time>2014-04-19T15:29:38.108Z</time>
      </trkpt>
      <trkpt lat="45.4246" lon="4.60449">
        <ele>952.5</ele>
        <time>2014-04-19T15:29:38.266Z</time>
      </trkpt>
      <trkpt lat="45.42458" lon="4.60434">
        <ele>952.5</ele>
        <time>2014-04-19T15:29:38.968Z</time>
      </trkpt>
      <trkpt lat="45.42458" lon="4.60434">
        <ele>952.5</ele>
        <time>2014-04-19T15:29:39.454Z</time>
      </trkpt>
      <trkpt lat="45.42457" lon="4.6042">
        <ele>952.5</ele>
        <time>2014-04-19T15:29:39.981Z</time>
      </trkpt>
      <trkpt lat="45.42457" lon="4.6042">
        <ele>952.5</ele>
        <time>2014-04-19T15:29:40.258Z</time>
      </trkpt>
      <trkpt lat="45.42455" lon="4.60405">
        <ele>952.5</ele>
        <time>2014-04-19T15:29:40.950Z</time>
      </trkpt>
      <trkpt lat="45.42455" lon="4.60405">
        <ele>952.5</ele>
        <time>2014-04-19T15:29:41.074Z</time>
      </trkpt>
      <trkpt lat="45.42454" lon="4.60391">
        <ele>952.4</ele>
        <time>2014-04-19T15:29:41.943Z</time>
      </trkpt>
      <trkpt lat="45.42454" lon="4.60391">
        <ele>952.4</ele>
        <time>2014-04-19T15:29:42.124Z</time>
      </trkpt>
      <trkpt lat="45.42453" lon="4.60376">
        <ele>952.2</ele>
        <time>2014-04-19T15:29:42.980Z</time>
      </trkpt>
      <trkpt lat="45.42453" lon="4.60376">
        <ele>952.2</ele>
        <time>2014-04-19T15:29:43.216Z</time>
      </trkpt>
      <trkpt lat="45.42452" lon="4.60361">
        <ele>951.8</ele>
        <time>2014-04-19T15:29:44.051Z</time>
      </trkpt>
      <trkpt lat="45.42452" lon="4.60361">
        <ele>951.8</ele>
        <time>2014-04-19T15:29:44.509Z</time>
      </trkpt>
      <trkpt lat="45.42452" lon="4.60346">
        <ele>951.5</ele>
        <time>2014-04-19T15:29:44.922Z</time>
      </trkpt>
      <trkpt lat="45.42452" lon="4.60346">
        <ele>951.5</ele>
        <time>2014-04-19T15:29:45.065Z</time>
      </trkpt>
      <trkpt lat="45.42452" lon="4.60332">
        <ele>951.1</ele>
        <time>2014-04-19T15:29:45.980Z</time>
      </trkpt>
      <trkpt lat="45.42452" lon="4.60332">
        <ele>951.1</ele>
        <time>2014-04-19T15:29:46.165Z</time>
      </trkpt>
      <trkpt lat="45.42452" lon="4.60317">
        <ele>950.4</ele>
        <time>2014-04-19T15:29:46.935Z</time>
      </trkpt>
      <trkpt lat="45.42452" lon="4.60317">
        <ele>950.4</ele>
        <time>2014-04-19T15:29:47.148Z</time>
      </trkpt>
      <trkpt lat="45.42452" lon="4.60301">
        <ele>949.5</ele>
        <time>2014-04-19T15:29:48.010Z</time>
      </trkpt>
      <trkpt lat="45.42452" lon="4.60301">
        <ele>949.5</ele>
        <time>2014-04-19T15:29:48.250Z</time>
      </trkpt>
      <trkpt lat="45.42451" lon="4.60285">
        <ele>948.3</ele>
        <time>2014-04-19T15:29:48.967Z</time>
      </trkpt>
      <trkpt lat="45.42451" lon="4.60285">
        <ele>948.3</ele>
        <time>2014-04-19T15:29:49.535Z</time>
      </trkpt>
      <trkpt lat="45.4245" lon="4.6027">
        <ele>946.6</ele>
        <time>2014-04-19T15:29:49.934Z</time>
      </trkpt>
      <trkpt lat="45.4245" lon="4.6027">
        <ele>946.6</ele>
        <time>2014-04-19T15:29:50.092Z</time>
      </trkpt>
      <trkpt lat="45.42448" lon="4.60255">
        <ele>945.1</ele>
        <time>2014-04-19T15:29:50.961Z</time>
      </trkpt>
      <trkpt lat="45.42448" lon="4.60255">
        <ele>945.1</ele>
        <time>2014-04-19T15:29:51.017Z</time>
      </trkpt>
      <trkpt lat="45.42446" lon="4.60239">
        <ele>943.7</ele>
        <time>2014-04-19T15:29:51.948Z</time>
      </trkpt>
      <trkpt lat="45.42446" lon="4.60239">
        <ele>943.7</ele>
        <time>2014-04-19T15:29:52.138Z</time>
      </trkpt>
      <trkpt lat="45.42443" lon="4.60222">
        <ele>941.8</ele>
        <time>2014-04-19T15:29:53.094Z</time>
      </trkpt>
      <trkpt lat="45.42443" lon="4.60222">
        <ele>941.8</ele>
        <time>2014-04-19T15:29:53.666Z</time>
      </trkpt>
      <trkpt lat="45.4244" lon="4.60206">
        <ele>940.2</ele>
        <time>2014-04-19T15:29:53.941Z</time>
      </trkpt>
      <trkpt lat="45.4244" lon="4.60206">
        <ele>940.2</ele>
        <time>2014-04-19T15:29:54.090Z</time>
      </trkpt>
      <trkpt lat="45.42437" lon="4.60191">
        <ele>938.8</ele>
        <time>2014-04-19T15:29:54.947Z</time>
      </trkpt>
      <trkpt lat="45.42437" lon="4.60191">
        <ele>938.8</ele>
        <time>2014-04-19T15:29:55.123Z</time>
      </trkpt>
      <trkpt lat="45.42434" lon="4.60175">
        <ele>937.5</ele>
        <time>2014-04-19T15:29:55.948Z</time>
      </trkpt>
      <trkpt lat="45.42434" lon="4.60175">
        <ele>937.5</ele>
        <time>2014-04-19T15:29:56.133Z</time>
      </trkpt>
      <trkpt lat="45.42432" lon="4.6016">
        <ele>936.3</ele>
        <time>2014-04-19T15:29:56.981Z</time>
      </trkpt>
      <trkpt lat="45.42432" lon="4.6016">
        <ele>936.3</ele>
        <time>2014-04-19T15:29:57.154Z</time>
      </trkpt>
      <trkpt lat="45.42429" lon="4.60145">
        <ele>934.7</ele>
        <time>2014-04-19T15:29:57.991Z</time>
      </trkpt>
      <trkpt lat="45.42429" lon="4.60145">
        <ele>934.7</ele>
        <time>2014-04-19T15:29:58.772Z</time>
      </trkpt>
      <trkpt lat="45.42425" lon="4.60128">
        <ele>933.3</ele>
        <time>2014-04-19T15:29:58.949Z</time>
      </trkpt>
      <trkpt lat="45.42425" lon="4.60128">
        <ele>933.3</ele>
        <time>2014-04-19T15:29:59.104Z</time>
      </trkpt>
      <trkpt lat="45.42422" lon="4.60114">
        <ele>932.2</ele>
        <time>2014-04-19T15:29:59.948Z</time>
      </trkpt>
      <trkpt lat="45.42422" lon="4.60114">
        <ele>932.2</ele>
        <time>2014-04-19T15:30:00.207Z</time>
      </trkpt>
      <trkpt lat="45.42418" lon="4.60097">
        <ele>931.4</ele>
        <time>2014-04-19T15:30:00.970Z</time>
      </trkpt>
      <trkpt lat="45.42418" lon="4.60097">
        <ele>931.4</ele>
        <time>2014-04-19T15:30:01.177Z</time>
      </trkpt>
      <trkpt lat="45.42414" lon="4.60082">
        <ele>930.8</ele>
        <time>2014-04-19T15:30:02.005Z</time>
      </trkpt>
      <trkpt lat="45.42414" lon="4.60082">
        <ele>930.8</ele>
        <time>2014-04-19T15:30:02.319Z</time>
      </trkpt>
      <trkpt lat="45.4241" lon="4.60066">
        <ele>930.1</ele>
        <time>2014-04-19T15:30:02.946Z</time>
      </trkpt>
      <trkpt lat="45.4241" lon="4.60066">
        <ele>930.1</ele>
        <time>2014-04-19T15:30:03.838Z</time>
      </trkpt>
      <trkpt lat="45.42407" lon="4.60048">
        <ele>929.2</ele>
        <time>2014-04-19T15:30:03.965Z</time>
      </trkpt>
      <trkpt lat="45.42407" lon="4.60048">
        <ele>929.2</ele>
        <time>2014-04-19T15:30:04.092Z</time>
      </trkpt>
      <trkpt lat="45.42404" lon="4.60031">
        <ele>928.2</ele>
        <time>2014-04-19T15:30:05.077Z</time>
      </trkpt>
      <trkpt lat="45.42404" lon="4.60031">
        <ele>928.2</ele>
        <time>2014-04-19T15:30:05.363Z</time>
      </trkpt>
      <trkpt lat="45.424" lon="4.60015">
        <ele>927</ele>
        <time>2014-04-19T15:30:05.973Z</time>
      </trkpt>
      <trkpt lat="45.424" lon="4.60015">
        <ele>927</ele>
        <time>2014-04-19T15:30:06.128Z</time>
      </trkpt>
      <trkpt lat="45.42396" lon="4.59999">
        <ele>925.8</ele>
        <time>2014-04-19T15:30:06.979Z</time>
      </trkpt>
      <trkpt lat="45.42396" lon="4.59999">
        <ele>925.8</ele>
        <time>2014-04-19T15:30:07.329Z</time>
      </trkpt>
      <trkpt lat="45.42392" lon="4.59984">
        <ele>924.8</ele>
        <time>2014-04-19T15:30:07.972Z</time>
      </trkpt>
      <trkpt lat="45.42392" lon="4.59984">
        <ele>924.8</ele>
        <time>2014-04-19T15:30:08.954Z</time>
      </trkpt>
      <trkpt lat="45.42388" lon="4.5997">
        <ele>924</ele>
        <time>2014-04-19T15:30:09.061Z</time>
      </trkpt>
      <trkpt lat="45.42388" lon="4.5997">
        <ele>924</ele>
        <time>2014-04-19T15:30:09.222Z</time>
      </trkpt>
      <trkpt lat="45.42384" lon="4.59956">
        <ele>923.1</ele>
        <time>2014-04-19T15:30:09.978Z</time>
      </trkpt>
      <trkpt lat="45.42384" lon="4.59956">
        <ele>923.1</ele>
        <time>2014-04-19T15:30:10.179Z</time>
      </trkpt>
      <trkpt lat="45.42379" lon="4.5994">
        <ele>922.4</ele>
        <time>2014-04-19T15:30:10.978Z</time>
      </trkpt>
      <trkpt lat="45.42379" lon="4.5994">
        <ele>922.4</ele>
        <time>2014-04-19T15:30:11.177Z</time>
      </trkpt>
      <trkpt lat="45.42375" lon="4.59925">
        <ele>921.4</ele>
        <time>2014-04-19T15:30:11.952Z</time>
      </trkpt>
      <trkpt lat="45.42375" lon="4.59925">
        <ele>921.4</ele>
        <time>2014-04-19T15:30:12.141Z</time>
      </trkpt>
      <trkpt lat="45.42371" lon="4.59909">
        <ele>920.4</ele>
        <time>2014-04-19T15:30:12.958Z</time>
      </trkpt>
      <trkpt lat="45.42371" lon="4.59909">
        <ele>920.4</ele>
        <time>2014-04-19T15:30:13.935Z</time>
      </trkpt>
      <trkpt lat="45.42367" lon="4.59894">
        <ele>919.6</ele>
        <time>2014-04-19T15:30:14.022Z</time>
      </trkpt>
      <trkpt lat="45.42367" lon="4.59894">
        <ele>919.6</ele>
        <time>2014-04-19T15:30:14.162Z</time>
      </trkpt>
      <trkpt lat="45.42363" lon="4.59879">
        <ele>919</ele>
        <time>2014-04-19T15:30:14.943Z</time>
      </trkpt>
      <trkpt lat="45.42363" lon="4.59879">
        <ele>919</ele>
        <time>2014-04-19T15:30:15.180Z</time>
      </trkpt>
      <trkpt lat="45.42358" lon="4.59864">
        <ele>918.5</ele>
        <time>2014-04-19T15:30:15.921Z</time>
      </trkpt>
      <trkpt lat="45.42358" lon="4.59864">
        <ele>918.5</ele>
        <time>2014-04-19T15:30:16.031Z</time>
      </trkpt>
      <trkpt lat="45.42354" lon="4.59848">
        <ele>918</ele>
        <time>2014-04-19T15:30:16.945Z</time>
      </trkpt>
      <trkpt lat="45.42354" lon="4.59848">
        <ele>918</ele>
        <time>2014-04-19T15:30:17.099Z</time>
      </trkpt>
      <trkpt lat="45.42349" lon="4.59832">
        <ele>917.6</ele>
        <time>2014-04-19T15:30:17.972Z</time>
      </trkpt>
      <trkpt lat="45.42349" lon="4.59832">
        <ele>917.6</ele>
        <time>2014-04-19T15:30:18.870Z</time>
      </trkpt>
      <trkpt lat="45.42344" lon="4.59816">
        <ele>917.1</ele>
        <time>2014-04-19T15:30:18.960Z</time>
      </trkpt>
      <trkpt lat="45.42344" lon="4.59816">
        <ele>917.1</ele>
        <time>2014-04-19T15:30:19.093Z</time>
      </trkpt>
      <trkpt lat="45.42339" lon="4.598">
        <ele>916.6</ele>
        <time>2014-04-19T15:30:19.979Z</time>
      </trkpt>
      <trkpt lat="45.42339" lon="4.598">
        <ele>916.6</ele>
        <time>2014-04-19T15:30:20.181Z</time>
      </trkpt>
      <trkpt lat="45.42335" lon="4.59785">
        <ele>916.1</ele>
        <time>2014-04-19T15:30:21.005Z</time>
      </trkpt>
      <trkpt lat="45.42335" lon="4.59785">
        <ele>916.1</ele>
        <time>2014-04-19T15:30:21.238Z</time>
      </trkpt>
      <trkpt lat="45.42331" lon="4.59771">
        <ele>915.3</ele>
        <time>2014-04-19T15:30:21.930Z</time>
      </trkpt>
      <trkpt lat="45.42331" lon="4.59771">
        <ele>915.3</ele>
        <time>2014-04-19T15:30:22.073Z</time>
      </trkpt>
      <trkpt lat="45.42326" lon="4.59756">
        <ele>914.3</ele>
        <time>2014-04-19T15:30:22.977Z</time>
      </trkpt>
      <trkpt lat="45.42326" lon="4.59756">
        <ele>914.3</ele>
        <time>2014-04-19T15:30:23.182Z</time>
      </trkpt>
      <trkpt lat="45.42322" lon="4.59742">
        <ele>913.3</ele>
        <time>2014-04-19T15:30:23.971Z</time>
      </trkpt>
      <trkpt lat="45.42322" lon="4.59742">
        <ele>913.3</ele>
        <time>2014-04-19T15:30:24.094Z</time>
      </trkpt>
      <trkpt lat="45.42317" lon="4.59728">
        <ele>912.3</ele>
        <time>2014-04-19T15:30:24.960Z</time>
      </trkpt>
      <trkpt lat="45.42317" lon="4.59728">
        <ele>912.3</ele>
        <time>2014-04-19T15:30:25.149Z</time>
      </trkpt>
      <trkpt lat="45.42312" lon="4.59711">
        <ele>911.5</ele>
        <time>2014-04-19T15:30:26.001Z</time>
      </trkpt>
      <trkpt lat="45.42312" lon="4.59711">
        <ele>911.5</ele>
        <time>2014-04-19T15:30:26.190Z</time>
      </trkpt>
      <trkpt lat="45.42307" lon="4.59694">
        <ele>910.9</ele>
        <time>2014-04-19T15:30:26.991Z</time>
      </trkpt>
      <trkpt lat="45.42307" lon="4.59694">
        <ele>910.9</ele>
        <time>2014-04-19T15:30:27.183Z</time>
      </trkpt>
      <trkpt lat="45.42302" lon="4.59678">
        <ele>910.3</ele>
        <time>2014-04-19T15:30:27.932Z</time>
      </trkpt>
      <trkpt lat="45.42302" lon="4.59678">
        <ele>910.3</ele>
        <time>2014-04-19T15:30:28.097Z</time>
      </trkpt>
      <trkpt lat="45.42296" lon="4.59664">
        <ele>909.8</ele>
        <time>2014-04-19T15:30:28.924Z</time>
      </trkpt>
      <trkpt lat="45.42296" lon="4.59664">
        <ele>909.8</ele>
        <time>2014-04-19T15:30:29.067Z</time>
      </trkpt>
      <trkpt lat="45.4229" lon="4.59649">
        <ele>909.2</ele>
        <time>2014-04-19T15:30:29.939Z</time>
      </trkpt>
      <trkpt lat="45.4229" lon="4.59649">
        <ele>909.2</ele>
        <time>2014-04-19T15:30:30.155Z</time>
      </trkpt>
      <trkpt lat="45.42283" lon="4.59635">
        <ele>908.5</ele>
        <time>2014-04-19T15:30:30.971Z</time>
      </trkpt>
      <trkpt lat="45.42283" lon="4.59635">
        <ele>908.5</ele>
        <time>2014-04-19T15:30:31.149Z</time>
      </trkpt>
      <trkpt lat="45.42275" lon="4.59621">
        <ele>907.6</ele>
        <time>2014-04-19T15:30:31.985Z</time>
      </trkpt>
      <trkpt lat="45.42275" lon="4.59621">
        <ele>907.6</ele>
        <time>2014-04-19T15:30:32.200Z</time>
      </trkpt>
      <trkpt lat="45.42268" lon="4.59609">
        <ele>907</ele>
        <time>2014-04-19T15:30:32.932Z</time>
      </trkpt>
      <trkpt lat="45.42268" lon="4.59609">
        <ele>907</ele>
        <time>2014-04-19T15:30:33.082Z</time>
      </trkpt>
      <trkpt lat="45.4226" lon="4.59598">
        <ele>906.2</ele>
        <time>2014-04-19T15:30:33.978Z</time>
      </trkpt>
      <trkpt lat="45.4226" lon="4.59598">
        <ele>906.2</ele>
        <time>2014-04-19T15:30:34.211Z</time>
      </trkpt>
      <trkpt lat="45.42253" lon="4.59588">
        <ele>905.7</ele>
        <time>2014-04-19T15:30:34.987Z</time>
      </trkpt>
      <trkpt lat="45.42253" lon="4.59588">
        <ele>905.7</ele>
        <time>2014-04-19T15:30:35.192Z</time>
      </trkpt>
      <trkpt lat="45.42244" lon="4.59577">
        <ele>905.4</ele>
        <time>2014-04-19T15:30:36.023Z</time>
      </trkpt>
      <trkpt lat="45.42244" lon="4.59577">
        <ele>905.4</ele>
        <time>2014-04-19T15:30:36.335Z</time>
      </trkpt>
      <trkpt lat="45.42234" lon="4.59565">
        <ele>905.1</ele>
        <time>2014-04-19T15:30:37.038Z</time>
      </trkpt>
      <trkpt lat="45.42234" lon="4.59565">
        <ele>905.1</ele>
        <time>2014-04-19T15:30:37.268Z</time>
      </trkpt>
      <trkpt lat="45.42225" lon="4.59553">
        <ele>904.6</ele>
        <time>2014-04-19T15:30:37.982Z</time>
      </trkpt>
      <trkpt lat="45.42225" lon="4.59553">
        <ele>904.6</ele>
        <time>2014-04-19T15:30:38.213Z</time>
      </trkpt>
      <trkpt lat="45.42215" lon="4.59541">
        <ele>904</ele>
        <time>2014-04-19T15:30:38.972Z</time>
      </trkpt>
      <trkpt lat="45.42215" lon="4.59541">
        <ele>904</ele>
        <time>2014-04-19T15:30:39.248Z</time>
      </trkpt>
      <trkpt lat="45.42204" lon="4.5953">
        <ele>903.3</ele>
        <time>2014-04-19T15:30:39.953Z</time>
      </trkpt>
      <trkpt lat="45.42204" lon="4.5953">
        <ele>903.3</ele>
        <time>2014-04-19T15:30:40.140Z</time>
      </trkpt>
      <trkpt lat="45.42194" lon="4.5952">
        <ele>902.5</ele>
        <time>2014-04-19T15:30:40.986Z</time>
      </trkpt>
      <trkpt lat="45.42194" lon="4.5952">
        <ele>902.5</ele>
        <time>2014-04-19T15:30:41.188Z</time>
      </trkpt>
      <trkpt lat="45.42185" lon="4.59511">
        <ele>901.8</ele>
        <time>2014-04-19T15:30:41.977Z</time>
      </trkpt>
      <trkpt lat="45.42185" lon="4.59511">
        <ele>901.8</ele>
        <time>2014-04-19T15:30:42.298Z</time>
      </trkpt>
      <trkpt lat="45.42175" lon="4.59501">
        <ele>901.3</ele>
        <time>2014-04-19T15:30:42.936Z</time>
      </trkpt>
      <trkpt lat="45.42175" lon="4.59501">
        <ele>901.3</ele>
        <time>2014-04-19T15:30:43.127Z</time>
      </trkpt>
      <trkpt lat="45.42166" lon="4.59494">
        <ele>900.6</ele>
        <time>2014-04-19T15:30:43.973Z</time>
      </trkpt>
      <trkpt lat="45.42166" lon="4.59494">
        <ele>900.6</ele>
        <time>2014-04-19T15:30:44.337Z</time>
      </trkpt>
      <trkpt lat="45.42156" lon="4.59487">
        <ele>900.1</ele>
        <time>2014-04-19T15:30:44.953Z</time>
      </trkpt>
      <trkpt lat="45.42156" lon="4.59487">
        <ele>900.1</ele>
        <time>2014-04-19T15:30:45.136Z</time>
      </trkpt>
      <trkpt lat="45.42146" lon="4.59479">
        <ele>899.6</ele>
        <time>2014-04-19T15:30:45.951Z</time>
      </trkpt>
      <trkpt lat="45.42146" lon="4.59479">
        <ele>899.6</ele>
        <time>2014-04-19T15:30:46.131Z</time>
      </trkpt>
      <trkpt lat="45.42135" lon="4.59472">
        <ele>899.2</ele>
        <time>2014-04-19T15:30:46.969Z</time>
      </trkpt>
      <trkpt lat="45.42135" lon="4.59472">
        <ele>899.2</ele>
        <time>2014-04-19T15:30:47.175Z</time>
      </trkpt>
      <trkpt lat="45.42123" lon="4.59464">
        <ele>898.7</ele>
        <time>2014-04-19T15:30:48.013Z</time>
      </trkpt>
      <trkpt lat="45.42123" lon="4.59464">
        <ele>898.7</ele>
        <time>2014-04-19T15:30:48.242Z</time>
      </trkpt>
      <trkpt lat="45.42112" lon="4.59458">
        <ele>898.1</ele>
        <time>2014-04-19T15:30:48.913Z</time>
      </trkpt>
      <trkpt lat="45.42112" lon="4.59458">
        <ele>898.1</ele>
        <time>2014-04-19T15:30:49.327Z</time>
      </trkpt>
      <trkpt lat="45.42102" lon="4.59453">
        <ele>897.5</ele>
        <time>2014-04-19T15:30:49.943Z</time>
      </trkpt>
      <trkpt lat="45.42102" lon="4.59453">
        <ele>897.5</ele>
        <time>2014-04-19T15:30:50.083Z</time>
      </trkpt>
      <trkpt lat="45.4209" lon="4.59452">
        <ele>896.8</ele>
        <time>2014-04-19T15:30:50.917Z</time>
      </trkpt>
      <trkpt lat="45.4209" lon="4.59452">
        <ele>896.8</ele>
        <time>2014-04-19T15:30:51.062Z</time>
      </trkpt>
      <trkpt lat="45.42079" lon="4.59451">
        <ele>896.2</ele>
        <time>2014-04-19T15:30:51.952Z</time>
      </trkpt>
      <trkpt lat="45.42079" lon="4.59451">
        <ele>896.2</ele>
        <time>2014-04-19T15:30:52.124Z</time>
      </trkpt>
      <trkpt lat="45.42068" lon="4.59451">
        <ele>895.6</ele>
        <time>2014-04-19T15:30:52.958Z</time>
      </trkpt>
      <trkpt lat="45.42068" lon="4.59451">
        <ele>895.6</ele>
        <time>2014-04-19T15:30:53.760Z</time>
      </trkpt>
      <trkpt lat="45.42059" lon="4.59452">
        <ele>894.8</ele>
        <time>2014-04-19T15:30:53.931Z</time>
      </trkpt>
      <trkpt lat="45.42059" lon="4.59452">
        <ele>894.8</ele>
        <time>2014-04-19T15:30:54.098Z</time>
      </trkpt>
      <trkpt lat="45.42049" lon="4.59453">
        <ele>894</ele>
        <time>2014-04-19T15:30:54.978Z</time>
      </trkpt>
      <trkpt lat="45.42049" lon="4.59453">
        <ele>894</ele>
        <time>2014-04-19T15:30:55.159Z</time>
      </trkpt>
      <trkpt lat="45.42039" lon="4.59454">
        <ele>893.1</ele>
        <time>2014-04-19T15:30:55.973Z</time>
      </trkpt>
      <trkpt lat="45.42039" lon="4.59454">
        <ele>893.1</ele>
        <time>2014-04-19T15:30:56.183Z</time>
      </trkpt>
      <trkpt lat="45.42028" lon="4.59456">
        <ele>892.3</ele>
        <time>2014-04-19T15:30:56.938Z</time>
      </trkpt>
      <trkpt lat="45.42028" lon="4.59456">
        <ele>892.3</ele>
        <time>2014-04-19T15:30:57.139Z</time>
      </trkpt>
      <trkpt lat="45.42017" lon="4.59457">
        <ele>891.5</ele>
        <time>2014-04-19T15:30:57.945Z</time>
      </trkpt>
      <trkpt lat="45.42017" lon="4.59457">
        <ele>891.5</ele>
        <time>2014-04-19T15:30:58.861Z</time>
      </trkpt>
      <trkpt lat="45.42006" lon="4.59458">
        <ele>890.8</ele>
        <time>2014-04-19T15:30:58.982Z</time>
      </trkpt>
      <trkpt lat="45.42006" lon="4.59458">
        <ele>890.8</ele>
        <time>2014-04-19T15:30:59.147Z</time>
      </trkpt>
      <trkpt lat="45.41994" lon="4.59459">
        <ele>890.1</ele>
        <time>2014-04-19T15:31:00.282Z</time>
      </trkpt>
      <trkpt lat="45.41994" lon="4.59459">
        <ele>890.1</ele>
        <time>2014-04-19T15:31:00.527Z</time>
      </trkpt>
      <trkpt lat="45.41984" lon="4.5946">
        <ele>889.4</ele>
        <time>2014-04-19T15:31:00.969Z</time>
      </trkpt>
      <trkpt lat="45.41976" lon="4.5946">
        <ele>888.6</ele>
        <time>2014-04-19T15:31:02.151Z</time>
      </trkpt>
      <trkpt lat="45.41969" lon="4.5946">
        <ele>887.9</ele>
        <time>2014-04-19T15:31:02.978Z</time>
      </trkpt>
      <trkpt lat="45.41964" lon="4.59455">
        <ele>887.1</ele>
        <time>2014-04-19T15:31:04.377Z</time>
      </trkpt>
      <trkpt lat="45.4196" lon="4.59449">
        <ele>886.5</ele>
        <time>2014-04-19T15:31:04.982Z</time>
      </trkpt>
      <trkpt lat="45.41958" lon="4.59441">
        <ele>886.2</ele>
        <time>2014-04-19T15:31:06.052Z</time>
      </trkpt>
      <trkpt lat="45.41956" lon="4.59433">
        <ele>886.3</ele>
        <time>2014-04-19T15:31:06.976Z</time>
      </trkpt>
      <trkpt lat="45.41957" lon="4.59421">
        <ele>886.6</ele>
        <time>2014-04-19T15:31:08.986Z</time>
      </trkpt>
      <trkpt lat="45.41959" lon="4.59414">
        <ele>886.8</ele>
        <time>2014-04-19T15:31:10.005Z</time>
      </trkpt>
      <trkpt lat="45.41962" lon="4.59407">
        <ele>886.8</ele>
        <time>2014-04-19T15:31:11.122Z</time>
      </trkpt>
      <trkpt lat="45.41965" lon="4.59401">
        <ele>886.8</ele>
        <time>2014-04-19T15:31:11.967Z</time>
      </trkpt>
      <trkpt lat="45.41967" lon="4.59394">
        <ele>886.6</ele>
        <time>2014-04-19T15:31:14.020Z</time>
      </trkpt>
      <trkpt lat="45.41971" lon="4.59383">
        <ele>885.9</ele>
        <time>2014-04-19T15:31:14.964Z</time>
      </trkpt>
      <trkpt lat="45.41973" lon="4.59372">
        <ele>885.5</ele>
        <time>2014-04-19T15:31:16.932Z</time>
      </trkpt>
      <trkpt lat="45.41974" lon="4.59368">
        <ele>885.5</ele>
        <time>2014-04-19T15:31:17.970Z</time>
      </trkpt>
      <trkpt lat="45.41974" lon="4.59359">
        <ele>885.4</ele>
        <time>2014-04-19T15:31:19.989Z</time>
      </trkpt>
      <trkpt lat="45.41973" lon="4.59354">
        <ele>885.3</ele>
        <time>2014-04-19T15:31:20.970Z</time>
      </trkpt>
      <trkpt lat="45.41973" lon="4.59345">
        <ele>885.2</ele>
        <time>2014-04-19T15:31:22.977Z</time>
      </trkpt>
      <trkpt lat="45.41973" lon="4.59341">
        <ele>885.2</ele>
        <time>2014-04-19T15:31:23.978Z</time>
      </trkpt>
      <trkpt lat="45.41973" lon="4.59332">
        <ele>885.1</ele>
        <time>2014-04-19T15:31:26.085Z</time>
      </trkpt>
      <trkpt lat="45.41973" lon="4.59327">
        <ele>885</ele>
        <time>2014-04-19T15:31:26.935Z</time>
      </trkpt>
      <trkpt lat="45.41973" lon="4.59316">
        <ele>884.4</ele>
        <time>2014-04-19T15:31:29.321Z</time>
      </trkpt>
      <trkpt lat="45.41974" lon="4.5931">
        <ele>884</ele>
        <time>2014-04-19T15:31:29.935Z</time>
      </trkpt>
      <trkpt lat="45.41974" lon="4.59303">
        <ele>883.5</ele>
        <time>2014-04-19T15:31:31.065Z</time>
      </trkpt>
      <trkpt lat="45.41975" lon="4.59295">
        <ele>883.1</ele>
        <time>2014-04-19T15:31:32.073Z</time>
      </trkpt>
      <trkpt lat="45.41976" lon="4.59287">
        <ele>882.6</ele>
        <time>2014-04-19T15:31:32.973Z</time>
      </trkpt>
      <trkpt lat="45.41978" lon="4.59279">
        <ele>882</ele>
        <time>2014-04-19T15:31:33.965Z</time>
      </trkpt>
      <trkpt lat="45.41979" lon="4.59269">
        <ele>881.3</ele>
        <time>2014-04-19T15:31:34.961Z</time>
      </trkpt>
      <trkpt lat="45.41981" lon="4.5926">
        <ele>880.7</ele>
        <time>2014-04-19T15:31:35.975Z</time>
      </trkpt>
      <trkpt lat="45.41983" lon="4.59251">
        <ele>880.2</ele>
        <time>2014-04-19T15:31:37.111Z</time>
      </trkpt>
      <trkpt lat="45.41984" lon="4.59242">
        <ele>879.9</ele>
        <time>2014-04-19T15:31:38.010Z</time>
      </trkpt>
      <trkpt lat="45.41985" lon="4.59233">
        <ele>879.5</ele>
        <time>2014-04-19T15:31:39.329Z</time>
      </trkpt>
      <trkpt lat="45.41985" lon="4.59223">
        <ele>879.3</ele>
        <time>2014-04-19T15:31:39.956Z</time>
      </trkpt>
      <trkpt lat="45.41984" lon="4.59211">
        <ele>879.3</ele>
        <time>2014-04-19T15:31:40.993Z</time>
      </trkpt>
      <trkpt lat="45.41982" lon="4.592">
        <ele>879.2</ele>
        <time>2014-04-19T15:31:41.935Z</time>
      </trkpt>
      <trkpt lat="45.41979" lon="4.59188">
        <ele>879</ele>
        <time>2014-04-19T15:31:43.038Z</time>
      </trkpt>
      <trkpt lat="45.41976" lon="4.59178">
        <ele>878.6</ele>
        <time>2014-04-19T15:31:43.953Z</time>
      </trkpt>
      <trkpt lat="45.41972" lon="4.59168">
        <ele>878.5</ele>
        <time>2014-04-19T15:31:45.000Z</time>
      </trkpt>
      <trkpt lat="45.41967" lon="4.59159">
        <ele>878.5</ele>
        <time>2014-04-19T15:31:45.940Z</time>
      </trkpt>
      <trkpt lat="45.41961" lon="4.5915">
        <ele>878.6</ele>
        <time>2014-04-19T15:31:46.978Z</time>
      </trkpt>
      <trkpt lat="45.41956" lon="4.59142">
        <ele>878.7</ele>
        <time>2014-04-19T15:31:47.936Z</time>
      </trkpt>
      <trkpt lat="45.4195" lon="4.59135">
        <ele>878.6</ele>
        <time>2014-04-19T15:31:49.358Z</time>
      </trkpt>
      <trkpt lat="45.41943" lon="4.59126">
        <ele>878.8</ele>
        <time>2014-04-19T15:31:49.981Z</time>
      </trkpt>
      <trkpt lat="45.41943" lon="4.59126">
        <ele>878.8</ele>
        <time>2014-04-19T15:31:50.182Z</time>
      </trkpt>
      <trkpt lat="45.41936" lon="4.59117">
        <ele>878.5</ele>
        <time>2014-04-19T15:31:50.997Z</time>
      </trkpt>
      <trkpt lat="45.41936" lon="4.59117">
        <ele>878.5</ele>
        <time>2014-04-19T15:31:51.192Z</time>
      </trkpt>
      <trkpt lat="45.41929" lon="4.59109">
        <ele>877.8</ele>
        <time>2014-04-19T15:31:52.052Z</time>
      </trkpt>
      <trkpt lat="45.41929" lon="4.59109">
        <ele>877.8</ele>
        <time>2014-04-19T15:31:52.376Z</time>
      </trkpt>
      <trkpt lat="45.41921" lon="4.591">
        <ele>877.3</ele>
        <time>2014-04-19T15:31:52.952Z</time>
      </trkpt>
      <trkpt lat="45.41921" lon="4.591">
        <ele>877.3</ele>
        <time>2014-04-19T15:31:53.700Z</time>
      </trkpt>
      <trkpt lat="45.41913" lon="4.59092">
        <ele>876.8</ele>
        <time>2014-04-19T15:31:53.927Z</time>
      </trkpt>
      <trkpt lat="45.41913" lon="4.59092">
        <ele>876.8</ele>
        <time>2014-04-19T15:31:54.080Z</time>
      </trkpt>
      <trkpt lat="45.41905" lon="4.59082">
        <ele>876.4</ele>
        <time>2014-04-19T15:31:54.983Z</time>
      </trkpt>
      <trkpt lat="45.41905" lon="4.59082">
        <ele>876.4</ele>
        <time>2014-04-19T15:31:55.278Z</time>
      </trkpt>
      <trkpt lat="45.41897" lon="4.59073">
        <ele>876.1</ele>
        <time>2014-04-19T15:31:55.931Z</time>
      </trkpt>
      <trkpt lat="45.41897" lon="4.59073">
        <ele>876.1</ele>
        <time>2014-04-19T15:31:56.180Z</time>
      </trkpt>
      <trkpt lat="45.41889" lon="4.59064">
        <ele>875.8</ele>
        <time>2014-04-19T15:31:56.963Z</time>
      </trkpt>
      <trkpt lat="45.41889" lon="4.59064">
        <ele>875.8</ele>
        <time>2014-04-19T15:31:57.154Z</time>
      </trkpt>
      <trkpt lat="45.41882" lon="4.59055">
        <ele>875.5</ele>
        <time>2014-04-19T15:31:57.973Z</time>
      </trkpt>
      <trkpt lat="45.41882" lon="4.59055">
        <ele>875.5</ele>
        <time>2014-04-19T15:31:58.715Z</time>
      </trkpt>
      <trkpt lat="45.41873" lon="4.59045">
        <ele>875.1</ele>
        <time>2014-04-19T15:31:58.912Z</time>
      </trkpt>
      <trkpt lat="45.41873" lon="4.59045">
        <ele>875.1</ele>
        <time>2014-04-19T15:31:59.036Z</time>
      </trkpt>
      <trkpt lat="45.41864" lon="4.59034">
        <ele>874.3</ele>
        <time>2014-04-19T15:31:59.962Z</time>
      </trkpt>
      <trkpt lat="45.41864" lon="4.59034">
        <ele>874.3</ele>
        <time>2014-04-19T15:32:00.158Z</time>
      </trkpt>
      <trkpt lat="45.41854" lon="4.59023">
        <ele>873.1</ele>
        <time>2014-04-19T15:32:00.919Z</time>
      </trkpt>
      <trkpt lat="45.41854" lon="4.59023">
        <ele>873.1</ele>
        <time>2014-04-19T15:32:00.956Z</time>
      </trkpt>
      <trkpt lat="45.41845" lon="4.59012">
        <ele>871.5</ele>
        <time>2014-04-19T15:32:01.934Z</time>
      </trkpt>
      <trkpt lat="45.41845" lon="4.59012">
        <ele>871.5</ele>
        <time>2014-04-19T15:32:02.237Z</time>
      </trkpt>
      <trkpt lat="45.41836" lon="4.59002">
        <ele>870.1</ele>
        <time>2014-04-19T15:32:02.965Z</time>
      </trkpt>
      <trkpt lat="45.41836" lon="4.59002">
        <ele>870.1</ele>
        <time>2014-04-19T15:32:03.252Z</time>
      </trkpt>
      <trkpt lat="45.41827" lon="4.58993">
        <ele>869</ele>
        <time>2014-04-19T15:32:03.940Z</time>
      </trkpt>
      <trkpt lat="45.41827" lon="4.58993">
        <ele>869</ele>
        <time>2014-04-19T15:32:04.172Z</time>
      </trkpt>
      <trkpt lat="45.41818" lon="4.58984">
        <ele>867.8</ele>
        <time>2014-04-19T15:32:04.984Z</time>
      </trkpt>
      <trkpt lat="45.41818" lon="4.58984">
        <ele>867.8</ele>
        <time>2014-04-19T15:32:05.188Z</time>
      </trkpt>
      <trkpt lat="45.41809" lon="4.58975">
        <ele>866.7</ele>
        <time>2014-04-19T15:32:05.942Z</time>
      </trkpt>
      <trkpt lat="45.41809" lon="4.58975">
        <ele>866.7</ele>
        <time>2014-04-19T15:32:06.124Z</time>
      </trkpt>
      <trkpt lat="45.418" lon="4.58967">
        <ele>865.9</ele>
        <time>2014-04-19T15:32:06.937Z</time>
      </trkpt>
      <trkpt lat="45.418" lon="4.58967">
        <ele>865.9</ele>
        <time>2014-04-19T15:32:07.118Z</time>
      </trkpt>
      <trkpt lat="45.41791" lon="4.58958">
        <ele>865.1</ele>
        <time>2014-04-19T15:32:07.955Z</time>
      </trkpt>
      <trkpt lat="45.41791" lon="4.58958">
        <ele>865.1</ele>
        <time>2014-04-19T15:32:08.881Z</time>
      </trkpt>
      <trkpt lat="45.41782" lon="4.5895">
        <ele>864.4</ele>
        <time>2014-04-19T15:32:08.971Z</time>
      </trkpt>
      <trkpt lat="45.41782" lon="4.5895">
        <ele>864.4</ele>
        <time>2014-04-19T15:32:09.153Z</time>
      </trkpt>
      <trkpt lat="45.41773" lon="4.58941">
        <ele>863.7</ele>
        <time>2014-04-19T15:32:09.977Z</time>
      </trkpt>
      <trkpt lat="45.41773" lon="4.58941">
        <ele>863.7</ele>
        <time>2014-04-19T15:32:10.116Z</time>
      </trkpt>
      <trkpt lat="45.41765" lon="4.58933">
        <ele>862.8</ele>
        <time>2014-04-19T15:32:10.950Z</time>
      </trkpt>
      <trkpt lat="45.41765" lon="4.58933">
        <ele>862.8</ele>
        <time>2014-04-19T15:32:11.090Z</time>
      </trkpt>
      <trkpt lat="45.41756" lon="4.58924">
        <ele>862</ele>
        <time>2014-04-19T15:32:11.973Z</time>
      </trkpt>
      <trkpt lat="45.41756" lon="4.58924">
        <ele>862</ele>
        <time>2014-04-19T15:32:12.156Z</time>
      </trkpt>
      <trkpt lat="45.41747" lon="4.58914">
        <ele>861.4</ele>
        <time>2014-04-19T15:32:12.968Z</time>
      </trkpt>
      <trkpt lat="45.41747" lon="4.58914">
        <ele>861.4</ele>
        <time>2014-04-19T15:32:13.165Z</time>
      </trkpt>
      <trkpt lat="45.41739" lon="4.58905">
        <ele>860.7</ele>
        <time>2014-04-19T15:32:13.976Z</time>
      </trkpt>
      <trkpt lat="45.41739" lon="4.58905">
        <ele>860.7</ele>
        <time>2014-04-19T15:32:14.283Z</time>
      </trkpt>
      <trkpt lat="45.41731" lon="4.58897">
        <ele>859.9</ele>
        <time>2014-04-19T15:32:14.938Z</time>
      </trkpt>
      <trkpt lat="45.41731" lon="4.58897">
        <ele>859.9</ele>
        <time>2014-04-19T15:32:15.128Z</time>
      </trkpt>
      <trkpt lat="45.41721" lon="4.58892">
        <ele>859.4</ele>
        <time>2014-04-19T15:32:15.941Z</time>
      </trkpt>
      <trkpt lat="45.41721" lon="4.58892">
        <ele>859.4</ele>
        <time>2014-04-19T15:32:16.083Z</time>
      </trkpt>
      <trkpt lat="45.41712" lon="4.58888">
        <ele>858.9</ele>
        <time>2014-04-19T15:32:16.971Z</time>
      </trkpt>
      <trkpt lat="45.41712" lon="4.58888">
        <ele>858.9</ele>
        <time>2014-04-19T15:32:17.231Z</time>
      </trkpt>
      <trkpt lat="45.41702" lon="4.58885">
        <ele>858.3</ele>
        <time>2014-04-19T15:32:17.947Z</time>
      </trkpt>
      <trkpt lat="45.41702" lon="4.58885">
        <ele>858.3</ele>
        <time>2014-04-19T15:32:18.097Z</time>
      </trkpt>
      <trkpt lat="45.41693" lon="4.58882">
        <ele>857.8</ele>
        <time>2014-04-19T15:32:19.081Z</time>
      </trkpt>
      <trkpt lat="45.41693" lon="4.58882">
        <ele>857.8</ele>
        <time>2014-04-19T15:32:19.107Z</time>
      </trkpt>
      <trkpt lat="45.41682" lon="4.5888">
        <ele>857.2</ele>
        <time>2014-04-19T15:32:19.946Z</time>
      </trkpt>
      <trkpt lat="45.41682" lon="4.5888">
        <ele>857.2</ele>
        <time>2014-04-19T15:32:20.145Z</time>
      </trkpt>
      <trkpt lat="45.41672" lon="4.58879">
        <ele>857</ele>
        <time>2014-04-19T15:32:21.151Z</time>
      </trkpt>
      <trkpt lat="45.41672" lon="4.58879">
        <ele>857</ele>
        <time>2014-04-19T15:32:21.339Z</time>
      </trkpt>
      <trkpt lat="45.41662" lon="4.58879">
        <ele>857</ele>
        <time>2014-04-19T15:32:21.943Z</time>
      </trkpt>
      <trkpt lat="45.41662" lon="4.58879">
        <ele>857</ele>
        <time>2014-04-19T15:32:22.100Z</time>
      </trkpt>
      <trkpt lat="45.41652" lon="4.58879">
        <ele>856.8</ele>
        <time>2014-04-19T15:32:22.990Z</time>
      </trkpt>
      <trkpt lat="45.41652" lon="4.58879">
        <ele>856.8</ele>
        <time>2014-04-19T15:32:23.186Z</time>
      </trkpt>
      <trkpt lat="45.41641" lon="4.5888">
        <ele>856.4</ele>
        <time>2014-04-19T15:32:23.979Z</time>
      </trkpt>
      <trkpt lat="45.41641" lon="4.5888">
        <ele>856.4</ele>
        <time>2014-04-19T15:32:24.279Z</time>
      </trkpt>
      <trkpt lat="45.41631" lon="4.58881">
        <ele>855.9</ele>
        <time>2014-04-19T15:32:24.945Z</time>
      </trkpt>
      <trkpt lat="45.41631" lon="4.58881">
        <ele>855.9</ele>
        <time>2014-04-19T15:32:25.129Z</time>
      </trkpt>
      <trkpt lat="45.4162" lon="4.5888">
        <ele>855.1</ele>
        <time>2014-04-19T15:32:26.120Z</time>
      </trkpt>
      <trkpt lat="45.4162" lon="4.5888">
        <ele>855.1</ele>
        <time>2014-04-19T15:32:26.293Z</time>
      </trkpt>
      <trkpt lat="45.41609" lon="4.5888">
        <ele>854.3</ele>
        <time>2014-04-19T15:32:26.980Z</time>
      </trkpt>
      <trkpt lat="45.41609" lon="4.5888">
        <ele>854.3</ele>
        <time>2014-04-19T15:32:27.134Z</time>
      </trkpt>
      <trkpt lat="45.41598" lon="4.58879">
        <ele>854.3</ele>
        <time>2014-04-19T15:32:28.091Z</time>
      </trkpt>
      <trkpt lat="45.41598" lon="4.58879">
        <ele>854.3</ele>
        <time>2014-04-19T15:32:28.219Z</time>
      </trkpt>
      <trkpt lat="45.41586" lon="4.58878">
        <ele>854.1</ele>
        <time>2014-04-19T15:32:28.980Z</time>
      </trkpt>
      <trkpt lat="45.41586" lon="4.58878">
        <ele>854.1</ele>
        <time>2014-04-19T15:32:29.400Z</time>
      </trkpt>
      <trkpt lat="45.41573" lon="4.58877">
        <ele>853.7</ele>
        <time>2014-04-19T15:32:29.923Z</time>
      </trkpt>
      <trkpt lat="45.41573" lon="4.58877">
        <ele>853.7</ele>
        <time>2014-04-19T15:32:30.099Z</time>
      </trkpt>
      <trkpt lat="45.4156" lon="4.58876">
        <ele>852.9</ele>
        <time>2014-04-19T15:32:30.969Z</time>
      </trkpt>
      <trkpt lat="45.4156" lon="4.58876">
        <ele>852.9</ele>
        <time>2014-04-19T15:32:31.153Z</time>
      </trkpt>
      <trkpt lat="45.41548" lon="4.58875">
        <ele>852</ele>
        <time>2014-04-19T15:32:31.924Z</time>
      </trkpt>
      <trkpt lat="45.41548" lon="4.58875">
        <ele>852</ele>
        <time>2014-04-19T15:32:32.011Z</time>
      </trkpt>
      <trkpt lat="45.41536" lon="4.58874">
        <ele>851</ele>
        <time>2014-04-19T15:32:32.976Z</time>
      </trkpt>
      <trkpt lat="45.41536" lon="4.58874">
        <ele>851</ele>
        <time>2014-04-19T15:32:33.171Z</time>
      </trkpt>
      <trkpt lat="45.41525" lon="4.58873">
        <ele>849.8</ele>
        <time>2014-04-19T15:32:33.967Z</time>
      </trkpt>
      <trkpt lat="45.41525" lon="4.58873">
        <ele>849.8</ele>
        <time>2014-04-19T15:32:34.184Z</time>
      </trkpt>
      <trkpt lat="45.41514" lon="4.58872">
        <ele>848.5</ele>
        <time>2014-04-19T15:32:34.993Z</time>
      </trkpt>
      <trkpt lat="45.41514" lon="4.58872">
        <ele>848.5</ele>
        <time>2014-04-19T15:32:35.167Z</time>
      </trkpt>
      <trkpt lat="45.41503" lon="4.58873">
        <ele>847.6</ele>
        <time>2014-04-19T15:32:35.943Z</time>
      </trkpt>
      <trkpt lat="45.41503" lon="4.58873">
        <ele>847.6</ele>
        <time>2014-04-19T15:32:36.135Z</time>
      </trkpt>
      <trkpt lat="45.41492" lon="4.58874">
        <ele>847</ele>
        <time>2014-04-19T15:32:36.949Z</time>
      </trkpt>
      <trkpt lat="45.41492" lon="4.58874">
        <ele>847</ele>
        <time>2014-04-19T15:32:37.128Z</time>
      </trkpt>
      <trkpt lat="45.41481" lon="4.58876">
        <ele>846.3</ele>
        <time>2014-04-19T15:32:37.943Z</time>
      </trkpt>
      <trkpt lat="45.41481" lon="4.58876">
        <ele>846.3</ele>
        <time>2014-04-19T15:32:38.529Z</time>
      </trkpt>
      <trkpt lat="45.41469" lon="4.58877">
        <ele>846</ele>
        <time>2014-04-19T15:32:38.931Z</time>
      </trkpt>
      <trkpt lat="45.41469" lon="4.58877">
        <ele>846</ele>
        <time>2014-04-19T15:32:39.107Z</time>
      </trkpt>
      <trkpt lat="45.41457" lon="4.58878">
        <ele>845.9</ele>
        <time>2014-04-19T15:32:39.936Z</time>
      </trkpt>
      <trkpt lat="45.41457" lon="4.58878">
        <ele>845.9</ele>
        <time>2014-04-19T15:32:40.095Z</time>
      </trkpt>
      <trkpt lat="45.41445" lon="4.58879">
        <ele>845.8</ele>
        <time>2014-04-19T15:32:40.939Z</time>
      </trkpt>
      <trkpt lat="45.41445" lon="4.58879">
        <ele>845.8</ele>
        <time>2014-04-19T15:32:41.144Z</time>
      </trkpt>
      <trkpt lat="45.41433" lon="4.5888">
        <ele>845.6</ele>
        <time>2014-04-19T15:32:41.973Z</time>
      </trkpt>
      <trkpt lat="45.41433" lon="4.5888">
        <ele>845.6</ele>
        <time>2014-04-19T15:32:42.109Z</time>
      </trkpt>
      <trkpt lat="45.41421" lon="4.58882">
        <ele>845.5</ele>
        <time>2014-04-19T15:32:42.972Z</time>
      </trkpt>
      <trkpt lat="45.41421" lon="4.58882">
        <ele>845.5</ele>
        <time>2014-04-19T15:32:43.317Z</time>
      </trkpt>
      <trkpt lat="45.41409" lon="4.58884">
        <ele>845</ele>
        <time>2014-04-19T15:32:43.947Z</time>
      </trkpt>
      <trkpt lat="45.41409" lon="4.58884">
        <ele>845</ele>
        <time>2014-04-19T15:32:44.090Z</time>
      </trkpt>
      <trkpt lat="45.41397" lon="4.58886">
        <ele>844.3</ele>
        <time>2014-04-19T15:32:44.937Z</time>
      </trkpt>
      <trkpt lat="45.41397" lon="4.58886">
        <ele>844.3</ele>
        <time>2014-04-19T15:32:45.117Z</time>
      </trkpt>
      <trkpt lat="45.41386" lon="4.58888">
        <ele>843.8</ele>
        <time>2014-04-19T15:32:45.927Z</time>
      </trkpt>
      <trkpt lat="45.41386" lon="4.58888">
        <ele>843.8</ele>
        <time>2014-04-19T15:32:46.058Z</time>
      </trkpt>
      <trkpt lat="45.41376" lon="4.5889">
        <ele>843.6</ele>
        <time>2014-04-19T15:32:47.146Z</time>
      </trkpt>
      <trkpt lat="45.41376" lon="4.5889">
        <ele>843.6</ele>
        <time>2014-04-19T15:32:47.283Z</time>
      </trkpt>
      <trkpt lat="45.41366" lon="4.58891">
        <ele>843.4</ele>
        <time>2014-04-19T15:32:47.959Z</time>
      </trkpt>
      <trkpt lat="45.41366" lon="4.58891">
        <ele>843.4</ele>
        <time>2014-04-19T15:32:48.181Z</time>
      </trkpt>
      <trkpt lat="45.41356" lon="4.58893">
        <ele>843.1</ele>
        <time>2014-04-19T15:32:48.979Z</time>
      </trkpt>
      <trkpt lat="45.41356" lon="4.58893">
        <ele>843.1</ele>
        <time>2014-04-19T15:32:49.561Z</time>
      </trkpt>
      <trkpt lat="45.41345" lon="4.58896">
        <ele>842.8</ele>
        <time>2014-04-19T15:32:49.945Z</time>
      </trkpt>
      <trkpt lat="45.41345" lon="4.58896">
        <ele>842.8</ele>
        <time>2014-04-19T15:32:50.128Z</time>
      </trkpt>
      <trkpt lat="45.41336" lon="4.58902">
        <ele>842.2</ele>
        <time>2014-04-19T15:32:50.951Z</time>
      </trkpt>
      <trkpt lat="45.41336" lon="4.58902">
        <ele>842.2</ele>
        <time>2014-04-19T15:32:51.123Z</time>
      </trkpt>
      <trkpt lat="45.41324" lon="4.58908">
        <ele>841.5</ele>
        <time>2014-04-19T15:32:51.984Z</time>
      </trkpt>
      <trkpt lat="45.41324" lon="4.58908">
        <ele>841.5</ele>
        <time>2014-04-19T15:32:52.202Z</time>
      </trkpt>
      <trkpt lat="45.41314" lon="4.58913">
        <ele>840.6</ele>
        <time>2014-04-19T15:32:52.949Z</time>
      </trkpt>
      <trkpt lat="45.41314" lon="4.58913">
        <ele>840.6</ele>
        <time>2014-04-19T15:32:53.699Z</time>
      </trkpt>
      <trkpt lat="45.41303" lon="4.58918">
        <ele>839.6</ele>
        <time>2014-04-19T15:32:53.931Z</time>
      </trkpt>
      <trkpt lat="45.41303" lon="4.58918">
        <ele>839.6</ele>
        <time>2014-04-19T15:32:54.091Z</time>
      </trkpt>
      <trkpt lat="45.41292" lon="4.58922">
        <ele>838.5</ele>
        <time>2014-04-19T15:32:54.957Z</time>
      </trkpt>
      <trkpt lat="45.41292" lon="4.58922">
        <ele>838.5</ele>
        <time>2014-04-19T15:32:55.168Z</time>
      </trkpt>
      <trkpt lat="45.41282" lon="4.58926">
        <ele>837.7</ele>
        <time>2014-04-19T15:32:55.950Z</time>
      </trkpt>
      <trkpt lat="45.41282" lon="4.58926">
        <ele>837.7</ele>
        <time>2014-04-19T15:32:56.193Z</time>
      </trkpt>
      <trkpt lat="45.41271" lon="4.58929">
        <ele>837.1</ele>
        <time>2014-04-19T15:32:56.947Z</time>
      </trkpt>
      <trkpt lat="45.41271" lon="4.58929">
        <ele>837.1</ele>
        <time>2014-04-19T15:32:57.123Z</time>
      </trkpt>
      <trkpt lat="45.4126" lon="4.58933">
        <ele>836.7</ele>
        <time>2014-04-19T15:32:57.956Z</time>
      </trkpt>
      <trkpt lat="45.4126" lon="4.58933">
        <ele>836.7</ele>
        <time>2014-04-19T15:32:58.741Z</time>
      </trkpt>
      <trkpt lat="45.41249" lon="4.58936">
        <ele>836.2</ele>
        <time>2014-04-19T15:32:59.064Z</time>
      </trkpt>
      <trkpt lat="45.41249" lon="4.58936">
        <ele>836.2</ele>
        <time>2014-04-19T15:32:59.313Z</time>
      </trkpt>
      <trkpt lat="45.41237" lon="4.5894">
        <ele>835.5</ele>
        <time>2014-04-19T15:32:59.947Z</time>
      </trkpt>
      <trkpt lat="45.41237" lon="4.5894">
        <ele>835.5</ele>
        <time>2014-04-19T15:33:00.185Z</time>
      </trkpt>
      <trkpt lat="45.41227" lon="4.58944">
        <ele>834.6</ele>
        <time>2014-04-19T15:33:00.902Z</time>
      </trkpt>
      <trkpt lat="45.41227" lon="4.58944">
        <ele>834.6</ele>
        <time>2014-04-19T15:33:01.043Z</time>
      </trkpt>
      <trkpt lat="45.41216" lon="4.58948">
        <ele>833.7</ele>
        <time>2014-04-19T15:33:01.906Z</time>
      </trkpt>
      <trkpt lat="45.41216" lon="4.58948">
        <ele>833.7</ele>
        <time>2014-04-19T15:33:02.012Z</time>
      </trkpt>
      <trkpt lat="45.41204" lon="4.58953">
        <ele>832.9</ele>
        <time>2014-04-19T15:33:02.929Z</time>
      </trkpt>
      <trkpt lat="45.41204" lon="4.58953">
        <ele>832.9</ele>
        <time>2014-04-19T15:33:03.936Z</time>
      </trkpt>
      <trkpt lat="45.41193" lon="4.58957">
        <ele>832.2</ele>
        <time>2014-04-19T15:33:04.119Z</time>
      </trkpt>
      <trkpt lat="45.41193" lon="4.58957">
        <ele>832.2</ele>
        <time>2014-04-19T15:33:04.267Z</time>
      </trkpt>
      <trkpt lat="45.41183" lon="4.58964">
        <ele>831.4</ele>
        <time>2014-04-19T15:33:04.956Z</time>
      </trkpt>
      <trkpt lat="45.41183" lon="4.58964">
        <ele>831.4</ele>
        <time>2014-04-19T15:33:05.090Z</time>
      </trkpt>
      <trkpt lat="45.41172" lon="4.5897">
        <ele>830.5</ele>
        <time>2014-04-19T15:33:05.937Z</time>
      </trkpt>
      <trkpt lat="45.41172" lon="4.5897">
        <ele>830.5</ele>
        <time>2014-04-19T15:33:06.056Z</time>
      </trkpt>
      <trkpt lat="45.41161" lon="4.58977">
        <ele>829.7</ele>
        <time>2014-04-19T15:33:06.968Z</time>
      </trkpt>
      <trkpt lat="45.41161" lon="4.58977">
        <ele>829.7</ele>
        <time>2014-04-19T15:33:07.182Z</time>
      </trkpt>
      <trkpt lat="45.41153" lon="4.58984">
        <ele>829.1</ele>
        <time>2014-04-19T15:33:08.138Z</time>
      </trkpt>
      <trkpt lat="45.41153" lon="4.58984">
        <ele>829.1</ele>
        <time>2014-04-19T15:33:08.969Z</time>
      </trkpt>
      <trkpt lat="45.41144" lon="4.58991">
        <ele>828.5</ele>
        <time>2014-04-19T15:33:09.060Z</time>
      </trkpt>
      <trkpt lat="45.41144" lon="4.58991">
        <ele>828.5</ele>
        <time>2014-04-19T15:33:09.221Z</time>
      </trkpt>
      <trkpt lat="45.41135" lon="4.58997">
        <ele>828</ele>
        <time>2014-04-19T15:33:09.980Z</time>
      </trkpt>
      <trkpt lat="45.41135" lon="4.58997">
        <ele>828</ele>
        <time>2014-04-19T15:33:10.183Z</time>
      </trkpt>
      <trkpt lat="45.41127" lon="4.59002">
        <ele>827.4</ele>
        <time>2014-04-19T15:33:10.945Z</time>
      </trkpt>
      <trkpt lat="45.41118" lon="4.59005">
        <ele>826.7</ele>
        <time>2014-04-19T15:33:12.112Z</time>
      </trkpt>
      <trkpt lat="45.4111" lon="4.59007">
        <ele>826.1</ele>
        <time>2014-04-19T15:33:12.921Z</time>
      </trkpt>
      <trkpt lat="45.41102" lon="4.59009">
        <ele>825.2</ele>
        <time>2014-04-19T15:33:14.018Z</time>
      </trkpt>
      <trkpt lat="45.41094" lon="4.59015">
        <ele>824.4</ele>
        <time>2014-04-19T15:33:14.983Z</time>
      </trkpt>
      <trkpt lat="45.41087" lon="4.59022">
        <ele>823.7</ele>
        <time>2014-04-19T15:33:16.256Z</time>
      </trkpt>
      <trkpt lat="45.4108" lon="4.59031">
        <ele>822.9</ele>
        <time>2014-04-19T15:33:16.941Z</time>
      </trkpt>
      <trkpt lat="45.4108" lon="4.59031">
        <ele>822.9</ele>
        <time>2014-04-19T15:33:17.102Z</time>
      </trkpt>
      <trkpt lat="45.41073" lon="4.59041">
        <ele>822</ele>
        <time>2014-04-19T15:33:17.969Z</time>
      </trkpt>
      <trkpt lat="45.41073" lon="4.59041">
        <ele>822</ele>
        <time>2014-04-19T15:33:18.190Z</time>
      </trkpt>
      <trkpt lat="45.41066" lon="4.5905">
        <ele>821.1</ele>
        <time>2014-04-19T15:33:18.938Z</time>
      </trkpt>
      <trkpt lat="45.41066" lon="4.5905">
        <ele>821.1</ele>
        <time>2014-04-19T15:33:19.222Z</time>
      </trkpt>
      <trkpt lat="45.41058" lon="4.5906">
        <ele>820.2</ele>
        <time>2014-04-19T15:33:19.901Z</time>
      </trkpt>
      <trkpt lat="45.41058" lon="4.5906">
        <ele>820.2</ele>
        <time>2014-04-19T15:33:20.724Z</time>
      </trkpt>
      <trkpt lat="45.4105" lon="4.5907">
        <ele>819.2</ele>
        <time>2014-04-19T15:33:20.926Z</time>
      </trkpt>
      <trkpt lat="45.4105" lon="4.5907">
        <ele>819.2</ele>
        <time>2014-04-19T15:33:21.104Z</time>
      </trkpt>
      <trkpt lat="45.41043" lon="4.5908">
        <ele>818.2</ele>
        <time>2014-04-19T15:33:21.957Z</time>
      </trkpt>
      <trkpt lat="45.41037" lon="4.59089">
        <ele>817.2</ele>
        <time>2014-04-19T15:33:22.980Z</time>
      </trkpt>
      <trkpt lat="45.41031" lon="4.59098">
        <ele>816.3</ele>
        <time>2014-04-19T15:33:23.953Z</time>
      </trkpt>
      <trkpt lat="45.41027" lon="4.59106">
        <ele>815.5</ele>
        <time>2014-04-19T15:33:24.946Z</time>
      </trkpt>
      <trkpt lat="45.4102" lon="4.5911">
        <ele>814.8</ele>
        <time>2014-04-19T15:33:25.908Z</time>
      </trkpt>
      <trkpt lat="45.41013" lon="4.59113">
        <ele>814.1</ele>
        <time>2014-04-19T15:33:27.072Z</time>
      </trkpt>
      <trkpt lat="45.41005" lon="4.59115">
        <ele>813.4</ele>
        <time>2014-04-19T15:33:27.954Z</time>
      </trkpt>
      <trkpt lat="45.41005" lon="4.59115">
        <ele>813.4</ele>
        <time>2014-04-19T15:33:28.173Z</time>
      </trkpt>
      <trkpt lat="45.40995" lon="4.59117">
        <ele>812.5</ele>
        <time>2014-04-19T15:33:28.953Z</time>
      </trkpt>
      <trkpt lat="45.40995" lon="4.59117">
        <ele>812.5</ele>
        <time>2014-04-19T15:33:29.162Z</time>
      </trkpt>
      <trkpt lat="45.40984" lon="4.59119">
        <ele>811.7</ele>
        <time>2014-04-19T15:33:29.931Z</time>
      </trkpt>
      <trkpt lat="45.40984" lon="4.59119">
        <ele>811.7</ele>
        <time>2014-04-19T15:33:30.110Z</time>
      </trkpt>
      <trkpt lat="45.40973" lon="4.59121">
        <ele>811.3</ele>
        <time>2014-04-19T15:33:30.970Z</time>
      </trkpt>
      <trkpt lat="45.40973" lon="4.59121">
        <ele>811.3</ele>
        <time>2014-04-19T15:33:31.153Z</time>
      </trkpt>
      <trkpt lat="45.40962" lon="4.59125">
        <ele>811</ele>
        <time>2014-04-19T15:33:31.980Z</time>
      </trkpt>
      <trkpt lat="45.40962" lon="4.59125">
        <ele>811</ele>
        <time>2014-04-19T15:33:32.228Z</time>
      </trkpt>
      <trkpt lat="45.40951" lon="4.59128">
        <ele>810.4</ele>
        <time>2014-04-19T15:33:32.953Z</time>
      </trkpt>
      <trkpt lat="45.40951" lon="4.59128">
        <ele>810.4</ele>
        <time>2014-04-19T15:33:33.138Z</time>
      </trkpt>
      <trkpt lat="45.4094" lon="4.59131">
        <ele>809.7</ele>
        <time>2014-04-19T15:33:33.968Z</time>
      </trkpt>
      <trkpt lat="45.4094" lon="4.59131">
        <ele>809.7</ele>
        <time>2014-04-19T15:33:34.325Z</time>
      </trkpt>
      <trkpt lat="45.40928" lon="4.59134">
        <ele>809</ele>
        <time>2014-04-19T15:33:34.950Z</time>
      </trkpt>
      <trkpt lat="45.40928" lon="4.59134">
        <ele>809</ele>
        <time>2014-04-19T15:33:35.107Z</time>
      </trkpt>
      <trkpt lat="45.40917" lon="4.59136">
        <ele>808.2</ele>
        <time>2014-04-19T15:33:35.955Z</time>
      </trkpt>
      <trkpt lat="45.40917" lon="4.59136">
        <ele>808.2</ele>
        <time>2014-04-19T15:33:36.153Z</time>
      </trkpt>
      <trkpt lat="45.40906" lon="4.59138">
        <ele>807.5</ele>
        <time>2014-04-19T15:33:36.984Z</time>
      </trkpt>
      <trkpt lat="45.40906" lon="4.59138">
        <ele>807.5</ele>
        <time>2014-04-19T15:33:37.200Z</time>
      </trkpt>
      <trkpt lat="45.40895" lon="4.59138">
        <ele>806.8</ele>
        <time>2014-04-19T15:33:38.061Z</time>
      </trkpt>
      <trkpt lat="45.40895" lon="4.59138">
        <ele>806.8</ele>
        <time>2014-04-19T15:33:38.498Z</time>
      </trkpt>
      <trkpt lat="45.40886" lon="4.59138">
        <ele>806</ele>
        <time>2014-04-19T15:33:38.927Z</time>
      </trkpt>
      <trkpt lat="45.40878" lon="4.59138">
        <ele>805.3</ele>
        <time>2014-04-19T15:33:39.973Z</time>
      </trkpt>
      <trkpt lat="45.4087" lon="4.59138">
        <ele>804.8</ele>
        <time>2014-04-19T15:33:40.970Z</time>
      </trkpt>
      <trkpt lat="45.40864" lon="4.59137">
        <ele>804.1</ele>
        <time>2014-04-19T15:33:42.180Z</time>
      </trkpt>
      <trkpt lat="45.40858" lon="4.59137">
        <ele>803.4</ele>
        <time>2014-04-19T15:33:42.945Z</time>
      </trkpt>
      <trkpt lat="45.40853" lon="4.59134">
        <ele>802.7</ele>
        <time>2014-04-19T15:33:44.334Z</time>
      </trkpt>
      <trkpt lat="45.4085" lon="4.59132">
        <ele>802</ele>
        <time>2014-04-19T15:33:44.955Z</time>
      </trkpt>
      <trkpt lat="45.40844" lon="4.59122">
        <ele>800.9</ele>
        <time>2014-04-19T15:33:46.987Z</time>
      </trkpt>
      <trkpt lat="45.40841" lon="4.59116">
        <ele>800.5</ele>
        <time>2014-04-19T15:33:47.932Z</time>
      </trkpt>
      <trkpt lat="45.40839" lon="4.59109">
        <ele>800.2</ele>
        <time>2014-04-19T15:33:49.344Z</time>
      </trkpt>
      <trkpt lat="45.40838" lon="4.59101">
        <ele>800.1</ele>
        <time>2014-04-19T15:33:49.944Z</time>
      </trkpt>
      <trkpt lat="45.40837" lon="4.59094">
        <ele>800.4</ele>
        <time>2014-04-19T15:33:50.971Z</time>
      </trkpt>
      <trkpt lat="45.4084" lon="4.59087">
        <ele>800.8</ele>
        <time>2014-04-19T15:33:51.912Z</time>
      </trkpt>
      <trkpt lat="45.40845" lon="4.59083">
        <ele>801.4</ele>
        <time>2014-04-19T15:33:53.811Z</time>
      </trkpt>
      <trkpt lat="45.40852" lon="4.59079">
        <ele>802.3</ele>
        <time>2014-04-19T15:33:53.943Z</time>
      </trkpt>
      <trkpt lat="45.40858" lon="4.59077">
        <ele>803</ele>
        <time>2014-04-19T15:33:54.974Z</time>
      </trkpt>
      <trkpt lat="45.40865" lon="4.59077">
        <ele>803.5</ele>
        <time>2014-04-19T15:33:55.949Z</time>
      </trkpt>
      <trkpt lat="45.40871" lon="4.59077">
        <ele>803.6</ele>
        <time>2014-04-19T15:33:56.971Z</time>
      </trkpt>
      <trkpt lat="45.40878" lon="4.59079">
        <ele>803.4</ele>
        <time>2014-04-19T15:33:57.920Z</time>
      </trkpt>
      <trkpt lat="45.40885" lon="4.59081">
        <ele>802.9</ele>
        <time>2014-04-19T15:33:59.026Z</time>
      </trkpt>
      <trkpt lat="45.40892" lon="4.59083">
        <ele>801.7</ele>
        <time>2014-04-19T15:33:59.932Z</time>
      </trkpt>
      <trkpt lat="45.409" lon="4.59086">
        <ele>800.1</ele>
        <time>2014-04-19T15:34:01.057Z</time>
      </trkpt>
      <trkpt lat="45.40909" lon="4.5909">
        <ele>798.4</ele>
        <time>2014-04-19T15:34:01.925Z</time>
      </trkpt>
      <trkpt lat="45.40909" lon="4.5909">
        <ele>798.4</ele>
        <time>2014-04-19T15:34:02.104Z</time>
      </trkpt>
      <trkpt lat="45.40918" lon="4.59094">
        <ele>796.8</ele>
        <time>2014-04-19T15:34:02.920Z</time>
      </trkpt>
      <trkpt lat="45.40926" lon="4.59097">
        <ele>795.6</ele>
        <time>2014-04-19T15:34:04.068Z</time>
      </trkpt>
      <trkpt lat="45.40935" lon="4.59096">
        <ele>794.7</ele>
        <time>2014-04-19T15:34:04.978Z</time>
      </trkpt>
      <trkpt lat="45.40943" lon="4.59094">
        <ele>793.9</ele>
        <time>2014-04-19T15:34:05.974Z</time>
      </trkpt>
      <trkpt lat="45.40951" lon="4.59087">
        <ele>793.2</ele>
        <time>2014-04-19T15:34:06.955Z</time>
      </trkpt>
      <trkpt lat="45.40958" lon="4.59079">
        <ele>793</ele>
        <time>2014-04-19T15:34:08.122Z</time>
      </trkpt>
      <trkpt lat="45.40966" lon="4.5907">
        <ele>792.5</ele>
        <time>2014-04-19T15:34:08.974Z</time>
      </trkpt>
      <trkpt lat="45.40966" lon="4.5907">
        <ele>792.5</ele>
        <time>2014-04-19T15:34:09.015Z</time>
      </trkpt>
      <trkpt lat="45.40974" lon="4.5906">
        <ele>791.6</ele>
        <time>2014-04-19T15:34:09.955Z</time>
      </trkpt>
      <trkpt lat="45.40974" lon="4.5906">
        <ele>791.6</ele>
        <time>2014-04-19T15:34:10.145Z</time>
      </trkpt>
      <trkpt lat="45.40982" lon="4.59048">
        <ele>790.6</ele>
        <time>2014-04-19T15:34:10.943Z</time>
      </trkpt>
      <trkpt lat="45.40982" lon="4.59048">
        <ele>790.6</ele>
        <time>2014-04-19T15:34:11.119Z</time>
      </trkpt>
      <trkpt lat="45.40991" lon="4.59036">
        <ele>789.3</ele>
        <time>2014-04-19T15:34:11.954Z</time>
      </trkpt>
      <trkpt lat="45.40991" lon="4.59036">
        <ele>789.3</ele>
        <time>2014-04-19T15:34:12.163Z</time>
      </trkpt>
      <trkpt lat="45.40999" lon="4.59024">
        <ele>788</ele>
        <time>2014-04-19T15:34:12.946Z</time>
      </trkpt>
      <trkpt lat="45.40999" lon="4.59024">
        <ele>788</ele>
        <time>2014-04-19T15:34:13.071Z</time>
      </trkpt>
      <trkpt lat="45.41007" lon="4.59014">
        <ele>786.8</ele>
        <time>2014-04-19T15:34:13.981Z</time>
      </trkpt>
      <trkpt lat="45.41007" lon="4.59014">
        <ele>786.8</ele>
        <time>2014-04-19T15:34:14.114Z</time>
      </trkpt>
      <trkpt lat="45.41015" lon="4.59005">
        <ele>785.6</ele>
        <time>2014-04-19T15:34:14.918Z</time>
      </trkpt>
      <trkpt lat="45.41015" lon="4.59005">
        <ele>785.6</ele>
        <time>2014-04-19T15:34:15.083Z</time>
      </trkpt>
      <trkpt lat="45.41025" lon="4.58994">
        <ele>784.4</ele>
        <time>2014-04-19T15:34:15.952Z</time>
      </trkpt>
      <trkpt lat="45.41025" lon="4.58994">
        <ele>784.4</ele>
        <time>2014-04-19T15:34:16.153Z</time>
      </trkpt>
      <trkpt lat="45.41034" lon="4.58982">
        <ele>783.6</ele>
        <time>2014-04-19T15:34:16.973Z</time>
      </trkpt>
      <trkpt lat="45.41034" lon="4.58982">
        <ele>783.6</ele>
        <time>2014-04-19T15:34:17.210Z</time>
      </trkpt>
      <trkpt lat="45.41043" lon="4.58972">
        <ele>782.6</ele>
        <time>2014-04-19T15:34:17.906Z</time>
      </trkpt>
      <trkpt lat="45.41043" lon="4.58972">
        <ele>782.6</ele>
        <time>2014-04-19T15:34:18.080Z</time>
      </trkpt>
      <trkpt lat="45.41052" lon="4.5896">
        <ele>781.6</ele>
        <time>2014-04-19T15:34:19.071Z</time>
      </trkpt>
      <trkpt lat="45.41052" lon="4.5896">
        <ele>781.6</ele>
        <time>2014-04-19T15:34:19.560Z</time>
      </trkpt>
      <trkpt lat="45.41062" lon="4.58948">
        <ele>780.3</ele>
        <time>2014-04-19T15:34:19.895Z</time>
      </trkpt>
      <trkpt lat="45.41062" lon="4.58948">
        <ele>780.3</ele>
        <time>2014-04-19T15:34:20.027Z</time>
      </trkpt>
      <trkpt lat="45.41071" lon="4.58936">
        <ele>779</ele>
        <time>2014-04-19T15:34:20.925Z</time>
      </trkpt>
      <trkpt lat="45.41071" lon="4.58936">
        <ele>779</ele>
        <time>2014-04-19T15:34:21.066Z</time>
      </trkpt>
      <trkpt lat="45.4108" lon="4.58925">
        <ele>777.8</ele>
        <time>2014-04-19T15:34:21.958Z</time>
      </trkpt>
      <trkpt lat="45.4108" lon="4.58925">
        <ele>777.8</ele>
        <time>2014-04-19T15:34:22.168Z</time>
      </trkpt>
      <trkpt lat="45.4109" lon="4.58913">
        <ele>776.6</ele>
        <time>2014-04-19T15:34:22.921Z</time>
      </trkpt>
      <trkpt lat="45.4109" lon="4.58913">
        <ele>776.6</ele>
        <time>2014-04-19T15:34:23.335Z</time>
      </trkpt>
      <trkpt lat="45.411" lon="4.58902">
        <ele>775.2</ele>
        <time>2014-04-19T15:34:23.972Z</time>
      </trkpt>
      <trkpt lat="45.411" lon="4.58902">
        <ele>775.2</ele>
        <time>2014-04-19T15:34:24.240Z</time>
      </trkpt>
      <trkpt lat="45.41109" lon="4.58891">
        <ele>774</ele>
        <time>2014-04-19T15:34:24.948Z</time>
      </trkpt>
      <trkpt lat="45.41109" lon="4.58891">
        <ele>774</ele>
        <time>2014-04-19T15:34:25.128Z</time>
      </trkpt>
      <trkpt lat="45.41119" lon="4.58881">
        <ele>773.1</ele>
        <time>2014-04-19T15:34:25.934Z</time>
      </trkpt>
      <trkpt lat="45.41119" lon="4.58881">
        <ele>773.1</ele>
        <time>2014-04-19T15:34:26.090Z</time>
      </trkpt>
      <trkpt lat="45.41128" lon="4.58871">
        <ele>772.2</ele>
        <time>2014-04-19T15:34:26.931Z</time>
      </trkpt>
      <trkpt lat="45.41128" lon="4.58871">
        <ele>772.2</ele>
        <time>2014-04-19T15:34:27.087Z</time>
      </trkpt>
      <trkpt lat="45.41137" lon="4.58861">
        <ele>771.5</ele>
        <time>2014-04-19T15:34:27.968Z</time>
      </trkpt>
      <trkpt lat="45.41137" lon="4.58861">
        <ele>771.5</ele>
        <time>2014-04-19T15:34:28.196Z</time>
      </trkpt>
      <trkpt lat="45.41147" lon="4.58851">
        <ele>770.9</ele>
        <time>2014-04-19T15:34:28.969Z</time>
      </trkpt>
      <trkpt lat="45.41147" lon="4.58851">
        <ele>770.9</ele>
        <time>2014-04-19T15:34:29.260Z</time>
      </trkpt>
      <trkpt lat="45.41156" lon="4.58841">
        <ele>770.4</ele>
        <time>2014-04-19T15:34:30.043Z</time>
      </trkpt>
      <trkpt lat="45.41156" lon="4.58841">
        <ele>770.4</ele>
        <time>2014-04-19T15:34:30.334Z</time>
      </trkpt>
      <trkpt lat="45.41165" lon="4.58832">
        <ele>770</ele>
        <time>2014-04-19T15:34:30.954Z</time>
      </trkpt>
      <trkpt lat="45.41165" lon="4.58832">
        <ele>770</ele>
        <time>2014-04-19T15:34:31.141Z</time>
      </trkpt>
      <trkpt lat="45.41173" lon="4.58823">
        <ele>769.7</ele>
        <time>2014-04-19T15:34:31.968Z</time>
      </trkpt>
      <trkpt lat="45.41173" lon="4.58823">
        <ele>769.7</ele>
        <time>2014-04-19T15:34:32.176Z</time>
      </trkpt>
      <trkpt lat="45.4118" lon="4.58814">
        <ele>769.3</ele>
        <time>2014-04-19T15:34:32.932Z</time>
      </trkpt>
      <trkpt lat="45.4118" lon="4.58814">
        <ele>769.3</ele>
        <time>2014-04-19T15:34:33.096Z</time>
      </trkpt>
      <trkpt lat="45.41188" lon="4.58804">
        <ele>769.2</ele>
        <time>2014-04-19T15:34:33.973Z</time>
      </trkpt>
      <trkpt lat="45.41188" lon="4.58804">
        <ele>769.2</ele>
        <time>2014-04-19T15:34:34.442Z</time>
      </trkpt>
      <trkpt lat="45.41195" lon="4.58795">
        <ele>769.1</ele>
        <time>2014-04-19T15:34:34.926Z</time>
      </trkpt>
      <trkpt lat="45.41195" lon="4.58795">
        <ele>769.1</ele>
        <time>2014-04-19T15:34:35.100Z</time>
      </trkpt>
      <trkpt lat="45.41202" lon="4.58787">
        <ele>769</ele>
        <time>2014-04-19T15:34:35.947Z</time>
      </trkpt>
      <trkpt lat="45.41209" lon="4.5878">
        <ele>768.7</ele>
        <time>2014-04-19T15:34:36.966Z</time>
      </trkpt>
      <trkpt lat="45.41214" lon="4.58773">
        <ele>768.5</ele>
        <time>2014-04-19T15:34:37.970Z</time>
      </trkpt>
      <trkpt lat="45.4122" lon="4.58767">
        <ele>768.2</ele>
        <time>2014-04-19T15:34:39.437Z</time>
      </trkpt>
      <trkpt lat="45.41226" lon="4.58761">
        <ele>768.1</ele>
        <time>2014-04-19T15:34:39.968Z</time>
      </trkpt>
      <trkpt lat="45.41231" lon="4.58756">
        <ele>768.5</ele>
        <time>2014-04-19T15:34:41.055Z</time>
      </trkpt>
      <trkpt lat="45.41237" lon="4.58753">
        <ele>768.7</ele>
        <time>2014-04-19T15:34:41.936Z</time>
      </trkpt>
      <trkpt lat="45.41242" lon="4.58752">
        <ele>768.8</ele>
        <time>2014-04-19T15:34:43.051Z</time>
      </trkpt>
      <trkpt lat="45.41247" lon="4.58751">
        <ele>768.4</ele>
        <time>2014-04-19T15:34:43.968Z</time>
      </trkpt>
      <trkpt lat="45.41252" lon="4.5875">
        <ele>768.5</ele>
        <time>2014-04-19T15:34:44.965Z</time>
      </trkpt>
      <trkpt lat="45.41257" lon="4.5875">
        <ele>769.2</ele>
        <time>2014-04-19T15:34:45.971Z</time>
      </trkpt>
      <trkpt lat="45.41262" lon="4.5875">
        <ele>770.1</ele>
        <time>2014-04-19T15:34:46.965Z</time>
      </trkpt>
      <trkpt lat="45.41267" lon="4.5875">
        <ele>771</ele>
        <time>2014-04-19T15:34:48.010Z</time>
      </trkpt>
      <trkpt lat="45.41272" lon="4.5875">
        <ele>771.9</ele>
        <time>2014-04-19T15:34:48.995Z</time>
      </trkpt>
      <trkpt lat="45.41277" lon="4.58749">
        <ele>772.5</ele>
        <time>2014-04-19T15:34:49.945Z</time>
      </trkpt>
      <trkpt lat="45.41286" lon="4.58747">
        <ele>772.3</ele>
        <time>2014-04-19T15:34:52.045Z</time>
      </trkpt>
      <trkpt lat="45.4129" lon="4.58745">
        <ele>772.3</ele>
        <time>2014-04-19T15:34:52.936Z</time>
      </trkpt>
      <trkpt lat="45.41297" lon="4.58743">
        <ele>772.3</ele>
        <time>2014-04-19T15:34:55.030Z</time>
      </trkpt>
      <trkpt lat="45.41301" lon="4.58742">
        <ele>772.4</ele>
        <time>2014-04-19T15:34:55.955Z</time>
      </trkpt>
      <trkpt lat="45.41308" lon="4.58739">
        <ele>772.5</ele>
        <time>2014-04-19T15:34:58.747Z</time>
      </trkpt>
      <trkpt lat="45.41311" lon="4.58738">
        <ele>772.6</ele>
        <time>2014-04-19T15:34:58.912Z</time>
      </trkpt>
      <trkpt lat="45.41317" lon="4.58735">
        <ele>772.8</ele>
        <time>2014-04-19T15:35:01.005Z</time>
      </trkpt>
      <trkpt lat="45.4132" lon="4.58734">
        <ele>772.9</ele>
        <time>2014-04-19T15:35:02.008Z</time>
      </trkpt>
      <trkpt lat="45.41327" lon="4.5873">
        <ele>773.1</ele>
        <time>2014-04-19T15:35:04.011Z</time>
      </trkpt>
      <trkpt lat="45.4133" lon="4.58729">
        <ele>773.2</ele>
        <time>2014-04-19T15:35:04.938Z</time>
      </trkpt>
      <trkpt lat="45.41337" lon="4.58726">
        <ele>773.5</ele>
        <time>2014-04-19T15:35:07.043Z</time>
      </trkpt>
      <trkpt lat="45.41341" lon="4.58725">
        <ele>773.7</ele>
        <time>2014-04-19T15:35:07.948Z</time>
      </trkpt>
      <trkpt lat="45.41347" lon="4.58721">
        <ele>774.1</ele>
        <time>2014-04-19T15:35:10.013Z</time>
      </trkpt>
      <trkpt lat="45.41351" lon="4.5872">
        <ele>774.3</ele>
        <time>2014-04-19T15:35:10.984Z</time>
      </trkpt>
      <trkpt lat="45.41357" lon="4.58717">
        <ele>774.6</ele>
        <time>2014-04-19T15:35:13.042Z</time>
      </trkpt>
      <trkpt lat="45.4136" lon="4.58715">
        <ele>774.8</ele>
        <time>2014-04-19T15:35:14.071Z</time>
      </trkpt>
      <trkpt lat="45.41366" lon="4.58712">
        <ele>775.2</ele>
        <time>2014-04-19T15:35:16.095Z</time>
      </trkpt>
      <trkpt lat="45.4137" lon="4.58711">
        <ele>775.4</ele>
        <time>2014-04-19T15:35:16.969Z</time>
      </trkpt>
      <trkpt lat="45.41378" lon="4.58709">
        <ele>775.8</ele>
        <time>2014-04-19T15:35:19.547Z</time>
      </trkpt>
      <trkpt lat="45.41382" lon="4.58709">
        <ele>776</ele>
        <time>2014-04-19T15:35:19.916Z</time>
      </trkpt>
      <trkpt lat="45.4139" lon="4.58707">
        <ele>776.5</ele>
        <time>2014-04-19T15:35:22.002Z</time>
      </trkpt>
      <trkpt lat="45.41394" lon="4.58707">
        <ele>776.7</ele>
        <time>2014-04-19T15:35:22.987Z</time>
      </trkpt>
      <trkpt lat="45.41402" lon="4.58706">
        <ele>777.1</ele>
        <time>2014-04-19T15:35:24.967Z</time>
      </trkpt>
      <trkpt lat="45.41406" lon="4.58706">
        <ele>777.2</ele>
        <time>2014-04-19T15:35:25.961Z</time>
      </trkpt>
      <trkpt lat="45.41414" lon="4.58706">
        <ele>777.4</ele>
        <time>2014-04-19T15:35:27.976Z</time>
      </trkpt>
      <trkpt lat="45.41418" lon="4.58706">
        <ele>777.6</ele>
        <time>2014-04-19T15:35:28.956Z</time>
      </trkpt>
      <trkpt lat="45.41426" lon="4.58706">
        <ele>777.7</ele>
        <time>2014-04-19T15:35:30.995Z</time>
      </trkpt>
      <trkpt lat="45.4143" lon="4.58706">
        <ele>777.8</ele>
        <time>2014-04-19T15:35:31.936Z</time>
      </trkpt>
      <trkpt lat="45.41437" lon="4.58706">
        <ele>777.9</ele>
        <time>2014-04-19T15:35:34.236Z</time>
      </trkpt>
      <trkpt lat="45.4144" lon="4.58705">
        <ele>777.9</ele>
        <time>2014-04-19T15:35:34.939Z</time>
      </trkpt>
      <trkpt lat="45.41449" lon="4.58704">
        <ele>778</ele>
        <time>2014-04-19T15:35:38.074Z</time>
      </trkpt>
      <trkpt lat="45.41452" lon="4.58703">
        <ele>778</ele>
        <time>2014-04-19T15:35:38.981Z</time>
      </trkpt>
      <trkpt lat="45.4146" lon="4.58701">
        <ele>778.1</ele>
        <time>2014-04-19T15:35:40.981Z</time>
      </trkpt>
      <trkpt lat="45.41463" lon="4.587">
        <ele>778.1</ele>
        <time>2014-04-19T15:35:41.938Z</time>
      </trkpt>
      <trkpt lat="45.41469" lon="4.58697">
        <ele>778.3</ele>
        <time>2014-04-19T15:35:44.264Z</time>
      </trkpt>
      <trkpt lat="45.41473" lon="4.58696">
        <ele>778.3</ele>
        <time>2014-04-19T15:35:44.927Z</time>
      </trkpt>
      <trkpt lat="45.41479" lon="4.58693">
        <ele>778.3</ele>
        <time>2014-04-19T15:35:47.082Z</time>
      </trkpt>
      <trkpt lat="45.41482" lon="4.58692">
        <ele>778.4</ele>
        <time>2014-04-19T15:35:48.141Z</time>
      </trkpt>
      <trkpt lat="45.41489" lon="4.58689">
        <ele>779.2</ele>
        <time>2014-04-19T15:35:52.045Z</time>
      </trkpt>
      <trkpt lat="45.41492" lon="4.58689">
        <ele>779.5</ele>
        <time>2014-04-19T15:35:52.958Z</time>
      </trkpt>
      <trkpt lat="45.41501" lon="4.58687">
        <ele>780.3</ele>
        <time>2014-04-19T15:35:56.041Z</time>
      </trkpt>
      <trkpt lat="45.41504" lon="4.58685">
        <ele>780.5</ele>
        <time>2014-04-19T15:35:56.973Z</time>
      </trkpt>
      <trkpt lat="45.41511" lon="4.58683">
        <ele>781</ele>
        <time>2014-04-19T15:35:59.049Z</time>
      </trkpt>
      <trkpt lat="45.41514" lon="4.58682">
        <ele>781.2</ele>
        <time>2014-04-19T15:35:59.938Z</time>
      </trkpt>
      <trkpt lat="45.4152" lon="4.5868">
        <ele>781.8</ele>
        <time>2014-04-19T15:36:01.987Z</time>
      </trkpt>
      <trkpt lat="45.41524" lon="4.58679">
        <ele>782.1</ele>
        <time>2014-04-19T15:36:02.966Z</time>
      </trkpt>
      <trkpt lat="45.4153" lon="4.58678">
        <ele>782.8</ele>
        <time>2014-04-19T15:36:04.994Z</time>
      </trkpt>
      <trkpt lat="45.41534" lon="4.58678">
        <ele>783.2</ele>
        <time>2014-04-19T15:36:05.981Z</time>
      </trkpt>
      <trkpt lat="45.41541" lon="4.58676">
        <ele>784.2</ele>
        <time>2014-04-19T15:36:08.968Z</time>
      </trkpt>
      <trkpt lat="45.41543" lon="4.58675">
        <ele>784.6</ele>
        <time>2014-04-19T15:36:09.981Z</time>
      </trkpt>
      <trkpt lat="45.4155" lon="4.58675">
        <ele>785.3</ele>
        <time>2014-04-19T15:36:12.003Z</time>
      </trkpt>
      <trkpt lat="45.41553" lon="4.58674">
        <ele>785.6</ele>
        <time>2014-04-19T15:36:12.977Z</time>
      </trkpt>
      <trkpt lat="45.41561" lon="4.58672">
        <ele>786.1</ele>
        <time>2014-04-19T15:36:14.989Z</time>
      </trkpt>
      <trkpt lat="45.41565" lon="4.58671">
        <ele>786.3</ele>
        <time>2014-04-19T15:36:15.976Z</time>
      </trkpt>
      <trkpt lat="45.41573" lon="4.58669">
        <ele>786.7</ele>
        <time>2014-04-19T15:36:17.987Z</time>
      </trkpt>
      <trkpt lat="45.41577" lon="4.58668">
        <ele>786.8</ele>
        <time>2014-04-19T15:36:18.953Z</time>
      </trkpt>
      <trkpt lat="45.41586" lon="4.58667">
        <ele>786.8</ele>
        <time>2014-04-19T15:36:20.980Z</time>
      </trkpt>
      <trkpt lat="45.4159" lon="4.58667">
        <ele>786.9</ele>
        <time>2014-04-19T15:36:21.941Z</time>
      </trkpt>
      <trkpt lat="45.41597" lon="4.58667">
        <ele>787</ele>
        <time>2014-04-19T15:36:24.104Z</time>
      </trkpt>
      <trkpt lat="45.41601" lon="4.58668">
        <ele>787</ele>
        <time>2014-04-19T15:36:25.035Z</time>
      </trkpt>
      <trkpt lat="45.41609" lon="4.58669">
        <ele>787.2</ele>
        <time>2014-04-19T15:36:26.984Z</time>
      </trkpt>
      <trkpt lat="45.41613" lon="4.5867">
        <ele>787.2</ele>
        <time>2014-04-19T15:36:27.935Z</time>
      </trkpt>
      <trkpt lat="45.41622" lon="4.5867">
        <ele>787.5</ele>
        <time>2014-04-19T15:36:29.991Z</time>
      </trkpt>
      <trkpt lat="45.41626" lon="4.58669">
        <ele>787.7</ele>
        <time>2014-04-19T15:36:30.982Z</time>
      </trkpt>
      <trkpt lat="45.41634" lon="4.58669">
        <ele>788.1</ele>
        <time>2014-04-19T15:36:33.056Z</time>
      </trkpt>
      <trkpt lat="45.41637" lon="4.58669">
        <ele>788.3</ele>
        <time>2014-04-19T15:36:33.965Z</time>
      </trkpt>
      <trkpt lat="45.41645" lon="4.58668">
        <ele>788.7</ele>
        <time>2014-04-19T15:36:36.076Z</time>
      </trkpt>
      <trkpt lat="45.4165" lon="4.58668">
        <ele>788.8</ele>
        <time>2014-04-19T15:36:36.984Z</time>
      </trkpt>
      <trkpt lat="45.41658" lon="4.58666">
        <ele>788.9</ele>
        <time>2014-04-19T15:36:39.717Z</time>
      </trkpt>
      <trkpt lat="45.41663" lon="4.58665">
        <ele>788.9</ele>
        <time>2014-04-19T15:36:39.940Z</time>
      </trkpt>
      <trkpt lat="45.4167" lon="4.58662">
        <ele>788.9</ele>
        <time>2014-04-19T15:36:42.070Z</time>
      </trkpt>
      <trkpt lat="45.41674" lon="4.58661">
        <ele>788.9</ele>
        <time>2014-04-19T15:36:42.946Z</time>
      </trkpt>
      <trkpt lat="45.41681" lon="4.58659">
        <ele>788.4</ele>
        <time>2014-04-19T15:36:45.061Z</time>
      </trkpt>
      <trkpt lat="45.41685" lon="4.58658">
        <ele>788.1</ele>
        <time>2014-04-19T15:36:45.955Z</time>
      </trkpt>
      <trkpt lat="45.4169" lon="4.58656">
        <ele>787.9</ele>
        <time>2014-04-19T15:36:47.050Z</time>
      </trkpt>
      <trkpt lat="45.41694" lon="4.58655">
        <ele>787.5</ele>
        <time>2014-04-19T15:36:47.966Z</time>
      </trkpt>
      <trkpt lat="45.41699" lon="4.58653">
        <ele>787.4</ele>
        <time>2014-04-19T15:36:49.917Z</time>
      </trkpt>
      <trkpt lat="45.41704" lon="4.58652">
        <ele>787.5</ele>
        <time>2014-04-19T15:36:49.996Z</time>
      </trkpt>
      <trkpt lat="45.41709" lon="4.58651">
        <ele>787.4</ele>
        <time>2014-04-19T15:36:51.103Z</time>
      </trkpt>
      <trkpt lat="45.41713" lon="4.58649">
        <ele>787.1</ele>
        <time>2014-04-19T15:36:51.977Z</time>
      </trkpt>
      <trkpt lat="45.41718" lon="4.58647">
        <ele>786.3</ele>
        <time>2014-04-19T15:36:53.662Z</time>
      </trkpt>
      <trkpt lat="45.41723" lon="4.58646">
        <ele>785.9</ele>
        <time>2014-04-19T15:36:53.940Z</time>
      </trkpt>
      <trkpt lat="45.41729" lon="4.58645">
        <ele>785.5</ele>
        <time>2014-04-19T15:36:54.985Z</time>
      </trkpt>
      <trkpt lat="45.41735" lon="4.58643">
        <ele>785</ele>
        <time>2014-04-19T15:36:55.962Z</time>
      </trkpt>
      <trkpt lat="45.41742" lon="4.58642">
        <ele>784.6</ele>
        <time>2014-04-19T15:36:57.051Z</time>
      </trkpt>
      <trkpt lat="45.41748" lon="4.58641">
        <ele>784.2</ele>
        <time>2014-04-19T15:36:57.982Z</time>
      </trkpt>
      <trkpt lat="45.41754" lon="4.5864">
        <ele>783.9</ele>
        <time>2014-04-19T15:36:58.965Z</time>
      </trkpt>
      <trkpt lat="45.41761" lon="4.58639">
        <ele>783.3</ele>
        <time>2014-04-19T15:36:59.939Z</time>
      </trkpt>
      <trkpt lat="45.41767" lon="4.58638">
        <ele>782.9</ele>
        <time>2014-04-19T15:37:01.033Z</time>
      </trkpt>
      <trkpt lat="45.41773" lon="4.58636">
        <ele>782.6</ele>
        <time>2014-04-19T15:37:01.960Z</time>
      </trkpt>
      <trkpt lat="45.4178" lon="4.58635">
        <ele>782.2</ele>
        <time>2014-04-19T15:37:03.870Z</time>
      </trkpt>
      <trkpt lat="45.41788" lon="4.58634">
        <ele>781.8</ele>
        <time>2014-04-19T15:37:04.013Z</time>
      </trkpt>
      <trkpt lat="45.41795" lon="4.58632">
        <ele>781.4</ele>
        <time>2014-04-19T15:37:05.108Z</time>
      </trkpt>
      <trkpt lat="45.41803" lon="4.58631">
        <ele>781</ele>
        <time>2014-04-19T15:37:05.938Z</time>
      </trkpt>
      <trkpt lat="45.41811" lon="4.58629">
        <ele>780.3</ele>
        <time>2014-04-19T15:37:07.072Z</time>
      </trkpt>
      <trkpt lat="45.4182" lon="4.58628">
        <ele>779.6</ele>
        <time>2014-04-19T15:37:07.960Z</time>
      </trkpt>
      <trkpt lat="45.41827" lon="4.58626">
        <ele>779</ele>
        <time>2014-04-19T15:37:09.363Z</time>
      </trkpt>
      <trkpt lat="45.41835" lon="4.58625">
        <ele>778.5</ele>
        <time>2014-04-19T15:37:09.985Z</time>
      </trkpt>
      <trkpt lat="45.41843" lon="4.58624">
        <ele>777.9</ele>
        <time>2014-04-19T15:37:11.082Z</time>
      </trkpt>
      <trkpt lat="45.41852" lon="4.58624">
        <ele>777.3</ele>
        <time>2014-04-19T15:37:11.946Z</time>
      </trkpt>
      <trkpt lat="45.41852" lon="4.58624">
        <ele>777.3</ele>
        <time>2014-04-19T15:37:12.106Z</time>
      </trkpt>
      <trkpt lat="45.41861" lon="4.58624">
        <ele>776.6</ele>
        <time>2014-04-19T15:37:12.997Z</time>
      </trkpt>
      <trkpt lat="45.41861" lon="4.58624">
        <ele>776.6</ele>
        <time>2014-04-19T15:37:13.157Z</time>
      </trkpt>
      <trkpt lat="45.41871" lon="4.58625">
        <ele>775.9</ele>
        <time>2014-04-19T15:37:13.979Z</time>
      </trkpt>
      <trkpt lat="45.41871" lon="4.58625">
        <ele>775.9</ele>
        <time>2014-04-19T15:37:14.377Z</time>
      </trkpt>
      <trkpt lat="45.41881" lon="4.58626">
        <ele>775</ele>
        <time>2014-04-19T15:37:14.961Z</time>
      </trkpt>
      <trkpt lat="45.41881" lon="4.58626">
        <ele>775</ele>
        <time>2014-04-19T15:37:15.131Z</time>
      </trkpt>
      <trkpt lat="45.4189" lon="4.58628">
        <ele>774.5</ele>
        <time>2014-04-19T15:37:15.963Z</time>
      </trkpt>
      <trkpt lat="45.4189" lon="4.58628">
        <ele>774.5</ele>
        <time>2014-04-19T15:37:16.277Z</time>
      </trkpt>
      <trkpt lat="45.41899" lon="4.5863">
        <ele>774.3</ele>
        <time>2014-04-19T15:37:16.965Z</time>
      </trkpt>
      <trkpt lat="45.41899" lon="4.5863">
        <ele>774.3</ele>
        <time>2014-04-19T15:37:17.160Z</time>
      </trkpt>
      <trkpt lat="45.41909" lon="4.58632">
        <ele>774.1</ele>
        <time>2014-04-19T15:37:17.967Z</time>
      </trkpt>
      <trkpt lat="45.41909" lon="4.58632">
        <ele>774.1</ele>
        <time>2014-04-19T15:37:18.146Z</time>
      </trkpt>
      <trkpt lat="45.41919" lon="4.58635">
        <ele>773.7</ele>
        <time>2014-04-19T15:37:18.963Z</time>
      </trkpt>
      <trkpt lat="45.41919" lon="4.58635">
        <ele>773.7</ele>
        <time>2014-04-19T15:37:19.424Z</time>
      </trkpt>
      <trkpt lat="45.41929" lon="4.58638">
        <ele>773.3</ele>
        <time>2014-04-19T15:37:19.974Z</time>
      </trkpt>
      <trkpt lat="45.41929" lon="4.58638">
        <ele>773.3</ele>
        <time>2014-04-19T15:37:20.175Z</time>
      </trkpt>
      <trkpt lat="45.41939" lon="4.58642">
        <ele>772.7</ele>
        <time>2014-04-19T15:37:20.975Z</time>
      </trkpt>
      <trkpt lat="45.41939" lon="4.58642">
        <ele>772.7</ele>
        <time>2014-04-19T15:37:21.252Z</time>
      </trkpt>
      <trkpt lat="45.41948" lon="4.58646">
        <ele>772.2</ele>
        <time>2014-04-19T15:37:21.938Z</time>
      </trkpt>
      <trkpt lat="45.41948" lon="4.58646">
        <ele>772.2</ele>
        <time>2014-04-19T15:37:22.119Z</time>
      </trkpt>
      <trkpt lat="45.41957" lon="4.58651">
        <ele>771.6</ele>
        <time>2014-04-19T15:37:22.950Z</time>
      </trkpt>
      <trkpt lat="45.41957" lon="4.58651">
        <ele>771.6</ele>
        <time>2014-04-19T15:37:23.387Z</time>
      </trkpt>
      <trkpt lat="45.41966" lon="4.58656">
        <ele>771.1</ele>
        <time>2014-04-19T15:37:23.934Z</time>
      </trkpt>
      <trkpt lat="45.41966" lon="4.58656">
        <ele>771.1</ele>
        <time>2014-04-19T15:37:24.429Z</time>
      </trkpt>
      <trkpt lat="45.41975" lon="4.58662">
        <ele>770.4</ele>
        <time>2014-04-19T15:37:24.958Z</time>
      </trkpt>
      <trkpt lat="45.41975" lon="4.58662">
        <ele>770.4</ele>
        <time>2014-04-19T15:37:25.092Z</time>
      </trkpt>
      <trkpt lat="45.41984" lon="4.58668">
        <ele>769.8</ele>
        <time>2014-04-19T15:37:25.943Z</time>
      </trkpt>
      <trkpt lat="45.41984" lon="4.58668">
        <ele>769.8</ele>
        <time>2014-04-19T15:37:26.111Z</time>
      </trkpt>
      <trkpt lat="45.41994" lon="4.58674">
        <ele>769.1</ele>
        <time>2014-04-19T15:37:27.001Z</time>
      </trkpt>
      <trkpt lat="45.41994" lon="4.58674">
        <ele>769.1</ele>
        <time>2014-04-19T15:37:27.215Z</time>
      </trkpt>
      <trkpt lat="45.42002" lon="4.5868">
        <ele>768.1</ele>
        <time>2014-04-19T15:37:27.962Z</time>
      </trkpt>
      <trkpt lat="45.42002" lon="4.5868">
        <ele>768.1</ele>
        <time>2014-04-19T15:37:28.122Z</time>
      </trkpt>
      <trkpt lat="45.42011" lon="4.58686">
        <ele>767.2</ele>
        <time>2014-04-19T15:37:28.979Z</time>
      </trkpt>
      <trkpt lat="45.42011" lon="4.58686">
        <ele>767.2</ele>
        <time>2014-04-19T15:37:29.479Z</time>
      </trkpt>
      <trkpt lat="45.4202" lon="4.58692">
        <ele>766.2</ele>
        <time>2014-04-19T15:37:29.943Z</time>
      </trkpt>
      <trkpt lat="45.4202" lon="4.58692">
        <ele>766.2</ele>
        <time>2014-04-19T15:37:30.128Z</time>
      </trkpt>
      <trkpt lat="45.42029" lon="4.58699">
        <ele>765.3</ele>
        <time>2014-04-19T15:37:30.988Z</time>
      </trkpt>
      <trkpt lat="45.42029" lon="4.58699">
        <ele>765.3</ele>
        <time>2014-04-19T15:37:31.205Z</time>
      </trkpt>
      <trkpt lat="45.42039" lon="4.58705">
        <ele>764.5</ele>
        <time>2014-04-19T15:37:31.958Z</time>
      </trkpt>
      <trkpt lat="45.42039" lon="4.58705">
        <ele>764.5</ele>
        <time>2014-04-19T15:37:32.108Z</time>
      </trkpt>
      <trkpt lat="45.42048" lon="4.58712">
        <ele>763.4</ele>
        <time>2014-04-19T15:37:33.031Z</time>
      </trkpt>
      <trkpt lat="45.42048" lon="4.58712">
        <ele>763.4</ele>
        <time>2014-04-19T15:37:33.266Z</time>
      </trkpt>
      <trkpt lat="45.42058" lon="4.58718">
        <ele>762.1</ele>
        <time>2014-04-19T15:37:33.979Z</time>
      </trkpt>
      <trkpt lat="45.42058" lon="4.58718">
        <ele>762.1</ele>
        <time>2014-04-19T15:37:34.504Z</time>
      </trkpt>
      <trkpt lat="45.42067" lon="4.58726">
        <ele>761.1</ele>
        <time>2014-04-19T15:37:34.946Z</time>
      </trkpt>
      <trkpt lat="45.42067" lon="4.58726">
        <ele>761.1</ele>
        <time>2014-04-19T15:37:35.124Z</time>
      </trkpt>
      <trkpt lat="45.42077" lon="4.58733">
        <ele>760.2</ele>
        <time>2014-04-19T15:37:35.946Z</time>
      </trkpt>
      <trkpt lat="45.42077" lon="4.58733">
        <ele>760.2</ele>
        <time>2014-04-19T15:37:36.134Z</time>
      </trkpt>
      <trkpt lat="45.42087" lon="4.5874">
        <ele>759.6</ele>
        <time>2014-04-19T15:37:36.947Z</time>
      </trkpt>
      <trkpt lat="45.42087" lon="4.5874">
        <ele>759.6</ele>
        <time>2014-04-19T15:37:37.256Z</time>
      </trkpt>
      <trkpt lat="45.42096" lon="4.58747">
        <ele>759.1</ele>
        <time>2014-04-19T15:37:37.939Z</time>
      </trkpt>
      <trkpt lat="45.42096" lon="4.58747">
        <ele>759.1</ele>
        <time>2014-04-19T15:37:38.044Z</time>
      </trkpt>
      <trkpt lat="45.42106" lon="4.58754">
        <ele>758.5</ele>
        <time>2014-04-19T15:37:38.972Z</time>
      </trkpt>
      <trkpt lat="45.42106" lon="4.58754">
        <ele>758.5</ele>
        <time>2014-04-19T15:37:39.527Z</time>
      </trkpt>
      <trkpt lat="45.42116" lon="4.58761">
        <ele>757.8</ele>
        <time>2014-04-19T15:37:39.938Z</time>
      </trkpt>
      <trkpt lat="45.42116" lon="4.58761">
        <ele>757.8</ele>
        <time>2014-04-19T15:37:40.124Z</time>
      </trkpt>
      <trkpt lat="45.42127" lon="4.58768">
        <ele>757.2</ele>
        <time>2014-04-19T15:37:40.939Z</time>
      </trkpt>
      <trkpt lat="45.42127" lon="4.58768">
        <ele>757.2</ele>
        <time>2014-04-19T15:37:41.121Z</time>
      </trkpt>
      <trkpt lat="45.42137" lon="4.58775">
        <ele>756.6</ele>
        <time>2014-04-19T15:37:41.936Z</time>
      </trkpt>
      <trkpt lat="45.42137" lon="4.58775">
        <ele>756.6</ele>
        <time>2014-04-19T15:37:42.157Z</time>
      </trkpt>
      <trkpt lat="45.42146" lon="4.58781">
        <ele>755.7</ele>
        <time>2014-04-19T15:37:42.959Z</time>
      </trkpt>
      <trkpt lat="45.42146" lon="4.58781">
        <ele>755.7</ele>
        <time>2014-04-19T15:37:43.217Z</time>
      </trkpt>
      <trkpt lat="45.42155" lon="4.58788">
        <ele>755</ele>
        <time>2014-04-19T15:37:43.976Z</time>
      </trkpt>
      <trkpt lat="45.42155" lon="4.58788">
        <ele>755</ele>
        <time>2014-04-19T15:37:44.519Z</time>
      </trkpt>
      <trkpt lat="45.42165" lon="4.58796">
        <ele>754.3</ele>
        <time>2014-04-19T15:37:44.938Z</time>
      </trkpt>
      <trkpt lat="45.42165" lon="4.58796">
        <ele>754.3</ele>
        <time>2014-04-19T15:37:45.120Z</time>
      </trkpt>
      <trkpt lat="45.42173" lon="4.58803">
        <ele>753.2</ele>
        <time>2014-04-19T15:37:45.944Z</time>
      </trkpt>
      <trkpt lat="45.42173" lon="4.58803">
        <ele>753.2</ele>
        <time>2014-04-19T15:37:46.125Z</time>
      </trkpt>
      <trkpt lat="45.42182" lon="4.58811">
        <ele>751.9</ele>
        <time>2014-04-19T15:37:46.972Z</time>
      </trkpt>
      <trkpt lat="45.42182" lon="4.58811">
        <ele>751.9</ele>
        <time>2014-04-19T15:37:47.111Z</time>
      </trkpt>
      <trkpt lat="45.4219" lon="4.58821">
        <ele>750.7</ele>
        <time>2014-04-19T15:37:47.945Z</time>
      </trkpt>
      <trkpt lat="45.4219" lon="4.58821">
        <ele>750.7</ele>
        <time>2014-04-19T15:37:48.106Z</time>
      </trkpt>
      <trkpt lat="45.42198" lon="4.58831">
        <ele>749.5</ele>
        <time>2014-04-19T15:37:48.989Z</time>
      </trkpt>
      <trkpt lat="45.42198" lon="4.58831">
        <ele>749.5</ele>
        <time>2014-04-19T15:37:49.554Z</time>
      </trkpt>
      <trkpt lat="45.42205" lon="4.58841">
        <ele>748.3</ele>
        <time>2014-04-19T15:37:49.949Z</time>
      </trkpt>
      <trkpt lat="45.42205" lon="4.58841">
        <ele>748.3</ele>
        <time>2014-04-19T15:37:50.127Z</time>
      </trkpt>
      <trkpt lat="45.42213" lon="4.58852">
        <ele>747.3</ele>
        <time>2014-04-19T15:37:50.939Z</time>
      </trkpt>
      <trkpt lat="45.42213" lon="4.58852">
        <ele>747.3</ele>
        <time>2014-04-19T15:37:51.072Z</time>
      </trkpt>
      <trkpt lat="45.4222" lon="4.58862">
        <ele>746.4</ele>
        <time>2014-04-19T15:37:51.979Z</time>
      </trkpt>
      <trkpt lat="45.4222" lon="4.58862">
        <ele>746.4</ele>
        <time>2014-04-19T15:37:52.196Z</time>
      </trkpt>
      <trkpt lat="45.42228" lon="4.58873">
        <ele>745.2</ele>
        <time>2014-04-19T15:37:52.940Z</time>
      </trkpt>
      <trkpt lat="45.42228" lon="4.58873">
        <ele>745.2</ele>
        <time>2014-04-19T15:37:53.836Z</time>
      </trkpt>
      <trkpt lat="45.42236" lon="4.58883">
        <ele>744.1</ele>
        <time>2014-04-19T15:37:54.213Z</time>
      </trkpt>
      <trkpt lat="45.42236" lon="4.58883">
        <ele>744.1</ele>
        <time>2014-04-19T15:37:54.313Z</time>
      </trkpt>
      <trkpt lat="45.42244" lon="4.58891">
        <ele>743.3</ele>
        <time>2014-04-19T15:37:54.966Z</time>
      </trkpt>
      <trkpt lat="45.42244" lon="4.58891">
        <ele>743.3</ele>
        <time>2014-04-19T15:37:55.136Z</time>
      </trkpt>
      <trkpt lat="45.42252" lon="4.58901">
        <ele>742.9</ele>
        <time>2014-04-19T15:37:55.938Z</time>
      </trkpt>
      <trkpt lat="45.42252" lon="4.58901">
        <ele>742.9</ele>
        <time>2014-04-19T15:37:56.091Z</time>
      </trkpt>
      <trkpt lat="45.4226" lon="4.5891">
        <ele>742.7</ele>
        <time>2014-04-19T15:37:56.977Z</time>
      </trkpt>
      <trkpt lat="45.4226" lon="4.5891">
        <ele>742.7</ele>
        <time>2014-04-19T15:37:57.225Z</time>
      </trkpt>
      <trkpt lat="45.42267" lon="4.58919">
        <ele>742.2</ele>
        <time>2014-04-19T15:37:57.918Z</time>
      </trkpt>
      <trkpt lat="45.42267" lon="4.58919">
        <ele>742.2</ele>
        <time>2014-04-19T15:37:58.930Z</time>
      </trkpt>
      <trkpt lat="45.42274" lon="4.58929">
        <ele>741.9</ele>
        <time>2014-04-19T15:37:59.021Z</time>
      </trkpt>
      <trkpt lat="45.42274" lon="4.58929">
        <ele>741.9</ele>
        <time>2014-04-19T15:37:59.170Z</time>
      </trkpt>
      <trkpt lat="45.42279" lon="4.58941">
        <ele>741.3</ele>
        <time>2014-04-19T15:37:59.938Z</time>
      </trkpt>
      <trkpt lat="45.42279" lon="4.58941">
        <ele>741.3</ele>
        <time>2014-04-19T15:38:00.197Z</time>
      </trkpt>
      <trkpt lat="45.42285" lon="4.58954">
        <ele>740.4</ele>
        <time>2014-04-19T15:38:00.937Z</time>
      </trkpt>
      <trkpt lat="45.42285" lon="4.58954">
        <ele>740.4</ele>
        <time>2014-04-19T15:38:01.286Z</time>
      </trkpt>
      <trkpt lat="45.4229" lon="4.58968">
        <ele>739.7</ele>
        <time>2014-04-19T15:38:01.937Z</time>
      </trkpt>
      <trkpt lat="45.4229" lon="4.58968">
        <ele>739.7</ele>
        <time>2014-04-19T15:38:02.086Z</time>
      </trkpt>
      <trkpt lat="45.42295" lon="4.58982">
        <ele>739</ele>
        <time>2014-04-19T15:38:02.942Z</time>
      </trkpt>
      <trkpt lat="45.42295" lon="4.58982">
        <ele>739</ele>
        <time>2014-04-19T15:38:03.961Z</time>
      </trkpt>
      <trkpt lat="45.42299" lon="4.58996">
        <ele>738.3</ele>
        <time>2014-04-19T15:38:04.056Z</time>
      </trkpt>
      <trkpt lat="45.42299" lon="4.58996">
        <ele>738.3</ele>
        <time>2014-04-19T15:38:04.203Z</time>
      </trkpt>
      <trkpt lat="45.42304" lon="4.59009">
        <ele>737.5</ele>
        <time>2014-04-19T15:38:05.015Z</time>
      </trkpt>
      <trkpt lat="45.42304" lon="4.59009">
        <ele>737.5</ele>
        <time>2014-04-19T15:38:05.318Z</time>
      </trkpt>
      <trkpt lat="45.42307" lon="4.59022">
        <ele>736.8</ele>
        <time>2014-04-19T15:38:05.991Z</time>
      </trkpt>
      <trkpt lat="45.4231" lon="4.59033">
        <ele>736</ele>
        <time>2014-04-19T15:38:06.983Z</time>
      </trkpt>
      <trkpt lat="45.42313" lon="4.59044">
        <ele>735.3</ele>
        <time>2014-04-19T15:38:07.942Z</time>
      </trkpt>
      <trkpt lat="45.42318" lon="4.59053">
        <ele>735</ele>
        <time>2014-04-19T15:38:09.091Z</time>
      </trkpt>
      <trkpt lat="45.42323" lon="4.59058">
        <ele>734.8</ele>
        <time>2014-04-19T15:38:09.946Z</time>
      </trkpt>
      <trkpt lat="45.42328" lon="4.5906">
        <ele>734.7</ele>
        <time>2014-04-19T15:38:10.986Z</time>
      </trkpt>
      <trkpt lat="45.42334" lon="4.59059">
        <ele>734.5</ele>
        <time>2014-04-19T15:38:11.935Z</time>
      </trkpt>
      <trkpt lat="45.4234" lon="4.59055">
        <ele>734.3</ele>
        <time>2014-04-19T15:38:13.110Z</time>
      </trkpt>
      <trkpt lat="45.42346" lon="4.59051">
        <ele>733.8</ele>
        <time>2014-04-19T15:38:13.938Z</time>
      </trkpt>
      <trkpt lat="45.42352" lon="4.59045">
        <ele>733.1</ele>
        <time>2014-04-19T15:38:14.992Z</time>
      </trkpt>
      <trkpt lat="45.42358" lon="4.59037">
        <ele>732.5</ele>
        <time>2014-04-19T15:38:16.043Z</time>
      </trkpt>
      <trkpt lat="45.42358" lon="4.59037">
        <ele>732.5</ele>
        <time>2014-04-19T15:38:16.447Z</time>
      </trkpt>
      <trkpt lat="45.42362" lon="4.59025">
        <ele>732.1</ele>
        <time>2014-04-19T15:38:16.936Z</time>
      </trkpt>
      <trkpt lat="45.42362" lon="4.59025">
        <ele>732.1</ele>
        <time>2014-04-19T15:38:17.069Z</time>
      </trkpt>
      <trkpt lat="45.42366" lon="4.59012">
        <ele>731.3</ele>
        <time>2014-04-19T15:38:17.974Z</time>
      </trkpt>
      <trkpt lat="45.42366" lon="4.59012">
        <ele>731.3</ele>
        <time>2014-04-19T15:38:18.182Z</time>
      </trkpt>
      <trkpt lat="45.42368" lon="4.58998">
        <ele>730.4</ele>
        <time>2014-04-19T15:38:18.935Z</time>
      </trkpt>
      <trkpt lat="45.42369" lon="4.58986">
        <ele>729.6</ele>
        <time>2014-04-19T15:38:20.213Z</time>
      </trkpt>
      <trkpt lat="45.42369" lon="4.58975">
        <ele>728.9</ele>
        <time>2014-04-19T15:38:20.973Z</time>
      </trkpt>
      <trkpt lat="45.4237" lon="4.58964">
        <ele>728.5</ele>
        <time>2014-04-19T15:38:22.070Z</time>
      </trkpt>
      <trkpt lat="45.42372" lon="4.58953">
        <ele>727.9</ele>
        <time>2014-04-19T15:38:22.940Z</time>
      </trkpt>
      <trkpt lat="45.42377" lon="4.58946">
        <ele>727.4</ele>
        <time>2014-04-19T15:38:24.142Z</time>
      </trkpt>
      <trkpt lat="45.42383" lon="4.58939">
        <ele>726.8</ele>
        <time>2014-04-19T15:38:24.974Z</time>
      </trkpt>
      <trkpt lat="45.42383" lon="4.58939">
        <ele>726.8</ele>
        <time>2014-04-19T15:38:25.114Z</time>
      </trkpt>
      <trkpt lat="45.4239" lon="4.5893">
        <ele>726.2</ele>
        <time>2014-04-19T15:38:25.926Z</time>
      </trkpt>
      <trkpt lat="45.4239" lon="4.5893">
        <ele>726.2</ele>
        <time>2014-04-19T15:38:26.086Z</time>
      </trkpt>
      <trkpt lat="45.42397" lon="4.5892">
        <ele>725.1</ele>
        <time>2014-04-19T15:38:26.934Z</time>
      </trkpt>
      <trkpt lat="45.42397" lon="4.5892">
        <ele>725.1</ele>
        <time>2014-04-19T15:38:27.355Z</time>
      </trkpt>
      <trkpt lat="45.42404" lon="4.58908">
        <ele>723.9</ele>
        <time>2014-04-19T15:38:27.955Z</time>
      </trkpt>
      <trkpt lat="45.42409" lon="4.58899">
        <ele>722.6</ele>
        <time>2014-04-19T15:38:29.216Z</time>
      </trkpt>
      <trkpt lat="45.42413" lon="4.58891">
        <ele>721.4</ele>
        <time>2014-04-19T15:38:29.977Z</time>
      </trkpt>
      <trkpt lat="45.42419" lon="4.58886">
        <ele>720.3</ele>
        <time>2014-04-19T15:38:31.010Z</time>
      </trkpt>
      <trkpt lat="45.42426" lon="4.58882">
        <ele>719.1</ele>
        <time>2014-04-19T15:38:31.943Z</time>
      </trkpt>
      <trkpt lat="45.42434" lon="4.58879">
        <ele>718.3</ele>
        <time>2014-04-19T15:38:33.023Z</time>
      </trkpt>
      <trkpt lat="45.42443" lon="4.58876">
        <ele>717.6</ele>
        <time>2014-04-19T15:38:33.992Z</time>
      </trkpt>
      <trkpt lat="45.42443" lon="4.58876">
        <ele>717.6</ele>
        <time>2014-04-19T15:38:34.485Z</time>
      </trkpt>
      <trkpt lat="45.42453" lon="4.58874">
        <ele>716.9</ele>
        <time>2014-04-19T15:38:34.936Z</time>
      </trkpt>
      <trkpt lat="45.42453" lon="4.58874">
        <ele>716.9</ele>
        <time>2014-04-19T15:38:35.103Z</time>
      </trkpt>
      <trkpt lat="45.42463" lon="4.58871">
        <ele>716.1</ele>
        <time>2014-04-19T15:38:35.946Z</time>
      </trkpt>
      <trkpt lat="45.42463" lon="4.58871">
        <ele>716.1</ele>
        <time>2014-04-19T15:38:36.105Z</time>
      </trkpt>
      <trkpt lat="45.42475" lon="4.58868">
        <ele>715</ele>
        <time>2014-04-19T15:38:36.993Z</time>
      </trkpt>
      <trkpt lat="45.42475" lon="4.58868">
        <ele>715</ele>
        <time>2014-04-19T15:38:37.224Z</time>
      </trkpt>
      <trkpt lat="45.42487" lon="4.58865">
        <ele>713.4</ele>
        <time>2014-04-19T15:38:37.961Z</time>
      </trkpt>
      <trkpt lat="45.42487" lon="4.58865">
        <ele>713.4</ele>
        <time>2014-04-19T15:38:38.244Z</time>
      </trkpt>
      <trkpt lat="45.42498" lon="4.58863">
        <ele>711.9</ele>
        <time>2014-04-19T15:38:38.925Z</time>
      </trkpt>
      <trkpt lat="45.42498" lon="4.58863">
        <ele>711.9</ele>
        <time>2014-04-19T15:38:39.369Z</time>
      </trkpt>
      <trkpt lat="45.4251" lon="4.58861">
        <ele>710.4</ele>
        <time>2014-04-19T15:38:39.930Z</time>
      </trkpt>
      <trkpt lat="45.4251" lon="4.58861">
        <ele>710.4</ele>
        <time>2014-04-19T15:38:40.063Z</time>
      </trkpt>
      <trkpt lat="45.42522" lon="4.58858">
        <ele>708.9</ele>
        <time>2014-04-19T15:38:40.970Z</time>
      </trkpt>
      <trkpt lat="45.42522" lon="4.58858">
        <ele>708.9</ele>
        <time>2014-04-19T15:38:41.158Z</time>
      </trkpt>
      <trkpt lat="45.42534" lon="4.58855">
        <ele>707.4</ele>
        <time>2014-04-19T15:38:41.925Z</time>
      </trkpt>
      <trkpt lat="45.42534" lon="4.58855">
        <ele>707.4</ele>
        <time>2014-04-19T15:38:42.192Z</time>
      </trkpt>
      <trkpt lat="45.42545" lon="4.58853">
        <ele>706.4</ele>
        <time>2014-04-19T15:38:42.935Z</time>
      </trkpt>
      <trkpt lat="45.42545" lon="4.58853">
        <ele>706.4</ele>
        <time>2014-04-19T15:38:43.183Z</time>
      </trkpt>
      <trkpt lat="45.42556" lon="4.5885">
        <ele>705.4</ele>
        <time>2014-04-19T15:38:43.965Z</time>
      </trkpt>
      <trkpt lat="45.42556" lon="4.5885">
        <ele>705.4</ele>
        <time>2014-04-19T15:38:44.435Z</time>
      </trkpt>
      <trkpt lat="45.42568" lon="4.58847">
        <ele>704.4</ele>
        <time>2014-04-19T15:38:44.941Z</time>
      </trkpt>
      <trkpt lat="45.42568" lon="4.58847">
        <ele>704.4</ele>
        <time>2014-04-19T15:38:45.077Z</time>
      </trkpt>
      <trkpt lat="45.42579" lon="4.58844">
        <ele>703.6</ele>
        <time>2014-04-19T15:38:45.939Z</time>
      </trkpt>
      <trkpt lat="45.42579" lon="4.58844">
        <ele>703.6</ele>
        <time>2014-04-19T15:38:46.075Z</time>
      </trkpt>
      <trkpt lat="45.4259" lon="4.58842">
        <ele>702.8</ele>
        <time>2014-04-19T15:38:46.946Z</time>
      </trkpt>
      <trkpt lat="45.4259" lon="4.58842">
        <ele>702.8</ele>
        <time>2014-04-19T15:38:47.097Z</time>
      </trkpt>
      <trkpt lat="45.426" lon="4.5884">
        <ele>701.9</ele>
        <time>2014-04-19T15:38:47.997Z</time>
      </trkpt>
      <trkpt lat="45.426" lon="4.5884">
        <ele>701.9</ele>
        <time>2014-04-19T15:38:48.220Z</time>
      </trkpt>
      <trkpt lat="45.4261" lon="4.58839">
        <ele>701</ele>
        <time>2014-04-19T15:38:48.980Z</time>
      </trkpt>
      <trkpt lat="45.42618" lon="4.58839">
        <ele>700</ele>
        <time>2014-04-19T15:38:49.994Z</time>
      </trkpt>
      <trkpt lat="45.42628" lon="4.58842">
        <ele>699.3</ele>
        <time>2014-04-19T15:38:50.940Z</time>
      </trkpt>
      <trkpt lat="45.42628" lon="4.58842">
        <ele>699.3</ele>
        <time>2014-04-19T15:38:51.113Z</time>
      </trkpt>
      <trkpt lat="45.42638" lon="4.58846">
        <ele>698.7</ele>
        <time>2014-04-19T15:38:51.942Z</time>
      </trkpt>
      <trkpt lat="45.42638" lon="4.58846">
        <ele>698.7</ele>
        <time>2014-04-19T15:38:52.127Z</time>
      </trkpt>
      <trkpt lat="45.42647" lon="4.5885">
        <ele>698</ele>
        <time>2014-04-19T15:38:52.986Z</time>
      </trkpt>
      <trkpt lat="45.42647" lon="4.5885">
        <ele>698</ele>
        <time>2014-04-19T15:38:53.666Z</time>
      </trkpt>
      <trkpt lat="45.42657" lon="4.58854">
        <ele>697.4</ele>
        <time>2014-04-19T15:38:53.932Z</time>
      </trkpt>
      <trkpt lat="45.42657" lon="4.58854">
        <ele>697.4</ele>
        <time>2014-04-19T15:38:54.067Z</time>
      </trkpt>
      <trkpt lat="45.42666" lon="4.58859">
        <ele>696.6</ele>
        <time>2014-04-19T15:38:54.956Z</time>
      </trkpt>
      <trkpt lat="45.42666" lon="4.58859">
        <ele>696.6</ele>
        <time>2014-04-19T15:38:55.082Z</time>
      </trkpt>
      <trkpt lat="45.42674" lon="4.58864">
        <ele>695.8</ele>
        <time>2014-04-19T15:38:55.967Z</time>
      </trkpt>
      <trkpt lat="45.42674" lon="4.58864">
        <ele>695.8</ele>
        <time>2014-04-19T15:38:56.149Z</time>
      </trkpt>
      <trkpt lat="45.42683" lon="4.5887">
        <ele>694.5</ele>
        <time>2014-04-19T15:38:56.968Z</time>
      </trkpt>
      <trkpt lat="45.42683" lon="4.5887">
        <ele>694.5</ele>
        <time>2014-04-19T15:38:57.115Z</time>
      </trkpt>
      <trkpt lat="45.42691" lon="4.58877">
        <ele>693.6</ele>
        <time>2014-04-19T15:38:58.085Z</time>
      </trkpt>
      <trkpt lat="45.42691" lon="4.58877">
        <ele>693.6</ele>
        <time>2014-04-19T15:38:58.709Z</time>
      </trkpt>
      <trkpt lat="45.42699" lon="4.58884">
        <ele>692.9</ele>
        <time>2014-04-19T15:38:58.936Z</time>
      </trkpt>
      <trkpt lat="45.42706" lon="4.58892">
        <ele>691.8</ele>
        <time>2014-04-19T15:39:00.142Z</time>
      </trkpt>
      <trkpt lat="45.42712" lon="4.58902">
        <ele>690.9</ele>
        <time>2014-04-19T15:39:00.941Z</time>
      </trkpt>
      <trkpt lat="45.42712" lon="4.58902">
        <ele>690.9</ele>
        <time>2014-04-19T15:39:01.091Z</time>
      </trkpt>
      <trkpt lat="45.42716" lon="4.58916">
        <ele>690.1</ele>
        <time>2014-04-19T15:39:01.928Z</time>
      </trkpt>
      <trkpt lat="45.42716" lon="4.58916">
        <ele>690.1</ele>
        <time>2014-04-19T15:39:02.086Z</time>
      </trkpt>
      <trkpt lat="45.42719" lon="4.58929">
        <ele>689.7</ele>
        <time>2014-04-19T15:39:02.976Z</time>
      </trkpt>
      <trkpt lat="45.42719" lon="4.58929">
        <ele>689.7</ele>
        <time>2014-04-19T15:39:03.731Z</time>
      </trkpt>
      <trkpt lat="45.42721" lon="4.58941">
        <ele>689.2</ele>
        <time>2014-04-19T15:39:03.926Z</time>
      </trkpt>
      <trkpt lat="45.42721" lon="4.58941">
        <ele>689.2</ele>
        <time>2014-04-19T15:39:04.072Z</time>
      </trkpt>
      <trkpt lat="45.42722" lon="4.58954">
        <ele>688.7</ele>
        <time>2014-04-19T15:39:05.030Z</time>
      </trkpt>
      <trkpt lat="45.42723" lon="4.58967">
        <ele>688.1</ele>
        <time>2014-04-19T15:39:05.989Z</time>
      </trkpt>
      <trkpt lat="45.42723" lon="4.58979">
        <ele>687.7</ele>
        <time>2014-04-19T15:39:06.966Z</time>
      </trkpt>
      <trkpt lat="45.42722" lon="4.5899">
        <ele>687.2</ele>
        <time>2014-04-19T15:39:08.764Z</time>
      </trkpt>
      <trkpt lat="45.42722" lon="4.59001">
        <ele>686.8</ele>
        <time>2014-04-19T15:39:08.930Z</time>
      </trkpt>
      <trkpt lat="45.42721" lon="4.59012">
        <ele>686.4</ele>
        <time>2014-04-19T15:39:10.047Z</time>
      </trkpt>
      <trkpt lat="45.42721" lon="4.59022">
        <ele>685.9</ele>
        <time>2014-04-19T15:39:10.951Z</time>
      </trkpt>
      <trkpt lat="45.42721" lon="4.59032">
        <ele>685.4</ele>
        <time>2014-04-19T15:39:12.051Z</time>
      </trkpt>
      <trkpt lat="45.42721" lon="4.59041">
        <ele>684.9</ele>
        <time>2014-04-19T15:39:12.966Z</time>
      </trkpt>
      <trkpt lat="45.42721" lon="4.5905">
        <ele>684.7</ele>
        <time>2014-04-19T15:39:14.028Z</time>
      </trkpt>
      <trkpt lat="45.42721" lon="4.59058">
        <ele>684.5</ele>
        <time>2014-04-19T15:39:14.963Z</time>
      </trkpt>
      <trkpt lat="45.42722" lon="4.59066">
        <ele>684.5</ele>
        <time>2014-04-19T15:39:16.029Z</time>
      </trkpt>
      <trkpt lat="45.42722" lon="4.59073">
        <ele>684.5</ele>
        <time>2014-04-19T15:39:16.966Z</time>
      </trkpt>
      <trkpt lat="45.42722" lon="4.5908">
        <ele>684.6</ele>
        <time>2014-04-19T15:39:18.834Z</time>
      </trkpt>
      <trkpt lat="45.42723" lon="4.59087">
        <ele>684.6</ele>
        <time>2014-04-19T15:39:18.939Z</time>
      </trkpt>
      <trkpt lat="45.42723" lon="4.59094">
        <ele>684.7</ele>
        <time>2014-04-19T15:39:19.975Z</time>
      </trkpt>
      <trkpt lat="45.42723" lon="4.591">
        <ele>684.9</ele>
        <time>2014-04-19T15:39:20.980Z</time>
      </trkpt>
      <trkpt lat="45.42724" lon="4.59109">
        <ele>685.3</ele>
        <time>2014-04-19T15:39:23.981Z</time>
      </trkpt>
      <trkpt lat="45.42725" lon="4.59113">
        <ele>685.3</ele>
        <time>2014-04-19T15:39:24.081Z</time>
      </trkpt>
      <trkpt lat="45.42727" lon="4.59124">
        <ele>685.6</ele>
        <time>2014-04-19T15:39:27.043Z</time>
      </trkpt>
      <trkpt lat="45.42727" lon="4.59127">
        <ele>685.7</ele>
        <time>2014-04-19T15:39:27.967Z</time>
      </trkpt>
      <trkpt lat="45.42729" lon="4.59137">
        <ele>686.1</ele>
        <time>2014-04-19T15:39:31.017Z</time>
      </trkpt>
      <trkpt lat="45.42729" lon="4.5914">
        <ele>686.2</ele>
        <time>2014-04-19T15:39:31.978Z</time>
      </trkpt>
      <trkpt lat="45.42731" lon="4.59152">
        <ele>686.6</ele>
        <time>2014-04-19T15:39:35.046Z</time>
      </trkpt>
      <trkpt lat="45.42732" lon="4.59155">
        <ele>686.7</ele>
        <time>2014-04-19T15:39:35.955Z</time>
      </trkpt>
      <trkpt lat="45.42733" lon="4.59167">
        <ele>687.3</ele>
        <time>2014-04-19T15:39:39.051Z</time>
      </trkpt>
      <trkpt lat="45.42734" lon="4.59171">
        <ele>687.5</ele>
        <time>2014-04-19T15:39:39.928Z</time>
      </trkpt>
      <trkpt lat="45.42736" lon="4.59181">
        <ele>687.9</ele>
        <time>2014-04-19T15:39:41.986Z</time>
      </trkpt>
      <trkpt lat="45.42738" lon="4.59185">
        <ele>688.1</ele>
        <time>2014-04-19T15:39:42.970Z</time>
      </trkpt>
      <trkpt lat="45.42744" lon="4.59193">
        <ele>688.7</ele>
        <time>2014-04-19T15:39:46.065Z</time>
      </trkpt>
      <trkpt lat="45.42746" lon="4.59194">
        <ele>688.9</ele>
        <time>2014-04-19T15:39:46.920Z</time>
      </trkpt>
      <trkpt lat="45.42753" lon="4.59195">
        <ele>689.4</ele>
        <time>2014-04-19T15:39:49.104Z</time>
      </trkpt>
      <trkpt lat="45.42759" lon="4.59192">
        <ele>689.6</ele>
        <time>2014-04-19T15:39:49.920Z</time>
      </trkpt>
      <trkpt lat="45.42765" lon="4.59189">
        <ele>689.9</ele>
        <time>2014-04-19T15:39:51.026Z</time>
      </trkpt>
      <trkpt lat="45.42769" lon="4.59184">
        <ele>690.1</ele>
        <time>2014-04-19T15:39:51.981Z</time>
      </trkpt>
      <trkpt lat="45.42773" lon="4.5918">
        <ele>690.4</ele>
        <time>2014-04-19T15:39:53.817Z</time>
      </trkpt>
      <trkpt lat="45.42776" lon="4.59175">
        <ele>690.7</ele>
        <time>2014-04-19T15:39:54.141Z</time>
      </trkpt>
      <trkpt lat="45.42779" lon="4.59165">
        <ele>691.2</ele>
        <time>2014-04-19T15:39:56.008Z</time>
      </trkpt>
      <trkpt lat="45.42781" lon="4.59159">
        <ele>691.3</ele>
        <time>2014-04-19T15:39:56.988Z</time>
      </trkpt>
      <trkpt lat="45.42782" lon="4.59149">
        <ele>691.7</ele>
        <time>2014-04-19T15:39:59.052Z</time>
      </trkpt>
      <trkpt lat="45.42782" lon="4.59144">
        <ele>691.8</ele>
        <time>2014-04-19T15:39:59.944Z</time>
      </trkpt>
      <trkpt lat="45.42784" lon="4.59133">
        <ele>692.3</ele>
        <time>2014-04-19T15:40:03.943Z</time>
      </trkpt>
      <trkpt lat="45.42784" lon="4.59129">
        <ele>692.4</ele>
        <time>2014-04-19T15:40:04.043Z</time>
      </trkpt>
      <trkpt lat="45.42785" lon="4.5912">
        <ele>692.6</ele>
        <time>2014-04-19T15:40:06.054Z</time>
      </trkpt>
      <trkpt lat="45.42785" lon="4.59116">
        <ele>692.7</ele>
        <time>2014-04-19T15:40:06.964Z</time>
      </trkpt>
      <trkpt lat="45.42785" lon="4.59105">
        <ele>692.8</ele>
        <time>2014-04-19T15:40:09.102Z</time>
      </trkpt>
      <trkpt lat="45.42785" lon="4.59099">
        <ele>693</ele>
        <time>2014-04-19T15:40:09.986Z</time>
      </trkpt>
      <trkpt lat="45.42785" lon="4.59088">
        <ele>693.3</ele>
        <time>2014-04-19T15:40:12.069Z</time>
      </trkpt>
      <trkpt lat="45.42784" lon="4.59083">
        <ele>693.4</ele>
        <time>2014-04-19T15:40:12.970Z</time>
      </trkpt>
      <trkpt lat="45.42784" lon="4.59073">
        <ele>693.8</ele>
        <time>2014-04-19T15:40:15.077Z</time>
      </trkpt>
      <trkpt lat="45.42783" lon="4.59068">
        <ele>693.9</ele>
        <time>2014-04-19T15:40:15.963Z</time>
      </trkpt>
      <trkpt lat="45.42784" lon="4.59058">
        <ele>694.3</ele>
        <time>2014-04-19T15:40:18.036Z</time>
      </trkpt>
      <trkpt lat="45.42784" lon="4.59054">
        <ele>694.4</ele>
        <time>2014-04-19T15:40:18.925Z</time>
      </trkpt>
      <trkpt lat="45.42786" lon="4.59043">
        <ele>694.9</ele>
        <time>2014-04-19T15:40:21.987Z</time>
      </trkpt>
      <trkpt lat="45.42787" lon="4.59039">
        <ele>695.1</ele>
        <time>2014-04-19T15:40:22.930Z</time>
      </trkpt>
      <trkpt lat="45.4279" lon="4.5903">
        <ele>695.5</ele>
        <time>2014-04-19T15:40:24.988Z</time>
      </trkpt>
      <trkpt lat="45.42792" lon="4.59026">
        <ele>695.7</ele>
        <time>2014-04-19T15:40:25.933Z</time>
      </trkpt>
      <trkpt lat="45.42796" lon="4.59017">
        <ele>696</ele>
        <time>2014-04-19T15:40:27.958Z</time>
      </trkpt>
      <trkpt lat="45.42798" lon="4.59012">
        <ele>696</ele>
        <time>2014-04-19T15:40:28.970Z</time>
      </trkpt>
      <trkpt lat="45.42802" lon="4.59003">
        <ele>696.2</ele>
        <time>2014-04-19T15:40:30.969Z</time>
      </trkpt>
      <trkpt lat="45.42803" lon="4.58999">
        <ele>696.3</ele>
        <time>2014-04-19T15:40:31.940Z</time>
      </trkpt>
      <trkpt lat="45.42807" lon="4.58989">
        <ele>696.6</ele>
        <time>2014-04-19T15:40:34.182Z</time>
      </trkpt>
      <trkpt lat="45.42808" lon="4.58984">
        <ele>696.7</ele>
        <time>2014-04-19T15:40:34.942Z</time>
      </trkpt>
      <trkpt lat="45.4281" lon="4.58975">
        <ele>697</ele>
        <time>2014-04-19T15:40:37.035Z</time>
      </trkpt>
      <trkpt lat="45.42811" lon="4.5897">
        <ele>697.1</ele>
        <time>2014-04-19T15:40:37.972Z</time>
      </trkpt>
      <trkpt lat="45.42813" lon="4.58958">
        <ele>697.4</ele>
        <time>2014-04-19T15:40:39.999Z</time>
      </trkpt>
      <trkpt lat="45.42814" lon="4.58952">
        <ele>697.4</ele>
        <time>2014-04-19T15:40:40.937Z</time>
      </trkpt>
      <trkpt lat="45.42814" lon="4.58945">
        <ele>697.5</ele>
        <time>2014-04-19T15:40:41.990Z</time>
      </trkpt>
      <trkpt lat="45.42815" lon="4.58939">
        <ele>697.9</ele>
        <time>2014-04-19T15:40:42.971Z</time>
      </trkpt>
      <trkpt lat="45.42816" lon="4.58932">
        <ele>698.1</ele>
        <time>2014-04-19T15:40:44.238Z</time>
      </trkpt>
      <trkpt lat="45.42818" lon="4.58926">
        <ele>698.3</ele>
        <time>2014-04-19T15:40:44.975Z</time>
      </trkpt>
      <trkpt lat="45.42819" lon="4.58919">
        <ele>698.5</ele>
        <time>2014-04-19T15:40:45.965Z</time>
      </trkpt>
      <trkpt lat="45.42821" lon="4.58912">
        <ele>698.7</ele>
        <time>2014-04-19T15:40:46.938Z</time>
      </trkpt>
      <trkpt lat="45.42823" lon="4.58905">
        <ele>699.2</ele>
        <time>2014-04-19T15:40:47.952Z</time>
      </trkpt>
      <trkpt lat="45.42825" lon="4.58898">
        <ele>699.5</ele>
        <time>2014-04-19T15:40:48.939Z</time>
      </trkpt>
      <trkpt lat="45.42826" lon="4.58891">
        <ele>699.7</ele>
        <time>2014-04-19T15:40:49.971Z</time>
      </trkpt>
      <trkpt lat="45.42828" lon="4.58883">
        <ele>699.6</ele>
        <time>2014-04-19T15:40:50.925Z</time>
      </trkpt>
      <trkpt lat="45.42829" lon="4.58876">
        <ele>699.4</ele>
        <time>2014-04-19T15:40:51.998Z</time>
      </trkpt>
      <trkpt lat="45.42829" lon="4.58868">
        <ele>699.1</ele>
        <time>2014-04-19T15:40:52.935Z</time>
      </trkpt>
      <trkpt lat="45.4283" lon="4.58859">
        <ele>698.8</ele>
        <time>2014-04-19T15:40:54.007Z</time>
      </trkpt>
      <trkpt lat="45.4283" lon="4.58851">
        <ele>698.5</ele>
        <time>2014-04-19T15:40:54.950Z</time>
      </trkpt>
      <trkpt lat="45.42829" lon="4.58843">
        <ele>697.9</ele>
        <time>2014-04-19T15:40:56.008Z</time>
      </trkpt>
      <trkpt lat="45.42829" lon="4.58836">
        <ele>697.5</ele>
        <time>2014-04-19T15:40:56.950Z</time>
      </trkpt>
      <trkpt lat="45.42829" lon="4.58828">
        <ele>697.4</ele>
        <time>2014-04-19T15:40:58.783Z</time>
      </trkpt>
      <trkpt lat="45.42828" lon="4.58821">
        <ele>697.3</ele>
        <time>2014-04-19T15:40:58.935Z</time>
      </trkpt>
      <trkpt lat="45.42829" lon="4.58813">
        <ele>697.1</ele>
        <time>2014-04-19T15:40:59.995Z</time>
      </trkpt>
      <trkpt lat="45.42829" lon="4.58806">
        <ele>697</ele>
        <time>2014-04-19T15:41:00.948Z</time>
      </trkpt>
      <trkpt lat="45.42829" lon="4.58798">
        <ele>697.1</ele>
        <time>2014-04-19T15:41:02.219Z</time>
      </trkpt>
      <trkpt lat="45.4283" lon="4.5879">
        <ele>697</ele>
        <time>2014-04-19T15:41:02.964Z</time>
      </trkpt>
      <trkpt lat="45.4283" lon="4.5879">
        <ele>697</ele>
        <time>2014-04-19T15:41:03.970Z</time>
      </trkpt>
      <trkpt lat="45.42832" lon="4.58776">
        <ele>696.9</ele>
        <time>2014-04-19T15:41:04.974Z</time>
      </trkpt>
      <trkpt lat="45.42836" lon="4.58766">
        <ele>697.5</ele>
        <time>2014-04-19T15:41:06.989Z</time>
      </trkpt>
      <trkpt lat="45.42839" lon="4.5876">
        <ele>697.8</ele>
        <time>2014-04-19T15:41:07.944Z</time>
      </trkpt>
      <trkpt lat="45.42842" lon="4.58755">
        <ele>697.9</ele>
        <time>2014-04-19T15:41:09.013Z</time>
      </trkpt>
      <trkpt lat="45.42846" lon="4.5875">
        <ele>698.1</ele>
        <time>2014-04-19T15:41:09.926Z</time>
      </trkpt>
      <trkpt lat="45.42851" lon="4.58746">
        <ele>697.9</ele>
        <time>2014-04-19T15:41:11.018Z</time>
      </trkpt>
      <trkpt lat="45.42856" lon="4.58742">
        <ele>697.4</ele>
        <time>2014-04-19T15:41:11.967Z</time>
      </trkpt>
      <trkpt lat="45.42862" lon="4.58737">
        <ele>696.9</ele>
        <time>2014-04-19T15:41:12.984Z</time>
      </trkpt>
      <trkpt lat="45.4287" lon="4.58734">
        <ele>696.6</ele>
        <time>2014-04-19T15:41:13.977Z</time>
      </trkpt>
      <trkpt lat="45.42878" lon="4.58732">
        <ele>696.4</ele>
        <time>2014-04-19T15:41:14.960Z</time>
      </trkpt>
      <trkpt lat="45.42885" lon="4.58731">
        <ele>696.2</ele>
        <time>2014-04-19T15:41:15.932Z</time>
      </trkpt>
      <trkpt lat="45.42892" lon="4.58731">
        <ele>695.9</ele>
        <time>2014-04-19T15:41:17.035Z</time>
      </trkpt>
      <trkpt lat="45.42899" lon="4.58732">
        <ele>695.5</ele>
        <time>2014-04-19T15:41:17.943Z</time>
      </trkpt>
      <trkpt lat="45.42906" lon="4.58735">
        <ele>694.9</ele>
        <time>2014-04-19T15:41:19.158Z</time>
      </trkpt>
      <trkpt lat="45.42913" lon="4.58738">
        <ele>694.1</ele>
        <time>2014-04-19T15:41:19.968Z</time>
      </trkpt>
      <trkpt lat="45.42919" lon="4.58742">
        <ele>693.5</ele>
        <time>2014-04-19T15:41:21.008Z</time>
      </trkpt>
      <trkpt lat="45.42926" lon="4.58747">
        <ele>693.1</ele>
        <time>2014-04-19T15:41:21.989Z</time>
      </trkpt>
      <trkpt lat="45.42933" lon="4.58752">
        <ele>692.6</ele>
        <time>2014-04-19T15:41:22.982Z</time>
      </trkpt>
      <trkpt lat="45.4294" lon="4.58758">
        <ele>692.4</ele>
        <time>2014-04-19T15:41:23.964Z</time>
      </trkpt>
      <trkpt lat="45.42946" lon="4.58764">
        <ele>692.2</ele>
        <time>2014-04-19T15:41:24.968Z</time>
      </trkpt>
      <trkpt lat="45.42953" lon="4.58771">
        <ele>691.9</ele>
        <time>2014-04-19T15:41:25.937Z</time>
      </trkpt>
      <trkpt lat="45.42959" lon="4.58777">
        <ele>691.9</ele>
        <time>2014-04-19T15:41:27.316Z</time>
      </trkpt>
      <trkpt lat="45.42966" lon="4.58784">
        <ele>691.9</ele>
        <time>2014-04-19T15:41:27.927Z</time>
      </trkpt>
      <trkpt lat="45.42972" lon="4.5879">
        <ele>692.1</ele>
        <time>2014-04-19T15:41:29.194Z</time>
      </trkpt>
      <trkpt lat="45.42978" lon="4.58796">
        <ele>692.3</ele>
        <time>2014-04-19T15:41:29.961Z</time>
      </trkpt>
      <trkpt lat="45.42985" lon="4.58801">
        <ele>692.5</ele>
        <time>2014-04-19T15:41:31.014Z</time>
      </trkpt>
      <trkpt lat="45.42992" lon="4.58806">
        <ele>692.8</ele>
        <time>2014-04-19T15:41:31.992Z</time>
      </trkpt>
      <trkpt lat="45.42999" lon="4.5881">
        <ele>693.2</ele>
        <time>2014-04-19T15:41:32.934Z</time>
      </trkpt>
      <trkpt lat="45.43006" lon="4.58814">
        <ele>693.8</ele>
        <time>2014-04-19T15:41:33.979Z</time>
      </trkpt>
      <trkpt lat="45.43013" lon="4.58816">
        <ele>694.1</ele>
        <time>2014-04-19T15:41:35.006Z</time>
      </trkpt>
      <trkpt lat="45.43021" lon="4.58817">
        <ele>694.2</ele>
        <time>2014-04-19T15:41:35.956Z</time>
      </trkpt>
      <trkpt lat="45.43028" lon="4.58813">
        <ele>694.4</ele>
        <time>2014-04-19T15:41:37.029Z</time>
      </trkpt>
      <trkpt lat="45.43034" lon="4.58801">
        <ele>695</ele>
        <time>2014-04-19T15:41:37.958Z</time>
      </trkpt>
      <trkpt lat="45.43034" lon="4.58801">
        <ele>695</ele>
        <time>2014-04-19T15:41:38.150Z</time>
      </trkpt>
      <trkpt lat="45.43037" lon="4.58787">
        <ele>695.6</ele>
        <time>2014-04-19T15:41:38.966Z</time>
      </trkpt>
      <trkpt lat="45.43037" lon="4.58787">
        <ele>695.6</ele>
        <time>2014-04-19T15:41:39.214Z</time>
      </trkpt>
      <trkpt lat="45.43039" lon="4.58774">
        <ele>696.1</ele>
        <time>2014-04-19T15:41:39.971Z</time>
      </trkpt>
      <trkpt lat="45.43039" lon="4.58774">
        <ele>696.1</ele>
        <time>2014-04-19T15:41:40.324Z</time>
      </trkpt>
      <trkpt lat="45.43041" lon="4.5876">
        <ele>696.5</ele>
        <time>2014-04-19T15:41:40.963Z</time>
      </trkpt>
      <trkpt lat="45.43041" lon="4.5876">
        <ele>696.5</ele>
        <time>2014-04-19T15:41:41.177Z</time>
      </trkpt>
      <trkpt lat="45.43043" lon="4.58747">
        <ele>696.3</ele>
        <time>2014-04-19T15:41:41.967Z</time>
      </trkpt>
      <trkpt lat="45.43043" lon="4.58747">
        <ele>696.3</ele>
        <time>2014-04-19T15:41:42.156Z</time>
      </trkpt>
      <trkpt lat="45.43044" lon="4.58734">
        <ele>695.6</ele>
        <time>2014-04-19T15:41:42.969Z</time>
      </trkpt>
      <trkpt lat="45.43045" lon="4.58721">
        <ele>695</ele>
        <time>2014-04-19T15:41:44.267Z</time>
      </trkpt>
      <trkpt lat="45.43046" lon="4.58708">
        <ele>694.5</ele>
        <time>2014-04-19T15:41:44.934Z</time>
      </trkpt>
      <trkpt lat="45.43046" lon="4.58708">
        <ele>694.5</ele>
        <time>2014-04-19T15:41:45.137Z</time>
      </trkpt>
      <trkpt lat="45.43046" lon="4.58694">
        <ele>694</ele>
        <time>2014-04-19T15:41:45.948Z</time>
      </trkpt>
      <trkpt lat="45.43046" lon="4.58682">
        <ele>693.5</ele>
        <time>2014-04-19T15:41:47.059Z</time>
      </trkpt>
      <trkpt lat="45.43045" lon="4.58669">
        <ele>693</ele>
        <time>2014-04-19T15:41:47.939Z</time>
      </trkpt>
      <trkpt lat="45.43044" lon="4.58657">
        <ele>692.4</ele>
        <time>2014-04-19T15:41:49.287Z</time>
      </trkpt>
      <trkpt lat="45.43042" lon="4.58644">
        <ele>691.6</ele>
        <time>2014-04-19T15:41:49.968Z</time>
      </trkpt>
      <trkpt lat="45.43039" lon="4.58632">
        <ele>690.6</ele>
        <time>2014-04-19T15:41:51.015Z</time>
      </trkpt>
      <trkpt lat="45.43033" lon="4.58621">
        <ele>689.4</ele>
        <time>2014-04-19T15:41:51.951Z</time>
      </trkpt>
      <trkpt lat="45.43033" lon="4.58621">
        <ele>689.4</ele>
        <time>2014-04-19T15:41:52.155Z</time>
      </trkpt>
      <trkpt lat="45.43027" lon="4.5861">
        <ele>688.3</ele>
        <time>2014-04-19T15:41:52.964Z</time>
      </trkpt>
      <trkpt lat="45.43027" lon="4.5861">
        <ele>688.3</ele>
        <time>2014-04-19T15:41:53.747Z</time>
      </trkpt>
      <trkpt lat="45.43022" lon="4.586">
        <ele>687.3</ele>
        <time>2014-04-19T15:41:53.930Z</time>
      </trkpt>
      <trkpt lat="45.43016" lon="4.5859">
        <ele>686.4</ele>
        <time>2014-04-19T15:41:55.019Z</time>
      </trkpt>
      <trkpt lat="45.43011" lon="4.58581">
        <ele>685.8</ele>
        <time>2014-04-19T15:41:55.960Z</time>
      </trkpt>
      <trkpt lat="45.43006" lon="4.58572">
        <ele>685.4</ele>
        <time>2014-04-19T15:41:57.030Z</time>
      </trkpt>
      <trkpt lat="45.43" lon="4.58563">
        <ele>685.2</ele>
        <time>2014-04-19T15:41:58.056Z</time>
      </trkpt>
      <trkpt lat="45.42995" lon="4.58555">
        <ele>685</ele>
        <time>2014-04-19T15:41:59.102Z</time>
      </trkpt>
      <trkpt lat="45.4299" lon="4.58546">
        <ele>684.9</ele>
        <time>2014-04-19T15:41:59.952Z</time>
      </trkpt>
      <trkpt lat="45.42986" lon="4.58537">
        <ele>684.6</ele>
        <time>2014-04-19T15:42:01.037Z</time>
      </trkpt>
      <trkpt lat="45.42981" lon="4.58527">
        <ele>684.3</ele>
        <time>2014-04-19T15:42:01.909Z</time>
      </trkpt>
      <trkpt lat="45.42977" lon="4.58518">
        <ele>683.9</ele>
        <time>2014-04-19T15:42:03.946Z</time>
      </trkpt>
      <trkpt lat="45.42974" lon="4.58508">
        <ele>683.5</ele>
        <time>2014-04-19T15:42:04.053Z</time>
      </trkpt>
      <trkpt lat="45.4297" lon="4.58498">
        <ele>682.9</ele>
        <time>2014-04-19T15:42:05.190Z</time>
      </trkpt>
      <trkpt lat="45.42967" lon="4.58487">
        <ele>682.3</ele>
        <time>2014-04-19T15:42:05.968Z</time>
      </trkpt>
      <trkpt lat="45.42965" lon="4.58477">
        <ele>681.9</ele>
        <time>2014-04-19T15:42:07.076Z</time>
      </trkpt>
      <trkpt lat="45.42963" lon="4.58466">
        <ele>681.6</ele>
        <time>2014-04-19T15:42:07.967Z</time>
      </trkpt>
      <trkpt lat="45.42961" lon="4.58455">
        <ele>681.4</ele>
        <time>2014-04-19T15:42:08.938Z</time>
      </trkpt>
      <trkpt lat="45.4296" lon="4.58443">
        <ele>681.3</ele>
        <time>2014-04-19T15:42:09.969Z</time>
      </trkpt>
      <trkpt lat="45.42959" lon="4.58432">
        <ele>681</ele>
        <time>2014-04-19T15:42:10.966Z</time>
      </trkpt>
      <trkpt lat="45.4296" lon="4.5842">
        <ele>680.4</ele>
        <time>2014-04-19T15:42:12.033Z</time>
      </trkpt>
      <trkpt lat="45.42961" lon="4.58408">
        <ele>680</ele>
        <time>2014-04-19T15:42:12.983Z</time>
      </trkpt>
      <trkpt lat="45.42963" lon="4.58396">
        <ele>679.5</ele>
        <time>2014-04-19T15:42:13.990Z</time>
      </trkpt>
      <trkpt lat="45.42965" lon="4.58385">
        <ele>679.1</ele>
        <time>2014-04-19T15:42:14.993Z</time>
      </trkpt>
      <trkpt lat="45.42967" lon="4.58373">
        <ele>678.7</ele>
        <time>2014-04-19T15:42:15.952Z</time>
      </trkpt>
      <trkpt lat="45.42968" lon="4.58362">
        <ele>678.3</ele>
        <time>2014-04-19T15:42:16.998Z</time>
      </trkpt>
      <trkpt lat="45.4297" lon="4.58351">
        <ele>678.1</ele>
        <time>2014-04-19T15:42:17.970Z</time>
      </trkpt>
      <trkpt lat="45.42972" lon="4.58339">
        <ele>677.8</ele>
        <time>2014-04-19T15:42:19.071Z</time>
      </trkpt>
      <trkpt lat="45.42975" lon="4.58327">
        <ele>677.5</ele>
        <time>2014-04-19T15:42:19.940Z</time>
      </trkpt>
      <trkpt lat="45.42977" lon="4.58316">
        <ele>677.3</ele>
        <time>2014-04-19T15:42:21.220Z</time>
      </trkpt>
      <trkpt lat="45.42979" lon="4.58305">
        <ele>677.2</ele>
        <time>2014-04-19T15:42:21.960Z</time>
      </trkpt>
      <trkpt lat="45.42982" lon="4.58294">
        <ele>677</ele>
        <time>2014-04-19T15:42:23.075Z</time>
      </trkpt>
      <trkpt lat="45.42987" lon="4.58283">
        <ele>676.6</ele>
        <time>2014-04-19T15:42:23.989Z</time>
      </trkpt>
      <trkpt lat="45.42987" lon="4.58283">
        <ele>676.6</ele>
        <time>2014-04-19T15:42:24.197Z</time>
      </trkpt>
      <trkpt lat="45.42991" lon="4.58272">
        <ele>676.2</ele>
        <time>2014-04-19T15:42:24.926Z</time>
      </trkpt>
      <trkpt lat="45.42991" lon="4.58272">
        <ele>676.2</ele>
        <time>2014-04-19T15:42:25.062Z</time>
      </trkpt>
      <trkpt lat="45.42996" lon="4.58261">
        <ele>675.5</ele>
        <time>2014-04-19T15:42:25.929Z</time>
      </trkpt>
      <trkpt lat="45.43" lon="4.5825">
        <ele>674.7</ele>
        <time>2014-04-19T15:42:26.998Z</time>
      </trkpt>
      <trkpt lat="45.43005" lon="4.58239">
        <ele>673.9</ele>
        <time>2014-04-19T15:42:27.921Z</time>
      </trkpt>
      <trkpt lat="45.43005" lon="4.58239">
        <ele>673.9</ele>
        <time>2014-04-19T15:42:28.060Z</time>
      </trkpt>
      <trkpt lat="45.43009" lon="4.58228">
        <ele>673.1</ele>
        <time>2014-04-19T15:42:28.938Z</time>
      </trkpt>
      <trkpt lat="45.43009" lon="4.58228">
        <ele>673.1</ele>
        <time>2014-04-19T15:42:29.165Z</time>
      </trkpt>
      <trkpt lat="45.43013" lon="4.58216">
        <ele>672.4</ele>
        <time>2014-04-19T15:42:29.963Z</time>
      </trkpt>
      <trkpt lat="45.43013" lon="4.58216">
        <ele>672.4</ele>
        <time>2014-04-19T15:42:30.148Z</time>
      </trkpt>
      <trkpt lat="45.43018" lon="4.58204">
        <ele>671.7</ele>
        <time>2014-04-19T15:42:30.974Z</time>
      </trkpt>
      <trkpt lat="45.43018" lon="4.58204">
        <ele>671.7</ele>
        <time>2014-04-19T15:42:31.151Z</time>
      </trkpt>
      <trkpt lat="45.43022" lon="4.58192">
        <ele>671.1</ele>
        <time>2014-04-19T15:42:31.971Z</time>
      </trkpt>
      <trkpt lat="45.43022" lon="4.58192">
        <ele>671.1</ele>
        <time>2014-04-19T15:42:32.183Z</time>
      </trkpt>
      <trkpt lat="45.43027" lon="4.58181">
        <ele>670.5</ele>
        <time>2014-04-19T15:42:32.962Z</time>
      </trkpt>
      <trkpt lat="45.43027" lon="4.58181">
        <ele>670.5</ele>
        <time>2014-04-19T15:42:33.192Z</time>
      </trkpt>
      <trkpt lat="45.43031" lon="4.58169">
        <ele>669.9</ele>
        <time>2014-04-19T15:42:33.967Z</time>
      </trkpt>
      <trkpt lat="45.43031" lon="4.58169">
        <ele>669.9</ele>
        <time>2014-04-19T15:42:34.254Z</time>
      </trkpt>
      <trkpt lat="45.43037" lon="4.58157">
        <ele>669.6</ele>
        <time>2014-04-19T15:42:34.974Z</time>
      </trkpt>
      <trkpt lat="45.43041" lon="4.58146">
        <ele>669.2</ele>
        <time>2014-04-19T15:42:36.044Z</time>
      </trkpt>
      <trkpt lat="45.43047" lon="4.58136">
        <ele>668.9</ele>
        <time>2014-04-19T15:42:36.984Z</time>
      </trkpt>
      <trkpt lat="45.43047" lon="4.58136">
        <ele>668.9</ele>
        <time>2014-04-19T15:42:37.221Z</time>
      </trkpt>
      <trkpt lat="45.43054" lon="4.58126">
        <ele>668.7</ele>
        <time>2014-04-19T15:42:37.931Z</time>
      </trkpt>
      <trkpt lat="45.43054" lon="4.58126">
        <ele>668.7</ele>
        <time>2014-04-19T15:42:38.071Z</time>
      </trkpt>
      <trkpt lat="45.43061" lon="4.58116">
        <ele>668.4</ele>
        <time>2014-04-19T15:42:38.973Z</time>
      </trkpt>
      <trkpt lat="45.43061" lon="4.58116">
        <ele>668.4</ele>
        <time>2014-04-19T15:42:39.343Z</time>
      </trkpt>
      <trkpt lat="45.43069" lon="4.58106">
        <ele>668.1</ele>
        <time>2014-04-19T15:42:39.979Z</time>
      </trkpt>
      <trkpt lat="45.43069" lon="4.58106">
        <ele>668.1</ele>
        <time>2014-04-19T15:42:40.123Z</time>
      </trkpt>
      <trkpt lat="45.43077" lon="4.58096">
        <ele>667.7</ele>
        <time>2014-04-19T15:42:40.991Z</time>
      </trkpt>
      <trkpt lat="45.43077" lon="4.58096">
        <ele>667.7</ele>
        <time>2014-04-19T15:42:41.156Z</time>
      </trkpt>
      <trkpt lat="45.43086" lon="4.58086">
        <ele>667.5</ele>
        <time>2014-04-19T15:42:41.968Z</time>
      </trkpt>
      <trkpt lat="45.43086" lon="4.58086">
        <ele>667.5</ele>
        <time>2014-04-19T15:42:42.113Z</time>
      </trkpt>
      <trkpt lat="45.43094" lon="4.58077">
        <ele>667.2</ele>
        <time>2014-04-19T15:42:42.948Z</time>
      </trkpt>
      <trkpt lat="45.43094" lon="4.58077">
        <ele>667.2</ele>
        <time>2014-04-19T15:42:43.063Z</time>
      </trkpt>
      <trkpt lat="45.43103" lon="4.58069">
        <ele>667.1</ele>
        <time>2014-04-19T15:42:43.975Z</time>
      </trkpt>
      <trkpt lat="45.43103" lon="4.58069">
        <ele>667.1</ele>
        <time>2014-04-19T15:42:44.342Z</time>
      </trkpt>
      <trkpt lat="45.43112" lon="4.58062">
        <ele>666.9</ele>
        <time>2014-04-19T15:42:44.936Z</time>
      </trkpt>
      <trkpt lat="45.43112" lon="4.58062">
        <ele>666.9</ele>
        <time>2014-04-19T15:42:45.066Z</time>
      </trkpt>
      <trkpt lat="45.43122" lon="4.58055">
        <ele>666.3</ele>
        <time>2014-04-19T15:42:45.935Z</time>
      </trkpt>
      <trkpt lat="45.43122" lon="4.58055">
        <ele>666.3</ele>
        <time>2014-04-19T15:42:46.070Z</time>
      </trkpt>
      <trkpt lat="45.43132" lon="4.5805">
        <ele>665.6</ele>
        <time>2014-04-19T15:42:46.951Z</time>
      </trkpt>
      <trkpt lat="45.43132" lon="4.5805">
        <ele>665.6</ele>
        <time>2014-04-19T15:42:47.126Z</time>
      </trkpt>
      <trkpt lat="45.43142" lon="4.58044">
        <ele>664.8</ele>
        <time>2014-04-19T15:42:47.958Z</time>
      </trkpt>
      <trkpt lat="45.43142" lon="4.58044">
        <ele>664.8</ele>
        <time>2014-04-19T15:42:48.121Z</time>
      </trkpt>
      <trkpt lat="45.43153" lon="4.58039">
        <ele>663.7</ele>
        <time>2014-04-19T15:42:48.968Z</time>
      </trkpt>
      <trkpt lat="45.43153" lon="4.58039">
        <ele>663.7</ele>
        <time>2014-04-19T15:42:49.331Z</time>
      </trkpt>
      <trkpt lat="45.43165" lon="4.58035">
        <ele>662.1</ele>
        <time>2014-04-19T15:42:49.915Z</time>
      </trkpt>
      <trkpt lat="45.43165" lon="4.58035">
        <ele>662.1</ele>
        <time>2014-04-19T15:42:50.044Z</time>
      </trkpt>
      <trkpt lat="45.43176" lon="4.58031">
        <ele>661.1</ele>
        <time>2014-04-19T15:42:50.931Z</time>
      </trkpt>
      <trkpt lat="45.43176" lon="4.58031">
        <ele>661.1</ele>
        <time>2014-04-19T15:42:51.097Z</time>
      </trkpt>
      <trkpt lat="45.43187" lon="4.58027">
        <ele>659.9</ele>
        <time>2014-04-19T15:42:51.969Z</time>
      </trkpt>
      <trkpt lat="45.43187" lon="4.58027">
        <ele>659.9</ele>
        <time>2014-04-19T15:42:52.168Z</time>
      </trkpt>
      <trkpt lat="45.43199" lon="4.58024">
        <ele>658.6</ele>
        <time>2014-04-19T15:42:52.966Z</time>
      </trkpt>
      <trkpt lat="45.43199" lon="4.58024">
        <ele>658.6</ele>
        <time>2014-04-19T15:42:53.704Z</time>
      </trkpt>
      <trkpt lat="45.43209" lon="4.5802">
        <ele>657.7</ele>
        <time>2014-04-19T15:42:53.940Z</time>
      </trkpt>
      <trkpt lat="45.43209" lon="4.5802">
        <ele>657.7</ele>
        <time>2014-04-19T15:42:54.105Z</time>
      </trkpt>
      <trkpt lat="45.4322" lon="4.58017">
        <ele>657.1</ele>
        <time>2014-04-19T15:42:54.966Z</time>
      </trkpt>
      <trkpt lat="45.4322" lon="4.58017">
        <ele>657.1</ele>
        <time>2014-04-19T15:42:55.125Z</time>
      </trkpt>
      <trkpt lat="45.43231" lon="4.58014">
        <ele>656.5</ele>
        <time>2014-04-19T15:42:55.977Z</time>
      </trkpt>
      <trkpt lat="45.43231" lon="4.58014">
        <ele>656.5</ele>
        <time>2014-04-19T15:42:56.194Z</time>
      </trkpt>
      <trkpt lat="45.43242" lon="4.5801">
        <ele>656</ele>
        <time>2014-04-19T15:42:56.970Z</time>
      </trkpt>
      <trkpt lat="45.43242" lon="4.5801">
        <ele>656</ele>
        <time>2014-04-19T15:42:57.140Z</time>
      </trkpt>
      <trkpt lat="45.43253" lon="4.58005">
        <ele>655.5</ele>
        <time>2014-04-19T15:42:57.969Z</time>
      </trkpt>
      <trkpt lat="45.43253" lon="4.58005">
        <ele>655.5</ele>
        <time>2014-04-19T15:42:58.774Z</time>
      </trkpt>
      <trkpt lat="45.43264" lon="4.57999">
        <ele>654.9</ele>
        <time>2014-04-19T15:42:58.933Z</time>
      </trkpt>
      <trkpt lat="45.43264" lon="4.57999">
        <ele>654.9</ele>
        <time>2014-04-19T15:42:59.079Z</time>
      </trkpt>
      <trkpt lat="45.43273" lon="4.57989">
        <ele>654.5</ele>
        <time>2014-04-19T15:43:00.081Z</time>
      </trkpt>
      <trkpt lat="45.43273" lon="4.57989">
        <ele>654.5</ele>
        <time>2014-04-19T15:43:00.330Z</time>
      </trkpt>
      <trkpt lat="45.43282" lon="4.5798">
        <ele>653.9</ele>
        <time>2014-04-19T15:43:00.920Z</time>
      </trkpt>
      <trkpt lat="45.43282" lon="4.5798">
        <ele>653.9</ele>
        <time>2014-04-19T15:43:01.032Z</time>
      </trkpt>
      <trkpt lat="45.43291" lon="4.5797">
        <ele>653.4</ele>
        <time>2014-04-19T15:43:01.932Z</time>
      </trkpt>
      <trkpt lat="45.43291" lon="4.5797">
        <ele>653.4</ele>
        <time>2014-04-19T15:43:02.063Z</time>
      </trkpt>
      <trkpt lat="45.433" lon="4.57959">
        <ele>652.8</ele>
        <time>2014-04-19T15:43:02.973Z</time>
      </trkpt>
      <trkpt lat="45.433" lon="4.57959">
        <ele>652.8</ele>
        <time>2014-04-19T15:43:03.116Z</time>
      </trkpt>
      <trkpt lat="45.4331" lon="4.57949">
        <ele>652.3</ele>
        <time>2014-04-19T15:43:04.002Z</time>
      </trkpt>
      <trkpt lat="45.4331" lon="4.57949">
        <ele>652.3</ele>
        <time>2014-04-19T15:43:04.515Z</time>
      </trkpt>
      <trkpt lat="45.43319" lon="4.5794">
        <ele>651.7</ele>
        <time>2014-04-19T15:43:04.940Z</time>
      </trkpt>
      <trkpt lat="45.43319" lon="4.5794">
        <ele>651.7</ele>
        <time>2014-04-19T15:43:05.058Z</time>
      </trkpt>
      <trkpt lat="45.43328" lon="4.57932">
        <ele>651.2</ele>
        <time>2014-04-19T15:43:05.970Z</time>
      </trkpt>
      <trkpt lat="45.43328" lon="4.57932">
        <ele>651.2</ele>
        <time>2014-04-19T15:43:06.165Z</time>
      </trkpt>
      <trkpt lat="45.43339" lon="4.57927">
        <ele>650.7</ele>
        <time>2014-04-19T15:43:06.987Z</time>
      </trkpt>
      <trkpt lat="45.43339" lon="4.57927">
        <ele>650.7</ele>
        <time>2014-04-19T15:43:07.162Z</time>
      </trkpt>
      <trkpt lat="45.4335" lon="4.57922">
        <ele>650</ele>
        <time>2014-04-19T15:43:07.979Z</time>
      </trkpt>
      <trkpt lat="45.4335" lon="4.57922">
        <ele>650</ele>
        <time>2014-04-19T15:43:08.990Z</time>
      </trkpt>
      <trkpt lat="45.43361" lon="4.57917">
        <ele>649.4</ele>
        <time>2014-04-19T15:43:09.094Z</time>
      </trkpt>
      <trkpt lat="45.43361" lon="4.57917">
        <ele>649.4</ele>
        <time>2014-04-19T15:43:09.248Z</time>
      </trkpt>
      <trkpt lat="45.43373" lon="4.57912">
        <ele>648.6</ele>
        <time>2014-04-19T15:43:09.982Z</time>
      </trkpt>
      <trkpt lat="45.43373" lon="4.57912">
        <ele>648.6</ele>
        <time>2014-04-19T15:43:10.140Z</time>
      </trkpt>
      <trkpt lat="45.43383" lon="4.57902">
        <ele>647.9</ele>
        <time>2014-04-19T15:43:10.967Z</time>
      </trkpt>
      <trkpt lat="45.43383" lon="4.57902">
        <ele>647.9</ele>
        <time>2014-04-19T15:43:11.195Z</time>
      </trkpt>
      <trkpt lat="45.43393" lon="4.57893">
        <ele>647</ele>
        <time>2014-04-19T15:43:11.931Z</time>
      </trkpt>
      <trkpt lat="45.43393" lon="4.57893">
        <ele>647</ele>
        <time>2014-04-19T15:43:12.095Z</time>
      </trkpt>
      <trkpt lat="45.434" lon="4.5788">
        <ele>646.3</ele>
        <time>2014-04-19T15:43:12.964Z</time>
      </trkpt>
      <trkpt lat="45.434" lon="4.5788">
        <ele>646.3</ele>
        <time>2014-04-19T15:43:13.144Z</time>
      </trkpt>
      <trkpt lat="45.43406" lon="4.57867">
        <ele>645.8</ele>
        <time>2014-04-19T15:43:13.959Z</time>
      </trkpt>
      <trkpt lat="45.43406" lon="4.57867">
        <ele>645.8</ele>
        <time>2014-04-19T15:43:13.999Z</time>
      </trkpt>
      <trkpt lat="45.43413" lon="4.57853">
        <ele>645.4</ele>
        <time>2014-04-19T15:43:14.969Z</time>
      </trkpt>
      <trkpt lat="45.43413" lon="4.57853">
        <ele>645.4</ele>
        <time>2014-04-19T15:43:15.164Z</time>
      </trkpt>
      <trkpt lat="45.43421" lon="4.57842">
        <ele>644.8</ele>
        <time>2014-04-19T15:43:15.950Z</time>
      </trkpt>
      <trkpt lat="45.43421" lon="4.57842">
        <ele>644.8</ele>
        <time>2014-04-19T15:43:16.172Z</time>
      </trkpt>
      <trkpt lat="45.43429" lon="4.57832">
        <ele>643.8</ele>
        <time>2014-04-19T15:43:16.985Z</time>
      </trkpt>
      <trkpt lat="45.43429" lon="4.57832">
        <ele>643.8</ele>
        <time>2014-04-19T15:43:17.193Z</time>
      </trkpt>
      <trkpt lat="45.43438" lon="4.57826">
        <ele>642.6</ele>
        <time>2014-04-19T15:43:17.963Z</time>
      </trkpt>
      <trkpt lat="45.43438" lon="4.57826">
        <ele>642.6</ele>
        <time>2014-04-19T15:43:19.045Z</time>
      </trkpt>
      <trkpt lat="45.43458" lon="4.57818">
        <ele>640.6</ele>
        <time>2014-04-19T15:43:19.937Z</time>
      </trkpt>
      <trkpt lat="45.43458" lon="4.57818">
        <ele>640.6</ele>
        <time>2014-04-19T15:43:20.361Z</time>
      </trkpt>
      <trkpt lat="45.43468" lon="4.57815">
        <ele>639.6</ele>
        <time>2014-04-19T15:43:20.969Z</time>
      </trkpt>
      <trkpt lat="45.43468" lon="4.57815">
        <ele>639.6</ele>
        <time>2014-04-19T15:43:21.116Z</time>
      </trkpt>
      <trkpt lat="45.43479" lon="4.57814">
        <ele>638.5</ele>
        <time>2014-04-19T15:43:21.941Z</time>
      </trkpt>
      <trkpt lat="45.43479" lon="4.57814">
        <ele>638.5</ele>
        <time>2014-04-19T15:43:22.139Z</time>
      </trkpt>
      <trkpt lat="45.4349" lon="4.57816">
        <ele>637.3</ele>
        <time>2014-04-19T15:43:22.970Z</time>
      </trkpt>
      <trkpt lat="45.4349" lon="4.57816">
        <ele>637.3</ele>
        <time>2014-04-19T15:43:23.118Z</time>
      </trkpt>
      <trkpt lat="45.43502" lon="4.57818">
        <ele>636.1</ele>
        <time>2014-04-19T15:43:24.076Z</time>
      </trkpt>
      <trkpt lat="45.43502" lon="4.57818">
        <ele>636.1</ele>
        <time>2014-04-19T15:43:24.181Z</time>
      </trkpt>
      <trkpt lat="45.43512" lon="4.57822">
        <ele>634.9</ele>
        <time>2014-04-19T15:43:24.957Z</time>
      </trkpt>
      <trkpt lat="45.43512" lon="4.57822">
        <ele>634.9</ele>
        <time>2014-04-19T15:43:25.092Z</time>
      </trkpt>
      <trkpt lat="45.43523" lon="4.57826">
        <ele>633.7</ele>
        <time>2014-04-19T15:43:25.978Z</time>
      </trkpt>
      <trkpt lat="45.43523" lon="4.57826">
        <ele>633.7</ele>
        <time>2014-04-19T15:43:26.154Z</time>
      </trkpt>
      <trkpt lat="45.43532" lon="4.5783">
        <ele>632.6</ele>
        <time>2014-04-19T15:43:27.006Z</time>
      </trkpt>
      <trkpt lat="45.43532" lon="4.5783">
        <ele>632.6</ele>
        <time>2014-04-19T15:43:27.183Z</time>
      </trkpt>
      <trkpt lat="45.43542" lon="4.57834">
        <ele>631.5</ele>
        <time>2014-04-19T15:43:27.938Z</time>
      </trkpt>
      <trkpt lat="45.43542" lon="4.57834">
        <ele>631.5</ele>
        <time>2014-04-19T15:43:28.096Z</time>
      </trkpt>
      <trkpt lat="45.43551" lon="4.57837">
        <ele>630.5</ele>
        <time>2014-04-19T15:43:28.941Z</time>
      </trkpt>
      <trkpt lat="45.43551" lon="4.57837">
        <ele>630.5</ele>
        <time>2014-04-19T15:43:29.142Z</time>
      </trkpt>
      <trkpt lat="45.4356" lon="4.5784">
        <ele>629.7</ele>
        <time>2014-04-19T15:43:29.967Z</time>
      </trkpt>
      <trkpt lat="45.43568" lon="4.57842">
        <ele>629.1</ele>
        <time>2014-04-19T15:43:31.041Z</time>
      </trkpt>
      <trkpt lat="45.43576" lon="4.57844">
        <ele>628.6</ele>
        <time>2014-04-19T15:43:31.961Z</time>
      </trkpt>
      <trkpt lat="45.43582" lon="4.57845">
        <ele>628.5</ele>
        <time>2014-04-19T15:43:33.021Z</time>
      </trkpt>
      <trkpt lat="45.43588" lon="4.57845">
        <ele>628.7</ele>
        <time>2014-04-19T15:43:33.943Z</time>
      </trkpt>
      <trkpt lat="45.43594" lon="4.57846">
        <ele>629.1</ele>
        <time>2014-04-19T15:43:34.950Z</time>
      </trkpt>
      <trkpt lat="45.436" lon="4.57846">
        <ele>629.6</ele>
        <time>2014-04-19T15:43:35.986Z</time>
      </trkpt>
      <trkpt lat="45.43606" lon="4.57846">
        <ele>630</ele>
        <time>2014-04-19T15:43:36.989Z</time>
      </trkpt>
      <trkpt lat="45.43611" lon="4.57846">
        <ele>630.3</ele>
        <time>2014-04-19T15:43:38.008Z</time>
      </trkpt>
      <trkpt lat="45.43616" lon="4.57846">
        <ele>630.5</ele>
        <time>2014-04-19T15:43:39.181Z</time>
      </trkpt>
      <trkpt lat="45.4362" lon="4.57847">
        <ele>630.8</ele>
        <time>2014-04-19T15:43:39.966Z</time>
      </trkpt>
      <trkpt lat="45.43629" lon="4.5785">
        <ele>631.2</ele>
        <time>2014-04-19T15:43:42.002Z</time>
      </trkpt>
      <trkpt lat="45.43632" lon="4.57852">
        <ele>631.2</ele>
        <time>2014-04-19T15:43:42.976Z</time>
      </trkpt>
      <trkpt lat="45.43637" lon="4.57859">
        <ele>631.2</ele>
        <time>2014-04-19T15:43:44.992Z</time>
      </trkpt>
      <trkpt lat="45.4364" lon="4.57862">
        <ele>631.4</ele>
        <time>2014-04-19T15:43:45.933Z</time>
      </trkpt>
      <trkpt lat="45.43646" lon="4.57871">
        <ele>631.4</ele>
        <time>2014-04-19T15:43:48.055Z</time>
      </trkpt>
      <trkpt lat="45.4365" lon="4.57875">
        <ele>631.6</ele>
        <time>2014-04-19T15:43:48.978Z</time>
      </trkpt>
      <trkpt lat="45.43653" lon="4.57879">
        <ele>631.8</ele>
        <time>2014-04-19T15:43:49.975Z</time>
      </trkpt>
      <trkpt lat="45.43657" lon="4.57884">
        <ele>631.9</ele>
        <time>2014-04-19T15:43:50.971Z</time>
      </trkpt>
      <trkpt lat="45.43661" lon="4.57888">
        <ele>632.1</ele>
        <time>2014-04-19T15:43:52.067Z</time>
      </trkpt>
      <trkpt lat="45.43665" lon="4.5789">
        <ele>632.2</ele>
        <time>2014-04-19T15:43:52.941Z</time>
      </trkpt>
      <trkpt lat="45.4367" lon="4.57891">
        <ele>632.5</ele>
        <time>2014-04-19T15:43:53.986Z</time>
      </trkpt>
      <trkpt lat="45.43676" lon="4.57891">
        <ele>632.6</ele>
        <time>2014-04-19T15:43:54.945Z</time>
      </trkpt>
      <trkpt lat="45.43681" lon="4.57891">
        <ele>632.5</ele>
        <time>2014-04-19T15:43:56.050Z</time>
      </trkpt>
      <trkpt lat="45.43687" lon="4.57891">
        <ele>632.4</ele>
        <time>2014-04-19T15:43:56.936Z</time>
      </trkpt>
      <trkpt lat="45.43693" lon="4.57891">
        <ele>632.3</ele>
        <time>2014-04-19T15:43:58.943Z</time>
      </trkpt>
      <trkpt lat="45.437" lon="4.57891">
        <ele>631.8</ele>
        <time>2014-04-19T15:43:59.021Z</time>
      </trkpt>
      <trkpt lat="45.43705" lon="4.5789">
        <ele>631.5</ele>
        <time>2014-04-19T15:43:59.951Z</time>
      </trkpt>
      <trkpt lat="45.43711" lon="4.5789">
        <ele>631.3</ele>
        <time>2014-04-19T15:44:01.032Z</time>
      </trkpt>
      <trkpt lat="45.43716" lon="4.57891">
        <ele>631.3</ele>
        <time>2014-04-19T15:44:01.983Z</time>
      </trkpt>
      <trkpt lat="45.4372" lon="4.57892">
        <ele>631.4</ele>
        <time>2014-04-19T15:44:02.972Z</time>
      </trkpt>
      <trkpt lat="45.43726" lon="4.57893">
        <ele>631.4</ele>
        <time>2014-04-19T15:44:03.977Z</time>
      </trkpt>
      <trkpt lat="45.43731" lon="4.57895">
        <ele>631.5</ele>
        <time>2014-04-19T15:44:05.000Z</time>
      </trkpt>
      <trkpt lat="45.43736" lon="4.57898">
        <ele>631.4</ele>
        <time>2014-04-19T15:44:05.984Z</time>
      </trkpt>
      <trkpt lat="45.43741" lon="4.57901">
        <ele>631.3</ele>
        <time>2014-04-19T15:44:06.974Z</time>
      </trkpt>
      <trkpt lat="45.43746" lon="4.57903">
        <ele>631.1</ele>
        <time>2014-04-19T15:44:08.010Z</time>
      </trkpt>
      <trkpt lat="45.43751" lon="4.57907">
        <ele>630.8</ele>
        <time>2014-04-19T15:44:09.026Z</time>
      </trkpt>
      <trkpt lat="45.43757" lon="4.57912">
        <ele>630.7</ele>
        <time>2014-04-19T15:44:10.022Z</time>
      </trkpt>
      <trkpt lat="45.43762" lon="4.57917">
        <ele>630.4</ele>
        <time>2014-04-19T15:44:10.937Z</time>
      </trkpt>
      <trkpt lat="45.43768" lon="4.57922">
        <ele>629.7</ele>
        <time>2014-04-19T15:44:11.974Z</time>
      </trkpt>
      <trkpt lat="45.43774" lon="4.57928">
        <ele>629.3</ele>
        <time>2014-04-19T15:44:12.936Z</time>
      </trkpt>
      <trkpt lat="45.43779" lon="4.57933">
        <ele>629.1</ele>
        <time>2014-04-19T15:44:14.124Z</time>
      </trkpt>
      <trkpt lat="45.43785" lon="4.57939">
        <ele>628.7</ele>
        <time>2014-04-19T15:44:14.971Z</time>
      </trkpt>
      <trkpt lat="45.43791" lon="4.57944">
        <ele>628.4</ele>
        <time>2014-04-19T15:44:16.083Z</time>
      </trkpt>
      <trkpt lat="45.43796" lon="4.5795">
        <ele>628.3</ele>
        <time>2014-04-19T15:44:16.979Z</time>
      </trkpt>
      <trkpt lat="45.43802" lon="4.57955">
        <ele>628.5</ele>
        <time>2014-04-19T15:44:18.045Z</time>
      </trkpt>
      <trkpt lat="45.43807" lon="4.5796">
        <ele>628.6</ele>
        <time>2014-04-19T15:44:18.974Z</time>
      </trkpt>
      <trkpt lat="45.43812" lon="4.57966">
        <ele>628.1</ele>
        <time>2014-04-19T15:44:19.971Z</time>
      </trkpt>
      <trkpt lat="45.43818" lon="4.57972">
        <ele>627.7</ele>
        <time>2014-04-19T15:44:20.977Z</time>
      </trkpt>
      <trkpt lat="45.43825" lon="4.57979">
        <ele>627.2</ele>
        <time>2014-04-19T15:44:21.977Z</time>
      </trkpt>
      <trkpt lat="45.43832" lon="4.57985">
        <ele>626.7</ele>
        <time>2014-04-19T15:44:22.984Z</time>
      </trkpt>
      <trkpt lat="45.43838" lon="4.57992">
        <ele>626.2</ele>
        <time>2014-04-19T15:44:24.587Z</time>
      </trkpt>
      <trkpt lat="45.43844" lon="4.57999">
        <ele>626.2</ele>
        <time>2014-04-19T15:44:24.938Z</time>
      </trkpt>
      <trkpt lat="45.4385" lon="4.58006">
        <ele>625.8</ele>
        <time>2014-04-19T15:44:25.996Z</time>
      </trkpt>
      <trkpt lat="45.43856" lon="4.58013">
        <ele>625.4</ele>
        <time>2014-04-19T15:44:26.990Z</time>
      </trkpt>
      <trkpt lat="45.43861" lon="4.5802">
        <ele>625.2</ele>
        <time>2014-04-19T15:44:28.111Z</time>
      </trkpt>
      <trkpt lat="45.43865" lon="4.58027">
        <ele>625.1</ele>
        <time>2014-04-19T15:44:28.930Z</time>
      </trkpt>
      <trkpt lat="45.4387" lon="4.58034">
        <ele>625</ele>
        <time>2014-04-19T15:44:29.979Z</time>
      </trkpt>
      <trkpt lat="45.43875" lon="4.58042">
        <ele>624.9</ele>
        <time>2014-04-19T15:44:30.978Z</time>
      </trkpt>
      <trkpt lat="45.4388" lon="4.5805">
        <ele>624.6</ele>
        <time>2014-04-19T15:44:31.992Z</time>
      </trkpt>
      <trkpt lat="45.43885" lon="4.58058">
        <ele>624.4</ele>
        <time>2014-04-19T15:44:33.007Z</time>
      </trkpt>
      <trkpt lat="45.43889" lon="4.58064">
        <ele>624.1</ele>
        <time>2014-04-19T15:44:34.285Z</time>
      </trkpt>
      <trkpt lat="45.43895" lon="4.5807">
        <ele>623.7</ele>
        <time>2014-04-19T15:44:34.942Z</time>
      </trkpt>
      <trkpt lat="45.43902" lon="4.58074">
        <ele>623.2</ele>
        <time>2014-04-19T15:44:35.992Z</time>
      </trkpt>
      <trkpt lat="45.43909" lon="4.58078">
        <ele>622.7</ele>
        <time>2014-04-19T15:44:36.940Z</time>
      </trkpt>
      <trkpt lat="45.43916" lon="4.58082">
        <ele>622</ele>
        <time>2014-04-19T15:44:38.243Z</time>
      </trkpt>
      <trkpt lat="45.43923" lon="4.58085">
        <ele>621.3</ele>
        <time>2014-04-19T15:44:39.181Z</time>
      </trkpt>
      <trkpt lat="45.4393" lon="4.58088">
        <ele>620.6</ele>
        <time>2014-04-19T15:44:39.948Z</time>
      </trkpt>
      <trkpt lat="45.43938" lon="4.58092">
        <ele>620</ele>
        <time>2014-04-19T15:44:40.970Z</time>
      </trkpt>
      <trkpt lat="45.43946" lon="4.58096">
        <ele>619.3</ele>
        <time>2014-04-19T15:44:42.064Z</time>
      </trkpt>
      <trkpt lat="45.43955" lon="4.58101">
        <ele>618.6</ele>
        <time>2014-04-19T15:44:42.941Z</time>
      </trkpt>
      <trkpt lat="45.43955" lon="4.58101">
        <ele>618.6</ele>
        <time>2014-04-19T15:44:43.260Z</time>
      </trkpt>
      <trkpt lat="45.43963" lon="4.58105">
        <ele>618</ele>
        <time>2014-04-19T15:44:43.939Z</time>
      </trkpt>
      <trkpt lat="45.43963" lon="4.58105">
        <ele>618</ele>
        <time>2014-04-19T15:44:44.813Z</time>
      </trkpt>
      <trkpt lat="45.43972" lon="4.58111">
        <ele>617.5</ele>
        <time>2014-04-19T15:44:44.983Z</time>
      </trkpt>
      <trkpt lat="45.43972" lon="4.58111">
        <ele>617.5</ele>
        <time>2014-04-19T15:44:45.132Z</time>
      </trkpt>
      <trkpt lat="45.43981" lon="4.58116">
        <ele>616.9</ele>
        <time>2014-04-19T15:44:45.963Z</time>
      </trkpt>
      <trkpt lat="45.43981" lon="4.58116">
        <ele>616.9</ele>
        <time>2014-04-19T15:44:46.115Z</time>
      </trkpt>
      <trkpt lat="45.43991" lon="4.58121">
        <ele>616.4</ele>
        <time>2014-04-19T15:44:46.980Z</time>
      </trkpt>
      <trkpt lat="45.43991" lon="4.58121">
        <ele>616.4</ele>
        <time>2014-04-19T15:44:47.357Z</time>
      </trkpt>
      <trkpt lat="45.44001" lon="4.58126">
        <ele>615.9</ele>
        <time>2014-04-19T15:44:47.944Z</time>
      </trkpt>
      <trkpt lat="45.44001" lon="4.58126">
        <ele>615.9</ele>
        <time>2014-04-19T15:44:48.100Z</time>
      </trkpt>
      <trkpt lat="45.44011" lon="4.5813">
        <ele>615.3</ele>
        <time>2014-04-19T15:44:48.984Z</time>
      </trkpt>
      <trkpt lat="45.44011" lon="4.5813">
        <ele>615.3</ele>
        <time>2014-04-19T15:44:49.860Z</time>
      </trkpt>
      <trkpt lat="45.44021" lon="4.58133">
        <ele>614.7</ele>
        <time>2014-04-19T15:44:49.987Z</time>
      </trkpt>
      <trkpt lat="45.44021" lon="4.58133">
        <ele>614.7</ele>
        <time>2014-04-19T15:44:50.115Z</time>
      </trkpt>
      <trkpt lat="45.44032" lon="4.58137">
        <ele>614</ele>
        <time>2014-04-19T15:44:50.983Z</time>
      </trkpt>
      <trkpt lat="45.44032" lon="4.58137">
        <ele>614</ele>
        <time>2014-04-19T15:44:51.102Z</time>
      </trkpt>
      <trkpt lat="45.44042" lon="4.5814">
        <ele>613.3</ele>
        <time>2014-04-19T15:44:51.988Z</time>
      </trkpt>
      <trkpt lat="45.44042" lon="4.5814">
        <ele>613.3</ele>
        <time>2014-04-19T15:44:52.211Z</time>
      </trkpt>
      <trkpt lat="45.44052" lon="4.58144">
        <ele>612.5</ele>
        <time>2014-04-19T15:44:52.944Z</time>
      </trkpt>
      <trkpt lat="45.44052" lon="4.58144">
        <ele>612.5</ele>
        <time>2014-04-19T15:44:53.807Z</time>
      </trkpt>
      <trkpt lat="45.44062" lon="4.58147">
        <ele>611.8</ele>
        <time>2014-04-19T15:44:53.952Z</time>
      </trkpt>
      <trkpt lat="45.44062" lon="4.58147">
        <ele>611.8</ele>
        <time>2014-04-19T15:44:54.096Z</time>
      </trkpt>
      <trkpt lat="45.44071" lon="4.58151">
        <ele>611.3</ele>
        <time>2014-04-19T15:44:54.931Z</time>
      </trkpt>
      <trkpt lat="45.44071" lon="4.58151">
        <ele>611.3</ele>
        <time>2014-04-19T15:44:55.066Z</time>
      </trkpt>
      <trkpt lat="45.44081" lon="4.58155">
        <ele>610.7</ele>
        <time>2014-04-19T15:44:55.966Z</time>
      </trkpt>
      <trkpt lat="45.44081" lon="4.58155">
        <ele>610.7</ele>
        <time>2014-04-19T15:44:56.137Z</time>
      </trkpt>
      <trkpt lat="45.44091" lon="4.58161">
        <ele>610</ele>
        <time>2014-04-19T15:44:56.934Z</time>
      </trkpt>
      <trkpt lat="45.44091" lon="4.58161">
        <ele>610</ele>
        <time>2014-04-19T15:44:57.094Z</time>
      </trkpt>
      <trkpt lat="45.44101" lon="4.58166">
        <ele>609.3</ele>
        <time>2014-04-19T15:44:58.074Z</time>
      </trkpt>
      <trkpt lat="45.44101" lon="4.58166">
        <ele>609.3</ele>
        <time>2014-04-19T15:44:58.799Z</time>
      </trkpt>
      <trkpt lat="45.44111" lon="4.58172">
        <ele>608.4</ele>
        <time>2014-04-19T15:44:58.913Z</time>
      </trkpt>
      <trkpt lat="45.44111" lon="4.58172">
        <ele>608.4</ele>
        <time>2014-04-19T15:44:59.021Z</time>
      </trkpt>
      <trkpt lat="45.44121" lon="4.58179">
        <ele>607.6</ele>
        <time>2014-04-19T15:44:59.934Z</time>
      </trkpt>
      <trkpt lat="45.44121" lon="4.58179">
        <ele>607.6</ele>
        <time>2014-04-19T15:45:00.136Z</time>
      </trkpt>
      <trkpt lat="45.44131" lon="4.58185">
        <ele>606.8</ele>
        <time>2014-04-19T15:45:00.984Z</time>
      </trkpt>
      <trkpt lat="45.44131" lon="4.58185">
        <ele>606.8</ele>
        <time>2014-04-19T15:45:01.262Z</time>
      </trkpt>
      <trkpt lat="45.44141" lon="4.58192">
        <ele>606</ele>
        <time>2014-04-19T15:45:01.951Z</time>
      </trkpt>
      <trkpt lat="45.44141" lon="4.58192">
        <ele>606</ele>
        <time>2014-04-19T15:45:02.345Z</time>
      </trkpt>
      <trkpt lat="45.44151" lon="4.58199">
        <ele>605.3</ele>
        <time>2014-04-19T15:45:03.003Z</time>
      </trkpt>
      <trkpt lat="45.44151" lon="4.58199">
        <ele>605.3</ele>
        <time>2014-04-19T15:45:03.153Z</time>
      </trkpt>
      <trkpt lat="45.44161" lon="4.58206">
        <ele>604.6</ele>
        <time>2014-04-19T15:45:04.031Z</time>
      </trkpt>
      <trkpt lat="45.44161" lon="4.58206">
        <ele>604.6</ele>
        <time>2014-04-19T15:45:04.238Z</time>
      </trkpt>
      <trkpt lat="45.44171" lon="4.58212">
        <ele>603.8</ele>
        <time>2014-04-19T15:45:04.976Z</time>
      </trkpt>
      <trkpt lat="45.44171" lon="4.58212">
        <ele>603.8</ele>
        <time>2014-04-19T15:45:05.154Z</time>
      </trkpt>
      <trkpt lat="45.44181" lon="4.5822">
        <ele>603.1</ele>
        <time>2014-04-19T15:45:05.946Z</time>
      </trkpt>
      <trkpt lat="45.44181" lon="4.5822">
        <ele>603.1</ele>
        <time>2014-04-19T15:45:06.082Z</time>
      </trkpt>
      <trkpt lat="45.44191" lon="4.58226">
        <ele>602.3</ele>
        <time>2014-04-19T15:45:06.967Z</time>
      </trkpt>
      <trkpt lat="45.44191" lon="4.58226">
        <ele>602.3</ele>
        <time>2014-04-19T15:45:07.119Z</time>
      </trkpt>
      <trkpt lat="45.44201" lon="4.58233">
        <ele>601.5</ele>
        <time>2014-04-19T15:45:07.973Z</time>
      </trkpt>
      <trkpt lat="45.44201" lon="4.58233">
        <ele>601.5</ele>
        <time>2014-04-19T15:45:09.004Z</time>
      </trkpt>
      <trkpt lat="45.44222" lon="4.58246">
        <ele>599.9</ele>
        <time>2014-04-19T15:45:09.965Z</time>
      </trkpt>
      <trkpt lat="45.44222" lon="4.58246">
        <ele>599.9</ele>
        <time>2014-04-19T15:45:10.131Z</time>
      </trkpt>
      <trkpt lat="45.44232" lon="4.58254">
        <ele>599.1</ele>
        <time>2014-04-19T15:45:10.969Z</time>
      </trkpt>
      <trkpt lat="45.44232" lon="4.58254">
        <ele>599.1</ele>
        <time>2014-04-19T15:45:11.195Z</time>
      </trkpt>
      <trkpt lat="45.44242" lon="4.58261">
        <ele>598.3</ele>
        <time>2014-04-19T15:45:11.973Z</time>
      </trkpt>
      <trkpt lat="45.44242" lon="4.58261">
        <ele>598.3</ele>
        <time>2014-04-19T15:45:12.154Z</time>
      </trkpt>
      <trkpt lat="45.44252" lon="4.58269">
        <ele>597.5</ele>
        <time>2014-04-19T15:45:12.968Z</time>
      </trkpt>
      <trkpt lat="45.44252" lon="4.58269">
        <ele>597.5</ele>
        <time>2014-04-19T15:45:13.195Z</time>
      </trkpt>
      <trkpt lat="45.44261" lon="4.58277">
        <ele>596.7</ele>
        <time>2014-04-19T15:45:13.974Z</time>
      </trkpt>
      <trkpt lat="45.44261" lon="4.58277">
        <ele>596.7</ele>
        <time>2014-04-19T15:45:14.067Z</time>
      </trkpt>
      <trkpt lat="45.4427" lon="4.58285">
        <ele>596.1</ele>
        <time>2014-04-19T15:45:14.971Z</time>
      </trkpt>
      <trkpt lat="45.4427" lon="4.58285">
        <ele>596.1</ele>
        <time>2014-04-19T15:45:15.161Z</time>
      </trkpt>
      <trkpt lat="45.44278" lon="4.58293">
        <ele>595.5</ele>
        <time>2014-04-19T15:45:15.969Z</time>
      </trkpt>
      <trkpt lat="45.44284" lon="4.583">
        <ele>594.9</ele>
        <time>2014-04-19T15:45:17.047Z</time>
      </trkpt>
      <trkpt lat="45.4429" lon="4.58306">
        <ele>594.4</ele>
        <time>2014-04-19T15:45:17.933Z</time>
      </trkpt>
      <trkpt lat="45.44296" lon="4.58313">
        <ele>594.1</ele>
        <time>2014-04-19T15:45:19.101Z</time>
      </trkpt>
      <trkpt lat="45.443" lon="4.58319">
        <ele>593.4</ele>
        <time>2014-04-19T15:45:19.988Z</time>
      </trkpt>
      <trkpt lat="45.44305" lon="4.58323">
        <ele>592.8</ele>
        <time>2014-04-19T15:45:21.103Z</time>
      </trkpt>
      <trkpt lat="45.44309" lon="4.58326">
        <ele>592.2</ele>
        <time>2014-04-19T15:45:21.930Z</time>
      </trkpt>
      <trkpt lat="45.44318" lon="4.58325">
        <ele>591.3</ele>
        <time>2014-04-19T15:45:24.142Z</time>
      </trkpt>
      <trkpt lat="45.4432" lon="4.58323">
        <ele>591.2</ele>
        <time>2014-04-19T15:45:25.031Z</time>
      </trkpt>
      <trkpt lat="45.44323" lon="4.58316">
        <ele>590.9</ele>
        <time>2014-04-19T15:45:27.138Z</time>
      </trkpt>
      <trkpt lat="45.44324" lon="4.58311">
        <ele>590.8</ele>
        <time>2014-04-19T15:45:27.933Z</time>
      </trkpt>
      <trkpt lat="45.44323" lon="4.58305">
        <ele>589.8</ele>
        <time>2014-04-19T15:45:29.208Z</time>
      </trkpt>
      <trkpt lat="45.44322" lon="4.58298">
        <ele>588.9</ele>
        <time>2014-04-19T15:45:29.929Z</time>
      </trkpt>
      <trkpt lat="45.4432" lon="4.58292">
        <ele>588.1</ele>
        <time>2014-04-19T15:45:31.248Z</time>
      </trkpt>
      <trkpt lat="45.44317" lon="4.58286">
        <ele>587.5</ele>
        <time>2014-04-19T15:45:31.965Z</time>
      </trkpt>
      <trkpt lat="45.44314" lon="4.58281">
        <ele>587</ele>
        <time>2014-04-19T15:45:33.025Z</time>
      </trkpt>
      <trkpt lat="45.4431" lon="4.58276">
        <ele>586.8</ele>
        <time>2014-04-19T15:45:33.973Z</time>
      </trkpt>
      <trkpt lat="45.44306" lon="4.5827">
        <ele>586.6</ele>
        <time>2014-04-19T15:45:34.947Z</time>
      </trkpt>
      <trkpt lat="45.44302" lon="4.58263">
        <ele>586.4</ele>
        <time>2014-04-19T15:45:35.958Z</time>
      </trkpt>
      <trkpt lat="45.44297" lon="4.58256">
        <ele>586.2</ele>
        <time>2014-04-19T15:45:37.169Z</time>
      </trkpt>
      <trkpt lat="45.44292" lon="4.58248">
        <ele>585.8</ele>
        <time>2014-04-19T15:45:37.983Z</time>
      </trkpt>
      <trkpt lat="45.44287" lon="4.5824">
        <ele>585.4</ele>
        <time>2014-04-19T15:45:39.311Z</time>
      </trkpt>
      <trkpt lat="45.44282" lon="4.5823">
        <ele>585.1</ele>
        <time>2014-04-19T15:45:39.939Z</time>
      </trkpt>
      <trkpt lat="45.44277" lon="4.58221">
        <ele>584.5</ele>
        <time>2014-04-19T15:45:41.012Z</time>
      </trkpt>
      <trkpt lat="45.44272" lon="4.5821">
        <ele>583.9</ele>
        <time>2014-04-19T15:45:42.007Z</time>
      </trkpt>
      <trkpt lat="45.44272" lon="4.5821">
        <ele>583.9</ele>
        <time>2014-04-19T15:45:42.529Z</time>
      </trkpt>
      <trkpt lat="45.44267" lon="4.58199">
        <ele>583.3</ele>
        <time>2014-04-19T15:45:42.931Z</time>
      </trkpt>
      <trkpt lat="45.44267" lon="4.58199">
        <ele>583.3</ele>
        <time>2014-04-19T15:45:43.074Z</time>
      </trkpt>
      <trkpt lat="45.44262" lon="4.58187">
        <ele>582.8</ele>
        <time>2014-04-19T15:45:44.021Z</time>
      </trkpt>
      <trkpt lat="45.44262" lon="4.58187">
        <ele>582.8</ele>
        <time>2014-04-19T15:45:44.344Z</time>
      </trkpt>
      <trkpt lat="45.44257" lon="4.58176">
        <ele>582.3</ele>
        <time>2014-04-19T15:45:44.935Z</time>
      </trkpt>
      <trkpt lat="45.44257" lon="4.58176">
        <ele>582.3</ele>
        <time>2014-04-19T15:45:45.065Z</time>
      </trkpt>
      <trkpt lat="45.44252" lon="4.58164">
        <ele>581.6</ele>
        <time>2014-04-19T15:45:45.946Z</time>
      </trkpt>
      <trkpt lat="45.44252" lon="4.58164">
        <ele>581.6</ele>
        <time>2014-04-19T15:45:46.179Z</time>
      </trkpt>
      <trkpt lat="45.44246" lon="4.58152">
        <ele>580.9</ele>
        <time>2014-04-19T15:45:46.976Z</time>
      </trkpt>
      <trkpt lat="45.44246" lon="4.58152">
        <ele>580.9</ele>
        <time>2014-04-19T15:45:47.122Z</time>
      </trkpt>
      <trkpt lat="45.4424" lon="4.58141">
        <ele>580.1</ele>
        <time>2014-04-19T15:45:47.974Z</time>
      </trkpt>
      <trkpt lat="45.4424" lon="4.58141">
        <ele>580.1</ele>
        <time>2014-04-19T15:45:48.193Z</time>
      </trkpt>
      <trkpt lat="45.44234" lon="4.5813">
        <ele>579.1</ele>
        <time>2014-04-19T15:45:48.976Z</time>
      </trkpt>
      <trkpt lat="45.44228" lon="4.58121">
        <ele>578.2</ele>
        <time>2014-04-19T15:45:50.054Z</time>
      </trkpt>
      <trkpt lat="45.44222" lon="4.58113">
        <ele>577.4</ele>
        <time>2014-04-19T15:45:50.981Z</time>
      </trkpt>
      <trkpt lat="45.44219" lon="4.58106">
        <ele>576.7</ele>
        <time>2014-04-19T15:45:51.976Z</time>
      </trkpt>
      <trkpt lat="45.44219" lon="4.58099">
        <ele>575.8</ele>
        <time>2014-04-19T15:45:52.960Z</time>
      </trkpt>
      <trkpt lat="45.44221" lon="4.58091">
        <ele>575.5</ele>
        <time>2014-04-19T15:45:53.968Z</time>
      </trkpt>
      <trkpt lat="45.44224" lon="4.58085">
        <ele>574.9</ele>
        <time>2014-04-19T15:45:54.977Z</time>
      </trkpt>
      <trkpt lat="45.44227" lon="4.5808">
        <ele>574.3</ele>
        <time>2014-04-19T15:45:56.270Z</time>
      </trkpt>
      <trkpt lat="45.44232" lon="4.58077">
        <ele>573.4</ele>
        <time>2014-04-19T15:45:56.978Z</time>
      </trkpt>
      <trkpt lat="45.44238" lon="4.58076">
        <ele>572.3</ele>
        <time>2014-04-19T15:45:58.894Z</time>
      </trkpt>
      <trkpt lat="45.44244" lon="4.58078">
        <ele>571.3</ele>
        <time>2014-04-19T15:45:59.019Z</time>
      </trkpt>
      <trkpt lat="45.44251" lon="4.58082">
        <ele>570.5</ele>
        <time>2014-04-19T15:46:00.213Z</time>
      </trkpt>
      <trkpt lat="45.44259" lon="4.58088">
        <ele>569.8</ele>
        <time>2014-04-19T15:46:00.947Z</time>
      </trkpt>
      <trkpt lat="45.44265" lon="4.58093">
        <ele>569.4</ele>
        <time>2014-04-19T15:46:01.978Z</time>
      </trkpt>
      <trkpt lat="45.44271" lon="4.581">
        <ele>569</ele>
        <time>2014-04-19T15:46:02.978Z</time>
      </trkpt>
      <trkpt lat="45.44277" lon="4.58106">
        <ele>568.8</ele>
        <time>2014-04-19T15:46:04.140Z</time>
      </trkpt>
      <trkpt lat="45.44283" lon="4.58113">
        <ele>568.7</ele>
        <time>2014-04-19T15:46:05.010Z</time>
      </trkpt>
      <trkpt lat="45.44289" lon="4.5812">
        <ele>568.4</ele>
        <time>2014-04-19T15:46:05.972Z</time>
      </trkpt>
      <trkpt lat="45.44295" lon="4.58126">
        <ele>568.2</ele>
        <time>2014-04-19T15:46:06.978Z</time>
      </trkpt>
      <trkpt lat="45.44302" lon="4.58133">
        <ele>567.7</ele>
        <time>2014-04-19T15:46:07.987Z</time>
      </trkpt>
      <trkpt lat="45.44308" lon="4.58139">
        <ele>567.2</ele>
        <time>2014-04-19T15:46:09.087Z</time>
      </trkpt>
      <trkpt lat="45.44315" lon="4.58145">
        <ele>566.9</ele>
        <time>2014-04-19T15:46:09.950Z</time>
      </trkpt>
      <trkpt lat="45.44321" lon="4.58151">
        <ele>566.6</ele>
        <time>2014-04-19T15:46:10.991Z</time>
      </trkpt>
      <trkpt lat="45.44328" lon="4.58158">
        <ele>566.3</ele>
        <time>2014-04-19T15:46:12.062Z</time>
      </trkpt>
      <trkpt lat="45.44335" lon="4.58164">
        <ele>566</ele>
        <time>2014-04-19T15:46:12.991Z</time>
      </trkpt>
      <trkpt lat="45.44342" lon="4.58171">
        <ele>565.5</ele>
        <time>2014-04-19T15:46:14.510Z</time>
      </trkpt>
      <trkpt lat="45.44349" lon="4.58178">
        <ele>565</ele>
        <time>2014-04-19T15:46:14.935Z</time>
      </trkpt>
      <trkpt lat="45.44357" lon="4.58185">
        <ele>564.5</ele>
        <time>2014-04-19T15:46:15.987Z</time>
      </trkpt>
      <trkpt lat="45.44364" lon="4.58192">
        <ele>563.9</ele>
        <time>2014-04-19T15:46:17.011Z</time>
      </trkpt>
      <trkpt lat="45.44364" lon="4.58192">
        <ele>563.9</ele>
        <time>2014-04-19T15:46:17.157Z</time>
      </trkpt>
      <trkpt lat="45.44372" lon="4.58198">
        <ele>563.4</ele>
        <time>2014-04-19T15:46:17.970Z</time>
      </trkpt>
      <trkpt lat="45.44372" lon="4.58198">
        <ele>563.4</ele>
        <time>2014-04-19T15:46:18.125Z</time>
      </trkpt>
      <trkpt lat="45.4438" lon="4.58204">
        <ele>562.9</ele>
        <time>2014-04-19T15:46:18.988Z</time>
      </trkpt>
      <trkpt lat="45.4438" lon="4.58204">
        <ele>562.9</ele>
        <time>2014-04-19T15:46:19.541Z</time>
      </trkpt>
      <trkpt lat="45.4439" lon="4.58206">
        <ele>562.2</ele>
        <time>2014-04-19T15:46:19.933Z</time>
      </trkpt>
      <trkpt lat="45.4439" lon="4.58206">
        <ele>562.2</ele>
        <time>2014-04-19T15:46:20.110Z</time>
      </trkpt>
      <trkpt lat="45.44399" lon="4.58204">
        <ele>561.3</ele>
        <time>2014-04-19T15:46:20.990Z</time>
      </trkpt>
      <trkpt lat="45.44399" lon="4.58204">
        <ele>561.3</ele>
        <time>2014-04-19T15:46:21.257Z</time>
      </trkpt>
      <trkpt lat="45.44408" lon="4.582">
        <ele>560.4</ele>
        <time>2014-04-19T15:46:21.943Z</time>
      </trkpt>
      <trkpt lat="45.44408" lon="4.582">
        <ele>560.4</ele>
        <time>2014-04-19T15:46:22.128Z</time>
      </trkpt>
      <trkpt lat="45.44416" lon="4.58193">
        <ele>559.3</ele>
        <time>2014-04-19T15:46:22.972Z</time>
      </trkpt>
      <trkpt lat="45.44416" lon="4.58193">
        <ele>559.3</ele>
        <time>2014-04-19T15:46:23.177Z</time>
      </trkpt>
      <trkpt lat="45.44423" lon="4.58184">
        <ele>558.2</ele>
        <time>2014-04-19T15:46:23.983Z</time>
      </trkpt>
      <trkpt lat="45.44423" lon="4.58184">
        <ele>558.2</ele>
        <time>2014-04-19T15:46:24.532Z</time>
      </trkpt>
      <trkpt lat="45.44429" lon="4.58174">
        <ele>557.1</ele>
        <time>2014-04-19T15:46:24.930Z</time>
      </trkpt>
      <trkpt lat="45.44429" lon="4.58174">
        <ele>557.1</ele>
        <time>2014-04-19T15:46:25.080Z</time>
      </trkpt>
      <trkpt lat="45.44431" lon="4.58161">
        <ele>556.1</ele>
        <time>2014-04-19T15:46:25.978Z</time>
      </trkpt>
      <trkpt lat="45.44431" lon="4.58161">
        <ele>556.1</ele>
        <time>2014-04-19T15:46:26.154Z</time>
      </trkpt>
      <trkpt lat="45.44431" lon="4.58148">
        <ele>555.5</ele>
        <time>2014-04-19T15:46:26.936Z</time>
      </trkpt>
      <trkpt lat="45.44431" lon="4.58148">
        <ele>555.5</ele>
        <time>2014-04-19T15:46:27.127Z</time>
      </trkpt>
      <trkpt lat="45.44429" lon="4.58134">
        <ele>555.1</ele>
        <time>2014-04-19T15:46:28.031Z</time>
      </trkpt>
      <trkpt lat="45.44429" lon="4.58134">
        <ele>555.1</ele>
        <time>2014-04-19T15:46:28.283Z</time>
      </trkpt>
      <trkpt lat="45.44425" lon="4.58122">
        <ele>554.8</ele>
        <time>2014-04-19T15:46:28.937Z</time>
      </trkpt>
      <trkpt lat="45.44425" lon="4.58122">
        <ele>554.8</ele>
        <time>2014-04-19T15:46:29.575Z</time>
      </trkpt>
      <trkpt lat="45.44418" lon="4.58113">
        <ele>554.3</ele>
        <time>2014-04-19T15:46:29.931Z</time>
      </trkpt>
      <trkpt lat="45.44418" lon="4.58113">
        <ele>554.3</ele>
        <time>2014-04-19T15:46:30.364Z</time>
      </trkpt>
      <trkpt lat="45.44411" lon="4.58104">
        <ele>553.6</ele>
        <time>2014-04-19T15:46:30.925Z</time>
      </trkpt>
      <trkpt lat="45.44411" lon="4.58104">
        <ele>553.6</ele>
        <time>2014-04-19T15:46:31.073Z</time>
      </trkpt>
      <trkpt lat="45.44402" lon="4.58095">
        <ele>552.8</ele>
        <time>2014-04-19T15:46:31.922Z</time>
      </trkpt>
      <trkpt lat="45.44402" lon="4.58095">
        <ele>552.8</ele>
        <time>2014-04-19T15:46:32.076Z</time>
      </trkpt>
      <trkpt lat="45.44393" lon="4.58087">
        <ele>551.8</ele>
        <time>2014-04-19T15:46:32.941Z</time>
      </trkpt>
      <trkpt lat="45.44393" lon="4.58087">
        <ele>551.8</ele>
        <time>2014-04-19T15:46:33.124Z</time>
      </trkpt>
      <trkpt lat="45.44385" lon="4.58079">
        <ele>551</ele>
        <time>2014-04-19T15:46:33.979Z</time>
      </trkpt>
      <trkpt lat="45.44385" lon="4.58079">
        <ele>551</ele>
        <time>2014-04-19T15:46:34.597Z</time>
      </trkpt>
      <trkpt lat="45.44376" lon="4.58072">
        <ele>550.1</ele>
        <time>2014-04-19T15:46:34.928Z</time>
      </trkpt>
      <trkpt lat="45.44369" lon="4.58064">
        <ele>549.3</ele>
        <time>2014-04-19T15:46:36.011Z</time>
      </trkpt>
      <trkpt lat="45.44362" lon="4.58057">
        <ele>548.7</ele>
        <time>2014-04-19T15:46:36.970Z</time>
      </trkpt>
      <trkpt lat="45.44358" lon="4.58045">
        <ele>548</ele>
        <time>2014-04-19T15:46:38.019Z</time>
      </trkpt>
      <trkpt lat="45.44356" lon="4.58033">
        <ele>547.5</ele>
        <time>2014-04-19T15:46:38.973Z</time>
      </trkpt>
      <trkpt lat="45.44356" lon="4.5802">
        <ele>546.9</ele>
        <time>2014-04-19T15:46:39.982Z</time>
      </trkpt>
      <trkpt lat="45.44358" lon="4.58009">
        <ele>546.4</ele>
        <time>2014-04-19T15:46:40.945Z</time>
      </trkpt>
      <trkpt lat="45.44363" lon="4.57998">
        <ele>545.9</ele>
        <time>2014-04-19T15:46:42.068Z</time>
      </trkpt>
      <trkpt lat="45.44368" lon="4.57989">
        <ele>546</ele>
        <time>2014-04-19T15:46:43.070Z</time>
      </trkpt>
      <trkpt lat="45.44376" lon="4.57985">
        <ele>546</ele>
        <time>2014-04-19T15:46:44.741Z</time>
      </trkpt>
      <trkpt lat="45.44386" lon="4.57983">
        <ele>546.2</ele>
        <time>2014-04-19T15:46:45.266Z</time>
      </trkpt>
      <trkpt lat="45.44386" lon="4.57983">
        <ele>546.2</ele>
        <time>2014-04-19T15:46:45.417Z</time>
      </trkpt>
      <trkpt lat="45.44397" lon="4.57984">
        <ele>546.1</ele>
        <time>2014-04-19T15:46:45.980Z</time>
      </trkpt>
      <trkpt lat="45.44397" lon="4.57984">
        <ele>546.1</ele>
        <time>2014-04-19T15:46:46.118Z</time>
      </trkpt>
      <trkpt lat="45.44406" lon="4.57986">
        <ele>545.8</ele>
        <time>2014-04-19T15:46:46.981Z</time>
      </trkpt>
      <trkpt lat="45.44406" lon="4.57986">
        <ele>545.8</ele>
        <time>2014-04-19T15:46:47.192Z</time>
      </trkpt>
      <trkpt lat="45.44415" lon="4.57989">
        <ele>545.6</ele>
        <time>2014-04-19T15:46:47.981Z</time>
      </trkpt>
      <trkpt lat="45.44423" lon="4.57992">
        <ele>545.4</ele>
        <time>2014-04-19T15:46:49.762Z</time>
      </trkpt>
      <trkpt lat="45.44432" lon="4.57997">
        <ele>545.2</ele>
        <time>2014-04-19T15:46:50.015Z</time>
      </trkpt>
      <trkpt lat="45.44432" lon="4.57997">
        <ele>545.2</ele>
        <time>2014-04-19T15:46:50.157Z</time>
      </trkpt>
      <trkpt lat="45.44441" lon="4.58002">
        <ele>545</ele>
        <time>2014-04-19T15:46:50.986Z</time>
      </trkpt>
      <trkpt lat="45.44441" lon="4.58002">
        <ele>545</ele>
        <time>2014-04-19T15:46:51.170Z</time>
      </trkpt>
      <trkpt lat="45.44448" lon="4.58009">
        <ele>544.7</ele>
        <time>2014-04-19T15:46:51.950Z</time>
      </trkpt>
      <trkpt lat="45.44448" lon="4.58009">
        <ele>544.7</ele>
        <time>2014-04-19T15:46:52.097Z</time>
      </trkpt>
      <trkpt lat="45.44457" lon="4.58017">
        <ele>543.9</ele>
        <time>2014-04-19T15:46:52.976Z</time>
      </trkpt>
      <trkpt lat="45.44457" lon="4.58017">
        <ele>543.9</ele>
        <time>2014-04-19T15:46:53.799Z</time>
      </trkpt>
      <trkpt lat="45.44467" lon="4.58027">
        <ele>543</ele>
        <time>2014-04-19T15:46:53.947Z</time>
      </trkpt>
      <trkpt lat="45.44467" lon="4.58027">
        <ele>543</ele>
        <time>2014-04-19T15:46:54.113Z</time>
      </trkpt>
      <trkpt lat="45.44475" lon="4.58036">
        <ele>542</ele>
        <time>2014-04-19T15:46:54.978Z</time>
      </trkpt>
      <trkpt lat="45.44475" lon="4.58036">
        <ele>542</ele>
        <time>2014-04-19T15:46:55.190Z</time>
      </trkpt>
      <trkpt lat="45.44483" lon="4.58046">
        <ele>541.2</ele>
        <time>2014-04-19T15:46:55.976Z</time>
      </trkpt>
      <trkpt lat="45.44483" lon="4.58046">
        <ele>541.2</ele>
        <time>2014-04-19T15:46:56.120Z</time>
      </trkpt>
      <trkpt lat="45.44492" lon="4.58057">
        <ele>540.4</ele>
        <time>2014-04-19T15:46:56.974Z</time>
      </trkpt>
      <trkpt lat="45.44492" lon="4.58057">
        <ele>540.4</ele>
        <time>2014-04-19T15:46:57.201Z</time>
      </trkpt>
      <trkpt lat="45.44499" lon="4.58068">
        <ele>539.8</ele>
        <time>2014-04-19T15:46:57.943Z</time>
      </trkpt>
      <trkpt lat="45.44499" lon="4.58068">
        <ele>539.8</ele>
        <time>2014-04-19T15:46:58.946Z</time>
      </trkpt>
      <trkpt lat="45.44507" lon="4.58079">
        <ele>539.3</ele>
        <time>2014-04-19T15:46:59.061Z</time>
      </trkpt>
      <trkpt lat="45.44507" lon="4.58079">
        <ele>539.3</ele>
        <time>2014-04-19T15:46:59.256Z</time>
      </trkpt>
      <trkpt lat="45.44515" lon="4.58089">
        <ele>538.6</ele>
        <time>2014-04-19T15:46:59.921Z</time>
      </trkpt>
      <trkpt lat="45.44515" lon="4.58089">
        <ele>538.6</ele>
        <time>2014-04-19T15:47:00.202Z</time>
      </trkpt>
      <trkpt lat="45.44523" lon="4.58098">
        <ele>537.7</ele>
        <time>2014-04-19T15:47:00.918Z</time>
      </trkpt>
      <trkpt lat="45.44523" lon="4.58098">
        <ele>537.7</ele>
        <time>2014-04-19T15:47:01.068Z</time>
      </trkpt>
      <trkpt lat="45.4453" lon="4.58108">
        <ele>537</ele>
        <time>2014-04-19T15:47:01.950Z</time>
      </trkpt>
      <trkpt lat="45.4453" lon="4.58108">
        <ele>537</ele>
        <time>2014-04-19T15:47:02.177Z</time>
      </trkpt>
      <trkpt lat="45.44539" lon="4.58119">
        <ele>536.5</ele>
        <time>2014-04-19T15:47:02.917Z</time>
      </trkpt>
      <trkpt lat="45.44539" lon="4.58119">
        <ele>536.5</ele>
        <time>2014-04-19T15:47:03.995Z</time>
      </trkpt>
      <trkpt lat="45.44548" lon="4.58132">
        <ele>536.2</ele>
        <time>2014-04-19T15:47:04.089Z</time>
      </trkpt>
      <trkpt lat="45.44548" lon="4.58132">
        <ele>536.2</ele>
        <time>2014-04-19T15:47:04.273Z</time>
      </trkpt>
      <trkpt lat="45.44557" lon="4.58145">
        <ele>535.9</ele>
        <time>2014-04-19T15:47:04.922Z</time>
      </trkpt>
      <trkpt lat="45.44557" lon="4.58145">
        <ele>535.9</ele>
        <time>2014-04-19T15:47:05.136Z</time>
      </trkpt>
      <trkpt lat="45.44566" lon="4.58157">
        <ele>535.4</ele>
        <time>2014-04-19T15:47:05.929Z</time>
      </trkpt>
      <trkpt lat="45.44566" lon="4.58157">
        <ele>535.4</ele>
        <time>2014-04-19T15:47:06.122Z</time>
      </trkpt>
      <trkpt lat="45.44573" lon="4.58168">
        <ele>535</ele>
        <time>2014-04-19T15:47:06.981Z</time>
      </trkpt>
      <trkpt lat="45.44573" lon="4.58168">
        <ele>535</ele>
        <time>2014-04-19T15:47:07.204Z</time>
      </trkpt>
      <trkpt lat="45.44579" lon="4.5818">
        <ele>534.5</ele>
        <time>2014-04-19T15:47:07.977Z</time>
      </trkpt>
      <trkpt lat="45.44579" lon="4.5818">
        <ele>534.5</ele>
        <time>2014-04-19T15:47:08.951Z</time>
      </trkpt>
      <trkpt lat="45.44584" lon="4.58191">
        <ele>534</ele>
        <time>2014-04-19T15:47:09.037Z</time>
      </trkpt>
      <trkpt lat="45.44584" lon="4.58191">
        <ele>534</ele>
        <time>2014-04-19T15:47:09.185Z</time>
      </trkpt>
      <trkpt lat="45.44589" lon="4.58204">
        <ele>533.1</ele>
        <time>2014-04-19T15:47:09.968Z</time>
      </trkpt>
      <trkpt lat="45.44589" lon="4.58204">
        <ele>533.1</ele>
        <time>2014-04-19T15:47:10.117Z</time>
      </trkpt>
      <trkpt lat="45.44591" lon="4.5822">
        <ele>532</ele>
        <time>2014-04-19T15:47:10.983Z</time>
      </trkpt>
      <trkpt lat="45.44591" lon="4.5822">
        <ele>532</ele>
        <time>2014-04-19T15:47:11.143Z</time>
      </trkpt>
      <trkpt lat="45.44592" lon="4.58237">
        <ele>530.7</ele>
        <time>2014-04-19T15:47:11.944Z</time>
      </trkpt>
      <trkpt lat="45.44592" lon="4.58237">
        <ele>530.7</ele>
        <time>2014-04-19T15:47:12.124Z</time>
      </trkpt>
      <trkpt lat="45.44593" lon="4.58254">
        <ele>529.4</ele>
        <time>2014-04-19T15:47:12.931Z</time>
      </trkpt>
      <trkpt lat="45.44593" lon="4.58254">
        <ele>529.4</ele>
        <time>2014-04-19T15:47:13.015Z</time>
      </trkpt>
      <trkpt lat="45.44594" lon="4.58269">
        <ele>528.4</ele>
        <time>2014-04-19T15:47:14.053Z</time>
      </trkpt>
      <trkpt lat="45.44594" lon="4.58269">
        <ele>528.4</ele>
        <time>2014-04-19T15:47:14.111Z</time>
      </trkpt>
      <trkpt lat="45.44595" lon="4.58283">
        <ele>527.7</ele>
        <time>2014-04-19T15:47:14.967Z</time>
      </trkpt>
      <trkpt lat="45.44597" lon="4.58296">
        <ele>527.1</ele>
        <time>2014-04-19T15:47:16.067Z</time>
      </trkpt>
      <trkpt lat="45.44599" lon="4.58307">
        <ele>526.6</ele>
        <time>2014-04-19T15:47:16.965Z</time>
      </trkpt>
      <trkpt lat="45.44605" lon="4.58315">
        <ele>526.1</ele>
        <time>2014-04-19T15:47:18.060Z</time>
      </trkpt>
      <trkpt lat="45.44611" lon="4.58323">
        <ele>525.5</ele>
        <time>2014-04-19T15:47:18.969Z</time>
      </trkpt>
      <trkpt lat="45.44617" lon="4.58331">
        <ele>524.8</ele>
        <time>2014-04-19T15:47:20.125Z</time>
      </trkpt>
      <trkpt lat="45.44626" lon="4.58337">
        <ele>524.2</ele>
        <time>2014-04-19T15:47:20.941Z</time>
      </trkpt>
      <trkpt lat="45.44626" lon="4.58337">
        <ele>524.2</ele>
        <time>2014-04-19T15:47:21.010Z</time>
      </trkpt>
      <trkpt lat="45.44635" lon="4.58342">
        <ele>523</ele>
        <time>2014-04-19T15:47:21.973Z</time>
      </trkpt>
      <trkpt lat="45.44635" lon="4.58342">
        <ele>523</ele>
        <time>2014-04-19T15:47:22.186Z</time>
      </trkpt>
      <trkpt lat="45.44643" lon="4.58347">
        <ele>521.5</ele>
        <time>2014-04-19T15:47:22.940Z</time>
      </trkpt>
      <trkpt lat="45.44652" lon="4.5835">
        <ele>520.3</ele>
        <time>2014-04-19T15:47:24.263Z</time>
      </trkpt>
      <trkpt lat="45.44659" lon="4.58353">
        <ele>519.5</ele>
        <time>2014-04-19T15:47:24.943Z</time>
      </trkpt>
      <trkpt lat="45.44668" lon="4.58355">
        <ele>518.8</ele>
        <time>2014-04-19T15:47:26.056Z</time>
      </trkpt>
      <trkpt lat="45.44676" lon="4.58357">
        <ele>518.2</ele>
        <time>2014-04-19T15:47:26.984Z</time>
      </trkpt>
      <trkpt lat="45.44683" lon="4.58359">
        <ele>517.7</ele>
        <time>2014-04-19T15:47:27.980Z</time>
      </trkpt>
      <trkpt lat="45.44689" lon="4.5836">
        <ele>517.2</ele>
        <time>2014-04-19T15:47:28.987Z</time>
      </trkpt>
      <trkpt lat="45.44695" lon="4.58359">
        <ele>516.8</ele>
        <time>2014-04-19T15:47:29.973Z</time>
      </trkpt>
      <trkpt lat="45.447" lon="4.58358">
        <ele>516.5</ele>
        <time>2014-04-19T15:47:30.991Z</time>
      </trkpt>
      <trkpt lat="45.44707" lon="4.58357">
        <ele>516.5</ele>
        <time>2014-04-19T15:47:32.063Z</time>
      </trkpt>
      <trkpt lat="45.44714" lon="4.58356">
        <ele>516.4</ele>
        <time>2014-04-19T15:47:32.970Z</time>
      </trkpt>
      <trkpt lat="45.44719" lon="4.58351">
        <ele>516</ele>
        <time>2014-04-19T15:47:34.526Z</time>
      </trkpt>
      <trkpt lat="45.44723" lon="4.58346">
        <ele>515.5</ele>
        <time>2014-04-19T15:47:34.957Z</time>
      </trkpt>
      <trkpt lat="45.44727" lon="4.58339">
        <ele>515.2</ele>
        <time>2014-04-19T15:47:36.022Z</time>
      </trkpt>
      <trkpt lat="45.44728" lon="4.58331">
        <ele>515.3</ele>
        <time>2014-04-19T15:47:36.968Z</time>
      </trkpt>
      <trkpt lat="45.4473" lon="4.58324">
        <ele>515.3</ele>
        <time>2014-04-19T15:47:37.995Z</time>
      </trkpt>
      <trkpt lat="45.4473" lon="4.58317">
        <ele>515.3</ele>
        <time>2014-04-19T15:47:39.053Z</time>
      </trkpt>
      <trkpt lat="45.44731" lon="4.5831">
        <ele>515.4</ele>
        <time>2014-04-19T15:47:39.946Z</time>
      </trkpt>
      <trkpt lat="45.44732" lon="4.58303">
        <ele>515.5</ele>
        <time>2014-04-19T15:47:40.962Z</time>
      </trkpt>
      <trkpt lat="45.44732" lon="4.58296">
        <ele>515.6</ele>
        <time>2014-04-19T15:47:41.980Z</time>
      </trkpt>
      <trkpt lat="45.44735" lon="4.58291">
        <ele>515.7</ele>
        <time>2014-04-19T15:47:43.021Z</time>
      </trkpt>
      <trkpt lat="45.44742" lon="4.58283">
        <ele>515.7</ele>
        <time>2014-04-19T15:47:45.282Z</time>
      </trkpt>
      <trkpt lat="45.44745" lon="4.58283">
        <ele>515.3</ele>
        <time>2014-04-19T15:47:45.984Z</time>
      </trkpt>
      <trkpt lat="45.4475" lon="4.58282">
        <ele>515</ele>
        <time>2014-04-19T15:47:47.080Z</time>
      </trkpt>
      <trkpt lat="45.44754" lon="4.58281">
        <ele>514.7</ele>
        <time>2014-04-19T15:47:47.984Z</time>
      </trkpt>
      <trkpt lat="45.44759" lon="4.5828">
        <ele>514.4</ele>
        <time>2014-04-19T15:47:49.958Z</time>
      </trkpt>
      <trkpt lat="45.44769" lon="4.58279">
        <ele>514</ele>
        <time>2014-04-19T15:47:50.986Z</time>
      </trkpt>
      <trkpt lat="45.44775" lon="4.58279">
        <ele>513.9</ele>
        <time>2014-04-19T15:47:52.061Z</time>
      </trkpt>
      <trkpt lat="45.4478" lon="4.58279">
        <ele>513.8</ele>
        <time>2014-04-19T15:47:52.972Z</time>
      </trkpt>
      <trkpt lat="45.44786" lon="4.58279">
        <ele>513.7</ele>
        <time>2014-04-19T15:47:53.972Z</time>
      </trkpt>
      <trkpt lat="45.44791" lon="4.5828">
        <ele>513.7</ele>
        <time>2014-04-19T15:47:54.934Z</time>
      </trkpt>
      <trkpt lat="45.44796" lon="4.5828">
        <ele>513.7</ele>
        <time>2014-04-19T15:47:56.075Z</time>
      </trkpt>
      <trkpt lat="45.44801" lon="4.5828">
        <ele>514</ele>
        <time>2014-04-19T15:47:56.969Z</time>
      </trkpt>
      <trkpt lat="45.44807" lon="4.58281">
        <ele>514.2</ele>
        <time>2014-04-19T15:47:58.062Z</time>
      </trkpt>
      <trkpt lat="45.44812" lon="4.58282">
        <ele>514.5</ele>
        <time>2014-04-19T15:47:59.016Z</time>
      </trkpt>
      <trkpt lat="45.44818" lon="4.58283">
        <ele>514.5</ele>
        <time>2014-04-19T15:48:00.123Z</time>
      </trkpt>
      <trkpt lat="45.44824" lon="4.58285">
        <ele>514.2</ele>
        <time>2014-04-19T15:48:00.992Z</time>
      </trkpt>
      <trkpt lat="45.4483" lon="4.58287">
        <ele>513.7</ele>
        <time>2014-04-19T15:48:02.014Z</time>
      </trkpt>
      <trkpt lat="45.44835" lon="4.5829">
        <ele>513.6</ele>
        <time>2014-04-19T15:48:03.075Z</time>
      </trkpt>
      <trkpt lat="45.44842" lon="4.58294">
        <ele>514.2</ele>
        <time>2014-04-19T15:48:03.970Z</time>
      </trkpt>
      <trkpt lat="45.44847" lon="4.58298">
        <ele>514.6</ele>
        <time>2014-04-19T15:48:04.992Z</time>
      </trkpt>
      <trkpt lat="45.44853" lon="4.58302">
        <ele>514.9</ele>
        <time>2014-04-19T15:48:06.079Z</time>
      </trkpt>
      <trkpt lat="45.44859" lon="4.58307">
        <ele>515.1</ele>
        <time>2014-04-19T15:48:06.989Z</time>
      </trkpt>
      <trkpt lat="45.44864" lon="4.58311">
        <ele>515</ele>
        <time>2014-04-19T15:48:08.895Z</time>
      </trkpt>
      <trkpt lat="45.44869" lon="4.58315">
        <ele>515.1</ele>
        <time>2014-04-19T15:48:09.020Z</time>
      </trkpt>
      <trkpt lat="45.44875" lon="4.58317">
        <ele>515</ele>
        <time>2014-04-19T15:48:10.057Z</time>
      </trkpt>
      <trkpt lat="45.44881" lon="4.58318">
        <ele>514.8</ele>
        <time>2014-04-19T15:48:10.972Z</time>
      </trkpt>
      <trkpt lat="45.44887" lon="4.58317">
        <ele>514.6</ele>
        <time>2014-04-19T15:48:12.047Z</time>
      </trkpt>
      <trkpt lat="45.44894" lon="4.58316">
        <ele>514.4</ele>
        <time>2014-04-19T15:48:12.939Z</time>
      </trkpt>
      <trkpt lat="45.449" lon="4.58314">
        <ele>514.2</ele>
        <time>2014-04-19T15:48:14.271Z</time>
      </trkpt>
      <trkpt lat="45.44905" lon="4.58311">
        <ele>514</ele>
        <time>2014-04-19T15:48:14.975Z</time>
      </trkpt>
      <trkpt lat="45.44911" lon="4.58308">
        <ele>513.8</ele>
        <time>2014-04-19T15:48:16.204Z</time>
      </trkpt>
      <trkpt lat="45.44917" lon="4.58305">
        <ele>513.7</ele>
        <time>2014-04-19T15:48:16.990Z</time>
      </trkpt>
      <trkpt lat="45.44923" lon="4.58301">
        <ele>513.8</ele>
        <time>2014-04-19T15:48:19.077Z</time>
      </trkpt>
      <trkpt lat="45.44934" lon="4.58294">
        <ele>514</ele>
        <time>2014-04-19T15:48:19.934Z</time>
      </trkpt>
      <trkpt lat="45.4494" lon="4.58291">
        <ele>514.2</ele>
        <time>2014-04-19T15:48:21.006Z</time>
      </trkpt>
      <trkpt lat="45.44945" lon="4.58287">
        <ele>514.2</ele>
        <time>2014-04-19T15:48:21.964Z</time>
      </trkpt>
      <trkpt lat="45.44951" lon="4.58283">
        <ele>514.4</ele>
        <time>2014-04-19T15:48:23.048Z</time>
      </trkpt>
      <trkpt lat="45.44957" lon="4.5828">
        <ele>514.5</ele>
        <time>2014-04-19T15:48:24.042Z</time>
      </trkpt>
      <trkpt lat="45.44963" lon="4.58276">
        <ele>514.3</ele>
        <time>2014-04-19T15:48:24.973Z</time>
      </trkpt>
      <trkpt lat="45.44969" lon="4.58273">
        <ele>514.2</ele>
        <time>2014-04-19T15:48:25.995Z</time>
      </trkpt>
      <trkpt lat="45.44975" lon="4.58269">
        <ele>514.1</ele>
        <time>2014-04-19T15:48:27.101Z</time>
      </trkpt>
      <trkpt lat="45.44981" lon="4.58267">
        <ele>514</ele>
        <time>2014-04-19T15:48:27.944Z</time>
      </trkpt>
      <trkpt lat="45.44986" lon="4.58267">
        <ele>513.5</ele>
        <time>2014-04-19T15:48:29.132Z</time>
      </trkpt>
      <trkpt lat="45.44992" lon="4.58267">
        <ele>513.3</ele>
        <time>2014-04-19T15:48:29.923Z</time>
      </trkpt>
      <trkpt lat="45.44998" lon="4.5827">
        <ele>513.4</ele>
        <time>2014-04-19T15:48:31.064Z</time>
      </trkpt>
      <trkpt lat="45.45004" lon="4.58274">
        <ele>513.8</ele>
        <time>2014-04-19T15:48:31.965Z</time>
      </trkpt>
      <trkpt lat="45.4501" lon="4.58278">
        <ele>513.9</ele>
        <time>2014-04-19T15:48:32.971Z</time>
      </trkpt>
      <trkpt lat="45.45016" lon="4.58286">
        <ele>513.9</ele>
        <time>2014-04-19T15:48:33.978Z</time>
      </trkpt>
      <trkpt lat="45.45022" lon="4.58292">
        <ele>514.3</ele>
        <time>2014-04-19T15:48:35.049Z</time>
      </trkpt>
      <trkpt lat="45.45027" lon="4.58298">
        <ele>514.8</ele>
        <time>2014-04-19T15:48:35.981Z</time>
      </trkpt>
      <trkpt lat="45.45033" lon="4.58302">
        <ele>515.3</ele>
        <time>2014-04-19T15:48:37.066Z</time>
      </trkpt>
      <trkpt lat="45.45038" lon="4.58305">
        <ele>515.7</ele>
        <time>2014-04-19T15:48:38.062Z</time>
      </trkpt>
      <trkpt lat="45.45045" lon="4.58305">
        <ele>516</ele>
        <time>2014-04-19T15:48:39.171Z</time>
      </trkpt>
      <trkpt lat="45.45051" lon="4.58305">
        <ele>516.1</ele>
        <time>2014-04-19T15:48:39.982Z</time>
      </trkpt>
      <trkpt lat="45.45058" lon="4.58304">
        <ele>516.2</ele>
        <time>2014-04-19T15:48:41.023Z</time>
      </trkpt>
      <trkpt lat="45.45065" lon="4.58303">
        <ele>516.1</ele>
        <time>2014-04-19T15:48:41.936Z</time>
      </trkpt>
      <trkpt lat="45.45072" lon="4.58302">
        <ele>515.7</ele>
        <time>2014-04-19T15:48:43.106Z</time>
      </trkpt>
      <trkpt lat="45.45079" lon="4.583">
        <ele>515.1</ele>
        <time>2014-04-19T15:48:43.965Z</time>
      </trkpt>
      <trkpt lat="45.45086" lon="4.58297">
        <ele>514.6</ele>
        <time>2014-04-19T15:48:44.973Z</time>
      </trkpt>
      <trkpt lat="45.45092" lon="4.58294">
        <ele>514.1</ele>
        <time>2014-04-19T15:48:45.995Z</time>
      </trkpt>
      <trkpt lat="45.45097" lon="4.58289">
        <ele>513.6</ele>
        <time>2014-04-19T15:48:46.986Z</time>
      </trkpt>
      <trkpt lat="45.45103" lon="4.58284">
        <ele>513.1</ele>
        <time>2014-04-19T15:48:47.937Z</time>
      </trkpt>
      <trkpt lat="45.45107" lon="4.58279">
        <ele>512.6</ele>
        <time>2014-04-19T15:48:49.247Z</time>
      </trkpt>
      <trkpt lat="45.45112" lon="4.58273">
        <ele>512.1</ele>
        <time>2014-04-19T15:48:49.963Z</time>
      </trkpt>
      <trkpt lat="45.45117" lon="4.58266">
        <ele>511.7</ele>
        <time>2014-04-19T15:48:51.044Z</time>
      </trkpt>
      <trkpt lat="45.45123" lon="4.58259">
        <ele>511.5</ele>
        <time>2014-04-19T15:48:51.986Z</time>
      </trkpt>
      <trkpt lat="45.45128" lon="4.58252">
        <ele>511.3</ele>
        <time>2014-04-19T15:48:53.818Z</time>
      </trkpt>
      <trkpt lat="45.45132" lon="4.58244">
        <ele>511.1</ele>
        <time>2014-04-19T15:48:53.959Z</time>
      </trkpt>
      <trkpt lat="45.45137" lon="4.58238">
        <ele>510.9</ele>
        <time>2014-04-19T15:48:55.033Z</time>
      </trkpt>
      <trkpt lat="45.45142" lon="4.58232">
        <ele>510.7</ele>
        <time>2014-04-19T15:48:55.967Z</time>
      </trkpt>
      <trkpt lat="45.45147" lon="4.58228">
        <ele>510.7</ele>
        <time>2014-04-19T15:48:57.051Z</time>
      </trkpt>
      <trkpt lat="45.45153" lon="4.58224">
        <ele>510.6</ele>
        <time>2014-04-19T15:48:57.947Z</time>
      </trkpt>
      <trkpt lat="45.45159" lon="4.5822">
        <ele>510.8</ele>
        <time>2014-04-19T15:48:58.981Z</time>
      </trkpt>
      <trkpt lat="45.45166" lon="4.58218">
        <ele>511.3</ele>
        <time>2014-04-19T15:48:59.968Z</time>
      </trkpt>
      <trkpt lat="45.45174" lon="4.58217">
        <ele>511.7</ele>
        <time>2014-04-19T15:49:01.061Z</time>
      </trkpt>
      <trkpt lat="45.45182" lon="4.58217">
        <ele>512</ele>
        <time>2014-04-19T15:49:01.942Z</time>
      </trkpt>
      <trkpt lat="45.45189" lon="4.58217">
        <ele>512.3</ele>
        <time>2014-04-19T15:49:03.967Z</time>
      </trkpt>
      <trkpt lat="45.45196" lon="4.58217">
        <ele>512.4</ele>
        <time>2014-04-19T15:49:04.052Z</time>
      </trkpt>
      <trkpt lat="45.45202" lon="4.58218">
        <ele>512.8</ele>
        <time>2014-04-19T15:49:05.138Z</time>
      </trkpt>
      <trkpt lat="45.45209" lon="4.58218">
        <ele>513</ele>
        <time>2014-04-19T15:49:05.974Z</time>
      </trkpt>
      <trkpt lat="45.45215" lon="4.58219">
        <ele>513.2</ele>
        <time>2014-04-19T15:49:07.053Z</time>
      </trkpt>
      <trkpt lat="45.45221" lon="4.5822">
        <ele>513</ele>
        <time>2014-04-19T15:49:07.986Z</time>
      </trkpt>
      <trkpt lat="45.45228" lon="4.58222">
        <ele>512.9</ele>
        <time>2014-04-19T15:49:09.110Z</time>
      </trkpt>
      <trkpt lat="45.45234" lon="4.58223">
        <ele>512.6</ele>
        <time>2014-04-19T15:49:09.996Z</time>
      </trkpt>
      <trkpt lat="45.45239" lon="4.58225">
        <ele>512.3</ele>
        <time>2014-04-19T15:49:11.025Z</time>
      </trkpt>
      <trkpt lat="45.45244" lon="4.58226">
        <ele>512</ele>
        <time>2014-04-19T15:49:11.996Z</time>
      </trkpt>
      <trkpt lat="45.45249" lon="4.58228">
        <ele>511.9</ele>
        <time>2014-04-19T15:49:12.972Z</time>
      </trkpt>
      <trkpt lat="45.45254" lon="4.5823">
        <ele>511.8</ele>
        <time>2014-04-19T15:49:13.978Z</time>
      </trkpt>
      <trkpt lat="45.45259" lon="4.58232">
        <ele>511.7</ele>
        <time>2014-04-19T15:49:14.983Z</time>
      </trkpt>
      <trkpt lat="45.45265" lon="4.58234">
        <ele>511.4</ele>
        <time>2014-04-19T15:49:16.002Z</time>
      </trkpt>
      <trkpt lat="45.4527" lon="4.58235">
        <ele>511.5</ele>
        <time>2014-04-19T15:49:17.022Z</time>
      </trkpt>
      <trkpt lat="45.45277" lon="4.58237">
        <ele>511.3</ele>
        <time>2014-04-19T15:49:17.945Z</time>
      </trkpt>
      <trkpt lat="45.45283" lon="4.58239">
        <ele>510.8</ele>
        <time>2014-04-19T15:49:19.247Z</time>
      </trkpt>
      <trkpt lat="45.45289" lon="4.5824">
        <ele>510.6</ele>
        <time>2014-04-19T15:49:19.970Z</time>
      </trkpt>
      <trkpt lat="45.45296" lon="4.5824">
        <ele>510.2</ele>
        <time>2014-04-19T15:49:21.114Z</time>
      </trkpt>
      <trkpt lat="45.45302" lon="4.58238">
        <ele>509.6</ele>
        <time>2014-04-19T15:49:21.992Z</time>
      </trkpt>
      <trkpt lat="45.45308" lon="4.58236">
        <ele>509.4</ele>
        <time>2014-04-19T15:49:23.008Z</time>
      </trkpt>
      <trkpt lat="45.45313" lon="4.58233">
        <ele>509.4</ele>
        <time>2014-04-19T15:49:23.989Z</time>
      </trkpt>
      <trkpt lat="45.45319" lon="4.58226">
        <ele>509.4</ele>
        <time>2014-04-19T15:49:25.005Z</time>
      </trkpt>
      <trkpt lat="45.45324" lon="4.58219">
        <ele>509.4</ele>
        <time>2014-04-19T15:49:25.933Z</time>
      </trkpt>
      <trkpt lat="45.45329" lon="4.58211">
        <ele>509.5</ele>
        <time>2014-04-19T15:49:26.987Z</time>
      </trkpt>
      <trkpt lat="45.45333" lon="4.58202">
        <ele>509.4</ele>
        <time>2014-04-19T15:49:27.958Z</time>
      </trkpt>
      <trkpt lat="45.45336" lon="4.58194">
        <ele>509.2</ele>
        <time>2014-04-19T15:49:29.694Z</time>
      </trkpt>
      <trkpt lat="45.45338" lon="4.58185">
        <ele>509</ele>
        <time>2014-04-19T15:49:29.945Z</time>
      </trkpt>
      <trkpt lat="45.4534" lon="4.58175">
        <ele>508.8</ele>
        <time>2014-04-19T15:49:31.064Z</time>
      </trkpt>
      <trkpt lat="45.45342" lon="4.58165">
        <ele>508.5</ele>
        <time>2014-04-19T15:49:31.982Z</time>
      </trkpt>
      <trkpt lat="45.45344" lon="4.58155">
        <ele>508.1</ele>
        <time>2014-04-19T15:49:33.299Z</time>
      </trkpt>
      <trkpt lat="45.45345" lon="4.58146">
        <ele>507.5</ele>
        <time>2014-04-19T15:49:33.971Z</time>
      </trkpt>
      <trkpt lat="45.45346" lon="4.58136">
        <ele>506.8</ele>
        <time>2014-04-19T15:49:34.999Z</time>
      </trkpt>
      <trkpt lat="45.45347" lon="4.58126">
        <ele>506.1</ele>
        <time>2014-04-19T15:49:35.944Z</time>
      </trkpt>
      <trkpt lat="45.45348" lon="4.58116">
        <ele>505.5</ele>
        <time>2014-04-19T15:49:36.997Z</time>
      </trkpt>
      <trkpt lat="45.45349" lon="4.58106">
        <ele>505</ele>
        <time>2014-04-19T15:49:37.977Z</time>
      </trkpt>
      <trkpt lat="45.45351" lon="4.58095">
        <ele>505.1</ele>
        <time>2014-04-19T15:49:39.423Z</time>
      </trkpt>
      <trkpt lat="45.45352" lon="4.58084">
        <ele>505.8</ele>
        <time>2014-04-19T15:49:39.942Z</time>
      </trkpt>
      <trkpt lat="45.45354" lon="4.58075">
        <ele>506.5</ele>
        <time>2014-04-19T15:49:40.981Z</time>
      </trkpt>
      <trkpt lat="45.45357" lon="4.58065">
        <ele>506.9</ele>
        <time>2014-04-19T15:49:41.932Z</time>
      </trkpt>
      <trkpt lat="45.45362" lon="4.58058">
        <ele>507.3</ele>
        <time>2014-04-19T15:49:43.156Z</time>
      </trkpt>
      <trkpt lat="45.45369" lon="4.58055">
        <ele>508.3</ele>
        <time>2014-04-19T15:49:43.931Z</time>
      </trkpt>
      <trkpt lat="45.45376" lon="4.58053">
        <ele>509.1</ele>
        <time>2014-04-19T15:49:44.981Z</time>
      </trkpt>
      <trkpt lat="45.45384" lon="4.58056">
        <ele>510</ele>
        <time>2014-04-19T15:49:45.987Z</time>
      </trkpt>
      <trkpt lat="45.45391" lon="4.58059">
        <ele>510.6</ele>
        <time>2014-04-19T15:49:46.971Z</time>
      </trkpt>
      <trkpt lat="45.45398" lon="4.58064">
        <ele>510.7</ele>
        <time>2014-04-19T15:49:47.970Z</time>
      </trkpt>
      <trkpt lat="45.45405" lon="4.58069">
        <ele>510.8</ele>
        <time>2014-04-19T15:49:49.599Z</time>
      </trkpt>
      <trkpt lat="45.45412" lon="4.58074">
        <ele>510.8</ele>
        <time>2014-04-19T15:49:49.931Z</time>
      </trkpt>
      <trkpt lat="45.45418" lon="4.5808">
        <ele>510.7</ele>
        <time>2014-04-19T15:49:51.024Z</time>
      </trkpt>
      <trkpt lat="45.45425" lon="4.58087">
        <ele>510.6</ele>
        <time>2014-04-19T15:49:51.934Z</time>
      </trkpt>
      <trkpt lat="45.45432" lon="4.58093">
        <ele>510.5</ele>
        <time>2014-04-19T15:49:53.766Z</time>
      </trkpt>
      <trkpt lat="45.45439" lon="4.581">
        <ele>510.3</ele>
        <time>2014-04-19T15:49:53.936Z</time>
      </trkpt>
      <trkpt lat="45.45446" lon="4.58106">
        <ele>509.8</ele>
        <time>2014-04-19T15:49:54.985Z</time>
      </trkpt>
      <trkpt lat="45.45453" lon="4.58112">
        <ele>509.3</ele>
        <time>2014-04-19T15:49:55.979Z</time>
      </trkpt>
      <trkpt lat="45.4546" lon="4.58118">
        <ele>508.6</ele>
        <time>2014-04-19T15:49:57.050Z</time>
      </trkpt>
      <trkpt lat="45.45466" lon="4.58124">
        <ele>508.3</ele>
        <time>2014-04-19T15:49:57.970Z</time>
      </trkpt>
      <trkpt lat="45.45473" lon="4.58129">
        <ele>508.1</ele>
        <time>2014-04-19T15:49:59.313Z</time>
      </trkpt>
      <trkpt lat="45.4548" lon="4.58133">
        <ele>508.1</ele>
        <time>2014-04-19T15:49:59.942Z</time>
      </trkpt>
      <trkpt lat="45.45487" lon="4.58138">
        <ele>508.1</ele>
        <time>2014-04-19T15:50:01.023Z</time>
      </trkpt>
      <trkpt lat="45.45495" lon="4.58142">
        <ele>507.9</ele>
        <time>2014-04-19T15:50:01.943Z</time>
      </trkpt>
      <trkpt lat="45.45502" lon="4.58147">
        <ele>507.6</ele>
        <time>2014-04-19T15:50:03.008Z</time>
      </trkpt>
      <trkpt lat="45.4551" lon="4.58151">
        <ele>507.2</ele>
        <time>2014-04-19T15:50:03.963Z</time>
      </trkpt>
      <trkpt lat="45.45518" lon="4.58155">
        <ele>506.9</ele>
        <time>2014-04-19T15:50:04.971Z</time>
      </trkpt>
      <trkpt lat="45.45525" lon="4.58158">
        <ele>506.7</ele>
        <time>2014-04-19T15:50:05.968Z</time>
      </trkpt>
      <trkpt lat="45.45532" lon="4.58161">
        <ele>506.4</ele>
        <time>2014-04-19T15:50:07.003Z</time>
      </trkpt>
      <trkpt lat="45.45541" lon="4.58164">
        <ele>506.1</ele>
        <time>2014-04-19T15:50:07.949Z</time>
      </trkpt>
      <trkpt lat="45.45549" lon="4.58166">
        <ele>505.7</ele>
        <time>2014-04-19T15:50:09.425Z</time>
      </trkpt>
      <trkpt lat="45.45557" lon="4.58168">
        <ele>505.4</ele>
        <time>2014-04-19T15:50:09.970Z</time>
      </trkpt>
      <trkpt lat="45.45564" lon="4.58169">
        <ele>505.1</ele>
        <time>2014-04-19T15:50:11.073Z</time>
      </trkpt>
      <trkpt lat="45.45572" lon="4.5817">
        <ele>504.8</ele>
        <time>2014-04-19T15:50:11.942Z</time>
      </trkpt>
      <trkpt lat="45.4558" lon="4.58169">
        <ele>504.7</ele>
        <time>2014-04-19T15:50:13.441Z</time>
      </trkpt>
      <trkpt lat="45.45588" lon="4.58169">
        <ele>504.6</ele>
        <time>2014-04-19T15:50:13.940Z</time>
      </trkpt>
      <trkpt lat="45.45596" lon="4.58168">
        <ele>504.6</ele>
        <time>2014-04-19T15:50:14.973Z</time>
      </trkpt>
      <trkpt lat="45.45605" lon="4.58166">
        <ele>504.5</ele>
        <time>2014-04-19T15:50:15.991Z</time>
      </trkpt>
      <trkpt lat="45.45613" lon="4.58164">
        <ele>504.3</ele>
        <time>2014-04-19T15:50:17.012Z</time>
      </trkpt>
      <trkpt lat="45.45621" lon="4.58161">
        <ele>504.1</ele>
        <time>2014-04-19T15:50:18.001Z</time>
      </trkpt>
      <trkpt lat="45.45628" lon="4.58159">
        <ele>504</ele>
        <time>2014-04-19T15:50:19.907Z</time>
      </trkpt>
      <trkpt lat="45.45636" lon="4.58157">
        <ele>503.8</ele>
        <time>2014-04-19T15:50:20.119Z</time>
      </trkpt>
      <trkpt lat="45.45643" lon="4.58156">
        <ele>503.8</ele>
        <time>2014-04-19T15:50:21.052Z</time>
      </trkpt>
      <trkpt lat="45.45651" lon="4.58155">
        <ele>503.8</ele>
        <time>2014-04-19T15:50:21.961Z</time>
      </trkpt>
      <trkpt lat="45.45659" lon="4.58155">
        <ele>503.9</ele>
        <time>2014-04-19T15:50:23.184Z</time>
      </trkpt>
      <trkpt lat="45.45667" lon="4.58156">
        <ele>503.9</ele>
        <time>2014-04-19T15:50:24.036Z</time>
      </trkpt>
      <trkpt lat="45.45675" lon="4.58158">
        <ele>504</ele>
        <time>2014-04-19T15:50:24.948Z</time>
      </trkpt>
      <trkpt lat="45.45682" lon="4.5816">
        <ele>503.8</ele>
        <time>2014-04-19T15:50:25.984Z</time>
      </trkpt>
      <trkpt lat="45.45689" lon="4.58163">
        <ele>503.6</ele>
        <time>2014-04-19T15:50:27.044Z</time>
      </trkpt>
      <trkpt lat="45.45697" lon="4.58166">
        <ele>503.5</ele>
        <time>2014-04-19T15:50:28.005Z</time>
      </trkpt>
      <trkpt lat="45.45697" lon="4.58166">
        <ele>503.5</ele>
        <time>2014-04-19T15:50:28.426Z</time>
      </trkpt>
      <trkpt lat="45.45705" lon="4.58171">
        <ele>503.8</ele>
        <time>2014-04-19T15:50:28.941Z</time>
      </trkpt>
      <trkpt lat="45.45705" lon="4.58171">
        <ele>503.8</ele>
        <time>2014-04-19T15:50:29.593Z</time>
      </trkpt>
      <trkpt lat="45.45714" lon="4.58176">
        <ele>504.1</ele>
        <time>2014-04-19T15:50:29.939Z</time>
      </trkpt>
      <trkpt lat="45.45722" lon="4.58181">
        <ele>504.3</ele>
        <time>2014-04-19T15:50:31.073Z</time>
      </trkpt>
      <trkpt lat="45.4573" lon="4.58186">
        <ele>504.5</ele>
        <time>2014-04-19T15:50:31.966Z</time>
      </trkpt>
      <trkpt lat="45.45738" lon="4.58191">
        <ele>504.6</ele>
        <time>2014-04-19T15:50:33.283Z</time>
      </trkpt>
      <trkpt lat="45.45746" lon="4.58196">
        <ele>504.6</ele>
        <time>2014-04-19T15:50:33.996Z</time>
      </trkpt>
      <trkpt lat="45.45746" lon="4.58196">
        <ele>504.6</ele>
        <time>2014-04-19T15:50:34.622Z</time>
      </trkpt>
      <trkpt lat="45.45754" lon="4.58201">
        <ele>504.6</ele>
        <time>2014-04-19T15:50:34.932Z</time>
      </trkpt>
      <trkpt lat="45.45762" lon="4.58207">
        <ele>504.4</ele>
        <time>2014-04-19T15:50:36.069Z</time>
      </trkpt>
      <trkpt lat="45.45769" lon="4.58212">
        <ele>504.2</ele>
        <time>2014-04-19T15:50:36.946Z</time>
      </trkpt>
      <trkpt lat="45.45777" lon="4.58216">
        <ele>503.9</ele>
        <time>2014-04-19T15:50:38.049Z</time>
      </trkpt>
      <trkpt lat="45.45784" lon="4.58221">
        <ele>503.7</ele>
        <time>2014-04-19T15:50:38.976Z</time>
      </trkpt>
      <trkpt lat="45.45792" lon="4.58225">
        <ele>503.7</ele>
        <time>2014-04-19T15:50:39.983Z</time>
      </trkpt>
      <trkpt lat="45.458" lon="4.5823">
        <ele>503.4</ele>
        <time>2014-04-19T15:50:40.976Z</time>
      </trkpt>
      <trkpt lat="45.45807" lon="4.58235">
        <ele>503.1</ele>
        <time>2014-04-19T15:50:41.950Z</time>
      </trkpt>
      <trkpt lat="45.45815" lon="4.5824">
        <ele>502.8</ele>
        <time>2014-04-19T15:50:42.967Z</time>
      </trkpt>
      <trkpt lat="45.45823" lon="4.58245">
        <ele>502.6</ele>
        <time>2014-04-19T15:50:44.736Z</time>
      </trkpt>
      <trkpt lat="45.45831" lon="4.5825">
        <ele>502.5</ele>
        <time>2014-04-19T15:50:44.943Z</time>
      </trkpt>
      <trkpt lat="45.45839" lon="4.58255">
        <ele>502.3</ele>
        <time>2014-04-19T15:50:46.043Z</time>
      </trkpt>
      <trkpt lat="45.45847" lon="4.58259">
        <ele>502</ele>
        <time>2014-04-19T15:50:46.987Z</time>
      </trkpt>
      <trkpt lat="45.45855" lon="4.58262">
        <ele>501.8</ele>
        <time>2014-04-19T15:50:48.223Z</time>
      </trkpt>
      <trkpt lat="45.45863" lon="4.58265">
        <ele>501.6</ele>
        <time>2014-04-19T15:50:48.986Z</time>
      </trkpt>
      <trkpt lat="45.45871" lon="4.58267">
        <ele>501.5</ele>
        <time>2014-04-19T15:50:49.969Z</time>
      </trkpt>
      <trkpt lat="45.45879" lon="4.58268">
        <ele>501.6</ele>
        <time>2014-04-19T15:50:50.986Z</time>
      </trkpt>
      <trkpt lat="45.45887" lon="4.58269">
        <ele>501.5</ele>
        <time>2014-04-19T15:50:52.080Z</time>
      </trkpt>
      <trkpt lat="45.45895" lon="4.58269">
        <ele>501.4</ele>
        <time>2014-04-19T15:50:52.984Z</time>
      </trkpt>
      <trkpt lat="45.45904" lon="4.58269">
        <ele>501.4</ele>
        <time>2014-04-19T15:50:54.058Z</time>
      </trkpt>
      <trkpt lat="45.45912" lon="4.58268">
        <ele>501.4</ele>
        <time>2014-04-19T15:50:55.035Z</time>
      </trkpt>
      <trkpt lat="45.45921" lon="4.58267">
        <ele>501.3</ele>
        <time>2014-04-19T15:50:55.968Z</time>
      </trkpt>
      <trkpt lat="45.45929" lon="4.58267">
        <ele>501.2</ele>
        <time>2014-04-19T15:50:57.032Z</time>
      </trkpt>
      <trkpt lat="45.45938" lon="4.58266">
        <ele>501.1</ele>
        <time>2014-04-19T15:50:58.811Z</time>
      </trkpt>
      <trkpt lat="45.45947" lon="4.58265">
        <ele>500.9</ele>
        <time>2014-04-19T15:50:58.965Z</time>
      </trkpt>
      <trkpt lat="45.45955" lon="4.58264">
        <ele>500.6</ele>
        <time>2014-04-19T15:51:00.228Z</time>
      </trkpt>
      <trkpt lat="45.45963" lon="4.58263">
        <ele>500.4</ele>
        <time>2014-04-19T15:51:01.001Z</time>
      </trkpt>
      <trkpt lat="45.45971" lon="4.58262">
        <ele>500.4</ele>
        <time>2014-04-19T15:51:02.068Z</time>
      </trkpt>
      <trkpt lat="45.45978" lon="4.58261">
        <ele>500.7</ele>
        <time>2014-04-19T15:51:02.978Z</time>
      </trkpt>
      <trkpt lat="45.45986" lon="4.5826">
        <ele>501.1</ele>
        <time>2014-04-19T15:51:04.087Z</time>
      </trkpt>
      <trkpt lat="45.45993" lon="4.58259">
        <ele>501.2</ele>
        <time>2014-04-19T15:51:04.982Z</time>
      </trkpt>
      <trkpt lat="45.46001" lon="4.58259">
        <ele>501.1</ele>
        <time>2014-04-19T15:51:06.079Z</time>
      </trkpt>
      <trkpt lat="45.4601" lon="4.58258">
        <ele>500.9</ele>
        <time>2014-04-19T15:51:06.986Z</time>
      </trkpt>
      <trkpt lat="45.46018" lon="4.58258">
        <ele>500.7</ele>
        <time>2014-04-19T15:51:08.388Z</time>
      </trkpt>
      <trkpt lat="45.46026" lon="4.58258">
        <ele>500.5</ele>
        <time>2014-04-19T15:51:09.008Z</time>
      </trkpt>
      <trkpt lat="45.46034" lon="4.58258">
        <ele>500.4</ele>
        <time>2014-04-19T15:51:10.037Z</time>
      </trkpt>
      <trkpt lat="45.46042" lon="4.58258">
        <ele>500.2</ele>
        <time>2014-04-19T15:51:10.986Z</time>
      </trkpt>
      <trkpt lat="45.4605" lon="4.58259">
        <ele>500.1</ele>
        <time>2014-04-19T15:51:12.016Z</time>
      </trkpt>
      <trkpt lat="45.46058" lon="4.5826">
        <ele>500</ele>
        <time>2014-04-19T15:51:12.939Z</time>
      </trkpt>
      <trkpt lat="45.46066" lon="4.58261">
        <ele>499.9</ele>
        <time>2014-04-19T15:51:14.116Z</time>
      </trkpt>
      <trkpt lat="45.46074" lon="4.58262">
        <ele>499.9</ele>
        <time>2014-04-19T15:51:14.979Z</time>
      </trkpt>
      <trkpt lat="45.46082" lon="4.58264">
        <ele>499.9</ele>
        <time>2014-04-19T15:51:16.496Z</time>
      </trkpt>
      <trkpt lat="45.4609" lon="4.58266">
        <ele>499.9</ele>
        <time>2014-04-19T15:51:16.979Z</time>
      </trkpt>
      <trkpt lat="45.46098" lon="4.58268">
        <ele>499.9</ele>
        <time>2014-04-19T15:51:18.095Z</time>
      </trkpt>
      <trkpt lat="45.46106" lon="4.5827">
        <ele>499.8</ele>
        <time>2014-04-19T15:51:18.986Z</time>
      </trkpt>
      <trkpt lat="45.46114" lon="4.58272">
        <ele>499.9</ele>
        <time>2014-04-19T15:51:20.073Z</time>
      </trkpt>
      <trkpt lat="45.46122" lon="4.58275">
        <ele>500.2</ele>
        <time>2014-04-19T15:51:20.942Z</time>
      </trkpt>
      <trkpt lat="45.4613" lon="4.58277">
        <ele>500.4</ele>
        <time>2014-04-19T15:51:22.055Z</time>
      </trkpt>
      <trkpt lat="45.46139" lon="4.5828">
        <ele>500.5</ele>
        <time>2014-04-19T15:51:22.980Z</time>
      </trkpt>
      <trkpt lat="45.46146" lon="4.58283">
        <ele>500.7</ele>
        <time>2014-04-19T15:51:24.485Z</time>
      </trkpt>
      <trkpt lat="45.46154" lon="4.58287">
        <ele>500.7</ele>
        <time>2014-04-19T15:51:24.944Z</time>
      </trkpt>
      <trkpt lat="45.46162" lon="4.58291">
        <ele>500.7</ele>
        <time>2014-04-19T15:51:26.048Z</time>
      </trkpt>
      <trkpt lat="45.4617" lon="4.58294">
        <ele>500.6</ele>
        <time>2014-04-19T15:51:26.976Z</time>
      </trkpt>
      <trkpt lat="45.4617" lon="4.58294">
        <ele>500.6</ele>
        <time>2014-04-19T15:51:27.162Z</time>
      </trkpt>
      <trkpt lat="45.46179" lon="4.58299">
        <ele>500.6</ele>
        <time>2014-04-19T15:51:27.957Z</time>
      </trkpt>
      <trkpt lat="45.46187" lon="4.58302">
        <ele>500.4</ele>
        <time>2014-04-19T15:51:29.257Z</time>
      </trkpt>
      <trkpt lat="45.46195" lon="4.58306">
        <ele>500.1</ele>
        <time>2014-04-19T15:51:29.993Z</time>
      </trkpt>
      <trkpt lat="45.46203" lon="4.58309">
        <ele>499.8</ele>
        <time>2014-04-19T15:51:31.035Z</time>
      </trkpt>
      <trkpt lat="45.46211" lon="4.58313">
        <ele>499.5</ele>
        <time>2014-04-19T15:51:31.986Z</time>
      </trkpt>
      <trkpt lat="45.46211" lon="4.58313">
        <ele>499.5</ele>
        <time>2014-04-19T15:51:32.169Z</time>
      </trkpt>
      <trkpt lat="45.4622" lon="4.58317">
        <ele>499.5</ele>
        <time>2014-04-19T15:51:32.971Z</time>
      </trkpt>
      <trkpt lat="45.46228" lon="4.5832">
        <ele>499.3</ele>
        <time>2014-04-19T15:51:34.325Z</time>
      </trkpt>
      <trkpt lat="45.46236" lon="4.58324">
        <ele>499.4</ele>
        <time>2014-04-19T15:51:34.999Z</time>
      </trkpt>
      <trkpt lat="45.46244" lon="4.58327">
        <ele>499.5</ele>
        <time>2014-04-19T15:51:36.030Z</time>
      </trkpt>
      <trkpt lat="45.46252" lon="4.58331">
        <ele>499.6</ele>
        <time>2014-04-19T15:51:36.977Z</time>
      </trkpt>
      <trkpt lat="45.4626" lon="4.58335">
        <ele>499.7</ele>
        <time>2014-04-19T15:51:38.046Z</time>
      </trkpt>
      <trkpt lat="45.46267" lon="4.5834">
        <ele>499.8</ele>
        <time>2014-04-19T15:51:38.985Z</time>
      </trkpt>
      <trkpt lat="45.46275" lon="4.58344">
        <ele>499.9</ele>
        <time>2014-04-19T15:51:39.992Z</time>
      </trkpt>
      <trkpt lat="45.46283" lon="4.5835">
        <ele>500.1</ele>
        <time>2014-04-19T15:51:40.996Z</time>
      </trkpt>
      <trkpt lat="45.46291" lon="4.58357">
        <ele>500.2</ele>
        <time>2014-04-19T15:51:42.028Z</time>
      </trkpt>
      <trkpt lat="45.46299" lon="4.58364">
        <ele>500</ele>
        <time>2014-04-19T15:51:43.035Z</time>
      </trkpt>
      <trkpt lat="45.46299" lon="4.58364">
        <ele>500</ele>
        <time>2014-04-19T15:51:43.406Z</time>
      </trkpt>
      <trkpt lat="45.46307" lon="4.58373">
        <ele>499.8</ele>
        <time>2014-04-19T15:51:43.945Z</time>
      </trkpt>
      <trkpt lat="45.46307" lon="4.58373">
        <ele>499.8</ele>
        <time>2014-04-19T15:51:44.646Z</time>
      </trkpt>
      <trkpt lat="45.46315" lon="4.58381">
        <ele>499.6</ele>
        <time>2014-04-19T15:51:44.937Z</time>
      </trkpt>
      <trkpt lat="45.46315" lon="4.58381">
        <ele>499.6</ele>
        <time>2014-04-19T15:51:45.123Z</time>
      </trkpt>
      <trkpt lat="45.46322" lon="4.58389">
        <ele>499.3</ele>
        <time>2014-04-19T15:51:45.984Z</time>
      </trkpt>
      <trkpt lat="45.46329" lon="4.58396">
        <ele>498.9</ele>
        <time>2014-04-19T15:51:47.091Z</time>
      </trkpt>
      <trkpt lat="45.46336" lon="4.58403">
        <ele>498.6</ele>
        <time>2014-04-19T15:51:47.982Z</time>
      </trkpt>
      <trkpt lat="45.46343" lon="4.58411">
        <ele>498.2</ele>
        <time>2014-04-19T15:51:49.815Z</time>
      </trkpt>
      <trkpt lat="45.4635" lon="4.58417">
        <ele>497.7</ele>
        <time>2014-04-19T15:51:49.956Z</time>
      </trkpt>
      <trkpt lat="45.46358" lon="4.58422">
        <ele>497.3</ele>
        <time>2014-04-19T15:51:51.056Z</time>
      </trkpt>
      <trkpt lat="45.46366" lon="4.58427">
        <ele>496.9</ele>
        <time>2014-04-19T15:51:52.147Z</time>
      </trkpt>
      <trkpt lat="45.46373" lon="4.58432">
        <ele>496.6</ele>
        <time>2014-04-19T15:51:53.671Z</time>
      </trkpt>
      <trkpt lat="45.46381" lon="4.58436">
        <ele>496.3</ele>
        <time>2014-04-19T15:51:53.948Z</time>
      </trkpt>
      <trkpt lat="45.4639" lon="4.5844">
        <ele>496.2</ele>
        <time>2014-04-19T15:51:54.977Z</time>
      </trkpt>
      <trkpt lat="45.46398" lon="4.58443">
        <ele>496.1</ele>
        <time>2014-04-19T15:51:55.984Z</time>
      </trkpt>
      <trkpt lat="45.46406" lon="4.58446">
        <ele>496.1</ele>
        <time>2014-04-19T15:51:57.056Z</time>
      </trkpt>
      <trkpt lat="45.46415" lon="4.58448">
        <ele>496</ele>
        <time>2014-04-19T15:51:57.973Z</time>
      </trkpt>
      <trkpt lat="45.46423" lon="4.58449">
        <ele>495.9</ele>
        <time>2014-04-19T15:51:58.983Z</time>
      </trkpt>
      <trkpt lat="45.46431" lon="4.5845">
        <ele>495.7</ele>
        <time>2014-04-19T15:52:00.063Z</time>
      </trkpt>
      <trkpt lat="45.4644" lon="4.5845">
        <ele>495.4</ele>
        <time>2014-04-19T15:52:00.981Z</time>
      </trkpt>
      <trkpt lat="45.46448" lon="4.58449">
        <ele>495.1</ele>
        <time>2014-04-19T15:52:02.061Z</time>
      </trkpt>
      <trkpt lat="45.46457" lon="4.58447">
        <ele>494.9</ele>
        <time>2014-04-19T15:52:03.798Z</time>
      </trkpt>
      <trkpt lat="45.46466" lon="4.58446">
        <ele>494.6</ele>
        <time>2014-04-19T15:52:03.953Z</time>
      </trkpt>
      <trkpt lat="45.46466" lon="4.58446">
        <ele>494.6</ele>
        <time>2014-04-19T15:52:04.095Z</time>
      </trkpt>
      <trkpt lat="45.46475" lon="4.58444">
        <ele>494.3</ele>
        <time>2014-04-19T15:52:05.013Z</time>
      </trkpt>
      <trkpt lat="45.46484" lon="4.58441">
        <ele>494</ele>
        <time>2014-04-19T15:52:06.033Z</time>
      </trkpt>
      <trkpt lat="45.46493" lon="4.58439">
        <ele>493.8</ele>
        <time>2014-04-19T15:52:06.996Z</time>
      </trkpt>
      <trkpt lat="45.46501" lon="4.58437">
        <ele>493.6</ele>
        <time>2014-04-19T15:52:08.911Z</time>
      </trkpt>
      <trkpt lat="45.46509" lon="4.58435">
        <ele>493.4</ele>
        <time>2014-04-19T15:52:08.955Z</time>
      </trkpt>
      <trkpt lat="45.46516" lon="4.58432">
        <ele>493.5</ele>
        <time>2014-04-19T15:52:09.942Z</time>
      </trkpt>
      <trkpt lat="45.46525" lon="4.5843">
        <ele>493.5</ele>
        <time>2014-04-19T15:52:10.928Z</time>
      </trkpt>
      <trkpt lat="45.46533" lon="4.58428">
        <ele>493.4</ele>
        <time>2014-04-19T15:52:11.961Z</time>
      </trkpt>
      <trkpt lat="45.46541" lon="4.58425">
        <ele>493.2</ele>
        <time>2014-04-19T15:52:12.935Z</time>
      </trkpt>
      <trkpt lat="45.4655" lon="4.58423">
        <ele>493</ele>
        <time>2014-04-19T15:52:13.952Z</time>
      </trkpt>
      <trkpt lat="45.46557" lon="4.5842">
        <ele>492.8</ele>
        <time>2014-04-19T15:52:14.946Z</time>
      </trkpt>
      <trkpt lat="45.46565" lon="4.58418">
        <ele>492.7</ele>
        <time>2014-04-19T15:52:15.953Z</time>
      </trkpt>
      <trkpt lat="45.46573" lon="4.58416">
        <ele>492.6</ele>
        <time>2014-04-19T15:52:16.933Z</time>
      </trkpt>
      <trkpt lat="45.4658" lon="4.58414">
        <ele>492.5</ele>
        <time>2014-04-19T15:52:17.947Z</time>
      </trkpt>
      <trkpt lat="45.46588" lon="4.58412">
        <ele>492.4</ele>
        <time>2014-04-19T15:52:18.962Z</time>
      </trkpt>
      <trkpt lat="45.46595" lon="4.5841">
        <ele>492.3</ele>
        <time>2014-04-19T15:52:19.962Z</time>
      </trkpt>
      <trkpt lat="45.46603" lon="4.58408">
        <ele>492.2</ele>
        <time>2014-04-19T15:52:20.957Z</time>
      </trkpt>
      <trkpt lat="45.46611" lon="4.58406">
        <ele>492.2</ele>
        <time>2014-04-19T15:52:21.985Z</time>
      </trkpt>
      <trkpt lat="45.46619" lon="4.58404">
        <ele>492.1</ele>
        <time>2014-04-19T15:52:23.153Z</time>
      </trkpt>
      <trkpt lat="45.46627" lon="4.58402">
        <ele>492</ele>
        <time>2014-04-19T15:52:23.985Z</time>
      </trkpt>
      <trkpt lat="45.46635" lon="4.584">
        <ele>491.8</ele>
        <time>2014-04-19T15:52:25.008Z</time>
      </trkpt>
      <trkpt lat="45.46643" lon="4.58398">
        <ele>491.7</ele>
        <time>2014-04-19T15:52:26.015Z</time>
      </trkpt>
      <trkpt lat="45.46652" lon="4.58397">
        <ele>491.4</ele>
        <time>2014-04-19T15:52:27.016Z</time>
      </trkpt>
      <trkpt lat="45.4666" lon="4.58396">
        <ele>491.2</ele>
        <time>2014-04-19T15:52:28.042Z</time>
      </trkpt>
      <trkpt lat="45.46668" lon="4.58396">
        <ele>491</ele>
        <time>2014-04-19T15:52:29.028Z</time>
      </trkpt>
      <trkpt lat="45.46676" lon="4.58397">
        <ele>490.9</ele>
        <time>2014-04-19T15:52:30.003Z</time>
      </trkpt>
      <trkpt lat="45.46684" lon="4.58398">
        <ele>490.7</ele>
        <time>2014-04-19T15:52:30.994Z</time>
      </trkpt>
      <trkpt lat="45.46692" lon="4.58399">
        <ele>490.6</ele>
        <time>2014-04-19T15:52:32.108Z</time>
      </trkpt>
      <trkpt lat="45.467" lon="4.58402">
        <ele>490.5</ele>
        <time>2014-04-19T15:52:32.946Z</time>
      </trkpt>
      <trkpt lat="45.46709" lon="4.58405">
        <ele>490.5</ele>
        <time>2014-04-19T15:52:34.479Z</time>
      </trkpt>
      <trkpt lat="45.46717" lon="4.58409">
        <ele>490.5</ele>
        <time>2014-04-19T15:52:34.952Z</time>
      </trkpt>
      <trkpt lat="45.46725" lon="4.58413">
        <ele>490.3</ele>
        <time>2014-04-19T15:52:36.083Z</time>
      </trkpt>
      <trkpt lat="45.46733" lon="4.58417">
        <ele>490.1</ele>
        <time>2014-04-19T15:52:36.941Z</time>
      </trkpt>
      <trkpt lat="45.46741" lon="4.58422">
        <ele>490</ele>
        <time>2014-04-19T15:52:38.163Z</time>
      </trkpt>
      <trkpt lat="45.46749" lon="4.58426">
        <ele>489.9</ele>
        <time>2014-04-19T15:52:38.980Z</time>
      </trkpt>
      <trkpt lat="45.46757" lon="4.5843">
        <ele>489.7</ele>
        <time>2014-04-19T15:52:40.054Z</time>
      </trkpt>
      <trkpt lat="45.46766" lon="4.58434">
        <ele>489.8</ele>
        <time>2014-04-19T15:52:40.991Z</time>
      </trkpt>
      <trkpt lat="45.46774" lon="4.58438">
        <ele>489.8</ele>
        <time>2014-04-19T15:52:41.981Z</time>
      </trkpt>
      <trkpt lat="45.46782" lon="4.58441">
        <ele>489.7</ele>
        <time>2014-04-19T15:52:43.064Z</time>
      </trkpt>
      <trkpt lat="45.4679" lon="4.58445">
        <ele>489.7</ele>
        <time>2014-04-19T15:52:44.345Z</time>
      </trkpt>
      <trkpt lat="45.46798" lon="4.58448">
        <ele>489.7</ele>
        <time>2014-04-19T15:52:44.951Z</time>
      </trkpt>
      <trkpt lat="45.46806" lon="4.58451">
        <ele>489.7</ele>
        <time>2014-04-19T15:52:46.093Z</time>
      </trkpt>
      <trkpt lat="45.46815" lon="4.58454">
        <ele>489.7</ele>
        <time>2014-04-19T15:52:46.956Z</time>
      </trkpt>
      <trkpt lat="45.46824" lon="4.58457">
        <ele>489.8</ele>
        <time>2014-04-19T15:52:48.003Z</time>
      </trkpt>
      <trkpt lat="45.46832" lon="4.58459">
        <ele>489.7</ele>
        <time>2014-04-19T15:52:48.986Z</time>
      </trkpt>
      <trkpt lat="45.4684" lon="4.58461">
        <ele>489.6</ele>
        <time>2014-04-19T15:52:50.503Z</time>
      </trkpt>
      <trkpt lat="45.46849" lon="4.58463">
        <ele>489.5</ele>
        <time>2014-04-19T15:52:50.950Z</time>
      </trkpt>
      <trkpt lat="45.46858" lon="4.58465">
        <ele>489.5</ele>
        <time>2014-04-19T15:52:52.058Z</time>
      </trkpt>
      <trkpt lat="45.46866" lon="4.58467">
        <ele>489.4</ele>
        <time>2014-04-19T15:52:53.077Z</time>
      </trkpt>
      <trkpt lat="45.46874" lon="4.58468">
        <ele>489.3</ele>
        <time>2014-04-19T15:52:54.006Z</time>
      </trkpt>
      <trkpt lat="45.46883" lon="4.5847">
        <ele>489.2</ele>
        <time>2014-04-19T15:52:54.991Z</time>
      </trkpt>
      <trkpt lat="45.46891" lon="4.58471">
        <ele>489</ele>
        <time>2014-04-19T15:52:56.035Z</time>
      </trkpt>
      <trkpt lat="45.469" lon="4.58473">
        <ele>488.9</ele>
        <time>2014-04-19T15:52:56.974Z</time>
      </trkpt>
      <trkpt lat="45.46908" lon="4.58475">
        <ele>488.8</ele>
        <time>2014-04-19T15:52:58.948Z</time>
      </trkpt>
      <trkpt lat="45.46926" lon="4.58477">
        <ele>488.6</ele>
        <time>2014-04-19T15:52:59.993Z</time>
      </trkpt>
      <trkpt lat="45.46934" lon="4.58478">
        <ele>488.5</ele>
        <time>2014-04-19T15:53:01.018Z</time>
      </trkpt>
      <trkpt lat="45.46942" lon="4.58478">
        <ele>488.5</ele>
        <time>2014-04-19T15:53:01.992Z</time>
      </trkpt>
      <trkpt lat="45.4695" lon="4.58478">
        <ele>488.5</ele>
        <time>2014-04-19T15:53:03.336Z</time>
      </trkpt>
      <trkpt lat="45.46959" lon="4.58476">
        <ele>488.3</ele>
        <time>2014-04-19T15:53:04.035Z</time>
      </trkpt>
      <trkpt lat="45.46968" lon="4.58474">
        <ele>488.1</ele>
        <time>2014-04-19T15:53:05.081Z</time>
      </trkpt>
      <trkpt lat="45.46976" lon="4.58471">
        <ele>487.9</ele>
        <time>2014-04-19T15:53:05.978Z</time>
      </trkpt>
      <trkpt lat="45.46976" lon="4.58471">
        <ele>487.9</ele>
        <time>2014-04-19T15:53:06.167Z</time>
      </trkpt>
      <trkpt lat="45.46986" lon="4.58467">
        <ele>487.7</ele>
        <time>2014-04-19T15:53:07.082Z</time>
      </trkpt>
      <trkpt lat="45.46993" lon="4.58463">
        <ele>487.5</ele>
        <time>2014-04-19T15:53:08.066Z</time>
      </trkpt>
      <trkpt lat="45.47001" lon="4.58458">
        <ele>487.4</ele>
        <time>2014-04-19T15:53:09.015Z</time>
      </trkpt>
      <trkpt lat="45.47009" lon="4.58453">
        <ele>487.3</ele>
        <time>2014-04-19T15:53:10.024Z</time>
      </trkpt>
      <trkpt lat="45.47017" lon="4.58449">
        <ele>487.1</ele>
        <time>2014-04-19T15:53:10.952Z</time>
      </trkpt>
      <trkpt lat="45.47025" lon="4.58444">
        <ele>487</ele>
        <time>2014-04-19T15:53:12.018Z</time>
      </trkpt>
      <trkpt lat="45.47033" lon="4.58439">
        <ele>486.9</ele>
        <time>2014-04-19T15:53:12.995Z</time>
      </trkpt>
      <trkpt lat="45.4704" lon="4.58435">
        <ele>486.9</ele>
        <time>2014-04-19T15:53:14.216Z</time>
      </trkpt>
      <trkpt lat="45.47047" lon="4.5843">
        <ele>486.8</ele>
        <time>2014-04-19T15:53:15.023Z</time>
      </trkpt>
      <trkpt lat="45.47055" lon="4.58425">
        <ele>486.9</ele>
        <time>2014-04-19T15:53:16.100Z</time>
      </trkpt>
      <trkpt lat="45.47063" lon="4.58421">
        <ele>487</ele>
        <time>2014-04-19T15:53:16.982Z</time>
      </trkpt>
      <trkpt lat="45.4707" lon="4.58417">
        <ele>487.1</ele>
        <time>2014-04-19T15:53:18.053Z</time>
      </trkpt>
      <trkpt lat="45.47078" lon="4.58412">
        <ele>487.1</ele>
        <time>2014-04-19T15:53:18.940Z</time>
      </trkpt>
      <trkpt lat="45.47086" lon="4.58408">
        <ele>487.1</ele>
        <time>2014-04-19T15:53:19.997Z</time>
      </trkpt>
      <trkpt lat="45.47093" lon="4.58404">
        <ele>486.9</ele>
        <time>2014-04-19T15:53:21.001Z</time>
      </trkpt>
      <trkpt lat="45.47101" lon="4.58399">
        <ele>486.7</ele>
        <time>2014-04-19T15:53:22.234Z</time>
      </trkpt>
      <trkpt lat="45.47109" lon="4.58394">
        <ele>486.6</ele>
        <time>2014-04-19T15:53:22.974Z</time>
      </trkpt>
      <trkpt lat="45.47117" lon="4.5839">
        <ele>486.4</ele>
        <time>2014-04-19T15:53:24.039Z</time>
      </trkpt>
      <trkpt lat="45.47125" lon="4.58386">
        <ele>486.3</ele>
        <time>2014-04-19T15:53:24.941Z</time>
      </trkpt>
      <trkpt lat="45.47132" lon="4.58382">
        <ele>486.1</ele>
        <time>2014-04-19T15:53:25.989Z</time>
      </trkpt>
      <trkpt lat="45.4714" lon="4.58377">
        <ele>485.9</ele>
        <time>2014-04-19T15:53:26.944Z</time>
      </trkpt>
      <trkpt lat="45.47148" lon="4.58373">
        <ele>485.8</ele>
        <time>2014-04-19T15:53:28.401Z</time>
      </trkpt>
      <trkpt lat="45.47156" lon="4.58369">
        <ele>485.8</ele>
        <time>2014-04-19T15:53:28.977Z</time>
      </trkpt>
      <trkpt lat="45.47164" lon="4.58365">
        <ele>485.8</ele>
        <time>2014-04-19T15:53:29.979Z</time>
      </trkpt>
      <trkpt lat="45.47171" lon="4.58361">
        <ele>485.8</ele>
        <time>2014-04-19T15:53:30.961Z</time>
      </trkpt>
      <trkpt lat="45.47178" lon="4.58357">
        <ele>485.6</ele>
        <time>2014-04-19T15:53:32.056Z</time>
      </trkpt>
      <trkpt lat="45.47186" lon="4.58353">
        <ele>485.5</ele>
        <time>2014-04-19T15:53:33.287Z</time>
      </trkpt>
      <trkpt lat="45.47193" lon="4.58349">
        <ele>485.3</ele>
        <time>2014-04-19T15:53:34.484Z</time>
      </trkpt>
      <trkpt lat="45.47201" lon="4.58345">
        <ele>485.1</ele>
        <time>2014-04-19T15:53:35.029Z</time>
      </trkpt>
      <trkpt lat="45.47208" lon="4.58341">
        <ele>485</ele>
        <time>2014-04-19T15:53:36.032Z</time>
      </trkpt>
      <trkpt lat="45.47216" lon="4.58337">
        <ele>485</ele>
        <time>2014-04-19T15:53:36.949Z</time>
      </trkpt>
      <trkpt lat="45.47224" lon="4.58332">
        <ele>485.1</ele>
        <time>2014-04-19T15:53:38.069Z</time>
      </trkpt>
      <trkpt lat="45.47232" lon="4.58328">
        <ele>485.3</ele>
        <time>2014-04-19T15:53:38.946Z</time>
      </trkpt>
      <trkpt lat="45.4724" lon="4.58325">
        <ele>485.5</ele>
        <time>2014-04-19T15:53:40.750Z</time>
      </trkpt>
      <trkpt lat="45.47247" lon="4.58321">
        <ele>485.7</ele>
        <time>2014-04-19T15:53:40.951Z</time>
      </trkpt>
      <trkpt lat="45.47255" lon="4.58317">
        <ele>486</ele>
        <time>2014-04-19T15:53:41.995Z</time>
      </trkpt>
      <trkpt lat="45.47263" lon="4.58313">
        <ele>486.1</ele>
        <time>2014-04-19T15:53:42.993Z</time>
      </trkpt>
      <trkpt lat="45.47271" lon="4.58309">
        <ele>486.1</ele>
        <time>2014-04-19T15:53:44.012Z</time>
      </trkpt>
      <trkpt lat="45.47278" lon="4.58304">
        <ele>485.9</ele>
        <time>2014-04-19T15:53:45.009Z</time>
      </trkpt>
      <trkpt lat="45.47286" lon="4.583">
        <ele>485.9</ele>
        <time>2014-04-19T15:53:45.977Z</time>
      </trkpt>
      <trkpt lat="45.47293" lon="4.58296">
        <ele>485.8</ele>
        <time>2014-04-19T15:53:47.072Z</time>
      </trkpt>
      <trkpt lat="45.473" lon="4.58292">
        <ele>485.6</ele>
        <time>2014-04-19T15:53:47.975Z</time>
      </trkpt>
      <trkpt lat="45.47308" lon="4.58287">
        <ele>485.4</ele>
        <time>2014-04-19T15:53:48.987Z</time>
      </trkpt>
      <trkpt lat="45.47316" lon="4.58283">
        <ele>485.3</ele>
        <time>2014-04-19T15:53:50.079Z</time>
      </trkpt>
      <trkpt lat="45.47323" lon="4.58278">
        <ele>485.2</ele>
        <time>2014-04-19T15:53:50.955Z</time>
      </trkpt>
      <trkpt lat="45.47331" lon="4.58273">
        <ele>485</ele>
        <time>2014-04-19T15:53:52.107Z</time>
      </trkpt>
      <trkpt lat="45.47338" lon="4.58268">
        <ele>484.8</ele>
        <time>2014-04-19T15:53:52.999Z</time>
      </trkpt>
      <trkpt lat="45.47345" lon="4.58262">
        <ele>484.6</ele>
        <time>2014-04-19T15:53:54.001Z</time>
      </trkpt>
      <trkpt lat="45.47352" lon="4.58256">
        <ele>484.5</ele>
        <time>2014-04-19T15:53:54.947Z</time>
      </trkpt>
      <trkpt lat="45.47359" lon="4.5825">
        <ele>484.4</ele>
        <time>2014-04-19T15:53:56.063Z</time>
      </trkpt>
      <trkpt lat="45.47365" lon="4.58243">
        <ele>484.4</ele>
        <time>2014-04-19T15:53:56.973Z</time>
      </trkpt>
      <trkpt lat="45.47372" lon="4.58236">
        <ele>484.3</ele>
        <time>2014-04-19T15:53:58.756Z</time>
      </trkpt>
      <trkpt lat="45.47378" lon="4.58228">
        <ele>484.1</ele>
        <time>2014-04-19T15:53:58.953Z</time>
      </trkpt>
      <trkpt lat="45.47384" lon="4.5822">
        <ele>483.9</ele>
        <time>2014-04-19T15:54:00.351Z</time>
      </trkpt>
      <trkpt lat="45.4739" lon="4.58211">
        <ele>483.8</ele>
        <time>2014-04-19T15:54:00.957Z</time>
      </trkpt>
      <trkpt lat="45.47396" lon="4.58203">
        <ele>483.7</ele>
        <time>2014-04-19T15:54:02.105Z</time>
      </trkpt>
      <trkpt lat="45.47401" lon="4.58195">
        <ele>483.6</ele>
        <time>2014-04-19T15:54:02.990Z</time>
      </trkpt>
      <trkpt lat="45.47407" lon="4.58187">
        <ele>483.5</ele>
        <time>2014-04-19T15:54:04.096Z</time>
      </trkpt>
      <trkpt lat="45.47413" lon="4.58179">
        <ele>483.4</ele>
        <time>2014-04-19T15:54:04.964Z</time>
      </trkpt>
      <trkpt lat="45.4742" lon="4.58172">
        <ele>483.4</ele>
        <time>2014-04-19T15:54:06.176Z</time>
      </trkpt>
      <trkpt lat="45.47426" lon="4.58165">
        <ele>483.2</ele>
        <time>2014-04-19T15:54:06.993Z</time>
      </trkpt>
      <trkpt lat="45.47434" lon="4.5816">
        <ele>483.2</ele>
        <time>2014-04-19T15:54:08.899Z</time>
      </trkpt>
      <trkpt lat="45.47442" lon="4.58156">
        <ele>482.9</ele>
        <time>2014-04-19T15:54:08.989Z</time>
      </trkpt>
      <trkpt lat="45.47451" lon="4.58155">
        <ele>482.8</ele>
        <time>2014-04-19T15:54:10.028Z</time>
      </trkpt>
      <trkpt lat="45.4746" lon="4.58154">
        <ele>482.6</ele>
        <time>2014-04-19T15:54:11.041Z</time>
      </trkpt>
      <trkpt lat="45.4746" lon="4.58154">
        <ele>482.6</ele>
        <time>2014-04-19T15:54:11.291Z</time>
      </trkpt>
      <trkpt lat="45.4747" lon="4.58154">
        <ele>482.4</ele>
        <time>2014-04-19T15:54:11.985Z</time>
      </trkpt>
      <trkpt lat="45.4747" lon="4.58154">
        <ele>482.4</ele>
        <time>2014-04-19T15:54:12.118Z</time>
      </trkpt>
      <trkpt lat="45.4748" lon="4.58159">
        <ele>482.5</ele>
        <time>2014-04-19T15:54:12.988Z</time>
      </trkpt>
      <trkpt lat="45.4748" lon="4.58159">
        <ele>482.5</ele>
        <time>2014-04-19T15:54:13.181Z</time>
      </trkpt>
      <trkpt lat="45.47488" lon="4.58164">
        <ele>482.3</ele>
        <time>2014-04-19T15:54:14.070Z</time>
      </trkpt>
      <trkpt lat="45.47488" lon="4.58164">
        <ele>482.3</ele>
        <time>2014-04-19T15:54:14.456Z</time>
      </trkpt>
      <trkpt lat="45.47499" lon="4.5817">
        <ele>482.1</ele>
        <time>2014-04-19T15:54:14.989Z</time>
      </trkpt>
      <trkpt lat="45.47499" lon="4.5817">
        <ele>482.1</ele>
        <time>2014-04-19T15:54:15.143Z</time>
      </trkpt>
      <trkpt lat="45.47508" lon="4.58176">
        <ele>481.8</ele>
        <time>2014-04-19T15:54:15.942Z</time>
      </trkpt>
      <trkpt lat="45.47508" lon="4.58176">
        <ele>481.8</ele>
        <time>2014-04-19T15:54:16.102Z</time>
      </trkpt>
      <trkpt lat="45.47516" lon="4.58183">
        <ele>481.5</ele>
        <time>2014-04-19T15:54:17.048Z</time>
      </trkpt>
      <trkpt lat="45.47524" lon="4.58189">
        <ele>481.3</ele>
        <time>2014-04-19T15:54:18.125Z</time>
      </trkpt>
      <trkpt lat="45.47533" lon="4.58196">
        <ele>481.2</ele>
        <time>2014-04-19T15:54:18.980Z</time>
      </trkpt>
      <trkpt lat="45.47533" lon="4.58196">
        <ele>481.2</ele>
        <time>2014-04-19T15:54:19.592Z</time>
      </trkpt>
      <trkpt lat="45.47542" lon="4.58203">
        <ele>481.1</ele>
        <time>2014-04-19T15:54:19.941Z</time>
      </trkpt>
      <trkpt lat="45.47542" lon="4.58203">
        <ele>481.1</ele>
        <time>2014-04-19T15:54:20.129Z</time>
      </trkpt>
      <trkpt lat="45.47551" lon="4.58209">
        <ele>480.8</ele>
        <time>2014-04-19T15:54:21.088Z</time>
      </trkpt>
      <trkpt lat="45.47551" lon="4.58209">
        <ele>480.8</ele>
        <time>2014-04-19T15:54:21.290Z</time>
      </trkpt>
      <trkpt lat="45.47559" lon="4.58215">
        <ele>480.5</ele>
        <time>2014-04-19T15:54:21.980Z</time>
      </trkpt>
      <trkpt lat="45.47567" lon="4.5822">
        <ele>480.4</ele>
        <time>2014-04-19T15:54:23.196Z</time>
      </trkpt>
      <trkpt lat="45.47575" lon="4.58224">
        <ele>480.4</ele>
        <time>2014-04-19T15:54:23.981Z</time>
      </trkpt>
      <trkpt lat="45.47575" lon="4.58224">
        <ele>480.4</ele>
        <time>2014-04-19T15:54:24.498Z</time>
      </trkpt>
      <trkpt lat="45.47584" lon="4.58227">
        <ele>480.3</ele>
        <time>2014-04-19T15:54:24.949Z</time>
      </trkpt>
      <trkpt lat="45.47584" lon="4.58227">
        <ele>480.3</ele>
        <time>2014-04-19T15:54:25.137Z</time>
      </trkpt>
      <trkpt lat="45.47594" lon="4.58228">
        <ele>479.8</ele>
        <time>2014-04-19T15:54:25.990Z</time>
      </trkpt>
      <trkpt lat="45.47594" lon="4.58228">
        <ele>479.8</ele>
        <time>2014-04-19T15:54:26.208Z</time>
      </trkpt>
      <trkpt lat="45.47604" lon="4.58228">
        <ele>479.2</ele>
        <time>2014-04-19T15:54:26.997Z</time>
      </trkpt>
      <trkpt lat="45.47604" lon="4.58228">
        <ele>479.2</ele>
        <time>2014-04-19T15:54:27.181Z</time>
      </trkpt>
      <trkpt lat="45.47614" lon="4.58226">
        <ele>478.6</ele>
        <time>2014-04-19T15:54:28.068Z</time>
      </trkpt>
      <trkpt lat="45.47614" lon="4.58226">
        <ele>478.6</ele>
        <time>2014-04-19T15:54:28.407Z</time>
      </trkpt>
      <trkpt lat="45.47624" lon="4.58224">
        <ele>478.4</ele>
        <time>2014-04-19T15:54:28.945Z</time>
      </trkpt>
      <trkpt lat="45.47624" lon="4.58224">
        <ele>478.4</ele>
        <time>2014-04-19T15:54:29.493Z</time>
      </trkpt>
      <trkpt lat="45.47633" lon="4.58219">
        <ele>478.3</ele>
        <time>2014-04-19T15:54:29.952Z</time>
      </trkpt>
      <trkpt lat="45.47633" lon="4.58219">
        <ele>478.3</ele>
        <time>2014-04-19T15:54:30.114Z</time>
      </trkpt>
      <trkpt lat="45.47641" lon="4.58213">
        <ele>478.1</ele>
        <time>2014-04-19T15:54:31.000Z</time>
      </trkpt>
      <trkpt lat="45.47641" lon="4.58213">
        <ele>478.1</ele>
        <time>2014-04-19T15:54:31.281Z</time>
      </trkpt>
      <trkpt lat="45.47651" lon="4.58206">
        <ele>477.9</ele>
        <time>2014-04-19T15:54:31.954Z</time>
      </trkpt>
      <trkpt lat="45.47651" lon="4.58206">
        <ele>477.9</ele>
        <time>2014-04-19T15:54:32.123Z</time>
      </trkpt>
      <trkpt lat="45.4766" lon="4.582">
        <ele>477.4</ele>
        <time>2014-04-19T15:54:32.951Z</time>
      </trkpt>
      <trkpt lat="45.4766" lon="4.582">
        <ele>477.4</ele>
        <time>2014-04-19T15:54:33.043Z</time>
      </trkpt>
      <trkpt lat="45.47668" lon="4.58192">
        <ele>476.9</ele>
        <time>2014-04-19T15:54:33.987Z</time>
      </trkpt>
      <trkpt lat="45.47668" lon="4.58192">
        <ele>476.9</ele>
        <time>2014-04-19T15:54:34.540Z</time>
      </trkpt>
      <trkpt lat="45.47677" lon="4.58183">
        <ele>476.3</ele>
        <time>2014-04-19T15:54:34.960Z</time>
      </trkpt>
      <trkpt lat="45.47677" lon="4.58183">
        <ele>476.3</ele>
        <time>2014-04-19T15:54:35.143Z</time>
      </trkpt>
      <trkpt lat="45.47686" lon="4.58175">
        <ele>475.8</ele>
        <time>2014-04-19T15:54:36.000Z</time>
      </trkpt>
      <trkpt lat="45.47686" lon="4.58175">
        <ele>475.8</ele>
        <time>2014-04-19T15:54:36.217Z</time>
      </trkpt>
      <trkpt lat="45.47693" lon="4.58167">
        <ele>475.3</ele>
        <time>2014-04-19T15:54:36.991Z</time>
      </trkpt>
      <trkpt lat="45.47693" lon="4.58167">
        <ele>475.3</ele>
        <time>2014-04-19T15:54:37.192Z</time>
      </trkpt>
      <trkpt lat="45.477" lon="4.58158">
        <ele>474.9</ele>
        <time>2014-04-19T15:54:37.995Z</time>
      </trkpt>
      <trkpt lat="45.477" lon="4.58158">
        <ele>474.9</ele>
        <time>2014-04-19T15:54:38.205Z</time>
      </trkpt>
      <trkpt lat="45.47708" lon="4.58149">
        <ele>474.5</ele>
        <time>2014-04-19T15:54:38.986Z</time>
      </trkpt>
      <trkpt lat="45.47708" lon="4.58149">
        <ele>474.5</ele>
        <time>2014-04-19T15:54:39.551Z</time>
      </trkpt>
      <trkpt lat="45.47715" lon="4.5814">
        <ele>474.1</ele>
        <time>2014-04-19T15:54:39.956Z</time>
      </trkpt>
      <trkpt lat="45.47715" lon="4.5814">
        <ele>474.1</ele>
        <time>2014-04-19T15:54:40.177Z</time>
      </trkpt>
      <trkpt lat="45.47722" lon="4.58131">
        <ele>473.8</ele>
        <time>2014-04-19T15:54:41.001Z</time>
      </trkpt>
      <trkpt lat="45.47722" lon="4.58131">
        <ele>473.8</ele>
        <time>2014-04-19T15:54:41.235Z</time>
      </trkpt>
      <trkpt lat="45.4773" lon="4.58121">
        <ele>473.5</ele>
        <time>2014-04-19T15:54:41.954Z</time>
      </trkpt>
      <trkpt lat="45.4773" lon="4.58121">
        <ele>473.5</ele>
        <time>2014-04-19T15:54:42.141Z</time>
      </trkpt>
      <trkpt lat="45.47737" lon="4.58113">
        <ele>473.1</ele>
        <time>2014-04-19T15:54:42.976Z</time>
      </trkpt>
      <trkpt lat="45.47737" lon="4.58113">
        <ele>473.1</ele>
        <time>2014-04-19T15:54:43.252Z</time>
      </trkpt>
      <trkpt lat="45.47746" lon="4.58104">
        <ele>472.7</ele>
        <time>2014-04-19T15:54:43.986Z</time>
      </trkpt>
      <trkpt lat="45.47746" lon="4.58104">
        <ele>472.7</ele>
        <time>2014-04-19T15:54:44.646Z</time>
      </trkpt>
      <trkpt lat="45.47754" lon="4.58095">
        <ele>472.4</ele>
        <time>2014-04-19T15:54:44.951Z</time>
      </trkpt>
      <trkpt lat="45.47754" lon="4.58095">
        <ele>472.4</ele>
        <time>2014-04-19T15:54:45.086Z</time>
      </trkpt>
      <trkpt lat="45.47762" lon="4.58086">
        <ele>472.2</ele>
        <time>2014-04-19T15:54:45.988Z</time>
      </trkpt>
      <trkpt lat="45.47762" lon="4.58086">
        <ele>472.2</ele>
        <time>2014-04-19T15:54:46.183Z</time>
      </trkpt>
      <trkpt lat="45.4777" lon="4.58076">
        <ele>472.2</ele>
        <time>2014-04-19T15:54:47.014Z</time>
      </trkpt>
      <trkpt lat="45.4777" lon="4.58076">
        <ele>472.2</ele>
        <time>2014-04-19T15:54:47.248Z</time>
      </trkpt>
      <trkpt lat="45.47778" lon="4.58067">
        <ele>472.3</ele>
        <time>2014-04-19T15:54:48.025Z</time>
      </trkpt>
      <trkpt lat="45.47778" lon="4.58067">
        <ele>472.3</ele>
        <time>2014-04-19T15:54:48.391Z</time>
      </trkpt>
      <trkpt lat="45.47786" lon="4.58058">
        <ele>472.7</ele>
        <time>2014-04-19T15:54:48.953Z</time>
      </trkpt>
      <trkpt lat="45.47786" lon="4.58058">
        <ele>472.7</ele>
        <time>2014-04-19T15:54:49.671Z</time>
      </trkpt>
      <trkpt lat="45.47794" lon="4.58049">
        <ele>472.9</ele>
        <time>2014-04-19T15:54:49.955Z</time>
      </trkpt>
      <trkpt lat="45.47794" lon="4.58049">
        <ele>472.9</ele>
        <time>2014-04-19T15:54:50.130Z</time>
      </trkpt>
      <trkpt lat="45.47801" lon="4.58041">
        <ele>473</ele>
        <time>2014-04-19T15:54:50.963Z</time>
      </trkpt>
      <trkpt lat="45.47801" lon="4.58041">
        <ele>473</ele>
        <time>2014-04-19T15:54:51.145Z</time>
      </trkpt>
      <trkpt lat="45.47808" lon="4.58033">
        <ele>472.6</ele>
        <time>2014-04-19T15:54:52.248Z</time>
      </trkpt>
      <trkpt lat="45.47808" lon="4.58033">
        <ele>472.6</ele>
        <time>2014-04-19T15:54:52.292Z</time>
      </trkpt>
      <trkpt lat="45.47816" lon="4.58025">
        <ele>472</ele>
        <time>2014-04-19T15:54:52.984Z</time>
      </trkpt>
      <trkpt lat="45.47816" lon="4.58025">
        <ele>472</ele>
        <time>2014-04-19T15:54:53.756Z</time>
      </trkpt>
      <trkpt lat="45.47823" lon="4.58016">
        <ele>471.5</ele>
        <time>2014-04-19T15:54:53.949Z</time>
      </trkpt>
      <trkpt lat="45.47823" lon="4.58016">
        <ele>471.5</ele>
        <time>2014-04-19T15:54:54.080Z</time>
      </trkpt>
      <trkpt lat="45.47832" lon="4.58007">
        <ele>470.7</ele>
        <time>2014-04-19T15:54:54.973Z</time>
      </trkpt>
      <trkpt lat="45.47832" lon="4.58007">
        <ele>470.7</ele>
        <time>2014-04-19T15:54:55.145Z</time>
      </trkpt>
      <trkpt lat="45.4784" lon="4.57998">
        <ele>469.9</ele>
        <time>2014-04-19T15:54:55.971Z</time>
      </trkpt>
      <trkpt lat="45.4784" lon="4.57998">
        <ele>469.9</ele>
        <time>2014-04-19T15:54:56.142Z</time>
      </trkpt>
      <trkpt lat="45.47848" lon="4.5799">
        <ele>469.5</ele>
        <time>2014-04-19T15:54:56.985Z</time>
      </trkpt>
      <trkpt lat="45.47848" lon="4.5799">
        <ele>469.5</ele>
        <time>2014-04-19T15:54:57.605Z</time>
      </trkpt>
      <trkpt lat="45.47856" lon="4.57982">
        <ele>469.1</ele>
        <time>2014-04-19T15:54:57.941Z</time>
      </trkpt>
      <trkpt lat="45.47856" lon="4.57982">
        <ele>469.1</ele>
        <time>2014-04-19T15:54:58.961Z</time>
      </trkpt>
      <trkpt lat="45.47865" lon="4.57974">
        <ele>468.7</ele>
        <time>2014-04-19T15:54:59.080Z</time>
      </trkpt>
      <trkpt lat="45.47865" lon="4.57974">
        <ele>468.7</ele>
        <time>2014-04-19T15:54:59.237Z</time>
      </trkpt>
      <trkpt lat="45.47873" lon="4.57967">
        <ele>468.2</ele>
        <time>2014-04-19T15:54:59.989Z</time>
      </trkpt>
      <trkpt lat="45.47873" lon="4.57967">
        <ele>468.2</ele>
        <time>2014-04-19T15:55:00.248Z</time>
      </trkpt>
      <trkpt lat="45.47882" lon="4.5796">
        <ele>467.8</ele>
        <time>2014-04-19T15:55:01.137Z</time>
      </trkpt>
      <trkpt lat="45.47882" lon="4.5796">
        <ele>467.8</ele>
        <time>2014-04-19T15:55:01.265Z</time>
      </trkpt>
      <trkpt lat="45.47892" lon="4.57953">
        <ele>467.6</ele>
        <time>2014-04-19T15:55:01.987Z</time>
      </trkpt>
      <trkpt lat="45.47892" lon="4.57953">
        <ele>467.6</ele>
        <time>2014-04-19T15:55:02.279Z</time>
      </trkpt>
      <trkpt lat="45.47901" lon="4.57947">
        <ele>467.6</ele>
        <time>2014-04-19T15:55:02.987Z</time>
      </trkpt>
      <trkpt lat="45.47901" lon="4.57947">
        <ele>467.6</ele>
        <time>2014-04-19T15:55:04.256Z</time>
      </trkpt>
      <trkpt lat="45.47919" lon="4.57938">
        <ele>467</ele>
        <time>2014-04-19T15:55:04.990Z</time>
      </trkpt>
      <trkpt lat="45.47919" lon="4.57938">
        <ele>467</ele>
        <time>2014-04-19T15:55:05.152Z</time>
      </trkpt>
      <trkpt lat="45.47929" lon="4.57933">
        <ele>466.6</ele>
        <time>2014-04-19T15:55:05.989Z</time>
      </trkpt>
      <trkpt lat="45.47929" lon="4.57933">
        <ele>466.6</ele>
        <time>2014-04-19T15:55:06.219Z</time>
      </trkpt>
      <trkpt lat="45.47938" lon="4.5793">
        <ele>466.1</ele>
        <time>2014-04-19T15:55:07.000Z</time>
      </trkpt>
      <trkpt lat="45.47938" lon="4.5793">
        <ele>466.1</ele>
        <time>2014-04-19T15:55:07.213Z</time>
      </trkpt>
      <trkpt lat="45.47947" lon="4.57926">
        <ele>465.7</ele>
        <time>2014-04-19T15:55:07.940Z</time>
      </trkpt>
      <trkpt lat="45.47947" lon="4.57926">
        <ele>465.7</ele>
        <time>2014-04-19T15:55:08.139Z</time>
      </trkpt>
      <trkpt lat="45.47958" lon="4.57921">
        <ele>465.3</ele>
        <time>2014-04-19T15:55:08.986Z</time>
      </trkpt>
      <trkpt lat="45.47958" lon="4.57921">
        <ele>465.3</ele>
        <time>2014-04-19T15:55:09.296Z</time>
      </trkpt>
      <trkpt lat="45.47967" lon="4.57918">
        <ele>464.9</ele>
        <time>2014-04-19T15:55:09.988Z</time>
      </trkpt>
      <trkpt lat="45.47967" lon="4.57918">
        <ele>464.9</ele>
        <time>2014-04-19T15:55:10.181Z</time>
      </trkpt>
      <trkpt lat="45.47978" lon="4.57914">
        <ele>464.5</ele>
        <time>2014-04-19T15:55:10.989Z</time>
      </trkpt>
      <trkpt lat="45.47978" lon="4.57914">
        <ele>464.5</ele>
        <time>2014-04-19T15:55:11.179Z</time>
      </trkpt>
      <trkpt lat="45.47988" lon="4.5791">
        <ele>464.1</ele>
        <time>2014-04-19T15:55:11.992Z</time>
      </trkpt>
      <trkpt lat="45.47988" lon="4.5791">
        <ele>464.1</ele>
        <time>2014-04-19T15:55:12.189Z</time>
      </trkpt>
      <trkpt lat="45.47999" lon="4.57906">
        <ele>463.6</ele>
        <time>2014-04-19T15:55:13.044Z</time>
      </trkpt>
      <trkpt lat="45.47999" lon="4.57906">
        <ele>463.6</ele>
        <time>2014-04-19T15:55:13.548Z</time>
      </trkpt>
      <trkpt lat="45.48009" lon="4.57902">
        <ele>463.2</ele>
        <time>2014-04-19T15:55:13.949Z</time>
      </trkpt>
      <trkpt lat="45.48009" lon="4.57902">
        <ele>463.2</ele>
        <time>2014-04-19T15:55:14.270Z</time>
      </trkpt>
      <trkpt lat="45.48019" lon="4.57898">
        <ele>462.7</ele>
        <time>2014-04-19T15:55:14.988Z</time>
      </trkpt>
      <trkpt lat="45.48019" lon="4.57898">
        <ele>462.7</ele>
        <time>2014-04-19T15:55:15.127Z</time>
      </trkpt>
      <trkpt lat="45.4803" lon="4.57894">
        <ele>462.3</ele>
        <time>2014-04-19T15:55:15.958Z</time>
      </trkpt>
      <trkpt lat="45.4803" lon="4.57894">
        <ele>462.3</ele>
        <time>2014-04-19T15:55:16.134Z</time>
      </trkpt>
      <trkpt lat="45.4804" lon="4.57889">
        <ele>462</ele>
        <time>2014-04-19T15:55:17.258Z</time>
      </trkpt>
      <trkpt lat="45.4804" lon="4.57889">
        <ele>462</ele>
        <time>2014-04-19T15:55:17.412Z</time>
      </trkpt>
      <trkpt lat="45.4805" lon="4.57885">
        <ele>461.9</ele>
        <time>2014-04-19T15:55:17.987Z</time>
      </trkpt>
      <trkpt lat="45.4805" lon="4.57885">
        <ele>461.9</ele>
        <time>2014-04-19T15:55:18.130Z</time>
      </trkpt>
      <trkpt lat="45.48061" lon="4.5788">
        <ele>461.7</ele>
        <time>2014-04-19T15:55:18.993Z</time>
      </trkpt>
      <trkpt lat="45.48061" lon="4.5788">
        <ele>461.7</ele>
        <time>2014-04-19T15:55:19.329Z</time>
      </trkpt>
      <trkpt lat="45.48071" lon="4.57875">
        <ele>461.6</ele>
        <time>2014-04-19T15:55:19.990Z</time>
      </trkpt>
      <trkpt lat="45.48071" lon="4.57875">
        <ele>461.6</ele>
        <time>2014-04-19T15:55:20.123Z</time>
      </trkpt>
      <trkpt lat="45.48081" lon="4.5787">
        <ele>461.5</ele>
        <time>2014-04-19T15:55:20.959Z</time>
      </trkpt>
      <trkpt lat="45.48081" lon="4.5787">
        <ele>461.5</ele>
        <time>2014-04-19T15:55:21.094Z</time>
      </trkpt>
      <trkpt lat="45.48092" lon="4.57866">
        <ele>461.3</ele>
        <time>2014-04-19T15:55:21.991Z</time>
      </trkpt>
      <trkpt lat="45.48092" lon="4.57866">
        <ele>461.3</ele>
        <time>2014-04-19T15:55:22.216Z</time>
      </trkpt>
      <trkpt lat="45.48102" lon="4.5786">
        <ele>461</ele>
        <time>2014-04-19T15:55:22.947Z</time>
      </trkpt>
      <trkpt lat="45.48102" lon="4.5786">
        <ele>461</ele>
        <time>2014-04-19T15:55:23.111Z</time>
      </trkpt>
      <trkpt lat="45.48113" lon="4.57855">
        <ele>460.9</ele>
        <time>2014-04-19T15:55:23.984Z</time>
      </trkpt>
      <trkpt lat="45.48113" lon="4.57855">
        <ele>460.9</ele>
        <time>2014-04-19T15:55:24.362Z</time>
      </trkpt>
      <trkpt lat="45.48124" lon="4.57847">
        <ele>460.5</ele>
        <time>2014-04-19T15:55:24.985Z</time>
      </trkpt>
      <trkpt lat="45.48124" lon="4.57847">
        <ele>460.5</ele>
        <time>2014-04-19T15:55:25.149Z</time>
      </trkpt>
      <trkpt lat="45.48134" lon="4.57839">
        <ele>460.2</ele>
        <time>2014-04-19T15:55:25.985Z</time>
      </trkpt>
      <trkpt lat="45.48134" lon="4.57839">
        <ele>460.2</ele>
        <time>2014-04-19T15:55:26.203Z</time>
      </trkpt>
      <trkpt lat="45.48143" lon="4.57831">
        <ele>459.9</ele>
        <time>2014-04-19T15:55:26.994Z</time>
      </trkpt>
      <trkpt lat="45.48143" lon="4.57831">
        <ele>459.9</ele>
        <time>2014-04-19T15:55:27.184Z</time>
      </trkpt>
      <trkpt lat="45.48152" lon="4.57822">
        <ele>459.4</ele>
        <time>2014-04-19T15:55:27.958Z</time>
      </trkpt>
      <trkpt lat="45.48152" lon="4.57822">
        <ele>459.4</ele>
        <time>2014-04-19T15:55:28.077Z</time>
      </trkpt>
      <trkpt lat="45.48162" lon="4.57814">
        <ele>458.9</ele>
        <time>2014-04-19T15:55:28.971Z</time>
      </trkpt>
      <trkpt lat="45.48162" lon="4.57814">
        <ele>458.9</ele>
        <time>2014-04-19T15:55:29.370Z</time>
      </trkpt>
      <trkpt lat="45.48172" lon="4.57805">
        <ele>458.2</ele>
        <time>2014-04-19T15:55:29.997Z</time>
      </trkpt>
      <trkpt lat="45.48172" lon="4.57805">
        <ele>458.2</ele>
        <time>2014-04-19T15:55:30.212Z</time>
      </trkpt>
      <trkpt lat="45.48182" lon="4.57795">
        <ele>457.8</ele>
        <time>2014-04-19T15:55:30.994Z</time>
      </trkpt>
      <trkpt lat="45.48182" lon="4.57795">
        <ele>457.8</ele>
        <time>2014-04-19T15:55:31.183Z</time>
      </trkpt>
      <trkpt lat="45.48191" lon="4.57787">
        <ele>457.7</ele>
        <time>2014-04-19T15:55:31.962Z</time>
      </trkpt>
      <trkpt lat="45.48191" lon="4.57787">
        <ele>457.7</ele>
        <time>2014-04-19T15:55:32.143Z</time>
      </trkpt>
      <trkpt lat="45.48201" lon="4.57778">
        <ele>457.8</ele>
        <time>2014-04-19T15:55:33.003Z</time>
      </trkpt>
      <trkpt lat="45.48201" lon="4.57778">
        <ele>457.8</ele>
        <time>2014-04-19T15:55:33.286Z</time>
      </trkpt>
      <trkpt lat="45.4821" lon="4.57768">
        <ele>457.7</ele>
        <time>2014-04-19T15:55:33.988Z</time>
      </trkpt>
      <trkpt lat="45.4821" lon="4.57768">
        <ele>457.7</ele>
        <time>2014-04-19T15:55:34.372Z</time>
      </trkpt>
      <trkpt lat="45.48219" lon="4.57759">
        <ele>457.4</ele>
        <time>2014-04-19T15:55:34.964Z</time>
      </trkpt>
      <trkpt lat="45.48219" lon="4.57759">
        <ele>457.4</ele>
        <time>2014-04-19T15:55:35.144Z</time>
      </trkpt>
      <trkpt lat="45.48228" lon="4.5775">
        <ele>456.4</ele>
        <time>2014-04-19T15:55:35.991Z</time>
      </trkpt>
      <trkpt lat="45.48228" lon="4.5775">
        <ele>456.4</ele>
        <time>2014-04-19T15:55:36.174Z</time>
      </trkpt>
      <trkpt lat="45.48237" lon="4.5774">
        <ele>455.2</ele>
        <time>2014-04-19T15:55:36.958Z</time>
      </trkpt>
      <trkpt lat="45.48237" lon="4.5774">
        <ele>455.2</ele>
        <time>2014-04-19T15:55:37.117Z</time>
      </trkpt>
      <trkpt lat="45.48246" lon="4.57731">
        <ele>454.1</ele>
        <time>2014-04-19T15:55:37.990Z</time>
      </trkpt>
      <trkpt lat="45.48246" lon="4.57731">
        <ele>454.1</ele>
        <time>2014-04-19T15:55:38.210Z</time>
      </trkpt>
      <trkpt lat="45.48256" lon="4.57721">
        <ele>453.3</ele>
        <time>2014-04-19T15:55:38.993Z</time>
      </trkpt>
      <trkpt lat="45.48256" lon="4.57721">
        <ele>453.3</ele>
        <time>2014-04-19T15:55:39.436Z</time>
      </trkpt>
      <trkpt lat="45.48266" lon="4.57711">
        <ele>452.6</ele>
        <time>2014-04-19T15:55:39.999Z</time>
      </trkpt>
      <trkpt lat="45.48266" lon="4.57711">
        <ele>452.6</ele>
        <time>2014-04-19T15:55:40.215Z</time>
      </trkpt>
      <trkpt lat="45.48274" lon="4.57702">
        <ele>452.3</ele>
        <time>2014-04-19T15:55:40.955Z</time>
      </trkpt>
      <trkpt lat="45.48274" lon="4.57702">
        <ele>452.3</ele>
        <time>2014-04-19T15:55:41.112Z</time>
      </trkpt>
      <trkpt lat="45.48283" lon="4.57693">
        <ele>451.9</ele>
        <time>2014-04-19T15:55:41.960Z</time>
      </trkpt>
      <trkpt lat="45.48283" lon="4.57693">
        <ele>451.9</ele>
        <time>2014-04-19T15:55:42.142Z</time>
      </trkpt>
      <trkpt lat="45.4829" lon="4.57685">
        <ele>451.3</ele>
        <time>2014-04-19T15:55:43.041Z</time>
      </trkpt>
      <trkpt lat="45.4829" lon="4.57685">
        <ele>451.3</ele>
        <time>2014-04-19T15:55:43.240Z</time>
      </trkpt>
      <trkpt lat="45.48299" lon="4.57676">
        <ele>450.6</ele>
        <time>2014-04-19T15:55:43.994Z</time>
      </trkpt>
      <trkpt lat="45.48299" lon="4.57676">
        <ele>450.6</ele>
        <time>2014-04-19T15:55:44.462Z</time>
      </trkpt>
      <trkpt lat="45.48307" lon="4.57668">
        <ele>450</ele>
        <time>2014-04-19T15:55:44.949Z</time>
      </trkpt>
      <trkpt lat="45.48307" lon="4.57668">
        <ele>450</ele>
        <time>2014-04-19T15:55:45.138Z</time>
      </trkpt>
      <trkpt lat="45.48315" lon="4.5766">
        <ele>449.4</ele>
        <time>2014-04-19T15:55:45.995Z</time>
      </trkpt>
      <trkpt lat="45.48315" lon="4.5766">
        <ele>449.4</ele>
        <time>2014-04-19T15:55:46.190Z</time>
      </trkpt>
      <trkpt lat="45.48325" lon="4.57652">
        <ele>448.6</ele>
        <time>2014-04-19T15:55:46.951Z</time>
      </trkpt>
      <trkpt lat="45.48325" lon="4.57652">
        <ele>448.6</ele>
        <time>2014-04-19T15:55:47.131Z</time>
      </trkpt>
      <trkpt lat="45.48334" lon="4.57646">
        <ele>448</ele>
        <time>2014-04-19T15:55:47.996Z</time>
      </trkpt>
      <trkpt lat="45.48334" lon="4.57646">
        <ele>448</ele>
        <time>2014-04-19T15:55:48.322Z</time>
      </trkpt>
      <trkpt lat="45.48345" lon="4.57646">
        <ele>447.4</ele>
        <time>2014-04-19T15:55:48.985Z</time>
      </trkpt>
      <trkpt lat="45.48345" lon="4.57646">
        <ele>447.4</ele>
        <time>2014-04-19T15:55:49.493Z</time>
      </trkpt>
      <trkpt lat="45.48356" lon="4.57647">
        <ele>447.1</ele>
        <time>2014-04-19T15:55:49.946Z</time>
      </trkpt>
      <trkpt lat="45.48356" lon="4.57647">
        <ele>447.1</ele>
        <time>2014-04-19T15:55:50.091Z</time>
      </trkpt>
      <trkpt lat="45.48366" lon="4.57647">
        <ele>446.7</ele>
        <time>2014-04-19T15:55:50.993Z</time>
      </trkpt>
      <trkpt lat="45.48366" lon="4.57647">
        <ele>446.7</ele>
        <time>2014-04-19T15:55:51.220Z</time>
      </trkpt>
      <trkpt lat="45.48376" lon="4.57648">
        <ele>446.2</ele>
        <time>2014-04-19T15:55:51.987Z</time>
      </trkpt>
      <trkpt lat="45.48376" lon="4.57648">
        <ele>446.2</ele>
        <time>2014-04-19T15:55:52.228Z</time>
      </trkpt>
      <trkpt lat="45.48388" lon="4.57649">
        <ele>445.2</ele>
        <time>2014-04-19T15:55:53.019Z</time>
      </trkpt>
      <trkpt lat="45.48388" lon="4.57649">
        <ele>445.2</ele>
        <time>2014-04-19T15:55:53.209Z</time>
      </trkpt>
      <trkpt lat="45.48399" lon="4.5765">
        <ele>444</ele>
        <time>2014-04-19T15:55:54.208Z</time>
      </trkpt>
      <trkpt lat="45.48399" lon="4.5765">
        <ele>444</ele>
        <time>2014-04-19T15:55:54.305Z</time>
      </trkpt>
      <trkpt lat="45.48411" lon="4.57651">
        <ele>443</ele>
        <time>2014-04-19T15:55:54.957Z</time>
      </trkpt>
      <trkpt lat="45.48411" lon="4.57651">
        <ele>443</ele>
        <time>2014-04-19T15:55:55.108Z</time>
      </trkpt>
      <trkpt lat="45.48422" lon="4.5765">
        <ele>441.9</ele>
        <time>2014-04-19T15:55:55.953Z</time>
      </trkpt>
      <trkpt lat="45.48422" lon="4.5765">
        <ele>441.9</ele>
        <time>2014-04-19T15:55:56.115Z</time>
      </trkpt>
      <trkpt lat="45.48433" lon="4.57647">
        <ele>440.7</ele>
        <time>2014-04-19T15:55:56.965Z</time>
      </trkpt>
      <trkpt lat="45.48433" lon="4.57647">
        <ele>440.7</ele>
        <time>2014-04-19T15:55:57.151Z</time>
      </trkpt>
      <trkpt lat="45.48444" lon="4.57644">
        <ele>439.7</ele>
        <time>2014-04-19T15:55:57.991Z</time>
      </trkpt>
      <trkpt lat="45.48444" lon="4.57644">
        <ele>439.7</ele>
        <time>2014-04-19T15:55:58.181Z</time>
      </trkpt>
      <trkpt lat="45.48454" lon="4.5764">
        <ele>439</ele>
        <time>2014-04-19T15:55:58.960Z</time>
      </trkpt>
      <trkpt lat="45.48454" lon="4.5764">
        <ele>439</ele>
        <time>2014-04-19T15:55:59.320Z</time>
      </trkpt>
      <trkpt lat="45.48463" lon="4.57635">
        <ele>438.6</ele>
        <time>2014-04-19T15:56:00.025Z</time>
      </trkpt>
      <trkpt lat="45.48463" lon="4.57635">
        <ele>438.6</ele>
        <time>2014-04-19T15:56:00.152Z</time>
      </trkpt>
      <trkpt lat="45.48474" lon="4.57629">
        <ele>438.2</ele>
        <time>2014-04-19T15:56:01.127Z</time>
      </trkpt>
      <trkpt lat="45.48474" lon="4.57629">
        <ele>438.2</ele>
        <time>2014-04-19T15:56:01.236Z</time>
      </trkpt>
      <trkpt lat="45.48485" lon="4.57622">
        <ele>437.6</ele>
        <time>2014-04-19T15:56:01.983Z</time>
      </trkpt>
      <trkpt lat="45.48485" lon="4.57622">
        <ele>437.6</ele>
        <time>2014-04-19T15:56:02.130Z</time>
      </trkpt>
      <trkpt lat="45.48495" lon="4.57614">
        <ele>436.7</ele>
        <time>2014-04-19T15:56:02.971Z</time>
      </trkpt>
      <trkpt lat="45.48495" lon="4.57614">
        <ele>436.7</ele>
        <time>2014-04-19T15:56:03.156Z</time>
      </trkpt>
      <trkpt lat="45.48504" lon="4.57604">
        <ele>436.3</ele>
        <time>2014-04-19T15:56:03.983Z</time>
      </trkpt>
      <trkpt lat="45.48504" lon="4.57604">
        <ele>436.3</ele>
        <time>2014-04-19T15:56:04.354Z</time>
      </trkpt>
      <trkpt lat="45.48513" lon="4.57593">
        <ele>436.2</ele>
        <time>2014-04-19T15:56:04.985Z</time>
      </trkpt>
      <trkpt lat="45.48513" lon="4.57593">
        <ele>436.2</ele>
        <time>2014-04-19T15:56:05.260Z</time>
      </trkpt>
      <trkpt lat="45.4852" lon="4.57582">
        <ele>435.8</ele>
        <time>2014-04-19T15:56:05.984Z</time>
      </trkpt>
      <trkpt lat="45.4852" lon="4.57582">
        <ele>435.8</ele>
        <time>2014-04-19T15:56:06.140Z</time>
      </trkpt>
      <trkpt lat="45.48528" lon="4.57572">
        <ele>435.5</ele>
        <time>2014-04-19T15:56:06.988Z</time>
      </trkpt>
      <trkpt lat="45.48528" lon="4.57572">
        <ele>435.5</ele>
        <time>2014-04-19T15:56:07.187Z</time>
      </trkpt>
      <trkpt lat="45.48534" lon="4.57561">
        <ele>435.3</ele>
        <time>2014-04-19T15:56:07.956Z</time>
      </trkpt>
      <trkpt lat="45.48534" lon="4.57561">
        <ele>435.3</ele>
        <time>2014-04-19T15:56:08.123Z</time>
      </trkpt>
      <trkpt lat="45.48541" lon="4.5755">
        <ele>435.5</ele>
        <time>2014-04-19T15:56:08.995Z</time>
      </trkpt>
      <trkpt lat="45.48541" lon="4.5755">
        <ele>435.5</ele>
        <time>2014-04-19T15:56:09.403Z</time>
      </trkpt>
      <trkpt lat="45.48545" lon="4.57536">
        <ele>435.9</ele>
        <time>2014-04-19T15:56:09.979Z</time>
      </trkpt>
      <trkpt lat="45.48545" lon="4.57536">
        <ele>435.9</ele>
        <time>2014-04-19T15:56:10.178Z</time>
      </trkpt>
      <trkpt lat="45.48549" lon="4.57522">
        <ele>435.9</ele>
        <time>2014-04-19T15:56:10.990Z</time>
      </trkpt>
      <trkpt lat="45.48549" lon="4.57522">
        <ele>435.9</ele>
        <time>2014-04-19T15:56:11.214Z</time>
      </trkpt>
      <trkpt lat="45.48553" lon="4.57507">
        <ele>435.7</ele>
        <time>2014-04-19T15:56:12.000Z</time>
      </trkpt>
      <trkpt lat="45.48553" lon="4.57507">
        <ele>435.7</ele>
        <time>2014-04-19T15:56:12.247Z</time>
      </trkpt>
      <trkpt lat="45.48556" lon="4.57493">
        <ele>435.6</ele>
        <time>2014-04-19T15:56:12.996Z</time>
      </trkpt>
      <trkpt lat="45.48556" lon="4.57493">
        <ele>435.6</ele>
        <time>2014-04-19T15:56:13.305Z</time>
      </trkpt>
      <trkpt lat="45.4856" lon="4.57475">
        <ele>435.5</ele>
        <time>2014-04-19T15:56:13.958Z</time>
      </trkpt>
      <trkpt lat="45.4856" lon="4.57475">
        <ele>435.5</ele>
        <time>2014-04-19T15:56:14.400Z</time>
      </trkpt>
      <trkpt lat="45.48564" lon="4.57458">
        <ele>435.4</ele>
        <time>2014-04-19T15:56:14.993Z</time>
      </trkpt>
      <trkpt lat="45.48564" lon="4.57458">
        <ele>435.4</ele>
        <time>2014-04-19T15:56:15.179Z</time>
      </trkpt>
      <trkpt lat="45.48567" lon="4.57442">
        <ele>435</ele>
        <time>2014-04-19T15:56:15.991Z</time>
      </trkpt>
      <trkpt lat="45.48567" lon="4.57442">
        <ele>435</ele>
        <time>2014-04-19T15:56:16.171Z</time>
      </trkpt>
      <trkpt lat="45.48571" lon="4.57425">
        <ele>434.3</ele>
        <time>2014-04-19T15:56:16.998Z</time>
      </trkpt>
      <trkpt lat="45.48571" lon="4.57425">
        <ele>434.3</ele>
        <time>2014-04-19T15:56:17.151Z</time>
      </trkpt>
      <trkpt lat="45.48574" lon="4.5741">
        <ele>433.3</ele>
        <time>2014-04-19T15:56:17.961Z</time>
      </trkpt>
      <trkpt lat="45.48574" lon="4.5741">
        <ele>433.3</ele>
        <time>2014-04-19T15:56:18.138Z</time>
      </trkpt>
      <trkpt lat="45.48577" lon="4.57394">
        <ele>431.9</ele>
        <time>2014-04-19T15:56:18.979Z</time>
      </trkpt>
      <trkpt lat="45.48577" lon="4.57394">
        <ele>431.9</ele>
        <time>2014-04-19T15:56:19.761Z</time>
      </trkpt>
      <trkpt lat="45.48581" lon="4.57378">
        <ele>431.2</ele>
        <time>2014-04-19T15:56:19.941Z</time>
      </trkpt>
      <trkpt lat="45.48581" lon="4.57378">
        <ele>431.2</ele>
        <time>2014-04-19T15:56:20.044Z</time>
      </trkpt>
      <trkpt lat="45.48587" lon="4.57361">
        <ele>430.5</ele>
        <time>2014-04-19T15:56:21.103Z</time>
      </trkpt>
      <trkpt lat="45.48587" lon="4.57361">
        <ele>430.5</ele>
        <time>2014-04-19T15:56:21.273Z</time>
      </trkpt>
      <trkpt lat="45.48592" lon="4.57344">
        <ele>429.9</ele>
        <time>2014-04-19T15:56:21.986Z</time>
      </trkpt>
      <trkpt lat="45.48592" lon="4.57344">
        <ele>429.9</ele>
        <time>2014-04-19T15:56:22.146Z</time>
      </trkpt>
      <trkpt lat="45.48599" lon="4.57329">
        <ele>429.3</ele>
        <time>2014-04-19T15:56:22.992Z</time>
      </trkpt>
      <trkpt lat="45.48599" lon="4.57329">
        <ele>429.3</ele>
        <time>2014-04-19T15:56:23.221Z</time>
      </trkpt>
      <trkpt lat="45.48607" lon="4.57313">
        <ele>428.5</ele>
        <time>2014-04-19T15:56:23.992Z</time>
      </trkpt>
      <trkpt lat="45.48607" lon="4.57313">
        <ele>428.5</ele>
        <time>2014-04-19T15:56:25.038Z</time>
      </trkpt>
      <trkpt lat="45.48627" lon="4.57288">
        <ele>427.1</ele>
        <time>2014-04-19T15:56:25.971Z</time>
      </trkpt>
      <trkpt lat="45.48627" lon="4.57288">
        <ele>427.1</ele>
        <time>2014-04-19T15:56:26.265Z</time>
      </trkpt>
      <trkpt lat="45.48638" lon="4.57276">
        <ele>426.4</ele>
        <time>2014-04-19T15:56:26.979Z</time>
      </trkpt>
      <trkpt lat="45.48638" lon="4.57276">
        <ele>426.4</ele>
        <time>2014-04-19T15:56:27.165Z</time>
      </trkpt>
      <trkpt lat="45.4865" lon="4.57265">
        <ele>426.1</ele>
        <time>2014-04-19T15:56:27.991Z</time>
      </trkpt>
      <trkpt lat="45.4865" lon="4.57265">
        <ele>426.1</ele>
        <time>2014-04-19T15:56:28.171Z</time>
      </trkpt>
      <trkpt lat="45.48661" lon="4.57254">
        <ele>425.8</ele>
        <time>2014-04-19T15:56:29.001Z</time>
      </trkpt>
      <trkpt lat="45.48661" lon="4.57254">
        <ele>425.8</ele>
        <time>2014-04-19T15:56:29.983Z</time>
      </trkpt>
      <trkpt lat="45.48673" lon="4.57243">
        <ele>425.5</ele>
        <time>2014-04-19T15:56:30.088Z</time>
      </trkpt>
      <trkpt lat="45.48673" lon="4.57243">
        <ele>425.5</ele>
        <time>2014-04-19T15:56:30.245Z</time>
      </trkpt>
      <trkpt lat="45.48684" lon="4.57232">
        <ele>425.2</ele>
        <time>2014-04-19T15:56:30.998Z</time>
      </trkpt>
      <trkpt lat="45.48684" lon="4.57232">
        <ele>425.2</ele>
        <time>2014-04-19T15:56:31.176Z</time>
      </trkpt>
      <trkpt lat="45.48697" lon="4.57222">
        <ele>424.5</ele>
        <time>2014-04-19T15:56:31.994Z</time>
      </trkpt>
      <trkpt lat="45.48697" lon="4.57222">
        <ele>424.5</ele>
        <time>2014-04-19T15:56:32.230Z</time>
      </trkpt>
      <trkpt lat="45.48708" lon="4.57212">
        <ele>423.6</ele>
        <time>2014-04-19T15:56:32.994Z</time>
      </trkpt>
      <trkpt lat="45.48708" lon="4.57212">
        <ele>423.6</ele>
        <time>2014-04-19T15:56:33.146Z</time>
      </trkpt>
      <trkpt lat="45.48719" lon="4.57203">
        <ele>422.9</ele>
        <time>2014-04-19T15:56:34.004Z</time>
      </trkpt>
      <trkpt lat="45.48719" lon="4.57203">
        <ele>422.9</ele>
        <time>2014-04-19T15:56:34.213Z</time>
      </trkpt>
      <trkpt lat="45.48729" lon="4.57193">
        <ele>422.3</ele>
        <time>2014-04-19T15:56:35.255Z</time>
      </trkpt>
      <trkpt lat="45.48729" lon="4.57193">
        <ele>422.3</ele>
        <time>2014-04-19T15:56:35.028Z</time>
      </trkpt>
      <trkpt lat="45.4874" lon="4.57184">
        <ele>421.6</ele>
        <time>2014-04-19T15:56:35.944Z</time>
      </trkpt>
      <trkpt lat="45.4874" lon="4.57184">
        <ele>421.6</ele>
        <time>2014-04-19T15:56:36.049Z</time>
      </trkpt>
      <trkpt lat="45.48751" lon="4.57175">
        <ele>421.1</ele>
        <time>2014-04-19T15:56:36.957Z</time>
      </trkpt>
      <trkpt lat="45.48751" lon="4.57175">
        <ele>421.1</ele>
        <time>2014-04-19T15:56:37.087Z</time>
      </trkpt>
      <trkpt lat="45.48763" lon="4.57166">
        <ele>420.5</ele>
        <time>2014-04-19T15:56:37.975Z</time>
      </trkpt>
      <trkpt lat="45.48763" lon="4.57166">
        <ele>420.5</ele>
        <time>2014-04-19T15:56:38.130Z</time>
      </trkpt>
      <trkpt lat="45.48775" lon="4.57157">
        <ele>420</ele>
        <time>2014-04-19T15:56:38.977Z</time>
      </trkpt>
      <trkpt lat="45.48775" lon="4.57157">
        <ele>420</ele>
        <time>2014-04-19T15:56:39.366Z</time>
      </trkpt>
      <trkpt lat="45.48787" lon="4.57149">
        <ele>419.5</ele>
        <time>2014-04-19T15:56:40.002Z</time>
      </trkpt>
      <trkpt lat="45.48787" lon="4.57149">
        <ele>419.5</ele>
        <time>2014-04-19T15:56:40.099Z</time>
      </trkpt>
      <trkpt lat="45.48799" lon="4.57141">
        <ele>418.9</ele>
        <time>2014-04-19T15:56:40.997Z</time>
      </trkpt>
      <trkpt lat="45.48799" lon="4.57141">
        <ele>418.9</ele>
        <time>2014-04-19T15:56:41.148Z</time>
      </trkpt>
      <trkpt lat="45.4881" lon="4.57133">
        <ele>418.3</ele>
        <time>2014-04-19T15:56:41.968Z</time>
      </trkpt>
      <trkpt lat="45.4881" lon="4.57133">
        <ele>418.3</ele>
        <time>2014-04-19T15:56:42.191Z</time>
      </trkpt>
      <trkpt lat="45.48822" lon="4.57126">
        <ele>418.2</ele>
        <time>2014-04-19T15:56:42.965Z</time>
      </trkpt>
      <trkpt lat="45.48822" lon="4.57126">
        <ele>418.2</ele>
        <time>2014-04-19T15:56:43.114Z</time>
      </trkpt>
      <trkpt lat="45.48834" lon="4.57119">
        <ele>418</ele>
        <time>2014-04-19T15:56:44.082Z</time>
      </trkpt>
      <trkpt lat="45.48834" lon="4.57119">
        <ele>418</ele>
        <time>2014-04-19T15:56:44.203Z</time>
      </trkpt>
      <trkpt lat="45.48845" lon="4.57112">
        <ele>417.8</ele>
        <time>2014-04-19T15:56:44.999Z</time>
      </trkpt>
      <trkpt lat="45.48845" lon="4.57112">
        <ele>417.8</ele>
        <time>2014-04-19T15:56:45.199Z</time>
      </trkpt>
      <trkpt lat="45.48857" lon="4.57106">
        <ele>417.1</ele>
        <time>2014-04-19T15:56:46.001Z</time>
      </trkpt>
      <trkpt lat="45.48857" lon="4.57106">
        <ele>417.1</ele>
        <time>2014-04-19T15:56:46.274Z</time>
      </trkpt>
      <trkpt lat="45.48869" lon="4.571">
        <ele>416.1</ele>
        <time>2014-04-19T15:56:46.991Z</time>
      </trkpt>
      <trkpt lat="45.48869" lon="4.571">
        <ele>416.1</ele>
        <time>2014-04-19T15:56:47.257Z</time>
      </trkpt>
      <trkpt lat="45.4888" lon="4.57094">
        <ele>415.1</ele>
        <time>2014-04-19T15:56:47.991Z</time>
      </trkpt>
      <trkpt lat="45.4888" lon="4.57094">
        <ele>415.1</ele>
        <time>2014-04-19T15:56:48.166Z</time>
      </trkpt>
      <trkpt lat="45.48891" lon="4.57087">
        <ele>414.2</ele>
        <time>2014-04-19T15:56:49.000Z</time>
      </trkpt>
      <trkpt lat="45.48891" lon="4.57087">
        <ele>414.2</ele>
        <time>2014-04-19T15:56:49.227Z</time>
      </trkpt>
      <trkpt lat="45.48902" lon="4.57081">
        <ele>413.4</ele>
        <time>2014-04-19T15:56:49.989Z</time>
      </trkpt>
      <trkpt lat="45.48902" lon="4.57081">
        <ele>413.4</ele>
        <time>2014-04-19T15:56:50.548Z</time>
      </trkpt>
      <trkpt lat="45.48914" lon="4.57074">
        <ele>412.6</ele>
        <time>2014-04-19T15:56:50.951Z</time>
      </trkpt>
      <trkpt lat="45.48914" lon="4.57074">
        <ele>412.6</ele>
        <time>2014-04-19T15:56:51.106Z</time>
      </trkpt>
      <trkpt lat="45.48925" lon="4.57067">
        <ele>412</ele>
        <time>2014-04-19T15:56:51.976Z</time>
      </trkpt>
      <trkpt lat="45.48925" lon="4.57067">
        <ele>412</ele>
        <time>2014-04-19T15:56:52.112Z</time>
      </trkpt>
      <trkpt lat="45.48935" lon="4.57059">
        <ele>411.3</ele>
        <time>2014-04-19T15:56:53.000Z</time>
      </trkpt>
      <trkpt lat="45.48935" lon="4.57059">
        <ele>411.3</ele>
        <time>2014-04-19T15:56:53.753Z</time>
      </trkpt>
      <trkpt lat="45.48946" lon="4.57052">
        <ele>410.9</ele>
        <time>2014-04-19T15:56:54.016Z</time>
      </trkpt>
      <trkpt lat="45.48946" lon="4.57052">
        <ele>410.9</ele>
        <time>2014-04-19T15:56:54.150Z</time>
      </trkpt>
      <trkpt lat="45.48955" lon="4.57045">
        <ele>410.9</ele>
        <time>2014-04-19T15:56:54.993Z</time>
      </trkpt>
      <trkpt lat="45.48955" lon="4.57045">
        <ele>410.9</ele>
        <time>2014-04-19T15:56:55.154Z</time>
      </trkpt>
      <trkpt lat="45.48965" lon="4.57038">
        <ele>410.6</ele>
        <time>2014-04-19T15:56:55.956Z</time>
      </trkpt>
      <trkpt lat="45.48965" lon="4.57038">
        <ele>410.6</ele>
        <time>2014-04-19T15:56:56.139Z</time>
      </trkpt>
      <trkpt lat="45.48976" lon="4.57031">
        <ele>410.3</ele>
        <time>2014-04-19T15:56:56.982Z</time>
      </trkpt>
      <trkpt lat="45.48976" lon="4.57031">
        <ele>410.3</ele>
        <time>2014-04-19T15:56:57.181Z</time>
      </trkpt>
      <trkpt lat="45.48987" lon="4.57023">
        <ele>410.1</ele>
        <time>2014-04-19T15:56:57.980Z</time>
      </trkpt>
      <trkpt lat="45.48987" lon="4.57023">
        <ele>410.1</ele>
        <time>2014-04-19T15:56:58.852Z</time>
      </trkpt>
      <trkpt lat="45.48999" lon="4.57016">
        <ele>409.7</ele>
        <time>2014-04-19T15:56:58.954Z</time>
      </trkpt>
      <trkpt lat="45.48999" lon="4.57016">
        <ele>409.7</ele>
        <time>2014-04-19T15:56:59.075Z</time>
      </trkpt>
      <trkpt lat="45.4901" lon="4.57009">
        <ele>408.8</ele>
        <time>2014-04-19T15:56:59.973Z</time>
      </trkpt>
      <trkpt lat="45.4901" lon="4.57009">
        <ele>408.8</ele>
        <time>2014-04-19T15:57:00.245Z</time>
      </trkpt>
      <trkpt lat="45.49021" lon="4.57002">
        <ele>408</ele>
        <time>2014-04-19T15:57:00.975Z</time>
      </trkpt>
      <trkpt lat="45.49021" lon="4.57002">
        <ele>408</ele>
        <time>2014-04-19T15:57:01.350Z</time>
      </trkpt>
      <trkpt lat="45.49032" lon="4.56994">
        <ele>407.3</ele>
        <time>2014-04-19T15:57:01.978Z</time>
      </trkpt>
      <trkpt lat="45.49032" lon="4.56994">
        <ele>407.3</ele>
        <time>2014-04-19T15:57:02.238Z</time>
      </trkpt>
      <trkpt lat="45.49042" lon="4.56986">
        <ele>406.5</ele>
        <time>2014-04-19T15:57:02.986Z</time>
      </trkpt>
      <trkpt lat="45.49042" lon="4.56986">
        <ele>406.5</ele>
        <time>2014-04-19T15:57:03.956Z</time>
      </trkpt>
      <trkpt lat="45.49052" lon="4.56979">
        <ele>406.1</ele>
        <time>2014-04-19T15:57:04.042Z</time>
      </trkpt>
      <trkpt lat="45.49052" lon="4.56979">
        <ele>406.1</ele>
        <time>2014-04-19T15:57:04.187Z</time>
      </trkpt>
      <trkpt lat="45.49063" lon="4.5697">
        <ele>405.7</ele>
        <time>2014-04-19T15:57:04.989Z</time>
      </trkpt>
      <trkpt lat="45.49063" lon="4.5697">
        <ele>405.7</ele>
        <time>2014-04-19T15:57:05.118Z</time>
      </trkpt>
      <trkpt lat="45.49074" lon="4.56962">
        <ele>405.5</ele>
        <time>2014-04-19T15:57:05.976Z</time>
      </trkpt>
      <trkpt lat="45.49074" lon="4.56962">
        <ele>405.5</ele>
        <time>2014-04-19T15:57:06.133Z</time>
      </trkpt>
      <trkpt lat="45.49085" lon="4.56953">
        <ele>405.2</ele>
        <time>2014-04-19T15:57:06.975Z</time>
      </trkpt>
      <trkpt lat="45.49085" lon="4.56953">
        <ele>405.2</ele>
        <time>2014-04-19T15:57:07.208Z</time>
      </trkpt>
      <trkpt lat="45.49096" lon="4.56945">
        <ele>405.1</ele>
        <time>2014-04-19T15:57:07.990Z</time>
      </trkpt>
      <trkpt lat="45.49096" lon="4.56945">
        <ele>405.1</ele>
        <time>2014-04-19T15:57:08.207Z</time>
      </trkpt>
      <trkpt lat="45.49107" lon="4.56936">
        <ele>404.7</ele>
        <time>2014-04-19T15:57:09.217Z</time>
      </trkpt>
      <trkpt lat="45.49107" lon="4.56936">
        <ele>404.7</ele>
        <time>2014-04-19T15:57:09.366Z</time>
      </trkpt>
      <trkpt lat="45.49119" lon="4.56927">
        <ele>404.3</ele>
        <time>2014-04-19T15:57:10.229Z</time>
      </trkpt>
      <trkpt lat="45.49119" lon="4.56927">
        <ele>404.3</ele>
        <time>2014-04-19T15:57:10.538Z</time>
      </trkpt>
      <trkpt lat="45.4913" lon="4.56918">
        <ele>404.2</ele>
        <time>2014-04-19T15:57:10.957Z</time>
      </trkpt>
      <trkpt lat="45.4913" lon="4.56918">
        <ele>404.2</ele>
        <time>2014-04-19T15:57:11.104Z</time>
      </trkpt>
      <trkpt lat="45.49141" lon="4.56909">
        <ele>403.9</ele>
        <time>2014-04-19T15:57:11.997Z</time>
      </trkpt>
      <trkpt lat="45.49141" lon="4.56909">
        <ele>403.9</ele>
        <time>2014-04-19T15:57:12.172Z</time>
      </trkpt>
      <trkpt lat="45.49152" lon="4.56899">
        <ele>403.6</ele>
        <time>2014-04-19T15:57:13.014Z</time>
      </trkpt>
      <trkpt lat="45.49152" lon="4.56899">
        <ele>403.6</ele>
        <time>2014-04-19T15:57:13.918Z</time>
      </trkpt>
      <trkpt lat="45.49163" lon="4.5689">
        <ele>403</ele>
        <time>2014-04-19T15:57:14.004Z</time>
      </trkpt>
      <trkpt lat="45.49163" lon="4.5689">
        <ele>403</ele>
        <time>2014-04-19T15:57:14.122Z</time>
      </trkpt>
      <trkpt lat="45.49174" lon="4.5688">
        <ele>402</ele>
        <time>2014-04-19T15:57:14.974Z</time>
      </trkpt>
      <trkpt lat="45.49174" lon="4.5688">
        <ele>402</ele>
        <time>2014-04-19T15:57:15.112Z</time>
      </trkpt>
      <trkpt lat="45.49184" lon="4.5687">
        <ele>400.9</ele>
        <time>2014-04-19T15:57:15.954Z</time>
      </trkpt>
      <trkpt lat="45.49184" lon="4.5687">
        <ele>400.9</ele>
        <time>2014-04-19T15:57:16.083Z</time>
      </trkpt>
      <trkpt lat="45.49195" lon="4.56859">
        <ele>399.7</ele>
        <time>2014-04-19T15:57:16.986Z</time>
      </trkpt>
      <trkpt lat="45.49195" lon="4.56859">
        <ele>399.7</ele>
        <time>2014-04-19T15:57:17.149Z</time>
      </trkpt>
      <trkpt lat="45.49205" lon="4.56849">
        <ele>398.6</ele>
        <time>2014-04-19T15:57:17.985Z</time>
      </trkpt>
      <trkpt lat="45.49205" lon="4.56849">
        <ele>398.6</ele>
        <time>2014-04-19T15:57:18.191Z</time>
      </trkpt>
      <trkpt lat="45.49215" lon="4.56838">
        <ele>397.6</ele>
        <time>2014-04-19T15:57:18.999Z</time>
      </trkpt>
      <trkpt lat="45.49215" lon="4.56838">
        <ele>397.6</ele>
        <time>2014-04-19T15:57:19.083Z</time>
      </trkpt>
      <trkpt lat="45.49225" lon="4.56828">
        <ele>396.6</ele>
        <time>2014-04-19T15:57:19.993Z</time>
      </trkpt>
      <trkpt lat="45.49225" lon="4.56828">
        <ele>396.6</ele>
        <time>2014-04-19T15:57:20.170Z</time>
      </trkpt>
      <trkpt lat="45.49233" lon="4.56819">
        <ele>395.6</ele>
        <time>2014-04-19T15:57:20.996Z</time>
      </trkpt>
      <trkpt lat="45.49233" lon="4.56819">
        <ele>395.6</ele>
        <time>2014-04-19T15:57:21.198Z</time>
      </trkpt>
      <trkpt lat="45.49241" lon="4.56811">
        <ele>394.6</ele>
        <time>2014-04-19T15:57:21.968Z</time>
      </trkpt>
      <trkpt lat="45.49241" lon="4.56811">
        <ele>394.6</ele>
        <time>2014-04-19T15:57:22.631Z</time>
      </trkpt>
      <trkpt lat="45.49248" lon="4.56803">
        <ele>393.7</ele>
        <time>2014-04-19T15:57:22.952Z</time>
      </trkpt>
      <trkpt lat="45.49255" lon="4.56797">
        <ele>393</ele>
        <time>2014-04-19T15:57:23.988Z</time>
      </trkpt>
      <trkpt lat="45.4926" lon="4.56791">
        <ele>392.6</ele>
        <time>2014-04-19T15:57:24.959Z</time>
      </trkpt>
      <trkpt lat="45.49266" lon="4.56786">
        <ele>392.2</ele>
        <time>2014-04-19T15:57:26.540Z</time>
      </trkpt>
      <trkpt lat="45.49272" lon="4.56782">
        <ele>392</ele>
        <time>2014-04-19T15:57:26.973Z</time>
      </trkpt>
      <trkpt lat="45.49278" lon="4.5678">
        <ele>391.6</ele>
        <time>2014-04-19T15:57:28.024Z</time>
      </trkpt>
      <trkpt lat="45.49284" lon="4.56776">
        <ele>391.3</ele>
        <time>2014-04-19T15:57:28.987Z</time>
      </trkpt>
      <trkpt lat="45.49288" lon="4.56769">
        <ele>391.1</ele>
        <time>2014-04-19T15:57:30.235Z</time>
      </trkpt>
      <trkpt lat="45.49292" lon="4.56761">
        <ele>390.7</ele>
        <time>2014-04-19T15:57:30.992Z</time>
      </trkpt>
      <trkpt lat="45.49296" lon="4.56751">
        <ele>390.5</ele>
        <time>2014-04-19T15:57:32.069Z</time>
      </trkpt>
      <trkpt lat="45.493" lon="4.56742">
        <ele>390.4</ele>
        <time>2014-04-19T15:57:32.976Z</time>
      </trkpt>
      <trkpt lat="45.49306" lon="4.56735">
        <ele>390.1</ele>
        <time>2014-04-19T15:57:34.376Z</time>
      </trkpt>
      <trkpt lat="45.49312" lon="4.56727">
        <ele>389.7</ele>
        <time>2014-04-19T15:57:34.978Z</time>
      </trkpt>
      <trkpt lat="45.49319" lon="4.56719">
        <ele>389.2</ele>
        <time>2014-04-19T15:57:36.059Z</time>
      </trkpt>
      <trkpt lat="45.49327" lon="4.56711">
        <ele>388.8</ele>
        <time>2014-04-19T15:57:36.950Z</time>
      </trkpt>
      <trkpt lat="45.49327" lon="4.56711">
        <ele>388.8</ele>
        <time>2014-04-19T15:57:37.096Z</time>
      </trkpt>
      <trkpt lat="45.49335" lon="4.56703">
        <ele>388.6</ele>
        <time>2014-04-19T15:57:37.997Z</time>
      </trkpt>
      <trkpt lat="45.49335" lon="4.56703">
        <ele>388.6</ele>
        <time>2014-04-19T15:57:38.181Z</time>
      </trkpt>
      <trkpt lat="45.49343" lon="4.56694">
        <ele>388</ele>
        <time>2014-04-19T15:57:38.961Z</time>
      </trkpt>
      <trkpt lat="45.49343" lon="4.56694">
        <ele>388</ele>
        <time>2014-04-19T15:57:39.105Z</time>
      </trkpt>
      <trkpt lat="45.4935" lon="4.56686">
        <ele>387.4</ele>
        <time>2014-04-19T15:57:39.973Z</time>
      </trkpt>
      <trkpt lat="45.4935" lon="4.56686">
        <ele>387.4</ele>
        <time>2014-04-19T15:57:40.545Z</time>
      </trkpt>
      <trkpt lat="45.49358" lon="4.56678">
        <ele>386.8</ele>
        <time>2014-04-19T15:57:40.957Z</time>
      </trkpt>
      <trkpt lat="45.49358" lon="4.56678">
        <ele>386.8</ele>
        <time>2014-04-19T15:57:41.182Z</time>
      </trkpt>
      <trkpt lat="45.49366" lon="4.56669">
        <ele>386.3</ele>
        <time>2014-04-19T15:57:42.008Z</time>
      </trkpt>
      <trkpt lat="45.49366" lon="4.56669">
        <ele>386.3</ele>
        <time>2014-04-19T15:57:42.293Z</time>
      </trkpt>
      <trkpt lat="45.49375" lon="4.5666">
        <ele>385.9</ele>
        <time>2014-04-19T15:57:42.993Z</time>
      </trkpt>
      <trkpt lat="45.49375" lon="4.5666">
        <ele>385.9</ele>
        <time>2014-04-19T15:57:43.171Z</time>
      </trkpt>
      <trkpt lat="45.49383" lon="4.56651">
        <ele>385.5</ele>
        <time>2014-04-19T15:57:43.957Z</time>
      </trkpt>
      <trkpt lat="45.49383" lon="4.56651">
        <ele>385.5</ele>
        <time>2014-04-19T15:57:44.573Z</time>
      </trkpt>
      <trkpt lat="45.49392" lon="4.56642">
        <ele>385.1</ele>
        <time>2014-04-19T15:57:44.962Z</time>
      </trkpt>
      <trkpt lat="45.49392" lon="4.56642">
        <ele>385.1</ele>
        <time>2014-04-19T15:57:45.132Z</time>
      </trkpt>
      <trkpt lat="45.49401" lon="4.56633">
        <ele>384.7</ele>
        <time>2014-04-19T15:57:45.989Z</time>
      </trkpt>
      <trkpt lat="45.49401" lon="4.56633">
        <ele>384.7</ele>
        <time>2014-04-19T15:57:46.178Z</time>
      </trkpt>
      <trkpt lat="45.49409" lon="4.56624">
        <ele>384.1</ele>
        <time>2014-04-19T15:57:46.969Z</time>
      </trkpt>
      <trkpt lat="45.49409" lon="4.56624">
        <ele>384.1</ele>
        <time>2014-04-19T15:57:47.156Z</time>
      </trkpt>
      <trkpt lat="45.49418" lon="4.56615">
        <ele>383.7</ele>
        <time>2014-04-19T15:57:47.989Z</time>
      </trkpt>
      <trkpt lat="45.49418" lon="4.56615">
        <ele>383.7</ele>
        <time>2014-04-19T15:57:48.147Z</time>
      </trkpt>
      <trkpt lat="45.49427" lon="4.56605">
        <ele>383.2</ele>
        <time>2014-04-19T15:57:48.960Z</time>
      </trkpt>
      <trkpt lat="45.49427" lon="4.56605">
        <ele>383.2</ele>
        <time>2014-04-19T15:57:49.742Z</time>
      </trkpt>
      <trkpt lat="45.49436" lon="4.56596">
        <ele>382.6</ele>
        <time>2014-04-19T15:57:49.961Z</time>
      </trkpt>
      <trkpt lat="45.49436" lon="4.56596">
        <ele>382.6</ele>
        <time>2014-04-19T15:57:50.140Z</time>
      </trkpt>
      <trkpt lat="45.49445" lon="4.56586">
        <ele>382.2</ele>
        <time>2014-04-19T15:57:51.000Z</time>
      </trkpt>
      <trkpt lat="45.49445" lon="4.56586">
        <ele>382.2</ele>
        <time>2014-04-19T15:57:51.202Z</time>
      </trkpt>
      <trkpt lat="45.49454" lon="4.56576">
        <ele>381.4</ele>
        <time>2014-04-19T15:57:51.991Z</time>
      </trkpt>
      <trkpt lat="45.49454" lon="4.56576">
        <ele>381.4</ele>
        <time>2014-04-19T15:57:52.314Z</time>
      </trkpt>
      <trkpt lat="45.49463" lon="4.56567">
        <ele>380.8</ele>
        <time>2014-04-19T15:57:52.992Z</time>
      </trkpt>
      <trkpt lat="45.49463" lon="4.56567">
        <ele>380.8</ele>
        <time>2014-04-19T15:57:53.679Z</time>
      </trkpt>
      <trkpt lat="45.49472" lon="4.56557">
        <ele>380.6</ele>
        <time>2014-04-19T15:57:53.953Z</time>
      </trkpt>
      <trkpt lat="45.49472" lon="4.56557">
        <ele>380.6</ele>
        <time>2014-04-19T15:57:54.082Z</time>
      </trkpt>
      <trkpt lat="45.4948" lon="4.56548">
        <ele>380.5</ele>
        <time>2014-04-19T15:57:54.967Z</time>
      </trkpt>
      <trkpt lat="45.4948" lon="4.56548">
        <ele>380.5</ele>
        <time>2014-04-19T15:57:55.062Z</time>
      </trkpt>
      <trkpt lat="45.49488" lon="4.5654">
        <ele>380.3</ele>
        <time>2014-04-19T15:57:55.973Z</time>
      </trkpt>
      <trkpt lat="45.49494" lon="4.56533">
        <ele>379.5</ele>
        <time>2014-04-19T15:57:57.041Z</time>
      </trkpt>
      <trkpt lat="45.49499" lon="4.56528">
        <ele>378.6</ele>
        <time>2014-04-19T15:57:57.995Z</time>
      </trkpt>
      <trkpt lat="45.49504" lon="4.56522">
        <ele>377.8</ele>
        <time>2014-04-19T15:57:58.991Z</time>
      </trkpt>
      <trkpt lat="45.49509" lon="4.56517">
        <ele>377.1</ele>
        <time>2014-04-19T15:57:59.962Z</time>
      </trkpt>
      <trkpt lat="45.49513" lon="4.56512">
        <ele>376.6</ele>
        <time>2014-04-19T15:58:00.982Z</time>
      </trkpt>
      <trkpt lat="45.49518" lon="4.56506">
        <ele>376.2</ele>
        <time>2014-04-19T15:58:01.973Z</time>
      </trkpt>
      <trkpt lat="45.49523" lon="4.56499">
        <ele>375.9</ele>
        <time>2014-04-19T15:58:03.037Z</time>
      </trkpt>
      <trkpt lat="45.49528" lon="4.56493">
        <ele>375.9</ele>
        <time>2014-04-19T15:58:04.015Z</time>
      </trkpt>
      <trkpt lat="45.49534" lon="4.56487">
        <ele>376.1</ele>
        <time>2014-04-19T15:58:04.991Z</time>
      </trkpt>
      <trkpt lat="45.4954" lon="4.5648">
        <ele>376.2</ele>
        <time>2014-04-19T15:58:05.988Z</time>
      </trkpt>
      <trkpt lat="45.49547" lon="4.56473">
        <ele>376.3</ele>
        <time>2014-04-19T15:58:07.085Z</time>
      </trkpt>
      <trkpt lat="45.49554" lon="4.56466">
        <ele>376.2</ele>
        <time>2014-04-19T15:58:07.947Z</time>
      </trkpt>
      <trkpt lat="45.49561" lon="4.56458">
        <ele>376.2</ele>
        <time>2014-04-19T15:58:09.221Z</time>
      </trkpt>
      <trkpt lat="45.49567" lon="4.56451">
        <ele>376.1</ele>
        <time>2014-04-19T15:58:10.014Z</time>
      </trkpt>
      <trkpt lat="45.49567" lon="4.56451">
        <ele>376.1</ele>
        <time>2014-04-19T15:58:10.225Z</time>
      </trkpt>
      <trkpt lat="45.49574" lon="4.56443">
        <ele>375.7</ele>
        <time>2014-04-19T15:58:10.959Z</time>
      </trkpt>
      <trkpt lat="45.49574" lon="4.56443">
        <ele>375.7</ele>
        <time>2014-04-19T15:58:11.318Z</time>
      </trkpt>
      <trkpt lat="45.49581" lon="4.56434">
        <ele>375.2</ele>
        <time>2014-04-19T15:58:11.993Z</time>
      </trkpt>
      <trkpt lat="45.49588" lon="4.56426">
        <ele>374.6</ele>
        <time>2014-04-19T15:58:13.032Z</time>
      </trkpt>
      <trkpt lat="45.49595" lon="4.56418">
        <ele>374.1</ele>
        <time>2014-04-19T15:58:13.969Z</time>
      </trkpt>
      <trkpt lat="45.49601" lon="4.56411">
        <ele>374</ele>
        <time>2014-04-19T15:58:15.042Z</time>
      </trkpt>
      <trkpt lat="45.49605" lon="4.56406">
        <ele>373.8</ele>
        <time>2014-04-19T15:58:16.024Z</time>
      </trkpt>
      <trkpt lat="45.49609" lon="4.56402">
        <ele>373.6</ele>
        <time>2014-04-19T15:58:17.080Z</time>
      </trkpt>
      <trkpt lat="45.49613" lon="4.56398">
        <ele>373.4</ele>
        <time>2014-04-19T15:58:17.991Z</time>
      </trkpt>
      <trkpt lat="45.49617" lon="4.56394">
        <ele>373.4</ele>
        <time>2014-04-19T15:58:19.103Z</time>
      </trkpt>
      <trkpt lat="45.49622" lon="4.56392">
        <ele>373.9</ele>
        <time>2014-04-19T15:58:20.001Z</time>
      </trkpt>
      <trkpt lat="45.49629" lon="4.56394">
        <ele>375.1</ele>
        <time>2014-04-19T15:58:21.990Z</time>
      </trkpt>
      <trkpt lat="45.49633" lon="4.56396">
        <ele>375.5</ele>
        <time>2014-04-19T15:58:22.990Z</time>
      </trkpt>
      <trkpt lat="45.49637" lon="4.56398">
        <ele>375.8</ele>
        <time>2014-04-19T15:58:24.179Z</time>
      </trkpt>
      <trkpt lat="45.49642" lon="4.564">
        <ele>375.4</ele>
        <time>2014-04-19T15:58:24.998Z</time>
      </trkpt>
      <trkpt lat="45.4965" lon="4.56401">
        <ele>374.5</ele>
        <time>2014-04-19T15:58:26.044Z</time>
      </trkpt>
      <trkpt lat="45.49659" lon="4.56402">
        <ele>373.5</ele>
        <time>2014-04-19T15:58:27.002Z</time>
      </trkpt>
      <trkpt lat="45.49659" lon="4.56402">
        <ele>373.5</ele>
        <time>2014-04-19T15:58:27.210Z</time>
      </trkpt>
      <trkpt lat="45.49669" lon="4.56405">
        <ele>372.6</ele>
        <time>2014-04-19T15:58:27.954Z</time>
      </trkpt>
      <trkpt lat="45.49669" lon="4.56405">
        <ele>372.6</ele>
        <time>2014-04-19T15:58:28.112Z</time>
      </trkpt>
      <trkpt lat="45.49678" lon="4.56408">
        <ele>371.7</ele>
        <time>2014-04-19T15:58:29.001Z</time>
      </trkpt>
      <trkpt lat="45.49678" lon="4.56408">
        <ele>371.7</ele>
        <time>2014-04-19T15:58:29.214Z</time>
      </trkpt>
      <trkpt lat="45.49687" lon="4.56414">
        <ele>370.5</ele>
        <time>2014-04-19T15:58:29.997Z</time>
      </trkpt>
      <trkpt lat="45.49687" lon="4.56414">
        <ele>370.5</ele>
        <time>2014-04-19T15:58:30.183Z</time>
      </trkpt>
      <trkpt lat="45.49695" lon="4.5642">
        <ele>369.7</ele>
        <time>2014-04-19T15:58:30.956Z</time>
      </trkpt>
      <trkpt lat="45.49695" lon="4.5642">
        <ele>369.7</ele>
        <time>2014-04-19T15:58:31.295Z</time>
      </trkpt>
      <trkpt lat="45.49704" lon="4.56428">
        <ele>368.7</ele>
        <time>2014-04-19T15:58:31.977Z</time>
      </trkpt>
      <trkpt lat="45.49704" lon="4.56428">
        <ele>368.7</ele>
        <time>2014-04-19T15:58:32.180Z</time>
      </trkpt>
      <trkpt lat="45.49713" lon="4.56434">
        <ele>367.7</ele>
        <time>2014-04-19T15:58:33.002Z</time>
      </trkpt>
      <trkpt lat="45.49713" lon="4.56434">
        <ele>367.7</ele>
        <time>2014-04-19T15:58:33.245Z</time>
      </trkpt>
      <trkpt lat="45.49722" lon="4.56441">
        <ele>367.1</ele>
        <time>2014-04-19T15:58:33.972Z</time>
      </trkpt>
      <trkpt lat="45.49722" lon="4.56441">
        <ele>367.1</ele>
        <time>2014-04-19T15:58:34.197Z</time>
      </trkpt>
      <trkpt lat="45.49732" lon="4.56449">
        <ele>366.5</ele>
        <time>2014-04-19T15:58:34.954Z</time>
      </trkpt>
      <trkpt lat="45.49732" lon="4.56449">
        <ele>366.5</ele>
        <time>2014-04-19T15:58:35.081Z</time>
      </trkpt>
      <trkpt lat="45.49743" lon="4.56457">
        <ele>365.8</ele>
        <time>2014-04-19T15:58:35.997Z</time>
      </trkpt>
      <trkpt lat="45.49743" lon="4.56457">
        <ele>365.8</ele>
        <time>2014-04-19T15:58:36.182Z</time>
      </trkpt>
      <trkpt lat="45.49752" lon="4.56464">
        <ele>365.3</ele>
        <time>2014-04-19T15:58:36.977Z</time>
      </trkpt>
      <trkpt lat="45.49752" lon="4.56464">
        <ele>365.3</ele>
        <time>2014-04-19T15:58:37.143Z</time>
      </trkpt>
      <trkpt lat="45.49763" lon="4.56471">
        <ele>365.3</ele>
        <time>2014-04-19T15:58:38.177Z</time>
      </trkpt>
      <trkpt lat="45.49763" lon="4.56471">
        <ele>365.3</ele>
        <time>2014-04-19T15:58:38.322Z</time>
      </trkpt>
      <trkpt lat="45.49772" lon="4.56477">
        <ele>365.4</ele>
        <time>2014-04-19T15:58:38.997Z</time>
      </trkpt>
      <trkpt lat="45.49772" lon="4.56477">
        <ele>365.4</ele>
        <time>2014-04-19T15:58:39.372Z</time>
      </trkpt>
      <trkpt lat="45.49781" lon="4.56483">
        <ele>365.8</ele>
        <time>2014-04-19T15:58:39.971Z</time>
      </trkpt>
      <trkpt lat="45.49781" lon="4.56483">
        <ele>365.8</ele>
        <time>2014-04-19T15:58:40.136Z</time>
      </trkpt>
      <trkpt lat="45.49789" lon="4.56489">
        <ele>366.6</ele>
        <time>2014-04-19T15:58:41.003Z</time>
      </trkpt>
      <trkpt lat="45.49789" lon="4.56489">
        <ele>366.6</ele>
        <time>2014-04-19T15:58:41.227Z</time>
      </trkpt>
      <trkpt lat="45.49798" lon="4.56495">
        <ele>367.2</ele>
        <time>2014-04-19T15:58:41.957Z</time>
      </trkpt>
      <trkpt lat="45.49798" lon="4.56495">
        <ele>367.2</ele>
        <time>2014-04-19T15:58:42.106Z</time>
      </trkpt>
      <trkpt lat="45.49806" lon="4.56501">
        <ele>367.5</ele>
        <time>2014-04-19T15:58:43.015Z</time>
      </trkpt>
      <trkpt lat="45.49806" lon="4.56501">
        <ele>367.5</ele>
        <time>2014-04-19T15:58:43.163Z</time>
      </trkpt>
      <trkpt lat="45.49814" lon="4.56507">
        <ele>367.8</ele>
        <time>2014-04-19T15:58:43.992Z</time>
      </trkpt>
      <trkpt lat="45.49814" lon="4.56507">
        <ele>367.8</ele>
        <time>2014-04-19T15:58:44.387Z</time>
      </trkpt>
      <trkpt lat="45.49823" lon="4.56513">
        <ele>367.8</ele>
        <time>2014-04-19T15:58:44.968Z</time>
      </trkpt>
      <trkpt lat="45.49823" lon="4.56513">
        <ele>367.8</ele>
        <time>2014-04-19T15:58:45.147Z</time>
      </trkpt>
      <trkpt lat="45.49832" lon="4.56519">
        <ele>367.6</ele>
        <time>2014-04-19T15:58:45.960Z</time>
      </trkpt>
      <trkpt lat="45.49832" lon="4.56519">
        <ele>367.6</ele>
        <time>2014-04-19T15:58:46.144Z</time>
      </trkpt>
      <trkpt lat="45.4984" lon="4.56525">
        <ele>367.2</ele>
        <time>2014-04-19T15:58:46.964Z</time>
      </trkpt>
      <trkpt lat="45.4984" lon="4.56525">
        <ele>367.2</ele>
        <time>2014-04-19T15:58:47.148Z</time>
      </trkpt>
      <trkpt lat="45.49849" lon="4.56532">
        <ele>366.6</ele>
        <time>2014-04-19T15:58:47.985Z</time>
      </trkpt>
      <trkpt lat="45.49849" lon="4.56532">
        <ele>366.6</ele>
        <time>2014-04-19T15:58:48.118Z</time>
      </trkpt>
      <trkpt lat="45.49857" lon="4.56538">
        <ele>366.2</ele>
        <time>2014-04-19T15:58:48.993Z</time>
      </trkpt>
      <trkpt lat="45.49857" lon="4.56538">
        <ele>366.2</ele>
        <time>2014-04-19T15:58:49.425Z</time>
      </trkpt>
      <trkpt lat="45.49865" lon="4.56544">
        <ele>366.1</ele>
        <time>2014-04-19T15:58:49.965Z</time>
      </trkpt>
      <trkpt lat="45.49865" lon="4.56544">
        <ele>366.1</ele>
        <time>2014-04-19T15:58:50.143Z</time>
      </trkpt>
      <trkpt lat="45.49874" lon="4.5655">
        <ele>365.7</ele>
        <time>2014-04-19T15:58:50.968Z</time>
      </trkpt>
      <trkpt lat="45.49874" lon="4.5655">
        <ele>365.7</ele>
        <time>2014-04-19T15:58:51.144Z</time>
      </trkpt>
      <trkpt lat="45.49884" lon="4.56557">
        <ele>364.8</ele>
        <time>2014-04-19T15:58:51.965Z</time>
      </trkpt>
      <trkpt lat="45.49892" lon="4.56562">
        <ele>363.8</ele>
        <time>2014-04-19T15:58:53.729Z</time>
      </trkpt>
      <trkpt lat="45.49899" lon="4.56568">
        <ele>363.1</ele>
        <time>2014-04-19T15:58:53.956Z</time>
      </trkpt>
      <trkpt lat="45.49907" lon="4.56573">
        <ele>362.6</ele>
        <time>2014-04-19T15:58:55.019Z</time>
      </trkpt>
      <trkpt lat="45.49914" lon="4.56578">
        <ele>362.2</ele>
        <time>2014-04-19T15:58:56.008Z</time>
      </trkpt>
      <trkpt lat="45.49921" lon="4.56584">
        <ele>361.9</ele>
        <time>2014-04-19T15:58:57.007Z</time>
      </trkpt>
      <trkpt lat="45.49929" lon="4.56589">
        <ele>361.7</ele>
        <time>2014-04-19T15:58:58.005Z</time>
      </trkpt>
      <trkpt lat="45.49936" lon="4.56595">
        <ele>361.6</ele>
        <time>2014-04-19T15:58:58.973Z</time>
      </trkpt>
      <trkpt lat="45.49943" lon="4.566">
        <ele>361.7</ele>
        <time>2014-04-19T15:59:00.169Z</time>
      </trkpt>
      <trkpt lat="45.49951" lon="4.56606">
        <ele>361.4</ele>
        <time>2014-04-19T15:59:01.069Z</time>
      </trkpt>
      <trkpt lat="45.49958" lon="4.56611">
        <ele>361.7</ele>
        <time>2014-04-19T15:59:01.992Z</time>
      </trkpt>
      <trkpt lat="45.49965" lon="4.56616">
        <ele>362.2</ele>
        <time>2014-04-19T15:59:03.976Z</time>
      </trkpt>
      <trkpt lat="45.49973" lon="4.56622">
        <ele>362.3</ele>
        <time>2014-04-19T15:59:04.076Z</time>
      </trkpt>
      <trkpt lat="45.4998" lon="4.56628">
        <ele>362.1</ele>
        <time>2014-04-19T15:59:05.003Z</time>
      </trkpt>
      <trkpt lat="45.49988" lon="4.56633">
        <ele>362</ele>
        <time>2014-04-19T15:59:06.003Z</time>
      </trkpt>
      <trkpt lat="45.49988" lon="4.56633">
        <ele>362</ele>
        <time>2014-04-19T15:59:06.203Z</time>
      </trkpt>
      <trkpt lat="45.49996" lon="4.5664">
        <ele>361.8</ele>
        <time>2014-04-19T15:59:07.035Z</time>
      </trkpt>
      <trkpt lat="45.50003" lon="4.56645">
        <ele>362</ele>
        <time>2014-04-19T15:59:08.077Z</time>
      </trkpt>
      <trkpt lat="45.50011" lon="4.5665">
        <ele>361.9</ele>
        <time>2014-04-19T15:59:09.045Z</time>
      </trkpt>
      <trkpt lat="45.50018" lon="4.56656">
        <ele>361.8</ele>
        <time>2014-04-19T15:59:10.027Z</time>
      </trkpt>
      <trkpt lat="45.50025" lon="4.56661">
        <ele>362.1</ele>
        <time>2014-04-19T15:59:10.960Z</time>
      </trkpt>
      <trkpt lat="45.50033" lon="4.56666">
        <ele>362.3</ele>
        <time>2014-04-19T15:59:12.083Z</time>
      </trkpt>
      <trkpt lat="45.5004" lon="4.56671">
        <ele>361.9</ele>
        <time>2014-04-19T15:59:12.954Z</time>
      </trkpt>
      <trkpt lat="45.50048" lon="4.56676">
        <ele>361.4</ele>
        <time>2014-04-19T15:59:14.190Z</time>
      </trkpt>
      <trkpt lat="45.50055" lon="4.56681">
        <ele>360.9</ele>
        <time>2014-04-19T15:59:14.981Z</time>
      </trkpt>
      <trkpt lat="45.50062" lon="4.56685">
        <ele>360.6</ele>
        <time>2014-04-19T15:59:16.003Z</time>
      </trkpt>
      <trkpt lat="45.50069" lon="4.5669">
        <ele>360.3</ele>
        <time>2014-04-19T15:59:16.997Z</time>
      </trkpt>
      <trkpt lat="45.50076" lon="4.56695">
        <ele>360</ele>
        <time>2014-04-19T15:59:18.075Z</time>
      </trkpt>
      <trkpt lat="45.50083" lon="4.567">
        <ele>359.8</ele>
        <time>2014-04-19T15:59:18.996Z</time>
      </trkpt>
      <trkpt lat="45.50089" lon="4.56705">
        <ele>359.6</ele>
        <time>2014-04-19T15:59:19.967Z</time>
      </trkpt>
      <trkpt lat="45.50096" lon="4.5671">
        <ele>359.5</ele>
        <time>2014-04-19T15:59:20.999Z</time>
      </trkpt>
      <trkpt lat="45.50103" lon="4.56714">
        <ele>359.9</ele>
        <time>2014-04-19T15:59:22.084Z</time>
      </trkpt>
      <trkpt lat="45.50111" lon="4.5672">
        <ele>360.1</ele>
        <time>2014-04-19T15:59:22.962Z</time>
      </trkpt>
      <trkpt lat="45.50118" lon="4.56725">
        <ele>360.2</ele>
        <time>2014-04-19T15:59:24.279Z</time>
      </trkpt>
      <trkpt lat="45.50125" lon="4.5673">
        <ele>360.2</ele>
        <time>2014-04-19T15:59:24.996Z</time>
      </trkpt>
      <trkpt lat="45.50133" lon="4.56736">
        <ele>360</ele>
        <time>2014-04-19T15:59:26.019Z</time>
      </trkpt>
      <trkpt lat="45.50141" lon="4.56742">
        <ele>359.8</ele>
        <time>2014-04-19T15:59:26.982Z</time>
      </trkpt>
      <trkpt lat="45.50141" lon="4.56742">
        <ele>359.8</ele>
        <time>2014-04-19T15:59:27.102Z</time>
      </trkpt>
      <trkpt lat="45.50149" lon="4.56748">
        <ele>359.1</ele>
        <time>2014-04-19T15:59:27.975Z</time>
      </trkpt>
      <trkpt lat="45.50149" lon="4.56748">
        <ele>359.1</ele>
        <time>2014-04-19T15:59:28.195Z</time>
      </trkpt>
      <trkpt lat="45.50158" lon="4.56754">
        <ele>358.7</ele>
        <time>2014-04-19T15:59:28.998Z</time>
      </trkpt>
      <trkpt lat="45.50158" lon="4.56754">
        <ele>358.7</ele>
        <time>2014-04-19T15:59:29.322Z</time>
      </trkpt>
      <trkpt lat="45.50166" lon="4.56759">
        <ele>358.5</ele>
        <time>2014-04-19T15:59:29.992Z</time>
      </trkpt>
      <trkpt lat="45.50166" lon="4.56759">
        <ele>358.5</ele>
        <time>2014-04-19T15:59:30.139Z</time>
      </trkpt>
      <trkpt lat="45.50175" lon="4.56766">
        <ele>358.3</ele>
        <time>2014-04-19T15:59:30.994Z</time>
      </trkpt>
      <trkpt lat="45.50175" lon="4.56766">
        <ele>358.3</ele>
        <time>2014-04-19T15:59:31.161Z</time>
      </trkpt>
      <trkpt lat="45.50184" lon="4.56772">
        <ele>358</ele>
        <time>2014-04-19T15:59:31.997Z</time>
      </trkpt>
      <trkpt lat="45.50184" lon="4.56772">
        <ele>358</ele>
        <time>2014-04-19T15:59:32.163Z</time>
      </trkpt>
      <trkpt lat="45.50193" lon="4.56778">
        <ele>357.8</ele>
        <time>2014-04-19T15:59:32.967Z</time>
      </trkpt>
      <trkpt lat="45.50193" lon="4.56778">
        <ele>357.8</ele>
        <time>2014-04-19T15:59:33.096Z</time>
      </trkpt>
      <trkpt lat="45.50203" lon="4.56785">
        <ele>357.1</ele>
        <time>2014-04-19T15:59:33.961Z</time>
      </trkpt>
      <trkpt lat="45.50203" lon="4.56785">
        <ele>357.1</ele>
        <time>2014-04-19T15:59:34.400Z</time>
      </trkpt>
      <trkpt lat="45.50213" lon="4.56793">
        <ele>356.1</ele>
        <time>2014-04-19T15:59:34.987Z</time>
      </trkpt>
      <trkpt lat="45.50213" lon="4.56793">
        <ele>356.1</ele>
        <time>2014-04-19T15:59:35.223Z</time>
      </trkpt>
      <trkpt lat="45.50223" lon="4.56799">
        <ele>355.2</ele>
        <time>2014-04-19T15:59:35.998Z</time>
      </trkpt>
      <trkpt lat="45.50223" lon="4.56799">
        <ele>355.2</ele>
        <time>2014-04-19T15:59:36.203Z</time>
      </trkpt>
      <trkpt lat="45.50233" lon="4.56805">
        <ele>354.3</ele>
        <time>2014-04-19T15:59:37.004Z</time>
      </trkpt>
      <trkpt lat="45.50233" lon="4.56805">
        <ele>354.3</ele>
        <time>2014-04-19T15:59:37.216Z</time>
      </trkpt>
      <trkpt lat="45.50242" lon="4.56811">
        <ele>353.4</ele>
        <time>2014-04-19T15:59:38.004Z</time>
      </trkpt>
      <trkpt lat="45.50242" lon="4.56811">
        <ele>353.4</ele>
        <time>2014-04-19T15:59:38.227Z</time>
      </trkpt>
      <trkpt lat="45.50251" lon="4.56817">
        <ele>352.7</ele>
        <time>2014-04-19T15:59:38.957Z</time>
      </trkpt>
      <trkpt lat="45.50251" lon="4.56817">
        <ele>352.7</ele>
        <time>2014-04-19T15:59:39.414Z</time>
      </trkpt>
      <trkpt lat="45.50259" lon="4.56823">
        <ele>352.2</ele>
        <time>2014-04-19T15:59:39.954Z</time>
      </trkpt>
      <trkpt lat="45.50267" lon="4.56829">
        <ele>351.8</ele>
        <time>2014-04-19T15:59:41.071Z</time>
      </trkpt>
      <trkpt lat="45.50274" lon="4.56836">
        <ele>351.4</ele>
        <time>2014-04-19T15:59:41.972Z</time>
      </trkpt>
      <trkpt lat="45.50282" lon="4.56842">
        <ele>351.1</ele>
        <time>2014-04-19T15:59:43.044Z</time>
      </trkpt>
      <trkpt lat="45.5029" lon="4.56848">
        <ele>350.6</ele>
        <time>2014-04-19T15:59:43.978Z</time>
      </trkpt>
      <trkpt lat="45.50298" lon="4.56854">
        <ele>350.1</ele>
        <time>2014-04-19T15:59:44.978Z</time>
      </trkpt>
      <trkpt lat="45.50305" lon="4.56859">
        <ele>349.6</ele>
        <time>2014-04-19T15:59:45.955Z</time>
      </trkpt>
      <trkpt lat="45.50313" lon="4.56864">
        <ele>349.4</ele>
        <time>2014-04-19T15:59:47.018Z</time>
      </trkpt>
      <trkpt lat="45.5032" lon="4.56869">
        <ele>349.2</ele>
        <time>2014-04-19T15:59:47.977Z</time>
      </trkpt>
      <trkpt lat="45.50328" lon="4.56874">
        <ele>349.1</ele>
        <time>2014-04-19T15:59:49.552Z</time>
      </trkpt>
      <trkpt lat="45.50335" lon="4.56879">
        <ele>349</ele>
        <time>2014-04-19T15:59:49.961Z</time>
      </trkpt>
      <trkpt lat="45.50341" lon="4.56884">
        <ele>348.7</ele>
        <time>2014-04-19T15:59:51.051Z</time>
      </trkpt>
      <trkpt lat="45.50347" lon="4.5689">
        <ele>348.3</ele>
        <time>2014-04-19T15:59:51.983Z</time>
      </trkpt>
      <trkpt lat="45.5035" lon="4.56898">
        <ele>348</ele>
        <time>2014-04-19T15:59:53.812Z</time>
      </trkpt>
      <trkpt lat="45.50354" lon="4.56905">
        <ele>347.6</ele>
        <time>2014-04-19T15:59:53.957Z</time>
      </trkpt>
      <trkpt lat="45.50357" lon="4.56911">
        <ele>347.1</ele>
        <time>2014-04-19T15:59:55.075Z</time>
      </trkpt>
      <trkpt lat="45.50361" lon="4.56914">
        <ele>346.8</ele>
        <time>2014-04-19T15:59:56.007Z</time>
      </trkpt>
      <trkpt lat="45.50366" lon="4.56916">
        <ele>346.5</ele>
        <time>2014-04-19T15:59:57.072Z</time>
      </trkpt>
      <trkpt lat="45.50374" lon="4.56918">
        <ele>346.5</ele>
        <time>2014-04-19T15:59:58.047Z</time>
      </trkpt>
      <trkpt lat="45.50382" lon="4.5692">
        <ele>346.7</ele>
        <time>2014-04-19T15:59:59.115Z</time>
      </trkpt>
      <trkpt lat="45.5039" lon="4.56923">
        <ele>346.8</ele>
        <time>2014-04-19T15:59:59.986Z</time>
      </trkpt>
      <trkpt lat="45.50397" lon="4.56927">
        <ele>347</ele>
        <time>2014-04-19T16:00:01.031Z</time>
      </trkpt>
      <trkpt lat="45.50405" lon="4.56931">
        <ele>347.4</ele>
        <time>2014-04-19T16:00:01.955Z</time>
      </trkpt>
      <trkpt lat="45.50413" lon="4.56935">
        <ele>347.8</ele>
        <time>2014-04-19T16:00:03.981Z</time>
      </trkpt>
      <trkpt lat="45.5042" lon="4.56939">
        <ele>348.2</ele>
        <time>2014-04-19T16:00:04.093Z</time>
      </trkpt>
      <trkpt lat="45.50428" lon="4.56944">
        <ele>348.8</ele>
        <time>2014-04-19T16:00:05.029Z</time>
      </trkpt>
      <trkpt lat="45.50435" lon="4.56948">
        <ele>349.2</ele>
        <time>2014-04-19T16:00:05.954Z</time>
      </trkpt>
      <trkpt lat="45.50442" lon="4.56953">
        <ele>349.6</ele>
        <time>2014-04-19T16:00:07.019Z</time>
      </trkpt>
      <trkpt lat="45.50449" lon="4.56958">
        <ele>349.7</ele>
        <time>2014-04-19T16:00:07.980Z</time>
      </trkpt>
      <trkpt lat="45.50456" lon="4.56963">
        <ele>349.7</ele>
        <time>2014-04-19T16:00:09.213Z</time>
      </trkpt>
      <trkpt lat="45.50463" lon="4.56967">
        <ele>349.9</ele>
        <time>2014-04-19T16:00:09.992Z</time>
      </trkpt>
      <trkpt lat="45.5047" lon="4.56972">
        <ele>350</ele>
        <time>2014-04-19T16:00:11.415Z</time>
      </trkpt>
      <trkpt lat="45.50476" lon="4.56977">
        <ele>350</ele>
        <time>2014-04-19T16:00:11.997Z</time>
      </trkpt>
      <trkpt lat="45.50482" lon="4.56981">
        <ele>349.9</ele>
        <time>2014-04-19T16:00:13.072Z</time>
      </trkpt>
      <trkpt lat="45.50488" lon="4.56986">
        <ele>349.7</ele>
        <time>2014-04-19T16:00:13.992Z</time>
      </trkpt>
      <trkpt lat="45.50494" lon="4.5699">
        <ele>349.4</ele>
        <time>2014-04-19T16:00:14.990Z</time>
      </trkpt>
      <trkpt lat="45.505" lon="4.56995">
        <ele>349.1</ele>
        <time>2014-04-19T16:00:15.990Z</time>
      </trkpt>
      <trkpt lat="45.50506" lon="4.57">
        <ele>348.6</ele>
        <time>2014-04-19T16:00:17.088Z</time>
      </trkpt>
      <trkpt lat="45.50513" lon="4.57005">
        <ele>348.7</ele>
        <time>2014-04-19T16:00:17.964Z</time>
      </trkpt>
      <trkpt lat="45.50519" lon="4.5701">
        <ele>349</ele>
        <time>2014-04-19T16:00:19.082Z</time>
      </trkpt>
      <trkpt lat="45.50524" lon="4.57014">
        <ele>349.1</ele>
        <time>2014-04-19T16:00:20.000Z</time>
      </trkpt>
      <trkpt lat="45.50531" lon="4.57019">
        <ele>349.1</ele>
        <time>2014-04-19T16:00:21.394Z</time>
      </trkpt>
      <trkpt lat="45.50537" lon="4.57024">
        <ele>349.3</ele>
        <time>2014-04-19T16:00:21.958Z</time>
      </trkpt>
      <trkpt lat="45.50543" lon="4.57029">
        <ele>349.9</ele>
        <time>2014-04-19T16:00:23.151Z</time>
      </trkpt>
      <trkpt lat="45.50549" lon="4.57034">
        <ele>350.6</ele>
        <time>2014-04-19T16:00:23.976Z</time>
      </trkpt>
      <trkpt lat="45.50555" lon="4.57038">
        <ele>351.4</ele>
        <time>2014-04-19T16:00:24.998Z</time>
      </trkpt>
      <trkpt lat="45.50561" lon="4.57043">
        <ele>352.3</ele>
        <time>2014-04-19T16:00:26.003Z</time>
      </trkpt>
      <trkpt lat="45.50566" lon="4.57047">
        <ele>353</ele>
        <time>2014-04-19T16:00:27.013Z</time>
      </trkpt>
      <trkpt lat="45.50572" lon="4.57051">
        <ele>353.5</ele>
        <time>2014-04-19T16:00:27.957Z</time>
      </trkpt>
      <trkpt lat="45.50577" lon="4.57055">
        <ele>353.9</ele>
        <time>2014-04-19T16:00:29.182Z</time>
      </trkpt>
      <trkpt lat="45.50583" lon="4.57059">
        <ele>354.4</ele>
        <time>2014-04-19T16:00:29.999Z</time>
      </trkpt>
      <trkpt lat="45.50589" lon="4.57064">
        <ele>355.2</ele>
        <time>2014-04-19T16:00:31.093Z</time>
      </trkpt>
      <trkpt lat="45.50595" lon="4.57069">
        <ele>355.8</ele>
        <time>2014-04-19T16:00:31.999Z</time>
      </trkpt>
      <trkpt lat="45.50602" lon="4.57074">
        <ele>356.3</ele>
        <time>2014-04-19T16:00:33.153Z</time>
      </trkpt>
      <trkpt lat="45.50608" lon="4.57078">
        <ele>356.7</ele>
        <time>2014-04-19T16:00:33.962Z</time>
      </trkpt>
      <trkpt lat="45.50615" lon="4.57083">
        <ele>356.3</ele>
        <time>2014-04-19T16:00:35.054Z</time>
      </trkpt>
      <trkpt lat="45.50621" lon="4.57088">
        <ele>355.5</ele>
        <time>2014-04-19T16:00:35.964Z</time>
      </trkpt>
      <trkpt lat="45.50628" lon="4.57093">
        <ele>354.9</ele>
        <time>2014-04-19T16:00:36.989Z</time>
      </trkpt>
      <trkpt lat="45.50634" lon="4.57098">
        <ele>354.5</ele>
        <time>2014-04-19T16:00:37.999Z</time>
      </trkpt>
      <trkpt lat="45.50641" lon="4.57102">
        <ele>354.3</ele>
        <time>2014-04-19T16:00:39.026Z</time>
      </trkpt>
      <trkpt lat="45.50648" lon="4.57108">
        <ele>354.5</ele>
        <time>2014-04-19T16:00:39.976Z</time>
      </trkpt>
      <trkpt lat="45.50654" lon="4.57112">
        <ele>354.9</ele>
        <time>2014-04-19T16:00:40.991Z</time>
      </trkpt>
      <trkpt lat="45.50661" lon="4.57117">
        <ele>355.6</ele>
        <time>2014-04-19T16:00:42.001Z</time>
      </trkpt>
      <trkpt lat="45.50667" lon="4.57122">
        <ele>356.1</ele>
        <time>2014-04-19T16:00:43.047Z</time>
      </trkpt>
      <trkpt lat="45.50675" lon="4.57128">
        <ele>356.4</ele>
        <time>2014-04-19T16:00:44.000Z</time>
      </trkpt>
      <trkpt lat="45.50683" lon="4.57133">
        <ele>356.5</ele>
        <time>2014-04-19T16:00:45.029Z</time>
      </trkpt>
      <trkpt lat="45.5069" lon="4.57138">
        <ele>356.3</ele>
        <time>2014-04-19T16:00:46.007Z</time>
      </trkpt>
      <trkpt lat="45.50698" lon="4.57143">
        <ele>355.8</ele>
        <time>2014-04-19T16:00:46.998Z</time>
      </trkpt>
      <trkpt lat="45.50706" lon="4.57149">
        <ele>355.3</ele>
        <time>2014-04-19T16:00:48.120Z</time>
      </trkpt>
      <trkpt lat="45.50714" lon="4.57154">
        <ele>354.9</ele>
        <time>2014-04-19T16:00:49.047Z</time>
      </trkpt>
      <trkpt lat="45.50721" lon="4.5716">
        <ele>354.7</ele>
        <time>2014-04-19T16:00:49.962Z</time>
      </trkpt>
      <trkpt lat="45.50728" lon="4.57165">
        <ele>354.6</ele>
        <time>2014-04-19T16:00:50.994Z</time>
      </trkpt>
      <trkpt lat="45.50735" lon="4.5717">
        <ele>354.5</ele>
        <time>2014-04-19T16:00:51.978Z</time>
      </trkpt>
      <trkpt lat="45.50742" lon="4.57175">
        <ele>354.1</ele>
        <time>2014-04-19T16:00:53.873Z</time>
      </trkpt>
      <trkpt lat="45.50749" lon="4.57179">
        <ele>353.8</ele>
        <time>2014-04-19T16:00:53.983Z</time>
      </trkpt>
      <trkpt lat="45.50755" lon="4.57184">
        <ele>353.3</ele>
        <time>2014-04-19T16:00:55.019Z</time>
      </trkpt>
      <trkpt lat="45.50762" lon="4.57189">
        <ele>352.7</ele>
        <time>2014-04-19T16:00:55.976Z</time>
      </trkpt>
      <trkpt lat="45.50769" lon="4.57193">
        <ele>352.2</ele>
        <time>2014-04-19T16:00:57.002Z</time>
      </trkpt>
      <trkpt lat="45.50775" lon="4.57198">
        <ele>352.1</ele>
        <time>2014-04-19T16:00:57.965Z</time>
      </trkpt>
      <trkpt lat="45.50782" lon="4.57203">
        <ele>352.5</ele>
        <time>2014-04-19T16:00:59.478Z</time>
      </trkpt>
      <trkpt lat="45.50788" lon="4.57208">
        <ele>352.7</ele>
        <time>2014-04-19T16:00:59.960Z</time>
      </trkpt>
      <trkpt lat="45.50795" lon="4.57213">
        <ele>353.1</ele>
        <time>2014-04-19T16:01:01.030Z</time>
      </trkpt>
      <trkpt lat="45.50802" lon="4.57219">
        <ele>353</ele>
        <time>2014-04-19T16:01:02.002Z</time>
      </trkpt>
      <trkpt lat="45.50808" lon="4.57225">
        <ele>352.5</ele>
        <time>2014-04-19T16:01:03.059Z</time>
      </trkpt>
      <trkpt lat="45.50816" lon="4.5723">
        <ele>351.8</ele>
        <time>2014-04-19T16:01:04.026Z</time>
      </trkpt>
      <trkpt lat="45.50823" lon="4.57237">
        <ele>350.9</ele>
        <time>2014-04-19T16:01:05.072Z</time>
      </trkpt>
      <trkpt lat="45.50829" lon="4.57244">
        <ele>350.1</ele>
        <time>2014-04-19T16:01:06.050Z</time>
      </trkpt>
      <trkpt lat="45.50836" lon="4.57252">
        <ele>349.5</ele>
        <time>2014-04-19T16:01:07.065Z</time>
      </trkpt>
      <trkpt lat="45.50841" lon="4.57261">
        <ele>348.9</ele>
        <time>2014-04-19T16:01:07.978Z</time>
      </trkpt>
      <trkpt lat="45.50846" lon="4.57271">
        <ele>348.4</ele>
        <time>2014-04-19T16:01:09.116Z</time>
      </trkpt>
      <trkpt lat="45.5085" lon="4.5728">
        <ele>348</ele>
        <time>2014-04-19T16:01:09.963Z</time>
      </trkpt>
      <trkpt lat="45.50855" lon="4.57289">
        <ele>347.2</ele>
        <time>2014-04-19T16:01:11.026Z</time>
      </trkpt>
      <trkpt lat="45.50859" lon="4.57298">
        <ele>346.7</ele>
        <time>2014-04-19T16:01:12.006Z</time>
      </trkpt>
      <trkpt lat="45.50863" lon="4.57306">
        <ele>346.2</ele>
        <time>2014-04-19T16:01:12.998Z</time>
      </trkpt>
      <trkpt lat="45.50868" lon="4.57315">
        <ele>345.7</ele>
        <time>2014-04-19T16:01:13.976Z</time>
      </trkpt>
      <trkpt lat="45.50872" lon="4.57323">
        <ele>344.9</ele>
        <time>2014-04-19T16:01:14.987Z</time>
      </trkpt>
      <trkpt lat="45.50876" lon="4.57331">
        <ele>344.3</ele>
        <time>2014-04-19T16:01:15.995Z</time>
      </trkpt>
      <trkpt lat="45.50879" lon="4.57339">
        <ele>343.9</ele>
        <time>2014-04-19T16:01:16.995Z</time>
      </trkpt>
      <trkpt lat="45.50883" lon="4.57346">
        <ele>343.9</ele>
        <time>2014-04-19T16:01:17.962Z</time>
      </trkpt>
      <trkpt lat="45.50887" lon="4.57354">
        <ele>343.6</ele>
        <time>2014-04-19T16:01:19.200Z</time>
      </trkpt>
      <trkpt lat="45.50891" lon="4.57361">
        <ele>343.5</ele>
        <time>2014-04-19T16:01:19.968Z</time>
      </trkpt>
      <trkpt lat="45.50895" lon="4.57369">
        <ele>343.4</ele>
        <time>2014-04-19T16:01:21.099Z</time>
      </trkpt>
      <trkpt lat="45.50899" lon="4.57376">
        <ele>343.4</ele>
        <time>2014-04-19T16:01:21.996Z</time>
      </trkpt>
      <trkpt lat="45.50902" lon="4.57384">
        <ele>343.6</ele>
        <time>2014-04-19T16:01:22.997Z</time>
      </trkpt>
      <trkpt lat="45.50906" lon="4.5739">
        <ele>344.2</ele>
        <time>2014-04-19T16:01:23.980Z</time>
      </trkpt>
      <trkpt lat="45.50909" lon="4.57397">
        <ele>344.5</ele>
        <time>2014-04-19T16:01:25.006Z</time>
      </trkpt>
      <trkpt lat="45.50913" lon="4.57405">
        <ele>344.8</ele>
        <time>2014-04-19T16:01:25.995Z</time>
      </trkpt>
      <trkpt lat="45.50917" lon="4.57413">
        <ele>344.7</ele>
        <time>2014-04-19T16:01:27.024Z</time>
      </trkpt>
      <trkpt lat="45.5092" lon="4.5742">
        <ele>344.8</ele>
        <time>2014-04-19T16:01:27.994Z</time>
      </trkpt>
      <trkpt lat="45.50924" lon="4.57428">
        <ele>345</ele>
        <time>2014-04-19T16:01:28.995Z</time>
      </trkpt>
      <trkpt lat="45.50927" lon="4.57437">
        <ele>345.2</ele>
        <time>2014-04-19T16:01:29.973Z</time>
      </trkpt>
      <trkpt lat="45.50929" lon="4.57446">
        <ele>345.1</ele>
        <time>2014-04-19T16:01:31.180Z</time>
      </trkpt>
      <trkpt lat="45.5093" lon="4.57456">
        <ele>344.6</ele>
        <time>2014-04-19T16:01:32.008Z</time>
      </trkpt>
      <trkpt lat="45.50932" lon="4.57465">
        <ele>344</ele>
        <time>2014-04-19T16:01:33.043Z</time>
      </trkpt>
      <trkpt lat="45.50935" lon="4.57473">
        <ele>343.8</ele>
        <time>2014-04-19T16:01:33.964Z</time>
      </trkpt>
      <trkpt lat="45.5094" lon="4.57479">
        <ele>343.7</ele>
        <time>2014-04-19T16:01:35.066Z</time>
      </trkpt>
      <trkpt lat="45.50945" lon="4.57483">
        <ele>343.5</ele>
        <time>2014-04-19T16:01:35.977Z</time>
      </trkpt>
      <trkpt lat="45.5095" lon="4.57487">
        <ele>343.6</ele>
        <time>2014-04-19T16:01:37.025Z</time>
      </trkpt>
      <trkpt lat="45.50955" lon="4.57493">
        <ele>343.7</ele>
        <time>2014-04-19T16:01:38.004Z</time>
      </trkpt>
      <trkpt lat="45.50959" lon="4.57498">
        <ele>343.7</ele>
        <time>2014-04-19T16:01:39.172Z</time>
      </trkpt>
      <trkpt lat="45.50964" lon="4.57504">
        <ele>343.8</ele>
        <time>2014-04-19T16:01:39.985Z</time>
      </trkpt>
      <trkpt lat="45.50968" lon="4.5751">
        <ele>344.4</ele>
        <time>2014-04-19T16:01:40.983Z</time>
      </trkpt>
      <trkpt lat="45.50972" lon="4.57518">
        <ele>345</ele>
        <time>2014-04-19T16:01:42.003Z</time>
      </trkpt>
      <trkpt lat="45.50976" lon="4.57526">
        <ele>345.6</ele>
        <time>2014-04-19T16:01:42.978Z</time>
      </trkpt>
      <trkpt lat="45.50979" lon="4.57532">
        <ele>346.1</ele>
        <time>2014-04-19T16:01:44.024Z</time>
      </trkpt>
      <trkpt lat="45.50982" lon="4.57538">
        <ele>346.8</ele>
        <time>2014-04-19T16:01:45.009Z</time>
      </trkpt>
      <trkpt lat="45.50985" lon="4.57544">
        <ele>347.9</ele>
        <time>2014-04-19T16:01:45.978Z</time>
      </trkpt>
      <trkpt lat="45.50989" lon="4.57551">
        <ele>348.8</ele>
        <time>2014-04-19T16:01:47.346Z</time>
      </trkpt>
      <trkpt lat="45.50992" lon="4.57558">
        <ele>349.5</ele>
        <time>2014-04-19T16:01:47.996Z</time>
      </trkpt>
      <trkpt lat="45.50996" lon="4.57566">
        <ele>349.3</ele>
        <time>2014-04-19T16:01:49.455Z</time>
      </trkpt>
      <trkpt lat="45.51" lon="4.57574">
        <ele>348.9</ele>
        <time>2014-04-19T16:01:49.966Z</time>
      </trkpt>
      <trkpt lat="45.51004" lon="4.57582">
        <ele>348.4</ele>
        <time>2014-04-19T16:01:51.026Z</time>
      </trkpt>
      <trkpt lat="45.51008" lon="4.57589">
        <ele>347.9</ele>
        <time>2014-04-19T16:01:51.989Z</time>
      </trkpt>
      <trkpt lat="45.51012" lon="4.57597">
        <ele>347.5</ele>
        <time>2014-04-19T16:01:53.202Z</time>
      </trkpt>
      <trkpt lat="45.51016" lon="4.57605">
        <ele>347.3</ele>
        <time>2014-04-19T16:01:53.995Z</time>
      </trkpt>
      <trkpt lat="45.5102" lon="4.57613">
        <ele>347.3</ele>
        <time>2014-04-19T16:01:55.029Z</time>
      </trkpt>
      <trkpt lat="45.51025" lon="4.57621">
        <ele>347.4</ele>
        <time>2014-04-19T16:01:55.981Z</time>
      </trkpt>
      <trkpt lat="45.51029" lon="4.57629">
        <ele>347.3</ele>
        <time>2014-04-19T16:01:56.993Z</time>
      </trkpt>
      <trkpt lat="45.51033" lon="4.57637">
        <ele>347.6</ele>
        <time>2014-04-19T16:01:57.967Z</time>
      </trkpt>
      <trkpt lat="45.51037" lon="4.57646">
        <ele>348.1</ele>
        <time>2014-04-19T16:01:59.334Z</time>
      </trkpt>
      <trkpt lat="45.51042" lon="4.57654">
        <ele>348.5</ele>
        <time>2014-04-19T16:01:59.970Z</time>
      </trkpt>
      <trkpt lat="45.51046" lon="4.57663">
        <ele>349</ele>
        <time>2014-04-19T16:02:01.000Z</time>
      </trkpt>
      <trkpt lat="45.5105" lon="4.57671">
        <ele>349.5</ele>
        <time>2014-04-19T16:02:02.014Z</time>
      </trkpt>
      <trkpt lat="45.51054" lon="4.57678">
        <ele>350.3</ele>
        <time>2014-04-19T16:02:03.058Z</time>
      </trkpt>
      <trkpt lat="45.51058" lon="4.57686">
        <ele>351.1</ele>
        <time>2014-04-19T16:02:04.070Z</time>
      </trkpt>
      <trkpt lat="45.51061" lon="4.57694">
        <ele>351.8</ele>
        <time>2014-04-19T16:02:05.041Z</time>
      </trkpt>
      <trkpt lat="45.51065" lon="4.57703">
        <ele>351.9</ele>
        <time>2014-04-19T16:02:05.996Z</time>
      </trkpt>
      <trkpt lat="45.51069" lon="4.57713">
        <ele>351.5</ele>
        <time>2014-04-19T16:02:07.372Z</time>
      </trkpt>
      <trkpt lat="45.51074" lon="4.57721">
        <ele>351</ele>
        <time>2014-04-19T16:02:07.977Z</time>
      </trkpt>
      <trkpt lat="45.51078" lon="4.57729">
        <ele>350.4</ele>
        <time>2014-04-19T16:02:09.377Z</time>
      </trkpt>
      <trkpt lat="45.51082" lon="4.57737">
        <ele>350.1</ele>
        <time>2014-04-19T16:02:10.000Z</time>
      </trkpt>
      <trkpt lat="45.51086" lon="4.57744">
        <ele>350</ele>
        <time>2014-04-19T16:02:11.053Z</time>
      </trkpt>
      <trkpt lat="45.51089" lon="4.57752">
        <ele>350.2</ele>
        <time>2014-04-19T16:02:12.008Z</time>
      </trkpt>
      <trkpt lat="45.51093" lon="4.57759">
        <ele>350.5</ele>
        <time>2014-04-19T16:02:12.996Z</time>
      </trkpt>
      <trkpt lat="45.51096" lon="4.57767">
        <ele>350.6</ele>
        <time>2014-04-19T16:02:13.985Z</time>
      </trkpt>
      <trkpt lat="45.511" lon="4.57774">
        <ele>351</ele>
        <time>2014-04-19T16:02:15.068Z</time>
      </trkpt>
      <trkpt lat="45.51104" lon="4.57783">
        <ele>351.6</ele>
        <time>2014-04-19T16:02:16.004Z</time>
      </trkpt>
      <trkpt lat="45.51108" lon="4.57791">
        <ele>352.2</ele>
        <time>2014-04-19T16:02:17.074Z</time>
      </trkpt>
      <trkpt lat="45.51112" lon="4.57799">
        <ele>352.6</ele>
        <time>2014-04-19T16:02:18.001Z</time>
      </trkpt>
      <trkpt lat="45.51115" lon="4.57806">
        <ele>352.6</ele>
        <time>2014-04-19T16:02:19.428Z</time>
      </trkpt>
      <trkpt lat="45.51119" lon="4.57814">
        <ele>352.3</ele>
        <time>2014-04-19T16:02:19.996Z</time>
      </trkpt>
      <trkpt lat="45.51123" lon="4.57822">
        <ele>352.5</ele>
        <time>2014-04-19T16:02:21.126Z</time>
      </trkpt>
      <trkpt lat="45.51127" lon="4.57829">
        <ele>352.8</ele>
        <time>2014-04-19T16:02:21.992Z</time>
      </trkpt>
      <trkpt lat="45.51131" lon="4.57835">
        <ele>352.8</ele>
        <time>2014-04-19T16:02:22.995Z</time>
      </trkpt>
      <trkpt lat="45.51134" lon="4.57842">
        <ele>352.7</ele>
        <time>2014-04-19T16:02:24.044Z</time>
      </trkpt>
      <trkpt lat="45.51137" lon="4.57848">
        <ele>352.7</ele>
        <time>2014-04-19T16:02:25.070Z</time>
      </trkpt>
      <trkpt lat="45.5114" lon="4.57855">
        <ele>352.8</ele>
        <time>2014-04-19T16:02:25.961Z</time>
      </trkpt>
      <trkpt lat="45.51143" lon="4.57862">
        <ele>353.3</ele>
        <time>2014-04-19T16:02:27.019Z</time>
      </trkpt>
      <trkpt lat="45.51147" lon="4.57868">
        <ele>354</ele>
        <time>2014-04-19T16:02:27.963Z</time>
      </trkpt>
      <trkpt lat="45.5115" lon="4.57874">
        <ele>354.4</ele>
        <time>2014-04-19T16:02:29.463Z</time>
      </trkpt>
      <trkpt lat="45.51153" lon="4.57881">
        <ele>354.8</ele>
        <time>2014-04-19T16:02:29.965Z</time>
      </trkpt>
      <trkpt lat="45.51157" lon="4.57888">
        <ele>355.5</ele>
        <time>2014-04-19T16:02:31.179Z</time>
      </trkpt>
      <trkpt lat="45.5116" lon="4.57895">
        <ele>355.9</ele>
        <time>2014-04-19T16:02:31.999Z</time>
      </trkpt>
      <trkpt lat="45.51164" lon="4.57903">
        <ele>356.1</ele>
        <time>2014-04-19T16:02:33.079Z</time>
      </trkpt>
      <trkpt lat="45.51167" lon="4.57909">
        <ele>356.2</ele>
        <time>2014-04-19T16:02:34.002Z</time>
      </trkpt>
      <trkpt lat="45.5117" lon="4.57916">
        <ele>356.3</ele>
        <time>2014-04-19T16:02:34.969Z</time>
      </trkpt>
      <trkpt lat="45.51173" lon="4.57923">
        <ele>356.3</ele>
        <time>2014-04-19T16:02:36.134Z</time>
      </trkpt>
      <trkpt lat="45.51176" lon="4.57928">
        <ele>356.4</ele>
        <time>2014-04-19T16:02:37.054Z</time>
      </trkpt>
      <trkpt lat="45.51179" lon="4.57935">
        <ele>356.5</ele>
        <time>2014-04-19T16:02:38.011Z</time>
      </trkpt>
      <trkpt lat="45.51182" lon="4.57942">
        <ele>357.1</ele>
        <time>2014-04-19T16:02:39.547Z</time>
      </trkpt>
      <trkpt lat="45.51185" lon="4.57948">
        <ele>357.9</ele>
        <time>2014-04-19T16:02:39.962Z</time>
      </trkpt>
      <trkpt lat="45.51187" lon="4.57954">
        <ele>358.5</ele>
        <time>2014-04-19T16:02:41.014Z</time>
      </trkpt>
      <trkpt lat="45.5119" lon="4.5796">
        <ele>358.8</ele>
        <time>2014-04-19T16:02:41.952Z</time>
      </trkpt>
      <trkpt lat="45.51195" lon="4.57971">
        <ele>359.6</ele>
        <time>2014-04-19T16:02:44.541Z</time>
      </trkpt>
      <trkpt lat="45.51197" lon="4.57975">
        <ele>360.1</ele>
        <time>2014-04-19T16:02:44.964Z</time>
      </trkpt>
      <trkpt lat="45.51199" lon="4.5798">
        <ele>360.1</ele>
        <time>2014-04-19T16:02:46.030Z</time>
      </trkpt>
      <trkpt lat="45.51202" lon="4.57987">
        <ele>360.2</ele>
        <time>2014-04-19T16:02:46.963Z</time>
      </trkpt>
      <trkpt lat="45.51206" lon="4.57993">
        <ele>360.2</ele>
        <time>2014-04-19T16:02:48.305Z</time>
      </trkpt>
      <trkpt lat="45.5121" lon="4.58">
        <ele>360.3</ele>
        <time>2014-04-19T16:02:48.962Z</time>
      </trkpt>
      <trkpt lat="45.51214" lon="4.58005">
        <ele>360.6</ele>
        <time>2014-04-19T16:02:50.012Z</time>
      </trkpt>
      <trkpt lat="45.51216" lon="4.58009">
        <ele>360.8</ele>
        <time>2014-04-19T16:02:50.981Z</time>
      </trkpt>
      <trkpt lat="45.51222" lon="4.58019">
        <ele>360.8</ele>
        <time>2014-04-19T16:02:53.712Z</time>
      </trkpt>
      <trkpt lat="45.51225" lon="4.58023">
        <ele>360.9</ele>
        <time>2014-04-19T16:02:53.961Z</time>
      </trkpt>
      <trkpt lat="45.51229" lon="4.58032">
        <ele>361.1</ele>
        <time>2014-04-19T16:02:56.043Z</time>
      </trkpt>
      <trkpt lat="45.51232" lon="4.58037">
        <ele>361.1</ele>
        <time>2014-04-19T16:02:57.018Z</time>
      </trkpt>
      <trkpt lat="45.51234" lon="4.58042">
        <ele>361</ele>
        <time>2014-04-19T16:02:58.787Z</time>
      </trkpt>
      <trkpt lat="45.51237" lon="4.58048">
        <ele>360.3</ele>
        <time>2014-04-19T16:02:58.961Z</time>
      </trkpt>
      <trkpt lat="45.51242" lon="4.58057">
        <ele>359.8</ele>
        <time>2014-04-19T16:03:00.992Z</time>
      </trkpt>
      <trkpt lat="45.51244" lon="4.58061">
        <ele>359.7</ele>
        <time>2014-04-19T16:03:01.999Z</time>
      </trkpt>
      <trkpt lat="45.51247" lon="4.58069">
        <ele>359.7</ele>
        <time>2014-04-19T16:03:03.981Z</time>
      </trkpt>
      <trkpt lat="45.51249" lon="4.58074">
        <ele>359.6</ele>
        <time>2014-04-19T16:03:05.015Z</time>
      </trkpt>
      <trkpt lat="45.51252" lon="4.5808">
        <ele>359.9</ele>
        <time>2014-04-19T16:03:06.014Z</time>
      </trkpt>
      <trkpt lat="45.51254" lon="4.58086">
        <ele>360</ele>
        <time>2014-04-19T16:03:07.000Z</time>
      </trkpt>
      <trkpt lat="45.51258" lon="4.58094">
        <ele>359.3</ele>
        <time>2014-04-19T16:03:08.034Z</time>
      </trkpt>
      <trkpt lat="45.51261" lon="4.58101">
        <ele>358.5</ele>
        <time>2014-04-19T16:03:08.956Z</time>
      </trkpt>
      <trkpt lat="45.51265" lon="4.58108">
        <ele>357.7</ele>
        <time>2014-04-19T16:03:10.026Z</time>
      </trkpt>
      <trkpt lat="45.51269" lon="4.58116">
        <ele>357</ele>
        <time>2014-04-19T16:03:10.950Z</time>
      </trkpt>
      <trkpt lat="45.51273" lon="4.58125">
        <ele>356.5</ele>
        <time>2014-04-19T16:03:11.991Z</time>
      </trkpt>
      <trkpt lat="45.51277" lon="4.58133">
        <ele>356.4</ele>
        <time>2014-04-19T16:03:12.999Z</time>
      </trkpt>
      <trkpt lat="45.51281" lon="4.58141">
        <ele>356.3</ele>
        <time>2014-04-19T16:03:14.120Z</time>
      </trkpt>
      <trkpt lat="45.51285" lon="4.5815">
        <ele>356.4</ele>
        <time>2014-04-19T16:03:14.982Z</time>
      </trkpt>
      <trkpt lat="45.51289" lon="4.5816">
        <ele>356.5</ele>
        <time>2014-04-19T16:03:16.250Z</time>
      </trkpt>
      <trkpt lat="45.51292" lon="4.58169">
        <ele>356.5</ele>
        <time>2014-04-19T16:03:16.998Z</time>
      </trkpt>
      <trkpt lat="45.51296" lon="4.58178">
        <ele>356.5</ele>
        <time>2014-04-19T16:03:18.528Z</time>
      </trkpt>
      <trkpt lat="45.51299" lon="4.58185">
        <ele>356.5</ele>
        <time>2014-04-19T16:03:19.080Z</time>
      </trkpt>
      <trkpt lat="45.51302" lon="4.58191">
        <ele>356.3</ele>
        <time>2014-04-19T16:03:20.615Z</time>
      </trkpt>
      <trkpt lat="45.51304" lon="4.58197">
        <ele>356.2</ele>
        <time>2014-04-19T16:03:20.975Z</time>
      </trkpt>
      <trkpt lat="45.51308" lon="4.58206">
        <ele>355.8</ele>
        <time>2014-04-19T16:03:22.999Z</time>
      </trkpt>
      <trkpt lat="45.51309" lon="4.5821">
        <ele>355.8</ele>
        <time>2014-04-19T16:03:24.053Z</time>
      </trkpt>
      <trkpt lat="45.51312" lon="4.5822">
        <ele>356.4</ele>
        <time>2014-04-19T16:03:32.062Z</time>
      </trkpt>
      <trkpt lat="45.51313" lon="4.58223">
        <ele>356.6</ele>
        <time>2014-04-19T16:03:32.942Z</time>
      </trkpt>
      <trkpt lat="45.51316" lon="4.58231">
        <ele>357.2</ele>
        <time>2014-04-19T16:03:35.026Z</time>
      </trkpt>
      <trkpt lat="45.51319" lon="4.58236">
        <ele>357.5</ele>
        <time>2014-04-19T16:03:36.006Z</time>
      </trkpt>
      <trkpt lat="45.51321" lon="4.58242">
        <ele>357.7</ele>
        <time>2014-04-19T16:03:37.065Z</time>
      </trkpt>
      <trkpt lat="45.51324" lon="4.5825">
        <ele>357.9</ele>
        <time>2014-04-19T16:03:38.001Z</time>
      </trkpt>
      <trkpt lat="45.51326" lon="4.58258">
        <ele>359.7</ele>
        <time>2014-04-19T16:03:39.093Z</time>
      </trkpt>
      <trkpt lat="45.51328" lon="4.58267">
        <ele>360.7</ele>
        <time>2014-04-19T16:03:40.004Z</time>
      </trkpt>
      <trkpt lat="45.51331" lon="4.58275">
        <ele>361.2</ele>
        <time>2014-04-19T16:03:41.025Z</time>
      </trkpt>
      <trkpt lat="45.51334" lon="4.58284">
        <ele>361.7</ele>
        <time>2014-04-19T16:03:41.963Z</time>
      </trkpt>
      <trkpt lat="45.51337" lon="4.58293">
        <ele>361.9</ele>
        <time>2014-04-19T16:03:43.006Z</time>
      </trkpt>
      <trkpt lat="45.51342" lon="4.58303">
        <ele>361.6</ele>
        <time>2014-04-19T16:03:43.999Z</time>
      </trkpt>
      <trkpt lat="45.51345" lon="4.58312">
        <ele>361.6</ele>
        <time>2014-04-19T16:03:45.046Z</time>
      </trkpt>
      <trkpt lat="45.51349" lon="4.58321">
        <ele>360.9</ele>
        <time>2014-04-19T16:03:45.999Z</time>
      </trkpt>
      <trkpt lat="45.51353" lon="4.5833">
        <ele>360.2</ele>
        <time>2014-04-19T16:03:47.046Z</time>
      </trkpt>
      <trkpt lat="45.51357" lon="4.58339">
        <ele>359.3</ele>
        <time>2014-04-19T16:03:47.962Z</time>
      </trkpt>
      <trkpt lat="45.51361" lon="4.58348">
        <ele>358.8</ele>
        <time>2014-04-19T16:03:49.261Z</time>
      </trkpt>
      <trkpt lat="45.51365" lon="4.58357">
        <ele>358.5</ele>
        <time>2014-04-19T16:03:49.999Z</time>
      </trkpt>
      <trkpt lat="45.51369" lon="4.58366">
        <ele>358.1</ele>
        <time>2014-04-19T16:03:51.013Z</time>
      </trkpt>
      <trkpt lat="45.51374" lon="4.58376">
        <ele>357.7</ele>
        <time>2014-04-19T16:03:52.005Z</time>
      </trkpt>
      <trkpt lat="45.51378" lon="4.58386">
        <ele>357.4</ele>
        <time>2014-04-19T16:03:53.781Z</time>
      </trkpt>
      <trkpt lat="45.51383" lon="4.58397">
        <ele>356.6</ele>
        <time>2014-04-19T16:03:53.962Z</time>
      </trkpt>
      <trkpt lat="45.51383" lon="4.58397">
        <ele>356.6</ele>
        <time>2014-04-19T16:03:54.177Z</time>
      </trkpt>
      <trkpt lat="45.51389" lon="4.58408">
        <ele>355.8</ele>
        <time>2014-04-19T16:03:54.999Z</time>
      </trkpt>
      <trkpt lat="45.51389" lon="4.58408">
        <ele>355.8</ele>
        <time>2014-04-19T16:03:55.168Z</time>
      </trkpt>
      <trkpt lat="45.51393" lon="4.5842">
        <ele>355.1</ele>
        <time>2014-04-19T16:03:55.994Z</time>
      </trkpt>
      <trkpt lat="45.51393" lon="4.5842">
        <ele>355.1</ele>
        <time>2014-04-19T16:03:56.227Z</time>
      </trkpt>
      <trkpt lat="45.51397" lon="4.58433">
        <ele>354.6</ele>
        <time>2014-04-19T16:03:56.996Z</time>
      </trkpt>
      <trkpt lat="45.51397" lon="4.58433">
        <ele>354.6</ele>
        <time>2014-04-19T16:03:57.184Z</time>
      </trkpt>
      <trkpt lat="45.51402" lon="4.58446">
        <ele>354.5</ele>
        <time>2014-04-19T16:03:57.964Z</time>
      </trkpt>
      <trkpt lat="45.51402" lon="4.58446">
        <ele>354.5</ele>
        <time>2014-04-19T16:03:58.972Z</time>
      </trkpt>
      <trkpt lat="45.51407" lon="4.58459">
        <ele>354.4</ele>
        <time>2014-04-19T16:03:59.085Z</time>
      </trkpt>
      <trkpt lat="45.51407" lon="4.58459">
        <ele>354.4</ele>
        <time>2014-04-19T16:03:59.264Z</time>
      </trkpt>
      <trkpt lat="45.51413" lon="4.58472">
        <ele>354</ele>
        <time>2014-04-19T16:04:00.066Z</time>
      </trkpt>
      <trkpt lat="45.51413" lon="4.58472">
        <ele>354</ele>
        <time>2014-04-19T16:04:00.420Z</time>
      </trkpt>
      <trkpt lat="45.51418" lon="4.58487">
        <ele>353</ele>
        <time>2014-04-19T16:04:00.968Z</time>
      </trkpt>
      <trkpt lat="45.51418" lon="4.58487">
        <ele>353</ele>
        <time>2014-04-19T16:04:01.260Z</time>
      </trkpt>
      <trkpt lat="45.51424" lon="4.58502">
        <ele>351.5</ele>
        <time>2014-04-19T16:04:01.963Z</time>
      </trkpt>
      <trkpt lat="45.51424" lon="4.58502">
        <ele>351.5</ele>
        <time>2014-04-19T16:04:02.102Z</time>
      </trkpt>
      <trkpt lat="45.5143" lon="4.58517">
        <ele>349.7</ele>
        <time>2014-04-19T16:04:02.977Z</time>
      </trkpt>
      <trkpt lat="45.5143" lon="4.58517">
        <ele>349.7</ele>
        <time>2014-04-19T16:04:04.015Z</time>
      </trkpt>
      <trkpt lat="45.51436" lon="4.58532">
        <ele>348</ele>
        <time>2014-04-19T16:04:04.098Z</time>
      </trkpt>
      <trkpt lat="45.51436" lon="4.58532">
        <ele>348</ele>
        <time>2014-04-19T16:04:04.254Z</time>
      </trkpt>
      <trkpt lat="45.51442" lon="4.58547">
        <ele>346.5</ele>
        <time>2014-04-19T16:04:05.036Z</time>
      </trkpt>
      <trkpt lat="45.51442" lon="4.58547">
        <ele>346.5</ele>
        <time>2014-04-19T16:04:05.391Z</time>
      </trkpt>
      <trkpt lat="45.51449" lon="4.58562">
        <ele>345.1</ele>
        <time>2014-04-19T16:04:05.961Z</time>
      </trkpt>
      <trkpt lat="45.51449" lon="4.58562">
        <ele>345.1</ele>
        <time>2014-04-19T16:04:06.116Z</time>
      </trkpt>
      <trkpt lat="45.51456" lon="4.58578">
        <ele>343.6</ele>
        <time>2014-04-19T16:04:06.996Z</time>
      </trkpt>
      <trkpt lat="45.51456" lon="4.58578">
        <ele>343.6</ele>
        <time>2014-04-19T16:04:07.178Z</time>
      </trkpt>
      <trkpt lat="45.51463" lon="4.58595">
        <ele>342.1</ele>
        <time>2014-04-19T16:04:08.008Z</time>
      </trkpt>
      <trkpt lat="45.51463" lon="4.58595">
        <ele>342.1</ele>
        <time>2014-04-19T16:04:08.236Z</time>
      </trkpt>
      <trkpt lat="45.5147" lon="4.58612">
        <ele>340.4</ele>
        <time>2014-04-19T16:04:09.088Z</time>
      </trkpt>
      <trkpt lat="45.5147" lon="4.58612">
        <ele>340.4</ele>
        <time>2014-04-19T16:04:09.115Z</time>
      </trkpt>
      <trkpt lat="45.51477" lon="4.58627">
        <ele>338.8</ele>
        <time>2014-04-19T16:04:09.981Z</time>
      </trkpt>
      <trkpt lat="45.51477" lon="4.58627">
        <ele>338.8</ele>
        <time>2014-04-19T16:04:10.124Z</time>
      </trkpt>
      <trkpt lat="45.51483" lon="4.58642">
        <ele>337.7</ele>
        <time>2014-04-19T16:04:11.000Z</time>
      </trkpt>
      <trkpt lat="45.51483" lon="4.58642">
        <ele>337.7</ele>
        <time>2014-04-19T16:04:11.149Z</time>
      </trkpt>
      <trkpt lat="45.51489" lon="4.58657">
        <ele>336.7</ele>
        <time>2014-04-19T16:04:11.966Z</time>
      </trkpt>
      <trkpt lat="45.51489" lon="4.58657">
        <ele>336.7</ele>
        <time>2014-04-19T16:04:12.122Z</time>
      </trkpt>
      <trkpt lat="45.51495" lon="4.58672">
        <ele>335.9</ele>
        <time>2014-04-19T16:04:12.961Z</time>
      </trkpt>
      <trkpt lat="45.51495" lon="4.58672">
        <ele>335.9</ele>
        <time>2014-04-19T16:04:13.140Z</time>
      </trkpt>
      <trkpt lat="45.51501" lon="4.58686">
        <ele>335.1</ele>
        <time>2014-04-19T16:04:14.030Z</time>
      </trkpt>
      <trkpt lat="45.51501" lon="4.58686">
        <ele>335.1</ele>
        <time>2014-04-19T16:04:14.095Z</time>
      </trkpt>
      <trkpt lat="45.51507" lon="4.58701">
        <ele>334.3</ele>
        <time>2014-04-19T16:04:14.967Z</time>
      </trkpt>
      <trkpt lat="45.51507" lon="4.58701">
        <ele>334.3</ele>
        <time>2014-04-19T16:04:15.205Z</time>
      </trkpt>
      <trkpt lat="45.51513" lon="4.58715">
        <ele>333.4</ele>
        <time>2014-04-19T16:04:16.032Z</time>
      </trkpt>
      <trkpt lat="45.51513" lon="4.58715">
        <ele>333.4</ele>
        <time>2014-04-19T16:04:16.404Z</time>
      </trkpt>
      <trkpt lat="45.51519" lon="4.5873">
        <ele>332.2</ele>
        <time>2014-04-19T16:04:17.004Z</time>
      </trkpt>
      <trkpt lat="45.51519" lon="4.5873">
        <ele>332.2</ele>
        <time>2014-04-19T16:04:17.183Z</time>
      </trkpt>
      <trkpt lat="45.51524" lon="4.58745">
        <ele>331.2</ele>
        <time>2014-04-19T16:04:18.004Z</time>
      </trkpt>
      <trkpt lat="45.51524" lon="4.58745">
        <ele>331.2</ele>
        <time>2014-04-19T16:04:18.183Z</time>
      </trkpt>
      <trkpt lat="45.5153" lon="4.58759">
        <ele>330.1</ele>
        <time>2014-04-19T16:04:19.012Z</time>
      </trkpt>
      <trkpt lat="45.5153" lon="4.58759">
        <ele>330.1</ele>
        <time>2014-04-19T16:04:19.228Z</time>
      </trkpt>
      <trkpt lat="45.51535" lon="4.58773">
        <ele>329</ele>
        <time>2014-04-19T16:04:19.992Z</time>
      </trkpt>
      <trkpt lat="45.51535" lon="4.58773">
        <ele>329</ele>
        <time>2014-04-19T16:04:20.163Z</time>
      </trkpt>
      <trkpt lat="45.51541" lon="4.58787">
        <ele>328.1</ele>
        <time>2014-04-19T16:04:21.003Z</time>
      </trkpt>
      <trkpt lat="45.51541" lon="4.58787">
        <ele>328.1</ele>
        <time>2014-04-19T16:04:21.163Z</time>
      </trkpt>
      <trkpt lat="45.51546" lon="4.588">
        <ele>327.3</ele>
        <time>2014-04-19T16:04:22.007Z</time>
      </trkpt>
      <trkpt lat="45.51546" lon="4.588">
        <ele>327.3</ele>
        <time>2014-04-19T16:04:22.207Z</time>
      </trkpt>
      <trkpt lat="45.51552" lon="4.58814">
        <ele>326.5</ele>
        <time>2014-04-19T16:04:23.014Z</time>
      </trkpt>
      <trkpt lat="45.51552" lon="4.58814">
        <ele>326.5</ele>
        <time>2014-04-19T16:04:23.193Z</time>
      </trkpt>
      <trkpt lat="45.51558" lon="4.58828">
        <ele>325.6</ele>
        <time>2014-04-19T16:04:24.002Z</time>
      </trkpt>
      <trkpt lat="45.51558" lon="4.58828">
        <ele>325.6</ele>
        <time>2014-04-19T16:04:24.220Z</time>
      </trkpt>
      <trkpt lat="45.51563" lon="4.58842">
        <ele>324.6</ele>
        <time>2014-04-19T16:04:24.992Z</time>
      </trkpt>
      <trkpt lat="45.51563" lon="4.58842">
        <ele>324.6</ele>
        <time>2014-04-19T16:04:25.128Z</time>
      </trkpt>
      <trkpt lat="45.51568" lon="4.58857">
        <ele>323.8</ele>
        <time>2014-04-19T16:04:25.998Z</time>
      </trkpt>
      <trkpt lat="45.51568" lon="4.58857">
        <ele>323.8</ele>
        <time>2014-04-19T16:04:26.189Z</time>
      </trkpt>
      <trkpt lat="45.51573" lon="4.58871">
        <ele>323.1</ele>
        <time>2014-04-19T16:04:27.012Z</time>
      </trkpt>
      <trkpt lat="45.51573" lon="4.58871">
        <ele>323.1</ele>
        <time>2014-04-19T16:04:27.597Z</time>
      </trkpt>
      <trkpt lat="45.51579" lon="4.58885">
        <ele>322.6</ele>
        <time>2014-04-19T16:04:27.961Z</time>
      </trkpt>
      <trkpt lat="45.51579" lon="4.58885">
        <ele>322.6</ele>
        <time>2014-04-19T16:04:28.089Z</time>
      </trkpt>
      <trkpt lat="45.51584" lon="4.58898">
        <ele>322.1</ele>
        <time>2014-04-19T16:04:28.998Z</time>
      </trkpt>
      <trkpt lat="45.51584" lon="4.58898">
        <ele>322.1</ele>
        <time>2014-04-19T16:04:29.229Z</time>
      </trkpt>
      <trkpt lat="45.5159" lon="4.58911">
        <ele>321.9</ele>
        <time>2014-04-19T16:04:29.982Z</time>
      </trkpt>
      <trkpt lat="45.5159" lon="4.58911">
        <ele>321.9</ele>
        <time>2014-04-19T16:04:30.129Z</time>
      </trkpt>
      <trkpt lat="45.51596" lon="4.58923">
        <ele>321.6</ele>
        <time>2014-04-19T16:04:31.095Z</time>
      </trkpt>
      <trkpt lat="45.51596" lon="4.58923">
        <ele>321.6</ele>
        <time>2014-04-19T16:04:31.367Z</time>
      </trkpt>
      <trkpt lat="45.51602" lon="4.58937">
        <ele>321.3</ele>
        <time>2014-04-19T16:04:32.003Z</time>
      </trkpt>
      <trkpt lat="45.51602" lon="4.58937">
        <ele>321.3</ele>
        <time>2014-04-19T16:04:32.173Z</time>
      </trkpt>
      <trkpt lat="45.51608" lon="4.5895">
        <ele>320.9</ele>
        <time>2014-04-19T16:04:33.003Z</time>
      </trkpt>
      <trkpt lat="45.51608" lon="4.5895">
        <ele>320.9</ele>
        <time>2014-04-19T16:04:33.216Z</time>
      </trkpt>
      <trkpt lat="45.51614" lon="4.58964">
        <ele>320.7</ele>
        <time>2014-04-19T16:04:33.999Z</time>
      </trkpt>
      <trkpt lat="45.51614" lon="4.58964">
        <ele>320.7</ele>
        <time>2014-04-19T16:04:34.338Z</time>
      </trkpt>
      <trkpt lat="45.51619" lon="4.58978">
        <ele>320.4</ele>
        <time>2014-04-19T16:04:34.966Z</time>
      </trkpt>
      <trkpt lat="45.51619" lon="4.58978">
        <ele>320.4</ele>
        <time>2014-04-19T16:04:35.069Z</time>
      </trkpt>
      <trkpt lat="45.51625" lon="4.58991">
        <ele>319.6</ele>
        <time>2014-04-19T16:04:35.999Z</time>
      </trkpt>
      <trkpt lat="45.51625" lon="4.58991">
        <ele>319.6</ele>
        <time>2014-04-19T16:04:36.132Z</time>
      </trkpt>
      <trkpt lat="45.5163" lon="4.59004">
        <ele>319.1</ele>
        <time>2014-04-19T16:04:37.004Z</time>
      </trkpt>
      <trkpt lat="45.5163" lon="4.59004">
        <ele>319.1</ele>
        <time>2014-04-19T16:04:37.184Z</time>
      </trkpt>
      <trkpt lat="45.51635" lon="4.59017">
        <ele>318.5</ele>
        <time>2014-04-19T16:04:37.996Z</time>
      </trkpt>
      <trkpt lat="45.51635" lon="4.59017">
        <ele>318.5</ele>
        <time>2014-04-19T16:04:38.171Z</time>
      </trkpt>
      <trkpt lat="45.5164" lon="4.59028">
        <ele>318.3</ele>
        <time>2014-04-19T16:04:39.079Z</time>
      </trkpt>
      <trkpt lat="45.5164" lon="4.59028">
        <ele>318.3</ele>
        <time>2014-04-19T16:04:39.381Z</time>
      </trkpt>
      <trkpt lat="45.51644" lon="4.59039">
        <ele>318.5</ele>
        <time>2014-04-19T16:04:39.960Z</time>
      </trkpt>
      <trkpt lat="45.51644" lon="4.59039">
        <ele>318.5</ele>
        <time>2014-04-19T16:04:40.087Z</time>
      </trkpt>
      <trkpt lat="45.5165" lon="4.59051">
        <ele>318.5</ele>
        <time>2014-04-19T16:04:41.009Z</time>
      </trkpt>
      <trkpt lat="45.5165" lon="4.59051">
        <ele>318.5</ele>
        <time>2014-04-19T16:04:41.105Z</time>
      </trkpt>
      <trkpt lat="45.51655" lon="4.59063">
        <ele>318.6</ele>
        <time>2014-04-19T16:04:41.965Z</time>
      </trkpt>
      <trkpt lat="45.51655" lon="4.59063">
        <ele>318.6</ele>
        <time>2014-04-19T16:04:42.145Z</time>
      </trkpt>
      <trkpt lat="45.5166" lon="4.59073">
        <ele>318.6</ele>
        <time>2014-04-19T16:04:43.045Z</time>
      </trkpt>
      <trkpt lat="45.51665" lon="4.59083">
        <ele>318.4</ele>
        <time>2014-04-19T16:04:44.033Z</time>
      </trkpt>
      <trkpt lat="45.5167" lon="4.59094">
        <ele>318</ele>
        <time>2014-04-19T16:04:44.962Z</time>
      </trkpt>
      <trkpt lat="45.51675" lon="4.59104">
        <ele>317.7</ele>
        <time>2014-04-19T16:04:46.292Z</time>
      </trkpt>
      <trkpt lat="45.51681" lon="4.59114">
        <ele>317.5</ele>
        <time>2014-04-19T16:04:46.960Z</time>
      </trkpt>
      <trkpt lat="45.51686" lon="4.59123">
        <ele>317.4</ele>
        <time>2014-04-19T16:04:47.998Z</time>
      </trkpt>
      <trkpt lat="45.51691" lon="4.59132">
        <ele>317.4</ele>
        <time>2014-04-19T16:04:49.003Z</time>
      </trkpt>
      <trkpt lat="45.51696" lon="4.59141">
        <ele>317.2</ele>
        <time>2014-04-19T16:04:50.044Z</time>
      </trkpt>
      <trkpt lat="45.51702" lon="4.5915">
        <ele>317.2</ele>
        <time>2014-04-19T16:04:50.995Z</time>
      </trkpt>
      <trkpt lat="45.51707" lon="4.59159">
        <ele>317.2</ele>
        <time>2014-04-19T16:04:52.294Z</time>
      </trkpt>
      <trkpt lat="45.51712" lon="4.59168">
        <ele>317.1</ele>
        <time>2014-04-19T16:04:52.995Z</time>
      </trkpt>
      <trkpt lat="45.51718" lon="4.59178">
        <ele>317.1</ele>
        <time>2014-04-19T16:04:54.173Z</time>
      </trkpt>
      <trkpt lat="45.51723" lon="4.59187">
        <ele>317</ele>
        <time>2014-04-19T16:04:54.964Z</time>
      </trkpt>
      <trkpt lat="45.51727" lon="4.59195">
        <ele>317</ele>
        <time>2014-04-19T16:04:56.042Z</time>
      </trkpt>
      <trkpt lat="45.51733" lon="4.59204">
        <ele>317</ele>
        <time>2014-04-19T16:04:56.982Z</time>
      </trkpt>
      <trkpt lat="45.51739" lon="4.59213">
        <ele>317</ele>
        <time>2014-04-19T16:04:58.030Z</time>
      </trkpt>
      <trkpt lat="45.51743" lon="4.59222">
        <ele>317.2</ele>
        <time>2014-04-19T16:04:58.976Z</time>
      </trkpt>
      <trkpt lat="45.51748" lon="4.5923">
        <ele>317.7</ele>
        <time>2014-04-19T16:05:00.174Z</time>
      </trkpt>
      <trkpt lat="45.51753" lon="4.59239">
        <ele>317.8</ele>
        <time>2014-04-19T16:05:00.996Z</time>
      </trkpt>
      <trkpt lat="45.51758" lon="4.59248">
        <ele>317.4</ele>
        <time>2014-04-19T16:05:02.042Z</time>
      </trkpt>
      <trkpt lat="45.51764" lon="4.59257">
        <ele>316.9</ele>
        <time>2014-04-19T16:05:03.009Z</time>
      </trkpt>
      <trkpt lat="45.51768" lon="4.59264">
        <ele>316.3</ele>
        <time>2014-04-19T16:05:04.228Z</time>
      </trkpt>
      <trkpt lat="45.51772" lon="4.59271">
        <ele>316.1</ele>
        <time>2014-04-19T16:05:05.099Z</time>
      </trkpt>
      <trkpt lat="45.51776" lon="4.59278">
        <ele>315.7</ele>
        <time>2014-04-19T16:05:06.388Z</time>
      </trkpt>
      <trkpt lat="45.51781" lon="4.59285">
        <ele>315.4</ele>
        <time>2014-04-19T16:05:06.994Z</time>
      </trkpt>
      <trkpt lat="45.51786" lon="4.59293">
        <ele>315.2</ele>
        <time>2014-04-19T16:05:07.996Z</time>
      </trkpt>
      <trkpt lat="45.51791" lon="4.59301">
        <ele>315.2</ele>
        <time>2014-04-19T16:05:09.003Z</time>
      </trkpt>
      <trkpt lat="45.51795" lon="4.59308">
        <ele>314.9</ele>
        <time>2014-04-19T16:05:10.036Z</time>
      </trkpt>
      <trkpt lat="45.51799" lon="4.59315">
        <ele>314.7</ele>
        <time>2014-04-19T16:05:10.994Z</time>
      </trkpt>
      <trkpt lat="45.51803" lon="4.59323">
        <ele>314.6</ele>
        <time>2014-04-19T16:05:12.231Z</time>
      </trkpt>
      <trkpt lat="45.51808" lon="4.59331">
        <ele>314.4</ele>
        <time>2014-04-19T16:05:12.961Z</time>
      </trkpt>
      <trkpt lat="45.51812" lon="4.59339">
        <ele>314.2</ele>
        <time>2014-04-19T16:05:14.293Z</time>
      </trkpt>
      <trkpt lat="45.51816" lon="4.59346">
        <ele>314.2</ele>
        <time>2014-04-19T16:05:15.002Z</time>
      </trkpt>
      <trkpt lat="45.5182" lon="4.59353">
        <ele>313.9</ele>
        <time>2014-04-19T16:05:16.057Z</time>
      </trkpt>
      <trkpt lat="45.51823" lon="4.5936">
        <ele>313.6</ele>
        <time>2014-04-19T16:05:17.004Z</time>
      </trkpt>
      <trkpt lat="45.51826" lon="4.59366">
        <ele>313.5</ele>
        <time>2014-04-19T16:05:17.994Z</time>
      </trkpt>
      <trkpt lat="45.51829" lon="4.59373">
        <ele>313.6</ele>
        <time>2014-04-19T16:05:18.997Z</time>
      </trkpt>
      <trkpt lat="45.51833" lon="4.59379">
        <ele>313.7</ele>
        <time>2014-04-19T16:05:19.996Z</time>
      </trkpt>
      <trkpt lat="45.51836" lon="4.59385">
        <ele>313.8</ele>
        <time>2014-04-19T16:05:21.213Z</time>
      </trkpt>
      <trkpt lat="45.5184" lon="4.59391">
        <ele>313.9</ele>
        <time>2014-04-19T16:05:21.994Z</time>
      </trkpt>
      <trkpt lat="45.51843" lon="4.59397">
        <ele>314</ele>
        <time>2014-04-19T16:05:22.963Z</time>
      </trkpt>
      <trkpt lat="45.51847" lon="4.59404">
        <ele>314</ele>
        <time>2014-04-19T16:05:24.684Z</time>
      </trkpt>
      <trkpt lat="45.51851" lon="4.5941">
        <ele>314</ele>
        <time>2014-04-19T16:05:24.958Z</time>
      </trkpt>
      <trkpt lat="45.51855" lon="4.59416">
        <ele>314.1</ele>
        <time>2014-04-19T16:05:26.079Z</time>
      </trkpt>
      <trkpt lat="45.51859" lon="4.59421">
        <ele>314.2</ele>
        <time>2014-04-19T16:05:26.966Z</time>
      </trkpt>
      <trkpt lat="45.51864" lon="4.59427">
        <ele>314.4</ele>
        <time>2014-04-19T16:05:28.279Z</time>
      </trkpt>
      <trkpt lat="45.51869" lon="4.59433">
        <ele>314.8</ele>
        <time>2014-04-19T16:05:29.004Z</time>
      </trkpt>
      <trkpt lat="45.51873" lon="4.59438">
        <ele>315.4</ele>
        <time>2014-04-19T16:05:30.007Z</time>
      </trkpt>
      <trkpt lat="45.51878" lon="4.59443">
        <ele>315.8</ele>
        <time>2014-04-19T16:05:30.983Z</time>
      </trkpt>
      <trkpt lat="45.51883" lon="4.59448">
        <ele>315.8</ele>
        <time>2014-04-19T16:05:32.058Z</time>
      </trkpt>
      <trkpt lat="45.51888" lon="4.59454">
        <ele>315.7</ele>
        <time>2014-04-19T16:05:33.008Z</time>
      </trkpt>
      <trkpt lat="45.51893" lon="4.59459">
        <ele>315.5</ele>
        <time>2014-04-19T16:05:34.049Z</time>
      </trkpt>
      <trkpt lat="45.51898" lon="4.59465">
        <ele>315.4</ele>
        <time>2014-04-19T16:05:35.112Z</time>
      </trkpt>
      <trkpt lat="45.51904" lon="4.59471">
        <ele>315.5</ele>
        <time>2014-04-19T16:05:35.992Z</time>
      </trkpt>
      <trkpt lat="45.51909" lon="4.59476">
        <ele>315.6</ele>
        <time>2014-04-19T16:05:36.975Z</time>
      </trkpt>
      <trkpt lat="45.51913" lon="4.59481">
        <ele>315.7</ele>
        <time>2014-04-19T16:05:38.077Z</time>
      </trkpt>
      <trkpt lat="45.51918" lon="4.59486">
        <ele>315.7</ele>
        <time>2014-04-19T16:05:38.955Z</time>
      </trkpt>
      <trkpt lat="45.51923" lon="4.5949">
        <ele>315.8</ele>
        <time>2014-04-19T16:05:40.192Z</time>
      </trkpt>
      <trkpt lat="45.51927" lon="4.59495">
        <ele>315.8</ele>
        <time>2014-04-19T16:05:40.999Z</time>
      </trkpt>
      <trkpt lat="45.51932" lon="4.595">
        <ele>315.9</ele>
        <time>2014-04-19T16:05:42.004Z</time>
      </trkpt>
      <trkpt lat="45.51937" lon="4.59505">
        <ele>316</ele>
        <time>2014-04-19T16:05:42.999Z</time>
      </trkpt>
      <trkpt lat="45.51941" lon="4.5951">
        <ele>316.3</ele>
        <time>2014-04-19T16:05:44.080Z</time>
      </trkpt>
      <trkpt lat="45.51945" lon="4.59514">
        <ele>316.7</ele>
        <time>2014-04-19T16:05:44.998Z</time>
      </trkpt>
      <trkpt lat="45.51949" lon="4.59519">
        <ele>317.1</ele>
        <time>2014-04-19T16:05:46.042Z</time>
      </trkpt>
      <trkpt lat="45.51954" lon="4.59524">
        <ele>317.2</ele>
        <time>2014-04-19T16:05:46.991Z</time>
      </trkpt>
      <trkpt lat="45.51958" lon="4.59529">
        <ele>317.6</ele>
        <time>2014-04-19T16:05:48.066Z</time>
      </trkpt>
      <trkpt lat="45.51963" lon="4.59534">
        <ele>317.8</ele>
        <time>2014-04-19T16:05:48.957Z</time>
      </trkpt>
      <trkpt lat="45.51968" lon="4.59538">
        <ele>318.1</ele>
        <time>2014-04-19T16:05:50.295Z</time>
      </trkpt>
      <trkpt lat="45.51972" lon="4.59543">
        <ele>318.7</ele>
        <time>2014-04-19T16:05:50.955Z</time>
      </trkpt>
      <trkpt lat="45.51977" lon="4.59548">
        <ele>319.2</ele>
        <time>2014-04-19T16:05:52.077Z</time>
      </trkpt>
      <trkpt lat="45.51982" lon="4.59552">
        <ele>319.5</ele>
        <time>2014-04-19T16:05:53.005Z</time>
      </trkpt>
      <trkpt lat="45.51987" lon="4.59557">
        <ele>319.3</ele>
        <time>2014-04-19T16:05:54.086Z</time>
      </trkpt>
      <trkpt lat="45.51992" lon="4.59562">
        <ele>319</ele>
        <time>2014-04-19T16:05:54.997Z</time>
      </trkpt>
      <trkpt lat="45.51996" lon="4.59567">
        <ele>318.9</ele>
        <time>2014-04-19T16:05:56.041Z</time>
      </trkpt>
      <trkpt lat="45.52001" lon="4.59572">
        <ele>318.8</ele>
        <time>2014-04-19T16:05:57.200Z</time>
      </trkpt>
      <trkpt lat="45.52005" lon="4.59577">
        <ele>318.6</ele>
        <time>2014-04-19T16:05:58.036Z</time>
      </trkpt>
      <trkpt lat="45.52009" lon="4.59582">
        <ele>318.8</ele>
        <time>2014-04-19T16:05:59.003Z</time>
      </trkpt>
      <trkpt lat="45.52014" lon="4.59587">
        <ele>318.9</ele>
        <time>2014-04-19T16:06:00.155Z</time>
      </trkpt>
      <trkpt lat="45.52018" lon="4.59591">
        <ele>318.7</ele>
        <time>2014-04-19T16:06:01.002Z</time>
      </trkpt>
      <trkpt lat="45.52023" lon="4.59596">
        <ele>318.7</ele>
        <time>2014-04-19T16:06:02.100Z</time>
      </trkpt>
      <trkpt lat="45.52028" lon="4.59602">
        <ele>318.7</ele>
        <time>2014-04-19T16:06:02.967Z</time>
      </trkpt>
      <trkpt lat="45.52033" lon="4.59607">
        <ele>318.9</ele>
        <time>2014-04-19T16:06:04.119Z</time>
      </trkpt>
      <trkpt lat="45.52037" lon="4.59612">
        <ele>319.2</ele>
        <time>2014-04-19T16:06:05.028Z</time>
      </trkpt>
      <trkpt lat="45.52042" lon="4.59616">
        <ele>319.5</ele>
        <time>2014-04-19T16:06:06.250Z</time>
      </trkpt>
      <trkpt lat="45.52047" lon="4.59622">
        <ele>319.8</ele>
        <time>2014-04-19T16:06:07.002Z</time>
      </trkpt>
      <trkpt lat="45.52051" lon="4.59626">
        <ele>320.1</ele>
        <time>2014-04-19T16:06:08.071Z</time>
      </trkpt>
      <trkpt lat="45.52056" lon="4.59631">
        <ele>320.1</ele>
        <time>2014-04-19T16:06:08.999Z</time>
      </trkpt>
      <trkpt lat="45.52061" lon="4.59636">
        <ele>319.8</ele>
        <time>2014-04-19T16:06:10.065Z</time>
      </trkpt>
      <trkpt lat="45.52064" lon="4.59639">
        <ele>319.8</ele>
        <time>2014-04-19T16:06:11.004Z</time>
      </trkpt>
      <trkpt lat="45.52072" lon="4.59647">
        <ele>319.1</ele>
        <time>2014-04-19T16:06:13.005Z</time>
      </trkpt>
      <trkpt lat="45.52075" lon="4.59651">
        <ele>318.7</ele>
        <time>2014-04-19T16:06:13.965Z</time>
      </trkpt>
      <trkpt lat="45.52079" lon="4.59656">
        <ele>318.4</ele>
        <time>2014-04-19T16:06:15.050Z</time>
      </trkpt>
      <trkpt lat="45.52083" lon="4.59661">
        <ele>318</ele>
        <time>2014-04-19T16:06:16.019Z</time>
      </trkpt>
      <trkpt lat="45.52088" lon="4.59666">
        <ele>317.6</ele>
        <time>2014-04-19T16:06:17.223Z</time>
      </trkpt>
      <trkpt lat="45.52092" lon="4.59671">
        <ele>317.4</ele>
        <time>2014-04-19T16:06:17.963Z</time>
      </trkpt>
      <trkpt lat="45.52096" lon="4.59676">
        <ele>317.1</ele>
        <time>2014-04-19T16:06:19.328Z</time>
      </trkpt>
      <trkpt lat="45.521" lon="4.59681">
        <ele>316.8</ele>
        <time>2014-04-19T16:06:20.002Z</time>
      </trkpt>
      <trkpt lat="45.52105" lon="4.59688">
        <ele>316.8</ele>
        <time>2014-04-19T16:06:21.394Z</time>
      </trkpt>
      <trkpt lat="45.5211" lon="4.59695">
        <ele>316.6</ele>
        <time>2014-04-19T16:06:22.003Z</time>
      </trkpt>
      <trkpt lat="45.52114" lon="4.59702">
        <ele>315.9</ele>
        <time>2014-04-19T16:06:23.058Z</time>
      </trkpt>
      <trkpt lat="45.52118" lon="4.5971">
        <ele>315.3</ele>
        <time>2014-04-19T16:06:23.980Z</time>
      </trkpt>
      <trkpt lat="45.52122" lon="4.59718">
        <ele>314.9</ele>
        <time>2014-04-19T16:06:25.210Z</time>
      </trkpt>
      <trkpt lat="45.52126" lon="4.59727">
        <ele>314.5</ele>
        <time>2014-04-19T16:06:26.008Z</time>
      </trkpt>
      <trkpt lat="45.5213" lon="4.59736">
        <ele>314.1</ele>
        <time>2014-04-19T16:06:27.070Z</time>
      </trkpt>
      <trkpt lat="45.52134" lon="4.59746">
        <ele>313.7</ele>
        <time>2014-04-19T16:06:27.999Z</time>
      </trkpt>
      <trkpt lat="45.52138" lon="4.59756">
        <ele>313.5</ele>
        <time>2014-04-19T16:06:29.389Z</time>
      </trkpt>
      <trkpt lat="45.52141" lon="4.59767">
        <ele>313.2</ele>
        <time>2014-04-19T16:06:29.963Z</time>
      </trkpt>
      <trkpt lat="45.52144" lon="4.59777">
        <ele>313</ele>
        <time>2014-04-19T16:06:31.049Z</time>
      </trkpt>
      <trkpt lat="45.52147" lon="4.59788">
        <ele>312.8</ele>
        <time>2014-04-19T16:06:31.982Z</time>
      </trkpt>
      <trkpt lat="45.52151" lon="4.59799">
        <ele>312.6</ele>
        <time>2014-04-19T16:06:33.127Z</time>
      </trkpt>
      <trkpt lat="45.52154" lon="4.5981">
        <ele>312.7</ele>
        <time>2014-04-19T16:06:34.000Z</time>
      </trkpt>
      <trkpt lat="45.52157" lon="4.59821">
        <ele>312.6</ele>
        <time>2014-04-19T16:06:34.965Z</time>
      </trkpt>
      <trkpt lat="45.5216" lon="4.59832">
        <ele>312.6</ele>
        <time>2014-04-19T16:06:36.003Z</time>
      </trkpt>
      <trkpt lat="45.52163" lon="4.59843">
        <ele>312.6</ele>
        <time>2014-04-19T16:06:37.071Z</time>
      </trkpt>
      <trkpt lat="45.52166" lon="4.59854">
        <ele>312.7</ele>
        <time>2014-04-19T16:06:37.970Z</time>
      </trkpt>
      <trkpt lat="45.52169" lon="4.59865">
        <ele>312.7</ele>
        <time>2014-04-19T16:06:39.414Z</time>
      </trkpt>
      <trkpt lat="45.52172" lon="4.59876">
        <ele>312.7</ele>
        <time>2014-04-19T16:06:40.010Z</time>
      </trkpt>
      <trkpt lat="45.52175" lon="4.59886">
        <ele>312.8</ele>
        <time>2014-04-19T16:06:41.095Z</time>
      </trkpt>
      <trkpt lat="45.52178" lon="4.59896">
        <ele>312.5</ele>
        <time>2014-04-19T16:06:41.965Z</time>
      </trkpt>
      <trkpt lat="45.52182" lon="4.59907">
        <ele>312.2</ele>
        <time>2014-04-19T16:06:43.124Z</time>
      </trkpt>
      <trkpt lat="45.52184" lon="4.59918">
        <ele>312.2</ele>
        <time>2014-04-19T16:06:44.005Z</time>
      </trkpt>
      <trkpt lat="45.52187" lon="4.59929">
        <ele>312.1</ele>
        <time>2014-04-19T16:06:45.016Z</time>
      </trkpt>
      <trkpt lat="45.5219" lon="4.5994">
        <ele>312.1</ele>
        <time>2014-04-19T16:06:45.981Z</time>
      </trkpt>
      <trkpt lat="45.52193" lon="4.59951">
        <ele>312</ele>
        <time>2014-04-19T16:06:47.055Z</time>
      </trkpt>
      <trkpt lat="45.52196" lon="4.59963">
        <ele>311.7</ele>
        <time>2014-04-19T16:06:48.001Z</time>
      </trkpt>
      <trkpt lat="45.52199" lon="4.59974">
        <ele>311.3</ele>
        <time>2014-04-19T16:06:49.807Z</time>
      </trkpt>
      <trkpt lat="45.52203" lon="4.59985">
        <ele>310.6</ele>
        <time>2014-04-19T16:06:49.985Z</time>
      </trkpt>
      <trkpt lat="45.52206" lon="4.59996">
        <ele>309.8</ele>
        <time>2014-04-19T16:06:51.026Z</time>
      </trkpt>
      <trkpt lat="45.5221" lon="4.60007">
        <ele>309.3</ele>
        <time>2014-04-19T16:06:51.964Z</time>
      </trkpt>
      <trkpt lat="45.52213" lon="4.60018">
        <ele>308.9</ele>
        <time>2014-04-19T16:06:53.731Z</time>
      </trkpt>
      <trkpt lat="45.52216" lon="4.60028">
        <ele>308.5</ele>
        <time>2014-04-19T16:06:53.969Z</time>
      </trkpt>
      <trkpt lat="45.52219" lon="4.60039">
        <ele>308.1</ele>
        <time>2014-04-19T16:06:55.037Z</time>
      </trkpt>
      <trkpt lat="45.52222" lon="4.60049">
        <ele>307.8</ele>
        <time>2014-04-19T16:06:56.004Z</time>
      </trkpt>
      <trkpt lat="45.52225" lon="4.60059">
        <ele>307.3</ele>
        <time>2014-04-19T16:06:57.073Z</time>
      </trkpt>
      <trkpt lat="45.52229" lon="4.6007">
        <ele>307</ele>
        <time>2014-04-19T16:06:58.005Z</time>
      </trkpt>
      <trkpt lat="45.52232" lon="4.6008">
        <ele>306.6</ele>
        <time>2014-04-19T16:06:58.995Z</time>
      </trkpt>
      <trkpt lat="45.52235" lon="4.6009">
        <ele>306.4</ele>
        <time>2014-04-19T16:06:59.980Z</time>
      </trkpt>
      <trkpt lat="45.52239" lon="4.601">
        <ele>306.2</ele>
        <time>2014-04-19T16:07:01.019Z</time>
      </trkpt>
      <trkpt lat="45.52242" lon="4.60111">
        <ele>306.1</ele>
        <time>2014-04-19T16:07:01.995Z</time>
      </trkpt>
      <trkpt lat="45.52242" lon="4.60111">
        <ele>306.1</ele>
        <time>2014-04-19T16:07:02.161Z</time>
      </trkpt>
      <trkpt lat="45.52246" lon="4.60123">
        <ele>306.3</ele>
        <time>2014-04-19T16:07:03.005Z</time>
      </trkpt>
      <trkpt lat="45.52246" lon="4.60123">
        <ele>306.3</ele>
        <time>2014-04-19T16:07:03.804Z</time>
      </trkpt>
      <trkpt lat="45.5225" lon="4.60135">
        <ele>306.3</ele>
        <time>2014-04-19T16:07:03.970Z</time>
      </trkpt>
      <trkpt lat="45.5225" lon="4.60135">
        <ele>306.3</ele>
        <time>2014-04-19T16:07:04.320Z</time>
      </trkpt>
      <trkpt lat="45.52254" lon="4.60147">
        <ele>306.3</ele>
        <time>2014-04-19T16:07:05.011Z</time>
      </trkpt>
      <trkpt lat="45.52254" lon="4.60147">
        <ele>306.3</ele>
        <time>2014-04-19T16:07:05.152Z</time>
      </trkpt>
      <trkpt lat="45.52257" lon="4.60159">
        <ele>306.3</ele>
        <time>2014-04-19T16:07:06.003Z</time>
      </trkpt>
      <trkpt lat="45.52257" lon="4.60159">
        <ele>306.3</ele>
        <time>2014-04-19T16:07:06.173Z</time>
      </trkpt>
      <trkpt lat="45.52261" lon="4.60171">
        <ele>306.3</ele>
        <time>2014-04-19T16:07:07.024Z</time>
      </trkpt>
      <trkpt lat="45.52261" lon="4.60171">
        <ele>306.3</ele>
        <time>2014-04-19T16:07:07.379Z</time>
      </trkpt>
      <trkpt lat="45.52265" lon="4.60183">
        <ele>306.3</ele>
        <time>2014-04-19T16:07:07.994Z</time>
      </trkpt>
      <trkpt lat="45.52265" lon="4.60183">
        <ele>306.3</ele>
        <time>2014-04-19T16:07:08.786Z</time>
      </trkpt>
      <trkpt lat="45.52268" lon="4.60195">
        <ele>306.3</ele>
        <time>2014-04-19T16:07:08.952Z</time>
      </trkpt>
      <trkpt lat="45.52268" lon="4.60195">
        <ele>306.3</ele>
        <time>2014-04-19T16:07:09.085Z</time>
      </trkpt>
      <trkpt lat="45.52272" lon="4.60208">
        <ele>306.3</ele>
        <time>2014-04-19T16:07:09.995Z</time>
      </trkpt>
      <trkpt lat="45.52272" lon="4.60208">
        <ele>306.3</ele>
        <time>2014-04-19T16:07:10.155Z</time>
      </trkpt>
      <trkpt lat="45.52275" lon="4.60221">
        <ele>306.1</ele>
        <time>2014-04-19T16:07:10.992Z</time>
      </trkpt>
      <trkpt lat="45.52275" lon="4.60221">
        <ele>306.1</ele>
        <time>2014-04-19T16:07:11.233Z</time>
      </trkpt>
      <trkpt lat="45.52279" lon="4.60234">
        <ele>305.7</ele>
        <time>2014-04-19T16:07:11.988Z</time>
      </trkpt>
      <trkpt lat="45.52279" lon="4.60234">
        <ele>305.7</ele>
        <time>2014-04-19T16:07:12.156Z</time>
      </trkpt>
      <trkpt lat="45.52283" lon="4.60247">
        <ele>305.4</ele>
        <time>2014-04-19T16:07:12.995Z</time>
      </trkpt>
      <trkpt lat="45.52283" lon="4.60247">
        <ele>305.4</ele>
        <time>2014-04-19T16:07:13.983Z</time>
      </trkpt>
      <trkpt lat="45.52286" lon="4.6026">
        <ele>305</ele>
        <time>2014-04-19T16:07:14.082Z</time>
      </trkpt>
      <trkpt lat="45.52286" lon="4.6026">
        <ele>305</ele>
        <time>2014-04-19T16:07:14.243Z</time>
      </trkpt>
      <trkpt lat="45.5229" lon="4.60272">
        <ele>304.4</ele>
        <time>2014-04-19T16:07:15.000Z</time>
      </trkpt>
      <trkpt lat="45.5229" lon="4.60272">
        <ele>304.4</ele>
        <time>2014-04-19T16:07:15.180Z</time>
      </trkpt>
      <trkpt lat="45.52294" lon="4.60285">
        <ele>303.9</ele>
        <time>2014-04-19T16:07:16.008Z</time>
      </trkpt>
      <trkpt lat="45.52294" lon="4.60285">
        <ele>303.9</ele>
        <time>2014-04-19T16:07:16.212Z</time>
      </trkpt>
      <trkpt lat="45.52298" lon="4.60297">
        <ele>303.3</ele>
        <time>2014-04-19T16:07:17.013Z</time>
      </trkpt>
      <trkpt lat="45.52298" lon="4.60297">
        <ele>303.3</ele>
        <time>2014-04-19T16:07:17.216Z</time>
      </trkpt>
      <trkpt lat="45.52301" lon="4.60309">
        <ele>302.6</ele>
        <time>2014-04-19T16:07:18.001Z</time>
      </trkpt>
      <trkpt lat="45.52301" lon="4.60309">
        <ele>302.6</ele>
        <time>2014-04-19T16:07:18.211Z</time>
      </trkpt>
      <trkpt lat="45.52305" lon="4.60322">
        <ele>302</ele>
        <time>2014-04-19T16:07:19.227Z</time>
      </trkpt>
      <trkpt lat="45.52308" lon="4.60333">
        <ele>301.5</ele>
        <time>2014-04-19T16:07:19.989Z</time>
      </trkpt>
      <trkpt lat="45.52311" lon="4.60345">
        <ele>301.1</ele>
        <time>2014-04-19T16:07:21.004Z</time>
      </trkpt>
      <trkpt lat="45.52315" lon="4.60357">
        <ele>300.8</ele>
        <time>2014-04-19T16:07:22.029Z</time>
      </trkpt>
      <trkpt lat="45.52318" lon="4.60369">
        <ele>300.7</ele>
        <time>2014-04-19T16:07:23.051Z</time>
      </trkpt>
      <trkpt lat="45.52318" lon="4.60369">
        <ele>300.7</ele>
        <time>2014-04-19T16:07:24.050Z</time>
      </trkpt>
      <trkpt lat="45.52326" lon="4.60394">
        <ele>300.7</ele>
        <time>2014-04-19T16:07:25.008Z</time>
      </trkpt>
      <trkpt lat="45.52326" lon="4.60394">
        <ele>300.7</ele>
        <time>2014-04-19T16:07:25.210Z</time>
      </trkpt>
      <trkpt lat="45.5233" lon="4.60406">
        <ele>300.5</ele>
        <time>2014-04-19T16:07:26.036Z</time>
      </trkpt>
      <trkpt lat="45.5233" lon="4.60406">
        <ele>300.5</ele>
        <time>2014-04-19T16:07:26.337Z</time>
      </trkpt>
      <trkpt lat="45.52334" lon="4.60419">
        <ele>300</ele>
        <time>2014-04-19T16:07:27.003Z</time>
      </trkpt>
      <trkpt lat="45.52334" lon="4.60419">
        <ele>300</ele>
        <time>2014-04-19T16:07:27.200Z</time>
      </trkpt>
      <trkpt lat="45.52338" lon="4.60432">
        <ele>299.6</ele>
        <time>2014-04-19T16:07:28.123Z</time>
      </trkpt>
      <trkpt lat="45.52338" lon="4.60432">
        <ele>299.6</ele>
        <time>2014-04-19T16:07:28.305Z</time>
      </trkpt>
      <trkpt lat="45.52342" lon="4.60445">
        <ele>299.3</ele>
        <time>2014-04-19T16:07:29.142Z</time>
      </trkpt>
      <trkpt lat="45.52342" lon="4.60445">
        <ele>299.3</ele>
        <time>2014-04-19T16:07:29.311Z</time>
      </trkpt>
      <trkpt lat="45.52346" lon="4.60457">
        <ele>298.8</ele>
        <time>2014-04-19T16:07:29.976Z</time>
      </trkpt>
      <trkpt lat="45.52346" lon="4.60457">
        <ele>298.8</ele>
        <time>2014-04-19T16:07:30.656Z</time>
      </trkpt>
      <trkpt lat="45.5235" lon="4.60471">
        <ele>298.4</ele>
        <time>2014-04-19T16:07:30.942Z</time>
      </trkpt>
      <trkpt lat="45.5235" lon="4.60471">
        <ele>298.4</ele>
        <time>2014-04-19T16:07:31.123Z</time>
      </trkpt>
      <trkpt lat="45.52354" lon="4.60484">
        <ele>297.9</ele>
        <time>2014-04-19T16:07:31.986Z</time>
      </trkpt>
      <trkpt lat="45.52354" lon="4.60484">
        <ele>297.9</ele>
        <time>2014-04-19T16:07:32.179Z</time>
      </trkpt>
      <trkpt lat="45.52359" lon="4.60497">
        <ele>297.4</ele>
        <time>2014-04-19T16:07:32.945Z</time>
      </trkpt>
      <trkpt lat="45.52359" lon="4.60497">
        <ele>297.4</ele>
        <time>2014-04-19T16:07:33.081Z</time>
      </trkpt>
      <trkpt lat="45.52363" lon="4.6051">
        <ele>297.4</ele>
        <time>2014-04-19T16:07:33.951Z</time>
      </trkpt>
      <trkpt lat="45.52363" lon="4.6051">
        <ele>297.4</ele>
        <time>2014-04-19T16:07:34.148Z</time>
      </trkpt>
      <trkpt lat="45.52367" lon="4.60523">
        <ele>297.6</ele>
        <time>2014-04-19T16:07:34.953Z</time>
      </trkpt>
      <trkpt lat="45.52367" lon="4.60523">
        <ele>297.6</ele>
        <time>2014-04-19T16:07:35.154Z</time>
      </trkpt>
      <trkpt lat="45.5237" lon="4.60535">
        <ele>297.6</ele>
        <time>2014-04-19T16:07:35.987Z</time>
      </trkpt>
      <trkpt lat="45.5237" lon="4.60535">
        <ele>297.6</ele>
        <time>2014-04-19T16:07:36.158Z</time>
      </trkpt>
      <trkpt lat="45.52374" lon="4.60547">
        <ele>297.6</ele>
        <time>2014-04-19T16:07:36.964Z</time>
      </trkpt>
      <trkpt lat="45.52377" lon="4.60558">
        <ele>297.6</ele>
        <time>2014-04-19T16:07:38.042Z</time>
      </trkpt>
      <trkpt lat="45.52381" lon="4.60569">
        <ele>297.4</ele>
        <time>2014-04-19T16:07:38.982Z</time>
      </trkpt>
      <trkpt lat="45.52384" lon="4.6058">
        <ele>297</ele>
        <time>2014-04-19T16:07:40.047Z</time>
      </trkpt>
      <trkpt lat="45.52388" lon="4.60592">
        <ele>296.6</ele>
        <time>2014-04-19T16:07:40.987Z</time>
      </trkpt>
      <trkpt lat="45.52391" lon="4.60602">
        <ele>296</ele>
        <time>2014-04-19T16:07:42.030Z</time>
      </trkpt>
      <trkpt lat="45.52394" lon="4.60613">
        <ele>295.5</ele>
        <time>2014-04-19T16:07:42.949Z</time>
      </trkpt>
      <trkpt lat="45.52397" lon="4.60623">
        <ele>295.5</ele>
        <time>2014-04-19T16:07:44.600Z</time>
      </trkpt>
      <trkpt lat="45.52399" lon="4.60633">
        <ele>295.6</ele>
        <time>2014-04-19T16:07:44.946Z</time>
      </trkpt>
      <trkpt lat="45.52402" lon="4.60643">
        <ele>295.8</ele>
        <time>2014-04-19T16:07:45.996Z</time>
      </trkpt>
      <trkpt lat="45.52404" lon="4.60652">
        <ele>295.8</ele>
        <time>2014-04-19T16:07:46.964Z</time>
      </trkpt>
      <trkpt lat="45.52407" lon="4.60661">
        <ele>295.9</ele>
        <time>2014-04-19T16:07:48.296Z</time>
      </trkpt>
      <trkpt lat="45.52409" lon="4.6067">
        <ele>296.1</ele>
        <time>2014-04-19T16:07:48.992Z</time>
      </trkpt>
      <trkpt lat="45.52412" lon="4.60678">
        <ele>296.2</ele>
        <time>2014-04-19T16:07:50.034Z</time>
      </trkpt>
      <trkpt lat="45.52415" lon="4.60687">
        <ele>296.2</ele>
        <time>2014-04-19T16:07:50.980Z</time>
      </trkpt>
      <trkpt lat="45.52418" lon="4.60695">
        <ele>296.2</ele>
        <time>2014-04-19T16:07:51.995Z</time>
      </trkpt>
      <trkpt lat="45.52422" lon="4.60703">
        <ele>296.3</ele>
        <time>2014-04-19T16:07:52.959Z</time>
      </trkpt>
      <trkpt lat="45.52425" lon="4.60711">
        <ele>296.4</ele>
        <time>2014-04-19T16:07:53.987Z</time>
      </trkpt>
      <trkpt lat="45.52428" lon="4.60719">
        <ele>296.2</ele>
        <time>2014-04-19T16:07:54.993Z</time>
      </trkpt>
      <trkpt lat="45.52431" lon="4.60725">
        <ele>296</ele>
        <time>2014-04-19T16:07:56.061Z</time>
      </trkpt>
      <trkpt lat="45.52434" lon="4.60732">
        <ele>296</ele>
        <time>2014-04-19T16:07:56.988Z</time>
      </trkpt>
      <trkpt lat="45.52437" lon="4.60738">
        <ele>296.1</ele>
        <time>2014-04-19T16:07:58.036Z</time>
      </trkpt>
      <trkpt lat="45.5244" lon="4.60744">
        <ele>296.6</ele>
        <time>2014-04-19T16:07:59.110Z</time>
      </trkpt>
      <trkpt lat="45.52443" lon="4.60751">
        <ele>297.1</ele>
        <time>2014-04-19T16:08:00.186Z</time>
      </trkpt>
      <trkpt lat="45.52446" lon="4.60759">
        <ele>297.3</ele>
        <time>2014-04-19T16:08:00.967Z</time>
      </trkpt>
      <trkpt lat="45.52449" lon="4.60768">
        <ele>297.5</ele>
        <time>2014-04-19T16:08:02.041Z</time>
      </trkpt>
      <trkpt lat="45.52452" lon="4.60776">
        <ele>298</ele>
        <time>2014-04-19T16:08:02.977Z</time>
      </trkpt>
      <trkpt lat="45.52456" lon="4.60786">
        <ele>298.8</ele>
        <time>2014-04-19T16:08:04.161Z</time>
      </trkpt>
      <trkpt lat="45.52459" lon="4.60795">
        <ele>299.2</ele>
        <time>2014-04-19T16:08:04.997Z</time>
      </trkpt>
      <trkpt lat="45.52463" lon="4.60805">
        <ele>299.6</ele>
        <time>2014-04-19T16:08:06.038Z</time>
      </trkpt>
      <trkpt lat="45.52466" lon="4.60814">
        <ele>299.4</ele>
        <time>2014-04-19T16:08:07.003Z</time>
      </trkpt>
      <trkpt lat="45.52469" lon="4.60823">
        <ele>299.1</ele>
        <time>2014-04-19T16:08:08.949Z</time>
      </trkpt>
      <trkpt lat="45.52473" lon="4.60832">
        <ele>298.4</ele>
        <time>2014-04-19T16:08:09.022Z</time>
      </trkpt>
      <trkpt lat="45.52477" lon="4.60842">
        <ele>298.2</ele>
        <time>2014-04-19T16:08:10.007Z</time>
      </trkpt>
      <trkpt lat="45.52481" lon="4.60851">
        <ele>297.8</ele>
        <time>2014-04-19T16:08:11.097Z</time>
      </trkpt>
      <trkpt lat="45.52485" lon="4.60859">
        <ele>297.7</ele>
        <time>2014-04-19T16:08:12.280Z</time>
      </trkpt>
      <trkpt lat="45.5249" lon="4.60867">
        <ele>297.9</ele>
        <time>2014-04-19T16:08:13.002Z</time>
      </trkpt>
      <trkpt lat="45.52494" lon="4.60874">
        <ele>298</ele>
        <time>2014-04-19T16:08:14.073Z</time>
      </trkpt>
      <trkpt lat="45.52498" lon="4.60882">
        <ele>298.5</ele>
        <time>2014-04-19T16:08:15.005Z</time>
      </trkpt>
      <trkpt lat="45.52501" lon="4.60888">
        <ele>299</ele>
        <time>2014-04-19T16:08:16.116Z</time>
      </trkpt>
      <trkpt lat="45.52505" lon="4.60896">
        <ele>299.4</ele>
        <time>2014-04-19T16:08:16.994Z</time>
      </trkpt>
      <trkpt lat="45.52509" lon="4.60903">
        <ele>299.4</ele>
        <time>2014-04-19T16:08:18.033Z</time>
      </trkpt>
      <trkpt lat="45.52513" lon="4.60912">
        <ele>299.1</ele>
        <time>2014-04-19T16:08:19.063Z</time>
      </trkpt>
      <trkpt lat="45.52517" lon="4.60921">
        <ele>298.9</ele>
        <time>2014-04-19T16:08:20.041Z</time>
      </trkpt>
      <trkpt lat="45.5252" lon="4.6093">
        <ele>298.8</ele>
        <time>2014-04-19T16:08:20.992Z</time>
      </trkpt>
      <trkpt lat="45.52523" lon="4.60939">
        <ele>298.7</ele>
        <time>2014-04-19T16:08:22.106Z</time>
      </trkpt>
      <trkpt lat="45.52525" lon="4.6095">
        <ele>298.7</ele>
        <time>2014-04-19T16:08:22.948Z</time>
      </trkpt>
      <trkpt lat="45.52526" lon="4.6096">
        <ele>298.7</ele>
        <time>2014-04-19T16:08:24.192Z</time>
      </trkpt>
      <trkpt lat="45.52528" lon="4.60969">
        <ele>298.6</ele>
        <time>2014-04-19T16:08:24.989Z</time>
      </trkpt>
      <trkpt lat="45.52529" lon="4.60977">
        <ele>298.4</ele>
        <time>2014-04-19T16:08:25.993Z</time>
      </trkpt>
      <trkpt lat="45.52528" lon="4.60982">
        <ele>298.2</ele>
        <time>2014-04-19T16:08:26.995Z</time>
      </trkpt>
      <trkpt lat="45.52525" lon="4.60986">
        <ele>298.3</ele>
        <time>2014-04-19T16:08:27.970Z</time>
      </trkpt>
      <trkpt lat="45.52521" lon="4.60992">
        <ele>298.5</ele>
        <time>2014-04-19T16:08:28.991Z</time>
      </trkpt>
      <trkpt lat="45.52519" lon="4.61">
        <ele>298.6</ele>
        <time>2014-04-19T16:08:30.042Z</time>
      </trkpt>
      <trkpt lat="45.5252" lon="4.61009">
        <ele>298.1</ele>
        <time>2014-04-19T16:08:30.998Z</time>
      </trkpt>
      <trkpt lat="45.52522" lon="4.61018">
        <ele>297.6</ele>
        <time>2014-04-19T16:08:32.046Z</time>
      </trkpt>
      <trkpt lat="45.52525" lon="4.61024">
        <ele>297.3</ele>
        <time>2014-04-19T16:08:32.984Z</time>
      </trkpt>
      <trkpt lat="45.5253" lon="4.61032">
        <ele>297.2</ele>
        <time>2014-04-19T16:08:34.221Z</time>
      </trkpt>
      <trkpt lat="45.52535" lon="4.6104">
        <ele>297.2</ele>
        <time>2014-04-19T16:08:35.005Z</time>
      </trkpt>
      <trkpt lat="45.52539" lon="4.61049">
        <ele>297.2</ele>
        <time>2014-04-19T16:08:36.045Z</time>
      </trkpt>
      <trkpt lat="45.52544" lon="4.61057">
        <ele>297.2</ele>
        <time>2014-04-19T16:08:36.994Z</time>
      </trkpt>
      <trkpt lat="45.52548" lon="4.61066">
        <ele>296.9</ele>
        <time>2014-04-19T16:08:38.016Z</time>
      </trkpt>
      <trkpt lat="45.52552" lon="4.61074">
        <ele>296.4</ele>
        <time>2014-04-19T16:08:38.993Z</time>
      </trkpt>
      <trkpt lat="45.52556" lon="4.61082">
        <ele>295.7</ele>
        <time>2014-04-19T16:08:40.052Z</time>
      </trkpt>
      <trkpt lat="45.52561" lon="4.6109">
        <ele>294.9</ele>
        <time>2014-04-19T16:08:40.995Z</time>
      </trkpt>
      <trkpt lat="45.52565" lon="4.61098">
        <ele>294.2</ele>
        <time>2014-04-19T16:08:41.996Z</time>
      </trkpt>
      <trkpt lat="45.5257" lon="4.61105">
        <ele>293.6</ele>
        <time>2014-04-19T16:08:43.196Z</time>
      </trkpt>
      <trkpt lat="45.52574" lon="4.61112">
        <ele>293.3</ele>
        <time>2014-04-19T16:08:44.307Z</time>
      </trkpt>
      <trkpt lat="45.52579" lon="4.61119">
        <ele>293</ele>
        <time>2014-04-19T16:08:44.990Z</time>
      </trkpt>
      <trkpt lat="45.52583" lon="4.61125">
        <ele>292.8</ele>
        <time>2014-04-19T16:08:46.019Z</time>
      </trkpt>
      <trkpt lat="45.52587" lon="4.61132">
        <ele>292.8</ele>
        <time>2014-04-19T16:08:46.965Z</time>
      </trkpt>
      <trkpt lat="45.52591" lon="4.61138">
        <ele>292.8</ele>
        <time>2014-04-19T16:08:48.025Z</time>
      </trkpt>
      <trkpt lat="45.52595" lon="4.61145">
        <ele>292.8</ele>
        <time>2014-04-19T16:08:48.951Z</time>
      </trkpt>
      <trkpt lat="45.52599" lon="4.61151">
        <ele>292.9</ele>
        <time>2014-04-19T16:08:50.083Z</time>
      </trkpt>
      <trkpt lat="45.52602" lon="4.61156">
        <ele>293.2</ele>
        <time>2014-04-19T16:08:50.951Z</time>
      </trkpt>
      <trkpt lat="45.52606" lon="4.61162">
        <ele>293.6</ele>
        <time>2014-04-19T16:08:52.226Z</time>
      </trkpt>
      <trkpt lat="45.5261" lon="4.61167">
        <ele>294</ele>
        <time>2014-04-19T16:08:52.991Z</time>
      </trkpt>
      <trkpt lat="45.52613" lon="4.61172">
        <ele>294.4</ele>
        <time>2014-04-19T16:08:53.990Z</time>
      </trkpt>
      <trkpt lat="45.52616" lon="4.61176">
        <ele>294.7</ele>
        <time>2014-04-19T16:08:54.982Z</time>
      </trkpt>
      <trkpt lat="45.5262" lon="4.61181">
        <ele>294.6</ele>
        <time>2014-04-19T16:08:56.260Z</time>
      </trkpt>
      <trkpt lat="45.52624" lon="4.61186">
        <ele>294.5</ele>
        <time>2014-04-19T16:08:56.991Z</time>
      </trkpt>
      <trkpt lat="45.52627" lon="4.6119">
        <ele>294.5</ele>
        <time>2014-04-19T16:08:58.055Z</time>
      </trkpt>
      <trkpt lat="45.52631" lon="4.61194">
        <ele>294.4</ele>
        <time>2014-04-19T16:08:58.999Z</time>
      </trkpt>
      <trkpt lat="45.52637" lon="4.61202">
        <ele>294.4</ele>
        <time>2014-04-19T16:09:01.034Z</time>
      </trkpt>
      <trkpt lat="45.5264" lon="4.61207">
        <ele>294.4</ele>
        <time>2014-04-19T16:09:01.997Z</time>
      </trkpt>
      <trkpt lat="45.52645" lon="4.61216">
        <ele>294.4</ele>
        <time>2014-04-19T16:09:04.099Z</time>
      </trkpt>
      <trkpt lat="45.52648" lon="4.61221">
        <ele>294.6</ele>
        <time>2014-04-19T16:09:05.082Z</time>
      </trkpt>
      <trkpt lat="45.52651" lon="4.61225">
        <ele>294.8</ele>
        <time>2014-04-19T16:09:06.166Z</time>
      </trkpt>
      <trkpt lat="45.52655" lon="4.6123">
        <ele>295.1</ele>
        <time>2014-04-19T16:09:06.997Z</time>
      </trkpt>
      <trkpt lat="45.52658" lon="4.61234">
        <ele>295.3</ele>
        <time>2014-04-19T16:09:08.063Z</time>
      </trkpt>
      <trkpt lat="45.52662" lon="4.61239">
        <ele>295.3</ele>
        <time>2014-04-19T16:09:09.098Z</time>
      </trkpt>
      <trkpt lat="45.52666" lon="4.61244">
        <ele>295.3</ele>
        <time>2014-04-19T16:09:10.229Z</time>
      </trkpt>
      <trkpt lat="45.52669" lon="4.61248">
        <ele>295.3</ele>
        <time>2014-04-19T16:09:10.950Z</time>
      </trkpt>
      <trkpt lat="45.52673" lon="4.61253">
        <ele>295.4</ele>
        <time>2014-04-19T16:09:12.079Z</time>
      </trkpt>
      <trkpt lat="45.52677" lon="4.61257">
        <ele>295.5</ele>
        <time>2014-04-19T16:09:12.948Z</time>
      </trkpt>
      <trkpt lat="45.52684" lon="4.61265">
        <ele>295.5</ele>
        <time>2014-04-19T16:09:15.045Z</time>
      </trkpt>
      <trkpt lat="45.52686" lon="4.61267">
        <ele>295.5</ele>
        <time>2014-04-19T16:09:15.998Z</time>
      </trkpt>
      <trkpt lat="45.52692" lon="4.61275">
        <ele>295.4</ele>
        <time>2014-04-19T16:09:20.043Z</time>
      </trkpt>
      <trkpt lat="45.52693" lon="4.61276">
        <ele>295.4</ele>
        <time>2014-04-19T16:09:20.991Z</time>
      </trkpt>
      <trkpt lat="45.52697" lon="4.61286">
        <ele>295.1</ele>
        <time>2014-04-19T16:09:28.071Z</time>
      </trkpt>
      <trkpt lat="45.52697" lon="4.61289">
        <ele>295.1</ele>
        <time>2014-04-19T16:09:28.977Z</time>
      </trkpt>
      <trkpt lat="45.52699" lon="4.61296">
        <ele>295.1</ele>
        <time>2014-04-19T16:09:31.104Z</time>
      </trkpt>
      <trkpt lat="45.527" lon="4.61301">
        <ele>295.1</ele>
        <time>2014-04-19T16:09:32.000Z</time>
      </trkpt>
      <trkpt lat="45.52703" lon="4.61308">
        <ele>294.9</ele>
        <time>2014-04-19T16:09:33.246Z</time>
      </trkpt>
      <trkpt lat="45.52705" lon="4.61315">
        <ele>294.7</ele>
        <time>2014-04-19T16:09:33.963Z</time>
      </trkpt>
      <trkpt lat="45.52708" lon="4.61322">
        <ele>294.2</ele>
        <time>2014-04-19T16:09:35.031Z</time>
      </trkpt>
      <trkpt lat="45.52712" lon="4.6133">
        <ele>294</ele>
        <time>2014-04-19T16:09:35.955Z</time>
      </trkpt>
      <trkpt lat="45.52716" lon="4.61338">
        <ele>294.1</ele>
        <time>2014-04-19T16:09:37.001Z</time>
      </trkpt>
      <trkpt lat="45.52721" lon="4.61347">
        <ele>294.2</ele>
        <time>2014-04-19T16:09:37.946Z</time>
      </trkpt>
      <trkpt lat="45.52721" lon="4.61347">
        <ele>294.2</ele>
        <time>2014-04-19T16:09:38.144Z</time>
      </trkpt>
      <trkpt lat="45.52727" lon="4.61357">
        <ele>294</ele>
        <time>2014-04-19T16:09:38.964Z</time>
      </trkpt>
      <trkpt lat="45.52727" lon="4.61357">
        <ele>294</ele>
        <time>2014-04-19T16:09:39.156Z</time>
      </trkpt>
      <trkpt lat="45.52734" lon="4.61367">
        <ele>293.9</ele>
        <time>2014-04-19T16:09:40.150Z</time>
      </trkpt>
      <trkpt lat="45.52734" lon="4.61367">
        <ele>293.9</ele>
        <time>2014-04-19T16:09:40.664Z</time>
      </trkpt>
      <trkpt lat="45.5274" lon="4.61377">
        <ele>293.5</ele>
        <time>2014-04-19T16:09:40.939Z</time>
      </trkpt>
      <trkpt lat="45.52746" lon="4.61385">
        <ele>293.2</ele>
        <time>2014-04-19T16:09:42.096Z</time>
      </trkpt>
      <trkpt lat="45.52752" lon="4.61394">
        <ele>293.1</ele>
        <time>2014-04-19T16:09:43.023Z</time>
      </trkpt>
      <trkpt lat="45.52758" lon="4.61402">
        <ele>293.4</ele>
        <time>2014-04-19T16:09:44.318Z</time>
      </trkpt>
      <trkpt lat="45.52763" lon="4.61409">
        <ele>293.8</ele>
        <time>2014-04-19T16:09:45.050Z</time>
      </trkpt>
      <trkpt lat="45.52769" lon="4.61417">
        <ele>294.6</ele>
        <time>2014-04-19T16:09:46.007Z</time>
      </trkpt>
      <trkpt lat="45.52774" lon="4.61425">
        <ele>295</ele>
        <time>2014-04-19T16:09:47.005Z</time>
      </trkpt>
      <trkpt lat="45.52778" lon="4.6143">
        <ele>295.3</ele>
        <time>2014-04-19T16:09:48.093Z</time>
      </trkpt>
      <trkpt lat="45.52782" lon="4.61436">
        <ele>295.4</ele>
        <time>2014-04-19T16:09:48.999Z</time>
      </trkpt>
      <trkpt lat="45.52785" lon="4.61442">
        <ele>295.2</ele>
        <time>2014-04-19T16:09:50.507Z</time>
      </trkpt>
      <trkpt lat="45.52787" lon="4.61447">
        <ele>295</ele>
        <time>2014-04-19T16:09:50.964Z</time>
      </trkpt>
      <trkpt lat="45.5279" lon="4.61452">
        <ele>295</ele>
        <time>2014-04-19T16:09:52.053Z</time>
      </trkpt>
      <trkpt lat="45.52793" lon="4.61458">
        <ele>294.8</ele>
        <time>2014-04-19T16:09:52.996Z</time>
      </trkpt>
      <trkpt lat="45.52796" lon="4.61464">
        <ele>294.9</ele>
        <time>2014-04-19T16:09:54.062Z</time>
      </trkpt>
      <trkpt lat="45.52798" lon="4.6147">
        <ele>295.3</ele>
        <time>2014-04-19T16:09:55.036Z</time>
      </trkpt>
      <trkpt lat="45.52803" lon="4.6148">
        <ele>296.1</ele>
        <time>2014-04-19T16:09:57.014Z</time>
      </trkpt>
      <trkpt lat="45.52806" lon="4.61485">
        <ele>295.7</ele>
        <time>2014-04-19T16:09:57.989Z</time>
      </trkpt>
      <trkpt lat="45.52808" lon="4.61491">
        <ele>295.4</ele>
        <time>2014-04-19T16:09:59.189Z</time>
      </trkpt>
      <trkpt lat="45.5281" lon="4.61497">
        <ele>295.1</ele>
        <time>2014-04-19T16:10:00.066Z</time>
      </trkpt>
      <trkpt lat="45.52813" lon="4.61503">
        <ele>294.7</ele>
        <time>2014-04-19T16:10:00.994Z</time>
      </trkpt>
      <trkpt lat="45.52815" lon="4.6151">
        <ele>294.7</ele>
        <time>2014-04-19T16:10:02.001Z</time>
      </trkpt>
      <trkpt lat="45.52817" lon="4.61516">
        <ele>295.2</ele>
        <time>2014-04-19T16:10:03.979Z</time>
      </trkpt>
      <trkpt lat="45.52819" lon="4.61521">
        <ele>295.7</ele>
        <time>2014-04-19T16:10:04.051Z</time>
      </trkpt>
      <trkpt lat="45.52823" lon="4.61527">
        <ele>295.8</ele>
        <time>2014-04-19T16:10:05.044Z</time>
      </trkpt>
      <trkpt lat="45.52826" lon="4.61534">
        <ele>295.7</ele>
        <time>2014-04-19T16:10:05.999Z</time>
      </trkpt>
      <trkpt lat="45.52829" lon="4.6154">
        <ele>295.4</ele>
        <time>2014-04-19T16:10:07.097Z</time>
      </trkpt>
      <trkpt lat="45.52833" lon="4.61546">
        <ele>295.2</ele>
        <time>2014-04-19T16:10:07.946Z</time>
      </trkpt>
      <trkpt lat="45.52836" lon="4.61552">
        <ele>295.1</ele>
        <time>2014-04-19T16:10:09.010Z</time>
      </trkpt>
      <trkpt lat="45.52838" lon="4.61559">
        <ele>295</ele>
        <time>2014-04-19T16:10:10.013Z</time>
      </trkpt>
      <trkpt lat="45.52842" lon="4.61565">
        <ele>294.8</ele>
        <time>2014-04-19T16:10:11.214Z</time>
      </trkpt>
      <trkpt lat="45.52844" lon="4.61572">
        <ele>294.3</ele>
        <time>2014-04-19T16:10:12.136Z</time>
      </trkpt>
      <trkpt lat="45.52847" lon="4.61579">
        <ele>294</ele>
        <time>2014-04-19T16:10:13.053Z</time>
      </trkpt>
      <trkpt lat="45.52849" lon="4.61586">
        <ele>293.5</ele>
        <time>2014-04-19T16:10:14.063Z</time>
      </trkpt>
      <trkpt lat="45.52853" lon="4.61596">
        <ele>293.1</ele>
        <time>2014-04-19T16:10:16.054Z</time>
      </trkpt>
      <trkpt lat="45.52854" lon="4.61599">
        <ele>293</ele>
        <time>2014-04-19T16:10:16.996Z</time>
      </trkpt>
      <trkpt lat="45.52858" lon="4.61611">
        <ele>293</ele>
        <time>2014-04-19T16:10:21.104Z</time>
      </trkpt>
      <trkpt lat="45.52859" lon="4.61615">
        <ele>293</ele>
        <time>2014-04-19T16:10:21.998Z</time>
      </trkpt>
      <trkpt lat="45.5286" lon="4.61624">
        <ele>293</ele>
        <time>2014-04-19T16:10:24.470Z</time>
      </trkpt>
      <trkpt lat="45.52861" lon="4.61629">
        <ele>293</ele>
        <time>2014-04-19T16:10:25.000Z</time>
      </trkpt>
      <trkpt lat="45.52862" lon="4.61635">
        <ele>293</ele>
        <time>2014-04-19T16:10:26.154Z</time>
      </trkpt>
      <trkpt lat="45.52862" lon="4.61642">
        <ele>292.9</ele>
        <time>2014-04-19T16:10:26.979Z</time>
      </trkpt>
      <trkpt lat="45.52863" lon="4.61649">
        <ele>292.2</ele>
        <time>2014-04-19T16:10:28.148Z</time>
      </trkpt>
      <trkpt lat="45.52863" lon="4.61656">
        <ele>291.6</ele>
        <time>2014-04-19T16:10:29.003Z</time>
      </trkpt>
      <trkpt lat="45.52864" lon="4.61663">
        <ele>291.1</ele>
        <time>2014-04-19T16:10:30.038Z</time>
      </trkpt>
      <trkpt lat="45.52865" lon="4.61671">
        <ele>290.9</ele>
        <time>2014-04-19T16:10:31.076Z</time>
      </trkpt>
      <trkpt lat="45.52866" lon="4.61678">
        <ele>290.6</ele>
        <time>2014-04-19T16:10:32.042Z</time>
      </trkpt>
      <trkpt lat="45.52867" lon="4.61684">
        <ele>290.5</ele>
        <time>2014-04-19T16:10:32.981Z</time>
      </trkpt>
      <trkpt lat="45.5287" lon="4.61691">
        <ele>290.6</ele>
        <time>2014-04-19T16:10:34.991Z</time>
      </trkpt>
      <trkpt lat="45.52871" lon="4.61695">
        <ele>290.6</ele>
        <time>2014-04-19T16:10:36.024Z</time>
      </trkpt>
      <trkpt lat="45.52874" lon="4.61706">
        <ele>290.8</ele>
        <time>2014-04-19T16:10:39.146Z</time>
      </trkpt>
      <trkpt lat="45.52875" lon="4.61711">
        <ele>291</ele>
        <time>2014-04-19T16:10:39.956Z</time>
      </trkpt>
      <trkpt lat="45.52877" lon="4.61717">
        <ele>291.1</ele>
        <time>2014-04-19T16:10:41.120Z</time>
      </trkpt>
      <trkpt lat="45.52879" lon="4.61723">
        <ele>291.3</ele>
        <time>2014-04-19T16:10:41.963Z</time>
      </trkpt>
      <trkpt lat="45.52883" lon="4.61734">
        <ele>291.7</ele>
        <time>2014-04-19T16:10:46.116Z</time>
      </trkpt>
      <trkpt lat="45.52884" lon="4.61735">
        <ele>291.9</ele>
        <time>2014-04-19T16:10:47.106Z</time>
      </trkpt>
      <trkpt lat="45.52887" lon="4.61742">
        <ele>292</ele>
        <time>2014-04-19T16:10:49.697Z</time>
      </trkpt>
      <trkpt lat="45.52889" lon="4.61746">
        <ele>292</ele>
        <time>2014-04-19T16:10:49.953Z</time>
      </trkpt>
      <trkpt lat="45.52892" lon="4.61758">
        <ele>292</ele>
        <time>2014-04-19T16:10:51.995Z</time>
      </trkpt>
      <trkpt lat="45.52894" lon="4.61764">
        <ele>292</ele>
        <time>2014-04-19T16:10:53.000Z</time>
      </trkpt>
      <trkpt lat="45.52896" lon="4.61774">
        <ele>291.7</ele>
        <time>2014-04-19T16:10:55.068Z</time>
      </trkpt>
      <trkpt lat="45.52897" lon="4.61777">
        <ele>291.7</ele>
        <time>2014-04-19T16:10:55.988Z</time>
      </trkpt>
      <trkpt lat="45.52901" lon="4.61786">
        <ele>291.5</ele>
        <time>2014-04-19T16:10:59.006Z</time>
      </trkpt>
      <trkpt lat="45.52906" lon="4.61797">
        <ele>291.3</ele>
        <time>2014-04-19T16:11:00.004Z</time>
      </trkpt>
      <trkpt lat="45.52909" lon="4.61807">
        <ele>291</ele>
        <time>2014-04-19T16:11:02.058Z</time>
      </trkpt>
      <trkpt lat="45.52911" lon="4.61811">
        <ele>290.9</ele>
        <time>2014-04-19T16:11:02.973Z</time>
      </trkpt>
      <trkpt lat="45.52915" lon="4.61822">
        <ele>290.4</ele>
        <time>2014-04-19T16:11:06.002Z</time>
      </trkpt>
      <trkpt lat="45.52917" lon="4.61825">
        <ele>290.2</ele>
        <time>2014-04-19T16:11:07.002Z</time>
      </trkpt>
      <trkpt lat="45.5292" lon="4.61836">
        <ele>289.7</ele>
        <time>2014-04-19T16:11:10.030Z</time>
      </trkpt>
      <trkpt lat="45.52921" lon="4.61839">
        <ele>289.6</ele>
        <time>2014-04-19T16:11:10.975Z</time>
      </trkpt>
      <trkpt lat="45.52926" lon="4.61843">
        <ele>285.6</ele>
        <time>2014-04-19T16:17:05.951Z</time>
      </trkpt>
    </trkseg>
  </trk>
</gpx>